<?xml version="1.0" encoding="UTF-8" standalone="no" ?>
<gpx xmlns="http://www.topografix.com/GPX/1/1" xmlns:xsi="http://www.w3.org/2001/XMLSchema-instance" xsi:schemaLocation="http://www.topografix.com/GPX/1/1 http://www.topografix.com/GPX/1/1/gpx.xsd" version="1.1" creator="VisuGPX - https://www.visugpx.com">
  <metadata>
    <name>Cap de la Lit</name>
    <desc><![CDATA[
Très belle sortie raquette.

Un Passage délicat à la descente]]></desc>
  </metadata>
  <trk>
    <name><![CDATA[Hiking]]></name>
    <trkseg>
      <trkpt lat="42.85205" lon="0.51892">
        <ele>1280</ele>
        <time>2020-02-01T08:42:25.000Z</time>
      </trkpt>
      <trkpt lat="42.85205" lon="0.51892">
        <ele>1280</ele>
        <time>2020-02-01T08:42:26.000Z</time>
      </trkpt>
      <trkpt lat="42.85205" lon="0.51892">
        <ele>1280</ele>
        <time>2020-02-01T08:42:27.000Z</time>
      </trkpt>
      <trkpt lat="42.85205" lon="0.51892">
        <ele>1280</ele>
        <time>2020-02-01T08:42:28.000Z</time>
      </trkpt>
      <trkpt lat="42.85205" lon="0.51892">
        <ele>1280</ele>
        <time>2020-02-01T08:42:29.000Z</time>
      </trkpt>
      <trkpt lat="42.85205" lon="0.51892">
        <ele>1280</ele>
        <time>2020-02-01T08:42:30.000Z</time>
      </trkpt>
      <trkpt lat="42.85205" lon="0.51892">
        <ele>1280</ele>
        <time>2020-02-01T08:42:31.000Z</time>
      </trkpt>
      <trkpt lat="42.85205" lon="0.51892">
        <ele>1280</ele>
        <time>2020-02-01T08:42:32.000Z</time>
      </trkpt>
      <trkpt lat="42.85205" lon="0.51892">
        <ele>1280</ele>
        <time>2020-02-01T08:42:33.000Z</time>
      </trkpt>
      <trkpt lat="42.85205" lon="0.51892">
        <ele>1280</ele>
        <time>2020-02-01T08:42:34.000Z</time>
      </trkpt>
      <trkpt lat="42.85205" lon="0.51892">
        <ele>1280</ele>
        <time>2020-02-01T08:42:35.000Z</time>
      </trkpt>
      <trkpt lat="42.85204" lon="0.51892">
        <ele>1280</ele>
        <time>2020-02-01T08:42:36.000Z</time>
      </trkpt>
      <trkpt lat="42.85204" lon="0.51892">
        <ele>1280</ele>
        <time>2020-02-01T08:42:37.000Z</time>
      </trkpt>
      <trkpt lat="42.85204" lon="0.51892">
        <ele>1280</ele>
        <time>2020-02-01T08:42:38.000Z</time>
      </trkpt>
      <trkpt lat="42.85204" lon="0.51892">
        <ele>1280</ele>
        <time>2020-02-01T08:42:39.000Z</time>
      </trkpt>
      <trkpt lat="42.85204" lon="0.51892">
        <ele>1280</ele>
        <time>2020-02-01T08:42:40.000Z</time>
      </trkpt>
      <trkpt lat="42.85204" lon="0.51892">
        <ele>1280</ele>
        <time>2020-02-01T08:42:41.000Z</time>
      </trkpt>
      <trkpt lat="42.85205" lon="0.51892">
        <ele>1280</ele>
        <time>2020-02-01T08:42:42.000Z</time>
      </trkpt>
      <trkpt lat="42.85205" lon="0.51892">
        <ele>1280</ele>
        <time>2020-02-01T08:42:43.000Z</time>
      </trkpt>
      <trkpt lat="42.85205" lon="0.51892">
        <ele>1280</ele>
        <time>2020-02-01T08:42:44.000Z</time>
      </trkpt>
      <trkpt lat="42.85205" lon="0.51892">
        <ele>1280</ele>
        <time>2020-02-01T08:42:45.000Z</time>
      </trkpt>
      <trkpt lat="42.85205" lon="0.51892">
        <ele>1280</ele>
        <time>2020-02-01T08:42:46.000Z</time>
      </trkpt>
      <trkpt lat="42.85205" lon="0.51892">
        <ele>1280</ele>
        <time>2020-02-01T08:42:47.000Z</time>
      </trkpt>
      <trkpt lat="42.85205" lon="0.51892">
        <ele>1280</ele>
        <time>2020-02-01T08:42:48.000Z</time>
      </trkpt>
      <trkpt lat="42.85205" lon="0.51892">
        <ele>1280</ele>
        <time>2020-02-01T08:42:49.000Z</time>
      </trkpt>
      <trkpt lat="42.85205" lon="0.51892">
        <ele>1280</ele>
        <time>2020-02-01T08:42:50.000Z</time>
      </trkpt>
      <trkpt lat="42.85205" lon="0.51892">
        <ele>1280</ele>
        <time>2020-02-01T08:42:51.000Z</time>
      </trkpt>
      <trkpt lat="42.85205" lon="0.51893">
        <ele>1280</ele>
        <time>2020-02-01T08:42:52.000Z</time>
      </trkpt>
      <trkpt lat="42.85205" lon="0.51893">
        <ele>1280</ele>
        <time>2020-02-01T08:42:53.000Z</time>
      </trkpt>
      <trkpt lat="42.85205" lon="0.51893">
        <ele>1280</ele>
        <time>2020-02-01T08:42:54.000Z</time>
      </trkpt>
      <trkpt lat="42.85205" lon="0.51893">
        <ele>1280</ele>
        <time>2020-02-01T08:42:55.000Z</time>
      </trkpt>
      <trkpt lat="42.85205" lon="0.51893">
        <ele>1279.7</ele>
        <time>2020-02-01T08:42:56.000Z</time>
      </trkpt>
      <trkpt lat="42.85205" lon="0.51893">
        <ele>1279.3</ele>
        <time>2020-02-01T08:42:57.000Z</time>
      </trkpt>
      <trkpt lat="42.85204" lon="0.51893">
        <ele>1279</ele>
        <time>2020-02-01T08:42:58.000Z</time>
      </trkpt>
      <trkpt lat="42.85204" lon="0.51893">
        <ele>1279</ele>
        <time>2020-02-01T08:42:59.000Z</time>
      </trkpt>
      <trkpt lat="42.85204" lon="0.51893">
        <ele>1279.5</ele>
        <time>2020-02-01T08:43:00.000Z</time>
      </trkpt>
      <trkpt lat="42.85204" lon="0.51893">
        <ele>1280</ele>
        <time>2020-02-01T08:43:01.000Z</time>
      </trkpt>
      <trkpt lat="42.85204" lon="0.51893">
        <ele>1280</ele>
        <time>2020-02-01T08:43:02.000Z</time>
      </trkpt>
      <trkpt lat="42.85204" lon="0.51893">
        <ele>1280</ele>
        <time>2020-02-01T08:43:03.000Z</time>
      </trkpt>
      <trkpt lat="42.85203" lon="0.51893">
        <ele>1280</ele>
        <time>2020-02-01T08:43:04.000Z</time>
      </trkpt>
      <trkpt lat="42.85203" lon="0.51893">
        <ele>1280</ele>
        <time>2020-02-01T08:43:05.000Z</time>
      </trkpt>
      <trkpt lat="42.85203" lon="0.51893">
        <ele>1280</ele>
        <time>2020-02-01T08:43:06.000Z</time>
      </trkpt>
      <trkpt lat="42.85203" lon="0.51893">
        <ele>1279</ele>
        <time>2020-02-01T08:43:07.000Z</time>
      </trkpt>
      <trkpt lat="42.85203" lon="0.51893">
        <ele>1279</ele>
        <time>2020-02-01T08:43:08.000Z</time>
      </trkpt>
      <trkpt lat="42.85202" lon="0.51893">
        <ele>1279</ele>
        <time>2020-02-01T08:43:09.000Z</time>
      </trkpt>
      <trkpt lat="42.85202" lon="0.51893">
        <ele>1279</ele>
        <time>2020-02-01T08:43:10.000Z</time>
      </trkpt>
      <trkpt lat="42.85202" lon="0.51893">
        <ele>1279</ele>
        <time>2020-02-01T08:43:11.000Z</time>
      </trkpt>
      <trkpt lat="42.85202" lon="0.51892">
        <ele>1279</ele>
        <time>2020-02-01T08:43:12.000Z</time>
      </trkpt>
      <trkpt lat="42.85203" lon="0.51892">
        <ele>1279</ele>
        <time>2020-02-01T08:43:13.000Z</time>
      </trkpt>
      <trkpt lat="42.85203" lon="0.51892">
        <ele>1279.3</ele>
        <time>2020-02-01T08:43:14.000Z</time>
      </trkpt>
      <trkpt lat="42.85203" lon="0.51892">
        <ele>1279.7</ele>
        <time>2020-02-01T08:43:15.000Z</time>
      </trkpt>
      <trkpt lat="42.85203" lon="0.51892">
        <ele>1280</ele>
        <time>2020-02-01T08:43:16.000Z</time>
      </trkpt>
      <trkpt lat="42.85203" lon="0.51892">
        <ele>1280</ele>
        <time>2020-02-01T08:43:17.000Z</time>
      </trkpt>
      <trkpt lat="42.85203" lon="0.51892">
        <ele>1280</ele>
        <time>2020-02-01T08:43:18.000Z</time>
      </trkpt>
      <trkpt lat="42.85203" lon="0.51892">
        <ele>1280</ele>
        <time>2020-02-01T08:43:19.000Z</time>
      </trkpt>
      <trkpt lat="42.85203" lon="0.51892">
        <ele>1280</ele>
        <time>2020-02-01T08:43:20.000Z</time>
      </trkpt>
      <trkpt lat="42.85203" lon="0.51892">
        <ele>1280</ele>
        <time>2020-02-01T08:43:21.000Z</time>
      </trkpt>
      <trkpt lat="42.85203" lon="0.51892">
        <ele>1280</ele>
        <time>2020-02-01T08:43:22.000Z</time>
      </trkpt>
      <trkpt lat="42.85203" lon="0.51892">
        <ele>1279</ele>
        <time>2020-02-01T08:43:23.000Z</time>
      </trkpt>
      <trkpt lat="42.85203" lon="0.51892">
        <ele>1279.3</ele>
        <time>2020-02-01T08:43:24.000Z</time>
      </trkpt>
      <trkpt lat="42.85203" lon="0.51892">
        <ele>1279.7</ele>
        <time>2020-02-01T08:43:25.000Z</time>
      </trkpt>
      <trkpt lat="42.85203" lon="0.51892">
        <ele>1280</ele>
        <time>2020-02-01T08:43:26.000Z</time>
      </trkpt>
      <trkpt lat="42.85203" lon="0.51892">
        <ele>1280</ele>
        <time>2020-02-01T08:43:27.000Z</time>
      </trkpt>
      <trkpt lat="42.85203" lon="0.51892">
        <ele>1280</ele>
        <time>2020-02-01T08:43:28.000Z</time>
      </trkpt>
      <trkpt lat="42.85202" lon="0.51891">
        <ele>1280</ele>
        <time>2020-02-01T08:43:29.000Z</time>
      </trkpt>
      <trkpt lat="42.85202" lon="0.51891">
        <ele>1279.7</ele>
        <time>2020-02-01T08:43:30.000Z</time>
      </trkpt>
      <trkpt lat="42.85203" lon="0.51891">
        <ele>1279.3</ele>
        <time>2020-02-01T08:43:31.000Z</time>
      </trkpt>
      <trkpt lat="42.85203" lon="0.51892">
        <ele>1279</ele>
        <time>2020-02-01T08:43:32.000Z</time>
      </trkpt>
      <trkpt lat="42.85203" lon="0.51892">
        <ele>1279</ele>
        <time>2020-02-01T08:43:33.000Z</time>
      </trkpt>
      <trkpt lat="42.85203" lon="0.51892">
        <ele>1279</ele>
        <time>2020-02-01T08:43:34.000Z</time>
      </trkpt>
      <trkpt lat="42.85203" lon="0.51892">
        <ele>1279</ele>
        <time>2020-02-01T08:43:35.000Z</time>
      </trkpt>
      <trkpt lat="42.85203" lon="0.51892">
        <ele>1279</ele>
        <time>2020-02-01T08:43:36.000Z</time>
      </trkpt>
      <trkpt lat="42.85203" lon="0.51892">
        <ele>1280</ele>
        <time>2020-02-01T08:43:37.000Z</time>
      </trkpt>
      <trkpt lat="42.85203" lon="0.51892">
        <ele>1280</ele>
        <time>2020-02-01T08:43:38.000Z</time>
      </trkpt>
      <trkpt lat="42.85202" lon="0.51892">
        <ele>1280</ele>
        <time>2020-02-01T08:43:39.000Z</time>
      </trkpt>
      <trkpt lat="42.85202" lon="0.51893">
        <ele>1280</ele>
        <time>2020-02-01T08:43:40.000Z</time>
      </trkpt>
      <trkpt lat="42.85202" lon="0.51893">
        <ele>1280</ele>
        <time>2020-02-01T08:43:41.000Z</time>
      </trkpt>
      <trkpt lat="42.85202" lon="0.51894">
        <ele>1280</ele>
        <time>2020-02-01T08:43:42.000Z</time>
      </trkpt>
      <trkpt lat="42.85202" lon="0.51894">
        <ele>1280</ele>
        <time>2020-02-01T08:43:43.000Z</time>
      </trkpt>
      <trkpt lat="42.85202" lon="0.51894">
        <ele>1280</ele>
        <time>2020-02-01T08:43:44.000Z</time>
      </trkpt>
      <trkpt lat="42.85202" lon="0.51895">
        <ele>1280</ele>
        <time>2020-02-01T08:43:45.000Z</time>
      </trkpt>
      <trkpt lat="42.85202" lon="0.51895">
        <ele>1280</ele>
        <time>2020-02-01T08:43:46.000Z</time>
      </trkpt>
      <trkpt lat="42.85202" lon="0.51896">
        <ele>1280</ele>
        <time>2020-02-01T08:43:47.000Z</time>
      </trkpt>
      <trkpt lat="42.85203" lon="0.51896">
        <ele>1280</ele>
        <time>2020-02-01T08:43:48.000Z</time>
      </trkpt>
      <trkpt lat="42.85203" lon="0.51897">
        <ele>1280</ele>
        <time>2020-02-01T08:43:49.000Z</time>
      </trkpt>
      <trkpt lat="42.85203" lon="0.51897">
        <ele>1280</ele>
        <time>2020-02-01T08:43:50.000Z</time>
      </trkpt>
      <trkpt lat="42.85203" lon="0.51897">
        <ele>1280</ele>
        <time>2020-02-01T08:43:51.000Z</time>
      </trkpt>
      <trkpt lat="42.85203" lon="0.51897">
        <ele>1280</ele>
        <time>2020-02-01T08:43:52.000Z</time>
      </trkpt>
      <trkpt lat="42.85203" lon="0.51896">
        <ele>1280</ele>
        <time>2020-02-01T08:43:53.000Z</time>
      </trkpt>
      <trkpt lat="42.85203" lon="0.51895">
        <ele>1279.5</ele>
        <time>2020-02-01T08:43:54.000Z</time>
      </trkpt>
      <trkpt lat="42.85203" lon="0.51895">
        <ele>1279</ele>
        <time>2020-02-01T08:43:55.000Z</time>
      </trkpt>
      <trkpt lat="42.85202" lon="0.51894">
        <ele>1279</ele>
        <time>2020-02-01T08:43:56.000Z</time>
      </trkpt>
      <trkpt lat="42.85202" lon="0.51894">
        <ele>1279</ele>
        <time>2020-02-01T08:43:57.000Z</time>
      </trkpt>
      <trkpt lat="42.85202" lon="0.51895">
        <ele>1279</ele>
        <time>2020-02-01T08:43:58.000Z</time>
      </trkpt>
      <trkpt lat="42.85202" lon="0.51895">
        <ele>1279</ele>
        <time>2020-02-01T08:43:59.000Z</time>
      </trkpt>
      <trkpt lat="42.85203" lon="0.51895">
        <ele>1279.3</ele>
        <time>2020-02-01T08:44:00.000Z</time>
      </trkpt>
      <trkpt lat="42.85203" lon="0.51896">
        <ele>1279.7</ele>
        <time>2020-02-01T08:44:01.000Z</time>
      </trkpt>
      <trkpt lat="42.85203" lon="0.51896">
        <ele>1280</ele>
        <time>2020-02-01T08:44:02.000Z</time>
      </trkpt>
      <trkpt lat="42.85204" lon="0.51896">
        <ele>1280</ele>
        <time>2020-02-01T08:44:03.000Z</time>
      </trkpt>
      <trkpt lat="42.85204" lon="0.51896">
        <ele>1280</ele>
        <time>2020-02-01T08:44:04.000Z</time>
      </trkpt>
      <trkpt lat="42.85204" lon="0.51896">
        <ele>1280</ele>
        <time>2020-02-01T08:44:05.000Z</time>
      </trkpt>
      <trkpt lat="42.85204" lon="0.51896">
        <ele>1280</ele>
        <time>2020-02-01T08:44:06.000Z</time>
      </trkpt>
      <trkpt lat="42.85204" lon="0.51897">
        <ele>1280</ele>
        <time>2020-02-01T08:44:07.000Z</time>
      </trkpt>
      <trkpt lat="42.85204" lon="0.51897">
        <ele>1280</ele>
        <time>2020-02-01T08:44:08.000Z</time>
      </trkpt>
      <trkpt lat="42.85204" lon="0.51897">
        <ele>1280</ele>
        <time>2020-02-01T08:44:09.000Z</time>
      </trkpt>
      <trkpt lat="42.85203" lon="0.51897">
        <ele>1280</ele>
        <time>2020-02-01T08:44:10.000Z</time>
      </trkpt>
      <trkpt lat="42.85203" lon="0.51897">
        <ele>1280</ele>
        <time>2020-02-01T08:44:11.000Z</time>
      </trkpt>
      <trkpt lat="42.85203" lon="0.51897">
        <ele>1280</ele>
        <time>2020-02-01T08:44:12.000Z</time>
      </trkpt>
      <trkpt lat="42.85203" lon="0.51897">
        <ele>1280</ele>
        <time>2020-02-01T08:44:13.000Z</time>
      </trkpt>
      <trkpt lat="42.85203" lon="0.51897">
        <ele>1280</ele>
        <time>2020-02-01T08:44:14.000Z</time>
      </trkpt>
      <trkpt lat="42.85204" lon="0.51897">
        <ele>1280</ele>
        <time>2020-02-01T08:44:15.000Z</time>
      </trkpt>
      <trkpt lat="42.85204" lon="0.51897">
        <ele>1280</ele>
        <time>2020-02-01T08:44:16.000Z</time>
      </trkpt>
      <trkpt lat="42.85204" lon="0.51896">
        <ele>1280</ele>
        <time>2020-02-01T08:44:17.000Z</time>
      </trkpt>
      <trkpt lat="42.85204" lon="0.51896">
        <ele>1280</ele>
        <time>2020-02-01T08:44:18.000Z</time>
      </trkpt>
      <trkpt lat="42.85204" lon="0.51896">
        <ele>1280</ele>
        <time>2020-02-01T08:44:19.000Z</time>
      </trkpt>
      <trkpt lat="42.85205" lon="0.51896">
        <ele>1279.7</ele>
        <time>2020-02-01T08:44:20.000Z</time>
      </trkpt>
      <trkpt lat="42.85205" lon="0.51896">
        <ele>1279.3</ele>
        <time>2020-02-01T08:44:21.000Z</time>
      </trkpt>
      <trkpt lat="42.85206" lon="0.51896">
        <ele>1279</ele>
        <time>2020-02-01T08:44:22.000Z</time>
      </trkpt>
      <trkpt lat="42.85206" lon="0.51896">
        <ele>1279.5</ele>
        <time>2020-02-01T08:44:23.000Z</time>
      </trkpt>
      <trkpt lat="42.85207" lon="0.51896">
        <ele>1280</ele>
        <time>2020-02-01T08:44:24.000Z</time>
      </trkpt>
      <trkpt lat="42.85207" lon="0.51896">
        <ele>1280</ele>
        <time>2020-02-01T08:44:25.000Z</time>
      </trkpt>
      <trkpt lat="42.85208" lon="0.51896">
        <ele>1280</ele>
        <time>2020-02-01T08:44:26.000Z</time>
      </trkpt>
      <trkpt lat="42.85208" lon="0.51895">
        <ele>1279</ele>
        <time>2020-02-01T08:44:27.000Z</time>
      </trkpt>
      <trkpt lat="42.85208" lon="0.51895">
        <ele>1279</ele>
        <time>2020-02-01T08:44:28.000Z</time>
      </trkpt>
      <trkpt lat="42.85208" lon="0.51894">
        <ele>1279</ele>
        <time>2020-02-01T08:44:29.000Z</time>
      </trkpt>
      <trkpt lat="42.85208" lon="0.51894">
        <ele>1279</ele>
        <time>2020-02-01T08:44:30.000Z</time>
      </trkpt>
      <trkpt lat="42.85208" lon="0.51893">
        <ele>1279</ele>
        <time>2020-02-01T08:44:31.000Z</time>
      </trkpt>
      <trkpt lat="42.85208" lon="0.51893">
        <ele>1279</ele>
        <time>2020-02-01T08:44:32.000Z</time>
      </trkpt>
      <trkpt lat="42.85209" lon="0.51893">
        <ele>1279</ele>
        <time>2020-02-01T08:44:33.000Z</time>
      </trkpt>
      <trkpt lat="42.85209" lon="0.51893">
        <ele>1279</ele>
        <time>2020-02-01T08:44:34.000Z</time>
      </trkpt>
      <trkpt lat="42.85209" lon="0.51893">
        <ele>1279</ele>
        <time>2020-02-01T08:44:35.000Z</time>
      </trkpt>
      <trkpt lat="42.85209" lon="0.51893">
        <ele>1279</ele>
        <time>2020-02-01T08:44:36.000Z</time>
      </trkpt>
      <trkpt lat="42.85209" lon="0.51893">
        <ele>1279</ele>
        <time>2020-02-01T08:44:37.000Z</time>
      </trkpt>
      <trkpt lat="42.85209" lon="0.51893">
        <ele>1279</ele>
        <time>2020-02-01T08:44:38.000Z</time>
      </trkpt>
      <trkpt lat="42.85209" lon="0.51893">
        <ele>1279</ele>
        <time>2020-02-01T08:44:39.000Z</time>
      </trkpt>
      <trkpt lat="42.85209" lon="0.51893">
        <ele>1279</ele>
        <time>2020-02-01T08:44:40.000Z</time>
      </trkpt>
      <trkpt lat="42.85209" lon="0.51893">
        <ele>1279</ele>
        <time>2020-02-01T08:44:41.000Z</time>
      </trkpt>
      <trkpt lat="42.85209" lon="0.51893">
        <ele>1279</ele>
        <time>2020-02-01T08:44:42.000Z</time>
      </trkpt>
      <trkpt lat="42.85209" lon="0.51893">
        <ele>1279</ele>
        <time>2020-02-01T08:44:43.000Z</time>
      </trkpt>
      <trkpt lat="42.85208" lon="0.51893">
        <ele>1279</ele>
        <time>2020-02-01T08:44:44.000Z</time>
      </trkpt>
      <trkpt lat="42.85208" lon="0.51893">
        <ele>1279</ele>
        <time>2020-02-01T08:44:45.000Z</time>
      </trkpt>
      <trkpt lat="42.85208" lon="0.51893">
        <ele>1279</ele>
        <time>2020-02-01T08:44:46.000Z</time>
      </trkpt>
      <trkpt lat="42.85208" lon="0.51892">
        <ele>1279</ele>
        <time>2020-02-01T08:44:47.000Z</time>
      </trkpt>
      <trkpt lat="42.85208" lon="0.51892">
        <ele>1279</ele>
        <time>2020-02-01T08:44:48.000Z</time>
      </trkpt>
      <trkpt lat="42.85208" lon="0.51892">
        <ele>1279</ele>
        <time>2020-02-01T08:44:49.000Z</time>
      </trkpt>
      <trkpt lat="42.85208" lon="0.51892">
        <ele>1279</ele>
        <time>2020-02-01T08:44:50.000Z</time>
      </trkpt>
      <trkpt lat="42.85208" lon="0.51891">
        <ele>1279</ele>
        <time>2020-02-01T08:44:51.000Z</time>
      </trkpt>
      <trkpt lat="42.85208" lon="0.51891">
        <ele>1279</ele>
        <time>2020-02-01T08:44:52.000Z</time>
      </trkpt>
      <trkpt lat="42.85207" lon="0.5189">
        <ele>1279</ele>
        <time>2020-02-01T08:44:53.000Z</time>
      </trkpt>
      <trkpt lat="42.85207" lon="0.5189">
        <ele>1279</ele>
        <time>2020-02-01T08:44:54.000Z</time>
      </trkpt>
      <trkpt lat="42.85207" lon="0.51889">
        <ele>1279</ele>
        <time>2020-02-01T08:44:55.000Z</time>
      </trkpt>
      <trkpt lat="42.85207" lon="0.51888">
        <ele>1279</ele>
        <time>2020-02-01T08:44:56.000Z</time>
      </trkpt>
      <trkpt lat="42.85207" lon="0.51887">
        <ele>1278</ele>
        <time>2020-02-01T08:44:57.000Z</time>
      </trkpt>
      <trkpt lat="42.85208" lon="0.51887">
        <ele>1278</ele>
        <time>2020-02-01T08:44:58.000Z</time>
      </trkpt>
      <trkpt lat="42.85208" lon="0.51886">
        <ele>1278</ele>
        <time>2020-02-01T08:44:59.000Z</time>
      </trkpt>
      <trkpt lat="42.85208" lon="0.51886">
        <ele>1278</ele>
        <time>2020-02-01T08:45:00.000Z</time>
      </trkpt>
      <trkpt lat="42.85208" lon="0.51886">
        <ele>1278</ele>
        <time>2020-02-01T08:45:01.000Z</time>
      </trkpt>
      <trkpt lat="42.85209" lon="0.51886">
        <ele>1278</ele>
        <time>2020-02-01T08:45:02.000Z</time>
      </trkpt>
      <trkpt lat="42.85209" lon="0.51886">
        <ele>1278</ele>
        <time>2020-02-01T08:45:03.000Z</time>
      </trkpt>
      <trkpt lat="42.85209" lon="0.51886">
        <ele>1278</ele>
        <time>2020-02-01T08:45:04.000Z</time>
      </trkpt>
      <trkpt lat="42.85209" lon="0.51886">
        <ele>1278</ele>
        <time>2020-02-01T08:45:05.000Z</time>
      </trkpt>
      <trkpt lat="42.85209" lon="0.51886">
        <ele>1278</ele>
        <time>2020-02-01T08:45:06.000Z</time>
      </trkpt>
      <trkpt lat="42.85209" lon="0.51886">
        <ele>1278</ele>
        <time>2020-02-01T08:45:07.000Z</time>
      </trkpt>
      <trkpt lat="42.85209" lon="0.51886">
        <ele>1278</ele>
        <time>2020-02-01T08:45:08.000Z</time>
      </trkpt>
      <trkpt lat="42.85209" lon="0.51886">
        <ele>1278.5</ele>
        <time>2020-02-01T08:45:09.000Z</time>
      </trkpt>
      <trkpt lat="42.85209" lon="0.51887">
        <ele>1279</ele>
        <time>2020-02-01T08:45:10.000Z</time>
      </trkpt>
      <trkpt lat="42.8521" lon="0.51887">
        <ele>1279</ele>
        <time>2020-02-01T08:45:11.000Z</time>
      </trkpt>
      <trkpt lat="42.8521" lon="0.51887">
        <ele>1279</ele>
        <time>2020-02-01T08:45:12.000Z</time>
      </trkpt>
      <trkpt lat="42.8521" lon="0.51887">
        <ele>1279</ele>
        <time>2020-02-01T08:45:13.000Z</time>
      </trkpt>
      <trkpt lat="42.8521" lon="0.51887">
        <ele>1279</ele>
        <time>2020-02-01T08:45:14.000Z</time>
      </trkpt>
      <trkpt lat="42.8521" lon="0.51887">
        <ele>1279</ele>
        <time>2020-02-01T08:45:15.000Z</time>
      </trkpt>
      <trkpt lat="42.8521" lon="0.51887">
        <ele>1279</ele>
        <time>2020-02-01T08:45:16.000Z</time>
      </trkpt>
      <trkpt lat="42.8521" lon="0.51887">
        <ele>1279</ele>
        <time>2020-02-01T08:45:17.000Z</time>
      </trkpt>
      <trkpt lat="42.8521" lon="0.51888">
        <ele>1279</ele>
        <time>2020-02-01T08:45:18.000Z</time>
      </trkpt>
      <trkpt lat="42.85209" lon="0.51888">
        <ele>1279</ele>
        <time>2020-02-01T08:45:19.000Z</time>
      </trkpt>
      <trkpt lat="42.85209" lon="0.51888">
        <ele>1279</ele>
        <time>2020-02-01T08:45:20.000Z</time>
      </trkpt>
      <trkpt lat="42.85209" lon="0.51888">
        <ele>1279</ele>
        <time>2020-02-01T08:45:21.000Z</time>
      </trkpt>
      <trkpt lat="42.85209" lon="0.51888">
        <ele>1279</ele>
        <time>2020-02-01T08:45:22.000Z</time>
      </trkpt>
      <trkpt lat="42.85209" lon="0.51888">
        <ele>1279</ele>
        <time>2020-02-01T08:45:23.000Z</time>
      </trkpt>
      <trkpt lat="42.85209" lon="0.51888">
        <ele>1279</ele>
        <time>2020-02-01T08:45:24.000Z</time>
      </trkpt>
      <trkpt lat="42.85209" lon="0.51888">
        <ele>1279</ele>
        <time>2020-02-01T08:45:25.000Z</time>
      </trkpt>
      <trkpt lat="42.85209" lon="0.51888">
        <ele>1279</ele>
        <time>2020-02-01T08:45:26.000Z</time>
      </trkpt>
      <trkpt lat="42.85209" lon="0.51888">
        <ele>1279</ele>
        <time>2020-02-01T08:45:27.000Z</time>
      </trkpt>
      <trkpt lat="42.85209" lon="0.51888">
        <ele>1279</ele>
        <time>2020-02-01T08:45:28.000Z</time>
      </trkpt>
      <trkpt lat="42.85209" lon="0.51888">
        <ele>1279</ele>
        <time>2020-02-01T08:45:29.000Z</time>
      </trkpt>
      <trkpt lat="42.85209" lon="0.51888">
        <ele>1279</ele>
        <time>2020-02-01T08:45:30.000Z</time>
      </trkpt>
      <trkpt lat="42.85209" lon="0.51888">
        <ele>1279</ele>
        <time>2020-02-01T08:45:31.000Z</time>
      </trkpt>
      <trkpt lat="42.85209" lon="0.51888">
        <ele>1279</ele>
        <time>2020-02-01T08:45:32.000Z</time>
      </trkpt>
      <trkpt lat="42.85209" lon="0.51888">
        <ele>1279</ele>
        <time>2020-02-01T08:45:33.000Z</time>
      </trkpt>
      <trkpt lat="42.85209" lon="0.51888">
        <ele>1279</ele>
        <time>2020-02-01T08:45:34.000Z</time>
      </trkpt>
      <trkpt lat="42.85209" lon="0.51888">
        <ele>1279</ele>
        <time>2020-02-01T08:45:35.000Z</time>
      </trkpt>
      <trkpt lat="42.85209" lon="0.51888">
        <ele>1279</ele>
        <time>2020-02-01T08:45:36.000Z</time>
      </trkpt>
      <trkpt lat="42.85209" lon="0.51888">
        <ele>1279</ele>
        <time>2020-02-01T08:45:37.000Z</time>
      </trkpt>
      <trkpt lat="42.85208" lon="0.51888">
        <ele>1279</ele>
        <time>2020-02-01T08:45:38.000Z</time>
      </trkpt>
      <trkpt lat="42.85208" lon="0.51888">
        <ele>1279</ele>
        <time>2020-02-01T08:45:39.000Z</time>
      </trkpt>
      <trkpt lat="42.85208" lon="0.51888">
        <ele>1279</ele>
        <time>2020-02-01T08:45:40.000Z</time>
      </trkpt>
      <trkpt lat="42.85208" lon="0.51888">
        <ele>1279</ele>
        <time>2020-02-01T08:45:41.000Z</time>
      </trkpt>
      <trkpt lat="42.85207" lon="0.51889">
        <ele>1279</ele>
        <time>2020-02-01T08:45:42.000Z</time>
      </trkpt>
      <trkpt lat="42.85207" lon="0.51889">
        <ele>1279</ele>
        <time>2020-02-01T08:45:43.000Z</time>
      </trkpt>
      <trkpt lat="42.85207" lon="0.51889">
        <ele>1279</ele>
        <time>2020-02-01T08:45:44.000Z</time>
      </trkpt>
      <trkpt lat="42.85206" lon="0.51889">
        <ele>1279</ele>
        <time>2020-02-01T08:45:45.000Z</time>
      </trkpt>
      <trkpt lat="42.85206" lon="0.51889">
        <ele>1279</ele>
        <time>2020-02-01T08:45:46.000Z</time>
      </trkpt>
      <trkpt lat="42.85206" lon="0.51889">
        <ele>1279</ele>
        <time>2020-02-01T08:45:47.000Z</time>
      </trkpt>
      <trkpt lat="42.85206" lon="0.51889">
        <ele>1279</ele>
        <time>2020-02-01T08:45:48.000Z</time>
      </trkpt>
      <trkpt lat="42.85206" lon="0.51889">
        <ele>1279</ele>
        <time>2020-02-01T08:45:49.000Z</time>
      </trkpt>
      <trkpt lat="42.85206" lon="0.51889">
        <ele>1279</ele>
        <time>2020-02-01T08:45:50.000Z</time>
      </trkpt>
      <trkpt lat="42.85206" lon="0.51889">
        <ele>1279</ele>
        <time>2020-02-01T08:45:51.000Z</time>
      </trkpt>
      <trkpt lat="42.85206" lon="0.51889">
        <ele>1279</ele>
        <time>2020-02-01T08:45:52.000Z</time>
      </trkpt>
      <trkpt lat="42.85206" lon="0.51889">
        <ele>1279</ele>
        <time>2020-02-01T08:45:53.000Z</time>
      </trkpt>
      <trkpt lat="42.85206" lon="0.51889">
        <ele>1279</ele>
        <time>2020-02-01T08:45:54.000Z</time>
      </trkpt>
      <trkpt lat="42.85206" lon="0.51889">
        <ele>1279</ele>
        <time>2020-02-01T08:45:55.000Z</time>
      </trkpt>
      <trkpt lat="42.85207" lon="0.51889">
        <ele>1279</ele>
        <time>2020-02-01T08:45:56.000Z</time>
      </trkpt>
      <trkpt lat="42.85207" lon="0.51889">
        <ele>1279</ele>
        <time>2020-02-01T08:45:57.000Z</time>
      </trkpt>
      <trkpt lat="42.85207" lon="0.51889">
        <ele>1279</ele>
        <time>2020-02-01T08:45:58.000Z</time>
      </trkpt>
      <trkpt lat="42.85207" lon="0.51889">
        <ele>1279</ele>
        <time>2020-02-01T08:45:59.000Z</time>
      </trkpt>
      <trkpt lat="42.85207" lon="0.51889">
        <ele>1279</ele>
        <time>2020-02-01T08:46:00.000Z</time>
      </trkpt>
      <trkpt lat="42.85207" lon="0.51889">
        <ele>1279</ele>
        <time>2020-02-01T08:46:01.000Z</time>
      </trkpt>
      <trkpt lat="42.85207" lon="0.51889">
        <ele>1279</ele>
        <time>2020-02-01T08:46:02.000Z</time>
      </trkpt>
      <trkpt lat="42.85207" lon="0.51889">
        <ele>1279</ele>
        <time>2020-02-01T08:46:03.000Z</time>
      </trkpt>
      <trkpt lat="42.85208" lon="0.51889">
        <ele>1279</ele>
        <time>2020-02-01T08:46:04.000Z</time>
      </trkpt>
      <trkpt lat="42.85208" lon="0.51889">
        <ele>1279</ele>
        <time>2020-02-01T08:46:05.000Z</time>
      </trkpt>
      <trkpt lat="42.85209" lon="0.51888">
        <ele>1279</ele>
        <time>2020-02-01T08:46:06.000Z</time>
      </trkpt>
      <trkpt lat="42.85209" lon="0.51888">
        <ele>1279</ele>
        <time>2020-02-01T08:46:07.000Z</time>
      </trkpt>
      <trkpt lat="42.85209" lon="0.51888">
        <ele>1279</ele>
        <time>2020-02-01T08:46:08.000Z</time>
      </trkpt>
      <trkpt lat="42.85209" lon="0.51888">
        <ele>1279</ele>
        <time>2020-02-01T08:46:09.000Z</time>
      </trkpt>
      <trkpt lat="42.85209" lon="0.51888">
        <ele>1279</ele>
        <time>2020-02-01T08:46:10.000Z</time>
      </trkpt>
      <trkpt lat="42.85209" lon="0.51888">
        <ele>1279</ele>
        <time>2020-02-01T08:46:11.000Z</time>
      </trkpt>
      <trkpt lat="42.85209" lon="0.51888">
        <ele>1279</ele>
        <time>2020-02-01T08:46:12.000Z</time>
      </trkpt>
      <trkpt lat="42.85209" lon="0.51888">
        <ele>1279</ele>
        <time>2020-02-01T08:46:13.000Z</time>
      </trkpt>
      <trkpt lat="42.85209" lon="0.51888">
        <ele>1279</ele>
        <time>2020-02-01T08:46:14.000Z</time>
      </trkpt>
      <trkpt lat="42.85208" lon="0.51888">
        <ele>1279</ele>
        <time>2020-02-01T08:46:15.000Z</time>
      </trkpt>
      <trkpt lat="42.85207" lon="0.51888">
        <ele>1279</ele>
        <time>2020-02-01T08:46:16.000Z</time>
      </trkpt>
      <trkpt lat="42.85206" lon="0.51889">
        <ele>1279</ele>
        <time>2020-02-01T08:46:17.000Z</time>
      </trkpt>
      <trkpt lat="42.85206" lon="0.51889">
        <ele>1279</ele>
        <time>2020-02-01T08:46:18.000Z</time>
      </trkpt>
      <trkpt lat="42.85207" lon="0.5189">
        <ele>1279</ele>
        <time>2020-02-01T08:46:19.000Z</time>
      </trkpt>
      <trkpt lat="42.85207" lon="0.5189">
        <ele>1279</ele>
        <time>2020-02-01T08:46:20.000Z</time>
      </trkpt>
      <trkpt lat="42.85208" lon="0.5189">
        <ele>1279</ele>
        <time>2020-02-01T08:46:21.000Z</time>
      </trkpt>
      <trkpt lat="42.85208" lon="0.5189">
        <ele>1279</ele>
        <time>2020-02-01T08:46:22.000Z</time>
      </trkpt>
      <trkpt lat="42.85208" lon="0.5189">
        <ele>1279</ele>
        <time>2020-02-01T08:46:23.000Z</time>
      </trkpt>
      <trkpt lat="42.85209" lon="0.51889">
        <ele>1279</ele>
        <time>2020-02-01T08:46:24.000Z</time>
      </trkpt>
      <trkpt lat="42.85209" lon="0.51889">
        <ele>1279</ele>
        <time>2020-02-01T08:46:25.000Z</time>
      </trkpt>
      <trkpt lat="42.85209" lon="0.51889">
        <ele>1279</ele>
        <time>2020-02-01T08:46:26.000Z</time>
      </trkpt>
      <trkpt lat="42.85209" lon="0.51889">
        <ele>1279</ele>
        <time>2020-02-01T08:46:27.000Z</time>
      </trkpt>
      <trkpt lat="42.85209" lon="0.51889">
        <ele>1279</ele>
        <time>2020-02-01T08:46:28.000Z</time>
      </trkpt>
      <trkpt lat="42.85209" lon="0.51889">
        <ele>1279</ele>
        <time>2020-02-01T08:46:29.000Z</time>
      </trkpt>
      <trkpt lat="42.85209" lon="0.51889">
        <ele>1279</ele>
        <time>2020-02-01T08:46:30.000Z</time>
      </trkpt>
      <trkpt lat="42.85209" lon="0.51889">
        <ele>1279</ele>
        <time>2020-02-01T08:46:31.000Z</time>
      </trkpt>
      <trkpt lat="42.85209" lon="0.51889">
        <ele>1279</ele>
        <time>2020-02-01T08:46:32.000Z</time>
      </trkpt>
      <trkpt lat="42.85209" lon="0.51889">
        <ele>1279</ele>
        <time>2020-02-01T08:46:33.000Z</time>
      </trkpt>
      <trkpt lat="42.85209" lon="0.51889">
        <ele>1279</ele>
        <time>2020-02-01T08:46:34.000Z</time>
      </trkpt>
      <trkpt lat="42.85209" lon="0.51889">
        <ele>1279</ele>
        <time>2020-02-01T08:46:35.000Z</time>
      </trkpt>
      <trkpt lat="42.85209" lon="0.51889">
        <ele>1279</ele>
        <time>2020-02-01T08:46:36.000Z</time>
      </trkpt>
      <trkpt lat="42.85209" lon="0.51889">
        <ele>1279</ele>
        <time>2020-02-01T08:46:37.000Z</time>
      </trkpt>
      <trkpt lat="42.85209" lon="0.51889">
        <ele>1279</ele>
        <time>2020-02-01T08:46:38.000Z</time>
      </trkpt>
      <trkpt lat="42.85209" lon="0.51889">
        <ele>1279</ele>
        <time>2020-02-01T08:46:39.000Z</time>
      </trkpt>
      <trkpt lat="42.85209" lon="0.51889">
        <ele>1279</ele>
        <time>2020-02-01T08:46:40.000Z</time>
      </trkpt>
      <trkpt lat="42.85209" lon="0.51889">
        <ele>1279</ele>
        <time>2020-02-01T08:46:41.000Z</time>
      </trkpt>
      <trkpt lat="42.85209" lon="0.51889">
        <ele>1279</ele>
        <time>2020-02-01T08:46:42.000Z</time>
      </trkpt>
      <trkpt lat="42.85209" lon="0.51889">
        <ele>1279</ele>
        <time>2020-02-01T08:46:43.000Z</time>
      </trkpt>
      <trkpt lat="42.85209" lon="0.51889">
        <ele>1279</ele>
        <time>2020-02-01T08:46:44.000Z</time>
      </trkpt>
      <trkpt lat="42.85209" lon="0.51889">
        <ele>1279</ele>
        <time>2020-02-01T08:46:45.000Z</time>
      </trkpt>
      <trkpt lat="42.85209" lon="0.51889">
        <ele>1279</ele>
        <time>2020-02-01T08:46:46.000Z</time>
      </trkpt>
      <trkpt lat="42.85209" lon="0.51889">
        <ele>1279</ele>
        <time>2020-02-01T08:46:47.000Z</time>
      </trkpt>
      <trkpt lat="42.85209" lon="0.51889">
        <ele>1279</ele>
        <time>2020-02-01T08:46:48.000Z</time>
      </trkpt>
      <trkpt lat="42.85209" lon="0.51889">
        <ele>1279</ele>
        <time>2020-02-01T08:46:49.000Z</time>
      </trkpt>
      <trkpt lat="42.85209" lon="0.51889">
        <ele>1279</ele>
        <time>2020-02-01T08:46:50.000Z</time>
      </trkpt>
      <trkpt lat="42.85209" lon="0.51889">
        <ele>1279</ele>
        <time>2020-02-01T08:46:51.000Z</time>
      </trkpt>
      <trkpt lat="42.85209" lon="0.51889">
        <ele>1279</ele>
        <time>2020-02-01T08:46:52.000Z</time>
      </trkpt>
      <trkpt lat="42.85209" lon="0.51889">
        <ele>1279</ele>
        <time>2020-02-01T08:46:53.000Z</time>
      </trkpt>
      <trkpt lat="42.85209" lon="0.51889">
        <ele>1279</ele>
        <time>2020-02-01T08:46:54.000Z</time>
      </trkpt>
      <trkpt lat="42.85209" lon="0.51889">
        <ele>1279</ele>
        <time>2020-02-01T08:46:55.000Z</time>
      </trkpt>
      <trkpt lat="42.85209" lon="0.51889">
        <ele>1279</ele>
        <time>2020-02-01T08:46:56.000Z</time>
      </trkpt>
      <trkpt lat="42.85209" lon="0.51889">
        <ele>1279</ele>
        <time>2020-02-01T08:46:57.000Z</time>
      </trkpt>
      <trkpt lat="42.85209" lon="0.51889">
        <ele>1279</ele>
        <time>2020-02-01T08:46:58.000Z</time>
      </trkpt>
      <trkpt lat="42.85209" lon="0.51889">
        <ele>1279</ele>
        <time>2020-02-01T08:46:59.000Z</time>
      </trkpt>
      <trkpt lat="42.85209" lon="0.51889">
        <ele>1279</ele>
        <time>2020-02-01T08:47:00.000Z</time>
      </trkpt>
      <trkpt lat="42.85209" lon="0.51889">
        <ele>1279</ele>
        <time>2020-02-01T08:47:01.000Z</time>
      </trkpt>
      <trkpt lat="42.85209" lon="0.51889">
        <ele>1279</ele>
        <time>2020-02-01T08:47:02.000Z</time>
      </trkpt>
      <trkpt lat="42.85209" lon="0.51889">
        <ele>1279</ele>
        <time>2020-02-01T08:47:03.000Z</time>
      </trkpt>
      <trkpt lat="42.85209" lon="0.51889">
        <ele>1279</ele>
        <time>2020-02-01T08:47:04.000Z</time>
      </trkpt>
      <trkpt lat="42.85209" lon="0.51889">
        <ele>1279</ele>
        <time>2020-02-01T08:47:05.000Z</time>
      </trkpt>
      <trkpt lat="42.85209" lon="0.51889">
        <ele>1279</ele>
        <time>2020-02-01T08:47:06.000Z</time>
      </trkpt>
      <trkpt lat="42.85209" lon="0.51889">
        <ele>1279</ele>
        <time>2020-02-01T08:47:07.000Z</time>
      </trkpt>
      <trkpt lat="42.85209" lon="0.51889">
        <ele>1279</ele>
        <time>2020-02-01T08:47:08.000Z</time>
      </trkpt>
      <trkpt lat="42.85209" lon="0.51889">
        <ele>1279</ele>
        <time>2020-02-01T08:47:09.000Z</time>
      </trkpt>
      <trkpt lat="42.85209" lon="0.51889">
        <ele>1279</ele>
        <time>2020-02-01T08:47:10.000Z</time>
      </trkpt>
      <trkpt lat="42.85209" lon="0.51889">
        <ele>1279</ele>
        <time>2020-02-01T08:47:11.000Z</time>
      </trkpt>
      <trkpt lat="42.85209" lon="0.51889">
        <ele>1279</ele>
        <time>2020-02-01T08:47:12.000Z</time>
      </trkpt>
      <trkpt lat="42.85209" lon="0.51889">
        <ele>1279</ele>
        <time>2020-02-01T08:47:13.000Z</time>
      </trkpt>
      <trkpt lat="42.85209" lon="0.51889">
        <ele>1279</ele>
        <time>2020-02-01T08:47:14.000Z</time>
      </trkpt>
      <trkpt lat="42.85209" lon="0.51889">
        <ele>1279</ele>
        <time>2020-02-01T08:47:15.000Z</time>
      </trkpt>
      <trkpt lat="42.85209" lon="0.51889">
        <ele>1279</ele>
        <time>2020-02-01T08:47:16.000Z</time>
      </trkpt>
      <trkpt lat="42.85209" lon="0.51889">
        <ele>1279</ele>
        <time>2020-02-01T08:47:17.000Z</time>
      </trkpt>
      <trkpt lat="42.85209" lon="0.51889">
        <ele>1279</ele>
        <time>2020-02-01T08:47:18.000Z</time>
      </trkpt>
      <trkpt lat="42.85209" lon="0.51889">
        <ele>1279</ele>
        <time>2020-02-01T08:47:19.000Z</time>
      </trkpt>
      <trkpt lat="42.85209" lon="0.51889">
        <ele>1279</ele>
        <time>2020-02-01T08:47:20.000Z</time>
      </trkpt>
      <trkpt lat="42.85209" lon="0.51889">
        <ele>1279</ele>
        <time>2020-02-01T08:47:21.000Z</time>
      </trkpt>
      <trkpt lat="42.85209" lon="0.51889">
        <ele>1279</ele>
        <time>2020-02-01T08:47:22.000Z</time>
      </trkpt>
      <trkpt lat="42.85209" lon="0.51889">
        <ele>1279</ele>
        <time>2020-02-01T08:47:23.000Z</time>
      </trkpt>
      <trkpt lat="42.85209" lon="0.51889">
        <ele>1279</ele>
        <time>2020-02-01T08:47:24.000Z</time>
      </trkpt>
      <trkpt lat="42.85209" lon="0.51889">
        <ele>1279</ele>
        <time>2020-02-01T08:47:25.000Z</time>
      </trkpt>
      <trkpt lat="42.85208" lon="0.51889">
        <ele>1279</ele>
        <time>2020-02-01T08:47:26.000Z</time>
      </trkpt>
      <trkpt lat="42.85208" lon="0.51889">
        <ele>1279</ele>
        <time>2020-02-01T08:47:27.000Z</time>
      </trkpt>
      <trkpt lat="42.85208" lon="0.51889">
        <ele>1279</ele>
        <time>2020-02-01T08:47:28.000Z</time>
      </trkpt>
      <trkpt lat="42.85208" lon="0.51889">
        <ele>1279</ele>
        <time>2020-02-01T08:47:29.000Z</time>
      </trkpt>
      <trkpt lat="42.85208" lon="0.51889">
        <ele>1279</ele>
        <time>2020-02-01T08:47:30.000Z</time>
      </trkpt>
      <trkpt lat="42.85208" lon="0.51889">
        <ele>1279</ele>
        <time>2020-02-01T08:47:31.000Z</time>
      </trkpt>
      <trkpt lat="42.85208" lon="0.51889">
        <ele>1279.3</ele>
        <time>2020-02-01T08:47:32.000Z</time>
      </trkpt>
      <trkpt lat="42.85208" lon="0.5189">
        <ele>1279.7</ele>
        <time>2020-02-01T08:47:33.000Z</time>
      </trkpt>
      <trkpt lat="42.85208" lon="0.5189">
        <ele>1280</ele>
        <time>2020-02-01T08:47:34.000Z</time>
      </trkpt>
      <trkpt lat="42.85208" lon="0.5189">
        <ele>1280</ele>
        <time>2020-02-01T08:47:35.000Z</time>
      </trkpt>
      <trkpt lat="42.85208" lon="0.5189">
        <ele>1280</ele>
        <time>2020-02-01T08:47:36.000Z</time>
      </trkpt>
      <trkpt lat="42.85208" lon="0.51891">
        <ele>1280</ele>
        <time>2020-02-01T08:47:37.000Z</time>
      </trkpt>
      <trkpt lat="42.85208" lon="0.51891">
        <ele>1280</ele>
        <time>2020-02-01T08:47:38.000Z</time>
      </trkpt>
      <trkpt lat="42.85208" lon="0.51892">
        <ele>1280</ele>
        <time>2020-02-01T08:47:39.000Z</time>
      </trkpt>
      <trkpt lat="42.85208" lon="0.51892">
        <ele>1280</ele>
        <time>2020-02-01T08:47:40.000Z</time>
      </trkpt>
      <trkpt lat="42.85208" lon="0.51893">
        <ele>1280</ele>
        <time>2020-02-01T08:47:41.000Z</time>
      </trkpt>
      <trkpt lat="42.85209" lon="0.51893">
        <ele>1280</ele>
        <time>2020-02-01T08:47:42.000Z</time>
      </trkpt>
      <trkpt lat="42.85209" lon="0.51894">
        <ele>1279</ele>
        <time>2020-02-01T08:47:43.000Z</time>
      </trkpt>
      <trkpt lat="42.8521" lon="0.51894">
        <ele>1279</ele>
        <time>2020-02-01T08:47:44.000Z</time>
      </trkpt>
      <trkpt lat="42.8521" lon="0.51894">
        <ele>1279</ele>
        <time>2020-02-01T08:47:45.000Z</time>
      </trkpt>
      <trkpt lat="42.8521" lon="0.51895">
        <ele>1279</ele>
        <time>2020-02-01T08:47:46.000Z</time>
      </trkpt>
      <trkpt lat="42.8521" lon="0.51895">
        <ele>1279</ele>
        <time>2020-02-01T08:47:47.000Z</time>
      </trkpt>
      <trkpt lat="42.8521" lon="0.51895">
        <ele>1279</ele>
        <time>2020-02-01T08:47:48.000Z</time>
      </trkpt>
      <trkpt lat="42.8521" lon="0.51894">
        <ele>1279</ele>
        <time>2020-02-01T08:47:49.000Z</time>
      </trkpt>
      <trkpt lat="42.85211" lon="0.51894">
        <ele>1279</ele>
        <time>2020-02-01T08:47:50.000Z</time>
      </trkpt>
      <trkpt lat="42.85212" lon="0.51894">
        <ele>1279</ele>
        <time>2020-02-01T08:47:51.000Z</time>
      </trkpt>
      <trkpt lat="42.85212" lon="0.51894">
        <ele>1279</ele>
        <time>2020-02-01T08:47:52.000Z</time>
      </trkpt>
      <trkpt lat="42.85213" lon="0.51894">
        <ele>1279</ele>
        <time>2020-02-01T08:47:53.000Z</time>
      </trkpt>
      <trkpt lat="42.85214" lon="0.51894">
        <ele>1279</ele>
        <time>2020-02-01T08:47:54.000Z</time>
      </trkpt>
      <trkpt lat="42.85214" lon="0.51894">
        <ele>1279</ele>
        <time>2020-02-01T08:47:55.000Z</time>
      </trkpt>
      <trkpt lat="42.85215" lon="0.51893">
        <ele>1279</ele>
        <time>2020-02-01T08:47:56.000Z</time>
      </trkpt>
      <trkpt lat="42.85216" lon="0.51893">
        <ele>1279</ele>
        <time>2020-02-01T08:47:57.000Z</time>
      </trkpt>
      <trkpt lat="42.85217" lon="0.51893">
        <ele>1279</ele>
        <time>2020-02-01T08:47:58.000Z</time>
      </trkpt>
      <trkpt lat="42.85218" lon="0.51893">
        <ele>1279</ele>
        <time>2020-02-01T08:47:59.000Z</time>
      </trkpt>
      <trkpt lat="42.85218" lon="0.51893">
        <ele>1278.5</ele>
        <time>2020-02-01T08:48:00.000Z</time>
      </trkpt>
      <trkpt lat="42.85219" lon="0.51893">
        <ele>1278</ele>
        <time>2020-02-01T08:48:01.000Z</time>
      </trkpt>
      <trkpt lat="42.85219" lon="0.51893">
        <ele>1278</ele>
        <time>2020-02-01T08:48:02.000Z</time>
      </trkpt>
      <trkpt lat="42.8522" lon="0.51892">
        <ele>1278</ele>
        <time>2020-02-01T08:48:03.000Z</time>
      </trkpt>
      <trkpt lat="42.8522" lon="0.51892">
        <ele>1278</ele>
        <time>2020-02-01T08:48:04.000Z</time>
      </trkpt>
      <trkpt lat="42.85221" lon="0.51892">
        <ele>1278</ele>
        <time>2020-02-01T08:48:05.000Z</time>
      </trkpt>
      <trkpt lat="42.85222" lon="0.51892">
        <ele>1278</ele>
        <time>2020-02-01T08:48:06.000Z</time>
      </trkpt>
      <trkpt lat="42.85223" lon="0.51892">
        <ele>1278</ele>
        <time>2020-02-01T08:48:07.000Z</time>
      </trkpt>
      <trkpt lat="42.85224" lon="0.51892">
        <ele>1278</ele>
        <time>2020-02-01T08:48:08.000Z</time>
      </trkpt>
      <trkpt lat="42.85225" lon="0.51892">
        <ele>1278</ele>
        <time>2020-02-01T08:48:09.000Z</time>
      </trkpt>
      <trkpt lat="42.85226" lon="0.51891">
        <ele>1278</ele>
        <time>2020-02-01T08:48:10.000Z</time>
      </trkpt>
      <trkpt lat="42.85227" lon="0.51891">
        <ele>1278</ele>
        <time>2020-02-01T08:48:11.000Z</time>
      </trkpt>
      <trkpt lat="42.85228" lon="0.51891">
        <ele>1278</ele>
        <time>2020-02-01T08:48:12.000Z</time>
      </trkpt>
      <trkpt lat="42.85229" lon="0.51891">
        <ele>1277</ele>
        <time>2020-02-01T08:48:13.000Z</time>
      </trkpt>
      <trkpt lat="42.8523" lon="0.51891">
        <ele>1277</ele>
        <time>2020-02-01T08:48:14.000Z</time>
      </trkpt>
      <trkpt lat="42.8523" lon="0.51891">
        <ele>1277</ele>
        <time>2020-02-01T08:48:15.000Z</time>
      </trkpt>
      <trkpt lat="42.8523" lon="0.5189">
        <ele>1277</ele>
        <time>2020-02-01T08:48:16.000Z</time>
      </trkpt>
      <trkpt lat="42.85231" lon="0.5189">
        <ele>1277</ele>
        <time>2020-02-01T08:48:17.000Z</time>
      </trkpt>
      <trkpt lat="42.85231" lon="0.5189">
        <ele>1277</ele>
        <time>2020-02-01T08:48:18.000Z</time>
      </trkpt>
      <trkpt lat="42.85232" lon="0.5189">
        <ele>1277</ele>
        <time>2020-02-01T08:48:19.000Z</time>
      </trkpt>
      <trkpt lat="42.85232" lon="0.5189">
        <ele>1277</ele>
        <time>2020-02-01T08:48:20.000Z</time>
      </trkpt>
      <trkpt lat="42.85233" lon="0.5189">
        <ele>1277</ele>
        <time>2020-02-01T08:48:21.000Z</time>
      </trkpt>
      <trkpt lat="42.85234" lon="0.5189">
        <ele>1277</ele>
        <time>2020-02-01T08:48:22.000Z</time>
      </trkpt>
      <trkpt lat="42.85235" lon="0.51889">
        <ele>1277</ele>
        <time>2020-02-01T08:48:23.000Z</time>
      </trkpt>
      <trkpt lat="42.85236" lon="0.51889">
        <ele>1277</ele>
        <time>2020-02-01T08:48:24.000Z</time>
      </trkpt>
      <trkpt lat="42.85237" lon="0.51888">
        <ele>1277</ele>
        <time>2020-02-01T08:48:25.000Z</time>
      </trkpt>
      <trkpt lat="42.85238" lon="0.51887">
        <ele>1277</ele>
        <time>2020-02-01T08:48:26.000Z</time>
      </trkpt>
      <trkpt lat="42.85239" lon="0.51887">
        <ele>1277</ele>
        <time>2020-02-01T08:48:27.000Z</time>
      </trkpt>
      <trkpt lat="42.8524" lon="0.51886">
        <ele>1277</ele>
        <time>2020-02-01T08:48:28.000Z</time>
      </trkpt>
      <trkpt lat="42.85241" lon="0.51885">
        <ele>1277</ele>
        <time>2020-02-01T08:48:29.000Z</time>
      </trkpt>
      <trkpt lat="42.85242" lon="0.51884">
        <ele>1277</ele>
        <time>2020-02-01T08:48:30.000Z</time>
      </trkpt>
      <trkpt lat="42.85243" lon="0.51882">
        <ele>1277</ele>
        <time>2020-02-01T08:48:31.000Z</time>
      </trkpt>
      <trkpt lat="42.85244" lon="0.51881">
        <ele>1276.5</ele>
        <time>2020-02-01T08:48:32.000Z</time>
      </trkpt>
      <trkpt lat="42.85245" lon="0.5188">
        <ele>1276</ele>
        <time>2020-02-01T08:48:33.000Z</time>
      </trkpt>
      <trkpt lat="42.85246" lon="0.51879">
        <ele>1276</ele>
        <time>2020-02-01T08:48:34.000Z</time>
      </trkpt>
      <trkpt lat="42.85247" lon="0.51878">
        <ele>1276</ele>
        <time>2020-02-01T08:48:35.000Z</time>
      </trkpt>
      <trkpt lat="42.85247" lon="0.51877">
        <ele>1276</ele>
        <time>2020-02-01T08:48:36.000Z</time>
      </trkpt>
      <trkpt lat="42.85248" lon="0.51876">
        <ele>1276</ele>
        <time>2020-02-01T08:48:37.000Z</time>
      </trkpt>
      <trkpt lat="42.85248" lon="0.51875">
        <ele>1276</ele>
        <time>2020-02-01T08:48:38.000Z</time>
      </trkpt>
      <trkpt lat="42.85248" lon="0.51874">
        <ele>1276</ele>
        <time>2020-02-01T08:48:39.000Z</time>
      </trkpt>
      <trkpt lat="42.85248" lon="0.51872">
        <ele>1276</ele>
        <time>2020-02-01T08:48:40.000Z</time>
      </trkpt>
      <trkpt lat="42.85249" lon="0.51871">
        <ele>1276</ele>
        <time>2020-02-01T08:48:41.000Z</time>
      </trkpt>
      <trkpt lat="42.85249" lon="0.5187">
        <ele>1276</ele>
        <time>2020-02-01T08:48:42.000Z</time>
      </trkpt>
      <trkpt lat="42.85249" lon="0.51869">
        <ele>1276</ele>
        <time>2020-02-01T08:48:43.000Z</time>
      </trkpt>
      <trkpt lat="42.85249" lon="0.51867">
        <ele>1276</ele>
        <time>2020-02-01T08:48:44.000Z</time>
      </trkpt>
      <trkpt lat="42.85249" lon="0.51866">
        <ele>1276</ele>
        <time>2020-02-01T08:48:45.000Z</time>
      </trkpt>
      <trkpt lat="42.85249" lon="0.51865">
        <ele>1276</ele>
        <time>2020-02-01T08:48:46.000Z</time>
      </trkpt>
      <trkpt lat="42.85249" lon="0.51864">
        <ele>1276</ele>
        <time>2020-02-01T08:48:47.000Z</time>
      </trkpt>
      <trkpt lat="42.85248" lon="0.51863">
        <ele>1276</ele>
        <time>2020-02-01T08:48:48.000Z</time>
      </trkpt>
      <trkpt lat="42.85248" lon="0.51861">
        <ele>1276</ele>
        <time>2020-02-01T08:48:49.000Z</time>
      </trkpt>
      <trkpt lat="42.85247" lon="0.5186">
        <ele>1275.7</ele>
        <time>2020-02-01T08:48:50.000Z</time>
      </trkpt>
      <trkpt lat="42.85246" lon="0.51858">
        <ele>1275.3</ele>
        <time>2020-02-01T08:48:51.000Z</time>
      </trkpt>
      <trkpt lat="42.85245" lon="0.51857">
        <ele>1275</ele>
        <time>2020-02-01T08:48:52.000Z</time>
      </trkpt>
      <trkpt lat="42.85245" lon="0.51855">
        <ele>1275</ele>
        <time>2020-02-01T08:48:53.000Z</time>
      </trkpt>
      <trkpt lat="42.85244" lon="0.51854">
        <ele>1275</ele>
        <time>2020-02-01T08:48:54.000Z</time>
      </trkpt>
      <trkpt lat="42.85243" lon="0.51853">
        <ele>1275</ele>
        <time>2020-02-01T08:48:55.000Z</time>
      </trkpt>
      <trkpt lat="42.85242" lon="0.51852">
        <ele>1275</ele>
        <time>2020-02-01T08:48:56.000Z</time>
      </trkpt>
      <trkpt lat="42.85241" lon="0.51851">
        <ele>1275</ele>
        <time>2020-02-01T08:48:57.000Z</time>
      </trkpt>
      <trkpt lat="42.8524" lon="0.5185">
        <ele>1275</ele>
        <time>2020-02-01T08:48:58.000Z</time>
      </trkpt>
      <trkpt lat="42.85239" lon="0.51849">
        <ele>1275</ele>
        <time>2020-02-01T08:48:59.000Z</time>
      </trkpt>
      <trkpt lat="42.85238" lon="0.51848">
        <ele>1275.5</ele>
        <time>2020-02-01T08:49:00.000Z</time>
      </trkpt>
      <trkpt lat="42.85238" lon="0.51847">
        <ele>1276</ele>
        <time>2020-02-01T08:49:01.000Z</time>
      </trkpt>
      <trkpt lat="42.85237" lon="0.51847">
        <ele>1276</ele>
        <time>2020-02-01T08:49:02.000Z</time>
      </trkpt>
      <trkpt lat="42.85236" lon="0.51846">
        <ele>1276</ele>
        <time>2020-02-01T08:49:03.000Z</time>
      </trkpt>
      <trkpt lat="42.85235" lon="0.51845">
        <ele>1275.7</ele>
        <time>2020-02-01T08:49:04.000Z</time>
      </trkpt>
      <trkpt lat="42.85235" lon="0.51845">
        <ele>1275.3</ele>
        <time>2020-02-01T08:49:05.000Z</time>
      </trkpt>
      <trkpt lat="42.85234" lon="0.51844">
        <ele>1275</ele>
        <time>2020-02-01T08:49:06.000Z</time>
      </trkpt>
      <trkpt lat="42.85234" lon="0.51843">
        <ele>1275</ele>
        <time>2020-02-01T08:49:07.000Z</time>
      </trkpt>
      <trkpt lat="42.85233" lon="0.51842">
        <ele>1275</ele>
        <time>2020-02-01T08:49:08.000Z</time>
      </trkpt>
      <trkpt lat="42.85233" lon="0.51842">
        <ele>1275</ele>
        <time>2020-02-01T08:49:09.000Z</time>
      </trkpt>
      <trkpt lat="42.85232" lon="0.51841">
        <ele>1275</ele>
        <time>2020-02-01T08:49:10.000Z</time>
      </trkpt>
      <trkpt lat="42.85232" lon="0.5184">
        <ele>1275</ele>
        <time>2020-02-01T08:49:11.000Z</time>
      </trkpt>
      <trkpt lat="42.85231" lon="0.51839">
        <ele>1275</ele>
        <time>2020-02-01T08:49:12.000Z</time>
      </trkpt>
      <trkpt lat="42.85231" lon="0.51838">
        <ele>1275</ele>
        <time>2020-02-01T08:49:13.000Z</time>
      </trkpt>
      <trkpt lat="42.8523" lon="0.51837">
        <ele>1275</ele>
        <time>2020-02-01T08:49:14.000Z</time>
      </trkpt>
      <trkpt lat="42.8523" lon="0.51836">
        <ele>1275</ele>
        <time>2020-02-01T08:49:15.000Z</time>
      </trkpt>
      <trkpt lat="42.85229" lon="0.51835">
        <ele>1275</ele>
        <time>2020-02-01T08:49:16.000Z</time>
      </trkpt>
      <trkpt lat="42.85228" lon="0.51834">
        <ele>1275</ele>
        <time>2020-02-01T08:49:17.000Z</time>
      </trkpt>
      <trkpt lat="42.85227" lon="0.51833">
        <ele>1275</ele>
        <time>2020-02-01T08:49:18.000Z</time>
      </trkpt>
      <trkpt lat="42.85227" lon="0.51832">
        <ele>1275</ele>
        <time>2020-02-01T08:49:19.000Z</time>
      </trkpt>
      <trkpt lat="42.85226" lon="0.51831">
        <ele>1275</ele>
        <time>2020-02-01T08:49:20.000Z</time>
      </trkpt>
      <trkpt lat="42.85225" lon="0.5183">
        <ele>1275</ele>
        <time>2020-02-01T08:49:21.000Z</time>
      </trkpt>
      <trkpt lat="42.85224" lon="0.51829">
        <ele>1275</ele>
        <time>2020-02-01T08:49:22.000Z</time>
      </trkpt>
      <trkpt lat="42.85223" lon="0.51828">
        <ele>1275</ele>
        <time>2020-02-01T08:49:23.000Z</time>
      </trkpt>
      <trkpt lat="42.85222" lon="0.51827">
        <ele>1275</ele>
        <time>2020-02-01T08:49:24.000Z</time>
      </trkpt>
      <trkpt lat="42.85221" lon="0.51826">
        <ele>1275</ele>
        <time>2020-02-01T08:49:25.000Z</time>
      </trkpt>
      <trkpt lat="42.8522" lon="0.51825">
        <ele>1275</ele>
        <time>2020-02-01T08:49:26.000Z</time>
      </trkpt>
      <trkpt lat="42.8522" lon="0.51824">
        <ele>1275</ele>
        <time>2020-02-01T08:49:27.000Z</time>
      </trkpt>
      <trkpt lat="42.85219" lon="0.51823">
        <ele>1275</ele>
        <time>2020-02-01T08:49:28.000Z</time>
      </trkpt>
      <trkpt lat="42.85218" lon="0.51822">
        <ele>1275</ele>
        <time>2020-02-01T08:49:29.000Z</time>
      </trkpt>
      <trkpt lat="42.85217" lon="0.51821">
        <ele>1275</ele>
        <time>2020-02-01T08:49:30.000Z</time>
      </trkpt>
      <trkpt lat="42.85217" lon="0.51819">
        <ele>1275</ele>
        <time>2020-02-01T08:49:31.000Z</time>
      </trkpt>
      <trkpt lat="42.85216" lon="0.51818">
        <ele>1274.7</ele>
        <time>2020-02-01T08:49:32.000Z</time>
      </trkpt>
      <trkpt lat="42.85215" lon="0.51817">
        <ele>1274.3</ele>
        <time>2020-02-01T08:49:33.000Z</time>
      </trkpt>
      <trkpt lat="42.85215" lon="0.51816">
        <ele>1274</ele>
        <time>2020-02-01T08:49:34.000Z</time>
      </trkpt>
      <trkpt lat="42.85214" lon="0.51815">
        <ele>1274</ele>
        <time>2020-02-01T08:49:35.000Z</time>
      </trkpt>
      <trkpt lat="42.85214" lon="0.51814">
        <ele>1274</ele>
        <time>2020-02-01T08:49:36.000Z</time>
      </trkpt>
      <trkpt lat="42.85213" lon="0.51813">
        <ele>1274</ele>
        <time>2020-02-01T08:49:37.000Z</time>
      </trkpt>
      <trkpt lat="42.85213" lon="0.51812">
        <ele>1274</ele>
        <time>2020-02-01T08:49:38.000Z</time>
      </trkpt>
      <trkpt lat="42.85212" lon="0.51812">
        <ele>1274</ele>
        <time>2020-02-01T08:49:39.000Z</time>
      </trkpt>
      <trkpt lat="42.85211" lon="0.51811">
        <ele>1274</ele>
        <time>2020-02-01T08:49:40.000Z</time>
      </trkpt>
      <trkpt lat="42.8521" lon="0.5181">
        <ele>1274</ele>
        <time>2020-02-01T08:49:41.000Z</time>
      </trkpt>
      <trkpt lat="42.85209" lon="0.51809">
        <ele>1274</ele>
        <time>2020-02-01T08:49:42.000Z</time>
      </trkpt>
      <trkpt lat="42.85208" lon="0.51808">
        <ele>1273</ele>
        <time>2020-02-01T08:49:43.000Z</time>
      </trkpt>
      <trkpt lat="42.85207" lon="0.51807">
        <ele>1273</ele>
        <time>2020-02-01T08:49:44.000Z</time>
      </trkpt>
      <trkpt lat="42.85206" lon="0.51806">
        <ele>1273</ele>
        <time>2020-02-01T08:49:45.000Z</time>
      </trkpt>
      <trkpt lat="42.85205" lon="0.51805">
        <ele>1273</ele>
        <time>2020-02-01T08:49:46.000Z</time>
      </trkpt>
      <trkpt lat="42.85204" lon="0.51804">
        <ele>1273</ele>
        <time>2020-02-01T08:49:47.000Z</time>
      </trkpt>
      <trkpt lat="42.85203" lon="0.51803">
        <ele>1273</ele>
        <time>2020-02-01T08:49:48.000Z</time>
      </trkpt>
      <trkpt lat="42.85202" lon="0.51802">
        <ele>1273</ele>
        <time>2020-02-01T08:49:49.000Z</time>
      </trkpt>
      <trkpt lat="42.85201" lon="0.51802">
        <ele>1272.7</ele>
        <time>2020-02-01T08:49:50.000Z</time>
      </trkpt>
      <trkpt lat="42.852" lon="0.51801">
        <ele>1272.3</ele>
        <time>2020-02-01T08:49:51.000Z</time>
      </trkpt>
      <trkpt lat="42.85199" lon="0.518">
        <ele>1272</ele>
        <time>2020-02-01T08:49:52.000Z</time>
      </trkpt>
      <trkpt lat="42.85198" lon="0.51799">
        <ele>1272</ele>
        <time>2020-02-01T08:49:53.000Z</time>
      </trkpt>
      <trkpt lat="42.85197" lon="0.51798">
        <ele>1272</ele>
        <time>2020-02-01T08:49:54.000Z</time>
      </trkpt>
      <trkpt lat="42.85196" lon="0.51797">
        <ele>1272</ele>
        <time>2020-02-01T08:49:55.000Z</time>
      </trkpt>
      <trkpt lat="42.85195" lon="0.51796">
        <ele>1271.5</ele>
        <time>2020-02-01T08:49:56.000Z</time>
      </trkpt>
      <trkpt lat="42.85195" lon="0.51796">
        <ele>1271</ele>
        <time>2020-02-01T08:49:57.000Z</time>
      </trkpt>
      <trkpt lat="42.85194" lon="0.51795">
        <ele>1271</ele>
        <time>2020-02-01T08:49:58.000Z</time>
      </trkpt>
      <trkpt lat="42.85193" lon="0.51794">
        <ele>1271</ele>
        <time>2020-02-01T08:49:59.000Z</time>
      </trkpt>
      <trkpt lat="42.85192" lon="0.51793">
        <ele>1271</ele>
        <time>2020-02-01T08:50:00.000Z</time>
      </trkpt>
      <trkpt lat="42.85191" lon="0.51793">
        <ele>1271</ele>
        <time>2020-02-01T08:50:01.000Z</time>
      </trkpt>
      <trkpt lat="42.85191" lon="0.51792">
        <ele>1271</ele>
        <time>2020-02-01T08:50:02.000Z</time>
      </trkpt>
      <trkpt lat="42.8519" lon="0.51791">
        <ele>1270</ele>
        <time>2020-02-01T08:50:03.000Z</time>
      </trkpt>
      <trkpt lat="42.85189" lon="0.5179">
        <ele>1270</ele>
        <time>2020-02-01T08:50:04.000Z</time>
      </trkpt>
      <trkpt lat="42.85188" lon="0.51789">
        <ele>1270</ele>
        <time>2020-02-01T08:50:05.000Z</time>
      </trkpt>
      <trkpt lat="42.85188" lon="0.51787">
        <ele>1270</ele>
        <time>2020-02-01T08:50:06.000Z</time>
      </trkpt>
      <trkpt lat="42.85187" lon="0.51786">
        <ele>1269</ele>
        <time>2020-02-01T08:50:07.000Z</time>
      </trkpt>
      <trkpt lat="42.85187" lon="0.51784">
        <ele>1269</ele>
        <time>2020-02-01T08:50:08.000Z</time>
      </trkpt>
      <trkpt lat="42.85186" lon="0.51782">
        <ele>1269</ele>
        <time>2020-02-01T08:50:09.000Z</time>
      </trkpt>
      <trkpt lat="42.85185" lon="0.51781">
        <ele>1269</ele>
        <time>2020-02-01T08:50:10.000Z</time>
      </trkpt>
      <trkpt lat="42.85184" lon="0.51779">
        <ele>1269</ele>
        <time>2020-02-01T08:50:11.000Z</time>
      </trkpt>
      <trkpt lat="42.85184" lon="0.51777">
        <ele>1269</ele>
        <time>2020-02-01T08:50:12.000Z</time>
      </trkpt>
      <trkpt lat="42.85183" lon="0.51776">
        <ele>1269</ele>
        <time>2020-02-01T08:50:13.000Z</time>
      </trkpt>
      <trkpt lat="42.85183" lon="0.51775">
        <ele>1269</ele>
        <time>2020-02-01T08:50:14.000Z</time>
      </trkpt>
      <trkpt lat="42.85182" lon="0.51774">
        <ele>1268</ele>
        <time>2020-02-01T08:50:15.000Z</time>
      </trkpt>
      <trkpt lat="42.85181" lon="0.51772">
        <ele>1268</ele>
        <time>2020-02-01T08:50:16.000Z</time>
      </trkpt>
      <trkpt lat="42.85181" lon="0.51771">
        <ele>1268</ele>
        <time>2020-02-01T08:50:17.000Z</time>
      </trkpt>
      <trkpt lat="42.8518" lon="0.5177">
        <ele>1268</ele>
        <time>2020-02-01T08:50:18.000Z</time>
      </trkpt>
      <trkpt lat="42.85179" lon="0.51768">
        <ele>1268</ele>
        <time>2020-02-01T08:50:19.000Z</time>
      </trkpt>
      <trkpt lat="42.85179" lon="0.51767">
        <ele>1267.7</ele>
        <time>2020-02-01T08:50:20.000Z</time>
      </trkpt>
      <trkpt lat="42.85178" lon="0.51766">
        <ele>1267.3</ele>
        <time>2020-02-01T08:50:21.000Z</time>
      </trkpt>
      <trkpt lat="42.85177" lon="0.51764">
        <ele>1267</ele>
        <time>2020-02-01T08:50:22.000Z</time>
      </trkpt>
      <trkpt lat="42.85177" lon="0.51763">
        <ele>1267</ele>
        <time>2020-02-01T08:50:23.000Z</time>
      </trkpt>
      <trkpt lat="42.85177" lon="0.51762">
        <ele>1266.5</ele>
        <time>2020-02-01T08:50:24.000Z</time>
      </trkpt>
      <trkpt lat="42.85176" lon="0.5176">
        <ele>1266</ele>
        <time>2020-02-01T08:50:25.000Z</time>
      </trkpt>
      <trkpt lat="42.85176" lon="0.51759">
        <ele>1266</ele>
        <time>2020-02-01T08:50:26.000Z</time>
      </trkpt>
      <trkpt lat="42.85175" lon="0.51758">
        <ele>1266</ele>
        <time>2020-02-01T08:50:27.000Z</time>
      </trkpt>
      <trkpt lat="42.85175" lon="0.51756">
        <ele>1266</ele>
        <time>2020-02-01T08:50:28.000Z</time>
      </trkpt>
      <trkpt lat="42.85175" lon="0.51754">
        <ele>1266</ele>
        <time>2020-02-01T08:50:29.000Z</time>
      </trkpt>
      <trkpt lat="42.85174" lon="0.51753">
        <ele>1266</ele>
        <time>2020-02-01T08:50:30.000Z</time>
      </trkpt>
      <trkpt lat="42.85174" lon="0.51751">
        <ele>1266</ele>
        <time>2020-02-01T08:50:31.000Z</time>
      </trkpt>
      <trkpt lat="42.85173" lon="0.51749">
        <ele>1265.7</ele>
        <time>2020-02-01T08:50:32.000Z</time>
      </trkpt>
      <trkpt lat="42.85173" lon="0.51748">
        <ele>1265.3</ele>
        <time>2020-02-01T08:50:33.000Z</time>
      </trkpt>
      <trkpt lat="42.85172" lon="0.51746">
        <ele>1265</ele>
        <time>2020-02-01T08:50:34.000Z</time>
      </trkpt>
      <trkpt lat="42.85171" lon="0.51745">
        <ele>1265</ele>
        <time>2020-02-01T08:50:35.000Z</time>
      </trkpt>
      <trkpt lat="42.85171" lon="0.51743">
        <ele>1265</ele>
        <time>2020-02-01T08:50:36.000Z</time>
      </trkpt>
      <trkpt lat="42.8517" lon="0.51742">
        <ele>1264</ele>
        <time>2020-02-01T08:50:37.000Z</time>
      </trkpt>
      <trkpt lat="42.8517" lon="0.51741">
        <ele>1264</ele>
        <time>2020-02-01T08:50:38.000Z</time>
      </trkpt>
      <trkpt lat="42.85169" lon="0.51739">
        <ele>1264</ele>
        <time>2020-02-01T08:50:39.000Z</time>
      </trkpt>
      <trkpt lat="42.85169" lon="0.51738">
        <ele>1264</ele>
        <time>2020-02-01T08:50:40.000Z</time>
      </trkpt>
      <trkpt lat="42.85168" lon="0.51737">
        <ele>1264</ele>
        <time>2020-02-01T08:50:41.000Z</time>
      </trkpt>
      <trkpt lat="42.85168" lon="0.51735">
        <ele>1264</ele>
        <time>2020-02-01T08:50:42.000Z</time>
      </trkpt>
      <trkpt lat="42.85167" lon="0.51734">
        <ele>1264</ele>
        <time>2020-02-01T08:50:43.000Z</time>
      </trkpt>
      <trkpt lat="42.85167" lon="0.51733">
        <ele>1263.7</ele>
        <time>2020-02-01T08:50:44.000Z</time>
      </trkpt>
      <trkpt lat="42.85167" lon="0.51731">
        <ele>1263.3</ele>
        <time>2020-02-01T08:50:45.000Z</time>
      </trkpt>
      <trkpt lat="42.85166" lon="0.5173">
        <ele>1263</ele>
        <time>2020-02-01T08:50:46.000Z</time>
      </trkpt>
      <trkpt lat="42.85166" lon="0.51729">
        <ele>1263</ele>
        <time>2020-02-01T08:50:47.000Z</time>
      </trkpt>
      <trkpt lat="42.85165" lon="0.51727">
        <ele>1263</ele>
        <time>2020-02-01T08:50:48.000Z</time>
      </trkpt>
      <trkpt lat="42.85164" lon="0.51726">
        <ele>1263</ele>
        <time>2020-02-01T08:50:49.000Z</time>
      </trkpt>
      <trkpt lat="42.85163" lon="0.51725">
        <ele>1263</ele>
        <time>2020-02-01T08:50:50.000Z</time>
      </trkpt>
      <trkpt lat="42.85163" lon="0.51723">
        <ele>1263</ele>
        <time>2020-02-01T08:50:51.000Z</time>
      </trkpt>
      <trkpt lat="42.85162" lon="0.51722">
        <ele>1263</ele>
        <time>2020-02-01T08:50:52.000Z</time>
      </trkpt>
      <trkpt lat="42.8516" lon="0.5172">
        <ele>1263</ele>
        <time>2020-02-01T08:50:53.000Z</time>
      </trkpt>
      <trkpt lat="42.85159" lon="0.51719">
        <ele>1263</ele>
        <time>2020-02-01T08:50:54.000Z</time>
      </trkpt>
      <trkpt lat="42.85158" lon="0.51718">
        <ele>1263</ele>
        <time>2020-02-01T08:50:55.000Z</time>
      </trkpt>
      <trkpt lat="42.85156" lon="0.51717">
        <ele>1263</ele>
        <time>2020-02-01T08:50:56.000Z</time>
      </trkpt>
      <trkpt lat="42.85155" lon="0.51716">
        <ele>1263</ele>
        <time>2020-02-01T08:50:57.000Z</time>
      </trkpt>
      <trkpt lat="42.85153" lon="0.51715">
        <ele>1263</ele>
        <time>2020-02-01T08:50:58.000Z</time>
      </trkpt>
      <trkpt lat="42.85152" lon="0.51714">
        <ele>1263</ele>
        <time>2020-02-01T08:50:59.000Z</time>
      </trkpt>
      <trkpt lat="42.85151" lon="0.51713">
        <ele>1263</ele>
        <time>2020-02-01T08:51:00.000Z</time>
      </trkpt>
      <trkpt lat="42.8515" lon="0.51712">
        <ele>1263</ele>
        <time>2020-02-01T08:51:01.000Z</time>
      </trkpt>
      <trkpt lat="42.85149" lon="0.51711">
        <ele>1263</ele>
        <time>2020-02-01T08:51:02.000Z</time>
      </trkpt>
      <trkpt lat="42.85148" lon="0.51711">
        <ele>1263</ele>
        <time>2020-02-01T08:51:03.000Z</time>
      </trkpt>
      <trkpt lat="42.85147" lon="0.5171">
        <ele>1263</ele>
        <time>2020-02-01T08:51:04.000Z</time>
      </trkpt>
      <trkpt lat="42.85145" lon="0.5171">
        <ele>1263</ele>
        <time>2020-02-01T08:51:05.000Z</time>
      </trkpt>
      <trkpt lat="42.85144" lon="0.5171">
        <ele>1263</ele>
        <time>2020-02-01T08:51:06.000Z</time>
      </trkpt>
      <trkpt lat="42.85142" lon="0.5171">
        <ele>1262</ele>
        <time>2020-02-01T08:51:07.000Z</time>
      </trkpt>
      <trkpt lat="42.85141" lon="0.5171">
        <ele>1262</ele>
        <time>2020-02-01T08:51:08.000Z</time>
      </trkpt>
      <trkpt lat="42.85139" lon="0.51711">
        <ele>1262</ele>
        <time>2020-02-01T08:51:09.000Z</time>
      </trkpt>
      <trkpt lat="42.85138" lon="0.51711">
        <ele>1262</ele>
        <time>2020-02-01T08:51:10.000Z</time>
      </trkpt>
      <trkpt lat="42.85137" lon="0.51712">
        <ele>1262</ele>
        <time>2020-02-01T08:51:11.000Z</time>
      </trkpt>
      <trkpt lat="42.85135" lon="0.51713">
        <ele>1262</ele>
        <time>2020-02-01T08:51:12.000Z</time>
      </trkpt>
      <trkpt lat="42.85134" lon="0.51713">
        <ele>1263</ele>
        <time>2020-02-01T08:51:13.000Z</time>
      </trkpt>
      <trkpt lat="42.85133" lon="0.51714">
        <ele>1263</ele>
        <time>2020-02-01T08:51:14.000Z</time>
      </trkpt>
      <trkpt lat="42.85132" lon="0.51715">
        <ele>1263</ele>
        <time>2020-02-01T08:51:15.000Z</time>
      </trkpt>
      <trkpt lat="42.85131" lon="0.51716">
        <ele>1263</ele>
        <time>2020-02-01T08:51:16.000Z</time>
      </trkpt>
      <trkpt lat="42.8513" lon="0.51717">
        <ele>1263</ele>
        <time>2020-02-01T08:51:17.000Z</time>
      </trkpt>
      <trkpt lat="42.85129" lon="0.51718">
        <ele>1263</ele>
        <time>2020-02-01T08:51:18.000Z</time>
      </trkpt>
      <trkpt lat="42.85129" lon="0.51719">
        <ele>1263</ele>
        <time>2020-02-01T08:51:19.000Z</time>
      </trkpt>
      <trkpt lat="42.85128" lon="0.5172">
        <ele>1263</ele>
        <time>2020-02-01T08:51:20.000Z</time>
      </trkpt>
      <trkpt lat="42.85127" lon="0.51722">
        <ele>1263</ele>
        <time>2020-02-01T08:51:21.000Z</time>
      </trkpt>
      <trkpt lat="42.85126" lon="0.51723">
        <ele>1263</ele>
        <time>2020-02-01T08:51:22.000Z</time>
      </trkpt>
      <trkpt lat="42.85126" lon="0.51724">
        <ele>1263</ele>
        <time>2020-02-01T08:51:23.000Z</time>
      </trkpt>
      <trkpt lat="42.85125" lon="0.51725">
        <ele>1263</ele>
        <time>2020-02-01T08:51:24.000Z</time>
      </trkpt>
      <trkpt lat="42.85124" lon="0.51726">
        <ele>1263</ele>
        <time>2020-02-01T08:51:25.000Z</time>
      </trkpt>
      <trkpt lat="42.85124" lon="0.51727">
        <ele>1263</ele>
        <time>2020-02-01T08:51:26.000Z</time>
      </trkpt>
      <trkpt lat="42.85123" lon="0.51728">
        <ele>1263.5</ele>
        <time>2020-02-01T08:51:27.000Z</time>
      </trkpt>
      <trkpt lat="42.85122" lon="0.51728">
        <ele>1264</ele>
        <time>2020-02-01T08:51:28.000Z</time>
      </trkpt>
      <trkpt lat="42.85122" lon="0.51729">
        <ele>1264</ele>
        <time>2020-02-01T08:51:29.000Z</time>
      </trkpt>
      <trkpt lat="42.85121" lon="0.5173">
        <ele>1264</ele>
        <time>2020-02-01T08:51:30.000Z</time>
      </trkpt>
      <trkpt lat="42.8512" lon="0.5173">
        <ele>1264</ele>
        <time>2020-02-01T08:51:31.000Z</time>
      </trkpt>
      <trkpt lat="42.8512" lon="0.51731">
        <ele>1264</ele>
        <time>2020-02-01T08:51:32.000Z</time>
      </trkpt>
      <trkpt lat="42.85119" lon="0.51732">
        <ele>1264</ele>
        <time>2020-02-01T08:51:33.000Z</time>
      </trkpt>
      <trkpt lat="42.85118" lon="0.51733">
        <ele>1264</ele>
        <time>2020-02-01T08:51:34.000Z</time>
      </trkpt>
      <trkpt lat="42.85118" lon="0.51734">
        <ele>1265</ele>
        <time>2020-02-01T08:51:35.000Z</time>
      </trkpt>
      <trkpt lat="42.85116" lon="0.51735">
        <ele>1265</ele>
        <time>2020-02-01T08:51:36.000Z</time>
      </trkpt>
      <trkpt lat="42.85115" lon="0.51736">
        <ele>1265</ele>
        <time>2020-02-01T08:51:37.000Z</time>
      </trkpt>
      <trkpt lat="42.85114" lon="0.51737">
        <ele>1265</ele>
        <time>2020-02-01T08:51:38.000Z</time>
      </trkpt>
      <trkpt lat="42.85113" lon="0.51739">
        <ele>1265</ele>
        <time>2020-02-01T08:51:39.000Z</time>
      </trkpt>
      <trkpt lat="42.85112" lon="0.5174">
        <ele>1265</ele>
        <time>2020-02-01T08:51:40.000Z</time>
      </trkpt>
      <trkpt lat="42.85112" lon="0.51741">
        <ele>1265</ele>
        <time>2020-02-01T08:51:41.000Z</time>
      </trkpt>
      <trkpt lat="42.85111" lon="0.51742">
        <ele>1265.3</ele>
        <time>2020-02-01T08:51:42.000Z</time>
      </trkpt>
      <trkpt lat="42.85111" lon="0.51743">
        <ele>1265.7</ele>
        <time>2020-02-01T08:51:43.000Z</time>
      </trkpt>
      <trkpt lat="42.8511" lon="0.51744">
        <ele>1266</ele>
        <time>2020-02-01T08:51:44.000Z</time>
      </trkpt>
      <trkpt lat="42.85109" lon="0.51744">
        <ele>1266</ele>
        <time>2020-02-01T08:51:45.000Z</time>
      </trkpt>
      <trkpt lat="42.85108" lon="0.51745">
        <ele>1266</ele>
        <time>2020-02-01T08:51:46.000Z</time>
      </trkpt>
      <trkpt lat="42.85107" lon="0.51746">
        <ele>1266</ele>
        <time>2020-02-01T08:51:47.000Z</time>
      </trkpt>
      <trkpt lat="42.85106" lon="0.51747">
        <ele>1266</ele>
        <time>2020-02-01T08:51:48.000Z</time>
      </trkpt>
      <trkpt lat="42.85105" lon="0.51748">
        <ele>1266</ele>
        <time>2020-02-01T08:51:49.000Z</time>
      </trkpt>
      <trkpt lat="42.85105" lon="0.51748">
        <ele>1266.3</ele>
        <time>2020-02-01T08:51:50.000Z</time>
      </trkpt>
      <trkpt lat="42.85104" lon="0.51749">
        <ele>1266.7</ele>
        <time>2020-02-01T08:51:51.000Z</time>
      </trkpt>
      <trkpt lat="42.85104" lon="0.5175">
        <ele>1267</ele>
        <time>2020-02-01T08:51:52.000Z</time>
      </trkpt>
      <trkpt lat="42.85103" lon="0.51751">
        <ele>1267</ele>
        <time>2020-02-01T08:51:53.000Z</time>
      </trkpt>
      <trkpt lat="42.85103" lon="0.51752">
        <ele>1267</ele>
        <time>2020-02-01T08:51:54.000Z</time>
      </trkpt>
      <trkpt lat="42.85103" lon="0.51752">
        <ele>1267</ele>
        <time>2020-02-01T08:51:55.000Z</time>
      </trkpt>
      <trkpt lat="42.85102" lon="0.51753">
        <ele>1267</ele>
        <time>2020-02-01T08:51:56.000Z</time>
      </trkpt>
      <trkpt lat="42.85102" lon="0.51754">
        <ele>1267</ele>
        <time>2020-02-01T08:51:57.000Z</time>
      </trkpt>
      <trkpt lat="42.85102" lon="0.51755">
        <ele>1267.3</ele>
        <time>2020-02-01T08:51:58.000Z</time>
      </trkpt>
      <trkpt lat="42.85102" lon="0.51756">
        <ele>1267.7</ele>
        <time>2020-02-01T08:51:59.000Z</time>
      </trkpt>
      <trkpt lat="42.85101" lon="0.51757">
        <ele>1268</ele>
        <time>2020-02-01T08:52:00.000Z</time>
      </trkpt>
      <trkpt lat="42.85101" lon="0.51758">
        <ele>1268</ele>
        <time>2020-02-01T08:52:01.000Z</time>
      </trkpt>
      <trkpt lat="42.851" lon="0.51758">
        <ele>1268</ele>
        <time>2020-02-01T08:52:02.000Z</time>
      </trkpt>
      <trkpt lat="42.85099" lon="0.51758">
        <ele>1268</ele>
        <time>2020-02-01T08:52:03.000Z</time>
      </trkpt>
      <trkpt lat="42.85098" lon="0.51759">
        <ele>1268</ele>
        <time>2020-02-01T08:52:04.000Z</time>
      </trkpt>
      <trkpt lat="42.85097" lon="0.51759">
        <ele>1268</ele>
        <time>2020-02-01T08:52:05.000Z</time>
      </trkpt>
      <trkpt lat="42.85096" lon="0.51759">
        <ele>1268.3</ele>
        <time>2020-02-01T08:52:06.000Z</time>
      </trkpt>
      <trkpt lat="42.85095" lon="0.51759">
        <ele>1268.7</ele>
        <time>2020-02-01T08:52:07.000Z</time>
      </trkpt>
      <trkpt lat="42.85094" lon="0.5176">
        <ele>1269</ele>
        <time>2020-02-01T08:52:08.000Z</time>
      </trkpt>
      <trkpt lat="42.85094" lon="0.5176">
        <ele>1269</ele>
        <time>2020-02-01T08:52:09.000Z</time>
      </trkpt>
      <trkpt lat="42.85093" lon="0.51761">
        <ele>1269</ele>
        <time>2020-02-01T08:52:10.000Z</time>
      </trkpt>
      <trkpt lat="42.85093" lon="0.51761">
        <ele>1269</ele>
        <time>2020-02-01T08:52:11.000Z</time>
      </trkpt>
      <trkpt lat="42.85092" lon="0.51761">
        <ele>1269</ele>
        <time>2020-02-01T08:52:12.000Z</time>
      </trkpt>
      <trkpt lat="42.85091" lon="0.51761">
        <ele>1269.5</ele>
        <time>2020-02-01T08:52:13.000Z</time>
      </trkpt>
      <trkpt lat="42.8509" lon="0.51761">
        <ele>1270</ele>
        <time>2020-02-01T08:52:14.000Z</time>
      </trkpt>
      <trkpt lat="42.8509" lon="0.51761">
        <ele>1270</ele>
        <time>2020-02-01T08:52:15.000Z</time>
      </trkpt>
      <trkpt lat="42.85089" lon="0.51761">
        <ele>1270</ele>
        <time>2020-02-01T08:52:16.000Z</time>
      </trkpt>
      <trkpt lat="42.85088" lon="0.51761">
        <ele>1270</ele>
        <time>2020-02-01T08:52:17.000Z</time>
      </trkpt>
      <trkpt lat="42.85087" lon="0.51761">
        <ele>1270</ele>
        <time>2020-02-01T08:52:18.000Z</time>
      </trkpt>
      <trkpt lat="42.85086" lon="0.51761">
        <ele>1270</ele>
        <time>2020-02-01T08:52:19.000Z</time>
      </trkpt>
      <trkpt lat="42.85084" lon="0.51761">
        <ele>1270</ele>
        <time>2020-02-01T08:52:20.000Z</time>
      </trkpt>
      <trkpt lat="42.85083" lon="0.51762">
        <ele>1270.5</ele>
        <time>2020-02-01T08:52:21.000Z</time>
      </trkpt>
      <trkpt lat="42.85082" lon="0.51763">
        <ele>1271</ele>
        <time>2020-02-01T08:52:22.000Z</time>
      </trkpt>
      <trkpt lat="42.8508" lon="0.51763">
        <ele>1271</ele>
        <time>2020-02-01T08:52:23.000Z</time>
      </trkpt>
      <trkpt lat="42.85079" lon="0.51764">
        <ele>1271</ele>
        <time>2020-02-01T08:52:24.000Z</time>
      </trkpt>
      <trkpt lat="42.85077" lon="0.51765">
        <ele>1271</ele>
        <time>2020-02-01T08:52:25.000Z</time>
      </trkpt>
      <trkpt lat="42.85076" lon="0.51765">
        <ele>1271</ele>
        <time>2020-02-01T08:52:26.000Z</time>
      </trkpt>
      <trkpt lat="42.85075" lon="0.51765">
        <ele>1271</ele>
        <time>2020-02-01T08:52:27.000Z</time>
      </trkpt>
      <trkpt lat="42.85075" lon="0.51765">
        <ele>1271</ele>
        <time>2020-02-01T08:52:28.000Z</time>
      </trkpt>
      <trkpt lat="42.85074" lon="0.51765">
        <ele>1271</ele>
        <time>2020-02-01T08:52:29.000Z</time>
      </trkpt>
      <trkpt lat="42.85074" lon="0.51765">
        <ele>1271.5</ele>
        <time>2020-02-01T08:52:30.000Z</time>
      </trkpt>
      <trkpt lat="42.85073" lon="0.51765">
        <ele>1272</ele>
        <time>2020-02-01T08:52:31.000Z</time>
      </trkpt>
      <trkpt lat="42.85073" lon="0.51765">
        <ele>1272</ele>
        <time>2020-02-01T08:52:32.000Z</time>
      </trkpt>
      <trkpt lat="42.85072" lon="0.51765">
        <ele>1272</ele>
        <time>2020-02-01T08:52:33.000Z</time>
      </trkpt>
      <trkpt lat="42.85072" lon="0.51765">
        <ele>1272</ele>
        <time>2020-02-01T08:52:34.000Z</time>
      </trkpt>
      <trkpt lat="42.85071" lon="0.51765">
        <ele>1272</ele>
        <time>2020-02-01T08:52:35.000Z</time>
      </trkpt>
      <trkpt lat="42.8507" lon="0.51766">
        <ele>1273</ele>
        <time>2020-02-01T08:52:36.000Z</time>
      </trkpt>
      <trkpt lat="42.85069" lon="0.51766">
        <ele>1272</ele>
        <time>2020-02-01T08:52:37.000Z</time>
      </trkpt>
      <trkpt lat="42.85068" lon="0.51766">
        <ele>1272</ele>
        <time>2020-02-01T08:52:38.000Z</time>
      </trkpt>
      <trkpt lat="42.85067" lon="0.51767">
        <ele>1272</ele>
        <time>2020-02-01T08:52:39.000Z</time>
      </trkpt>
      <trkpt lat="42.85065" lon="0.51768">
        <ele>1272</ele>
        <time>2020-02-01T08:52:40.000Z</time>
      </trkpt>
      <trkpt lat="42.85064" lon="0.51769">
        <ele>1272</ele>
        <time>2020-02-01T08:52:41.000Z</time>
      </trkpt>
      <trkpt lat="42.85063" lon="0.51769">
        <ele>1272</ele>
        <time>2020-02-01T08:52:42.000Z</time>
      </trkpt>
      <trkpt lat="42.85062" lon="0.5177">
        <ele>1272</ele>
        <time>2020-02-01T08:52:43.000Z</time>
      </trkpt>
      <trkpt lat="42.85062" lon="0.5177">
        <ele>1273</ele>
        <time>2020-02-01T08:52:44.000Z</time>
      </trkpt>
      <trkpt lat="42.85061" lon="0.5177">
        <ele>1273</ele>
        <time>2020-02-01T08:52:45.000Z</time>
      </trkpt>
      <trkpt lat="42.8506" lon="0.5177">
        <ele>1273</ele>
        <time>2020-02-01T08:52:46.000Z</time>
      </trkpt>
      <trkpt lat="42.8506" lon="0.51771">
        <ele>1273</ele>
        <time>2020-02-01T08:52:47.000Z</time>
      </trkpt>
      <trkpt lat="42.85059" lon="0.51771">
        <ele>1273</ele>
        <time>2020-02-01T08:52:48.000Z</time>
      </trkpt>
      <trkpt lat="42.85058" lon="0.51772">
        <ele>1273</ele>
        <time>2020-02-01T08:52:49.000Z</time>
      </trkpt>
      <trkpt lat="42.85058" lon="0.51772">
        <ele>1273</ele>
        <time>2020-02-01T08:52:50.000Z</time>
      </trkpt>
      <trkpt lat="42.85057" lon="0.51773">
        <ele>1273</ele>
        <time>2020-02-01T08:52:51.000Z</time>
      </trkpt>
      <trkpt lat="42.85057" lon="0.51773">
        <ele>1273</ele>
        <time>2020-02-01T08:52:52.000Z</time>
      </trkpt>
      <trkpt lat="42.85056" lon="0.51773">
        <ele>1274</ele>
        <time>2020-02-01T08:52:53.000Z</time>
      </trkpt>
      <trkpt lat="42.85056" lon="0.51774">
        <ele>1274</ele>
        <time>2020-02-01T08:52:54.000Z</time>
      </trkpt>
      <trkpt lat="42.85056" lon="0.51774">
        <ele>1274</ele>
        <time>2020-02-01T08:52:55.000Z</time>
      </trkpt>
      <trkpt lat="42.85055" lon="0.51775">
        <ele>1274</ele>
        <time>2020-02-01T08:52:56.000Z</time>
      </trkpt>
      <trkpt lat="42.85055" lon="0.51775">
        <ele>1274</ele>
        <time>2020-02-01T08:52:57.000Z</time>
      </trkpt>
      <trkpt lat="42.85054" lon="0.51776">
        <ele>1274</ele>
        <time>2020-02-01T08:52:58.000Z</time>
      </trkpt>
      <trkpt lat="42.85054" lon="0.51776">
        <ele>1274</ele>
        <time>2020-02-01T08:52:59.000Z</time>
      </trkpt>
      <trkpt lat="42.85053" lon="0.51777">
        <ele>1274</ele>
        <time>2020-02-01T08:53:00.000Z</time>
      </trkpt>
      <trkpt lat="42.85053" lon="0.51777">
        <ele>1275</ele>
        <time>2020-02-01T08:53:01.000Z</time>
      </trkpt>
      <trkpt lat="42.85052" lon="0.51778">
        <ele>1275</ele>
        <time>2020-02-01T08:53:02.000Z</time>
      </trkpt>
      <trkpt lat="42.85051" lon="0.51778">
        <ele>1275</ele>
        <time>2020-02-01T08:53:03.000Z</time>
      </trkpt>
      <trkpt lat="42.85051" lon="0.51779">
        <ele>1275</ele>
        <time>2020-02-01T08:53:04.000Z</time>
      </trkpt>
      <trkpt lat="42.8505" lon="0.51779">
        <ele>1275</ele>
        <time>2020-02-01T08:53:05.000Z</time>
      </trkpt>
      <trkpt lat="42.8505" lon="0.5178">
        <ele>1275</ele>
        <time>2020-02-01T08:53:06.000Z</time>
      </trkpt>
      <trkpt lat="42.85049" lon="0.5178">
        <ele>1275</ele>
        <time>2020-02-01T08:53:07.000Z</time>
      </trkpt>
      <trkpt lat="42.85048" lon="0.51781">
        <ele>1275</ele>
        <time>2020-02-01T08:53:08.000Z</time>
      </trkpt>
      <trkpt lat="42.85048" lon="0.51781">
        <ele>1275</ele>
        <time>2020-02-01T08:53:09.000Z</time>
      </trkpt>
      <trkpt lat="42.85047" lon="0.51782">
        <ele>1275.3</ele>
        <time>2020-02-01T08:53:10.000Z</time>
      </trkpt>
      <trkpt lat="42.85046" lon="0.51782">
        <ele>1275.7</ele>
        <time>2020-02-01T08:53:11.000Z</time>
      </trkpt>
      <trkpt lat="42.85046" lon="0.51783">
        <ele>1276</ele>
        <time>2020-02-01T08:53:12.000Z</time>
      </trkpt>
      <trkpt lat="42.85045" lon="0.51784">
        <ele>1276</ele>
        <time>2020-02-01T08:53:13.000Z</time>
      </trkpt>
      <trkpt lat="42.85045" lon="0.51784">
        <ele>1276</ele>
        <time>2020-02-01T08:53:14.000Z</time>
      </trkpt>
      <trkpt lat="42.85044" lon="0.51785">
        <ele>1276</ele>
        <time>2020-02-01T08:53:15.000Z</time>
      </trkpt>
      <trkpt lat="42.85043" lon="0.51786">
        <ele>1276</ele>
        <time>2020-02-01T08:53:16.000Z</time>
      </trkpt>
      <trkpt lat="42.85043" lon="0.51787">
        <ele>1277</ele>
        <time>2020-02-01T08:53:17.000Z</time>
      </trkpt>
      <trkpt lat="42.85042" lon="0.51787">
        <ele>1277</ele>
        <time>2020-02-01T08:53:18.000Z</time>
      </trkpt>
      <trkpt lat="42.85042" lon="0.51788">
        <ele>1277</ele>
        <time>2020-02-01T08:53:19.000Z</time>
      </trkpt>
      <trkpt lat="42.85041" lon="0.51789">
        <ele>1277</ele>
        <time>2020-02-01T08:53:20.000Z</time>
      </trkpt>
      <trkpt lat="42.85041" lon="0.5179">
        <ele>1277</ele>
        <time>2020-02-01T08:53:21.000Z</time>
      </trkpt>
      <trkpt lat="42.8504" lon="0.51791">
        <ele>1277</ele>
        <time>2020-02-01T08:53:22.000Z</time>
      </trkpt>
      <trkpt lat="42.8504" lon="0.51791">
        <ele>1278</ele>
        <time>2020-02-01T08:53:23.000Z</time>
      </trkpt>
      <trkpt lat="42.85039" lon="0.51792">
        <ele>1278</ele>
        <time>2020-02-01T08:53:24.000Z</time>
      </trkpt>
      <trkpt lat="42.85039" lon="0.51793">
        <ele>1278</ele>
        <time>2020-02-01T08:53:25.000Z</time>
      </trkpt>
      <trkpt lat="42.85038" lon="0.51794">
        <ele>1278</ele>
        <time>2020-02-01T08:53:26.000Z</time>
      </trkpt>
      <trkpt lat="42.85038" lon="0.51795">
        <ele>1278</ele>
        <time>2020-02-01T08:53:27.000Z</time>
      </trkpt>
      <trkpt lat="42.85038" lon="0.51795">
        <ele>1278</ele>
        <time>2020-02-01T08:53:28.000Z</time>
      </trkpt>
      <trkpt lat="42.85037" lon="0.51796">
        <ele>1278</ele>
        <time>2020-02-01T08:53:29.000Z</time>
      </trkpt>
      <trkpt lat="42.85037" lon="0.51797">
        <ele>1278</ele>
        <time>2020-02-01T08:53:30.000Z</time>
      </trkpt>
      <trkpt lat="42.85037" lon="0.51797">
        <ele>1278.5</ele>
        <time>2020-02-01T08:53:31.000Z</time>
      </trkpt>
      <trkpt lat="42.85036" lon="0.51798">
        <ele>1279</ele>
        <time>2020-02-01T08:53:32.000Z</time>
      </trkpt>
      <trkpt lat="42.85036" lon="0.51799">
        <ele>1279</ele>
        <time>2020-02-01T08:53:33.000Z</time>
      </trkpt>
      <trkpt lat="42.85036" lon="0.51799">
        <ele>1279</ele>
        <time>2020-02-01T08:53:34.000Z</time>
      </trkpt>
      <trkpt lat="42.85036" lon="0.518">
        <ele>1279</ele>
        <time>2020-02-01T08:53:35.000Z</time>
      </trkpt>
      <trkpt lat="42.85035" lon="0.51801">
        <ele>1279</ele>
        <time>2020-02-01T08:53:36.000Z</time>
      </trkpt>
      <trkpt lat="42.85035" lon="0.51801">
        <ele>1279.5</ele>
        <time>2020-02-01T08:53:37.000Z</time>
      </trkpt>
      <trkpt lat="42.85034" lon="0.51802">
        <ele>1280</ele>
        <time>2020-02-01T08:53:38.000Z</time>
      </trkpt>
      <trkpt lat="42.85033" lon="0.51803">
        <ele>1280</ele>
        <time>2020-02-01T08:53:39.000Z</time>
      </trkpt>
      <trkpt lat="42.85031" lon="0.51804">
        <ele>1280</ele>
        <time>2020-02-01T08:53:40.000Z</time>
      </trkpt>
      <trkpt lat="42.8503" lon="0.51805">
        <ele>1280</ele>
        <time>2020-02-01T08:53:41.000Z</time>
      </trkpt>
      <trkpt lat="42.85029" lon="0.51806">
        <ele>1280</ele>
        <time>2020-02-01T08:53:42.000Z</time>
      </trkpt>
      <trkpt lat="42.85028" lon="0.51807">
        <ele>1280</ele>
        <time>2020-02-01T08:53:43.000Z</time>
      </trkpt>
      <trkpt lat="42.85027" lon="0.51808">
        <ele>1280</ele>
        <time>2020-02-01T08:53:44.000Z</time>
      </trkpt>
      <trkpt lat="42.85026" lon="0.51809">
        <ele>1281</ele>
        <time>2020-02-01T08:53:45.000Z</time>
      </trkpt>
      <trkpt lat="42.85026" lon="0.51809">
        <ele>1281</ele>
        <time>2020-02-01T08:53:46.000Z</time>
      </trkpt>
      <trkpt lat="42.85025" lon="0.5181">
        <ele>1281</ele>
        <time>2020-02-01T08:53:47.000Z</time>
      </trkpt>
      <trkpt lat="42.85024" lon="0.51811">
        <ele>1281</ele>
        <time>2020-02-01T08:53:48.000Z</time>
      </trkpt>
      <trkpt lat="42.85024" lon="0.51811">
        <ele>1281</ele>
        <time>2020-02-01T08:53:49.000Z</time>
      </trkpt>
      <trkpt lat="42.85023" lon="0.51812">
        <ele>1281</ele>
        <time>2020-02-01T08:53:50.000Z</time>
      </trkpt>
      <trkpt lat="42.85023" lon="0.51813">
        <ele>1281</ele>
        <time>2020-02-01T08:53:51.000Z</time>
      </trkpt>
      <trkpt lat="42.85022" lon="0.51813">
        <ele>1281.3</ele>
        <time>2020-02-01T08:53:52.000Z</time>
      </trkpt>
      <trkpt lat="42.85022" lon="0.51814">
        <ele>1281.7</ele>
        <time>2020-02-01T08:53:53.000Z</time>
      </trkpt>
      <trkpt lat="42.85021" lon="0.51814">
        <ele>1282</ele>
        <time>2020-02-01T08:53:54.000Z</time>
      </trkpt>
      <trkpt lat="42.85021" lon="0.51815">
        <ele>1282</ele>
        <time>2020-02-01T08:53:55.000Z</time>
      </trkpt>
      <trkpt lat="42.85021" lon="0.51815">
        <ele>1282</ele>
        <time>2020-02-01T08:53:56.000Z</time>
      </trkpt>
      <trkpt lat="42.8502" lon="0.51816">
        <ele>1282</ele>
        <time>2020-02-01T08:53:57.000Z</time>
      </trkpt>
      <trkpt lat="42.8502" lon="0.51817">
        <ele>1282.3</ele>
        <time>2020-02-01T08:53:58.000Z</time>
      </trkpt>
      <trkpt lat="42.85019" lon="0.51817">
        <ele>1282.7</ele>
        <time>2020-02-01T08:53:59.000Z</time>
      </trkpt>
      <trkpt lat="42.85019" lon="0.51818">
        <ele>1283</ele>
        <time>2020-02-01T08:54:00.000Z</time>
      </trkpt>
      <trkpt lat="42.85018" lon="0.51818">
        <ele>1283</ele>
        <time>2020-02-01T08:54:01.000Z</time>
      </trkpt>
      <trkpt lat="42.85018" lon="0.51819">
        <ele>1283</ele>
        <time>2020-02-01T08:54:02.000Z</time>
      </trkpt>
      <trkpt lat="42.85017" lon="0.5182">
        <ele>1283</ele>
        <time>2020-02-01T08:54:03.000Z</time>
      </trkpt>
      <trkpt lat="42.85017" lon="0.5182">
        <ele>1283</ele>
        <time>2020-02-01T08:54:04.000Z</time>
      </trkpt>
      <trkpt lat="42.85016" lon="0.51821">
        <ele>1283.5</ele>
        <time>2020-02-01T08:54:05.000Z</time>
      </trkpt>
      <trkpt lat="42.85016" lon="0.51821">
        <ele>1284</ele>
        <time>2020-02-01T08:54:06.000Z</time>
      </trkpt>
      <trkpt lat="42.85015" lon="0.51822">
        <ele>1284</ele>
        <time>2020-02-01T08:54:07.000Z</time>
      </trkpt>
      <trkpt lat="42.85015" lon="0.51823">
        <ele>1284</ele>
        <time>2020-02-01T08:54:08.000Z</time>
      </trkpt>
      <trkpt lat="42.85014" lon="0.51823">
        <ele>1284</ele>
        <time>2020-02-01T08:54:09.000Z</time>
      </trkpt>
      <trkpt lat="42.85014" lon="0.51824">
        <ele>1284</ele>
        <time>2020-02-01T08:54:10.000Z</time>
      </trkpt>
      <trkpt lat="42.85014" lon="0.51824">
        <ele>1284</ele>
        <time>2020-02-01T08:54:11.000Z</time>
      </trkpt>
      <trkpt lat="42.85014" lon="0.51825">
        <ele>1284</ele>
        <time>2020-02-01T08:54:12.000Z</time>
      </trkpt>
      <trkpt lat="42.85014" lon="0.51825">
        <ele>1284.5</ele>
        <time>2020-02-01T08:54:13.000Z</time>
      </trkpt>
      <trkpt lat="42.85013" lon="0.51825">
        <ele>1285</ele>
        <time>2020-02-01T08:54:14.000Z</time>
      </trkpt>
      <trkpt lat="42.85012" lon="0.51828">
        <ele>1285</ele>
        <time>2020-02-01T08:54:15.000Z</time>
      </trkpt>
      <trkpt lat="42.8501" lon="0.5183">
        <ele>1285</ele>
        <time>2020-02-01T08:54:16.000Z</time>
      </trkpt>
      <trkpt lat="42.85009" lon="0.51831">
        <ele>1285</ele>
        <time>2020-02-01T08:54:17.000Z</time>
      </trkpt>
      <trkpt lat="42.85009" lon="0.51831">
        <ele>1285</ele>
        <time>2020-02-01T08:54:18.000Z</time>
      </trkpt>
      <trkpt lat="42.85008" lon="0.51832">
        <ele>1285</ele>
        <time>2020-02-01T08:54:19.000Z</time>
      </trkpt>
      <trkpt lat="42.85007" lon="0.51832">
        <ele>1285</ele>
        <time>2020-02-01T08:54:20.000Z</time>
      </trkpt>
      <trkpt lat="42.85006" lon="0.51833">
        <ele>1285</ele>
        <time>2020-02-01T08:54:21.000Z</time>
      </trkpt>
      <trkpt lat="42.85005" lon="0.51834">
        <ele>1285.3</ele>
        <time>2020-02-01T08:54:22.000Z</time>
      </trkpt>
      <trkpt lat="42.85005" lon="0.51834">
        <ele>1285.7</ele>
        <time>2020-02-01T08:54:23.000Z</time>
      </trkpt>
      <trkpt lat="42.85004" lon="0.51835">
        <ele>1286</ele>
        <time>2020-02-01T08:54:24.000Z</time>
      </trkpt>
      <trkpt lat="42.85003" lon="0.51835">
        <ele>1286</ele>
        <time>2020-02-01T08:54:25.000Z</time>
      </trkpt>
      <trkpt lat="42.85003" lon="0.51835">
        <ele>1286</ele>
        <time>2020-02-01T08:54:26.000Z</time>
      </trkpt>
      <trkpt lat="42.85002" lon="0.51836">
        <ele>1286</ele>
        <time>2020-02-01T08:54:27.000Z</time>
      </trkpt>
      <trkpt lat="42.85002" lon="0.51836">
        <ele>1286</ele>
        <time>2020-02-01T08:54:28.000Z</time>
      </trkpt>
      <trkpt lat="42.85001" lon="0.51836">
        <ele>1286</ele>
        <time>2020-02-01T08:54:29.000Z</time>
      </trkpt>
      <trkpt lat="42.85" lon="0.51837">
        <ele>1286.5</ele>
        <time>2020-02-01T08:54:30.000Z</time>
      </trkpt>
      <trkpt lat="42.85" lon="0.51837">
        <ele>1287</ele>
        <time>2020-02-01T08:54:31.000Z</time>
      </trkpt>
      <trkpt lat="42.84999" lon="0.51838">
        <ele>1287</ele>
        <time>2020-02-01T08:54:32.000Z</time>
      </trkpt>
      <trkpt lat="42.84998" lon="0.51839">
        <ele>1287</ele>
        <time>2020-02-01T08:54:33.000Z</time>
      </trkpt>
      <trkpt lat="42.84998" lon="0.51839">
        <ele>1287</ele>
        <time>2020-02-01T08:54:34.000Z</time>
      </trkpt>
      <trkpt lat="42.84997" lon="0.5184">
        <ele>1287</ele>
        <time>2020-02-01T08:54:35.000Z</time>
      </trkpt>
      <trkpt lat="42.84996" lon="0.51841">
        <ele>1287.3</ele>
        <time>2020-02-01T08:54:36.000Z</time>
      </trkpt>
      <trkpt lat="42.84995" lon="0.51841">
        <ele>1287.7</ele>
        <time>2020-02-01T08:54:37.000Z</time>
      </trkpt>
      <trkpt lat="42.84994" lon="0.51842">
        <ele>1288</ele>
        <time>2020-02-01T08:54:38.000Z</time>
      </trkpt>
      <trkpt lat="42.84993" lon="0.51843">
        <ele>1288</ele>
        <time>2020-02-01T08:54:39.000Z</time>
      </trkpt>
      <trkpt lat="42.84992" lon="0.51843">
        <ele>1288</ele>
        <time>2020-02-01T08:54:40.000Z</time>
      </trkpt>
      <trkpt lat="42.84991" lon="0.51844">
        <ele>1288</ele>
        <time>2020-02-01T08:54:41.000Z</time>
      </trkpt>
      <trkpt lat="42.84989" lon="0.51844">
        <ele>1288</ele>
        <time>2020-02-01T08:54:42.000Z</time>
      </trkpt>
      <trkpt lat="42.84988" lon="0.51845">
        <ele>1288</ele>
        <time>2020-02-01T08:54:43.000Z</time>
      </trkpt>
      <trkpt lat="42.84987" lon="0.51845">
        <ele>1288.3</ele>
        <time>2020-02-01T08:54:44.000Z</time>
      </trkpt>
      <trkpt lat="42.84986" lon="0.51845">
        <ele>1288.7</ele>
        <time>2020-02-01T08:54:45.000Z</time>
      </trkpt>
      <trkpt lat="42.84985" lon="0.51846">
        <ele>1289</ele>
        <time>2020-02-01T08:54:46.000Z</time>
      </trkpt>
      <trkpt lat="42.84984" lon="0.51846">
        <ele>1289</ele>
        <time>2020-02-01T08:54:47.000Z</time>
      </trkpt>
      <trkpt lat="42.84983" lon="0.51846">
        <ele>1289</ele>
        <time>2020-02-01T08:54:48.000Z</time>
      </trkpt>
      <trkpt lat="42.84983" lon="0.51846">
        <ele>1289</ele>
        <time>2020-02-01T08:54:49.000Z</time>
      </trkpt>
      <trkpt lat="42.84982" lon="0.51847">
        <ele>1289</ele>
        <time>2020-02-01T08:54:50.000Z</time>
      </trkpt>
      <trkpt lat="42.84982" lon="0.51847">
        <ele>1289</ele>
        <time>2020-02-01T08:54:51.000Z</time>
      </trkpt>
      <trkpt lat="42.84982" lon="0.51847">
        <ele>1289</ele>
        <time>2020-02-01T08:54:52.000Z</time>
      </trkpt>
      <trkpt lat="42.84981" lon="0.51847">
        <ele>1289.5</ele>
        <time>2020-02-01T08:54:53.000Z</time>
      </trkpt>
      <trkpt lat="42.84981" lon="0.51847">
        <ele>1290</ele>
        <time>2020-02-01T08:54:54.000Z</time>
      </trkpt>
      <trkpt lat="42.84981" lon="0.51847">
        <ele>1290</ele>
        <time>2020-02-01T08:54:55.000Z</time>
      </trkpt>
      <trkpt lat="42.84981" lon="0.51847">
        <ele>1290</ele>
        <time>2020-02-01T08:54:56.000Z</time>
      </trkpt>
      <trkpt lat="42.84981" lon="0.51847">
        <ele>1290</ele>
        <time>2020-02-01T08:54:57.000Z</time>
      </trkpt>
      <trkpt lat="42.84981" lon="0.51847">
        <ele>1290</ele>
        <time>2020-02-01T08:54:58.000Z</time>
      </trkpt>
      <trkpt lat="42.8498" lon="0.51848">
        <ele>1290</ele>
        <time>2020-02-01T08:54:59.000Z</time>
      </trkpt>
      <trkpt lat="42.8498" lon="0.51848">
        <ele>1290</ele>
        <time>2020-02-01T08:55:00.000Z</time>
      </trkpt>
      <trkpt lat="42.8498" lon="0.51848">
        <ele>1290</ele>
        <time>2020-02-01T08:55:01.000Z</time>
      </trkpt>
      <trkpt lat="42.8498" lon="0.51848">
        <ele>1290</ele>
        <time>2020-02-01T08:55:02.000Z</time>
      </trkpt>
      <trkpt lat="42.8498" lon="0.51848">
        <ele>1290</ele>
        <time>2020-02-01T08:55:03.000Z</time>
      </trkpt>
      <trkpt lat="42.8498" lon="0.51848">
        <ele>1290</ele>
        <time>2020-02-01T08:55:04.000Z</time>
      </trkpt>
      <trkpt lat="42.84981" lon="0.51848">
        <ele>1290</ele>
        <time>2020-02-01T08:55:05.000Z</time>
      </trkpt>
      <trkpt lat="42.84981" lon="0.51848">
        <ele>1290</ele>
        <time>2020-02-01T08:55:06.000Z</time>
      </trkpt>
      <trkpt lat="42.84982" lon="0.51848">
        <ele>1290</ele>
        <time>2020-02-01T08:55:07.000Z</time>
      </trkpt>
      <trkpt lat="42.84982" lon="0.51848">
        <ele>1290</ele>
        <time>2020-02-01T08:55:08.000Z</time>
      </trkpt>
      <trkpt lat="42.84983" lon="0.51848">
        <ele>1290</ele>
        <time>2020-02-01T08:55:09.000Z</time>
      </trkpt>
      <trkpt lat="42.84983" lon="0.51848">
        <ele>1290</ele>
        <time>2020-02-01T08:55:10.000Z</time>
      </trkpt>
      <trkpt lat="42.84983" lon="0.51848">
        <ele>1290</ele>
        <time>2020-02-01T08:55:11.000Z</time>
      </trkpt>
      <trkpt lat="42.84983" lon="0.51848">
        <ele>1289.5</ele>
        <time>2020-02-01T08:55:12.000Z</time>
      </trkpt>
      <trkpt lat="42.84984" lon="0.51848">
        <ele>1289</ele>
        <time>2020-02-01T08:55:13.000Z</time>
      </trkpt>
      <trkpt lat="42.84984" lon="0.51847">
        <ele>1289.3</ele>
        <time>2020-02-01T08:55:14.000Z</time>
      </trkpt>
      <trkpt lat="42.84984" lon="0.51847">
        <ele>1289.7</ele>
        <time>2020-02-01T08:55:15.000Z</time>
      </trkpt>
      <trkpt lat="42.84984" lon="0.51848">
        <ele>1290</ele>
        <time>2020-02-01T08:55:16.000Z</time>
      </trkpt>
      <trkpt lat="42.84984" lon="0.51848">
        <ele>1290</ele>
        <time>2020-02-01T08:55:17.000Z</time>
      </trkpt>
      <trkpt lat="42.84983" lon="0.51848">
        <ele>1290</ele>
        <time>2020-02-01T08:55:18.000Z</time>
      </trkpt>
      <trkpt lat="42.84983" lon="0.51848">
        <ele>1290</ele>
        <time>2020-02-01T08:55:19.000Z</time>
      </trkpt>
      <trkpt lat="42.84983" lon="0.51848">
        <ele>1290</ele>
        <time>2020-02-01T08:55:20.000Z</time>
      </trkpt>
      <trkpt lat="42.84983" lon="0.51848">
        <ele>1290</ele>
        <time>2020-02-01T08:55:21.000Z</time>
      </trkpt>
      <trkpt lat="42.84983" lon="0.51848">
        <ele>1290</ele>
        <time>2020-02-01T08:55:22.000Z</time>
      </trkpt>
      <trkpt lat="42.84983" lon="0.51848">
        <ele>1290</ele>
        <time>2020-02-01T08:55:23.000Z</time>
      </trkpt>
      <trkpt lat="42.84983" lon="0.51849">
        <ele>1290</ele>
        <time>2020-02-01T08:55:24.000Z</time>
      </trkpt>
      <trkpt lat="42.84983" lon="0.51849">
        <ele>1290</ele>
        <time>2020-02-01T08:55:25.000Z</time>
      </trkpt>
      <trkpt lat="42.84983" lon="0.51849">
        <ele>1290</ele>
        <time>2020-02-01T08:55:26.000Z</time>
      </trkpt>
      <trkpt lat="42.84983" lon="0.5185">
        <ele>1290</ele>
        <time>2020-02-01T08:55:27.000Z</time>
      </trkpt>
      <trkpt lat="42.84983" lon="0.5185">
        <ele>1290</ele>
        <time>2020-02-01T08:55:28.000Z</time>
      </trkpt>
      <trkpt lat="42.84983" lon="0.5185">
        <ele>1290</ele>
        <time>2020-02-01T08:55:29.000Z</time>
      </trkpt>
      <trkpt lat="42.84983" lon="0.51851">
        <ele>1290</ele>
        <time>2020-02-01T08:55:30.000Z</time>
      </trkpt>
      <trkpt lat="42.84983" lon="0.51851">
        <ele>1290</ele>
        <time>2020-02-01T08:55:31.000Z</time>
      </trkpt>
      <trkpt lat="42.84983" lon="0.5185">
        <ele>1290</ele>
        <time>2020-02-01T08:55:32.000Z</time>
      </trkpt>
      <trkpt lat="42.84983" lon="0.5185">
        <ele>1290</ele>
        <time>2020-02-01T08:55:33.000Z</time>
      </trkpt>
      <trkpt lat="42.84983" lon="0.5185">
        <ele>1290</ele>
        <time>2020-02-01T08:55:34.000Z</time>
      </trkpt>
      <trkpt lat="42.84983" lon="0.51849">
        <ele>1290</ele>
        <time>2020-02-01T08:55:35.000Z</time>
      </trkpt>
      <trkpt lat="42.84983" lon="0.51849">
        <ele>1290</ele>
        <time>2020-02-01T08:55:36.000Z</time>
      </trkpt>
      <trkpt lat="42.84983" lon="0.51849">
        <ele>1290</ele>
        <time>2020-02-01T08:55:37.000Z</time>
      </trkpt>
      <trkpt lat="42.84983" lon="0.51848">
        <ele>1290</ele>
        <time>2020-02-01T08:55:38.000Z</time>
      </trkpt>
      <trkpt lat="42.84983" lon="0.51848">
        <ele>1290</ele>
        <time>2020-02-01T08:55:39.000Z</time>
      </trkpt>
      <trkpt lat="42.84983" lon="0.51848">
        <ele>1290</ele>
        <time>2020-02-01T08:55:40.000Z</time>
      </trkpt>
      <trkpt lat="42.84983" lon="0.51848">
        <ele>1290</ele>
        <time>2020-02-01T08:55:41.000Z</time>
      </trkpt>
      <trkpt lat="42.84983" lon="0.51848">
        <ele>1290</ele>
        <time>2020-02-01T08:55:42.000Z</time>
      </trkpt>
      <trkpt lat="42.84983" lon="0.51848">
        <ele>1290.3</ele>
        <time>2020-02-01T08:55:43.000Z</time>
      </trkpt>
      <trkpt lat="42.84983" lon="0.51848">
        <ele>1290.7</ele>
        <time>2020-02-01T08:55:44.000Z</time>
      </trkpt>
      <trkpt lat="42.84983" lon="0.51848">
        <ele>1291</ele>
        <time>2020-02-01T08:55:45.000Z</time>
      </trkpt>
      <trkpt lat="42.84982" lon="0.51847">
        <ele>1291</ele>
        <time>2020-02-01T08:55:46.000Z</time>
      </trkpt>
      <trkpt lat="42.84982" lon="0.51847">
        <ele>1291</ele>
        <time>2020-02-01T08:55:47.000Z</time>
      </trkpt>
      <trkpt lat="42.84982" lon="0.51847">
        <ele>1291</ele>
        <time>2020-02-01T08:55:48.000Z</time>
      </trkpt>
      <trkpt lat="42.84982" lon="0.51846">
        <ele>1290.7</ele>
        <time>2020-02-01T08:55:49.000Z</time>
      </trkpt>
      <trkpt lat="42.84981" lon="0.51846">
        <ele>1290.3</ele>
        <time>2020-02-01T08:55:50.000Z</time>
      </trkpt>
      <trkpt lat="42.84981" lon="0.51845">
        <ele>1290</ele>
        <time>2020-02-01T08:55:51.000Z</time>
      </trkpt>
      <trkpt lat="42.84981" lon="0.51845">
        <ele>1290</ele>
        <time>2020-02-01T08:55:52.000Z</time>
      </trkpt>
      <trkpt lat="42.8498" lon="0.51844">
        <ele>1290.3</ele>
        <time>2020-02-01T08:55:53.000Z</time>
      </trkpt>
      <trkpt lat="42.8498" lon="0.51844">
        <ele>1290.7</ele>
        <time>2020-02-01T08:55:54.000Z</time>
      </trkpt>
      <trkpt lat="42.8498" lon="0.51844">
        <ele>1291</ele>
        <time>2020-02-01T08:55:55.000Z</time>
      </trkpt>
      <trkpt lat="42.84979" lon="0.51843">
        <ele>1291</ele>
        <time>2020-02-01T08:55:56.000Z</time>
      </trkpt>
      <trkpt lat="42.84979" lon="0.51843">
        <ele>1291</ele>
        <time>2020-02-01T08:55:57.000Z</time>
      </trkpt>
      <trkpt lat="42.84979" lon="0.51843">
        <ele>1291</ele>
        <time>2020-02-01T08:55:58.000Z</time>
      </trkpt>
      <trkpt lat="42.84978" lon="0.51842">
        <ele>1291</ele>
        <time>2020-02-01T08:55:59.000Z</time>
      </trkpt>
      <trkpt lat="42.84978" lon="0.51842">
        <ele>1291</ele>
        <time>2020-02-01T08:56:00.000Z</time>
      </trkpt>
      <trkpt lat="42.84978" lon="0.51842">
        <ele>1291</ele>
        <time>2020-02-01T08:56:01.000Z</time>
      </trkpt>
      <trkpt lat="42.84977" lon="0.51841">
        <ele>1291</ele>
        <time>2020-02-01T08:56:02.000Z</time>
      </trkpt>
      <trkpt lat="42.84977" lon="0.51841">
        <ele>1291</ele>
        <time>2020-02-01T08:56:03.000Z</time>
      </trkpt>
      <trkpt lat="42.84976" lon="0.51841">
        <ele>1291</ele>
        <time>2020-02-01T08:56:04.000Z</time>
      </trkpt>
      <trkpt lat="42.84976" lon="0.5184">
        <ele>1291</ele>
        <time>2020-02-01T08:56:05.000Z</time>
      </trkpt>
      <trkpt lat="42.84975" lon="0.5184">
        <ele>1291</ele>
        <time>2020-02-01T08:56:06.000Z</time>
      </trkpt>
      <trkpt lat="42.84974" lon="0.51839">
        <ele>1291</ele>
        <time>2020-02-01T08:56:07.000Z</time>
      </trkpt>
      <trkpt lat="42.84974" lon="0.51839">
        <ele>1291</ele>
        <time>2020-02-01T08:56:08.000Z</time>
      </trkpt>
      <trkpt lat="42.84974" lon="0.51838">
        <ele>1291</ele>
        <time>2020-02-01T08:56:09.000Z</time>
      </trkpt>
      <trkpt lat="42.84973" lon="0.51838">
        <ele>1291</ele>
        <time>2020-02-01T08:56:10.000Z</time>
      </trkpt>
      <trkpt lat="42.84973" lon="0.51837">
        <ele>1291</ele>
        <time>2020-02-01T08:56:11.000Z</time>
      </trkpt>
      <trkpt lat="42.84973" lon="0.51837">
        <ele>1291</ele>
        <time>2020-02-01T08:56:12.000Z</time>
      </trkpt>
      <trkpt lat="42.84973" lon="0.51837">
        <ele>1291</ele>
        <time>2020-02-01T08:56:13.000Z</time>
      </trkpt>
      <trkpt lat="42.84973" lon="0.51836">
        <ele>1291</ele>
        <time>2020-02-01T08:56:14.000Z</time>
      </trkpt>
      <trkpt lat="42.84973" lon="0.51836">
        <ele>1291</ele>
        <time>2020-02-01T08:56:15.000Z</time>
      </trkpt>
      <trkpt lat="42.84972" lon="0.51836">
        <ele>1291</ele>
        <time>2020-02-01T08:56:16.000Z</time>
      </trkpt>
      <trkpt lat="42.84972" lon="0.51836">
        <ele>1291</ele>
        <time>2020-02-01T08:56:17.000Z</time>
      </trkpt>
      <trkpt lat="42.84972" lon="0.51836">
        <ele>1291</ele>
        <time>2020-02-01T08:56:18.000Z</time>
      </trkpt>
      <trkpt lat="42.84972" lon="0.51836">
        <ele>1291</ele>
        <time>2020-02-01T08:56:19.000Z</time>
      </trkpt>
      <trkpt lat="42.84972" lon="0.51836">
        <ele>1291</ele>
        <time>2020-02-01T08:56:20.000Z</time>
      </trkpt>
      <trkpt lat="42.84972" lon="0.51836">
        <ele>1291</ele>
        <time>2020-02-01T08:56:21.000Z</time>
      </trkpt>
      <trkpt lat="42.84972" lon="0.51836">
        <ele>1291</ele>
        <time>2020-02-01T08:56:22.000Z</time>
      </trkpt>
      <trkpt lat="42.84971" lon="0.51836">
        <ele>1291</ele>
        <time>2020-02-01T08:56:23.000Z</time>
      </trkpt>
      <trkpt lat="42.84971" lon="0.51837">
        <ele>1291</ele>
        <time>2020-02-01T08:56:24.000Z</time>
      </trkpt>
      <trkpt lat="42.84971" lon="0.51837">
        <ele>1291</ele>
        <time>2020-02-01T08:56:25.000Z</time>
      </trkpt>
      <trkpt lat="42.84971" lon="0.51837">
        <ele>1291</ele>
        <time>2020-02-01T08:56:26.000Z</time>
      </trkpt>
      <trkpt lat="42.84971" lon="0.51837">
        <ele>1291</ele>
        <time>2020-02-01T08:56:27.000Z</time>
      </trkpt>
      <trkpt lat="42.84971" lon="0.51837">
        <ele>1291</ele>
        <time>2020-02-01T08:56:28.000Z</time>
      </trkpt>
      <trkpt lat="42.84971" lon="0.51837">
        <ele>1291</ele>
        <time>2020-02-01T08:56:29.000Z</time>
      </trkpt>
      <trkpt lat="42.84971" lon="0.51837">
        <ele>1291</ele>
        <time>2020-02-01T08:56:30.000Z</time>
      </trkpt>
      <trkpt lat="42.84971" lon="0.51837">
        <ele>1291</ele>
        <time>2020-02-01T08:56:31.000Z</time>
      </trkpt>
      <trkpt lat="42.84971" lon="0.51837">
        <ele>1291</ele>
        <time>2020-02-01T08:56:32.000Z</time>
      </trkpt>
      <trkpt lat="42.84971" lon="0.51837">
        <ele>1291</ele>
        <time>2020-02-01T08:56:33.000Z</time>
      </trkpt>
      <trkpt lat="42.84971" lon="0.51837">
        <ele>1291</ele>
        <time>2020-02-01T08:56:34.000Z</time>
      </trkpt>
      <trkpt lat="42.84971" lon="0.51837">
        <ele>1291</ele>
        <time>2020-02-01T08:56:35.000Z</time>
      </trkpt>
      <trkpt lat="42.84971" lon="0.51837">
        <ele>1291</ele>
        <time>2020-02-01T08:56:36.000Z</time>
      </trkpt>
      <trkpt lat="42.84971" lon="0.51837">
        <ele>1291</ele>
        <time>2020-02-01T08:56:37.000Z</time>
      </trkpt>
      <trkpt lat="42.84971" lon="0.51837">
        <ele>1291</ele>
        <time>2020-02-01T08:56:38.000Z</time>
      </trkpt>
      <trkpt lat="42.84971" lon="0.51837">
        <ele>1291</ele>
        <time>2020-02-01T08:56:39.000Z</time>
      </trkpt>
      <trkpt lat="42.84971" lon="0.51837">
        <ele>1291</ele>
        <time>2020-02-01T08:56:40.000Z</time>
      </trkpt>
      <trkpt lat="42.84971" lon="0.51837">
        <ele>1291</ele>
        <time>2020-02-01T08:56:41.000Z</time>
      </trkpt>
      <trkpt lat="42.84971" lon="0.51837">
        <ele>1291</ele>
        <time>2020-02-01T08:56:42.000Z</time>
      </trkpt>
      <trkpt lat="42.84971" lon="0.51837">
        <ele>1291</ele>
        <time>2020-02-01T08:56:43.000Z</time>
      </trkpt>
      <trkpt lat="42.84971" lon="0.51837">
        <ele>1291</ele>
        <time>2020-02-01T08:56:44.000Z</time>
      </trkpt>
      <trkpt lat="42.84971" lon="0.51837">
        <ele>1291</ele>
        <time>2020-02-01T08:56:45.000Z</time>
      </trkpt>
      <trkpt lat="42.84971" lon="0.51837">
        <ele>1291</ele>
        <time>2020-02-01T08:56:46.000Z</time>
      </trkpt>
      <trkpt lat="42.84971" lon="0.51837">
        <ele>1291</ele>
        <time>2020-02-01T08:56:47.000Z</time>
      </trkpt>
      <trkpt lat="42.84971" lon="0.51837">
        <ele>1291</ele>
        <time>2020-02-01T08:56:48.000Z</time>
      </trkpt>
      <trkpt lat="42.84971" lon="0.51837">
        <ele>1291</ele>
        <time>2020-02-01T08:56:49.000Z</time>
      </trkpt>
      <trkpt lat="42.84971" lon="0.51837">
        <ele>1291</ele>
        <time>2020-02-01T08:56:50.000Z</time>
      </trkpt>
      <trkpt lat="42.84971" lon="0.51837">
        <ele>1291</ele>
        <time>2020-02-01T08:56:51.000Z</time>
      </trkpt>
      <trkpt lat="42.84971" lon="0.51837">
        <ele>1291</ele>
        <time>2020-02-01T08:56:52.000Z</time>
      </trkpt>
      <trkpt lat="42.84971" lon="0.51837">
        <ele>1291</ele>
        <time>2020-02-01T08:56:53.000Z</time>
      </trkpt>
      <trkpt lat="42.84971" lon="0.51837">
        <ele>1291</ele>
        <time>2020-02-01T08:56:54.000Z</time>
      </trkpt>
      <trkpt lat="42.84971" lon="0.51837">
        <ele>1291</ele>
        <time>2020-02-01T08:56:55.000Z</time>
      </trkpt>
      <trkpt lat="42.84971" lon="0.51837">
        <ele>1291</ele>
        <time>2020-02-01T08:56:56.000Z</time>
      </trkpt>
      <trkpt lat="42.84971" lon="0.51837">
        <ele>1291</ele>
        <time>2020-02-01T08:56:57.000Z</time>
      </trkpt>
      <trkpt lat="42.84971" lon="0.51837">
        <ele>1291</ele>
        <time>2020-02-01T08:56:58.000Z</time>
      </trkpt>
      <trkpt lat="42.84971" lon="0.51837">
        <ele>1291</ele>
        <time>2020-02-01T08:56:59.000Z</time>
      </trkpt>
      <trkpt lat="42.84971" lon="0.51837">
        <ele>1291</ele>
        <time>2020-02-01T08:57:00.000Z</time>
      </trkpt>
      <trkpt lat="42.84971" lon="0.51837">
        <ele>1291</ele>
        <time>2020-02-01T08:57:01.000Z</time>
      </trkpt>
      <trkpt lat="42.84971" lon="0.51837">
        <ele>1291</ele>
        <time>2020-02-01T08:57:02.000Z</time>
      </trkpt>
      <trkpt lat="42.84971" lon="0.51837">
        <ele>1291</ele>
        <time>2020-02-01T08:57:03.000Z</time>
      </trkpt>
      <trkpt lat="42.84971" lon="0.51837">
        <ele>1291</ele>
        <time>2020-02-01T08:57:04.000Z</time>
      </trkpt>
      <trkpt lat="42.84971" lon="0.51837">
        <ele>1291</ele>
        <time>2020-02-01T08:57:05.000Z</time>
      </trkpt>
      <trkpt lat="42.84971" lon="0.51837">
        <ele>1291</ele>
        <time>2020-02-01T08:57:06.000Z</time>
      </trkpt>
      <trkpt lat="42.84971" lon="0.51837">
        <ele>1291</ele>
        <time>2020-02-01T08:57:07.000Z</time>
      </trkpt>
      <trkpt lat="42.84971" lon="0.51837">
        <ele>1291</ele>
        <time>2020-02-01T08:57:08.000Z</time>
      </trkpt>
      <trkpt lat="42.8497" lon="0.51839">
        <ele>1291</ele>
        <time>2020-02-01T08:57:09.000Z</time>
      </trkpt>
      <trkpt lat="42.84968" lon="0.51846">
        <ele>1292</ele>
        <time>2020-02-01T08:57:10.000Z</time>
      </trkpt>
      <trkpt lat="42.84967" lon="0.51848">
        <ele>1292</ele>
        <time>2020-02-01T08:57:11.000Z</time>
      </trkpt>
      <trkpt lat="42.84967" lon="0.51848">
        <ele>1292</ele>
        <time>2020-02-01T08:57:12.000Z</time>
      </trkpt>
      <trkpt lat="42.84967" lon="0.51848">
        <ele>1292</ele>
        <time>2020-02-01T08:57:13.000Z</time>
      </trkpt>
      <trkpt lat="42.84967" lon="0.51848">
        <ele>1292</ele>
        <time>2020-02-01T08:57:14.000Z</time>
      </trkpt>
      <trkpt lat="42.84966" lon="0.51849">
        <ele>1292</ele>
        <time>2020-02-01T08:57:15.000Z</time>
      </trkpt>
      <trkpt lat="42.84966" lon="0.51849">
        <ele>1292</ele>
        <time>2020-02-01T08:57:16.000Z</time>
      </trkpt>
      <trkpt lat="42.84965" lon="0.5185">
        <ele>1292</ele>
        <time>2020-02-01T08:57:17.000Z</time>
      </trkpt>
      <trkpt lat="42.84965" lon="0.5185">
        <ele>1293</ele>
        <time>2020-02-01T08:57:18.000Z</time>
      </trkpt>
      <trkpt lat="42.84964" lon="0.51851">
        <ele>1293</ele>
        <time>2020-02-01T08:57:19.000Z</time>
      </trkpt>
      <trkpt lat="42.84963" lon="0.51852">
        <ele>1293</ele>
        <time>2020-02-01T08:57:20.000Z</time>
      </trkpt>
      <trkpt lat="42.84963" lon="0.51852">
        <ele>1293</ele>
        <time>2020-02-01T08:57:21.000Z</time>
      </trkpt>
      <trkpt lat="42.84962" lon="0.51853">
        <ele>1293</ele>
        <time>2020-02-01T08:57:22.000Z</time>
      </trkpt>
      <trkpt lat="42.84962" lon="0.51853">
        <ele>1293</ele>
        <time>2020-02-01T08:57:23.000Z</time>
      </trkpt>
      <trkpt lat="42.84962" lon="0.51853">
        <ele>1293.5</ele>
        <time>2020-02-01T08:57:24.000Z</time>
      </trkpt>
      <trkpt lat="42.84962" lon="0.51853">
        <ele>1294</ele>
        <time>2020-02-01T08:57:25.000Z</time>
      </trkpt>
      <trkpt lat="42.84962" lon="0.51853">
        <ele>1294</ele>
        <time>2020-02-01T08:57:26.000Z</time>
      </trkpt>
      <trkpt lat="42.84962" lon="0.51853">
        <ele>1294</ele>
        <time>2020-02-01T08:57:27.000Z</time>
      </trkpt>
      <trkpt lat="42.84962" lon="0.51853">
        <ele>1294</ele>
        <time>2020-02-01T08:57:28.000Z</time>
      </trkpt>
      <trkpt lat="42.84962" lon="0.51853">
        <ele>1294</ele>
        <time>2020-02-01T08:57:29.000Z</time>
      </trkpt>
      <trkpt lat="42.84961" lon="0.51854">
        <ele>1294.5</ele>
        <time>2020-02-01T08:57:30.000Z</time>
      </trkpt>
      <trkpt lat="42.84961" lon="0.51854">
        <ele>1295</ele>
        <time>2020-02-01T08:57:31.000Z</time>
      </trkpt>
      <trkpt lat="42.8496" lon="0.51854">
        <ele>1295</ele>
        <time>2020-02-01T08:57:32.000Z</time>
      </trkpt>
      <trkpt lat="42.8496" lon="0.51854">
        <ele>1295</ele>
        <time>2020-02-01T08:57:33.000Z</time>
      </trkpt>
      <trkpt lat="42.84959" lon="0.51855">
        <ele>1295</ele>
        <time>2020-02-01T08:57:34.000Z</time>
      </trkpt>
      <trkpt lat="42.84958" lon="0.51855">
        <ele>1295</ele>
        <time>2020-02-01T08:57:35.000Z</time>
      </trkpt>
      <trkpt lat="42.84957" lon="0.51855">
        <ele>1295</ele>
        <time>2020-02-01T08:57:36.000Z</time>
      </trkpt>
      <trkpt lat="42.84955" lon="0.51855">
        <ele>1296</ele>
        <time>2020-02-01T08:57:37.000Z</time>
      </trkpt>
      <trkpt lat="42.84954" lon="0.51855">
        <ele>1296</ele>
        <time>2020-02-01T08:57:38.000Z</time>
      </trkpt>
      <trkpt lat="42.84953" lon="0.51855">
        <ele>1296</ele>
        <time>2020-02-01T08:57:39.000Z</time>
      </trkpt>
      <trkpt lat="42.84952" lon="0.51854">
        <ele>1296</ele>
        <time>2020-02-01T08:57:40.000Z</time>
      </trkpt>
      <trkpt lat="42.84952" lon="0.51854">
        <ele>1296</ele>
        <time>2020-02-01T08:57:41.000Z</time>
      </trkpt>
      <trkpt lat="42.84951" lon="0.51854">
        <ele>1296</ele>
        <time>2020-02-01T08:57:42.000Z</time>
      </trkpt>
      <trkpt lat="42.84951" lon="0.51854">
        <ele>1296</ele>
        <time>2020-02-01T08:57:43.000Z</time>
      </trkpt>
      <trkpt lat="42.84951" lon="0.51854">
        <ele>1296.5</ele>
        <time>2020-02-01T08:57:44.000Z</time>
      </trkpt>
      <trkpt lat="42.84951" lon="0.51854">
        <ele>1297</ele>
        <time>2020-02-01T08:57:45.000Z</time>
      </trkpt>
      <trkpt lat="42.84951" lon="0.51854">
        <ele>1297</ele>
        <time>2020-02-01T08:57:46.000Z</time>
      </trkpt>
      <trkpt lat="42.84951" lon="0.51854">
        <ele>1297</ele>
        <time>2020-02-01T08:57:47.000Z</time>
      </trkpt>
      <trkpt lat="42.84951" lon="0.51854">
        <ele>1297</ele>
        <time>2020-02-01T08:57:48.000Z</time>
      </trkpt>
      <trkpt lat="42.84951" lon="0.51854">
        <ele>1297</ele>
        <time>2020-02-01T08:57:49.000Z</time>
      </trkpt>
      <trkpt lat="42.84951" lon="0.51855">
        <ele>1297</ele>
        <time>2020-02-01T08:57:50.000Z</time>
      </trkpt>
      <trkpt lat="42.84951" lon="0.51855">
        <ele>1297</ele>
        <time>2020-02-01T08:57:51.000Z</time>
      </trkpt>
      <trkpt lat="42.8495" lon="0.51855">
        <ele>1298</ele>
        <time>2020-02-01T08:57:52.000Z</time>
      </trkpt>
      <trkpt lat="42.8495" lon="0.51855">
        <ele>1298</ele>
        <time>2020-02-01T08:57:53.000Z</time>
      </trkpt>
      <trkpt lat="42.8495" lon="0.51856">
        <ele>1298</ele>
        <time>2020-02-01T08:57:54.000Z</time>
      </trkpt>
      <trkpt lat="42.84949" lon="0.51856">
        <ele>1298</ele>
        <time>2020-02-01T08:57:55.000Z</time>
      </trkpt>
      <trkpt lat="42.84949" lon="0.51857">
        <ele>1298</ele>
        <time>2020-02-01T08:57:56.000Z</time>
      </trkpt>
      <trkpt lat="42.84949" lon="0.51857">
        <ele>1298</ele>
        <time>2020-02-01T08:57:57.000Z</time>
      </trkpt>
      <trkpt lat="42.84948" lon="0.51857">
        <ele>1298.5</ele>
        <time>2020-02-01T08:57:58.000Z</time>
      </trkpt>
      <trkpt lat="42.84947" lon="0.51857">
        <ele>1299</ele>
        <time>2020-02-01T08:57:59.000Z</time>
      </trkpt>
      <trkpt lat="42.84946" lon="0.51858">
        <ele>1299</ele>
        <time>2020-02-01T08:58:00.000Z</time>
      </trkpt>
      <trkpt lat="42.84945" lon="0.51858">
        <ele>1299</ele>
        <time>2020-02-01T08:58:01.000Z</time>
      </trkpt>
      <trkpt lat="42.84944" lon="0.51859">
        <ele>1299</ele>
        <time>2020-02-01T08:58:02.000Z</time>
      </trkpt>
      <trkpt lat="42.84942" lon="0.5186">
        <ele>1299</ele>
        <time>2020-02-01T08:58:03.000Z</time>
      </trkpt>
      <trkpt lat="42.84941" lon="0.51861">
        <ele>1299</ele>
        <time>2020-02-01T08:58:04.000Z</time>
      </trkpt>
      <trkpt lat="42.8494" lon="0.51861">
        <ele>1299</ele>
        <time>2020-02-01T08:58:05.000Z</time>
      </trkpt>
      <trkpt lat="42.84938" lon="0.51862">
        <ele>1300</ele>
        <time>2020-02-01T08:58:06.000Z</time>
      </trkpt>
      <trkpt lat="42.84937" lon="0.51863">
        <ele>1300</ele>
        <time>2020-02-01T08:58:07.000Z</time>
      </trkpt>
      <trkpt lat="42.84936" lon="0.51864">
        <ele>1300</ele>
        <time>2020-02-01T08:58:08.000Z</time>
      </trkpt>
      <trkpt lat="42.84935" lon="0.51865">
        <ele>1300</ele>
        <time>2020-02-01T08:58:09.000Z</time>
      </trkpt>
      <trkpt lat="42.84934" lon="0.51865">
        <ele>1300</ele>
        <time>2020-02-01T08:58:10.000Z</time>
      </trkpt>
      <trkpt lat="42.84934" lon="0.51866">
        <ele>1300</ele>
        <time>2020-02-01T08:58:11.000Z</time>
      </trkpt>
      <trkpt lat="42.84933" lon="0.51866">
        <ele>1300.5</ele>
        <time>2020-02-01T08:58:12.000Z</time>
      </trkpt>
      <trkpt lat="42.84933" lon="0.51867">
        <ele>1301</ele>
        <time>2020-02-01T08:58:13.000Z</time>
      </trkpt>
      <trkpt lat="42.84932" lon="0.51867">
        <ele>1301</ele>
        <time>2020-02-01T08:58:14.000Z</time>
      </trkpt>
      <trkpt lat="42.84932" lon="0.51868">
        <ele>1301</ele>
        <time>2020-02-01T08:58:15.000Z</time>
      </trkpt>
      <trkpt lat="42.84932" lon="0.51868">
        <ele>1301</ele>
        <time>2020-02-01T08:58:16.000Z</time>
      </trkpt>
      <trkpt lat="42.84932" lon="0.51869">
        <ele>1301.3</ele>
        <time>2020-02-01T08:58:17.000Z</time>
      </trkpt>
      <trkpt lat="42.84932" lon="0.51869">
        <ele>1301.7</ele>
        <time>2020-02-01T08:58:18.000Z</time>
      </trkpt>
      <trkpt lat="42.84931" lon="0.51869">
        <ele>1302</ele>
        <time>2020-02-01T08:58:19.000Z</time>
      </trkpt>
      <trkpt lat="42.84931" lon="0.51869">
        <ele>1302</ele>
        <time>2020-02-01T08:58:20.000Z</time>
      </trkpt>
      <trkpt lat="42.84931" lon="0.5187">
        <ele>1302</ele>
        <time>2020-02-01T08:58:21.000Z</time>
      </trkpt>
      <trkpt lat="42.84931" lon="0.5187">
        <ele>1302</ele>
        <time>2020-02-01T08:58:22.000Z</time>
      </trkpt>
      <trkpt lat="42.84931" lon="0.5187">
        <ele>1302</ele>
        <time>2020-02-01T08:58:23.000Z</time>
      </trkpt>
      <trkpt lat="42.8493" lon="0.51871">
        <ele>1302.5</ele>
        <time>2020-02-01T08:58:24.000Z</time>
      </trkpt>
      <trkpt lat="42.8493" lon="0.51871">
        <ele>1303</ele>
        <time>2020-02-01T08:58:25.000Z</time>
      </trkpt>
      <trkpt lat="42.8493" lon="0.51871">
        <ele>1303</ele>
        <time>2020-02-01T08:58:26.000Z</time>
      </trkpt>
      <trkpt lat="42.8493" lon="0.51872">
        <ele>1303</ele>
        <time>2020-02-01T08:58:27.000Z</time>
      </trkpt>
      <trkpt lat="42.84929" lon="0.51872">
        <ele>1303</ele>
        <time>2020-02-01T08:58:28.000Z</time>
      </trkpt>
      <trkpt lat="42.84929" lon="0.51873">
        <ele>1303</ele>
        <time>2020-02-01T08:58:29.000Z</time>
      </trkpt>
      <trkpt lat="42.84929" lon="0.51873">
        <ele>1303</ele>
        <time>2020-02-01T08:58:30.000Z</time>
      </trkpt>
      <trkpt lat="42.84929" lon="0.51874">
        <ele>1303.3</ele>
        <time>2020-02-01T08:58:31.000Z</time>
      </trkpt>
      <trkpt lat="42.84928" lon="0.51874">
        <ele>1303.7</ele>
        <time>2020-02-01T08:58:32.000Z</time>
      </trkpt>
      <trkpt lat="42.84928" lon="0.51874">
        <ele>1304</ele>
        <time>2020-02-01T08:58:33.000Z</time>
      </trkpt>
      <trkpt lat="42.84928" lon="0.51875">
        <ele>1304</ele>
        <time>2020-02-01T08:58:34.000Z</time>
      </trkpt>
      <trkpt lat="42.84928" lon="0.51875">
        <ele>1304</ele>
        <time>2020-02-01T08:58:35.000Z</time>
      </trkpt>
      <trkpt lat="42.84928" lon="0.51875">
        <ele>1304</ele>
        <time>2020-02-01T08:58:36.000Z</time>
      </trkpt>
      <trkpt lat="42.84928" lon="0.51875">
        <ele>1304</ele>
        <time>2020-02-01T08:58:37.000Z</time>
      </trkpt>
      <trkpt lat="42.84928" lon="0.51875">
        <ele>1304.5</ele>
        <time>2020-02-01T08:58:38.000Z</time>
      </trkpt>
      <trkpt lat="42.84927" lon="0.51875">
        <ele>1305</ele>
        <time>2020-02-01T08:58:39.000Z</time>
      </trkpt>
      <trkpt lat="42.84927" lon="0.51876">
        <ele>1305</ele>
        <time>2020-02-01T08:58:40.000Z</time>
      </trkpt>
      <trkpt lat="42.84926" lon="0.51876">
        <ele>1305</ele>
        <time>2020-02-01T08:58:41.000Z</time>
      </trkpt>
      <trkpt lat="42.84924" lon="0.51878">
        <ele>1305</ele>
        <time>2020-02-01T08:58:42.000Z</time>
      </trkpt>
      <trkpt lat="42.84923" lon="0.51879">
        <ele>1305</ele>
        <time>2020-02-01T08:58:43.000Z</time>
      </trkpt>
      <trkpt lat="42.84922" lon="0.51879">
        <ele>1305</ele>
        <time>2020-02-01T08:58:44.000Z</time>
      </trkpt>
      <trkpt lat="42.84921" lon="0.5188">
        <ele>1305.3</ele>
        <time>2020-02-01T08:58:45.000Z</time>
      </trkpt>
      <trkpt lat="42.8492" lon="0.5188">
        <ele>1305.7</ele>
        <time>2020-02-01T08:58:46.000Z</time>
      </trkpt>
      <trkpt lat="42.8492" lon="0.51881">
        <ele>1306</ele>
        <time>2020-02-01T08:58:47.000Z</time>
      </trkpt>
      <trkpt lat="42.8492" lon="0.51881">
        <ele>1306</ele>
        <time>2020-02-01T08:58:48.000Z</time>
      </trkpt>
      <trkpt lat="42.8492" lon="0.51881">
        <ele>1306</ele>
        <time>2020-02-01T08:58:49.000Z</time>
      </trkpt>
      <trkpt lat="42.84919" lon="0.51882">
        <ele>1306</ele>
        <time>2020-02-01T08:58:50.000Z</time>
      </trkpt>
      <trkpt lat="42.84919" lon="0.51882">
        <ele>1306</ele>
        <time>2020-02-01T08:58:51.000Z</time>
      </trkpt>
      <trkpt lat="42.84919" lon="0.51882">
        <ele>1306.5</ele>
        <time>2020-02-01T08:58:52.000Z</time>
      </trkpt>
      <trkpt lat="42.84919" lon="0.51882">
        <ele>1307</ele>
        <time>2020-02-01T08:58:53.000Z</time>
      </trkpt>
      <trkpt lat="42.84919" lon="0.51882">
        <ele>1307</ele>
        <time>2020-02-01T08:58:54.000Z</time>
      </trkpt>
      <trkpt lat="42.84919" lon="0.51882">
        <ele>1307.5</ele>
        <time>2020-02-01T08:58:55.000Z</time>
      </trkpt>
      <trkpt lat="42.84918" lon="0.51882">
        <ele>1308</ele>
        <time>2020-02-01T08:58:56.000Z</time>
      </trkpt>
      <trkpt lat="42.84917" lon="0.51883">
        <ele>1308</ele>
        <time>2020-02-01T08:58:57.000Z</time>
      </trkpt>
      <trkpt lat="42.84916" lon="0.51883">
        <ele>1308</ele>
        <time>2020-02-01T08:58:58.000Z</time>
      </trkpt>
      <trkpt lat="42.84915" lon="0.51884">
        <ele>1308</ele>
        <time>2020-02-01T08:58:59.000Z</time>
      </trkpt>
      <trkpt lat="42.84914" lon="0.51884">
        <ele>1308</ele>
        <time>2020-02-01T08:59:00.000Z</time>
      </trkpt>
      <trkpt lat="42.84914" lon="0.51885">
        <ele>1308.3</ele>
        <time>2020-02-01T08:59:01.000Z</time>
      </trkpt>
      <trkpt lat="42.84913" lon="0.51885">
        <ele>1308.7</ele>
        <time>2020-02-01T08:59:02.000Z</time>
      </trkpt>
      <trkpt lat="42.84913" lon="0.51885">
        <ele>1309</ele>
        <time>2020-02-01T08:59:03.000Z</time>
      </trkpt>
      <trkpt lat="42.84912" lon="0.51885">
        <ele>1309</ele>
        <time>2020-02-01T08:59:04.000Z</time>
      </trkpt>
      <trkpt lat="42.84912" lon="0.51885">
        <ele>1309</ele>
        <time>2020-02-01T08:59:05.000Z</time>
      </trkpt>
      <trkpt lat="42.84912" lon="0.51885">
        <ele>1309</ele>
        <time>2020-02-01T08:59:06.000Z</time>
      </trkpt>
      <trkpt lat="42.84912" lon="0.51885">
        <ele>1309</ele>
        <time>2020-02-01T08:59:07.000Z</time>
      </trkpt>
      <trkpt lat="42.84912" lon="0.51885">
        <ele>1309.5</ele>
        <time>2020-02-01T08:59:08.000Z</time>
      </trkpt>
      <trkpt lat="42.84912" lon="0.51885">
        <ele>1310</ele>
        <time>2020-02-01T08:59:09.000Z</time>
      </trkpt>
      <trkpt lat="42.84912" lon="0.51885">
        <ele>1310</ele>
        <time>2020-02-01T08:59:10.000Z</time>
      </trkpt>
      <trkpt lat="42.84912" lon="0.51885">
        <ele>1310</ele>
        <time>2020-02-01T08:59:11.000Z</time>
      </trkpt>
      <trkpt lat="42.84912" lon="0.51885">
        <ele>1310</ele>
        <time>2020-02-01T08:59:12.000Z</time>
      </trkpt>
      <trkpt lat="42.84911" lon="0.51885">
        <ele>1310</ele>
        <time>2020-02-01T08:59:13.000Z</time>
      </trkpt>
      <trkpt lat="42.84911" lon="0.51884">
        <ele>1310.5</ele>
        <time>2020-02-01T08:59:14.000Z</time>
      </trkpt>
      <trkpt lat="42.8491" lon="0.51884">
        <ele>1311</ele>
        <time>2020-02-01T08:59:15.000Z</time>
      </trkpt>
      <trkpt lat="42.84909" lon="0.51882">
        <ele>1311</ele>
        <time>2020-02-01T08:59:16.000Z</time>
      </trkpt>
      <trkpt lat="42.84908" lon="0.5188">
        <ele>1311</ele>
        <time>2020-02-01T08:59:17.000Z</time>
      </trkpt>
      <trkpt lat="42.84907" lon="0.51879">
        <ele>1311</ele>
        <time>2020-02-01T08:59:18.000Z</time>
      </trkpt>
      <trkpt lat="42.84907" lon="0.51877">
        <ele>1311</ele>
        <time>2020-02-01T08:59:19.000Z</time>
      </trkpt>
      <trkpt lat="42.84906" lon="0.51876">
        <ele>1311</ele>
        <time>2020-02-01T08:59:20.000Z</time>
      </trkpt>
      <trkpt lat="42.84906" lon="0.51875">
        <ele>1311</ele>
        <time>2020-02-01T08:59:21.000Z</time>
      </trkpt>
      <trkpt lat="42.84907" lon="0.51874">
        <ele>1312</ele>
        <time>2020-02-01T08:59:22.000Z</time>
      </trkpt>
      <trkpt lat="42.84907" lon="0.51874">
        <ele>1312</ele>
        <time>2020-02-01T08:59:23.000Z</time>
      </trkpt>
      <trkpt lat="42.84908" lon="0.51873">
        <ele>1312</ele>
        <time>2020-02-01T08:59:24.000Z</time>
      </trkpt>
      <trkpt lat="42.84908" lon="0.51872">
        <ele>1312</ele>
        <time>2020-02-01T08:59:25.000Z</time>
      </trkpt>
      <trkpt lat="42.84909" lon="0.51872">
        <ele>1312</ele>
        <time>2020-02-01T08:59:26.000Z</time>
      </trkpt>
      <trkpt lat="42.84909" lon="0.51871">
        <ele>1312</ele>
        <time>2020-02-01T08:59:27.000Z</time>
      </trkpt>
      <trkpt lat="42.84909" lon="0.5187">
        <ele>1312</ele>
        <time>2020-02-01T08:59:28.000Z</time>
      </trkpt>
      <trkpt lat="42.8491" lon="0.51868">
        <ele>1312</ele>
        <time>2020-02-01T08:59:29.000Z</time>
      </trkpt>
      <trkpt lat="42.8491" lon="0.51867">
        <ele>1312</ele>
        <time>2020-02-01T08:59:30.000Z</time>
      </trkpt>
      <trkpt lat="42.8491" lon="0.51866">
        <ele>1312.3</ele>
        <time>2020-02-01T08:59:31.000Z</time>
      </trkpt>
      <trkpt lat="42.8491" lon="0.51865">
        <ele>1312.7</ele>
        <time>2020-02-01T08:59:32.000Z</time>
      </trkpt>
      <trkpt lat="42.8491" lon="0.51864">
        <ele>1313</ele>
        <time>2020-02-01T08:59:33.000Z</time>
      </trkpt>
      <trkpt lat="42.8491" lon="0.51863">
        <ele>1313</ele>
        <time>2020-02-01T08:59:34.000Z</time>
      </trkpt>
      <trkpt lat="42.8491" lon="0.51861">
        <ele>1313</ele>
        <time>2020-02-01T08:59:35.000Z</time>
      </trkpt>
      <trkpt lat="42.8491" lon="0.5186">
        <ele>1313</ele>
        <time>2020-02-01T08:59:36.000Z</time>
      </trkpt>
      <trkpt lat="42.8491" lon="0.51859">
        <ele>1313</ele>
        <time>2020-02-01T08:59:37.000Z</time>
      </trkpt>
      <trkpt lat="42.8491" lon="0.51858">
        <ele>1313</ele>
        <time>2020-02-01T08:59:38.000Z</time>
      </trkpt>
      <trkpt lat="42.8491" lon="0.51857">
        <ele>1313.3</ele>
        <time>2020-02-01T08:59:39.000Z</time>
      </trkpt>
      <trkpt lat="42.8491" lon="0.51856">
        <ele>1313.7</ele>
        <time>2020-02-01T08:59:40.000Z</time>
      </trkpt>
      <trkpt lat="42.84909" lon="0.51855">
        <ele>1314</ele>
        <time>2020-02-01T08:59:41.000Z</time>
      </trkpt>
      <trkpt lat="42.84909" lon="0.51854">
        <ele>1314</ele>
        <time>2020-02-01T08:59:42.000Z</time>
      </trkpt>
      <trkpt lat="42.84909" lon="0.51854">
        <ele>1314.3</ele>
        <time>2020-02-01T08:59:43.000Z</time>
      </trkpt>
      <trkpt lat="42.84909" lon="0.51853">
        <ele>1314.7</ele>
        <time>2020-02-01T08:59:44.000Z</time>
      </trkpt>
      <trkpt lat="42.84909" lon="0.51852">
        <ele>1315</ele>
        <time>2020-02-01T08:59:45.000Z</time>
      </trkpt>
      <trkpt lat="42.84909" lon="0.51851">
        <ele>1315</ele>
        <time>2020-02-01T08:59:46.000Z</time>
      </trkpt>
      <trkpt lat="42.84909" lon="0.5185">
        <ele>1315</ele>
        <time>2020-02-01T08:59:47.000Z</time>
      </trkpt>
      <trkpt lat="42.84909" lon="0.5185">
        <ele>1315</ele>
        <time>2020-02-01T08:59:48.000Z</time>
      </trkpt>
      <trkpt lat="42.8491" lon="0.51849">
        <ele>1315</ele>
        <time>2020-02-01T08:59:49.000Z</time>
      </trkpt>
      <trkpt lat="42.8491" lon="0.51848">
        <ele>1316</ele>
        <time>2020-02-01T08:59:50.000Z</time>
      </trkpt>
      <trkpt lat="42.8491" lon="0.51847">
        <ele>1316</ele>
        <time>2020-02-01T08:59:51.000Z</time>
      </trkpt>
      <trkpt lat="42.84911" lon="0.51847">
        <ele>1316</ele>
        <time>2020-02-01T08:59:52.000Z</time>
      </trkpt>
      <trkpt lat="42.84911" lon="0.51846">
        <ele>1316</ele>
        <time>2020-02-01T08:59:53.000Z</time>
      </trkpt>
      <trkpt lat="42.84912" lon="0.51845">
        <ele>1316</ele>
        <time>2020-02-01T08:59:54.000Z</time>
      </trkpt>
      <trkpt lat="42.84912" lon="0.51845">
        <ele>1316</ele>
        <time>2020-02-01T08:59:55.000Z</time>
      </trkpt>
      <trkpt lat="42.84913" lon="0.51844">
        <ele>1316</ele>
        <time>2020-02-01T08:59:56.000Z</time>
      </trkpt>
      <trkpt lat="42.84914" lon="0.51844">
        <ele>1316</ele>
        <time>2020-02-01T08:59:57.000Z</time>
      </trkpt>
      <trkpt lat="42.84914" lon="0.51843">
        <ele>1317</ele>
        <time>2020-02-01T08:59:58.000Z</time>
      </trkpt>
      <trkpt lat="42.84915" lon="0.51842">
        <ele>1317</ele>
        <time>2020-02-01T08:59:59.000Z</time>
      </trkpt>
      <trkpt lat="42.84916" lon="0.51841">
        <ele>1317</ele>
        <time>2020-02-01T09:00:00.000Z</time>
      </trkpt>
      <trkpt lat="42.84917" lon="0.51841">
        <ele>1317</ele>
        <time>2020-02-01T09:00:01.000Z</time>
      </trkpt>
      <trkpt lat="42.84917" lon="0.5184">
        <ele>1317</ele>
        <time>2020-02-01T09:00:02.000Z</time>
      </trkpt>
      <trkpt lat="42.84918" lon="0.51839">
        <ele>1317</ele>
        <time>2020-02-01T09:00:03.000Z</time>
      </trkpt>
      <trkpt lat="42.84918" lon="0.51838">
        <ele>1317</ele>
        <time>2020-02-01T09:00:04.000Z</time>
      </trkpt>
      <trkpt lat="42.84919" lon="0.51837">
        <ele>1317.3</ele>
        <time>2020-02-01T09:00:05.000Z</time>
      </trkpt>
      <trkpt lat="42.84919" lon="0.51836">
        <ele>1317.7</ele>
        <time>2020-02-01T09:00:06.000Z</time>
      </trkpt>
      <trkpt lat="42.84919" lon="0.51835">
        <ele>1318</ele>
        <time>2020-02-01T09:00:07.000Z</time>
      </trkpt>
      <trkpt lat="42.84919" lon="0.51834">
        <ele>1318</ele>
        <time>2020-02-01T09:00:08.000Z</time>
      </trkpt>
      <trkpt lat="42.84919" lon="0.51833">
        <ele>1318</ele>
        <time>2020-02-01T09:00:09.000Z</time>
      </trkpt>
      <trkpt lat="42.84919" lon="0.51833">
        <ele>1318</ele>
        <time>2020-02-01T09:00:10.000Z</time>
      </trkpt>
      <trkpt lat="42.84919" lon="0.51832">
        <ele>1318</ele>
        <time>2020-02-01T09:00:11.000Z</time>
      </trkpt>
      <trkpt lat="42.84918" lon="0.51832">
        <ele>1318</ele>
        <time>2020-02-01T09:00:12.000Z</time>
      </trkpt>
      <trkpt lat="42.84918" lon="0.51831">
        <ele>1318</ele>
        <time>2020-02-01T09:00:13.000Z</time>
      </trkpt>
      <trkpt lat="42.84918" lon="0.51831">
        <ele>1318</ele>
        <time>2020-02-01T09:00:14.000Z</time>
      </trkpt>
      <trkpt lat="42.84918" lon="0.5183">
        <ele>1318.3</ele>
        <time>2020-02-01T09:00:15.000Z</time>
      </trkpt>
      <trkpt lat="42.84918" lon="0.5183">
        <ele>1318.7</ele>
        <time>2020-02-01T09:00:16.000Z</time>
      </trkpt>
      <trkpt lat="42.84919" lon="0.51828">
        <ele>1319</ele>
        <time>2020-02-01T09:00:17.000Z</time>
      </trkpt>
      <trkpt lat="42.84919" lon="0.51827">
        <ele>1319</ele>
        <time>2020-02-01T09:00:18.000Z</time>
      </trkpt>
      <trkpt lat="42.8492" lon="0.51826">
        <ele>1319</ele>
        <time>2020-02-01T09:00:19.000Z</time>
      </trkpt>
      <trkpt lat="42.84921" lon="0.51825">
        <ele>1319</ele>
        <time>2020-02-01T09:00:20.000Z</time>
      </trkpt>
      <trkpt lat="42.84921" lon="0.51824">
        <ele>1319</ele>
        <time>2020-02-01T09:00:21.000Z</time>
      </trkpt>
      <trkpt lat="42.84922" lon="0.51823">
        <ele>1319</ele>
        <time>2020-02-01T09:00:22.000Z</time>
      </trkpt>
      <trkpt lat="42.84923" lon="0.51823">
        <ele>1319.3</ele>
        <time>2020-02-01T09:00:23.000Z</time>
      </trkpt>
      <trkpt lat="42.84923" lon="0.51822">
        <ele>1319.7</ele>
        <time>2020-02-01T09:00:24.000Z</time>
      </trkpt>
      <trkpt lat="42.84924" lon="0.51821">
        <ele>1320</ele>
        <time>2020-02-01T09:00:25.000Z</time>
      </trkpt>
      <trkpt lat="42.84924" lon="0.5182">
        <ele>1320</ele>
        <time>2020-02-01T09:00:26.000Z</time>
      </trkpt>
      <trkpt lat="42.84924" lon="0.51819">
        <ele>1320</ele>
        <time>2020-02-01T09:00:27.000Z</time>
      </trkpt>
      <trkpt lat="42.84924" lon="0.51818">
        <ele>1320</ele>
        <time>2020-02-01T09:00:28.000Z</time>
      </trkpt>
      <trkpt lat="42.84925" lon="0.51817">
        <ele>1320</ele>
        <time>2020-02-01T09:00:29.000Z</time>
      </trkpt>
      <trkpt lat="42.84925" lon="0.51816">
        <ele>1321</ele>
        <time>2020-02-01T09:00:30.000Z</time>
      </trkpt>
      <trkpt lat="42.84925" lon="0.51815">
        <ele>1321</ele>
        <time>2020-02-01T09:00:31.000Z</time>
      </trkpt>
      <trkpt lat="42.84925" lon="0.51814">
        <ele>1321</ele>
        <time>2020-02-01T09:00:32.000Z</time>
      </trkpt>
      <trkpt lat="42.84925" lon="0.51813">
        <ele>1321</ele>
        <time>2020-02-01T09:00:33.000Z</time>
      </trkpt>
      <trkpt lat="42.84925" lon="0.51812">
        <ele>1321</ele>
        <time>2020-02-01T09:00:34.000Z</time>
      </trkpt>
      <trkpt lat="42.84925" lon="0.51811">
        <ele>1321</ele>
        <time>2020-02-01T09:00:35.000Z</time>
      </trkpt>
      <trkpt lat="42.84925" lon="0.5181">
        <ele>1321</ele>
        <time>2020-02-01T09:00:36.000Z</time>
      </trkpt>
      <trkpt lat="42.84925" lon="0.51809">
        <ele>1321</ele>
        <time>2020-02-01T09:00:37.000Z</time>
      </trkpt>
      <trkpt lat="42.84925" lon="0.51807">
        <ele>1322</ele>
        <time>2020-02-01T09:00:38.000Z</time>
      </trkpt>
      <trkpt lat="42.84925" lon="0.51806">
        <ele>1322</ele>
        <time>2020-02-01T09:00:39.000Z</time>
      </trkpt>
      <trkpt lat="42.84925" lon="0.51805">
        <ele>1322</ele>
        <time>2020-02-01T09:00:40.000Z</time>
      </trkpt>
      <trkpt lat="42.84925" lon="0.51804">
        <ele>1322</ele>
        <time>2020-02-01T09:00:41.000Z</time>
      </trkpt>
      <trkpt lat="42.84925" lon="0.51803">
        <ele>1323</ele>
        <time>2020-02-01T09:00:42.000Z</time>
      </trkpt>
      <trkpt lat="42.84925" lon="0.51801">
        <ele>1323</ele>
        <time>2020-02-01T09:00:43.000Z</time>
      </trkpt>
      <trkpt lat="42.84926" lon="0.518">
        <ele>1323</ele>
        <time>2020-02-01T09:00:44.000Z</time>
      </trkpt>
      <trkpt lat="42.84926" lon="0.51799">
        <ele>1323</ele>
        <time>2020-02-01T09:00:45.000Z</time>
      </trkpt>
      <trkpt lat="42.84926" lon="0.51798">
        <ele>1323</ele>
        <time>2020-02-01T09:00:46.000Z</time>
      </trkpt>
      <trkpt lat="42.84926" lon="0.51797">
        <ele>1323.5</ele>
        <time>2020-02-01T09:00:47.000Z</time>
      </trkpt>
      <trkpt lat="42.84927" lon="0.51796">
        <ele>1324</ele>
        <time>2020-02-01T09:00:48.000Z</time>
      </trkpt>
      <trkpt lat="42.84927" lon="0.51796">
        <ele>1324</ele>
        <time>2020-02-01T09:00:49.000Z</time>
      </trkpt>
      <trkpt lat="42.84927" lon="0.51795">
        <ele>1324</ele>
        <time>2020-02-01T09:00:50.000Z</time>
      </trkpt>
      <trkpt lat="42.84928" lon="0.51794">
        <ele>1324</ele>
        <time>2020-02-01T09:00:51.000Z</time>
      </trkpt>
      <trkpt lat="42.84929" lon="0.51793">
        <ele>1324</ele>
        <time>2020-02-01T09:00:52.000Z</time>
      </trkpt>
      <trkpt lat="42.84929" lon="0.51792">
        <ele>1324.3</ele>
        <time>2020-02-01T09:00:53.000Z</time>
      </trkpt>
      <trkpt lat="42.8493" lon="0.5179">
        <ele>1324.7</ele>
        <time>2020-02-01T09:00:54.000Z</time>
      </trkpt>
      <trkpt lat="42.84931" lon="0.51789">
        <ele>1325</ele>
        <time>2020-02-01T09:00:55.000Z</time>
      </trkpt>
      <trkpt lat="42.84932" lon="0.51788">
        <ele>1325</ele>
        <time>2020-02-01T09:00:56.000Z</time>
      </trkpt>
      <trkpt lat="42.84932" lon="0.51788">
        <ele>1325</ele>
        <time>2020-02-01T09:00:57.000Z</time>
      </trkpt>
      <trkpt lat="42.84932" lon="0.51787">
        <ele>1325</ele>
        <time>2020-02-01T09:00:58.000Z</time>
      </trkpt>
      <trkpt lat="42.84932" lon="0.51787">
        <ele>1325</ele>
        <time>2020-02-01T09:00:59.000Z</time>
      </trkpt>
      <trkpt lat="42.84933" lon="0.51786">
        <ele>1325</ele>
        <time>2020-02-01T09:01:00.000Z</time>
      </trkpt>
      <trkpt lat="42.84933" lon="0.51786">
        <ele>1325</ele>
        <time>2020-02-01T09:01:01.000Z</time>
      </trkpt>
      <trkpt lat="42.84933" lon="0.51785">
        <ele>1325</ele>
        <time>2020-02-01T09:01:02.000Z</time>
      </trkpt>
      <trkpt lat="42.84933" lon="0.51785">
        <ele>1325.5</ele>
        <time>2020-02-01T09:01:03.000Z</time>
      </trkpt>
      <trkpt lat="42.84933" lon="0.51784">
        <ele>1326</ele>
        <time>2020-02-01T09:01:04.000Z</time>
      </trkpt>
      <trkpt lat="42.84933" lon="0.51784">
        <ele>1326</ele>
        <time>2020-02-01T09:01:05.000Z</time>
      </trkpt>
      <trkpt lat="42.84933" lon="0.51783">
        <ele>1326</ele>
        <time>2020-02-01T09:01:06.000Z</time>
      </trkpt>
      <trkpt lat="42.84933" lon="0.51782">
        <ele>1326</ele>
        <time>2020-02-01T09:01:07.000Z</time>
      </trkpt>
      <trkpt lat="42.84933" lon="0.5178">
        <ele>1326</ele>
        <time>2020-02-01T09:01:08.000Z</time>
      </trkpt>
      <trkpt lat="42.84932" lon="0.51779">
        <ele>1326.3</ele>
        <time>2020-02-01T09:01:09.000Z</time>
      </trkpt>
      <trkpt lat="42.84932" lon="0.51778">
        <ele>1326.7</ele>
        <time>2020-02-01T09:01:10.000Z</time>
      </trkpt>
      <trkpt lat="42.84932" lon="0.51777">
        <ele>1327</ele>
        <time>2020-02-01T09:01:11.000Z</time>
      </trkpt>
      <trkpt lat="42.84931" lon="0.51776">
        <ele>1327</ele>
        <time>2020-02-01T09:01:12.000Z</time>
      </trkpt>
      <trkpt lat="42.84931" lon="0.51775">
        <ele>1327</ele>
        <time>2020-02-01T09:01:13.000Z</time>
      </trkpt>
      <trkpt lat="42.84931" lon="0.51774">
        <ele>1327</ele>
        <time>2020-02-01T09:01:14.000Z</time>
      </trkpt>
      <trkpt lat="42.84931" lon="0.51774">
        <ele>1327</ele>
        <time>2020-02-01T09:01:15.000Z</time>
      </trkpt>
      <trkpt lat="42.8493" lon="0.51774">
        <ele>1327</ele>
        <time>2020-02-01T09:01:16.000Z</time>
      </trkpt>
      <trkpt lat="42.8493" lon="0.51773">
        <ele>1327</ele>
        <time>2020-02-01T09:01:17.000Z</time>
      </trkpt>
      <trkpt lat="42.8493" lon="0.51773">
        <ele>1327</ele>
        <time>2020-02-01T09:01:18.000Z</time>
      </trkpt>
      <trkpt lat="42.8493" lon="0.51773">
        <ele>1327</ele>
        <time>2020-02-01T09:01:19.000Z</time>
      </trkpt>
      <trkpt lat="42.84929" lon="0.51773">
        <ele>1327</ele>
        <time>2020-02-01T09:01:20.000Z</time>
      </trkpt>
      <trkpt lat="42.84929" lon="0.51773">
        <ele>1327</ele>
        <time>2020-02-01T09:01:21.000Z</time>
      </trkpt>
      <trkpt lat="42.84929" lon="0.51773">
        <ele>1327</ele>
        <time>2020-02-01T09:01:22.000Z</time>
      </trkpt>
      <trkpt lat="42.84929" lon="0.51773">
        <ele>1327</ele>
        <time>2020-02-01T09:01:23.000Z</time>
      </trkpt>
      <trkpt lat="42.84928" lon="0.51773">
        <ele>1327</ele>
        <time>2020-02-01T09:01:24.000Z</time>
      </trkpt>
      <trkpt lat="42.84928" lon="0.51773">
        <ele>1327</ele>
        <time>2020-02-01T09:01:25.000Z</time>
      </trkpt>
      <trkpt lat="42.84928" lon="0.51773">
        <ele>1327</ele>
        <time>2020-02-01T09:01:26.000Z</time>
      </trkpt>
      <trkpt lat="42.84928" lon="0.51773">
        <ele>1327</ele>
        <time>2020-02-01T09:01:27.000Z</time>
      </trkpt>
      <trkpt lat="42.84927" lon="0.51773">
        <ele>1327</ele>
        <time>2020-02-01T09:01:28.000Z</time>
      </trkpt>
      <trkpt lat="42.84927" lon="0.51772">
        <ele>1327</ele>
        <time>2020-02-01T09:01:29.000Z</time>
      </trkpt>
      <trkpt lat="42.84927" lon="0.51772">
        <ele>1327</ele>
        <time>2020-02-01T09:01:30.000Z</time>
      </trkpt>
      <trkpt lat="42.84927" lon="0.51771">
        <ele>1327</ele>
        <time>2020-02-01T09:01:31.000Z</time>
      </trkpt>
      <trkpt lat="42.84926" lon="0.51771">
        <ele>1327</ele>
        <time>2020-02-01T09:01:32.000Z</time>
      </trkpt>
      <trkpt lat="42.84926" lon="0.51771">
        <ele>1327</ele>
        <time>2020-02-01T09:01:33.000Z</time>
      </trkpt>
      <trkpt lat="42.84926" lon="0.51771">
        <ele>1327</ele>
        <time>2020-02-01T09:01:34.000Z</time>
      </trkpt>
      <trkpt lat="42.84926" lon="0.51771">
        <ele>1327</ele>
        <time>2020-02-01T09:01:35.000Z</time>
      </trkpt>
      <trkpt lat="42.84926" lon="0.51771">
        <ele>1327</ele>
        <time>2020-02-01T09:01:36.000Z</time>
      </trkpt>
      <trkpt lat="42.84926" lon="0.51771">
        <ele>1327</ele>
        <time>2020-02-01T09:01:37.000Z</time>
      </trkpt>
      <trkpt lat="42.84926" lon="0.51772">
        <ele>1327</ele>
        <time>2020-02-01T09:01:38.000Z</time>
      </trkpt>
      <trkpt lat="42.84927" lon="0.51772">
        <ele>1327</ele>
        <time>2020-02-01T09:01:39.000Z</time>
      </trkpt>
      <trkpt lat="42.84927" lon="0.51773">
        <ele>1327</ele>
        <time>2020-02-01T09:01:40.000Z</time>
      </trkpt>
      <trkpt lat="42.84927" lon="0.51773">
        <ele>1326.7</ele>
        <time>2020-02-01T09:01:41.000Z</time>
      </trkpt>
      <trkpt lat="42.84928" lon="0.51773">
        <ele>1326.3</ele>
        <time>2020-02-01T09:01:42.000Z</time>
      </trkpt>
      <trkpt lat="42.84928" lon="0.51773">
        <ele>1326</ele>
        <time>2020-02-01T09:01:43.000Z</time>
      </trkpt>
      <trkpt lat="42.84928" lon="0.51773">
        <ele>1326</ele>
        <time>2020-02-01T09:01:44.000Z</time>
      </trkpt>
      <trkpt lat="42.84928" lon="0.51773">
        <ele>1326</ele>
        <time>2020-02-01T09:01:45.000Z</time>
      </trkpt>
      <trkpt lat="42.84929" lon="0.51773">
        <ele>1326</ele>
        <time>2020-02-01T09:01:46.000Z</time>
      </trkpt>
      <trkpt lat="42.8493" lon="0.51773">
        <ele>1326</ele>
        <time>2020-02-01T09:01:47.000Z</time>
      </trkpt>
      <trkpt lat="42.8493" lon="0.51773">
        <ele>1326</ele>
        <time>2020-02-01T09:01:48.000Z</time>
      </trkpt>
      <trkpt lat="42.84931" lon="0.51772">
        <ele>1326</ele>
        <time>2020-02-01T09:01:49.000Z</time>
      </trkpt>
      <trkpt lat="42.84931" lon="0.51772">
        <ele>1326</ele>
        <time>2020-02-01T09:01:50.000Z</time>
      </trkpt>
      <trkpt lat="42.84932" lon="0.51771">
        <ele>1326</ele>
        <time>2020-02-01T09:01:51.000Z</time>
      </trkpt>
      <trkpt lat="42.84932" lon="0.51771">
        <ele>1326</ele>
        <time>2020-02-01T09:01:52.000Z</time>
      </trkpt>
      <trkpt lat="42.84932" lon="0.51771">
        <ele>1326</ele>
        <time>2020-02-01T09:01:53.000Z</time>
      </trkpt>
      <trkpt lat="42.84932" lon="0.51771">
        <ele>1326</ele>
        <time>2020-02-01T09:01:54.000Z</time>
      </trkpt>
      <trkpt lat="42.84932" lon="0.51771">
        <ele>1326</ele>
        <time>2020-02-01T09:01:55.000Z</time>
      </trkpt>
      <trkpt lat="42.84932" lon="0.51771">
        <ele>1326</ele>
        <time>2020-02-01T09:01:56.000Z</time>
      </trkpt>
      <trkpt lat="42.84932" lon="0.51771">
        <ele>1326</ele>
        <time>2020-02-01T09:01:57.000Z</time>
      </trkpt>
      <trkpt lat="42.84932" lon="0.51771">
        <ele>1326</ele>
        <time>2020-02-01T09:01:58.000Z</time>
      </trkpt>
      <trkpt lat="42.84932" lon="0.51771">
        <ele>1326</ele>
        <time>2020-02-01T09:01:59.000Z</time>
      </trkpt>
      <trkpt lat="42.84933" lon="0.51771">
        <ele>1326</ele>
        <time>2020-02-01T09:02:00.000Z</time>
      </trkpt>
      <trkpt lat="42.84933" lon="0.51772">
        <ele>1326</ele>
        <time>2020-02-01T09:02:01.000Z</time>
      </trkpt>
      <trkpt lat="42.84933" lon="0.51772">
        <ele>1326</ele>
        <time>2020-02-01T09:02:02.000Z</time>
      </trkpt>
      <trkpt lat="42.84933" lon="0.51772">
        <ele>1326</ele>
        <time>2020-02-01T09:02:03.000Z</time>
      </trkpt>
      <trkpt lat="42.84933" lon="0.51773">
        <ele>1326</ele>
        <time>2020-02-01T09:02:04.000Z</time>
      </trkpt>
      <trkpt lat="42.84933" lon="0.51773">
        <ele>1326</ele>
        <time>2020-02-01T09:02:05.000Z</time>
      </trkpt>
      <trkpt lat="42.84933" lon="0.51773">
        <ele>1326</ele>
        <time>2020-02-01T09:02:06.000Z</time>
      </trkpt>
      <trkpt lat="42.84933" lon="0.51774">
        <ele>1326</ele>
        <time>2020-02-01T09:02:07.000Z</time>
      </trkpt>
      <trkpt lat="42.84933" lon="0.51774">
        <ele>1326</ele>
        <time>2020-02-01T09:02:08.000Z</time>
      </trkpt>
      <trkpt lat="42.84933" lon="0.51774">
        <ele>1326</ele>
        <time>2020-02-01T09:02:09.000Z</time>
      </trkpt>
      <trkpt lat="42.84933" lon="0.51774">
        <ele>1326</ele>
        <time>2020-02-01T09:02:10.000Z</time>
      </trkpt>
      <trkpt lat="42.84933" lon="0.51774">
        <ele>1326</ele>
        <time>2020-02-01T09:02:11.000Z</time>
      </trkpt>
      <trkpt lat="42.84933" lon="0.51774">
        <ele>1326</ele>
        <time>2020-02-01T09:02:12.000Z</time>
      </trkpt>
      <trkpt lat="42.84932" lon="0.51774">
        <ele>1326</ele>
        <time>2020-02-01T09:02:13.000Z</time>
      </trkpt>
      <trkpt lat="42.84932" lon="0.51775">
        <ele>1326</ele>
        <time>2020-02-01T09:02:14.000Z</time>
      </trkpt>
      <trkpt lat="42.84932" lon="0.51775">
        <ele>1325.7</ele>
        <time>2020-02-01T09:02:15.000Z</time>
      </trkpt>
      <trkpt lat="42.84932" lon="0.51775">
        <ele>1325.3</ele>
        <time>2020-02-01T09:02:16.000Z</time>
      </trkpt>
      <trkpt lat="42.84931" lon="0.51776">
        <ele>1325</ele>
        <time>2020-02-01T09:02:17.000Z</time>
      </trkpt>
      <trkpt lat="42.84931" lon="0.51776">
        <ele>1326</ele>
        <time>2020-02-01T09:02:18.000Z</time>
      </trkpt>
      <trkpt lat="42.84931" lon="0.51777">
        <ele>1326</ele>
        <time>2020-02-01T09:02:19.000Z</time>
      </trkpt>
      <trkpt lat="42.84931" lon="0.51777">
        <ele>1326</ele>
        <time>2020-02-01T09:02:20.000Z</time>
      </trkpt>
      <trkpt lat="42.84931" lon="0.51777">
        <ele>1326</ele>
        <time>2020-02-01T09:02:21.000Z</time>
      </trkpt>
      <trkpt lat="42.84931" lon="0.51777">
        <ele>1325</ele>
        <time>2020-02-01T09:02:22.000Z</time>
      </trkpt>
      <trkpt lat="42.84931" lon="0.51777">
        <ele>1325</ele>
        <time>2020-02-01T09:02:23.000Z</time>
      </trkpt>
      <trkpt lat="42.84931" lon="0.51777">
        <ele>1325</ele>
        <time>2020-02-01T09:02:24.000Z</time>
      </trkpt>
      <trkpt lat="42.84931" lon="0.51777">
        <ele>1325</ele>
        <time>2020-02-01T09:02:25.000Z</time>
      </trkpt>
      <trkpt lat="42.84931" lon="0.51777">
        <ele>1325</ele>
        <time>2020-02-01T09:02:26.000Z</time>
      </trkpt>
      <trkpt lat="42.84931" lon="0.51778">
        <ele>1325</ele>
        <time>2020-02-01T09:02:27.000Z</time>
      </trkpt>
      <trkpt lat="42.84931" lon="0.51778">
        <ele>1325</ele>
        <time>2020-02-01T09:02:28.000Z</time>
      </trkpt>
      <trkpt lat="42.84931" lon="0.51778">
        <ele>1325</ele>
        <time>2020-02-01T09:02:29.000Z</time>
      </trkpt>
      <trkpt lat="42.84931" lon="0.51779">
        <ele>1325</ele>
        <time>2020-02-01T09:02:30.000Z</time>
      </trkpt>
      <trkpt lat="42.84931" lon="0.51779">
        <ele>1325</ele>
        <time>2020-02-01T09:02:31.000Z</time>
      </trkpt>
      <trkpt lat="42.84931" lon="0.51779">
        <ele>1325</ele>
        <time>2020-02-01T09:02:32.000Z</time>
      </trkpt>
      <trkpt lat="42.8493" lon="0.51779">
        <ele>1325</ele>
        <time>2020-02-01T09:02:33.000Z</time>
      </trkpt>
      <trkpt lat="42.8493" lon="0.51779">
        <ele>1325</ele>
        <time>2020-02-01T09:02:34.000Z</time>
      </trkpt>
      <trkpt lat="42.8493" lon="0.51779">
        <ele>1325</ele>
        <time>2020-02-01T09:02:35.000Z</time>
      </trkpt>
      <trkpt lat="42.8493" lon="0.51779">
        <ele>1325</ele>
        <time>2020-02-01T09:02:36.000Z</time>
      </trkpt>
      <trkpt lat="42.8493" lon="0.51778">
        <ele>1325.3</ele>
        <time>2020-02-01T09:02:37.000Z</time>
      </trkpt>
      <trkpt lat="42.8493" lon="0.51778">
        <ele>1325.7</ele>
        <time>2020-02-01T09:02:38.000Z</time>
      </trkpt>
      <trkpt lat="42.84929" lon="0.51777">
        <ele>1326</ele>
        <time>2020-02-01T09:02:39.000Z</time>
      </trkpt>
      <trkpt lat="42.84929" lon="0.51777">
        <ele>1326</ele>
        <time>2020-02-01T09:02:40.000Z</time>
      </trkpt>
      <trkpt lat="42.84929" lon="0.51776">
        <ele>1326</ele>
        <time>2020-02-01T09:02:41.000Z</time>
      </trkpt>
      <trkpt lat="42.84929" lon="0.51776">
        <ele>1326</ele>
        <time>2020-02-01T09:02:42.000Z</time>
      </trkpt>
      <trkpt lat="42.84928" lon="0.51775">
        <ele>1326</ele>
        <time>2020-02-01T09:02:43.000Z</time>
      </trkpt>
      <trkpt lat="42.84928" lon="0.51775">
        <ele>1326</ele>
        <time>2020-02-01T09:02:44.000Z</time>
      </trkpt>
      <trkpt lat="42.84928" lon="0.51774">
        <ele>1326</ele>
        <time>2020-02-01T09:02:45.000Z</time>
      </trkpt>
      <trkpt lat="42.84928" lon="0.51774">
        <ele>1326</ele>
        <time>2020-02-01T09:02:46.000Z</time>
      </trkpt>
      <trkpt lat="42.84927" lon="0.51773">
        <ele>1326</ele>
        <time>2020-02-01T09:02:47.000Z</time>
      </trkpt>
      <trkpt lat="42.84928" lon="0.51772">
        <ele>1326</ele>
        <time>2020-02-01T09:02:48.000Z</time>
      </trkpt>
      <trkpt lat="42.84928" lon="0.51772">
        <ele>1326</ele>
        <time>2020-02-01T09:02:49.000Z</time>
      </trkpt>
      <trkpt lat="42.84928" lon="0.51771">
        <ele>1326</ele>
        <time>2020-02-01T09:02:50.000Z</time>
      </trkpt>
      <trkpt lat="42.84929" lon="0.5177">
        <ele>1326</ele>
        <time>2020-02-01T09:02:51.000Z</time>
      </trkpt>
      <trkpt lat="42.84929" lon="0.51769">
        <ele>1326</ele>
        <time>2020-02-01T09:02:52.000Z</time>
      </trkpt>
      <trkpt lat="42.8493" lon="0.51768">
        <ele>1326</ele>
        <time>2020-02-01T09:02:53.000Z</time>
      </trkpt>
      <trkpt lat="42.8493" lon="0.51768">
        <ele>1326</ele>
        <time>2020-02-01T09:02:54.000Z</time>
      </trkpt>
      <trkpt lat="42.84931" lon="0.51767">
        <ele>1326</ele>
        <time>2020-02-01T09:02:55.000Z</time>
      </trkpt>
      <trkpt lat="42.84931" lon="0.51767">
        <ele>1326</ele>
        <time>2020-02-01T09:02:56.000Z</time>
      </trkpt>
      <trkpt lat="42.84932" lon="0.51767">
        <ele>1326</ele>
        <time>2020-02-01T09:02:57.000Z</time>
      </trkpt>
      <trkpt lat="42.84932" lon="0.51766">
        <ele>1326</ele>
        <time>2020-02-01T09:02:58.000Z</time>
      </trkpt>
      <trkpt lat="42.84933" lon="0.51766">
        <ele>1326</ele>
        <time>2020-02-01T09:02:59.000Z</time>
      </trkpt>
      <trkpt lat="42.84933" lon="0.51766">
        <ele>1326</ele>
        <time>2020-02-01T09:03:00.000Z</time>
      </trkpt>
      <trkpt lat="42.84934" lon="0.51766">
        <ele>1326</ele>
        <time>2020-02-01T09:03:01.000Z</time>
      </trkpt>
      <trkpt lat="42.84934" lon="0.51766">
        <ele>1327</ele>
        <time>2020-02-01T09:03:02.000Z</time>
      </trkpt>
      <trkpt lat="42.84935" lon="0.51765">
        <ele>1327</ele>
        <time>2020-02-01T09:03:03.000Z</time>
      </trkpt>
      <trkpt lat="42.84935" lon="0.51765">
        <ele>1327</ele>
        <time>2020-02-01T09:03:04.000Z</time>
      </trkpt>
      <trkpt lat="42.84936" lon="0.51764">
        <ele>1327</ele>
        <time>2020-02-01T09:03:05.000Z</time>
      </trkpt>
      <trkpt lat="42.84936" lon="0.51764">
        <ele>1327</ele>
        <time>2020-02-01T09:03:06.000Z</time>
      </trkpt>
      <trkpt lat="42.84936" lon="0.51763">
        <ele>1327</ele>
        <time>2020-02-01T09:03:07.000Z</time>
      </trkpt>
      <trkpt lat="42.84936" lon="0.51762">
        <ele>1328</ele>
        <time>2020-02-01T09:03:08.000Z</time>
      </trkpt>
      <trkpt lat="42.84936" lon="0.51761">
        <ele>1328</ele>
        <time>2020-02-01T09:03:09.000Z</time>
      </trkpt>
      <trkpt lat="42.84936" lon="0.5176">
        <ele>1328</ele>
        <time>2020-02-01T09:03:10.000Z</time>
      </trkpt>
      <trkpt lat="42.84936" lon="0.51758">
        <ele>1328</ele>
        <time>2020-02-01T09:03:11.000Z</time>
      </trkpt>
      <trkpt lat="42.84936" lon="0.51757">
        <ele>1328</ele>
        <time>2020-02-01T09:03:12.000Z</time>
      </trkpt>
      <trkpt lat="42.84936" lon="0.51756">
        <ele>1328.3</ele>
        <time>2020-02-01T09:03:13.000Z</time>
      </trkpt>
      <trkpt lat="42.84936" lon="0.51756">
        <ele>1328.7</ele>
        <time>2020-02-01T09:03:14.000Z</time>
      </trkpt>
      <trkpt lat="42.84936" lon="0.51755">
        <ele>1329</ele>
        <time>2020-02-01T09:03:15.000Z</time>
      </trkpt>
      <trkpt lat="42.84936" lon="0.51755">
        <ele>1329</ele>
        <time>2020-02-01T09:03:16.000Z</time>
      </trkpt>
      <trkpt lat="42.84936" lon="0.51754">
        <ele>1329</ele>
        <time>2020-02-01T09:03:17.000Z</time>
      </trkpt>
      <trkpt lat="42.84936" lon="0.51754">
        <ele>1329</ele>
        <time>2020-02-01T09:03:18.000Z</time>
      </trkpt>
      <trkpt lat="42.84936" lon="0.51754">
        <ele>1329</ele>
        <time>2020-02-01T09:03:19.000Z</time>
      </trkpt>
      <trkpt lat="42.84935" lon="0.51754">
        <ele>1329</ele>
        <time>2020-02-01T09:03:20.000Z</time>
      </trkpt>
      <trkpt lat="42.84935" lon="0.51754">
        <ele>1329</ele>
        <time>2020-02-01T09:03:21.000Z</time>
      </trkpt>
      <trkpt lat="42.84935" lon="0.51753">
        <ele>1329</ele>
        <time>2020-02-01T09:03:22.000Z</time>
      </trkpt>
      <trkpt lat="42.84935" lon="0.51753">
        <ele>1329</ele>
        <time>2020-02-01T09:03:23.000Z</time>
      </trkpt>
      <trkpt lat="42.84935" lon="0.51752">
        <ele>1329</ele>
        <time>2020-02-01T09:03:24.000Z</time>
      </trkpt>
      <trkpt lat="42.84935" lon="0.51752">
        <ele>1329</ele>
        <time>2020-02-01T09:03:25.000Z</time>
      </trkpt>
      <trkpt lat="42.84935" lon="0.51751">
        <ele>1329</ele>
        <time>2020-02-01T09:03:26.000Z</time>
      </trkpt>
      <trkpt lat="42.84935" lon="0.51751">
        <ele>1329</ele>
        <time>2020-02-01T09:03:27.000Z</time>
      </trkpt>
      <trkpt lat="42.84935" lon="0.5175">
        <ele>1329</ele>
        <time>2020-02-01T09:03:28.000Z</time>
      </trkpt>
      <trkpt lat="42.84934" lon="0.51749">
        <ele>1329</ele>
        <time>2020-02-01T09:03:29.000Z</time>
      </trkpt>
      <trkpt lat="42.84934" lon="0.51749">
        <ele>1329</ele>
        <time>2020-02-01T09:03:30.000Z</time>
      </trkpt>
      <trkpt lat="42.84934" lon="0.51748">
        <ele>1329</ele>
        <time>2020-02-01T09:03:31.000Z</time>
      </trkpt>
      <trkpt lat="42.84934" lon="0.51748">
        <ele>1329</ele>
        <time>2020-02-01T09:03:32.000Z</time>
      </trkpt>
      <trkpt lat="42.84934" lon="0.51747">
        <ele>1330</ele>
        <time>2020-02-01T09:03:33.000Z</time>
      </trkpt>
      <trkpt lat="42.84934" lon="0.51746">
        <ele>1330</ele>
        <time>2020-02-01T09:03:34.000Z</time>
      </trkpt>
      <trkpt lat="42.84934" lon="0.51746">
        <ele>1330</ele>
        <time>2020-02-01T09:03:35.000Z</time>
      </trkpt>
      <trkpt lat="42.84934" lon="0.51746">
        <ele>1330</ele>
        <time>2020-02-01T09:03:36.000Z</time>
      </trkpt>
      <trkpt lat="42.84934" lon="0.51745">
        <ele>1330</ele>
        <time>2020-02-01T09:03:37.000Z</time>
      </trkpt>
      <trkpt lat="42.84935" lon="0.51745">
        <ele>1330</ele>
        <time>2020-02-01T09:03:38.000Z</time>
      </trkpt>
      <trkpt lat="42.84935" lon="0.51745">
        <ele>1330</ele>
        <time>2020-02-01T09:03:39.000Z</time>
      </trkpt>
      <trkpt lat="42.84935" lon="0.51744">
        <ele>1331</ele>
        <time>2020-02-01T09:03:40.000Z</time>
      </trkpt>
      <trkpt lat="42.84935" lon="0.51744">
        <ele>1331</ele>
        <time>2020-02-01T09:03:41.000Z</time>
      </trkpt>
      <trkpt lat="42.84935" lon="0.51744">
        <ele>1331</ele>
        <time>2020-02-01T09:03:42.000Z</time>
      </trkpt>
      <trkpt lat="42.84935" lon="0.51744">
        <ele>1331</ele>
        <time>2020-02-01T09:03:43.000Z</time>
      </trkpt>
      <trkpt lat="42.84935" lon="0.51744">
        <ele>1331</ele>
        <time>2020-02-01T09:03:44.000Z</time>
      </trkpt>
      <trkpt lat="42.84935" lon="0.51744">
        <ele>1331</ele>
        <time>2020-02-01T09:03:45.000Z</time>
      </trkpt>
      <trkpt lat="42.84935" lon="0.51743">
        <ele>1331</ele>
        <time>2020-02-01T09:03:46.000Z</time>
      </trkpt>
      <trkpt lat="42.84935" lon="0.51743">
        <ele>1331</ele>
        <time>2020-02-01T09:03:47.000Z</time>
      </trkpt>
      <trkpt lat="42.84935" lon="0.51743">
        <ele>1331</ele>
        <time>2020-02-01T09:03:48.000Z</time>
      </trkpt>
      <trkpt lat="42.84935" lon="0.51743">
        <ele>1331</ele>
        <time>2020-02-01T09:03:49.000Z</time>
      </trkpt>
      <trkpt lat="42.84935" lon="0.51743">
        <ele>1331</ele>
        <time>2020-02-01T09:03:50.000Z</time>
      </trkpt>
      <trkpt lat="42.84935" lon="0.51743">
        <ele>1331</ele>
        <time>2020-02-01T09:03:51.000Z</time>
      </trkpt>
      <trkpt lat="42.84935" lon="0.51743">
        <ele>1331</ele>
        <time>2020-02-01T09:03:52.000Z</time>
      </trkpt>
      <trkpt lat="42.84935" lon="0.51743">
        <ele>1331</ele>
        <time>2020-02-01T09:03:53.000Z</time>
      </trkpt>
      <trkpt lat="42.84935" lon="0.51743">
        <ele>1331</ele>
        <time>2020-02-01T09:03:54.000Z</time>
      </trkpt>
      <trkpt lat="42.84935" lon="0.51744">
        <ele>1331</ele>
        <time>2020-02-01T09:03:55.000Z</time>
      </trkpt>
      <trkpt lat="42.84935" lon="0.51744">
        <ele>1331</ele>
        <time>2020-02-01T09:03:56.000Z</time>
      </trkpt>
      <trkpt lat="42.84935" lon="0.51744">
        <ele>1331</ele>
        <time>2020-02-01T09:03:57.000Z</time>
      </trkpt>
      <trkpt lat="42.84935" lon="0.51744">
        <ele>1331</ele>
        <time>2020-02-01T09:03:58.000Z</time>
      </trkpt>
      <trkpt lat="42.84935" lon="0.51744">
        <ele>1331</ele>
        <time>2020-02-01T09:03:59.000Z</time>
      </trkpt>
      <trkpt lat="42.84935" lon="0.51744">
        <ele>1331</ele>
        <time>2020-02-01T09:04:00.000Z</time>
      </trkpt>
      <trkpt lat="42.84935" lon="0.51744">
        <ele>1331</ele>
        <time>2020-02-01T09:04:01.000Z</time>
      </trkpt>
      <trkpt lat="42.84935" lon="0.51744">
        <ele>1331</ele>
        <time>2020-02-01T09:04:02.000Z</time>
      </trkpt>
      <trkpt lat="42.84935" lon="0.51744">
        <ele>1331</ele>
        <time>2020-02-01T09:04:03.000Z</time>
      </trkpt>
      <trkpt lat="42.84935" lon="0.51744">
        <ele>1331</ele>
        <time>2020-02-01T09:04:04.000Z</time>
      </trkpt>
      <trkpt lat="42.84935" lon="0.51744">
        <ele>1331</ele>
        <time>2020-02-01T09:04:05.000Z</time>
      </trkpt>
      <trkpt lat="42.84935" lon="0.51744">
        <ele>1331</ele>
        <time>2020-02-01T09:04:06.000Z</time>
      </trkpt>
      <trkpt lat="42.84936" lon="0.51744">
        <ele>1331</ele>
        <time>2020-02-01T09:04:07.000Z</time>
      </trkpt>
      <trkpt lat="42.84936" lon="0.51744">
        <ele>1331</ele>
        <time>2020-02-01T09:04:08.000Z</time>
      </trkpt>
      <trkpt lat="42.84936" lon="0.51744">
        <ele>1331</ele>
        <time>2020-02-01T09:04:09.000Z</time>
      </trkpt>
      <trkpt lat="42.84936" lon="0.51744">
        <ele>1331</ele>
        <time>2020-02-01T09:04:10.000Z</time>
      </trkpt>
      <trkpt lat="42.84937" lon="0.51744">
        <ele>1331</ele>
        <time>2020-02-01T09:04:11.000Z</time>
      </trkpt>
      <trkpt lat="42.84937" lon="0.51745">
        <ele>1331</ele>
        <time>2020-02-01T09:04:12.000Z</time>
      </trkpt>
      <trkpt lat="42.84938" lon="0.51745">
        <ele>1331</ele>
        <time>2020-02-01T09:04:13.000Z</time>
      </trkpt>
      <trkpt lat="42.84938" lon="0.51745">
        <ele>1331</ele>
        <time>2020-02-01T09:04:14.000Z</time>
      </trkpt>
      <trkpt lat="42.84938" lon="0.51746">
        <ele>1331</ele>
        <time>2020-02-01T09:04:15.000Z</time>
      </trkpt>
      <trkpt lat="42.84939" lon="0.51746">
        <ele>1331</ele>
        <time>2020-02-01T09:04:16.000Z</time>
      </trkpt>
      <trkpt lat="42.84939" lon="0.51746">
        <ele>1330</ele>
        <time>2020-02-01T09:04:17.000Z</time>
      </trkpt>
      <trkpt lat="42.84939" lon="0.51746">
        <ele>1330</ele>
        <time>2020-02-01T09:04:18.000Z</time>
      </trkpt>
      <trkpt lat="42.84939" lon="0.51746">
        <ele>1330</ele>
        <time>2020-02-01T09:04:19.000Z</time>
      </trkpt>
      <trkpt lat="42.84939" lon="0.51746">
        <ele>1330</ele>
        <time>2020-02-01T09:04:20.000Z</time>
      </trkpt>
      <trkpt lat="42.84941" lon="0.51746">
        <ele>1330</ele>
        <time>2020-02-01T09:04:21.000Z</time>
      </trkpt>
      <trkpt lat="42.84945" lon="0.51746">
        <ele>1330</ele>
        <time>2020-02-01T09:04:26.000Z</time>
      </trkpt>
      <trkpt lat="42.84947" lon="0.51746">
        <ele>1330</ele>
        <time>2020-02-01T09:04:27.000Z</time>
      </trkpt>
      <trkpt lat="42.84948" lon="0.51746">
        <ele>1330</ele>
        <time>2020-02-01T09:04:28.000Z</time>
      </trkpt>
      <trkpt lat="42.84949" lon="0.51746">
        <ele>1330</ele>
        <time>2020-02-01T09:04:29.000Z</time>
      </trkpt>
      <trkpt lat="42.84949" lon="0.51746">
        <ele>1330</ele>
        <time>2020-02-01T09:04:30.000Z</time>
      </trkpt>
      <trkpt lat="42.84949" lon="0.51746">
        <ele>1330</ele>
        <time>2020-02-01T09:04:31.000Z</time>
      </trkpt>
      <trkpt lat="42.84949" lon="0.51746">
        <ele>1330</ele>
        <time>2020-02-01T09:04:32.000Z</time>
      </trkpt>
      <trkpt lat="42.84949" lon="0.51746">
        <ele>1330</ele>
        <time>2020-02-01T09:04:33.000Z</time>
      </trkpt>
      <trkpt lat="42.84949" lon="0.51746">
        <ele>1330</ele>
        <time>2020-02-01T09:04:34.000Z</time>
      </trkpt>
      <trkpt lat="42.84949" lon="0.51746">
        <ele>1330</ele>
        <time>2020-02-01T09:04:35.000Z</time>
      </trkpt>
      <trkpt lat="42.84949" lon="0.51746">
        <ele>1330</ele>
        <time>2020-02-01T09:04:36.000Z</time>
      </trkpt>
      <trkpt lat="42.84949" lon="0.51746">
        <ele>1330</ele>
        <time>2020-02-01T09:04:37.000Z</time>
      </trkpt>
      <trkpt lat="42.84949" lon="0.51746">
        <ele>1330</ele>
        <time>2020-02-01T09:04:38.000Z</time>
      </trkpt>
      <trkpt lat="42.84949" lon="0.51746">
        <ele>1330</ele>
        <time>2020-02-01T09:04:39.000Z</time>
      </trkpt>
      <trkpt lat="42.84949" lon="0.51746">
        <ele>1330</ele>
        <time>2020-02-01T09:04:40.000Z</time>
      </trkpt>
      <trkpt lat="42.84949" lon="0.51746">
        <ele>1330</ele>
        <time>2020-02-01T09:04:41.000Z</time>
      </trkpt>
      <trkpt lat="42.84949" lon="0.51746">
        <ele>1330</ele>
        <time>2020-02-01T09:04:42.000Z</time>
      </trkpt>
      <trkpt lat="42.84949" lon="0.51746">
        <ele>1330</ele>
        <time>2020-02-01T09:04:43.000Z</time>
      </trkpt>
      <trkpt lat="42.84949" lon="0.51746">
        <ele>1330</ele>
        <time>2020-02-01T09:04:44.000Z</time>
      </trkpt>
      <trkpt lat="42.84949" lon="0.51746">
        <ele>1330</ele>
        <time>2020-02-01T09:04:45.000Z</time>
      </trkpt>
      <trkpt lat="42.84949" lon="0.51746">
        <ele>1330</ele>
        <time>2020-02-01T09:04:46.000Z</time>
      </trkpt>
      <trkpt lat="42.84949" lon="0.51746">
        <ele>1330</ele>
        <time>2020-02-01T09:04:47.000Z</time>
      </trkpt>
      <trkpt lat="42.84949" lon="0.51746">
        <ele>1330</ele>
        <time>2020-02-01T09:04:48.000Z</time>
      </trkpt>
      <trkpt lat="42.84949" lon="0.51746">
        <ele>1330</ele>
        <time>2020-02-01T09:04:49.000Z</time>
      </trkpt>
      <trkpt lat="42.8495" lon="0.51746">
        <ele>1330</ele>
        <time>2020-02-01T09:04:50.000Z</time>
      </trkpt>
      <trkpt lat="42.8495" lon="0.51745">
        <ele>1330</ele>
        <time>2020-02-01T09:04:51.000Z</time>
      </trkpt>
      <trkpt lat="42.8495" lon="0.51744">
        <ele>1330</ele>
        <time>2020-02-01T09:04:52.000Z</time>
      </trkpt>
      <trkpt lat="42.8495" lon="0.51744">
        <ele>1330</ele>
        <time>2020-02-01T09:04:53.000Z</time>
      </trkpt>
      <trkpt lat="42.84949" lon="0.51743">
        <ele>1330</ele>
        <time>2020-02-01T09:04:54.000Z</time>
      </trkpt>
      <trkpt lat="42.84949" lon="0.51743">
        <ele>1330</ele>
        <time>2020-02-01T09:04:55.000Z</time>
      </trkpt>
      <trkpt lat="42.84948" lon="0.51743">
        <ele>1330</ele>
        <time>2020-02-01T09:04:56.000Z</time>
      </trkpt>
      <trkpt lat="42.84947" lon="0.51743">
        <ele>1330</ele>
        <time>2020-02-01T09:04:57.000Z</time>
      </trkpt>
      <trkpt lat="42.84947" lon="0.51743">
        <ele>1330</ele>
        <time>2020-02-01T09:04:58.000Z</time>
      </trkpt>
      <trkpt lat="42.84946" lon="0.51744">
        <ele>1330</ele>
        <time>2020-02-01T09:04:59.000Z</time>
      </trkpt>
      <trkpt lat="42.84946" lon="0.51744">
        <ele>1330</ele>
        <time>2020-02-01T09:05:00.000Z</time>
      </trkpt>
      <trkpt lat="42.84945" lon="0.51744">
        <ele>1330</ele>
        <time>2020-02-01T09:05:01.000Z</time>
      </trkpt>
      <trkpt lat="42.84945" lon="0.51745">
        <ele>1330</ele>
        <time>2020-02-01T09:05:02.000Z</time>
      </trkpt>
      <trkpt lat="42.84944" lon="0.51745">
        <ele>1330</ele>
        <time>2020-02-01T09:05:03.000Z</time>
      </trkpt>
      <trkpt lat="42.84943" lon="0.51745">
        <ele>1330</ele>
        <time>2020-02-01T09:05:04.000Z</time>
      </trkpt>
      <trkpt lat="42.84942" lon="0.51745">
        <ele>1330</ele>
        <time>2020-02-01T09:05:05.000Z</time>
      </trkpt>
      <trkpt lat="42.84942" lon="0.51745">
        <ele>1330</ele>
        <time>2020-02-01T09:05:06.000Z</time>
      </trkpt>
      <trkpt lat="42.84941" lon="0.51745">
        <ele>1330</ele>
        <time>2020-02-01T09:05:07.000Z</time>
      </trkpt>
      <trkpt lat="42.8494" lon="0.51745">
        <ele>1330</ele>
        <time>2020-02-01T09:05:08.000Z</time>
      </trkpt>
      <trkpt lat="42.84939" lon="0.51745">
        <ele>1330</ele>
        <time>2020-02-01T09:05:09.000Z</time>
      </trkpt>
      <trkpt lat="42.84939" lon="0.51744">
        <ele>1330</ele>
        <time>2020-02-01T09:05:10.000Z</time>
      </trkpt>
      <trkpt lat="42.84938" lon="0.51744">
        <ele>1330</ele>
        <time>2020-02-01T09:05:11.000Z</time>
      </trkpt>
      <trkpt lat="42.84938" lon="0.51743">
        <ele>1330</ele>
        <time>2020-02-01T09:05:12.000Z</time>
      </trkpt>
      <trkpt lat="42.84938" lon="0.51742">
        <ele>1330</ele>
        <time>2020-02-01T09:05:13.000Z</time>
      </trkpt>
      <trkpt lat="42.84938" lon="0.51741">
        <ele>1330</ele>
        <time>2020-02-01T09:05:14.000Z</time>
      </trkpt>
      <trkpt lat="42.84938" lon="0.5174">
        <ele>1330</ele>
        <time>2020-02-01T09:05:15.000Z</time>
      </trkpt>
      <trkpt lat="42.84939" lon="0.51738">
        <ele>1330</ele>
        <time>2020-02-01T09:05:16.000Z</time>
      </trkpt>
      <trkpt lat="42.84939" lon="0.51737">
        <ele>1330.5</ele>
        <time>2020-02-01T09:05:17.000Z</time>
      </trkpt>
      <trkpt lat="42.8494" lon="0.51736">
        <ele>1331</ele>
        <time>2020-02-01T09:05:18.000Z</time>
      </trkpt>
      <trkpt lat="42.8494" lon="0.51734">
        <ele>1331</ele>
        <time>2020-02-01T09:05:19.000Z</time>
      </trkpt>
      <trkpt lat="42.84941" lon="0.51733">
        <ele>1331</ele>
        <time>2020-02-01T09:05:20.000Z</time>
      </trkpt>
      <trkpt lat="42.84941" lon="0.51732">
        <ele>1331</ele>
        <time>2020-02-01T09:05:21.000Z</time>
      </trkpt>
      <trkpt lat="42.84941" lon="0.51731">
        <ele>1331</ele>
        <time>2020-02-01T09:05:22.000Z</time>
      </trkpt>
      <trkpt lat="42.84942" lon="0.5173">
        <ele>1332</ele>
        <time>2020-02-01T09:05:23.000Z</time>
      </trkpt>
      <trkpt lat="42.84942" lon="0.51729">
        <ele>1332</ele>
        <time>2020-02-01T09:05:24.000Z</time>
      </trkpt>
      <trkpt lat="42.84943" lon="0.51729">
        <ele>1332</ele>
        <time>2020-02-01T09:05:25.000Z</time>
      </trkpt>
      <trkpt lat="42.84943" lon="0.51728">
        <ele>1332</ele>
        <time>2020-02-01T09:05:26.000Z</time>
      </trkpt>
      <trkpt lat="42.84943" lon="0.51727">
        <ele>1332</ele>
        <time>2020-02-01T09:05:27.000Z</time>
      </trkpt>
      <trkpt lat="42.84943" lon="0.51726">
        <ele>1332.3</ele>
        <time>2020-02-01T09:05:28.000Z</time>
      </trkpt>
      <trkpt lat="42.84944" lon="0.51725">
        <ele>1332.7</ele>
        <time>2020-02-01T09:05:29.000Z</time>
      </trkpt>
      <trkpt lat="42.84944" lon="0.51725">
        <ele>1333</ele>
        <time>2020-02-01T09:05:30.000Z</time>
      </trkpt>
      <trkpt lat="42.84944" lon="0.51724">
        <ele>1333</ele>
        <time>2020-02-01T09:05:31.000Z</time>
      </trkpt>
      <trkpt lat="42.84945" lon="0.51723">
        <ele>1333</ele>
        <time>2020-02-01T09:05:32.000Z</time>
      </trkpt>
      <trkpt lat="42.84945" lon="0.51722">
        <ele>1333</ele>
        <time>2020-02-01T09:05:33.000Z</time>
      </trkpt>
      <trkpt lat="42.84945" lon="0.51721">
        <ele>1333</ele>
        <time>2020-02-01T09:05:34.000Z</time>
      </trkpt>
      <trkpt lat="42.84945" lon="0.51719">
        <ele>1334</ele>
        <time>2020-02-01T09:05:35.000Z</time>
      </trkpt>
      <trkpt lat="42.84945" lon="0.51718">
        <ele>1334</ele>
        <time>2020-02-01T09:05:36.000Z</time>
      </trkpt>
      <trkpt lat="42.84945" lon="0.51717">
        <ele>1334</ele>
        <time>2020-02-01T09:05:37.000Z</time>
      </trkpt>
      <trkpt lat="42.84945" lon="0.51716">
        <ele>1334</ele>
        <time>2020-02-01T09:05:38.000Z</time>
      </trkpt>
      <trkpt lat="42.84945" lon="0.51715">
        <ele>1334</ele>
        <time>2020-02-01T09:05:39.000Z</time>
      </trkpt>
      <trkpt lat="42.84945" lon="0.51715">
        <ele>1334</ele>
        <time>2020-02-01T09:05:40.000Z</time>
      </trkpt>
      <trkpt lat="42.84945" lon="0.51714">
        <ele>1334.5</ele>
        <time>2020-02-01T09:05:41.000Z</time>
      </trkpt>
      <trkpt lat="42.84945" lon="0.51713">
        <ele>1335</ele>
        <time>2020-02-01T09:05:42.000Z</time>
      </trkpt>
      <trkpt lat="42.84945" lon="0.51712">
        <ele>1335</ele>
        <time>2020-02-01T09:05:43.000Z</time>
      </trkpt>
      <trkpt lat="42.84945" lon="0.51711">
        <ele>1335</ele>
        <time>2020-02-01T09:05:44.000Z</time>
      </trkpt>
      <trkpt lat="42.84945" lon="0.5171">
        <ele>1335</ele>
        <time>2020-02-01T09:05:45.000Z</time>
      </trkpt>
      <trkpt lat="42.84945" lon="0.5171">
        <ele>1335</ele>
        <time>2020-02-01T09:05:46.000Z</time>
      </trkpt>
      <trkpt lat="42.84945" lon="0.51709">
        <ele>1335</ele>
        <time>2020-02-01T09:05:47.000Z</time>
      </trkpt>
      <trkpt lat="42.84945" lon="0.51708">
        <ele>1335</ele>
        <time>2020-02-01T09:05:48.000Z</time>
      </trkpt>
      <trkpt lat="42.84946" lon="0.51707">
        <ele>1335.5</ele>
        <time>2020-02-01T09:05:49.000Z</time>
      </trkpt>
      <trkpt lat="42.84946" lon="0.51706">
        <ele>1336</ele>
        <time>2020-02-01T09:05:50.000Z</time>
      </trkpt>
      <trkpt lat="42.84946" lon="0.51705">
        <ele>1336</ele>
        <time>2020-02-01T09:05:51.000Z</time>
      </trkpt>
      <trkpt lat="42.84946" lon="0.51705">
        <ele>1336</ele>
        <time>2020-02-01T09:05:52.000Z</time>
      </trkpt>
      <trkpt lat="42.84946" lon="0.51704">
        <ele>1336</ele>
        <time>2020-02-01T09:05:53.000Z</time>
      </trkpt>
      <trkpt lat="42.84947" lon="0.51703">
        <ele>1336.3</ele>
        <time>2020-02-01T09:05:54.000Z</time>
      </trkpt>
      <trkpt lat="42.84947" lon="0.51702">
        <ele>1336.7</ele>
        <time>2020-02-01T09:05:55.000Z</time>
      </trkpt>
      <trkpt lat="42.84947" lon="0.51701">
        <ele>1337</ele>
        <time>2020-02-01T09:05:56.000Z</time>
      </trkpt>
      <trkpt lat="42.84947" lon="0.517">
        <ele>1337</ele>
        <time>2020-02-01T09:05:57.000Z</time>
      </trkpt>
      <trkpt lat="42.84947" lon="0.51699">
        <ele>1337</ele>
        <time>2020-02-01T09:05:58.000Z</time>
      </trkpt>
      <trkpt lat="42.84947" lon="0.51699">
        <ele>1337</ele>
        <time>2020-02-01T09:05:59.000Z</time>
      </trkpt>
      <trkpt lat="42.84947" lon="0.51698">
        <ele>1337</ele>
        <time>2020-02-01T09:06:00.000Z</time>
      </trkpt>
      <trkpt lat="42.84947" lon="0.51697">
        <ele>1337</ele>
        <time>2020-02-01T09:06:01.000Z</time>
      </trkpt>
      <trkpt lat="42.84947" lon="0.51697">
        <ele>1337</ele>
        <time>2020-02-01T09:06:02.000Z</time>
      </trkpt>
      <trkpt lat="42.84948" lon="0.51696">
        <ele>1338</ele>
        <time>2020-02-01T09:06:03.000Z</time>
      </trkpt>
      <trkpt lat="42.84948" lon="0.51695">
        <ele>1338</ele>
        <time>2020-02-01T09:06:04.000Z</time>
      </trkpt>
      <trkpt lat="42.84949" lon="0.51694">
        <ele>1338</ele>
        <time>2020-02-01T09:06:05.000Z</time>
      </trkpt>
      <trkpt lat="42.84949" lon="0.51693">
        <ele>1338</ele>
        <time>2020-02-01T09:06:06.000Z</time>
      </trkpt>
      <trkpt lat="42.8495" lon="0.51691">
        <ele>1338</ele>
        <time>2020-02-01T09:06:07.000Z</time>
      </trkpt>
      <trkpt lat="42.8495" lon="0.5169">
        <ele>1338</ele>
        <time>2020-02-01T09:06:08.000Z</time>
      </trkpt>
      <trkpt lat="42.84951" lon="0.51689">
        <ele>1338</ele>
        <time>2020-02-01T09:06:09.000Z</time>
      </trkpt>
      <trkpt lat="42.84951" lon="0.51688">
        <ele>1338</ele>
        <time>2020-02-01T09:06:10.000Z</time>
      </trkpt>
      <trkpt lat="42.84951" lon="0.51686">
        <ele>1338.5</ele>
        <time>2020-02-01T09:06:11.000Z</time>
      </trkpt>
      <trkpt lat="42.84951" lon="0.51685">
        <ele>1339</ele>
        <time>2020-02-01T09:06:12.000Z</time>
      </trkpt>
      <trkpt lat="42.84951" lon="0.51684">
        <ele>1339</ele>
        <time>2020-02-01T09:06:13.000Z</time>
      </trkpt>
      <trkpt lat="42.84951" lon="0.51682">
        <ele>1339</ele>
        <time>2020-02-01T09:06:14.000Z</time>
      </trkpt>
      <trkpt lat="42.84951" lon="0.51681">
        <ele>1339</ele>
        <time>2020-02-01T09:06:15.000Z</time>
      </trkpt>
      <trkpt lat="42.84951" lon="0.5168">
        <ele>1339.3</ele>
        <time>2020-02-01T09:06:16.000Z</time>
      </trkpt>
      <trkpt lat="42.8495" lon="0.51679">
        <ele>1339.7</ele>
        <time>2020-02-01T09:06:17.000Z</time>
      </trkpt>
      <trkpt lat="42.8495" lon="0.51678">
        <ele>1340</ele>
        <time>2020-02-01T09:06:18.000Z</time>
      </trkpt>
      <trkpt lat="42.8495" lon="0.51677">
        <ele>1340</ele>
        <time>2020-02-01T09:06:19.000Z</time>
      </trkpt>
      <trkpt lat="42.84949" lon="0.51676">
        <ele>1340</ele>
        <time>2020-02-01T09:06:20.000Z</time>
      </trkpt>
      <trkpt lat="42.84949" lon="0.51675">
        <ele>1340</ele>
        <time>2020-02-01T09:06:21.000Z</time>
      </trkpt>
      <trkpt lat="42.84949" lon="0.51674">
        <ele>1340</ele>
        <time>2020-02-01T09:06:22.000Z</time>
      </trkpt>
      <trkpt lat="42.84948" lon="0.51673">
        <ele>1341</ele>
        <time>2020-02-01T09:06:23.000Z</time>
      </trkpt>
      <trkpt lat="42.84948" lon="0.51672">
        <ele>1341</ele>
        <time>2020-02-01T09:06:24.000Z</time>
      </trkpt>
      <trkpt lat="42.84947" lon="0.51671">
        <ele>1341</ele>
        <time>2020-02-01T09:06:25.000Z</time>
      </trkpt>
      <trkpt lat="42.84947" lon="0.5167">
        <ele>1341</ele>
        <time>2020-02-01T09:06:26.000Z</time>
      </trkpt>
      <trkpt lat="42.84947" lon="0.51669">
        <ele>1341</ele>
        <time>2020-02-01T09:06:27.000Z</time>
      </trkpt>
      <trkpt lat="42.84947" lon="0.51669">
        <ele>1341</ele>
        <time>2020-02-01T09:06:28.000Z</time>
      </trkpt>
      <trkpt lat="42.84947" lon="0.51668">
        <ele>1342</ele>
        <time>2020-02-01T09:06:29.000Z</time>
      </trkpt>
      <trkpt lat="42.84947" lon="0.51667">
        <ele>1342</ele>
        <time>2020-02-01T09:06:30.000Z</time>
      </trkpt>
      <trkpt lat="42.84947" lon="0.51666">
        <ele>1342</ele>
        <time>2020-02-01T09:06:31.000Z</time>
      </trkpt>
      <trkpt lat="42.84948" lon="0.51665">
        <ele>1342</ele>
        <time>2020-02-01T09:06:32.000Z</time>
      </trkpt>
      <trkpt lat="42.84948" lon="0.51664">
        <ele>1342</ele>
        <time>2020-02-01T09:06:33.000Z</time>
      </trkpt>
      <trkpt lat="42.84948" lon="0.51663">
        <ele>1342</ele>
        <time>2020-02-01T09:06:34.000Z</time>
      </trkpt>
      <trkpt lat="42.84949" lon="0.51662">
        <ele>1342.5</ele>
        <time>2020-02-01T09:06:35.000Z</time>
      </trkpt>
      <trkpt lat="42.8495" lon="0.51661">
        <ele>1343</ele>
        <time>2020-02-01T09:06:36.000Z</time>
      </trkpt>
      <trkpt lat="42.8495" lon="0.5166">
        <ele>1343</ele>
        <time>2020-02-01T09:06:37.000Z</time>
      </trkpt>
      <trkpt lat="42.84951" lon="0.51659">
        <ele>1343</ele>
        <time>2020-02-01T09:06:38.000Z</time>
      </trkpt>
      <trkpt lat="42.84952" lon="0.51658">
        <ele>1343</ele>
        <time>2020-02-01T09:06:39.000Z</time>
      </trkpt>
      <trkpt lat="42.84953" lon="0.51657">
        <ele>1343</ele>
        <time>2020-02-01T09:06:40.000Z</time>
      </trkpt>
      <trkpt lat="42.84953" lon="0.51655">
        <ele>1343</ele>
        <time>2020-02-01T09:06:41.000Z</time>
      </trkpt>
      <trkpt lat="42.84953" lon="0.51654">
        <ele>1343</ele>
        <time>2020-02-01T09:06:42.000Z</time>
      </trkpt>
      <trkpt lat="42.84953" lon="0.51653">
        <ele>1344</ele>
        <time>2020-02-01T09:06:43.000Z</time>
      </trkpt>
      <trkpt lat="42.84953" lon="0.51652">
        <ele>1344</ele>
        <time>2020-02-01T09:06:44.000Z</time>
      </trkpt>
      <trkpt lat="42.84953" lon="0.51651">
        <ele>1344</ele>
        <time>2020-02-01T09:06:45.000Z</time>
      </trkpt>
      <trkpt lat="42.84952" lon="0.5165">
        <ele>1344</ele>
        <time>2020-02-01T09:06:46.000Z</time>
      </trkpt>
      <trkpt lat="42.84952" lon="0.51649">
        <ele>1344</ele>
        <time>2020-02-01T09:06:47.000Z</time>
      </trkpt>
      <trkpt lat="42.84953" lon="0.51648">
        <ele>1344</ele>
        <time>2020-02-01T09:06:48.000Z</time>
      </trkpt>
      <trkpt lat="42.84953" lon="0.51647">
        <ele>1345</ele>
        <time>2020-02-01T09:06:49.000Z</time>
      </trkpt>
      <trkpt lat="42.84953" lon="0.51646">
        <ele>1345</ele>
        <time>2020-02-01T09:06:50.000Z</time>
      </trkpt>
      <trkpt lat="42.84954" lon="0.51645">
        <ele>1345</ele>
        <time>2020-02-01T09:06:51.000Z</time>
      </trkpt>
      <trkpt lat="42.84954" lon="0.51645">
        <ele>1345</ele>
        <time>2020-02-01T09:06:52.000Z</time>
      </trkpt>
      <trkpt lat="42.84954" lon="0.51644">
        <ele>1345</ele>
        <time>2020-02-01T09:06:53.000Z</time>
      </trkpt>
      <trkpt lat="42.84955" lon="0.51643">
        <ele>1345</ele>
        <time>2020-02-01T09:06:54.000Z</time>
      </trkpt>
      <trkpt lat="42.84955" lon="0.51642">
        <ele>1346</ele>
        <time>2020-02-01T09:06:55.000Z</time>
      </trkpt>
      <trkpt lat="42.84955" lon="0.51641">
        <ele>1346</ele>
        <time>2020-02-01T09:06:56.000Z</time>
      </trkpt>
      <trkpt lat="42.84956" lon="0.5164">
        <ele>1346</ele>
        <time>2020-02-01T09:06:57.000Z</time>
      </trkpt>
      <trkpt lat="42.84956" lon="0.51639">
        <ele>1346</ele>
        <time>2020-02-01T09:06:58.000Z</time>
      </trkpt>
      <trkpt lat="42.84956" lon="0.51638">
        <ele>1346</ele>
        <time>2020-02-01T09:06:59.000Z</time>
      </trkpt>
      <trkpt lat="42.84956" lon="0.51637">
        <ele>1346</ele>
        <time>2020-02-01T09:07:00.000Z</time>
      </trkpt>
      <trkpt lat="42.84956" lon="0.51635">
        <ele>1347</ele>
        <time>2020-02-01T09:07:01.000Z</time>
      </trkpt>
      <trkpt lat="42.84956" lon="0.51634">
        <ele>1347</ele>
        <time>2020-02-01T09:07:02.000Z</time>
      </trkpt>
      <trkpt lat="42.84956" lon="0.51633">
        <ele>1347</ele>
        <time>2020-02-01T09:07:03.000Z</time>
      </trkpt>
      <trkpt lat="42.84956" lon="0.51632">
        <ele>1347</ele>
        <time>2020-02-01T09:07:04.000Z</time>
      </trkpt>
      <trkpt lat="42.84956" lon="0.51631">
        <ele>1347</ele>
        <time>2020-02-01T09:07:05.000Z</time>
      </trkpt>
      <trkpt lat="42.84956" lon="0.5163">
        <ele>1347</ele>
        <time>2020-02-01T09:07:06.000Z</time>
      </trkpt>
      <trkpt lat="42.84956" lon="0.51629">
        <ele>1347</ele>
        <time>2020-02-01T09:07:07.000Z</time>
      </trkpt>
      <trkpt lat="42.84956" lon="0.51627">
        <ele>1347</ele>
        <time>2020-02-01T09:07:08.000Z</time>
      </trkpt>
      <trkpt lat="42.84956" lon="0.51626">
        <ele>1347</ele>
        <time>2020-02-01T09:07:09.000Z</time>
      </trkpt>
      <trkpt lat="42.84956" lon="0.51625">
        <ele>1347.3</ele>
        <time>2020-02-01T09:07:10.000Z</time>
      </trkpt>
      <trkpt lat="42.84956" lon="0.51624">
        <ele>1347.7</ele>
        <time>2020-02-01T09:07:11.000Z</time>
      </trkpt>
      <trkpt lat="42.84956" lon="0.51623">
        <ele>1348</ele>
        <time>2020-02-01T09:07:12.000Z</time>
      </trkpt>
      <trkpt lat="42.84956" lon="0.51622">
        <ele>1348</ele>
        <time>2020-02-01T09:07:13.000Z</time>
      </trkpt>
      <trkpt lat="42.84957" lon="0.51621">
        <ele>1348</ele>
        <time>2020-02-01T09:07:14.000Z</time>
      </trkpt>
      <trkpt lat="42.84957" lon="0.5162">
        <ele>1348</ele>
        <time>2020-02-01T09:07:15.000Z</time>
      </trkpt>
      <trkpt lat="42.84957" lon="0.51619">
        <ele>1348</ele>
        <time>2020-02-01T09:07:16.000Z</time>
      </trkpt>
      <trkpt lat="42.84957" lon="0.51618">
        <ele>1348.5</ele>
        <time>2020-02-01T09:07:17.000Z</time>
      </trkpt>
      <trkpt lat="42.84957" lon="0.51617">
        <ele>1349</ele>
        <time>2020-02-01T09:07:18.000Z</time>
      </trkpt>
      <trkpt lat="42.84957" lon="0.51616">
        <ele>1349</ele>
        <time>2020-02-01T09:07:19.000Z</time>
      </trkpt>
      <trkpt lat="42.84957" lon="0.51615">
        <ele>1349</ele>
        <time>2020-02-01T09:07:20.000Z</time>
      </trkpt>
      <trkpt lat="42.84957" lon="0.51614">
        <ele>1349</ele>
        <time>2020-02-01T09:07:21.000Z</time>
      </trkpt>
      <trkpt lat="42.84957" lon="0.51613">
        <ele>1349</ele>
        <time>2020-02-01T09:07:22.000Z</time>
      </trkpt>
      <trkpt lat="42.84957" lon="0.51612">
        <ele>1349.5</ele>
        <time>2020-02-01T09:07:23.000Z</time>
      </trkpt>
      <trkpt lat="42.84957" lon="0.51612">
        <ele>1350</ele>
        <time>2020-02-01T09:07:24.000Z</time>
      </trkpt>
      <trkpt lat="42.84957" lon="0.51611">
        <ele>1350</ele>
        <time>2020-02-01T09:07:25.000Z</time>
      </trkpt>
      <trkpt lat="42.84956" lon="0.51611">
        <ele>1350.3</ele>
        <time>2020-02-01T09:07:26.000Z</time>
      </trkpt>
      <trkpt lat="42.84956" lon="0.5161">
        <ele>1350.7</ele>
        <time>2020-02-01T09:07:27.000Z</time>
      </trkpt>
      <trkpt lat="42.84956" lon="0.51609">
        <ele>1351</ele>
        <time>2020-02-01T09:07:28.000Z</time>
      </trkpt>
      <trkpt lat="42.84956" lon="0.51608">
        <ele>1351</ele>
        <time>2020-02-01T09:07:29.000Z</time>
      </trkpt>
      <trkpt lat="42.84956" lon="0.51607">
        <ele>1351</ele>
        <time>2020-02-01T09:07:30.000Z</time>
      </trkpt>
      <trkpt lat="42.84955" lon="0.51606">
        <ele>1351</ele>
        <time>2020-02-01T09:07:31.000Z</time>
      </trkpt>
      <trkpt lat="42.84955" lon="0.51604">
        <ele>1351.3</ele>
        <time>2020-02-01T09:07:32.000Z</time>
      </trkpt>
      <trkpt lat="42.84955" lon="0.51603">
        <ele>1351.7</ele>
        <time>2020-02-01T09:07:33.000Z</time>
      </trkpt>
      <trkpt lat="42.84954" lon="0.51602">
        <ele>1352</ele>
        <time>2020-02-01T09:07:34.000Z</time>
      </trkpt>
      <trkpt lat="42.84954" lon="0.51601">
        <ele>1352</ele>
        <time>2020-02-01T09:07:35.000Z</time>
      </trkpt>
      <trkpt lat="42.84953" lon="0.516">
        <ele>1352</ele>
        <time>2020-02-01T09:07:36.000Z</time>
      </trkpt>
      <trkpt lat="42.84953" lon="0.516">
        <ele>1352</ele>
        <time>2020-02-01T09:07:37.000Z</time>
      </trkpt>
      <trkpt lat="42.84952" lon="0.516">
        <ele>1352</ele>
        <time>2020-02-01T09:07:38.000Z</time>
      </trkpt>
      <trkpt lat="42.84952" lon="0.51599">
        <ele>1352</ele>
        <time>2020-02-01T09:07:39.000Z</time>
      </trkpt>
      <trkpt lat="42.84952" lon="0.51599">
        <ele>1352</ele>
        <time>2020-02-01T09:07:40.000Z</time>
      </trkpt>
      <trkpt lat="42.84951" lon="0.51599">
        <ele>1352</ele>
        <time>2020-02-01T09:07:41.000Z</time>
      </trkpt>
      <trkpt lat="42.84951" lon="0.51599">
        <ele>1352.3</ele>
        <time>2020-02-01T09:07:42.000Z</time>
      </trkpt>
      <trkpt lat="42.84951" lon="0.51598">
        <ele>1352.7</ele>
        <time>2020-02-01T09:07:43.000Z</time>
      </trkpt>
      <trkpt lat="42.84951" lon="0.51597">
        <ele>1353</ele>
        <time>2020-02-01T09:07:44.000Z</time>
      </trkpt>
      <trkpt lat="42.84951" lon="0.51597">
        <ele>1353</ele>
        <time>2020-02-01T09:07:45.000Z</time>
      </trkpt>
      <trkpt lat="42.84951" lon="0.51596">
        <ele>1353</ele>
        <time>2020-02-01T09:07:46.000Z</time>
      </trkpt>
      <trkpt lat="42.84951" lon="0.51595">
        <ele>1353</ele>
        <time>2020-02-01T09:07:47.000Z</time>
      </trkpt>
      <trkpt lat="42.84951" lon="0.51594">
        <ele>1353.3</ele>
        <time>2020-02-01T09:07:48.000Z</time>
      </trkpt>
      <trkpt lat="42.84951" lon="0.51593">
        <ele>1353.7</ele>
        <time>2020-02-01T09:07:49.000Z</time>
      </trkpt>
      <trkpt lat="42.84951" lon="0.51592">
        <ele>1354</ele>
        <time>2020-02-01T09:07:50.000Z</time>
      </trkpt>
      <trkpt lat="42.84952" lon="0.51591">
        <ele>1354</ele>
        <time>2020-02-01T09:07:51.000Z</time>
      </trkpt>
      <trkpt lat="42.84952" lon="0.5159">
        <ele>1354</ele>
        <time>2020-02-01T09:07:52.000Z</time>
      </trkpt>
      <trkpt lat="42.84953" lon="0.51589">
        <ele>1354</ele>
        <time>2020-02-01T09:07:53.000Z</time>
      </trkpt>
      <trkpt lat="42.84953" lon="0.51588">
        <ele>1354</ele>
        <time>2020-02-01T09:07:54.000Z</time>
      </trkpt>
      <trkpt lat="42.84953" lon="0.51587">
        <ele>1354.5</ele>
        <time>2020-02-01T09:07:55.000Z</time>
      </trkpt>
      <trkpt lat="42.84954" lon="0.51586">
        <ele>1355</ele>
        <time>2020-02-01T09:07:56.000Z</time>
      </trkpt>
      <trkpt lat="42.84954" lon="0.51585">
        <ele>1355</ele>
        <time>2020-02-01T09:07:57.000Z</time>
      </trkpt>
      <trkpt lat="42.84955" lon="0.51584">
        <ele>1355</ele>
        <time>2020-02-01T09:07:58.000Z</time>
      </trkpt>
      <trkpt lat="42.84955" lon="0.51583">
        <ele>1355</ele>
        <time>2020-02-01T09:07:59.000Z</time>
      </trkpt>
      <trkpt lat="42.84956" lon="0.51583">
        <ele>1355</ele>
        <time>2020-02-01T09:08:00.000Z</time>
      </trkpt>
      <trkpt lat="42.84956" lon="0.51582">
        <ele>1355</ele>
        <time>2020-02-01T09:08:01.000Z</time>
      </trkpt>
      <trkpt lat="42.84956" lon="0.51581">
        <ele>1355</ele>
        <time>2020-02-01T09:08:02.000Z</time>
      </trkpt>
      <trkpt lat="42.84956" lon="0.51579">
        <ele>1355</ele>
        <time>2020-02-01T09:08:03.000Z</time>
      </trkpt>
      <trkpt lat="42.84957" lon="0.51578">
        <ele>1355</ele>
        <time>2020-02-01T09:08:04.000Z</time>
      </trkpt>
      <trkpt lat="42.84957" lon="0.51577">
        <ele>1356</ele>
        <time>2020-02-01T09:08:05.000Z</time>
      </trkpt>
      <trkpt lat="42.84956" lon="0.51577">
        <ele>1356</ele>
        <time>2020-02-01T09:08:06.000Z</time>
      </trkpt>
      <trkpt lat="42.84956" lon="0.51576">
        <ele>1356</ele>
        <time>2020-02-01T09:08:07.000Z</time>
      </trkpt>
      <trkpt lat="42.84956" lon="0.51575">
        <ele>1356</ele>
        <time>2020-02-01T09:08:08.000Z</time>
      </trkpt>
      <trkpt lat="42.84956" lon="0.51575">
        <ele>1356</ele>
        <time>2020-02-01T09:08:09.000Z</time>
      </trkpt>
      <trkpt lat="42.84955" lon="0.51574">
        <ele>1356</ele>
        <time>2020-02-01T09:08:10.000Z</time>
      </trkpt>
      <trkpt lat="42.84955" lon="0.51574">
        <ele>1356</ele>
        <time>2020-02-01T09:08:11.000Z</time>
      </trkpt>
      <trkpt lat="42.84955" lon="0.51573">
        <ele>1356</ele>
        <time>2020-02-01T09:08:12.000Z</time>
      </trkpt>
      <trkpt lat="42.84955" lon="0.51572">
        <ele>1356</ele>
        <time>2020-02-01T09:08:13.000Z</time>
      </trkpt>
      <trkpt lat="42.84955" lon="0.51571">
        <ele>1356</ele>
        <time>2020-02-01T09:08:14.000Z</time>
      </trkpt>
      <trkpt lat="42.84955" lon="0.5157">
        <ele>1356.5</ele>
        <time>2020-02-01T09:08:15.000Z</time>
      </trkpt>
      <trkpt lat="42.84955" lon="0.51569">
        <ele>1357</ele>
        <time>2020-02-01T09:08:16.000Z</time>
      </trkpt>
      <trkpt lat="42.84956" lon="0.51568">
        <ele>1357</ele>
        <time>2020-02-01T09:08:17.000Z</time>
      </trkpt>
      <trkpt lat="42.84956" lon="0.51567">
        <ele>1357</ele>
        <time>2020-02-01T09:08:18.000Z</time>
      </trkpt>
      <trkpt lat="42.84956" lon="0.51566">
        <ele>1357</ele>
        <time>2020-02-01T09:08:19.000Z</time>
      </trkpt>
      <trkpt lat="42.84956" lon="0.51565">
        <ele>1357</ele>
        <time>2020-02-01T09:08:20.000Z</time>
      </trkpt>
      <trkpt lat="42.84957" lon="0.51564">
        <ele>1357.5</ele>
        <time>2020-02-01T09:08:21.000Z</time>
      </trkpt>
      <trkpt lat="42.84957" lon="0.51563">
        <ele>1358</ele>
        <time>2020-02-01T09:08:22.000Z</time>
      </trkpt>
      <trkpt lat="42.84957" lon="0.51561">
        <ele>1358</ele>
        <time>2020-02-01T09:08:23.000Z</time>
      </trkpt>
      <trkpt lat="42.84957" lon="0.5156">
        <ele>1358</ele>
        <time>2020-02-01T09:08:24.000Z</time>
      </trkpt>
      <trkpt lat="42.84957" lon="0.51559">
        <ele>1358</ele>
        <time>2020-02-01T09:08:25.000Z</time>
      </trkpt>
      <trkpt lat="42.84958" lon="0.51558">
        <ele>1358.3</ele>
        <time>2020-02-01T09:08:26.000Z</time>
      </trkpt>
      <trkpt lat="42.84958" lon="0.51557">
        <ele>1358.7</ele>
        <time>2020-02-01T09:08:27.000Z</time>
      </trkpt>
      <trkpt lat="42.84958" lon="0.51556">
        <ele>1359</ele>
        <time>2020-02-01T09:08:28.000Z</time>
      </trkpt>
      <trkpt lat="42.84958" lon="0.51555">
        <ele>1359</ele>
        <time>2020-02-01T09:08:29.000Z</time>
      </trkpt>
      <trkpt lat="42.84958" lon="0.51554">
        <ele>1359</ele>
        <time>2020-02-01T09:08:30.000Z</time>
      </trkpt>
      <trkpt lat="42.84958" lon="0.51553">
        <ele>1359</ele>
        <time>2020-02-01T09:08:31.000Z</time>
      </trkpt>
      <trkpt lat="42.84958" lon="0.51552">
        <ele>1359</ele>
        <time>2020-02-01T09:08:32.000Z</time>
      </trkpt>
      <trkpt lat="42.84958" lon="0.51551">
        <ele>1359</ele>
        <time>2020-02-01T09:08:33.000Z</time>
      </trkpt>
      <trkpt lat="42.84959" lon="0.5155">
        <ele>1359</ele>
        <time>2020-02-01T09:08:34.000Z</time>
      </trkpt>
      <trkpt lat="42.84959" lon="0.51549">
        <ele>1360</ele>
        <time>2020-02-01T09:08:35.000Z</time>
      </trkpt>
      <trkpt lat="42.84959" lon="0.51548">
        <ele>1360</ele>
        <time>2020-02-01T09:08:36.000Z</time>
      </trkpt>
      <trkpt lat="42.84959" lon="0.51547">
        <ele>1360</ele>
        <time>2020-02-01T09:08:37.000Z</time>
      </trkpt>
      <trkpt lat="42.84959" lon="0.51546">
        <ele>1360</ele>
        <time>2020-02-01T09:08:38.000Z</time>
      </trkpt>
      <trkpt lat="42.84959" lon="0.51545">
        <ele>1360</ele>
        <time>2020-02-01T09:08:39.000Z</time>
      </trkpt>
      <trkpt lat="42.84959" lon="0.51544">
        <ele>1360</ele>
        <time>2020-02-01T09:08:40.000Z</time>
      </trkpt>
      <trkpt lat="42.8496" lon="0.51544">
        <ele>1360</ele>
        <time>2020-02-01T09:08:41.000Z</time>
      </trkpt>
      <trkpt lat="42.8496" lon="0.51543">
        <ele>1360</ele>
        <time>2020-02-01T09:08:42.000Z</time>
      </trkpt>
      <trkpt lat="42.8496" lon="0.51542">
        <ele>1360.5</ele>
        <time>2020-02-01T09:08:43.000Z</time>
      </trkpt>
      <trkpt lat="42.8496" lon="0.51541">
        <ele>1361</ele>
        <time>2020-02-01T09:08:44.000Z</time>
      </trkpt>
      <trkpt lat="42.8496" lon="0.5154">
        <ele>1361</ele>
        <time>2020-02-01T09:08:45.000Z</time>
      </trkpt>
      <trkpt lat="42.8496" lon="0.51539">
        <ele>1361</ele>
        <time>2020-02-01T09:08:46.000Z</time>
      </trkpt>
      <trkpt lat="42.8496" lon="0.51538">
        <ele>1361</ele>
        <time>2020-02-01T09:08:47.000Z</time>
      </trkpt>
      <trkpt lat="42.8496" lon="0.51537">
        <ele>1361</ele>
        <time>2020-02-01T09:08:48.000Z</time>
      </trkpt>
      <trkpt lat="42.8496" lon="0.51536">
        <ele>1361</ele>
        <time>2020-02-01T09:08:49.000Z</time>
      </trkpt>
      <trkpt lat="42.8496" lon="0.51535">
        <ele>1361</ele>
        <time>2020-02-01T09:08:50.000Z</time>
      </trkpt>
      <trkpt lat="42.8496" lon="0.51534">
        <ele>1361</ele>
        <time>2020-02-01T09:08:51.000Z</time>
      </trkpt>
      <trkpt lat="42.8496" lon="0.51533">
        <ele>1361</ele>
        <time>2020-02-01T09:08:52.000Z</time>
      </trkpt>
      <trkpt lat="42.8496" lon="0.51532">
        <ele>1361.5</ele>
        <time>2020-02-01T09:08:53.000Z</time>
      </trkpt>
      <trkpt lat="42.8496" lon="0.51531">
        <ele>1362</ele>
        <time>2020-02-01T09:08:54.000Z</time>
      </trkpt>
      <trkpt lat="42.8496" lon="0.5153">
        <ele>1362</ele>
        <time>2020-02-01T09:08:55.000Z</time>
      </trkpt>
      <trkpt lat="42.8496" lon="0.51529">
        <ele>1362</ele>
        <time>2020-02-01T09:08:56.000Z</time>
      </trkpt>
      <trkpt lat="42.8496" lon="0.51528">
        <ele>1362</ele>
        <time>2020-02-01T09:08:57.000Z</time>
      </trkpt>
      <trkpt lat="42.8496" lon="0.51527">
        <ele>1362</ele>
        <time>2020-02-01T09:08:58.000Z</time>
      </trkpt>
      <trkpt lat="42.8496" lon="0.51526">
        <ele>1362</ele>
        <time>2020-02-01T09:08:59.000Z</time>
      </trkpt>
      <trkpt lat="42.8496" lon="0.51525">
        <ele>1362</ele>
        <time>2020-02-01T09:09:00.000Z</time>
      </trkpt>
      <trkpt lat="42.8496" lon="0.51524">
        <ele>1363</ele>
        <time>2020-02-01T09:09:01.000Z</time>
      </trkpt>
      <trkpt lat="42.8496" lon="0.51523">
        <ele>1363</ele>
        <time>2020-02-01T09:09:02.000Z</time>
      </trkpt>
      <trkpt lat="42.8496" lon="0.51522">
        <ele>1363</ele>
        <time>2020-02-01T09:09:03.000Z</time>
      </trkpt>
      <trkpt lat="42.8496" lon="0.51521">
        <ele>1363</ele>
        <time>2020-02-01T09:09:04.000Z</time>
      </trkpt>
      <trkpt lat="42.8496" lon="0.5152">
        <ele>1363</ele>
        <time>2020-02-01T09:09:05.000Z</time>
      </trkpt>
      <trkpt lat="42.84961" lon="0.51519">
        <ele>1363</ele>
        <time>2020-02-01T09:09:06.000Z</time>
      </trkpt>
      <trkpt lat="42.84961" lon="0.51518">
        <ele>1363</ele>
        <time>2020-02-01T09:09:07.000Z</time>
      </trkpt>
      <trkpt lat="42.84961" lon="0.51517">
        <ele>1363</ele>
        <time>2020-02-01T09:09:08.000Z</time>
      </trkpt>
      <trkpt lat="42.84961" lon="0.51516">
        <ele>1363.5</ele>
        <time>2020-02-01T09:09:09.000Z</time>
      </trkpt>
      <trkpt lat="42.84961" lon="0.51516">
        <ele>1364</ele>
        <time>2020-02-01T09:09:10.000Z</time>
      </trkpt>
      <trkpt lat="42.84962" lon="0.51515">
        <ele>1364</ele>
        <time>2020-02-01T09:09:11.000Z</time>
      </trkpt>
      <trkpt lat="42.84962" lon="0.51515">
        <ele>1364</ele>
        <time>2020-02-01T09:09:12.000Z</time>
      </trkpt>
      <trkpt lat="42.84962" lon="0.51514">
        <ele>1364</ele>
        <time>2020-02-01T09:09:13.000Z</time>
      </trkpt>
      <trkpt lat="42.84962" lon="0.51513">
        <ele>1364</ele>
        <time>2020-02-01T09:09:14.000Z</time>
      </trkpt>
      <trkpt lat="42.84963" lon="0.51513">
        <ele>1364.5</ele>
        <time>2020-02-01T09:09:15.000Z</time>
      </trkpt>
      <trkpt lat="42.84963" lon="0.51512">
        <ele>1365</ele>
        <time>2020-02-01T09:09:16.000Z</time>
      </trkpt>
      <trkpt lat="42.84963" lon="0.51511">
        <ele>1365</ele>
        <time>2020-02-01T09:09:17.000Z</time>
      </trkpt>
      <trkpt lat="42.84963" lon="0.51511">
        <ele>1365</ele>
        <time>2020-02-01T09:09:18.000Z</time>
      </trkpt>
      <trkpt lat="42.84963" lon="0.5151">
        <ele>1365</ele>
        <time>2020-02-01T09:09:19.000Z</time>
      </trkpt>
      <trkpt lat="42.84963" lon="0.51509">
        <ele>1365.3</ele>
        <time>2020-02-01T09:09:20.000Z</time>
      </trkpt>
      <trkpt lat="42.84963" lon="0.51508">
        <ele>1365.7</ele>
        <time>2020-02-01T09:09:21.000Z</time>
      </trkpt>
      <trkpt lat="42.84963" lon="0.51507">
        <ele>1366</ele>
        <time>2020-02-01T09:09:22.000Z</time>
      </trkpt>
      <trkpt lat="42.84963" lon="0.51506">
        <ele>1366</ele>
        <time>2020-02-01T09:09:23.000Z</time>
      </trkpt>
      <trkpt lat="42.84963" lon="0.51505">
        <ele>1366</ele>
        <time>2020-02-01T09:09:24.000Z</time>
      </trkpt>
      <trkpt lat="42.84963" lon="0.51503">
        <ele>1366</ele>
        <time>2020-02-01T09:09:25.000Z</time>
      </trkpt>
      <trkpt lat="42.84964" lon="0.51502">
        <ele>1366</ele>
        <time>2020-02-01T09:09:26.000Z</time>
      </trkpt>
      <trkpt lat="42.84964" lon="0.51501">
        <ele>1367</ele>
        <time>2020-02-01T09:09:27.000Z</time>
      </trkpt>
      <trkpt lat="42.84965" lon="0.515">
        <ele>1367</ele>
        <time>2020-02-01T09:09:28.000Z</time>
      </trkpt>
      <trkpt lat="42.84965" lon="0.51499">
        <ele>1367</ele>
        <time>2020-02-01T09:09:29.000Z</time>
      </trkpt>
      <trkpt lat="42.84966" lon="0.51498">
        <ele>1367</ele>
        <time>2020-02-01T09:09:30.000Z</time>
      </trkpt>
      <trkpt lat="42.84967" lon="0.51497">
        <ele>1367</ele>
        <time>2020-02-01T09:09:31.000Z</time>
      </trkpt>
      <trkpt lat="42.84967" lon="0.51496">
        <ele>1367</ele>
        <time>2020-02-01T09:09:32.000Z</time>
      </trkpt>
      <trkpt lat="42.84967" lon="0.51495">
        <ele>1367</ele>
        <time>2020-02-01T09:09:33.000Z</time>
      </trkpt>
      <trkpt lat="42.84967" lon="0.51494">
        <ele>1367</ele>
        <time>2020-02-01T09:09:34.000Z</time>
      </trkpt>
      <trkpt lat="42.84967" lon="0.51493">
        <ele>1367.5</ele>
        <time>2020-02-01T09:09:35.000Z</time>
      </trkpt>
      <trkpt lat="42.84967" lon="0.51492">
        <ele>1368</ele>
        <time>2020-02-01T09:09:36.000Z</time>
      </trkpt>
      <trkpt lat="42.84967" lon="0.51491">
        <ele>1368</ele>
        <time>2020-02-01T09:09:37.000Z</time>
      </trkpt>
      <trkpt lat="42.84966" lon="0.5149">
        <ele>1368</ele>
        <time>2020-02-01T09:09:38.000Z</time>
      </trkpt>
      <trkpt lat="42.84966" lon="0.51489">
        <ele>1368</ele>
        <time>2020-02-01T09:09:39.000Z</time>
      </trkpt>
      <trkpt lat="42.84966" lon="0.51489">
        <ele>1368</ele>
        <time>2020-02-01T09:09:40.000Z</time>
      </trkpt>
      <trkpt lat="42.84965" lon="0.51488">
        <ele>1368.5</ele>
        <time>2020-02-01T09:09:41.000Z</time>
      </trkpt>
      <trkpt lat="42.84965" lon="0.51487">
        <ele>1369</ele>
        <time>2020-02-01T09:09:42.000Z</time>
      </trkpt>
      <trkpt lat="42.84965" lon="0.51486">
        <ele>1369</ele>
        <time>2020-02-01T09:09:43.000Z</time>
      </trkpt>
      <trkpt lat="42.84966" lon="0.51485">
        <ele>1369</ele>
        <time>2020-02-01T09:09:44.000Z</time>
      </trkpt>
      <trkpt lat="42.84966" lon="0.51484">
        <ele>1369</ele>
        <time>2020-02-01T09:09:45.000Z</time>
      </trkpt>
      <trkpt lat="42.84966" lon="0.51482">
        <ele>1369.3</ele>
        <time>2020-02-01T09:09:46.000Z</time>
      </trkpt>
      <trkpt lat="42.84967" lon="0.51481">
        <ele>1369.7</ele>
        <time>2020-02-01T09:09:47.000Z</time>
      </trkpt>
      <trkpt lat="42.84967" lon="0.5148">
        <ele>1370</ele>
        <time>2020-02-01T09:09:48.000Z</time>
      </trkpt>
      <trkpt lat="42.84967" lon="0.51479">
        <ele>1370</ele>
        <time>2020-02-01T09:09:49.000Z</time>
      </trkpt>
      <trkpt lat="42.84967" lon="0.51478">
        <ele>1370</ele>
        <time>2020-02-01T09:09:50.000Z</time>
      </trkpt>
      <trkpt lat="42.84968" lon="0.51477">
        <ele>1371</ele>
        <time>2020-02-01T09:09:51.000Z</time>
      </trkpt>
      <trkpt lat="42.84968" lon="0.51475">
        <ele>1371</ele>
        <time>2020-02-01T09:09:52.000Z</time>
      </trkpt>
      <trkpt lat="42.84968" lon="0.51474">
        <ele>1371</ele>
        <time>2020-02-01T09:09:53.000Z</time>
      </trkpt>
      <trkpt lat="42.84968" lon="0.51473">
        <ele>1371</ele>
        <time>2020-02-01T09:09:54.000Z</time>
      </trkpt>
      <trkpt lat="42.84968" lon="0.51472">
        <ele>1371</ele>
        <time>2020-02-01T09:09:55.000Z</time>
      </trkpt>
      <trkpt lat="42.84968" lon="0.51471">
        <ele>1371</ele>
        <time>2020-02-01T09:09:56.000Z</time>
      </trkpt>
      <trkpt lat="42.84968" lon="0.5147">
        <ele>1371</ele>
        <time>2020-02-01T09:09:57.000Z</time>
      </trkpt>
      <trkpt lat="42.84969" lon="0.51469">
        <ele>1371</ele>
        <time>2020-02-01T09:09:58.000Z</time>
      </trkpt>
      <trkpt lat="42.84969" lon="0.51468">
        <ele>1372</ele>
        <time>2020-02-01T09:09:59.000Z</time>
      </trkpt>
      <trkpt lat="42.84969" lon="0.51466">
        <ele>1372</ele>
        <time>2020-02-01T09:10:00.000Z</time>
      </trkpt>
      <trkpt lat="42.84969" lon="0.51465">
        <ele>1372</ele>
        <time>2020-02-01T09:10:01.000Z</time>
      </trkpt>
      <trkpt lat="42.84969" lon="0.51464">
        <ele>1372</ele>
        <time>2020-02-01T09:10:02.000Z</time>
      </trkpt>
      <trkpt lat="42.84969" lon="0.51463">
        <ele>1372</ele>
        <time>2020-02-01T09:10:03.000Z</time>
      </trkpt>
      <trkpt lat="42.84968" lon="0.51462">
        <ele>1372</ele>
        <time>2020-02-01T09:10:04.000Z</time>
      </trkpt>
      <trkpt lat="42.84968" lon="0.51461">
        <ele>1372.5</ele>
        <time>2020-02-01T09:10:05.000Z</time>
      </trkpt>
      <trkpt lat="42.84968" lon="0.5146">
        <ele>1373</ele>
        <time>2020-02-01T09:10:06.000Z</time>
      </trkpt>
      <trkpt lat="42.84968" lon="0.51459">
        <ele>1373</ele>
        <time>2020-02-01T09:10:07.000Z</time>
      </trkpt>
      <trkpt lat="42.84968" lon="0.51459">
        <ele>1373</ele>
        <time>2020-02-01T09:10:08.000Z</time>
      </trkpt>
      <trkpt lat="42.84968" lon="0.51458">
        <ele>1373</ele>
        <time>2020-02-01T09:10:09.000Z</time>
      </trkpt>
      <trkpt lat="42.84968" lon="0.51457">
        <ele>1373</ele>
        <time>2020-02-01T09:10:10.000Z</time>
      </trkpt>
      <trkpt lat="42.84968" lon="0.51456">
        <ele>1373</ele>
        <time>2020-02-01T09:10:11.000Z</time>
      </trkpt>
      <trkpt lat="42.84968" lon="0.51455">
        <ele>1373</ele>
        <time>2020-02-01T09:10:12.000Z</time>
      </trkpt>
      <trkpt lat="42.84968" lon="0.51454">
        <ele>1373.5</ele>
        <time>2020-02-01T09:10:13.000Z</time>
      </trkpt>
      <trkpt lat="42.84969" lon="0.51453">
        <ele>1374</ele>
        <time>2020-02-01T09:10:14.000Z</time>
      </trkpt>
      <trkpt lat="42.84969" lon="0.51452">
        <ele>1374</ele>
        <time>2020-02-01T09:10:15.000Z</time>
      </trkpt>
      <trkpt lat="42.84969" lon="0.51451">
        <ele>1374</ele>
        <time>2020-02-01T09:10:16.000Z</time>
      </trkpt>
      <trkpt lat="42.84969" lon="0.51451">
        <ele>1374</ele>
        <time>2020-02-01T09:10:17.000Z</time>
      </trkpt>
      <trkpt lat="42.84969" lon="0.5145">
        <ele>1374</ele>
        <time>2020-02-01T09:10:18.000Z</time>
      </trkpt>
      <trkpt lat="42.84969" lon="0.51449">
        <ele>1375</ele>
        <time>2020-02-01T09:10:19.000Z</time>
      </trkpt>
      <trkpt lat="42.8497" lon="0.51448">
        <ele>1375</ele>
        <time>2020-02-01T09:10:20.000Z</time>
      </trkpt>
      <trkpt lat="42.8497" lon="0.51447">
        <ele>1375</ele>
        <time>2020-02-01T09:10:21.000Z</time>
      </trkpt>
      <trkpt lat="42.8497" lon="0.51446">
        <ele>1375</ele>
        <time>2020-02-01T09:10:22.000Z</time>
      </trkpt>
      <trkpt lat="42.8497" lon="0.51445">
        <ele>1375</ele>
        <time>2020-02-01T09:10:23.000Z</time>
      </trkpt>
      <trkpt lat="42.8497" lon="0.51444">
        <ele>1375</ele>
        <time>2020-02-01T09:10:24.000Z</time>
      </trkpt>
      <trkpt lat="42.84971" lon="0.51443">
        <ele>1375</ele>
        <time>2020-02-01T09:10:25.000Z</time>
      </trkpt>
      <trkpt lat="42.84971" lon="0.51442">
        <ele>1375</ele>
        <time>2020-02-01T09:10:26.000Z</time>
      </trkpt>
      <trkpt lat="42.84971" lon="0.51441">
        <ele>1375</ele>
        <time>2020-02-01T09:10:27.000Z</time>
      </trkpt>
      <trkpt lat="42.84971" lon="0.5144">
        <ele>1375</ele>
        <time>2020-02-01T09:10:28.000Z</time>
      </trkpt>
      <trkpt lat="42.84971" lon="0.51439">
        <ele>1375</ele>
        <time>2020-02-01T09:10:29.000Z</time>
      </trkpt>
      <trkpt lat="42.84971" lon="0.51438">
        <ele>1375</ele>
        <time>2020-02-01T09:10:30.000Z</time>
      </trkpt>
      <trkpt lat="42.84971" lon="0.51437">
        <ele>1375</ele>
        <time>2020-02-01T09:10:31.000Z</time>
      </trkpt>
      <trkpt lat="42.84971" lon="0.51436">
        <ele>1375.3</ele>
        <time>2020-02-01T09:10:32.000Z</time>
      </trkpt>
      <trkpt lat="42.84971" lon="0.51434">
        <ele>1375.7</ele>
        <time>2020-02-01T09:10:33.000Z</time>
      </trkpt>
      <trkpt lat="42.84971" lon="0.51433">
        <ele>1376</ele>
        <time>2020-02-01T09:10:34.000Z</time>
      </trkpt>
      <trkpt lat="42.84971" lon="0.51432">
        <ele>1376</ele>
        <time>2020-02-01T09:10:35.000Z</time>
      </trkpt>
      <trkpt lat="42.84971" lon="0.51431">
        <ele>1376</ele>
        <time>2020-02-01T09:10:36.000Z</time>
      </trkpt>
      <trkpt lat="42.8497" lon="0.5143">
        <ele>1376</ele>
        <time>2020-02-01T09:10:37.000Z</time>
      </trkpt>
      <trkpt lat="42.8497" lon="0.51428">
        <ele>1376</ele>
        <time>2020-02-01T09:10:38.000Z</time>
      </trkpt>
      <trkpt lat="42.8497" lon="0.51427">
        <ele>1376.5</ele>
        <time>2020-02-01T09:10:39.000Z</time>
      </trkpt>
      <trkpt lat="42.8497" lon="0.51426">
        <ele>1377</ele>
        <time>2020-02-01T09:10:40.000Z</time>
      </trkpt>
      <trkpt lat="42.8497" lon="0.51425">
        <ele>1377</ele>
        <time>2020-02-01T09:10:41.000Z</time>
      </trkpt>
      <trkpt lat="42.8497" lon="0.51424">
        <ele>1377</ele>
        <time>2020-02-01T09:10:42.000Z</time>
      </trkpt>
      <trkpt lat="42.8497" lon="0.51423">
        <ele>1377</ele>
        <time>2020-02-01T09:10:43.000Z</time>
      </trkpt>
      <trkpt lat="42.8497" lon="0.51422">
        <ele>1377</ele>
        <time>2020-02-01T09:10:44.000Z</time>
      </trkpt>
      <trkpt lat="42.8497" lon="0.51422">
        <ele>1377.5</ele>
        <time>2020-02-01T09:10:45.000Z</time>
      </trkpt>
      <trkpt lat="42.8497" lon="0.51421">
        <ele>1378</ele>
        <time>2020-02-01T09:10:46.000Z</time>
      </trkpt>
      <trkpt lat="42.8497" lon="0.5142">
        <ele>1378</ele>
        <time>2020-02-01T09:10:47.000Z</time>
      </trkpt>
      <trkpt lat="42.8497" lon="0.5142">
        <ele>1378</ele>
        <time>2020-02-01T09:10:48.000Z</time>
      </trkpt>
      <trkpt lat="42.8497" lon="0.51419">
        <ele>1378</ele>
        <time>2020-02-01T09:10:49.000Z</time>
      </trkpt>
      <trkpt lat="42.8497" lon="0.51418">
        <ele>1378</ele>
        <time>2020-02-01T09:10:50.000Z</time>
      </trkpt>
      <trkpt lat="42.84971" lon="0.51418">
        <ele>1378.5</ele>
        <time>2020-02-01T09:10:51.000Z</time>
      </trkpt>
      <trkpt lat="42.84971" lon="0.51417">
        <ele>1379</ele>
        <time>2020-02-01T09:10:52.000Z</time>
      </trkpt>
      <trkpt lat="42.84971" lon="0.51416">
        <ele>1379</ele>
        <time>2020-02-01T09:10:53.000Z</time>
      </trkpt>
      <trkpt lat="42.84972" lon="0.51416">
        <ele>1379</ele>
        <time>2020-02-01T09:10:54.000Z</time>
      </trkpt>
      <trkpt lat="42.84972" lon="0.51415">
        <ele>1379</ele>
        <time>2020-02-01T09:10:55.000Z</time>
      </trkpt>
      <trkpt lat="42.84972" lon="0.51414">
        <ele>1379</ele>
        <time>2020-02-01T09:10:56.000Z</time>
      </trkpt>
      <trkpt lat="42.84972" lon="0.51413">
        <ele>1379</ele>
        <time>2020-02-01T09:10:57.000Z</time>
      </trkpt>
      <trkpt lat="42.84972" lon="0.51412">
        <ele>1379.3</ele>
        <time>2020-02-01T09:10:58.000Z</time>
      </trkpt>
      <trkpt lat="42.84971" lon="0.51411">
        <ele>1379.7</ele>
        <time>2020-02-01T09:10:59.000Z</time>
      </trkpt>
      <trkpt lat="42.84971" lon="0.5141">
        <ele>1380</ele>
        <time>2020-02-01T09:11:00.000Z</time>
      </trkpt>
      <trkpt lat="42.8497" lon="0.51409">
        <ele>1380</ele>
        <time>2020-02-01T09:11:01.000Z</time>
      </trkpt>
      <trkpt lat="42.84969" lon="0.51408">
        <ele>1380</ele>
        <time>2020-02-01T09:11:02.000Z</time>
      </trkpt>
      <trkpt lat="42.84968" lon="0.51407">
        <ele>1380</ele>
        <time>2020-02-01T09:11:03.000Z</time>
      </trkpt>
      <trkpt lat="42.84968" lon="0.51406">
        <ele>1380</ele>
        <time>2020-02-01T09:11:04.000Z</time>
      </trkpt>
      <trkpt lat="42.84967" lon="0.51405">
        <ele>1380.5</ele>
        <time>2020-02-01T09:11:05.000Z</time>
      </trkpt>
      <trkpt lat="42.84967" lon="0.51405">
        <ele>1381</ele>
        <time>2020-02-01T09:11:06.000Z</time>
      </trkpt>
      <trkpt lat="42.84967" lon="0.51404">
        <ele>1381</ele>
        <time>2020-02-01T09:11:07.000Z</time>
      </trkpt>
      <trkpt lat="42.84966" lon="0.51404">
        <ele>1381</ele>
        <time>2020-02-01T09:11:08.000Z</time>
      </trkpt>
      <trkpt lat="42.84966" lon="0.51403">
        <ele>1381</ele>
        <time>2020-02-01T09:11:09.000Z</time>
      </trkpt>
      <trkpt lat="42.84965" lon="0.51402">
        <ele>1381</ele>
        <time>2020-02-01T09:11:10.000Z</time>
      </trkpt>
      <trkpt lat="42.84965" lon="0.51401">
        <ele>1381</ele>
        <time>2020-02-01T09:11:11.000Z</time>
      </trkpt>
      <trkpt lat="42.84964" lon="0.514">
        <ele>1381.3</ele>
        <time>2020-02-01T09:11:12.000Z</time>
      </trkpt>
      <trkpt lat="42.84963" lon="0.514">
        <ele>1381.7</ele>
        <time>2020-02-01T09:11:13.000Z</time>
      </trkpt>
      <trkpt lat="42.84962" lon="0.51399">
        <ele>1382</ele>
        <time>2020-02-01T09:11:14.000Z</time>
      </trkpt>
      <trkpt lat="42.84961" lon="0.51398">
        <ele>1382</ele>
        <time>2020-02-01T09:11:15.000Z</time>
      </trkpt>
      <trkpt lat="42.84959" lon="0.51397">
        <ele>1382</ele>
        <time>2020-02-01T09:11:16.000Z</time>
      </trkpt>
      <trkpt lat="42.84958" lon="0.51397">
        <ele>1382</ele>
        <time>2020-02-01T09:11:17.000Z</time>
      </trkpt>
      <trkpt lat="42.84958" lon="0.51396">
        <ele>1382</ele>
        <time>2020-02-01T09:11:18.000Z</time>
      </trkpt>
      <trkpt lat="42.84957" lon="0.51396">
        <ele>1382.5</ele>
        <time>2020-02-01T09:11:19.000Z</time>
      </trkpt>
      <trkpt lat="42.84957" lon="0.51395">
        <ele>1383</ele>
        <time>2020-02-01T09:11:20.000Z</time>
      </trkpt>
      <trkpt lat="42.84957" lon="0.51395">
        <ele>1383</ele>
        <time>2020-02-01T09:11:21.000Z</time>
      </trkpt>
      <trkpt lat="42.84957" lon="0.51395">
        <ele>1383</ele>
        <time>2020-02-01T09:11:22.000Z</time>
      </trkpt>
      <trkpt lat="42.84957" lon="0.51395">
        <ele>1383</ele>
        <time>2020-02-01T09:11:23.000Z</time>
      </trkpt>
      <trkpt lat="42.84956" lon="0.51394">
        <ele>1383</ele>
        <time>2020-02-01T09:11:24.000Z</time>
      </trkpt>
      <trkpt lat="42.84956" lon="0.51394">
        <ele>1383</ele>
        <time>2020-02-01T09:11:25.000Z</time>
      </trkpt>
      <trkpt lat="42.84956" lon="0.51394">
        <ele>1383</ele>
        <time>2020-02-01T09:11:26.000Z</time>
      </trkpt>
      <trkpt lat="42.84956" lon="0.51393">
        <ele>1383</ele>
        <time>2020-02-01T09:11:27.000Z</time>
      </trkpt>
      <trkpt lat="42.84956" lon="0.51393">
        <ele>1383</ele>
        <time>2020-02-01T09:11:28.000Z</time>
      </trkpt>
      <trkpt lat="42.84955" lon="0.51392">
        <ele>1383.5</ele>
        <time>2020-02-01T09:11:29.000Z</time>
      </trkpt>
      <trkpt lat="42.84955" lon="0.51392">
        <ele>1384</ele>
        <time>2020-02-01T09:11:30.000Z</time>
      </trkpt>
      <trkpt lat="42.84955" lon="0.51391">
        <ele>1384</ele>
        <time>2020-02-01T09:11:31.000Z</time>
      </trkpt>
      <trkpt lat="42.84955" lon="0.5139">
        <ele>1384</ele>
        <time>2020-02-01T09:11:32.000Z</time>
      </trkpt>
      <trkpt lat="42.84955" lon="0.51389">
        <ele>1384</ele>
        <time>2020-02-01T09:11:33.000Z</time>
      </trkpt>
      <trkpt lat="42.84956" lon="0.51388">
        <ele>1384</ele>
        <time>2020-02-01T09:11:34.000Z</time>
      </trkpt>
      <trkpt lat="42.84956" lon="0.51387">
        <ele>1384</ele>
        <time>2020-02-01T09:11:35.000Z</time>
      </trkpt>
      <trkpt lat="42.84956" lon="0.51386">
        <ele>1384</ele>
        <time>2020-02-01T09:11:36.000Z</time>
      </trkpt>
      <trkpt lat="42.84956" lon="0.51385">
        <ele>1384</ele>
        <time>2020-02-01T09:11:37.000Z</time>
      </trkpt>
      <trkpt lat="42.84956" lon="0.51384">
        <ele>1384</ele>
        <time>2020-02-01T09:11:38.000Z</time>
      </trkpt>
      <trkpt lat="42.84956" lon="0.51383">
        <ele>1385</ele>
        <time>2020-02-01T09:11:39.000Z</time>
      </trkpt>
      <trkpt lat="42.84956" lon="0.51382">
        <ele>1385</ele>
        <time>2020-02-01T09:11:40.000Z</time>
      </trkpt>
      <trkpt lat="42.84956" lon="0.51381">
        <ele>1385</ele>
        <time>2020-02-01T09:11:41.000Z</time>
      </trkpt>
      <trkpt lat="42.84956" lon="0.51381">
        <ele>1385</ele>
        <time>2020-02-01T09:11:42.000Z</time>
      </trkpt>
      <trkpt lat="42.84956" lon="0.5138">
        <ele>1385</ele>
        <time>2020-02-01T09:11:43.000Z</time>
      </trkpt>
      <trkpt lat="42.84956" lon="0.5138">
        <ele>1385</ele>
        <time>2020-02-01T09:11:44.000Z</time>
      </trkpt>
      <trkpt lat="42.84955" lon="0.51379">
        <ele>1385</ele>
        <time>2020-02-01T09:11:45.000Z</time>
      </trkpt>
      <trkpt lat="42.84955" lon="0.51378">
        <ele>1385.5</ele>
        <time>2020-02-01T09:11:46.000Z</time>
      </trkpt>
      <trkpt lat="42.84955" lon="0.51377">
        <ele>1386</ele>
        <time>2020-02-01T09:11:47.000Z</time>
      </trkpt>
      <trkpt lat="42.84954" lon="0.51376">
        <ele>1386</ele>
        <time>2020-02-01T09:11:48.000Z</time>
      </trkpt>
      <trkpt lat="42.84954" lon="0.51375">
        <ele>1386</ele>
        <time>2020-02-01T09:11:49.000Z</time>
      </trkpt>
      <trkpt lat="42.84954" lon="0.51374">
        <ele>1386</ele>
        <time>2020-02-01T09:11:50.000Z</time>
      </trkpt>
      <trkpt lat="42.84954" lon="0.51373">
        <ele>1386.3</ele>
        <time>2020-02-01T09:11:51.000Z</time>
      </trkpt>
      <trkpt lat="42.84954" lon="0.51372">
        <ele>1386.7</ele>
        <time>2020-02-01T09:11:52.000Z</time>
      </trkpt>
      <trkpt lat="42.84953" lon="0.51371">
        <ele>1387</ele>
        <time>2020-02-01T09:11:53.000Z</time>
      </trkpt>
      <trkpt lat="42.84953" lon="0.5137">
        <ele>1387</ele>
        <time>2020-02-01T09:11:54.000Z</time>
      </trkpt>
      <trkpt lat="42.84953" lon="0.51369">
        <ele>1387</ele>
        <time>2020-02-01T09:11:55.000Z</time>
      </trkpt>
      <trkpt lat="42.84952" lon="0.51368">
        <ele>1387</ele>
        <time>2020-02-01T09:11:56.000Z</time>
      </trkpt>
      <trkpt lat="42.84952" lon="0.51367">
        <ele>1387</ele>
        <time>2020-02-01T09:11:57.000Z</time>
      </trkpt>
      <trkpt lat="42.84952" lon="0.51366">
        <ele>1387.5</ele>
        <time>2020-02-01T09:11:58.000Z</time>
      </trkpt>
      <trkpt lat="42.84952" lon="0.51365">
        <ele>1388</ele>
        <time>2020-02-01T09:11:59.000Z</time>
      </trkpt>
      <trkpt lat="42.84951" lon="0.51364">
        <ele>1388</ele>
        <time>2020-02-01T09:12:00.000Z</time>
      </trkpt>
      <trkpt lat="42.84951" lon="0.51363">
        <ele>1388</ele>
        <time>2020-02-01T09:12:01.000Z</time>
      </trkpt>
      <trkpt lat="42.84951" lon="0.51362">
        <ele>1388</ele>
        <time>2020-02-01T09:12:02.000Z</time>
      </trkpt>
      <trkpt lat="42.84951" lon="0.5136">
        <ele>1388</ele>
        <time>2020-02-01T09:12:03.000Z</time>
      </trkpt>
      <trkpt lat="42.84951" lon="0.51359">
        <ele>1388.5</ele>
        <time>2020-02-01T09:12:04.000Z</time>
      </trkpt>
      <trkpt lat="42.84951" lon="0.51358">
        <ele>1389</ele>
        <time>2020-02-01T09:12:05.000Z</time>
      </trkpt>
      <trkpt lat="42.8495" lon="0.51357">
        <ele>1389</ele>
        <time>2020-02-01T09:12:06.000Z</time>
      </trkpt>
      <trkpt lat="42.8495" lon="0.51356">
        <ele>1389</ele>
        <time>2020-02-01T09:12:07.000Z</time>
      </trkpt>
      <trkpt lat="42.8495" lon="0.51355">
        <ele>1389</ele>
        <time>2020-02-01T09:12:08.000Z</time>
      </trkpt>
      <trkpt lat="42.8495" lon="0.51354">
        <ele>1389</ele>
        <time>2020-02-01T09:12:09.000Z</time>
      </trkpt>
      <trkpt lat="42.84949" lon="0.51354">
        <ele>1389</ele>
        <time>2020-02-01T09:12:10.000Z</time>
      </trkpt>
      <trkpt lat="42.84949" lon="0.51353">
        <ele>1389</ele>
        <time>2020-02-01T09:12:11.000Z</time>
      </trkpt>
      <trkpt lat="42.84949" lon="0.51352">
        <ele>1389</ele>
        <time>2020-02-01T09:12:12.000Z</time>
      </trkpt>
      <trkpt lat="42.84948" lon="0.51352">
        <ele>1389</ele>
        <time>2020-02-01T09:12:13.000Z</time>
      </trkpt>
      <trkpt lat="42.84947" lon="0.51351">
        <ele>1389.5</ele>
        <time>2020-02-01T09:12:14.000Z</time>
      </trkpt>
      <trkpt lat="42.84947" lon="0.51351">
        <ele>1390</ele>
        <time>2020-02-01T09:12:15.000Z</time>
      </trkpt>
      <trkpt lat="42.84946" lon="0.5135">
        <ele>1390</ele>
        <time>2020-02-01T09:12:16.000Z</time>
      </trkpt>
      <trkpt lat="42.84945" lon="0.5135">
        <ele>1390</ele>
        <time>2020-02-01T09:12:17.000Z</time>
      </trkpt>
      <trkpt lat="42.84945" lon="0.5135">
        <ele>1390</ele>
        <time>2020-02-01T09:12:18.000Z</time>
      </trkpt>
      <trkpt lat="42.84944" lon="0.51349">
        <ele>1390</ele>
        <time>2020-02-01T09:12:19.000Z</time>
      </trkpt>
      <trkpt lat="42.84943" lon="0.51349">
        <ele>1390</ele>
        <time>2020-02-01T09:12:20.000Z</time>
      </trkpt>
      <trkpt lat="42.84942" lon="0.51349">
        <ele>1390</ele>
        <time>2020-02-01T09:12:21.000Z</time>
      </trkpt>
      <trkpt lat="42.84942" lon="0.51348">
        <ele>1390.5</ele>
        <time>2020-02-01T09:12:22.000Z</time>
      </trkpt>
      <trkpt lat="42.84941" lon="0.51348">
        <ele>1391</ele>
        <time>2020-02-01T09:12:23.000Z</time>
      </trkpt>
      <trkpt lat="42.8494" lon="0.51348">
        <ele>1391</ele>
        <time>2020-02-01T09:12:24.000Z</time>
      </trkpt>
      <trkpt lat="42.84939" lon="0.51347">
        <ele>1391</ele>
        <time>2020-02-01T09:12:25.000Z</time>
      </trkpt>
      <trkpt lat="42.84939" lon="0.51347">
        <ele>1391</ele>
        <time>2020-02-01T09:12:26.000Z</time>
      </trkpt>
      <trkpt lat="42.84938" lon="0.51347">
        <ele>1391</ele>
        <time>2020-02-01T09:12:27.000Z</time>
      </trkpt>
      <trkpt lat="42.84937" lon="0.51346">
        <ele>1391</ele>
        <time>2020-02-01T09:12:28.000Z</time>
      </trkpt>
      <trkpt lat="42.84937" lon="0.51346">
        <ele>1391</ele>
        <time>2020-02-01T09:12:29.000Z</time>
      </trkpt>
      <trkpt lat="42.84936" lon="0.51345">
        <ele>1391.5</ele>
        <time>2020-02-01T09:12:30.000Z</time>
      </trkpt>
      <trkpt lat="42.84936" lon="0.51345">
        <ele>1392</ele>
        <time>2020-02-01T09:12:31.000Z</time>
      </trkpt>
      <trkpt lat="42.84935" lon="0.51344">
        <ele>1392</ele>
        <time>2020-02-01T09:12:32.000Z</time>
      </trkpt>
      <trkpt lat="42.84935" lon="0.51344">
        <ele>1392</ele>
        <time>2020-02-01T09:12:33.000Z</time>
      </trkpt>
      <trkpt lat="42.84935" lon="0.51343">
        <ele>1392</ele>
        <time>2020-02-01T09:12:34.000Z</time>
      </trkpt>
      <trkpt lat="42.84934" lon="0.51343">
        <ele>1392</ele>
        <time>2020-02-01T09:12:35.000Z</time>
      </trkpt>
      <trkpt lat="42.84934" lon="0.51342">
        <ele>1393</ele>
        <time>2020-02-01T09:12:36.000Z</time>
      </trkpt>
      <trkpt lat="42.84934" lon="0.51342">
        <ele>1393</ele>
        <time>2020-02-01T09:12:37.000Z</time>
      </trkpt>
      <trkpt lat="42.84933" lon="0.51341">
        <ele>1393</ele>
        <time>2020-02-01T09:12:38.000Z</time>
      </trkpt>
      <trkpt lat="42.84933" lon="0.51341">
        <ele>1393</ele>
        <time>2020-02-01T09:12:39.000Z</time>
      </trkpt>
      <trkpt lat="42.84932" lon="0.5134">
        <ele>1393</ele>
        <time>2020-02-01T09:12:40.000Z</time>
      </trkpt>
      <trkpt lat="42.84932" lon="0.51339">
        <ele>1393</ele>
        <time>2020-02-01T09:12:41.000Z</time>
      </trkpt>
      <trkpt lat="42.84931" lon="0.51339">
        <ele>1393</ele>
        <time>2020-02-01T09:12:42.000Z</time>
      </trkpt>
      <trkpt lat="42.84931" lon="0.51338">
        <ele>1393</ele>
        <time>2020-02-01T09:12:43.000Z</time>
      </trkpt>
      <trkpt lat="42.8493" lon="0.51337">
        <ele>1393.5</ele>
        <time>2020-02-01T09:12:44.000Z</time>
      </trkpt>
      <trkpt lat="42.8493" lon="0.51337">
        <ele>1394</ele>
        <time>2020-02-01T09:12:45.000Z</time>
      </trkpt>
      <trkpt lat="42.84929" lon="0.51336">
        <ele>1394</ele>
        <time>2020-02-01T09:12:46.000Z</time>
      </trkpt>
      <trkpt lat="42.84928" lon="0.51335">
        <ele>1394</ele>
        <time>2020-02-01T09:12:47.000Z</time>
      </trkpt>
      <trkpt lat="42.84928" lon="0.51335">
        <ele>1394</ele>
        <time>2020-02-01T09:12:48.000Z</time>
      </trkpt>
      <trkpt lat="42.84927" lon="0.51334">
        <ele>1394</ele>
        <time>2020-02-01T09:12:49.000Z</time>
      </trkpt>
      <trkpt lat="42.84927" lon="0.51334">
        <ele>1394</ele>
        <time>2020-02-01T09:12:50.000Z</time>
      </trkpt>
      <trkpt lat="42.84926" lon="0.51333">
        <ele>1394</ele>
        <time>2020-02-01T09:12:51.000Z</time>
      </trkpt>
      <trkpt lat="42.84926" lon="0.51333">
        <ele>1395</ele>
        <time>2020-02-01T09:12:52.000Z</time>
      </trkpt>
      <trkpt lat="42.84925" lon="0.51332">
        <ele>1395</ele>
        <time>2020-02-01T09:12:53.000Z</time>
      </trkpt>
      <trkpt lat="42.84925" lon="0.51331">
        <ele>1395</ele>
        <time>2020-02-01T09:12:54.000Z</time>
      </trkpt>
      <trkpt lat="42.84925" lon="0.51331">
        <ele>1395</ele>
        <time>2020-02-01T09:12:55.000Z</time>
      </trkpt>
      <trkpt lat="42.84924" lon="0.5133">
        <ele>1395</ele>
        <time>2020-02-01T09:12:56.000Z</time>
      </trkpt>
      <trkpt lat="42.84924" lon="0.51329">
        <ele>1395</ele>
        <time>2020-02-01T09:12:57.000Z</time>
      </trkpt>
      <trkpt lat="42.84923" lon="0.51329">
        <ele>1395</ele>
        <time>2020-02-01T09:12:58.000Z</time>
      </trkpt>
      <trkpt lat="42.84923" lon="0.51328">
        <ele>1395.5</ele>
        <time>2020-02-01T09:12:59.000Z</time>
      </trkpt>
      <trkpt lat="42.84923" lon="0.51327">
        <ele>1396</ele>
        <time>2020-02-01T09:13:00.000Z</time>
      </trkpt>
      <trkpt lat="42.84922" lon="0.51326">
        <ele>1396</ele>
        <time>2020-02-01T09:13:01.000Z</time>
      </trkpt>
      <trkpt lat="42.84922" lon="0.51325">
        <ele>1396</ele>
        <time>2020-02-01T09:13:02.000Z</time>
      </trkpt>
      <trkpt lat="42.84921" lon="0.51325">
        <ele>1396</ele>
        <time>2020-02-01T09:13:03.000Z</time>
      </trkpt>
      <trkpt lat="42.84921" lon="0.51324">
        <ele>1396</ele>
        <time>2020-02-01T09:13:04.000Z</time>
      </trkpt>
      <trkpt lat="42.84921" lon="0.51323">
        <ele>1396</ele>
        <time>2020-02-01T09:13:05.000Z</time>
      </trkpt>
      <trkpt lat="42.8492" lon="0.51323">
        <ele>1396.3</ele>
        <time>2020-02-01T09:13:06.000Z</time>
      </trkpt>
      <trkpt lat="42.8492" lon="0.51322">
        <ele>1396.7</ele>
        <time>2020-02-01T09:13:07.000Z</time>
      </trkpt>
      <trkpt lat="42.8492" lon="0.51322">
        <ele>1397</ele>
        <time>2020-02-01T09:13:08.000Z</time>
      </trkpt>
      <trkpt lat="42.84919" lon="0.51321">
        <ele>1397</ele>
        <time>2020-02-01T09:13:09.000Z</time>
      </trkpt>
      <trkpt lat="42.84919" lon="0.51321">
        <ele>1397</ele>
        <time>2020-02-01T09:13:10.000Z</time>
      </trkpt>
      <trkpt lat="42.84919" lon="0.51321">
        <ele>1397</ele>
        <time>2020-02-01T09:13:11.000Z</time>
      </trkpt>
      <trkpt lat="42.84918" lon="0.5132">
        <ele>1397</ele>
        <time>2020-02-01T09:13:12.000Z</time>
      </trkpt>
      <trkpt lat="42.84918" lon="0.5132">
        <ele>1398</ele>
        <time>2020-02-01T09:13:13.000Z</time>
      </trkpt>
      <trkpt lat="42.84917" lon="0.5132">
        <ele>1398</ele>
        <time>2020-02-01T09:13:14.000Z</time>
      </trkpt>
      <trkpt lat="42.84916" lon="0.51319">
        <ele>1398</ele>
        <time>2020-02-01T09:13:15.000Z</time>
      </trkpt>
      <trkpt lat="42.84916" lon="0.51319">
        <ele>1398</ele>
        <time>2020-02-01T09:13:16.000Z</time>
      </trkpt>
      <trkpt lat="42.84915" lon="0.51318">
        <ele>1398</ele>
        <time>2020-02-01T09:13:17.000Z</time>
      </trkpt>
      <trkpt lat="42.84914" lon="0.51318">
        <ele>1398</ele>
        <time>2020-02-01T09:13:18.000Z</time>
      </trkpt>
      <trkpt lat="42.84913" lon="0.51317">
        <ele>1398</ele>
        <time>2020-02-01T09:13:19.000Z</time>
      </trkpt>
      <trkpt lat="42.84912" lon="0.51317">
        <ele>1398</ele>
        <time>2020-02-01T09:13:20.000Z</time>
      </trkpt>
      <trkpt lat="42.84912" lon="0.51316">
        <ele>1398.5</ele>
        <time>2020-02-01T09:13:21.000Z</time>
      </trkpt>
      <trkpt lat="42.84911" lon="0.51315">
        <ele>1399</ele>
        <time>2020-02-01T09:13:22.000Z</time>
      </trkpt>
      <trkpt lat="42.84911" lon="0.51314">
        <ele>1399</ele>
        <time>2020-02-01T09:13:23.000Z</time>
      </trkpt>
      <trkpt lat="42.8491" lon="0.51314">
        <ele>1399</ele>
        <time>2020-02-01T09:13:24.000Z</time>
      </trkpt>
      <trkpt lat="42.8491" lon="0.51313">
        <ele>1399</ele>
        <time>2020-02-01T09:13:25.000Z</time>
      </trkpt>
      <trkpt lat="42.8491" lon="0.51312">
        <ele>1399</ele>
        <time>2020-02-01T09:13:26.000Z</time>
      </trkpt>
      <trkpt lat="42.84909" lon="0.51312">
        <ele>1399</ele>
        <time>2020-02-01T09:13:27.000Z</time>
      </trkpt>
      <trkpt lat="42.84909" lon="0.51311">
        <ele>1399</ele>
        <time>2020-02-01T09:13:28.000Z</time>
      </trkpt>
      <trkpt lat="42.84909" lon="0.51311">
        <ele>1399.5</ele>
        <time>2020-02-01T09:13:29.000Z</time>
      </trkpt>
      <trkpt lat="42.84909" lon="0.5131">
        <ele>1400</ele>
        <time>2020-02-01T09:13:30.000Z</time>
      </trkpt>
      <trkpt lat="42.84908" lon="0.51309">
        <ele>1400</ele>
        <time>2020-02-01T09:13:31.000Z</time>
      </trkpt>
      <trkpt lat="42.84908" lon="0.51309">
        <ele>1400</ele>
        <time>2020-02-01T09:13:32.000Z</time>
      </trkpt>
      <trkpt lat="42.84908" lon="0.51308">
        <ele>1400</ele>
        <time>2020-02-01T09:13:33.000Z</time>
      </trkpt>
      <trkpt lat="42.84908" lon="0.51308">
        <ele>1400</ele>
        <time>2020-02-01T09:13:34.000Z</time>
      </trkpt>
      <trkpt lat="42.84908" lon="0.51307">
        <ele>1401</ele>
        <time>2020-02-01T09:13:35.000Z</time>
      </trkpt>
      <trkpt lat="42.84908" lon="0.51306">
        <ele>1401</ele>
        <time>2020-02-01T09:13:36.000Z</time>
      </trkpt>
      <trkpt lat="42.84908" lon="0.51306">
        <ele>1401</ele>
        <time>2020-02-01T09:13:37.000Z</time>
      </trkpt>
      <trkpt lat="42.84907" lon="0.51305">
        <ele>1401</ele>
        <time>2020-02-01T09:13:38.000Z</time>
      </trkpt>
      <trkpt lat="42.84907" lon="0.51304">
        <ele>1401</ele>
        <time>2020-02-01T09:13:39.000Z</time>
      </trkpt>
      <trkpt lat="42.84907" lon="0.51304">
        <ele>1401</ele>
        <time>2020-02-01T09:13:40.000Z</time>
      </trkpt>
      <trkpt lat="42.84907" lon="0.51303">
        <ele>1401.5</ele>
        <time>2020-02-01T09:13:41.000Z</time>
      </trkpt>
      <trkpt lat="42.84907" lon="0.51302">
        <ele>1402</ele>
        <time>2020-02-01T09:13:42.000Z</time>
      </trkpt>
      <trkpt lat="42.84907" lon="0.51302">
        <ele>1402</ele>
        <time>2020-02-01T09:13:43.000Z</time>
      </trkpt>
      <trkpt lat="42.84906" lon="0.51301">
        <ele>1402</ele>
        <time>2020-02-01T09:13:44.000Z</time>
      </trkpt>
      <trkpt lat="42.84906" lon="0.513">
        <ele>1402</ele>
        <time>2020-02-01T09:13:45.000Z</time>
      </trkpt>
      <trkpt lat="42.84906" lon="0.513">
        <ele>1402</ele>
        <time>2020-02-01T09:13:46.000Z</time>
      </trkpt>
      <trkpt lat="42.84905" lon="0.51299">
        <ele>1402.5</ele>
        <time>2020-02-01T09:13:47.000Z</time>
      </trkpt>
      <trkpt lat="42.84904" lon="0.51299">
        <ele>1403</ele>
        <time>2020-02-01T09:13:48.000Z</time>
      </trkpt>
      <trkpt lat="42.84904" lon="0.51298">
        <ele>1403</ele>
        <time>2020-02-01T09:13:49.000Z</time>
      </trkpt>
      <trkpt lat="42.84903" lon="0.51298">
        <ele>1403</ele>
        <time>2020-02-01T09:13:50.000Z</time>
      </trkpt>
      <trkpt lat="42.84902" lon="0.51297">
        <ele>1403</ele>
        <time>2020-02-01T09:13:51.000Z</time>
      </trkpt>
      <trkpt lat="42.84902" lon="0.51296">
        <ele>1403</ele>
        <time>2020-02-01T09:13:52.000Z</time>
      </trkpt>
      <trkpt lat="42.84901" lon="0.51296">
        <ele>1403</ele>
        <time>2020-02-01T09:13:53.000Z</time>
      </trkpt>
      <trkpt lat="42.84901" lon="0.51295">
        <ele>1403</ele>
        <time>2020-02-01T09:13:54.000Z</time>
      </trkpt>
      <trkpt lat="42.849" lon="0.51295">
        <ele>1403</ele>
        <time>2020-02-01T09:13:55.000Z</time>
      </trkpt>
      <trkpt lat="42.84899" lon="0.51294">
        <ele>1403</ele>
        <time>2020-02-01T09:13:56.000Z</time>
      </trkpt>
      <trkpt lat="42.84899" lon="0.51293">
        <ele>1403</ele>
        <time>2020-02-01T09:13:57.000Z</time>
      </trkpt>
      <trkpt lat="42.84899" lon="0.51293">
        <ele>1403</ele>
        <time>2020-02-01T09:13:58.000Z</time>
      </trkpt>
      <trkpt lat="42.84898" lon="0.51292">
        <ele>1403.5</ele>
        <time>2020-02-01T09:13:59.000Z</time>
      </trkpt>
      <trkpt lat="42.84898" lon="0.51291">
        <ele>1404</ele>
        <time>2020-02-01T09:14:00.000Z</time>
      </trkpt>
      <trkpt lat="42.84897" lon="0.51291">
        <ele>1404</ele>
        <time>2020-02-01T09:14:01.000Z</time>
      </trkpt>
      <trkpt lat="42.84897" lon="0.5129">
        <ele>1404</ele>
        <time>2020-02-01T09:14:02.000Z</time>
      </trkpt>
      <trkpt lat="42.84897" lon="0.5129">
        <ele>1404</ele>
        <time>2020-02-01T09:14:03.000Z</time>
      </trkpt>
      <trkpt lat="42.84896" lon="0.51289">
        <ele>1404</ele>
        <time>2020-02-01T09:14:04.000Z</time>
      </trkpt>
      <trkpt lat="42.84895" lon="0.51289">
        <ele>1404.5</ele>
        <time>2020-02-01T09:14:05.000Z</time>
      </trkpt>
      <trkpt lat="42.84894" lon="0.51289">
        <ele>1405</ele>
        <time>2020-02-01T09:14:06.000Z</time>
      </trkpt>
      <trkpt lat="42.84894" lon="0.51289">
        <ele>1405</ele>
        <time>2020-02-01T09:14:07.000Z</time>
      </trkpt>
      <trkpt lat="42.84893" lon="0.51289">
        <ele>1405</ele>
        <time>2020-02-01T09:14:08.000Z</time>
      </trkpt>
      <trkpt lat="42.84892" lon="0.51288">
        <ele>1405</ele>
        <time>2020-02-01T09:14:09.000Z</time>
      </trkpt>
      <trkpt lat="42.84891" lon="0.51288">
        <ele>1405</ele>
        <time>2020-02-01T09:14:10.000Z</time>
      </trkpt>
      <trkpt lat="42.8489" lon="0.51288">
        <ele>1405</ele>
        <time>2020-02-01T09:14:11.000Z</time>
      </trkpt>
      <trkpt lat="42.84889" lon="0.51288">
        <ele>1405</ele>
        <time>2020-02-01T09:14:12.000Z</time>
      </trkpt>
      <trkpt lat="42.84888" lon="0.51287">
        <ele>1405.5</ele>
        <time>2020-02-01T09:14:13.000Z</time>
      </trkpt>
      <trkpt lat="42.84887" lon="0.51287">
        <ele>1406</ele>
        <time>2020-02-01T09:14:14.000Z</time>
      </trkpt>
      <trkpt lat="42.84887" lon="0.51286">
        <ele>1406</ele>
        <time>2020-02-01T09:14:15.000Z</time>
      </trkpt>
      <trkpt lat="42.84887" lon="0.51286">
        <ele>1406</ele>
        <time>2020-02-01T09:14:16.000Z</time>
      </trkpt>
      <trkpt lat="42.84886" lon="0.51286">
        <ele>1406</ele>
        <time>2020-02-01T09:14:17.000Z</time>
      </trkpt>
      <trkpt lat="42.84886" lon="0.51285">
        <ele>1406</ele>
        <time>2020-02-01T09:14:18.000Z</time>
      </trkpt>
      <trkpt lat="42.84885" lon="0.51285">
        <ele>1406.5</ele>
        <time>2020-02-01T09:14:19.000Z</time>
      </trkpt>
      <trkpt lat="42.84885" lon="0.51284">
        <ele>1407</ele>
        <time>2020-02-01T09:14:20.000Z</time>
      </trkpt>
      <trkpt lat="42.84884" lon="0.51284">
        <ele>1407</ele>
        <time>2020-02-01T09:14:21.000Z</time>
      </trkpt>
      <trkpt lat="42.84883" lon="0.51283">
        <ele>1407</ele>
        <time>2020-02-01T09:14:22.000Z</time>
      </trkpt>
      <trkpt lat="42.84883" lon="0.51282">
        <ele>1407</ele>
        <time>2020-02-01T09:14:23.000Z</time>
      </trkpt>
      <trkpt lat="42.84882" lon="0.51281">
        <ele>1407</ele>
        <time>2020-02-01T09:14:24.000Z</time>
      </trkpt>
      <trkpt lat="42.84882" lon="0.5128">
        <ele>1407.5</ele>
        <time>2020-02-01T09:14:25.000Z</time>
      </trkpt>
      <trkpt lat="42.84881" lon="0.5128">
        <ele>1408</ele>
        <time>2020-02-01T09:14:26.000Z</time>
      </trkpt>
      <trkpt lat="42.84881" lon="0.51279">
        <ele>1408</ele>
        <time>2020-02-01T09:14:27.000Z</time>
      </trkpt>
      <trkpt lat="42.8488" lon="0.51278">
        <ele>1408</ele>
        <time>2020-02-01T09:14:28.000Z</time>
      </trkpt>
      <trkpt lat="42.8488" lon="0.51277">
        <ele>1408</ele>
        <time>2020-02-01T09:14:29.000Z</time>
      </trkpt>
      <trkpt lat="42.8488" lon="0.51276">
        <ele>1408</ele>
        <time>2020-02-01T09:14:30.000Z</time>
      </trkpt>
      <trkpt lat="42.84879" lon="0.51274">
        <ele>1408</ele>
        <time>2020-02-01T09:14:31.000Z</time>
      </trkpt>
      <trkpt lat="42.84879" lon="0.51273">
        <ele>1408</ele>
        <time>2020-02-01T09:14:32.000Z</time>
      </trkpt>
      <trkpt lat="42.84879" lon="0.51272">
        <ele>1408.5</ele>
        <time>2020-02-01T09:14:33.000Z</time>
      </trkpt>
      <trkpt lat="42.84879" lon="0.51271">
        <ele>1409</ele>
        <time>2020-02-01T09:14:34.000Z</time>
      </trkpt>
      <trkpt lat="42.84878" lon="0.5127">
        <ele>1409</ele>
        <time>2020-02-01T09:14:35.000Z</time>
      </trkpt>
      <trkpt lat="42.84878" lon="0.51269">
        <ele>1409</ele>
        <time>2020-02-01T09:14:36.000Z</time>
      </trkpt>
      <trkpt lat="42.84878" lon="0.51268">
        <ele>1409</ele>
        <time>2020-02-01T09:14:37.000Z</time>
      </trkpt>
      <trkpt lat="42.84878" lon="0.51267">
        <ele>1409</ele>
        <time>2020-02-01T09:14:38.000Z</time>
      </trkpt>
      <trkpt lat="42.84877" lon="0.51267">
        <ele>1410</ele>
        <time>2020-02-01T09:14:39.000Z</time>
      </trkpt>
      <trkpt lat="42.84877" lon="0.51266">
        <ele>1410</ele>
        <time>2020-02-01T09:14:40.000Z</time>
      </trkpt>
      <trkpt lat="42.84877" lon="0.51265">
        <ele>1410</ele>
        <time>2020-02-01T09:14:41.000Z</time>
      </trkpt>
      <trkpt lat="42.84876" lon="0.51264">
        <ele>1410</ele>
        <time>2020-02-01T09:14:42.000Z</time>
      </trkpt>
      <trkpt lat="42.84876" lon="0.51264">
        <ele>1410</ele>
        <time>2020-02-01T09:14:43.000Z</time>
      </trkpt>
      <trkpt lat="42.84875" lon="0.51263">
        <ele>1410</ele>
        <time>2020-02-01T09:14:44.000Z</time>
      </trkpt>
      <trkpt lat="42.84875" lon="0.51263">
        <ele>1410</ele>
        <time>2020-02-01T09:14:45.000Z</time>
      </trkpt>
      <trkpt lat="42.84874" lon="0.51262">
        <ele>1410</ele>
        <time>2020-02-01T09:14:46.000Z</time>
      </trkpt>
      <trkpt lat="42.84873" lon="0.51262">
        <ele>1410.5</ele>
        <time>2020-02-01T09:14:47.000Z</time>
      </trkpt>
      <trkpt lat="42.84873" lon="0.51261">
        <ele>1411</ele>
        <time>2020-02-01T09:14:48.000Z</time>
      </trkpt>
      <trkpt lat="42.84872" lon="0.5126">
        <ele>1411</ele>
        <time>2020-02-01T09:14:49.000Z</time>
      </trkpt>
      <trkpt lat="42.84872" lon="0.5126">
        <ele>1411</ele>
        <time>2020-02-01T09:14:50.000Z</time>
      </trkpt>
      <trkpt lat="42.84871" lon="0.51259">
        <ele>1411</ele>
        <time>2020-02-01T09:14:51.000Z</time>
      </trkpt>
      <trkpt lat="42.84871" lon="0.51258">
        <ele>1411</ele>
        <time>2020-02-01T09:14:52.000Z</time>
      </trkpt>
      <trkpt lat="42.84871" lon="0.51257">
        <ele>1411</ele>
        <time>2020-02-01T09:14:53.000Z</time>
      </trkpt>
      <trkpt lat="42.8487" lon="0.51256">
        <ele>1411</ele>
        <time>2020-02-01T09:14:54.000Z</time>
      </trkpt>
      <trkpt lat="42.8487" lon="0.51255">
        <ele>1411.5</ele>
        <time>2020-02-01T09:14:55.000Z</time>
      </trkpt>
      <trkpt lat="42.8487" lon="0.51254">
        <ele>1412</ele>
        <time>2020-02-01T09:14:56.000Z</time>
      </trkpt>
      <trkpt lat="42.84869" lon="0.51253">
        <ele>1412</ele>
        <time>2020-02-01T09:14:57.000Z</time>
      </trkpt>
      <trkpt lat="42.84869" lon="0.51252">
        <ele>1412</ele>
        <time>2020-02-01T09:14:58.000Z</time>
      </trkpt>
      <trkpt lat="42.84869" lon="0.51251">
        <ele>1412</ele>
        <time>2020-02-01T09:14:59.000Z</time>
      </trkpt>
      <trkpt lat="42.84869" lon="0.5125">
        <ele>1412</ele>
        <time>2020-02-01T09:15:00.000Z</time>
      </trkpt>
      <trkpt lat="42.84868" lon="0.51249">
        <ele>1412.5</ele>
        <time>2020-02-01T09:15:01.000Z</time>
      </trkpt>
      <trkpt lat="42.84868" lon="0.51248">
        <ele>1413</ele>
        <time>2020-02-01T09:15:02.000Z</time>
      </trkpt>
      <trkpt lat="42.84868" lon="0.51247">
        <ele>1413</ele>
        <time>2020-02-01T09:15:03.000Z</time>
      </trkpt>
      <trkpt lat="42.84868" lon="0.51246">
        <ele>1413</ele>
        <time>2020-02-01T09:15:04.000Z</time>
      </trkpt>
      <trkpt lat="42.84867" lon="0.51245">
        <ele>1413</ele>
        <time>2020-02-01T09:15:05.000Z</time>
      </trkpt>
      <trkpt lat="42.84867" lon="0.51244">
        <ele>1413</ele>
        <time>2020-02-01T09:15:06.000Z</time>
      </trkpt>
      <trkpt lat="42.84867" lon="0.51243">
        <ele>1413.5</ele>
        <time>2020-02-01T09:15:07.000Z</time>
      </trkpt>
      <trkpt lat="42.84866" lon="0.51243">
        <ele>1414</ele>
        <time>2020-02-01T09:15:08.000Z</time>
      </trkpt>
      <trkpt lat="42.84866" lon="0.51242">
        <ele>1414</ele>
        <time>2020-02-01T09:15:09.000Z</time>
      </trkpt>
      <trkpt lat="42.84866" lon="0.51241">
        <ele>1414</ele>
        <time>2020-02-01T09:15:10.000Z</time>
      </trkpt>
      <trkpt lat="42.84865" lon="0.5124">
        <ele>1414</ele>
        <time>2020-02-01T09:15:11.000Z</time>
      </trkpt>
      <trkpt lat="42.84865" lon="0.51239">
        <ele>1414</ele>
        <time>2020-02-01T09:15:12.000Z</time>
      </trkpt>
      <trkpt lat="42.84864" lon="0.51239">
        <ele>1414.5</ele>
        <time>2020-02-01T09:15:13.000Z</time>
      </trkpt>
      <trkpt lat="42.84863" lon="0.51238">
        <ele>1415</ele>
        <time>2020-02-01T09:15:14.000Z</time>
      </trkpt>
      <trkpt lat="42.84863" lon="0.51237">
        <ele>1415</ele>
        <time>2020-02-01T09:15:15.000Z</time>
      </trkpt>
      <trkpt lat="42.84862" lon="0.51236">
        <ele>1415</ele>
        <time>2020-02-01T09:15:16.000Z</time>
      </trkpt>
      <trkpt lat="42.84862" lon="0.51235">
        <ele>1415</ele>
        <time>2020-02-01T09:15:17.000Z</time>
      </trkpt>
      <trkpt lat="42.84861" lon="0.51235">
        <ele>1415</ele>
        <time>2020-02-01T09:15:18.000Z</time>
      </trkpt>
      <trkpt lat="42.84861" lon="0.51234">
        <ele>1415</ele>
        <time>2020-02-01T09:15:19.000Z</time>
      </trkpt>
      <trkpt lat="42.8486" lon="0.51233">
        <ele>1415.3</ele>
        <time>2020-02-01T09:15:20.000Z</time>
      </trkpt>
      <trkpt lat="42.8486" lon="0.51232">
        <ele>1415.7</ele>
        <time>2020-02-01T09:15:21.000Z</time>
      </trkpt>
      <trkpt lat="42.84859" lon="0.51231">
        <ele>1416</ele>
        <time>2020-02-01T09:15:22.000Z</time>
      </trkpt>
      <trkpt lat="42.84859" lon="0.51231">
        <ele>1416</ele>
        <time>2020-02-01T09:15:23.000Z</time>
      </trkpt>
      <trkpt lat="42.84858" lon="0.5123">
        <ele>1416.3</ele>
        <time>2020-02-01T09:15:24.000Z</time>
      </trkpt>
      <trkpt lat="42.84858" lon="0.51229">
        <ele>1416.7</ele>
        <time>2020-02-01T09:15:25.000Z</time>
      </trkpt>
      <trkpt lat="42.84857" lon="0.51229">
        <ele>1417</ele>
        <time>2020-02-01T09:15:26.000Z</time>
      </trkpt>
      <trkpt lat="42.84857" lon="0.51228">
        <ele>1417</ele>
        <time>2020-02-01T09:15:27.000Z</time>
      </trkpt>
      <trkpt lat="42.84856" lon="0.51228">
        <ele>1417</ele>
        <time>2020-02-01T09:15:28.000Z</time>
      </trkpt>
      <trkpt lat="42.84855" lon="0.51227">
        <ele>1417</ele>
        <time>2020-02-01T09:15:29.000Z</time>
      </trkpt>
      <trkpt lat="42.84855" lon="0.51227">
        <ele>1417</ele>
        <time>2020-02-01T09:15:30.000Z</time>
      </trkpt>
      <trkpt lat="42.84854" lon="0.51226">
        <ele>1417</ele>
        <time>2020-02-01T09:15:31.000Z</time>
      </trkpt>
      <trkpt lat="42.84853" lon="0.51226">
        <ele>1417</ele>
        <time>2020-02-01T09:15:32.000Z</time>
      </trkpt>
      <trkpt lat="42.84853" lon="0.51225">
        <ele>1417</ele>
        <time>2020-02-01T09:15:33.000Z</time>
      </trkpt>
      <trkpt lat="42.84852" lon="0.51225">
        <ele>1417</ele>
        <time>2020-02-01T09:15:34.000Z</time>
      </trkpt>
      <trkpt lat="42.84852" lon="0.51224">
        <ele>1417.5</ele>
        <time>2020-02-01T09:15:35.000Z</time>
      </trkpt>
      <trkpt lat="42.84851" lon="0.51224">
        <ele>1418</ele>
        <time>2020-02-01T09:15:36.000Z</time>
      </trkpt>
      <trkpt lat="42.84851" lon="0.51223">
        <ele>1418</ele>
        <time>2020-02-01T09:15:37.000Z</time>
      </trkpt>
      <trkpt lat="42.8485" lon="0.51223">
        <ele>1418</ele>
        <time>2020-02-01T09:15:38.000Z</time>
      </trkpt>
      <trkpt lat="42.8485" lon="0.51222">
        <ele>1418</ele>
        <time>2020-02-01T09:15:39.000Z</time>
      </trkpt>
      <trkpt lat="42.84849" lon="0.51221">
        <ele>1418</ele>
        <time>2020-02-01T09:15:40.000Z</time>
      </trkpt>
      <trkpt lat="42.84849" lon="0.5122">
        <ele>1418.5</ele>
        <time>2020-02-01T09:15:41.000Z</time>
      </trkpt>
      <trkpt lat="42.84848" lon="0.5122">
        <ele>1419</ele>
        <time>2020-02-01T09:15:42.000Z</time>
      </trkpt>
      <trkpt lat="42.84848" lon="0.51219">
        <ele>1419</ele>
        <time>2020-02-01T09:15:43.000Z</time>
      </trkpt>
      <trkpt lat="42.84848" lon="0.51218">
        <ele>1419</ele>
        <time>2020-02-01T09:15:44.000Z</time>
      </trkpt>
      <trkpt lat="42.84848" lon="0.51217">
        <ele>1419</ele>
        <time>2020-02-01T09:15:45.000Z</time>
      </trkpt>
      <trkpt lat="42.84847" lon="0.51216">
        <ele>1419</ele>
        <time>2020-02-01T09:15:46.000Z</time>
      </trkpt>
      <trkpt lat="42.84847" lon="0.51215">
        <ele>1419</ele>
        <time>2020-02-01T09:15:47.000Z</time>
      </trkpt>
      <trkpt lat="42.84846" lon="0.51214">
        <ele>1419</ele>
        <time>2020-02-01T09:15:48.000Z</time>
      </trkpt>
      <trkpt lat="42.84846" lon="0.51214">
        <ele>1419.5</ele>
        <time>2020-02-01T09:15:49.000Z</time>
      </trkpt>
      <trkpt lat="42.84846" lon="0.51213">
        <ele>1420</ele>
        <time>2020-02-01T09:15:50.000Z</time>
      </trkpt>
      <trkpt lat="42.84845" lon="0.51212">
        <ele>1420</ele>
        <time>2020-02-01T09:15:51.000Z</time>
      </trkpt>
      <trkpt lat="42.84845" lon="0.51212">
        <ele>1420.3</ele>
        <time>2020-02-01T09:15:52.000Z</time>
      </trkpt>
      <trkpt lat="42.84844" lon="0.51211">
        <ele>1420.7</ele>
        <time>2020-02-01T09:15:53.000Z</time>
      </trkpt>
      <trkpt lat="42.84844" lon="0.5121">
        <ele>1421</ele>
        <time>2020-02-01T09:15:54.000Z</time>
      </trkpt>
      <trkpt lat="42.84843" lon="0.5121">
        <ele>1421</ele>
        <time>2020-02-01T09:15:55.000Z</time>
      </trkpt>
      <trkpt lat="42.84843" lon="0.51209">
        <ele>1421</ele>
        <time>2020-02-01T09:15:56.000Z</time>
      </trkpt>
      <trkpt lat="42.84842" lon="0.51209">
        <ele>1421</ele>
        <time>2020-02-01T09:15:57.000Z</time>
      </trkpt>
      <trkpt lat="42.84842" lon="0.51208">
        <ele>1421</ele>
        <time>2020-02-01T09:15:58.000Z</time>
      </trkpt>
      <trkpt lat="42.84841" lon="0.51208">
        <ele>1421</ele>
        <time>2020-02-01T09:15:59.000Z</time>
      </trkpt>
      <trkpt lat="42.84841" lon="0.51207">
        <ele>1422</ele>
        <time>2020-02-01T09:16:00.000Z</time>
      </trkpt>
      <trkpt lat="42.8484" lon="0.51207">
        <ele>1422</ele>
        <time>2020-02-01T09:16:01.000Z</time>
      </trkpt>
      <trkpt lat="42.8484" lon="0.51207">
        <ele>1422</ele>
        <time>2020-02-01T09:16:02.000Z</time>
      </trkpt>
      <trkpt lat="42.84839" lon="0.51206">
        <ele>1422</ele>
        <time>2020-02-01T09:16:03.000Z</time>
      </trkpt>
      <trkpt lat="42.84839" lon="0.51206">
        <ele>1422</ele>
        <time>2020-02-01T09:16:04.000Z</time>
      </trkpt>
      <trkpt lat="42.84838" lon="0.51205">
        <ele>1422</ele>
        <time>2020-02-01T09:16:05.000Z</time>
      </trkpt>
      <trkpt lat="42.84838" lon="0.51205">
        <ele>1422</ele>
        <time>2020-02-01T09:16:06.000Z</time>
      </trkpt>
      <trkpt lat="42.84837" lon="0.51204">
        <ele>1423</ele>
        <time>2020-02-01T09:16:07.000Z</time>
      </trkpt>
      <trkpt lat="42.84837" lon="0.51203">
        <ele>1423</ele>
        <time>2020-02-01T09:16:08.000Z</time>
      </trkpt>
      <trkpt lat="42.84836" lon="0.51203">
        <ele>1423</ele>
        <time>2020-02-01T09:16:09.000Z</time>
      </trkpt>
      <trkpt lat="42.84836" lon="0.51202">
        <ele>1423</ele>
        <time>2020-02-01T09:16:10.000Z</time>
      </trkpt>
      <trkpt lat="42.84836" lon="0.51201">
        <ele>1423</ele>
        <time>2020-02-01T09:16:11.000Z</time>
      </trkpt>
      <trkpt lat="42.84835" lon="0.512">
        <ele>1424</ele>
        <time>2020-02-01T09:16:12.000Z</time>
      </trkpt>
      <trkpt lat="42.84835" lon="0.512">
        <ele>1424</ele>
        <time>2020-02-01T09:16:13.000Z</time>
      </trkpt>
      <trkpt lat="42.84835" lon="0.51199">
        <ele>1424</ele>
        <time>2020-02-01T09:16:14.000Z</time>
      </trkpt>
      <trkpt lat="42.84835" lon="0.51198">
        <ele>1424</ele>
        <time>2020-02-01T09:16:15.000Z</time>
      </trkpt>
      <trkpt lat="42.84835" lon="0.51197">
        <ele>1424</ele>
        <time>2020-02-01T09:16:16.000Z</time>
      </trkpt>
      <trkpt lat="42.84835" lon="0.51196">
        <ele>1424</ele>
        <time>2020-02-01T09:16:17.000Z</time>
      </trkpt>
      <trkpt lat="42.84835" lon="0.51196">
        <ele>1424</ele>
        <time>2020-02-01T09:16:18.000Z</time>
      </trkpt>
      <trkpt lat="42.84834" lon="0.51195">
        <ele>1424</ele>
        <time>2020-02-01T09:16:19.000Z</time>
      </trkpt>
      <trkpt lat="42.84834" lon="0.51195">
        <ele>1424</ele>
        <time>2020-02-01T09:16:20.000Z</time>
      </trkpt>
      <trkpt lat="42.84833" lon="0.51194">
        <ele>1424</ele>
        <time>2020-02-01T09:16:21.000Z</time>
      </trkpt>
      <trkpt lat="42.84833" lon="0.51194">
        <ele>1424</ele>
        <time>2020-02-01T09:16:22.000Z</time>
      </trkpt>
      <trkpt lat="42.84832" lon="0.51194">
        <ele>1424</ele>
        <time>2020-02-01T09:16:23.000Z</time>
      </trkpt>
      <trkpt lat="42.84832" lon="0.51193">
        <ele>1424.5</ele>
        <time>2020-02-01T09:16:24.000Z</time>
      </trkpt>
      <trkpt lat="42.84831" lon="0.51193">
        <ele>1425</ele>
        <time>2020-02-01T09:16:25.000Z</time>
      </trkpt>
      <trkpt lat="42.8483" lon="0.51193">
        <ele>1425</ele>
        <time>2020-02-01T09:16:26.000Z</time>
      </trkpt>
      <trkpt lat="42.8483" lon="0.51193">
        <ele>1425</ele>
        <time>2020-02-01T09:16:27.000Z</time>
      </trkpt>
      <trkpt lat="42.84829" lon="0.51192">
        <ele>1425</ele>
        <time>2020-02-01T09:16:28.000Z</time>
      </trkpt>
      <trkpt lat="42.84829" lon="0.51192">
        <ele>1425</ele>
        <time>2020-02-01T09:16:29.000Z</time>
      </trkpt>
      <trkpt lat="42.84828" lon="0.51192">
        <ele>1425</ele>
        <time>2020-02-01T09:16:30.000Z</time>
      </trkpt>
      <trkpt lat="42.84827" lon="0.51192">
        <ele>1425</ele>
        <time>2020-02-01T09:16:31.000Z</time>
      </trkpt>
      <trkpt lat="42.84827" lon="0.51191">
        <ele>1425.5</ele>
        <time>2020-02-01T09:16:32.000Z</time>
      </trkpt>
      <trkpt lat="42.84826" lon="0.51191">
        <ele>1426</ele>
        <time>2020-02-01T09:16:33.000Z</time>
      </trkpt>
      <trkpt lat="42.84825" lon="0.51191">
        <ele>1426</ele>
        <time>2020-02-01T09:16:34.000Z</time>
      </trkpt>
      <trkpt lat="42.84825" lon="0.51191">
        <ele>1426</ele>
        <time>2020-02-01T09:16:35.000Z</time>
      </trkpt>
      <trkpt lat="42.84824" lon="0.5119">
        <ele>1426</ele>
        <time>2020-02-01T09:16:36.000Z</time>
      </trkpt>
      <trkpt lat="42.84823" lon="0.5119">
        <ele>1426.3</ele>
        <time>2020-02-01T09:16:37.000Z</time>
      </trkpt>
      <trkpt lat="42.84822" lon="0.5119">
        <ele>1426.7</ele>
        <time>2020-02-01T09:16:38.000Z</time>
      </trkpt>
      <trkpt lat="42.84821" lon="0.51189">
        <ele>1427</ele>
        <time>2020-02-01T09:16:39.000Z</time>
      </trkpt>
      <trkpt lat="42.84821" lon="0.51189">
        <ele>1427</ele>
        <time>2020-02-01T09:16:40.000Z</time>
      </trkpt>
      <trkpt lat="42.8482" lon="0.51189">
        <ele>1427</ele>
        <time>2020-02-01T09:16:41.000Z</time>
      </trkpt>
      <trkpt lat="42.84819" lon="0.51188">
        <ele>1427</ele>
        <time>2020-02-01T09:16:42.000Z</time>
      </trkpt>
      <trkpt lat="42.84819" lon="0.51188">
        <ele>1427</ele>
        <time>2020-02-01T09:16:43.000Z</time>
      </trkpt>
      <trkpt lat="42.84818" lon="0.51187">
        <ele>1427</ele>
        <time>2020-02-01T09:16:44.000Z</time>
      </trkpt>
      <trkpt lat="42.84817" lon="0.51186">
        <ele>1427</ele>
        <time>2020-02-01T09:16:45.000Z</time>
      </trkpt>
      <trkpt lat="42.84817" lon="0.51186">
        <ele>1427</ele>
        <time>2020-02-01T09:16:46.000Z</time>
      </trkpt>
      <trkpt lat="42.84817" lon="0.51185">
        <ele>1427</ele>
        <time>2020-02-01T09:16:47.000Z</time>
      </trkpt>
      <trkpt lat="42.84816" lon="0.51184">
        <ele>1427.5</ele>
        <time>2020-02-01T09:16:48.000Z</time>
      </trkpt>
      <trkpt lat="42.84816" lon="0.51183">
        <ele>1428</ele>
        <time>2020-02-01T09:16:49.000Z</time>
      </trkpt>
      <trkpt lat="42.84816" lon="0.51182">
        <ele>1428</ele>
        <time>2020-02-01T09:16:50.000Z</time>
      </trkpt>
      <trkpt lat="42.84817" lon="0.51181">
        <ele>1428</ele>
        <time>2020-02-01T09:16:51.000Z</time>
      </trkpt>
      <trkpt lat="42.84817" lon="0.5118">
        <ele>1428</ele>
        <time>2020-02-01T09:16:52.000Z</time>
      </trkpt>
      <trkpt lat="42.84817" lon="0.51179">
        <ele>1428</ele>
        <time>2020-02-01T09:16:53.000Z</time>
      </trkpt>
      <trkpt lat="42.84817" lon="0.51179">
        <ele>1428.5</ele>
        <time>2020-02-01T09:16:54.000Z</time>
      </trkpt>
      <trkpt lat="42.84817" lon="0.51178">
        <ele>1429</ele>
        <time>2020-02-01T09:16:55.000Z</time>
      </trkpt>
      <trkpt lat="42.84817" lon="0.51177">
        <ele>1429</ele>
        <time>2020-02-01T09:16:56.000Z</time>
      </trkpt>
      <trkpt lat="42.84817" lon="0.51176">
        <ele>1429</ele>
        <time>2020-02-01T09:16:57.000Z</time>
      </trkpt>
      <trkpt lat="42.84817" lon="0.51175">
        <ele>1429.5</ele>
        <time>2020-02-01T09:16:58.000Z</time>
      </trkpt>
      <trkpt lat="42.84816" lon="0.51174">
        <ele>1430</ele>
        <time>2020-02-01T09:16:59.000Z</time>
      </trkpt>
      <trkpt lat="42.84816" lon="0.51174">
        <ele>1430</ele>
        <time>2020-02-01T09:17:00.000Z</time>
      </trkpt>
      <trkpt lat="42.84816" lon="0.51173">
        <ele>1430</ele>
        <time>2020-02-01T09:17:01.000Z</time>
      </trkpt>
      <trkpt lat="42.84815" lon="0.51172">
        <ele>1430</ele>
        <time>2020-02-01T09:17:02.000Z</time>
      </trkpt>
      <trkpt lat="42.84814" lon="0.5117">
        <ele>1430</ele>
        <time>2020-02-01T09:17:03.000Z</time>
      </trkpt>
      <trkpt lat="42.84814" lon="0.51169">
        <ele>1430</ele>
        <time>2020-02-01T09:17:04.000Z</time>
      </trkpt>
      <trkpt lat="42.84813" lon="0.51168">
        <ele>1431</ele>
        <time>2020-02-01T09:17:05.000Z</time>
      </trkpt>
      <trkpt lat="42.84813" lon="0.51168">
        <ele>1431</ele>
        <time>2020-02-01T09:17:06.000Z</time>
      </trkpt>
      <trkpt lat="42.84812" lon="0.51167">
        <ele>1431</ele>
        <time>2020-02-01T09:17:07.000Z</time>
      </trkpt>
      <trkpt lat="42.84812" lon="0.51167">
        <ele>1431</ele>
        <time>2020-02-01T09:17:08.000Z</time>
      </trkpt>
      <trkpt lat="42.84812" lon="0.51167">
        <ele>1431</ele>
        <time>2020-02-01T09:17:09.000Z</time>
      </trkpt>
      <trkpt lat="42.84812" lon="0.51167">
        <ele>1431</ele>
        <time>2020-02-01T09:17:10.000Z</time>
      </trkpt>
      <trkpt lat="42.84812" lon="0.51167">
        <ele>1431</ele>
        <time>2020-02-01T09:17:11.000Z</time>
      </trkpt>
      <trkpt lat="42.84812" lon="0.51167">
        <ele>1431</ele>
        <time>2020-02-01T09:17:12.000Z</time>
      </trkpt>
      <trkpt lat="42.84811" lon="0.51166">
        <ele>1431.5</ele>
        <time>2020-02-01T09:17:13.000Z</time>
      </trkpt>
      <trkpt lat="42.8481" lon="0.51166">
        <ele>1432</ele>
        <time>2020-02-01T09:17:14.000Z</time>
      </trkpt>
      <trkpt lat="42.84809" lon="0.51166">
        <ele>1432</ele>
        <time>2020-02-01T09:17:15.000Z</time>
      </trkpt>
      <trkpt lat="42.84807" lon="0.51166">
        <ele>1432</ele>
        <time>2020-02-01T09:17:16.000Z</time>
      </trkpt>
      <trkpt lat="42.84806" lon="0.51166">
        <ele>1432</ele>
        <time>2020-02-01T09:17:17.000Z</time>
      </trkpt>
      <trkpt lat="42.84805" lon="0.51166">
        <ele>1432</ele>
        <time>2020-02-01T09:17:18.000Z</time>
      </trkpt>
      <trkpt lat="42.84804" lon="0.51166">
        <ele>1432.5</ele>
        <time>2020-02-01T09:17:19.000Z</time>
      </trkpt>
      <trkpt lat="42.84803" lon="0.51166">
        <ele>1433</ele>
        <time>2020-02-01T09:17:20.000Z</time>
      </trkpt>
      <trkpt lat="42.84802" lon="0.51165">
        <ele>1433</ele>
        <time>2020-02-01T09:17:21.000Z</time>
      </trkpt>
      <trkpt lat="42.84798" lon="0.51162">
        <ele>1433</ele>
        <time>2020-02-01T09:17:22.000Z</time>
      </trkpt>
      <trkpt lat="42.84794" lon="0.5116">
        <ele>1433</ele>
        <time>2020-02-01T09:17:23.000Z</time>
      </trkpt>
      <trkpt lat="42.84791" lon="0.51158">
        <ele>1433</ele>
        <time>2020-02-01T09:17:24.000Z</time>
      </trkpt>
      <trkpt lat="42.84789" lon="0.51157">
        <ele>1433</ele>
        <time>2020-02-01T09:17:25.000Z</time>
      </trkpt>
      <trkpt lat="42.84787" lon="0.51157">
        <ele>1433</ele>
        <time>2020-02-01T09:17:26.000Z</time>
      </trkpt>
      <trkpt lat="42.84786" lon="0.51158">
        <ele>1433</ele>
        <time>2020-02-01T09:17:27.000Z</time>
      </trkpt>
      <trkpt lat="42.84785" lon="0.51158">
        <ele>1434</ele>
        <time>2020-02-01T09:17:28.000Z</time>
      </trkpt>
      <trkpt lat="42.84784" lon="0.51158">
        <ele>1434</ele>
        <time>2020-02-01T09:17:29.000Z</time>
      </trkpt>
      <trkpt lat="42.84783" lon="0.51158">
        <ele>1434</ele>
        <time>2020-02-01T09:17:30.000Z</time>
      </trkpt>
      <trkpt lat="42.84782" lon="0.51157">
        <ele>1434</ele>
        <time>2020-02-01T09:17:31.000Z</time>
      </trkpt>
      <trkpt lat="42.84782" lon="0.51157">
        <ele>1434</ele>
        <time>2020-02-01T09:17:32.000Z</time>
      </trkpt>
      <trkpt lat="42.84781" lon="0.51156">
        <ele>1434</ele>
        <time>2020-02-01T09:17:33.000Z</time>
      </trkpt>
      <trkpt lat="42.84781" lon="0.51155">
        <ele>1434.5</ele>
        <time>2020-02-01T09:17:34.000Z</time>
      </trkpt>
      <trkpt lat="42.84781" lon="0.51155">
        <ele>1435</ele>
        <time>2020-02-01T09:17:35.000Z</time>
      </trkpt>
      <trkpt lat="42.84781" lon="0.51154">
        <ele>1435</ele>
        <time>2020-02-01T09:17:36.000Z</time>
      </trkpt>
      <trkpt lat="42.84781" lon="0.51154">
        <ele>1435</ele>
        <time>2020-02-01T09:17:37.000Z</time>
      </trkpt>
      <trkpt lat="42.84782" lon="0.51153">
        <ele>1435</ele>
        <time>2020-02-01T09:17:38.000Z</time>
      </trkpt>
      <trkpt lat="42.84782" lon="0.51153">
        <ele>1435</ele>
        <time>2020-02-01T09:17:39.000Z</time>
      </trkpt>
      <trkpt lat="42.84782" lon="0.51153">
        <ele>1435.5</ele>
        <time>2020-02-01T09:17:40.000Z</time>
      </trkpt>
      <trkpt lat="42.84782" lon="0.51153">
        <ele>1436</ele>
        <time>2020-02-01T09:17:41.000Z</time>
      </trkpt>
      <trkpt lat="42.84782" lon="0.51152">
        <ele>1436</ele>
        <time>2020-02-01T09:17:42.000Z</time>
      </trkpt>
      <trkpt lat="42.84782" lon="0.51153">
        <ele>1436</ele>
        <time>2020-02-01T09:17:43.000Z</time>
      </trkpt>
      <trkpt lat="42.84782" lon="0.51153">
        <ele>1436</ele>
        <time>2020-02-01T09:17:44.000Z</time>
      </trkpt>
      <trkpt lat="42.84782" lon="0.51153">
        <ele>1436</ele>
        <time>2020-02-01T09:17:45.000Z</time>
      </trkpt>
      <trkpt lat="42.84782" lon="0.51153">
        <ele>1436</ele>
        <time>2020-02-01T09:17:46.000Z</time>
      </trkpt>
      <trkpt lat="42.84781" lon="0.51153">
        <ele>1436</ele>
        <time>2020-02-01T09:17:47.000Z</time>
      </trkpt>
      <trkpt lat="42.84781" lon="0.51154">
        <ele>1436</ele>
        <time>2020-02-01T09:17:48.000Z</time>
      </trkpt>
      <trkpt lat="42.8478" lon="0.51154">
        <ele>1436</ele>
        <time>2020-02-01T09:17:49.000Z</time>
      </trkpt>
      <trkpt lat="42.8478" lon="0.51154">
        <ele>1436</ele>
        <time>2020-02-01T09:17:50.000Z</time>
      </trkpt>
      <trkpt lat="42.84779" lon="0.51154">
        <ele>1436</ele>
        <time>2020-02-01T09:17:51.000Z</time>
      </trkpt>
      <trkpt lat="42.84779" lon="0.51153">
        <ele>1436.5</ele>
        <time>2020-02-01T09:17:52.000Z</time>
      </trkpt>
      <trkpt lat="42.84778" lon="0.51153">
        <ele>1437</ele>
        <time>2020-02-01T09:17:53.000Z</time>
      </trkpt>
      <trkpt lat="42.84778" lon="0.51152">
        <ele>1437</ele>
        <time>2020-02-01T09:17:54.000Z</time>
      </trkpt>
      <trkpt lat="42.84777" lon="0.51152">
        <ele>1437</ele>
        <time>2020-02-01T09:17:55.000Z</time>
      </trkpt>
      <trkpt lat="42.84777" lon="0.51151">
        <ele>1437</ele>
        <time>2020-02-01T09:17:56.000Z</time>
      </trkpt>
      <trkpt lat="42.84776" lon="0.5115">
        <ele>1437</ele>
        <time>2020-02-01T09:17:57.000Z</time>
      </trkpt>
      <trkpt lat="42.84776" lon="0.51149">
        <ele>1437</ele>
        <time>2020-02-01T09:17:58.000Z</time>
      </trkpt>
      <trkpt lat="42.84776" lon="0.51148">
        <ele>1437.5</ele>
        <time>2020-02-01T09:17:59.000Z</time>
      </trkpt>
      <trkpt lat="42.84775" lon="0.51147">
        <ele>1438</ele>
        <time>2020-02-01T09:18:00.000Z</time>
      </trkpt>
      <trkpt lat="42.84775" lon="0.51146">
        <ele>1438</ele>
        <time>2020-02-01T09:18:01.000Z</time>
      </trkpt>
      <trkpt lat="42.84775" lon="0.51145">
        <ele>1438</ele>
        <time>2020-02-01T09:18:02.000Z</time>
      </trkpt>
      <trkpt lat="42.84774" lon="0.51144">
        <ele>1438</ele>
        <time>2020-02-01T09:18:03.000Z</time>
      </trkpt>
      <trkpt lat="42.84774" lon="0.51144">
        <ele>1438</ele>
        <time>2020-02-01T09:18:04.000Z</time>
      </trkpt>
      <trkpt lat="42.84774" lon="0.51143">
        <ele>1438</ele>
        <time>2020-02-01T09:18:05.000Z</time>
      </trkpt>
      <trkpt lat="42.84773" lon="0.51142">
        <ele>1438</ele>
        <time>2020-02-01T09:18:06.000Z</time>
      </trkpt>
      <trkpt lat="42.84772" lon="0.51141">
        <ele>1438</ele>
        <time>2020-02-01T09:18:07.000Z</time>
      </trkpt>
      <trkpt lat="42.84772" lon="0.51139">
        <ele>1438</ele>
        <time>2020-02-01T09:18:08.000Z</time>
      </trkpt>
      <trkpt lat="42.84771" lon="0.51138">
        <ele>1438</ele>
        <time>2020-02-01T09:18:09.000Z</time>
      </trkpt>
      <trkpt lat="42.8477" lon="0.51138">
        <ele>1438</ele>
        <time>2020-02-01T09:18:10.000Z</time>
      </trkpt>
      <trkpt lat="42.84769" lon="0.51137">
        <ele>1438</ele>
        <time>2020-02-01T09:18:11.000Z</time>
      </trkpt>
      <trkpt lat="42.84769" lon="0.51136">
        <ele>1439</ele>
        <time>2020-02-01T09:18:12.000Z</time>
      </trkpt>
      <trkpt lat="42.84769" lon="0.51135">
        <ele>1439</ele>
        <time>2020-02-01T09:18:13.000Z</time>
      </trkpt>
      <trkpt lat="42.84769" lon="0.51134">
        <ele>1439</ele>
        <time>2020-02-01T09:18:14.000Z</time>
      </trkpt>
      <trkpt lat="42.84769" lon="0.51133">
        <ele>1439</ele>
        <time>2020-02-01T09:18:15.000Z</time>
      </trkpt>
      <trkpt lat="42.8477" lon="0.51132">
        <ele>1439</ele>
        <time>2020-02-01T09:18:16.000Z</time>
      </trkpt>
      <trkpt lat="42.8477" lon="0.51131">
        <ele>1439</ele>
        <time>2020-02-01T09:18:17.000Z</time>
      </trkpt>
      <trkpt lat="42.84771" lon="0.5113">
        <ele>1439.5</ele>
        <time>2020-02-01T09:18:18.000Z</time>
      </trkpt>
      <trkpt lat="42.84772" lon="0.51129">
        <ele>1440</ele>
        <time>2020-02-01T09:18:19.000Z</time>
      </trkpt>
      <trkpt lat="42.84772" lon="0.51129">
        <ele>1440</ele>
        <time>2020-02-01T09:18:20.000Z</time>
      </trkpt>
      <trkpt lat="42.84773" lon="0.51128">
        <ele>1440</ele>
        <time>2020-02-01T09:18:21.000Z</time>
      </trkpt>
      <trkpt lat="42.84774" lon="0.51129">
        <ele>1440</ele>
        <time>2020-02-01T09:18:22.000Z</time>
      </trkpt>
      <trkpt lat="42.84774" lon="0.5113">
        <ele>1440</ele>
        <time>2020-02-01T09:18:23.000Z</time>
      </trkpt>
      <trkpt lat="42.84773" lon="0.51132">
        <ele>1440</ele>
        <time>2020-02-01T09:18:24.000Z</time>
      </trkpt>
      <trkpt lat="42.84772" lon="0.51134">
        <ele>1440</ele>
        <time>2020-02-01T09:18:25.000Z</time>
      </trkpt>
      <trkpt lat="42.84771" lon="0.51136">
        <ele>1440</ele>
        <time>2020-02-01T09:18:26.000Z</time>
      </trkpt>
      <trkpt lat="42.8477" lon="0.51136">
        <ele>1440</ele>
        <time>2020-02-01T09:18:27.000Z</time>
      </trkpt>
      <trkpt lat="42.84769" lon="0.51136">
        <ele>1440</ele>
        <time>2020-02-01T09:18:28.000Z</time>
      </trkpt>
      <trkpt lat="42.84768" lon="0.51135">
        <ele>1440</ele>
        <time>2020-02-01T09:18:29.000Z</time>
      </trkpt>
      <trkpt lat="42.84767" lon="0.51135">
        <ele>1440</ele>
        <time>2020-02-01T09:18:30.000Z</time>
      </trkpt>
      <trkpt lat="42.84767" lon="0.51135">
        <ele>1440</ele>
        <time>2020-02-01T09:18:31.000Z</time>
      </trkpt>
      <trkpt lat="42.84767" lon="0.51135">
        <ele>1440</ele>
        <time>2020-02-01T09:18:32.000Z</time>
      </trkpt>
      <trkpt lat="42.84767" lon="0.51134">
        <ele>1440</ele>
        <time>2020-02-01T09:18:33.000Z</time>
      </trkpt>
      <trkpt lat="42.84767" lon="0.51134">
        <ele>1440</ele>
        <time>2020-02-01T09:18:34.000Z</time>
      </trkpt>
      <trkpt lat="42.84767" lon="0.51134">
        <ele>1440</ele>
        <time>2020-02-01T09:18:35.000Z</time>
      </trkpt>
      <trkpt lat="42.84767" lon="0.51133">
        <ele>1440</ele>
        <time>2020-02-01T09:18:36.000Z</time>
      </trkpt>
      <trkpt lat="42.84767" lon="0.51133">
        <ele>1440</ele>
        <time>2020-02-01T09:18:37.000Z</time>
      </trkpt>
      <trkpt lat="42.84767" lon="0.51133">
        <ele>1440</ele>
        <time>2020-02-01T09:18:38.000Z</time>
      </trkpt>
      <trkpt lat="42.84767" lon="0.51133">
        <ele>1440</ele>
        <time>2020-02-01T09:18:39.000Z</time>
      </trkpt>
      <trkpt lat="42.84767" lon="0.51134">
        <ele>1440</ele>
        <time>2020-02-01T09:18:40.000Z</time>
      </trkpt>
      <trkpt lat="42.84766" lon="0.51134">
        <ele>1440</ele>
        <time>2020-02-01T09:18:41.000Z</time>
      </trkpt>
      <trkpt lat="42.84766" lon="0.51135">
        <ele>1440</ele>
        <time>2020-02-01T09:18:42.000Z</time>
      </trkpt>
      <trkpt lat="42.84765" lon="0.51135">
        <ele>1440</ele>
        <time>2020-02-01T09:18:43.000Z</time>
      </trkpt>
      <trkpt lat="42.84765" lon="0.51136">
        <ele>1440</ele>
        <time>2020-02-01T09:18:44.000Z</time>
      </trkpt>
      <trkpt lat="42.84764" lon="0.51137">
        <ele>1440</ele>
        <time>2020-02-01T09:18:45.000Z</time>
      </trkpt>
      <trkpt lat="42.84764" lon="0.51137">
        <ele>1440</ele>
        <time>2020-02-01T09:18:46.000Z</time>
      </trkpt>
      <trkpt lat="42.84763" lon="0.51138">
        <ele>1440</ele>
        <time>2020-02-01T09:18:47.000Z</time>
      </trkpt>
      <trkpt lat="42.84763" lon="0.51138">
        <ele>1440</ele>
        <time>2020-02-01T09:18:48.000Z</time>
      </trkpt>
      <trkpt lat="42.84763" lon="0.51138">
        <ele>1440</ele>
        <time>2020-02-01T09:18:49.000Z</time>
      </trkpt>
      <trkpt lat="42.84762" lon="0.51138">
        <ele>1440</ele>
        <time>2020-02-01T09:18:50.000Z</time>
      </trkpt>
      <trkpt lat="42.84762" lon="0.51138">
        <ele>1440</ele>
        <time>2020-02-01T09:18:51.000Z</time>
      </trkpt>
      <trkpt lat="42.84762" lon="0.51138">
        <ele>1440</ele>
        <time>2020-02-01T09:18:52.000Z</time>
      </trkpt>
      <trkpt lat="42.84762" lon="0.51138">
        <ele>1440</ele>
        <time>2020-02-01T09:18:53.000Z</time>
      </trkpt>
      <trkpt lat="42.84762" lon="0.51138">
        <ele>1440</ele>
        <time>2020-02-01T09:18:54.000Z</time>
      </trkpt>
      <trkpt lat="42.84763" lon="0.51139">
        <ele>1440</ele>
        <time>2020-02-01T09:18:55.000Z</time>
      </trkpt>
      <trkpt lat="42.84763" lon="0.51139">
        <ele>1440</ele>
        <time>2020-02-01T09:18:56.000Z</time>
      </trkpt>
      <trkpt lat="42.84763" lon="0.5114">
        <ele>1440</ele>
        <time>2020-02-01T09:19:02.000Z</time>
      </trkpt>
      <trkpt lat="42.84764" lon="0.51141">
        <ele>1440</ele>
        <time>2020-02-01T09:19:03.000Z</time>
      </trkpt>
      <trkpt lat="42.84764" lon="0.51141">
        <ele>1440</ele>
        <time>2020-02-01T09:19:04.000Z</time>
      </trkpt>
      <trkpt lat="42.84764" lon="0.51141">
        <ele>1440</ele>
        <time>2020-02-01T09:19:05.000Z</time>
      </trkpt>
      <trkpt lat="42.84765" lon="0.51142">
        <ele>1440</ele>
        <time>2020-02-01T09:19:06.000Z</time>
      </trkpt>
      <trkpt lat="42.84765" lon="0.51142">
        <ele>1440</ele>
        <time>2020-02-01T09:19:07.000Z</time>
      </trkpt>
      <trkpt lat="42.84766" lon="0.51142">
        <ele>1440</ele>
        <time>2020-02-01T09:19:08.000Z</time>
      </trkpt>
      <trkpt lat="42.84766" lon="0.51142">
        <ele>1440</ele>
        <time>2020-02-01T09:19:09.000Z</time>
      </trkpt>
      <trkpt lat="42.84767" lon="0.51142">
        <ele>1440</ele>
        <time>2020-02-01T09:19:10.000Z</time>
      </trkpt>
      <trkpt lat="42.84767" lon="0.51142">
        <ele>1440</ele>
        <time>2020-02-01T09:19:11.000Z</time>
      </trkpt>
      <trkpt lat="42.84767" lon="0.51142">
        <ele>1440</ele>
        <time>2020-02-01T09:19:12.000Z</time>
      </trkpt>
      <trkpt lat="42.84768" lon="0.51142">
        <ele>1440</ele>
        <time>2020-02-01T09:19:13.000Z</time>
      </trkpt>
      <trkpt lat="42.84768" lon="0.51143">
        <ele>1440</ele>
        <time>2020-02-01T09:19:14.000Z</time>
      </trkpt>
      <trkpt lat="42.84768" lon="0.51143">
        <ele>1440</ele>
        <time>2020-02-01T09:19:15.000Z</time>
      </trkpt>
      <trkpt lat="42.84768" lon="0.51143">
        <ele>1440</ele>
        <time>2020-02-01T09:19:16.000Z</time>
      </trkpt>
      <trkpt lat="42.84768" lon="0.51143">
        <ele>1440</ele>
        <time>2020-02-01T09:19:17.000Z</time>
      </trkpt>
      <trkpt lat="42.84768" lon="0.51143">
        <ele>1440</ele>
        <time>2020-02-01T09:19:18.000Z</time>
      </trkpt>
      <trkpt lat="42.84768" lon="0.51143">
        <ele>1440</ele>
        <time>2020-02-01T09:19:19.000Z</time>
      </trkpt>
      <trkpt lat="42.84768" lon="0.51143">
        <ele>1440</ele>
        <time>2020-02-01T09:19:20.000Z</time>
      </trkpt>
      <trkpt lat="42.84768" lon="0.51143">
        <ele>1440</ele>
        <time>2020-02-01T09:19:21.000Z</time>
      </trkpt>
      <trkpt lat="42.84768" lon="0.51143">
        <ele>1440</ele>
        <time>2020-02-01T09:19:22.000Z</time>
      </trkpt>
      <trkpt lat="42.84768" lon="0.51143">
        <ele>1440</ele>
        <time>2020-02-01T09:19:23.000Z</time>
      </trkpt>
      <trkpt lat="42.84768" lon="0.51143">
        <ele>1440</ele>
        <time>2020-02-01T09:19:24.000Z</time>
      </trkpt>
      <trkpt lat="42.84768" lon="0.51143">
        <ele>1440</ele>
        <time>2020-02-01T09:19:25.000Z</time>
      </trkpt>
      <trkpt lat="42.84768" lon="0.51142">
        <ele>1440</ele>
        <time>2020-02-01T09:19:26.000Z</time>
      </trkpt>
      <trkpt lat="42.84768" lon="0.51142">
        <ele>1440</ele>
        <time>2020-02-01T09:19:27.000Z</time>
      </trkpt>
      <trkpt lat="42.84768" lon="0.51142">
        <ele>1440</ele>
        <time>2020-02-01T09:19:28.000Z</time>
      </trkpt>
      <trkpt lat="42.84768" lon="0.51142">
        <ele>1440</ele>
        <time>2020-02-01T09:19:29.000Z</time>
      </trkpt>
      <trkpt lat="42.84769" lon="0.51141">
        <ele>1440</ele>
        <time>2020-02-01T09:19:30.000Z</time>
      </trkpt>
      <trkpt lat="42.84769" lon="0.51141">
        <ele>1440</ele>
        <time>2020-02-01T09:19:31.000Z</time>
      </trkpt>
      <trkpt lat="42.84769" lon="0.51141">
        <ele>1440</ele>
        <time>2020-02-01T09:19:32.000Z</time>
      </trkpt>
      <trkpt lat="42.84769" lon="0.51141">
        <ele>1440</ele>
        <time>2020-02-01T09:19:33.000Z</time>
      </trkpt>
      <trkpt lat="42.84769" lon="0.5114">
        <ele>1440</ele>
        <time>2020-02-01T09:19:34.000Z</time>
      </trkpt>
      <trkpt lat="42.84769" lon="0.5114">
        <ele>1440</ele>
        <time>2020-02-01T09:19:35.000Z</time>
      </trkpt>
      <trkpt lat="42.84769" lon="0.5114">
        <ele>1440</ele>
        <time>2020-02-01T09:19:36.000Z</time>
      </trkpt>
      <trkpt lat="42.84769" lon="0.5114">
        <ele>1440</ele>
        <time>2020-02-01T09:19:37.000Z</time>
      </trkpt>
      <trkpt lat="42.84769" lon="0.51139">
        <ele>1440</ele>
        <time>2020-02-01T09:19:38.000Z</time>
      </trkpt>
      <trkpt lat="42.84769" lon="0.51139">
        <ele>1440</ele>
        <time>2020-02-01T09:19:39.000Z</time>
      </trkpt>
      <trkpt lat="42.84769" lon="0.51139">
        <ele>1440</ele>
        <time>2020-02-01T09:19:40.000Z</time>
      </trkpt>
      <trkpt lat="42.84769" lon="0.51139">
        <ele>1440</ele>
        <time>2020-02-01T09:19:41.000Z</time>
      </trkpt>
      <trkpt lat="42.84769" lon="0.51138">
        <ele>1440</ele>
        <time>2020-02-01T09:19:42.000Z</time>
      </trkpt>
      <trkpt lat="42.84769" lon="0.51138">
        <ele>1440</ele>
        <time>2020-02-01T09:19:43.000Z</time>
      </trkpt>
      <trkpt lat="42.84769" lon="0.51138">
        <ele>1440</ele>
        <time>2020-02-01T09:19:44.000Z</time>
      </trkpt>
      <trkpt lat="42.84769" lon="0.51138">
        <ele>1440</ele>
        <time>2020-02-01T09:19:45.000Z</time>
      </trkpt>
      <trkpt lat="42.84769" lon="0.51138">
        <ele>1440</ele>
        <time>2020-02-01T09:19:46.000Z</time>
      </trkpt>
      <trkpt lat="42.84769" lon="0.51138">
        <ele>1440</ele>
        <time>2020-02-01T09:19:47.000Z</time>
      </trkpt>
      <trkpt lat="42.84769" lon="0.51138">
        <ele>1440</ele>
        <time>2020-02-01T09:19:48.000Z</time>
      </trkpt>
      <trkpt lat="42.84769" lon="0.51138">
        <ele>1440</ele>
        <time>2020-02-01T09:19:49.000Z</time>
      </trkpt>
      <trkpt lat="42.84769" lon="0.51137">
        <ele>1440</ele>
        <time>2020-02-01T09:19:50.000Z</time>
      </trkpt>
      <trkpt lat="42.84769" lon="0.51137">
        <ele>1440</ele>
        <time>2020-02-01T09:19:51.000Z</time>
      </trkpt>
      <trkpt lat="42.84769" lon="0.51137">
        <ele>1440</ele>
        <time>2020-02-01T09:19:52.000Z</time>
      </trkpt>
      <trkpt lat="42.84769" lon="0.51137">
        <ele>1440</ele>
        <time>2020-02-01T09:19:53.000Z</time>
      </trkpt>
      <trkpt lat="42.84769" lon="0.51137">
        <ele>1440</ele>
        <time>2020-02-01T09:19:54.000Z</time>
      </trkpt>
      <trkpt lat="42.84769" lon="0.51137">
        <ele>1440</ele>
        <time>2020-02-01T09:19:55.000Z</time>
      </trkpt>
      <trkpt lat="42.84769" lon="0.51137">
        <ele>1440</ele>
        <time>2020-02-01T09:19:56.000Z</time>
      </trkpt>
      <trkpt lat="42.84769" lon="0.51137">
        <ele>1440</ele>
        <time>2020-02-01T09:19:57.000Z</time>
      </trkpt>
      <trkpt lat="42.84769" lon="0.51137">
        <ele>1440</ele>
        <time>2020-02-01T09:19:58.000Z</time>
      </trkpt>
      <trkpt lat="42.84769" lon="0.51137">
        <ele>1440</ele>
        <time>2020-02-01T09:19:59.000Z</time>
      </trkpt>
      <trkpt lat="42.84769" lon="0.51137">
        <ele>1440</ele>
        <time>2020-02-01T09:20:00.000Z</time>
      </trkpt>
      <trkpt lat="42.84769" lon="0.51137">
        <ele>1440</ele>
        <time>2020-02-01T09:20:01.000Z</time>
      </trkpt>
      <trkpt lat="42.84769" lon="0.51137">
        <ele>1440</ele>
        <time>2020-02-01T09:20:02.000Z</time>
      </trkpt>
      <trkpt lat="42.84769" lon="0.51137">
        <ele>1440</ele>
        <time>2020-02-01T09:20:03.000Z</time>
      </trkpt>
      <trkpt lat="42.84769" lon="0.51137">
        <ele>1440</ele>
        <time>2020-02-01T09:20:04.000Z</time>
      </trkpt>
      <trkpt lat="42.84769" lon="0.51137">
        <ele>1440</ele>
        <time>2020-02-01T09:20:05.000Z</time>
      </trkpt>
      <trkpt lat="42.84769" lon="0.51137">
        <ele>1440</ele>
        <time>2020-02-01T09:20:06.000Z</time>
      </trkpt>
      <trkpt lat="42.84769" lon="0.51137">
        <ele>1440</ele>
        <time>2020-02-01T09:20:07.000Z</time>
      </trkpt>
      <trkpt lat="42.8477" lon="0.51137">
        <ele>1440</ele>
        <time>2020-02-01T09:20:08.000Z</time>
      </trkpt>
      <trkpt lat="42.8477" lon="0.51137">
        <ele>1440</ele>
        <time>2020-02-01T09:20:09.000Z</time>
      </trkpt>
      <trkpt lat="42.8477" lon="0.51136">
        <ele>1440</ele>
        <time>2020-02-01T09:20:10.000Z</time>
      </trkpt>
      <trkpt lat="42.84771" lon="0.51136">
        <ele>1440</ele>
        <time>2020-02-01T09:20:11.000Z</time>
      </trkpt>
      <trkpt lat="42.84771" lon="0.51136">
        <ele>1440</ele>
        <time>2020-02-01T09:20:12.000Z</time>
      </trkpt>
      <trkpt lat="42.84772" lon="0.51136">
        <ele>1440</ele>
        <time>2020-02-01T09:20:13.000Z</time>
      </trkpt>
      <trkpt lat="42.84772" lon="0.51136">
        <ele>1440</ele>
        <time>2020-02-01T09:20:14.000Z</time>
      </trkpt>
      <trkpt lat="42.84773" lon="0.51136">
        <ele>1440</ele>
        <time>2020-02-01T09:20:15.000Z</time>
      </trkpt>
      <trkpt lat="42.84773" lon="0.51136">
        <ele>1440</ele>
        <time>2020-02-01T09:20:16.000Z</time>
      </trkpt>
      <trkpt lat="42.84773" lon="0.51136">
        <ele>1440</ele>
        <time>2020-02-01T09:20:17.000Z</time>
      </trkpt>
      <trkpt lat="42.84774" lon="0.51135">
        <ele>1440</ele>
        <time>2020-02-01T09:20:18.000Z</time>
      </trkpt>
      <trkpt lat="42.84774" lon="0.51135">
        <ele>1440</ele>
        <time>2020-02-01T09:20:19.000Z</time>
      </trkpt>
      <trkpt lat="42.84774" lon="0.51134">
        <ele>1440</ele>
        <time>2020-02-01T09:20:20.000Z</time>
      </trkpt>
      <trkpt lat="42.84774" lon="0.51133">
        <ele>1440</ele>
        <time>2020-02-01T09:20:21.000Z</time>
      </trkpt>
      <trkpt lat="42.84775" lon="0.51132">
        <ele>1440</ele>
        <time>2020-02-01T09:20:22.000Z</time>
      </trkpt>
      <trkpt lat="42.84775" lon="0.51132">
        <ele>1440</ele>
        <time>2020-02-01T09:20:23.000Z</time>
      </trkpt>
      <trkpt lat="42.84776" lon="0.51131">
        <ele>1440</ele>
        <time>2020-02-01T09:20:24.000Z</time>
      </trkpt>
      <trkpt lat="42.84776" lon="0.51131">
        <ele>1440</ele>
        <time>2020-02-01T09:20:25.000Z</time>
      </trkpt>
      <trkpt lat="42.84777" lon="0.51131">
        <ele>1440</ele>
        <time>2020-02-01T09:20:26.000Z</time>
      </trkpt>
      <trkpt lat="42.84778" lon="0.51131">
        <ele>1440</ele>
        <time>2020-02-01T09:20:27.000Z</time>
      </trkpt>
      <trkpt lat="42.84779" lon="0.51131">
        <ele>1440</ele>
        <time>2020-02-01T09:20:28.000Z</time>
      </trkpt>
      <trkpt lat="42.84779" lon="0.51131">
        <ele>1440</ele>
        <time>2020-02-01T09:20:29.000Z</time>
      </trkpt>
      <trkpt lat="42.84779" lon="0.51131">
        <ele>1440</ele>
        <time>2020-02-01T09:20:30.000Z</time>
      </trkpt>
      <trkpt lat="42.84779" lon="0.51131">
        <ele>1440</ele>
        <time>2020-02-01T09:20:31.000Z</time>
      </trkpt>
      <trkpt lat="42.84779" lon="0.51131">
        <ele>1440</ele>
        <time>2020-02-01T09:20:32.000Z</time>
      </trkpt>
      <trkpt lat="42.84779" lon="0.51131">
        <ele>1440</ele>
        <time>2020-02-01T09:20:33.000Z</time>
      </trkpt>
      <trkpt lat="42.84778" lon="0.51132">
        <ele>1440</ele>
        <time>2020-02-01T09:20:34.000Z</time>
      </trkpt>
      <trkpt lat="42.84778" lon="0.51132">
        <ele>1440</ele>
        <time>2020-02-01T09:20:35.000Z</time>
      </trkpt>
      <trkpt lat="42.84778" lon="0.51132">
        <ele>1440</ele>
        <time>2020-02-01T09:20:36.000Z</time>
      </trkpt>
      <trkpt lat="42.84777" lon="0.51131">
        <ele>1440</ele>
        <time>2020-02-01T09:20:37.000Z</time>
      </trkpt>
      <trkpt lat="42.84777" lon="0.51131">
        <ele>1440</ele>
        <time>2020-02-01T09:20:38.000Z</time>
      </trkpt>
      <trkpt lat="42.84776" lon="0.51131">
        <ele>1440</ele>
        <time>2020-02-01T09:20:39.000Z</time>
      </trkpt>
      <trkpt lat="42.84776" lon="0.5113">
        <ele>1440</ele>
        <time>2020-02-01T09:20:40.000Z</time>
      </trkpt>
      <trkpt lat="42.84776" lon="0.5113">
        <ele>1440</ele>
        <time>2020-02-01T09:20:41.000Z</time>
      </trkpt>
      <trkpt lat="42.84775" lon="0.51129">
        <ele>1440</ele>
        <time>2020-02-01T09:20:42.000Z</time>
      </trkpt>
      <trkpt lat="42.84775" lon="0.51128">
        <ele>1440</ele>
        <time>2020-02-01T09:20:43.000Z</time>
      </trkpt>
      <trkpt lat="42.84775" lon="0.51127">
        <ele>1440</ele>
        <time>2020-02-01T09:20:44.000Z</time>
      </trkpt>
      <trkpt lat="42.84775" lon="0.51126">
        <ele>1440</ele>
        <time>2020-02-01T09:20:45.000Z</time>
      </trkpt>
      <trkpt lat="42.84774" lon="0.51125">
        <ele>1440.5</ele>
        <time>2020-02-01T09:20:46.000Z</time>
      </trkpt>
      <trkpt lat="42.84774" lon="0.51123">
        <ele>1441</ele>
        <time>2020-02-01T09:20:47.000Z</time>
      </trkpt>
      <trkpt lat="42.84774" lon="0.51122">
        <ele>1441</ele>
        <time>2020-02-01T09:20:48.000Z</time>
      </trkpt>
      <trkpt lat="42.84774" lon="0.51121">
        <ele>1441</ele>
        <time>2020-02-01T09:20:49.000Z</time>
      </trkpt>
      <trkpt lat="42.84774" lon="0.5112">
        <ele>1441</ele>
        <time>2020-02-01T09:20:50.000Z</time>
      </trkpt>
      <trkpt lat="42.84774" lon="0.51119">
        <ele>1441.3</ele>
        <time>2020-02-01T09:20:51.000Z</time>
      </trkpt>
      <trkpt lat="42.84774" lon="0.51118">
        <ele>1441.7</ele>
        <time>2020-02-01T09:20:52.000Z</time>
      </trkpt>
      <trkpt lat="42.84773" lon="0.51117">
        <ele>1442</ele>
        <time>2020-02-01T09:20:53.000Z</time>
      </trkpt>
      <trkpt lat="42.84773" lon="0.51116">
        <ele>1442</ele>
        <time>2020-02-01T09:20:54.000Z</time>
      </trkpt>
      <trkpt lat="42.84773" lon="0.51115">
        <ele>1442</ele>
        <time>2020-02-01T09:20:55.000Z</time>
      </trkpt>
      <trkpt lat="42.84772" lon="0.51114">
        <ele>1442</ele>
        <time>2020-02-01T09:20:56.000Z</time>
      </trkpt>
      <trkpt lat="42.84772" lon="0.51113">
        <ele>1442</ele>
        <time>2020-02-01T09:20:57.000Z</time>
      </trkpt>
      <trkpt lat="42.84771" lon="0.51112">
        <ele>1442.5</ele>
        <time>2020-02-01T09:20:58.000Z</time>
      </trkpt>
      <trkpt lat="42.84771" lon="0.51111">
        <ele>1443</ele>
        <time>2020-02-01T09:20:59.000Z</time>
      </trkpt>
      <trkpt lat="42.8477" lon="0.51111">
        <ele>1443</ele>
        <time>2020-02-01T09:21:00.000Z</time>
      </trkpt>
      <trkpt lat="42.84769" lon="0.5111">
        <ele>1443</ele>
        <time>2020-02-01T09:21:01.000Z</time>
      </trkpt>
      <trkpt lat="42.84768" lon="0.5111">
        <ele>1443</ele>
        <time>2020-02-01T09:21:02.000Z</time>
      </trkpt>
      <trkpt lat="42.84767" lon="0.51109">
        <ele>1443</ele>
        <time>2020-02-01T09:21:03.000Z</time>
      </trkpt>
      <trkpt lat="42.84766" lon="0.51109">
        <ele>1444</ele>
        <time>2020-02-01T09:21:04.000Z</time>
      </trkpt>
      <trkpt lat="42.84765" lon="0.51108">
        <ele>1444</ele>
        <time>2020-02-01T09:21:05.000Z</time>
      </trkpt>
      <trkpt lat="42.84764" lon="0.51108">
        <ele>1444</ele>
        <time>2020-02-01T09:21:06.000Z</time>
      </trkpt>
      <trkpt lat="42.84763" lon="0.51107">
        <ele>1444</ele>
        <time>2020-02-01T09:21:07.000Z</time>
      </trkpt>
      <trkpt lat="42.84763" lon="0.51107">
        <ele>1444</ele>
        <time>2020-02-01T09:21:08.000Z</time>
      </trkpt>
      <trkpt lat="42.84762" lon="0.51106">
        <ele>1444</ele>
        <time>2020-02-01T09:21:09.000Z</time>
      </trkpt>
      <trkpt lat="42.84762" lon="0.51106">
        <ele>1444</ele>
        <time>2020-02-01T09:21:10.000Z</time>
      </trkpt>
      <trkpt lat="42.84761" lon="0.51105">
        <ele>1445</ele>
        <time>2020-02-01T09:21:11.000Z</time>
      </trkpt>
      <trkpt lat="42.84761" lon="0.51106">
        <ele>1445</ele>
        <time>2020-02-01T09:21:14.000Z</time>
      </trkpt>
      <trkpt lat="42.8476" lon="0.51106">
        <ele>1445</ele>
        <time>2020-02-01T09:21:15.000Z</time>
      </trkpt>
      <trkpt lat="42.8476" lon="0.51106">
        <ele>1445</ele>
        <time>2020-02-01T09:21:16.000Z</time>
      </trkpt>
      <trkpt lat="42.84759" lon="0.51106">
        <ele>1446</ele>
        <time>2020-02-01T09:21:17.000Z</time>
      </trkpt>
      <trkpt lat="42.84759" lon="0.51106">
        <ele>1446</ele>
        <time>2020-02-01T09:21:18.000Z</time>
      </trkpt>
      <trkpt lat="42.84758" lon="0.51106">
        <ele>1446</ele>
        <time>2020-02-01T09:21:19.000Z</time>
      </trkpt>
      <trkpt lat="42.84757" lon="0.51107">
        <ele>1446</ele>
        <time>2020-02-01T09:21:20.000Z</time>
      </trkpt>
      <trkpt lat="42.84757" lon="0.51108">
        <ele>1446</ele>
        <time>2020-02-01T09:21:21.000Z</time>
      </trkpt>
      <trkpt lat="42.84756" lon="0.51108">
        <ele>1446</ele>
        <time>2020-02-01T09:21:22.000Z</time>
      </trkpt>
      <trkpt lat="42.84755" lon="0.51109">
        <ele>1446</ele>
        <time>2020-02-01T09:21:23.000Z</time>
      </trkpt>
      <trkpt lat="42.84755" lon="0.51109">
        <ele>1446</ele>
        <time>2020-02-01T09:21:24.000Z</time>
      </trkpt>
      <trkpt lat="42.84755" lon="0.51109">
        <ele>1446</ele>
        <time>2020-02-01T09:21:25.000Z</time>
      </trkpt>
      <trkpt lat="42.84755" lon="0.51109">
        <ele>1446</ele>
        <time>2020-02-01T09:21:26.000Z</time>
      </trkpt>
      <trkpt lat="42.84754" lon="0.51109">
        <ele>1446</ele>
        <time>2020-02-01T09:21:27.000Z</time>
      </trkpt>
      <trkpt lat="42.84754" lon="0.51109">
        <ele>1446</ele>
        <time>2020-02-01T09:21:28.000Z</time>
      </trkpt>
      <trkpt lat="42.84753" lon="0.51109">
        <ele>1446</ele>
        <time>2020-02-01T09:21:29.000Z</time>
      </trkpt>
      <trkpt lat="42.84752" lon="0.51109">
        <ele>1446</ele>
        <time>2020-02-01T09:21:30.000Z</time>
      </trkpt>
      <trkpt lat="42.84751" lon="0.5111">
        <ele>1446</ele>
        <time>2020-02-01T09:21:31.000Z</time>
      </trkpt>
      <trkpt lat="42.84751" lon="0.5111">
        <ele>1446</ele>
        <time>2020-02-01T09:21:32.000Z</time>
      </trkpt>
      <trkpt lat="42.8475" lon="0.5111">
        <ele>1446</ele>
        <time>2020-02-01T09:21:33.000Z</time>
      </trkpt>
      <trkpt lat="42.8475" lon="0.51111">
        <ele>1446</ele>
        <time>2020-02-01T09:21:34.000Z</time>
      </trkpt>
      <trkpt lat="42.8475" lon="0.51111">
        <ele>1446</ele>
        <time>2020-02-01T09:21:35.000Z</time>
      </trkpt>
      <trkpt lat="42.8475" lon="0.51111">
        <ele>1446</ele>
        <time>2020-02-01T09:21:36.000Z</time>
      </trkpt>
      <trkpt lat="42.84749" lon="0.51111">
        <ele>1446</ele>
        <time>2020-02-01T09:21:37.000Z</time>
      </trkpt>
      <trkpt lat="42.84749" lon="0.51111">
        <ele>1445.5</ele>
        <time>2020-02-01T09:21:38.000Z</time>
      </trkpt>
      <trkpt lat="42.84749" lon="0.51111">
        <ele>1445</ele>
        <time>2020-02-01T09:21:39.000Z</time>
      </trkpt>
      <trkpt lat="42.84749" lon="0.51111">
        <ele>1445</ele>
        <time>2020-02-01T09:21:40.000Z</time>
      </trkpt>
      <trkpt lat="42.84749" lon="0.51111">
        <ele>1445</ele>
        <time>2020-02-01T09:21:41.000Z</time>
      </trkpt>
      <trkpt lat="42.84749" lon="0.51111">
        <ele>1445</ele>
        <time>2020-02-01T09:21:42.000Z</time>
      </trkpt>
      <trkpt lat="42.8475" lon="0.51111">
        <ele>1445</ele>
        <time>2020-02-01T09:21:43.000Z</time>
      </trkpt>
      <trkpt lat="42.8475" lon="0.51111">
        <ele>1445</ele>
        <time>2020-02-01T09:21:44.000Z</time>
      </trkpt>
      <trkpt lat="42.8475" lon="0.51111">
        <ele>1445</ele>
        <time>2020-02-01T09:21:45.000Z</time>
      </trkpt>
      <trkpt lat="42.8475" lon="0.51111">
        <ele>1445</ele>
        <time>2020-02-01T09:21:46.000Z</time>
      </trkpt>
      <trkpt lat="42.8475" lon="0.51111">
        <ele>1445</ele>
        <time>2020-02-01T09:21:47.000Z</time>
      </trkpt>
      <trkpt lat="42.8475" lon="0.51111">
        <ele>1445</ele>
        <time>2020-02-01T09:21:48.000Z</time>
      </trkpt>
      <trkpt lat="42.8475" lon="0.51111">
        <ele>1446</ele>
        <time>2020-02-01T09:21:49.000Z</time>
      </trkpt>
      <trkpt lat="42.8475" lon="0.51111">
        <ele>1446</ele>
        <time>2020-02-01T09:21:50.000Z</time>
      </trkpt>
      <trkpt lat="42.8475" lon="0.51111">
        <ele>1446</ele>
        <time>2020-02-01T09:21:51.000Z</time>
      </trkpt>
      <trkpt lat="42.8475" lon="0.5111">
        <ele>1446</ele>
        <time>2020-02-01T09:21:52.000Z</time>
      </trkpt>
      <trkpt lat="42.8475" lon="0.5111">
        <ele>1446</ele>
        <time>2020-02-01T09:21:53.000Z</time>
      </trkpt>
      <trkpt lat="42.8475" lon="0.51109">
        <ele>1446</ele>
        <time>2020-02-01T09:21:54.000Z</time>
      </trkpt>
      <trkpt lat="42.8475" lon="0.51108">
        <ele>1446</ele>
        <time>2020-02-01T09:21:55.000Z</time>
      </trkpt>
      <trkpt lat="42.8475" lon="0.51107">
        <ele>1446</ele>
        <time>2020-02-01T09:21:56.000Z</time>
      </trkpt>
      <trkpt lat="42.8475" lon="0.51105">
        <ele>1445.5</ele>
        <time>2020-02-01T09:21:57.000Z</time>
      </trkpt>
      <trkpt lat="42.84751" lon="0.51104">
        <ele>1445</ele>
        <time>2020-02-01T09:21:58.000Z</time>
      </trkpt>
      <trkpt lat="42.84751" lon="0.51102">
        <ele>1445</ele>
        <time>2020-02-01T09:21:59.000Z</time>
      </trkpt>
      <trkpt lat="42.84751" lon="0.51101">
        <ele>1445</ele>
        <time>2020-02-01T09:22:00.000Z</time>
      </trkpt>
      <trkpt lat="42.8475" lon="0.511">
        <ele>1445</ele>
        <time>2020-02-01T09:22:01.000Z</time>
      </trkpt>
      <trkpt lat="42.84749" lon="0.51099">
        <ele>1445</ele>
        <time>2020-02-01T09:22:02.000Z</time>
      </trkpt>
      <trkpt lat="42.84748" lon="0.51099">
        <ele>1445</ele>
        <time>2020-02-01T09:22:03.000Z</time>
      </trkpt>
      <trkpt lat="42.84748" lon="0.51099">
        <ele>1445</ele>
        <time>2020-02-01T09:22:04.000Z</time>
      </trkpt>
      <trkpt lat="42.84747" lon="0.51099">
        <ele>1445</ele>
        <time>2020-02-01T09:22:05.000Z</time>
      </trkpt>
      <trkpt lat="42.84746" lon="0.511">
        <ele>1445</ele>
        <time>2020-02-01T09:22:06.000Z</time>
      </trkpt>
      <trkpt lat="42.84746" lon="0.511">
        <ele>1445</ele>
        <time>2020-02-01T09:22:07.000Z</time>
      </trkpt>
      <trkpt lat="42.84746" lon="0.51101">
        <ele>1445</ele>
        <time>2020-02-01T09:22:08.000Z</time>
      </trkpt>
      <trkpt lat="42.84746" lon="0.51101">
        <ele>1445</ele>
        <time>2020-02-01T09:22:09.000Z</time>
      </trkpt>
      <trkpt lat="42.84745" lon="0.51102">
        <ele>1445</ele>
        <time>2020-02-01T09:22:10.000Z</time>
      </trkpt>
      <trkpt lat="42.84745" lon="0.51102">
        <ele>1445</ele>
        <time>2020-02-01T09:22:11.000Z</time>
      </trkpt>
      <trkpt lat="42.84745" lon="0.51103">
        <ele>1445</ele>
        <time>2020-02-01T09:22:12.000Z</time>
      </trkpt>
      <trkpt lat="42.84745" lon="0.51103">
        <ele>1445</ele>
        <time>2020-02-01T09:22:13.000Z</time>
      </trkpt>
      <trkpt lat="42.84744" lon="0.51104">
        <ele>1445</ele>
        <time>2020-02-01T09:22:14.000Z</time>
      </trkpt>
      <trkpt lat="42.84744" lon="0.51105">
        <ele>1445</ele>
        <time>2020-02-01T09:22:15.000Z</time>
      </trkpt>
      <trkpt lat="42.84744" lon="0.51106">
        <ele>1445</ele>
        <time>2020-02-01T09:22:16.000Z</time>
      </trkpt>
      <trkpt lat="42.84743" lon="0.51107">
        <ele>1445</ele>
        <time>2020-02-01T09:22:17.000Z</time>
      </trkpt>
      <trkpt lat="42.84743" lon="0.51109">
        <ele>1445</ele>
        <time>2020-02-01T09:22:18.000Z</time>
      </trkpt>
      <trkpt lat="42.84742" lon="0.51109">
        <ele>1445</ele>
        <time>2020-02-01T09:22:19.000Z</time>
      </trkpt>
      <trkpt lat="42.84742" lon="0.5111">
        <ele>1445</ele>
        <time>2020-02-01T09:22:20.000Z</time>
      </trkpt>
      <trkpt lat="42.84742" lon="0.5111">
        <ele>1445</ele>
        <time>2020-02-01T09:22:21.000Z</time>
      </trkpt>
      <trkpt lat="42.84743" lon="0.5111">
        <ele>1445</ele>
        <time>2020-02-01T09:22:22.000Z</time>
      </trkpt>
      <trkpt lat="42.84744" lon="0.5111">
        <ele>1444</ele>
        <time>2020-02-01T09:22:23.000Z</time>
      </trkpt>
      <trkpt lat="42.84747" lon="0.51109">
        <ele>1444.3</ele>
        <time>2020-02-01T09:22:24.000Z</time>
      </trkpt>
      <trkpt lat="42.84749" lon="0.51108">
        <ele>1444.7</ele>
        <time>2020-02-01T09:22:25.000Z</time>
      </trkpt>
      <trkpt lat="42.84752" lon="0.51107">
        <ele>1445</ele>
        <time>2020-02-01T09:22:26.000Z</time>
      </trkpt>
      <trkpt lat="42.84753" lon="0.51106">
        <ele>1445.5</ele>
        <time>2020-02-01T09:22:27.000Z</time>
      </trkpt>
      <trkpt lat="42.84755" lon="0.51105">
        <ele>1446</ele>
        <time>2020-02-01T09:22:28.000Z</time>
      </trkpt>
      <trkpt lat="42.84756" lon="0.51104">
        <ele>1446</ele>
        <time>2020-02-01T09:22:29.000Z</time>
      </trkpt>
      <trkpt lat="42.84756" lon="0.51103">
        <ele>1446</ele>
        <time>2020-02-01T09:22:30.000Z</time>
      </trkpt>
      <trkpt lat="42.84757" lon="0.51102">
        <ele>1446</ele>
        <time>2020-02-01T09:22:31.000Z</time>
      </trkpt>
      <trkpt lat="42.84757" lon="0.51101">
        <ele>1445</ele>
        <time>2020-02-01T09:22:32.000Z</time>
      </trkpt>
      <trkpt lat="42.84755" lon="0.51101">
        <ele>1445</ele>
        <time>2020-02-01T09:22:33.000Z</time>
      </trkpt>
      <trkpt lat="42.84753" lon="0.51101">
        <ele>1445</ele>
        <time>2020-02-01T09:22:34.000Z</time>
      </trkpt>
      <trkpt lat="42.84751" lon="0.51101">
        <ele>1445</ele>
        <time>2020-02-01T09:22:35.000Z</time>
      </trkpt>
      <trkpt lat="42.8475" lon="0.51101">
        <ele>1445</ele>
        <time>2020-02-01T09:22:36.000Z</time>
      </trkpt>
      <trkpt lat="42.8475" lon="0.51101">
        <ele>1445</ele>
        <time>2020-02-01T09:22:37.000Z</time>
      </trkpt>
      <trkpt lat="42.84749" lon="0.511">
        <ele>1445</ele>
        <time>2020-02-01T09:22:38.000Z</time>
      </trkpt>
      <trkpt lat="42.84749" lon="0.511">
        <ele>1445</ele>
        <time>2020-02-01T09:22:39.000Z</time>
      </trkpt>
      <trkpt lat="42.84749" lon="0.511">
        <ele>1445</ele>
        <time>2020-02-01T09:22:40.000Z</time>
      </trkpt>
      <trkpt lat="42.84749" lon="0.511">
        <ele>1445</ele>
        <time>2020-02-01T09:22:41.000Z</time>
      </trkpt>
      <trkpt lat="42.84749" lon="0.511">
        <ele>1445</ele>
        <time>2020-02-01T09:22:42.000Z</time>
      </trkpt>
      <trkpt lat="42.84749" lon="0.511">
        <ele>1445</ele>
        <time>2020-02-01T09:22:43.000Z</time>
      </trkpt>
      <trkpt lat="42.84749" lon="0.511">
        <ele>1445</ele>
        <time>2020-02-01T09:22:44.000Z</time>
      </trkpt>
      <trkpt lat="42.84749" lon="0.511">
        <ele>1445</ele>
        <time>2020-02-01T09:22:45.000Z</time>
      </trkpt>
      <trkpt lat="42.84749" lon="0.511">
        <ele>1445</ele>
        <time>2020-02-01T09:22:46.000Z</time>
      </trkpt>
      <trkpt lat="42.84749" lon="0.511">
        <ele>1445</ele>
        <time>2020-02-01T09:22:47.000Z</time>
      </trkpt>
      <trkpt lat="42.84749" lon="0.511">
        <ele>1445</ele>
        <time>2020-02-01T09:22:48.000Z</time>
      </trkpt>
      <trkpt lat="42.84749" lon="0.511">
        <ele>1445</ele>
        <time>2020-02-01T09:22:49.000Z</time>
      </trkpt>
      <trkpt lat="42.84749" lon="0.511">
        <ele>1445</ele>
        <time>2020-02-01T09:22:50.000Z</time>
      </trkpt>
      <trkpt lat="42.84749" lon="0.51101">
        <ele>1445</ele>
        <time>2020-02-01T09:22:51.000Z</time>
      </trkpt>
      <trkpt lat="42.84749" lon="0.51101">
        <ele>1445</ele>
        <time>2020-02-01T09:22:52.000Z</time>
      </trkpt>
      <trkpt lat="42.84749" lon="0.51101">
        <ele>1445</ele>
        <time>2020-02-01T09:22:53.000Z</time>
      </trkpt>
      <trkpt lat="42.84749" lon="0.51101">
        <ele>1445</ele>
        <time>2020-02-01T09:22:54.000Z</time>
      </trkpt>
      <trkpt lat="42.84749" lon="0.51101">
        <ele>1445</ele>
        <time>2020-02-01T09:22:55.000Z</time>
      </trkpt>
      <trkpt lat="42.8475" lon="0.51102">
        <ele>1445</ele>
        <time>2020-02-01T09:22:56.000Z</time>
      </trkpt>
      <trkpt lat="42.8475" lon="0.51103">
        <ele>1445</ele>
        <time>2020-02-01T09:22:57.000Z</time>
      </trkpt>
      <trkpt lat="42.84751" lon="0.51105">
        <ele>1445</ele>
        <time>2020-02-01T09:22:58.000Z</time>
      </trkpt>
      <trkpt lat="42.8475" lon="0.51106">
        <ele>1445</ele>
        <time>2020-02-01T09:22:59.000Z</time>
      </trkpt>
      <trkpt lat="42.84749" lon="0.51108">
        <ele>1445</ele>
        <time>2020-02-01T09:23:00.000Z</time>
      </trkpt>
      <trkpt lat="42.84748" lon="0.51109">
        <ele>1445</ele>
        <time>2020-02-01T09:23:01.000Z</time>
      </trkpt>
      <trkpt lat="42.84749" lon="0.5111">
        <ele>1445</ele>
        <time>2020-02-01T09:23:02.000Z</time>
      </trkpt>
      <trkpt lat="42.8475" lon="0.5111">
        <ele>1445</ele>
        <time>2020-02-01T09:23:03.000Z</time>
      </trkpt>
      <trkpt lat="42.84751" lon="0.5111">
        <ele>1445</ele>
        <time>2020-02-01T09:23:04.000Z</time>
      </trkpt>
      <trkpt lat="42.84751" lon="0.5111">
        <ele>1445</ele>
        <time>2020-02-01T09:23:05.000Z</time>
      </trkpt>
      <trkpt lat="42.84752" lon="0.5111">
        <ele>1445</ele>
        <time>2020-02-01T09:23:06.000Z</time>
      </trkpt>
      <trkpt lat="42.84752" lon="0.5111">
        <ele>1445</ele>
        <time>2020-02-01T09:23:07.000Z</time>
      </trkpt>
      <trkpt lat="42.84752" lon="0.51109">
        <ele>1445</ele>
        <time>2020-02-01T09:23:08.000Z</time>
      </trkpt>
      <trkpt lat="42.84752" lon="0.51109">
        <ele>1445</ele>
        <time>2020-02-01T09:23:09.000Z</time>
      </trkpt>
      <trkpt lat="42.84752" lon="0.51108">
        <ele>1445.5</ele>
        <time>2020-02-01T09:23:10.000Z</time>
      </trkpt>
      <trkpt lat="42.84752" lon="0.51108">
        <ele>1446</ele>
        <time>2020-02-01T09:23:11.000Z</time>
      </trkpt>
      <trkpt lat="42.84752" lon="0.51108">
        <ele>1446</ele>
        <time>2020-02-01T09:23:14.000Z</time>
      </trkpt>
      <trkpt lat="42.84752" lon="0.51108">
        <ele>1446</ele>
        <time>2020-02-01T09:23:15.000Z</time>
      </trkpt>
      <trkpt lat="42.84752" lon="0.51108">
        <ele>1445</ele>
        <time>2020-02-01T09:23:16.000Z</time>
      </trkpt>
      <trkpt lat="42.84752" lon="0.51108">
        <ele>1445</ele>
        <time>2020-02-01T09:23:17.000Z</time>
      </trkpt>
      <trkpt lat="42.84752" lon="0.51108">
        <ele>1445</ele>
        <time>2020-02-01T09:23:18.000Z</time>
      </trkpt>
      <trkpt lat="42.84752" lon="0.51108">
        <ele>1445</ele>
        <time>2020-02-01T09:23:19.000Z</time>
      </trkpt>
      <trkpt lat="42.84752" lon="0.51108">
        <ele>1445</ele>
        <time>2020-02-01T09:23:20.000Z</time>
      </trkpt>
      <trkpt lat="42.84753" lon="0.51108">
        <ele>1445</ele>
        <time>2020-02-01T09:23:21.000Z</time>
      </trkpt>
      <trkpt lat="42.84753" lon="0.51108">
        <ele>1445</ele>
        <time>2020-02-01T09:23:22.000Z</time>
      </trkpt>
      <trkpt lat="42.84753" lon="0.51109">
        <ele>1445</ele>
        <time>2020-02-01T09:23:23.000Z</time>
      </trkpt>
      <trkpt lat="42.84753" lon="0.51109">
        <ele>1445</ele>
        <time>2020-02-01T09:23:24.000Z</time>
      </trkpt>
      <trkpt lat="42.84753" lon="0.51109">
        <ele>1445</ele>
        <time>2020-02-01T09:23:25.000Z</time>
      </trkpt>
      <trkpt lat="42.84753" lon="0.51109">
        <ele>1445</ele>
        <time>2020-02-01T09:23:26.000Z</time>
      </trkpt>
      <trkpt lat="42.84754" lon="0.51109">
        <ele>1445</ele>
        <time>2020-02-01T09:23:27.000Z</time>
      </trkpt>
      <trkpt lat="42.84755" lon="0.51109">
        <ele>1446</ele>
        <time>2020-02-01T09:23:28.000Z</time>
      </trkpt>
      <trkpt lat="42.84756" lon="0.51109">
        <ele>1448</ele>
        <time>2020-02-01T09:23:29.000Z</time>
      </trkpt>
      <trkpt lat="42.84757" lon="0.51109">
        <ele>1449</ele>
        <time>2020-02-01T09:23:30.000Z</time>
      </trkpt>
      <trkpt lat="42.84757" lon="0.51109">
        <ele>1449</ele>
        <time>2020-02-01T09:23:31.000Z</time>
      </trkpt>
      <trkpt lat="42.84757" lon="0.51109">
        <ele>1449</ele>
        <time>2020-02-01T09:23:32.000Z</time>
      </trkpt>
      <trkpt lat="42.84757" lon="0.51109">
        <ele>1449</ele>
        <time>2020-02-01T09:23:33.000Z</time>
      </trkpt>
      <trkpt lat="42.84757" lon="0.51109">
        <ele>1449</ele>
        <time>2020-02-01T09:23:34.000Z</time>
      </trkpt>
      <trkpt lat="42.84757" lon="0.51109">
        <ele>1449</ele>
        <time>2020-02-01T09:23:35.000Z</time>
      </trkpt>
      <trkpt lat="42.84757" lon="0.51109">
        <ele>1449</ele>
        <time>2020-02-01T09:23:36.000Z</time>
      </trkpt>
      <trkpt lat="42.84757" lon="0.51109">
        <ele>1449</ele>
        <time>2020-02-01T09:23:37.000Z</time>
      </trkpt>
      <trkpt lat="42.84757" lon="0.51109">
        <ele>1449</ele>
        <time>2020-02-01T09:23:38.000Z</time>
      </trkpt>
      <trkpt lat="42.84758" lon="0.51109">
        <ele>1449</ele>
        <time>2020-02-01T09:23:39.000Z</time>
      </trkpt>
      <trkpt lat="42.84758" lon="0.51109">
        <ele>1449</ele>
        <time>2020-02-01T09:23:40.000Z</time>
      </trkpt>
      <trkpt lat="42.84758" lon="0.51108">
        <ele>1449</ele>
        <time>2020-02-01T09:23:41.000Z</time>
      </trkpt>
      <trkpt lat="42.84758" lon="0.51107">
        <ele>1449</ele>
        <time>2020-02-01T09:23:42.000Z</time>
      </trkpt>
      <trkpt lat="42.84758" lon="0.51106">
        <ele>1449</ele>
        <time>2020-02-01T09:23:43.000Z</time>
      </trkpt>
      <trkpt lat="42.84758" lon="0.51105">
        <ele>1449</ele>
        <time>2020-02-01T09:23:44.000Z</time>
      </trkpt>
      <trkpt lat="42.84757" lon="0.51104">
        <ele>1449</ele>
        <time>2020-02-01T09:23:45.000Z</time>
      </trkpt>
      <trkpt lat="42.84757" lon="0.51102">
        <ele>1449</ele>
        <time>2020-02-01T09:23:46.000Z</time>
      </trkpt>
      <trkpt lat="42.84757" lon="0.511">
        <ele>1449</ele>
        <time>2020-02-01T09:23:47.000Z</time>
      </trkpt>
      <trkpt lat="42.84756" lon="0.51098">
        <ele>1449</ele>
        <time>2020-02-01T09:23:48.000Z</time>
      </trkpt>
      <trkpt lat="42.84756" lon="0.51096">
        <ele>1449</ele>
        <time>2020-02-01T09:23:49.000Z</time>
      </trkpt>
      <trkpt lat="42.84755" lon="0.51095">
        <ele>1449</ele>
        <time>2020-02-01T09:23:50.000Z</time>
      </trkpt>
      <trkpt lat="42.84755" lon="0.51093">
        <ele>1449.3</ele>
        <time>2020-02-01T09:23:51.000Z</time>
      </trkpt>
      <trkpt lat="42.84754" lon="0.51092">
        <ele>1449.7</ele>
        <time>2020-02-01T09:23:52.000Z</time>
      </trkpt>
      <trkpt lat="42.84753" lon="0.51091">
        <ele>1450</ele>
        <time>2020-02-01T09:23:53.000Z</time>
      </trkpt>
      <trkpt lat="42.84753" lon="0.5109">
        <ele>1450</ele>
        <time>2020-02-01T09:23:54.000Z</time>
      </trkpt>
      <trkpt lat="42.84752" lon="0.51089">
        <ele>1450</ele>
        <time>2020-02-01T09:23:55.000Z</time>
      </trkpt>
      <trkpt lat="42.84752" lon="0.51088">
        <ele>1450</ele>
        <time>2020-02-01T09:23:56.000Z</time>
      </trkpt>
      <trkpt lat="42.84751" lon="0.51087">
        <ele>1450</ele>
        <time>2020-02-01T09:23:57.000Z</time>
      </trkpt>
      <trkpt lat="42.84751" lon="0.51086">
        <ele>1450.5</ele>
        <time>2020-02-01T09:23:58.000Z</time>
      </trkpt>
      <trkpt lat="42.8475" lon="0.51085">
        <ele>1451</ele>
        <time>2020-02-01T09:23:59.000Z</time>
      </trkpt>
      <trkpt lat="42.8475" lon="0.51084">
        <ele>1451</ele>
        <time>2020-02-01T09:24:00.000Z</time>
      </trkpt>
      <trkpt lat="42.8475" lon="0.51083">
        <ele>1451</ele>
        <time>2020-02-01T09:24:01.000Z</time>
      </trkpt>
      <trkpt lat="42.8475" lon="0.51082">
        <ele>1451</ele>
        <time>2020-02-01T09:24:02.000Z</time>
      </trkpt>
      <trkpt lat="42.84749" lon="0.51081">
        <ele>1451</ele>
        <time>2020-02-01T09:24:03.000Z</time>
      </trkpt>
      <trkpt lat="42.84749" lon="0.5108">
        <ele>1451.5</ele>
        <time>2020-02-01T09:24:04.000Z</time>
      </trkpt>
      <trkpt lat="42.84749" lon="0.51079">
        <ele>1452</ele>
        <time>2020-02-01T09:24:05.000Z</time>
      </trkpt>
      <trkpt lat="42.84749" lon="0.51078">
        <ele>1452</ele>
        <time>2020-02-01T09:24:06.000Z</time>
      </trkpt>
      <trkpt lat="42.84748" lon="0.51077">
        <ele>1452</ele>
        <time>2020-02-01T09:24:07.000Z</time>
      </trkpt>
      <trkpt lat="42.84748" lon="0.51076">
        <ele>1452.5</ele>
        <time>2020-02-01T09:24:08.000Z</time>
      </trkpt>
      <trkpt lat="42.84748" lon="0.51075">
        <ele>1453</ele>
        <time>2020-02-01T09:24:09.000Z</time>
      </trkpt>
      <trkpt lat="42.84747" lon="0.51074">
        <ele>1453</ele>
        <time>2020-02-01T09:24:10.000Z</time>
      </trkpt>
      <trkpt lat="42.84747" lon="0.51074">
        <ele>1453</ele>
        <time>2020-02-01T09:24:11.000Z</time>
      </trkpt>
      <trkpt lat="42.84747" lon="0.51073">
        <ele>1453</ele>
        <time>2020-02-01T09:24:12.000Z</time>
      </trkpt>
      <trkpt lat="42.84746" lon="0.51072">
        <ele>1453</ele>
        <time>2020-02-01T09:24:13.000Z</time>
      </trkpt>
      <trkpt lat="42.84745" lon="0.51072">
        <ele>1453</ele>
        <time>2020-02-01T09:24:14.000Z</time>
      </trkpt>
      <trkpt lat="42.84745" lon="0.51071">
        <ele>1453</ele>
        <time>2020-02-01T09:24:15.000Z</time>
      </trkpt>
      <trkpt lat="42.84745" lon="0.5107">
        <ele>1453.5</ele>
        <time>2020-02-01T09:24:16.000Z</time>
      </trkpt>
      <trkpt lat="42.84744" lon="0.5107">
        <ele>1454</ele>
        <time>2020-02-01T09:24:17.000Z</time>
      </trkpt>
      <trkpt lat="42.84743" lon="0.51069">
        <ele>1454</ele>
        <time>2020-02-01T09:24:18.000Z</time>
      </trkpt>
      <trkpt lat="42.84742" lon="0.51069">
        <ele>1454</ele>
        <time>2020-02-01T09:24:19.000Z</time>
      </trkpt>
      <trkpt lat="42.84741" lon="0.51068">
        <ele>1454</ele>
        <time>2020-02-01T09:24:20.000Z</time>
      </trkpt>
      <trkpt lat="42.8474" lon="0.51067">
        <ele>1454</ele>
        <time>2020-02-01T09:24:21.000Z</time>
      </trkpt>
      <trkpt lat="42.8474" lon="0.51066">
        <ele>1455</ele>
        <time>2020-02-01T09:24:22.000Z</time>
      </trkpt>
      <trkpt lat="42.84739" lon="0.51065">
        <ele>1455</ele>
        <time>2020-02-01T09:24:23.000Z</time>
      </trkpt>
      <trkpt lat="42.84739" lon="0.51065">
        <ele>1455</ele>
        <time>2020-02-01T09:24:24.000Z</time>
      </trkpt>
      <trkpt lat="42.84738" lon="0.51064">
        <ele>1455</ele>
        <time>2020-02-01T09:24:25.000Z</time>
      </trkpt>
      <trkpt lat="42.84738" lon="0.51063">
        <ele>1455.5</ele>
        <time>2020-02-01T09:24:26.000Z</time>
      </trkpt>
      <trkpt lat="42.84738" lon="0.51063">
        <ele>1456</ele>
        <time>2020-02-01T09:24:27.000Z</time>
      </trkpt>
      <trkpt lat="42.84737" lon="0.51062">
        <ele>1456</ele>
        <time>2020-02-01T09:24:28.000Z</time>
      </trkpt>
      <trkpt lat="42.84737" lon="0.51061">
        <ele>1456</ele>
        <time>2020-02-01T09:24:29.000Z</time>
      </trkpt>
      <trkpt lat="42.84737" lon="0.51061">
        <ele>1456</ele>
        <time>2020-02-01T09:24:30.000Z</time>
      </trkpt>
      <trkpt lat="42.84737" lon="0.5106">
        <ele>1456</ele>
        <time>2020-02-01T09:24:31.000Z</time>
      </trkpt>
      <trkpt lat="42.84737" lon="0.5106">
        <ele>1456</ele>
        <time>2020-02-01T09:24:32.000Z</time>
      </trkpt>
      <trkpt lat="42.84736" lon="0.51059">
        <ele>1456</ele>
        <time>2020-02-01T09:24:33.000Z</time>
      </trkpt>
      <trkpt lat="42.84736" lon="0.51059">
        <ele>1456.5</ele>
        <time>2020-02-01T09:24:34.000Z</time>
      </trkpt>
      <trkpt lat="42.84736" lon="0.51058">
        <ele>1457</ele>
        <time>2020-02-01T09:24:35.000Z</time>
      </trkpt>
      <trkpt lat="42.84736" lon="0.51058">
        <ele>1457</ele>
        <time>2020-02-01T09:24:36.000Z</time>
      </trkpt>
      <trkpt lat="42.84736" lon="0.51057">
        <ele>1457</ele>
        <time>2020-02-01T09:24:37.000Z</time>
      </trkpt>
      <trkpt lat="42.84736" lon="0.51057">
        <ele>1457</ele>
        <time>2020-02-01T09:24:38.000Z</time>
      </trkpt>
      <trkpt lat="42.84735" lon="0.51056">
        <ele>1457</ele>
        <time>2020-02-01T09:24:39.000Z</time>
      </trkpt>
      <trkpt lat="42.84735" lon="0.51056">
        <ele>1457</ele>
        <time>2020-02-01T09:24:40.000Z</time>
      </trkpt>
      <trkpt lat="42.84735" lon="0.51055">
        <ele>1457</ele>
        <time>2020-02-01T09:24:41.000Z</time>
      </trkpt>
      <trkpt lat="42.84734" lon="0.51054">
        <ele>1457</ele>
        <time>2020-02-01T09:24:42.000Z</time>
      </trkpt>
      <trkpt lat="42.84733" lon="0.51054">
        <ele>1457</ele>
        <time>2020-02-01T09:24:43.000Z</time>
      </trkpt>
      <trkpt lat="42.84733" lon="0.51053">
        <ele>1457.5</ele>
        <time>2020-02-01T09:24:44.000Z</time>
      </trkpt>
      <trkpt lat="42.84732" lon="0.51052">
        <ele>1458</ele>
        <time>2020-02-01T09:24:45.000Z</time>
      </trkpt>
      <trkpt lat="42.84731" lon="0.51051">
        <ele>1458</ele>
        <time>2020-02-01T09:24:46.000Z</time>
      </trkpt>
      <trkpt lat="42.84731" lon="0.5105">
        <ele>1458</ele>
        <time>2020-02-01T09:24:47.000Z</time>
      </trkpt>
      <trkpt lat="42.8473" lon="0.51049">
        <ele>1458</ele>
        <time>2020-02-01T09:24:48.000Z</time>
      </trkpt>
      <trkpt lat="42.84729" lon="0.51048">
        <ele>1458</ele>
        <time>2020-02-01T09:24:49.000Z</time>
      </trkpt>
      <trkpt lat="42.84728" lon="0.51047">
        <ele>1459</ele>
        <time>2020-02-01T09:24:50.000Z</time>
      </trkpt>
      <trkpt lat="42.84727" lon="0.51046">
        <ele>1459</ele>
        <time>2020-02-01T09:24:51.000Z</time>
      </trkpt>
      <trkpt lat="42.84726" lon="0.51045">
        <ele>1459</ele>
        <time>2020-02-01T09:24:52.000Z</time>
      </trkpt>
      <trkpt lat="42.84725" lon="0.51043">
        <ele>1459</ele>
        <time>2020-02-01T09:24:53.000Z</time>
      </trkpt>
      <trkpt lat="42.84724" lon="0.51042">
        <ele>1459</ele>
        <time>2020-02-01T09:24:54.000Z</time>
      </trkpt>
      <trkpt lat="42.84723" lon="0.51041">
        <ele>1459</ele>
        <time>2020-02-01T09:24:55.000Z</time>
      </trkpt>
      <trkpt lat="42.84722" lon="0.5104">
        <ele>1459.5</ele>
        <time>2020-02-01T09:24:56.000Z</time>
      </trkpt>
      <trkpt lat="42.84721" lon="0.51039">
        <ele>1460</ele>
        <time>2020-02-01T09:24:57.000Z</time>
      </trkpt>
      <trkpt lat="42.8472" lon="0.51038">
        <ele>1460</ele>
        <time>2020-02-01T09:24:58.000Z</time>
      </trkpt>
      <trkpt lat="42.84719" lon="0.51038">
        <ele>1460</ele>
        <time>2020-02-01T09:24:59.000Z</time>
      </trkpt>
      <trkpt lat="42.84719" lon="0.51037">
        <ele>1460</ele>
        <time>2020-02-01T09:25:00.000Z</time>
      </trkpt>
      <trkpt lat="42.84718" lon="0.51036">
        <ele>1460.3</ele>
        <time>2020-02-01T09:25:01.000Z</time>
      </trkpt>
      <trkpt lat="42.84718" lon="0.51035">
        <ele>1460.7</ele>
        <time>2020-02-01T09:25:02.000Z</time>
      </trkpt>
      <trkpt lat="42.84718" lon="0.51034">
        <ele>1461</ele>
        <time>2020-02-01T09:25:03.000Z</time>
      </trkpt>
      <trkpt lat="42.84718" lon="0.51033">
        <ele>1461</ele>
        <time>2020-02-01T09:25:04.000Z</time>
      </trkpt>
      <trkpt lat="42.84718" lon="0.51032">
        <ele>1461</ele>
        <time>2020-02-01T09:25:05.000Z</time>
      </trkpt>
      <trkpt lat="42.84718" lon="0.51032">
        <ele>1461.5</ele>
        <time>2020-02-01T09:25:06.000Z</time>
      </trkpt>
      <trkpt lat="42.84719" lon="0.51031">
        <ele>1462</ele>
        <time>2020-02-01T09:25:07.000Z</time>
      </trkpt>
      <trkpt lat="42.84719" lon="0.5103">
        <ele>1462</ele>
        <time>2020-02-01T09:25:08.000Z</time>
      </trkpt>
      <trkpt lat="42.84719" lon="0.51029">
        <ele>1462</ele>
        <time>2020-02-01T09:25:09.000Z</time>
      </trkpt>
      <trkpt lat="42.84719" lon="0.51028">
        <ele>1462</ele>
        <time>2020-02-01T09:25:10.000Z</time>
      </trkpt>
      <trkpt lat="42.84719" lon="0.51027">
        <ele>1462</ele>
        <time>2020-02-01T09:25:11.000Z</time>
      </trkpt>
      <trkpt lat="42.8472" lon="0.51026">
        <ele>1463</ele>
        <time>2020-02-01T09:25:12.000Z</time>
      </trkpt>
      <trkpt lat="42.8472" lon="0.51024">
        <ele>1463</ele>
        <time>2020-02-01T09:25:13.000Z</time>
      </trkpt>
      <trkpt lat="42.8472" lon="0.51023">
        <ele>1463</ele>
        <time>2020-02-01T09:25:14.000Z</time>
      </trkpt>
      <trkpt lat="42.84721" lon="0.51022">
        <ele>1463</ele>
        <time>2020-02-01T09:25:15.000Z</time>
      </trkpt>
      <trkpt lat="42.84721" lon="0.5102">
        <ele>1464</ele>
        <time>2020-02-01T09:25:16.000Z</time>
      </trkpt>
      <trkpt lat="42.84722" lon="0.51019">
        <ele>1464</ele>
        <time>2020-02-01T09:25:17.000Z</time>
      </trkpt>
      <trkpt lat="42.84723" lon="0.51017">
        <ele>1464</ele>
        <time>2020-02-01T09:25:18.000Z</time>
      </trkpt>
      <trkpt lat="42.84723" lon="0.51016">
        <ele>1464</ele>
        <time>2020-02-01T09:25:19.000Z</time>
      </trkpt>
      <trkpt lat="42.84724" lon="0.51015">
        <ele>1464.5</ele>
        <time>2020-02-01T09:25:20.000Z</time>
      </trkpt>
      <trkpt lat="42.84725" lon="0.51014">
        <ele>1465</ele>
        <time>2020-02-01T09:25:21.000Z</time>
      </trkpt>
      <trkpt lat="42.84727" lon="0.51012">
        <ele>1465</ele>
        <time>2020-02-01T09:25:22.000Z</time>
      </trkpt>
      <trkpt lat="42.84728" lon="0.51011">
        <ele>1465</ele>
        <time>2020-02-01T09:25:23.000Z</time>
      </trkpt>
      <trkpt lat="42.84729" lon="0.5101">
        <ele>1465</ele>
        <time>2020-02-01T09:25:24.000Z</time>
      </trkpt>
      <trkpt lat="42.8473" lon="0.51009">
        <ele>1465</ele>
        <time>2020-02-01T09:25:25.000Z</time>
      </trkpt>
      <trkpt lat="42.8473" lon="0.51008">
        <ele>1465</ele>
        <time>2020-02-01T09:25:26.000Z</time>
      </trkpt>
      <trkpt lat="42.84731" lon="0.51007">
        <ele>1465</ele>
        <time>2020-02-01T09:25:27.000Z</time>
      </trkpt>
      <trkpt lat="42.84731" lon="0.51006">
        <ele>1465</ele>
        <time>2020-02-01T09:25:28.000Z</time>
      </trkpt>
      <trkpt lat="42.84731" lon="0.51005">
        <ele>1465</ele>
        <time>2020-02-01T09:25:29.000Z</time>
      </trkpt>
      <trkpt lat="42.84731" lon="0.51003">
        <ele>1465.5</ele>
        <time>2020-02-01T09:25:30.000Z</time>
      </trkpt>
      <trkpt lat="42.8473" lon="0.51002">
        <ele>1466</ele>
        <time>2020-02-01T09:25:31.000Z</time>
      </trkpt>
      <trkpt lat="42.8473" lon="0.51002">
        <ele>1466</ele>
        <time>2020-02-01T09:25:32.000Z</time>
      </trkpt>
      <trkpt lat="42.84729" lon="0.51001">
        <ele>1466</ele>
        <time>2020-02-01T09:25:33.000Z</time>
      </trkpt>
      <trkpt lat="42.84728" lon="0.51001">
        <ele>1466</ele>
        <time>2020-02-01T09:25:34.000Z</time>
      </trkpt>
      <trkpt lat="42.84728" lon="0.51001">
        <ele>1466</ele>
        <time>2020-02-01T09:25:35.000Z</time>
      </trkpt>
      <trkpt lat="42.84728" lon="0.51001">
        <ele>1466</ele>
        <time>2020-02-01T09:25:36.000Z</time>
      </trkpt>
      <trkpt lat="42.84727" lon="0.51">
        <ele>1466.5</ele>
        <time>2020-02-01T09:25:37.000Z</time>
      </trkpt>
      <trkpt lat="42.84728" lon="0.50999">
        <ele>1467</ele>
        <time>2020-02-01T09:25:38.000Z</time>
      </trkpt>
      <trkpt lat="42.84728" lon="0.50998">
        <ele>1467</ele>
        <time>2020-02-01T09:25:39.000Z</time>
      </trkpt>
      <trkpt lat="42.84728" lon="0.50996">
        <ele>1467</ele>
        <time>2020-02-01T09:25:40.000Z</time>
      </trkpt>
      <trkpt lat="42.84728" lon="0.50995">
        <ele>1467.5</ele>
        <time>2020-02-01T09:25:41.000Z</time>
      </trkpt>
      <trkpt lat="42.84728" lon="0.50993">
        <ele>1468</ele>
        <time>2020-02-01T09:25:42.000Z</time>
      </trkpt>
      <trkpt lat="42.84728" lon="0.50992">
        <ele>1468</ele>
        <time>2020-02-01T09:25:43.000Z</time>
      </trkpt>
      <trkpt lat="42.84727" lon="0.50991">
        <ele>1468</ele>
        <time>2020-02-01T09:25:44.000Z</time>
      </trkpt>
      <trkpt lat="42.84727" lon="0.50991">
        <ele>1468</ele>
        <time>2020-02-01T09:25:45.000Z</time>
      </trkpt>
      <trkpt lat="42.84727" lon="0.50991">
        <ele>1468</ele>
        <time>2020-02-01T09:25:46.000Z</time>
      </trkpt>
      <trkpt lat="42.84727" lon="0.5099">
        <ele>1468</ele>
        <time>2020-02-01T09:25:47.000Z</time>
      </trkpt>
      <trkpt lat="42.84726" lon="0.5099">
        <ele>1469</ele>
        <time>2020-02-01T09:25:48.000Z</time>
      </trkpt>
      <trkpt lat="42.84726" lon="0.5099">
        <ele>1469</ele>
        <time>2020-02-01T09:25:49.000Z</time>
      </trkpt>
      <trkpt lat="42.84725" lon="0.5099">
        <ele>1469</ele>
        <time>2020-02-01T09:25:50.000Z</time>
      </trkpt>
      <trkpt lat="42.84724" lon="0.50989">
        <ele>1469</ele>
        <time>2020-02-01T09:25:51.000Z</time>
      </trkpt>
      <trkpt lat="42.84724" lon="0.50989">
        <ele>1470</ele>
        <time>2020-02-01T09:25:52.000Z</time>
      </trkpt>
      <trkpt lat="42.84723" lon="0.50989">
        <ele>1470</ele>
        <time>2020-02-01T09:25:53.000Z</time>
      </trkpt>
      <trkpt lat="42.84722" lon="0.50988">
        <ele>1470</ele>
        <time>2020-02-01T09:25:54.000Z</time>
      </trkpt>
      <trkpt lat="42.84722" lon="0.50988">
        <ele>1470</ele>
        <time>2020-02-01T09:25:55.000Z</time>
      </trkpt>
      <trkpt lat="42.84721" lon="0.50987">
        <ele>1471</ele>
        <time>2020-02-01T09:25:56.000Z</time>
      </trkpt>
      <trkpt lat="42.8472" lon="0.50986">
        <ele>1471</ele>
        <time>2020-02-01T09:25:57.000Z</time>
      </trkpt>
      <trkpt lat="42.8472" lon="0.50985">
        <ele>1471</ele>
        <time>2020-02-01T09:25:58.000Z</time>
      </trkpt>
      <trkpt lat="42.8472" lon="0.50984">
        <ele>1471</ele>
        <time>2020-02-01T09:25:59.000Z</time>
      </trkpt>
      <trkpt lat="42.8472" lon="0.50983">
        <ele>1471</ele>
        <time>2020-02-01T09:26:00.000Z</time>
      </trkpt>
      <trkpt lat="42.8472" lon="0.50982">
        <ele>1471</ele>
        <time>2020-02-01T09:26:01.000Z</time>
      </trkpt>
      <trkpt lat="42.84719" lon="0.50981">
        <ele>1471.5</ele>
        <time>2020-02-01T09:26:02.000Z</time>
      </trkpt>
      <trkpt lat="42.84719" lon="0.5098">
        <ele>1472</ele>
        <time>2020-02-01T09:26:03.000Z</time>
      </trkpt>
      <trkpt lat="42.84719" lon="0.50978">
        <ele>1472</ele>
        <time>2020-02-01T09:26:04.000Z</time>
      </trkpt>
      <trkpt lat="42.84719" lon="0.50977">
        <ele>1472</ele>
        <time>2020-02-01T09:26:05.000Z</time>
      </trkpt>
      <trkpt lat="42.84719" lon="0.50975">
        <ele>1472</ele>
        <time>2020-02-01T09:26:06.000Z</time>
      </trkpt>
      <trkpt lat="42.8472" lon="0.50974">
        <ele>1472.5</ele>
        <time>2020-02-01T09:26:07.000Z</time>
      </trkpt>
      <trkpt lat="42.84721" lon="0.50973">
        <ele>1473</ele>
        <time>2020-02-01T09:26:08.000Z</time>
      </trkpt>
      <trkpt lat="42.84723" lon="0.50973">
        <ele>1473</ele>
        <time>2020-02-01T09:26:09.000Z</time>
      </trkpt>
      <trkpt lat="42.84724" lon="0.50971">
        <ele>1473</ele>
        <time>2020-02-01T09:26:10.000Z</time>
      </trkpt>
      <trkpt lat="42.84724" lon="0.50968">
        <ele>1473</ele>
        <time>2020-02-01T09:26:11.000Z</time>
      </trkpt>
      <trkpt lat="42.84723" lon="0.50967">
        <ele>1473</ele>
        <time>2020-02-01T09:26:12.000Z</time>
      </trkpt>
      <trkpt lat="42.84723" lon="0.50966">
        <ele>1473</ele>
        <time>2020-02-01T09:26:13.000Z</time>
      </trkpt>
      <trkpt lat="42.84722" lon="0.50966">
        <ele>1473.3</ele>
        <time>2020-02-01T09:26:14.000Z</time>
      </trkpt>
      <trkpt lat="42.84722" lon="0.50966">
        <ele>1473.7</ele>
        <time>2020-02-01T09:26:15.000Z</time>
      </trkpt>
      <trkpt lat="42.84722" lon="0.50966">
        <ele>1474</ele>
        <time>2020-02-01T09:26:16.000Z</time>
      </trkpt>
      <trkpt lat="42.84721" lon="0.50966">
        <ele>1475</ele>
        <time>2020-02-01T09:26:17.000Z</time>
      </trkpt>
      <trkpt lat="42.8472" lon="0.50966">
        <ele>1475</ele>
        <time>2020-02-01T09:26:18.000Z</time>
      </trkpt>
      <trkpt lat="42.84718" lon="0.50967">
        <ele>1475</ele>
        <time>2020-02-01T09:26:19.000Z</time>
      </trkpt>
      <trkpt lat="42.84718" lon="0.50967">
        <ele>1475</ele>
        <time>2020-02-01T09:26:20.000Z</time>
      </trkpt>
      <trkpt lat="42.84717" lon="0.50967">
        <ele>1475</ele>
        <time>2020-02-01T09:26:21.000Z</time>
      </trkpt>
      <trkpt lat="42.84718" lon="0.50967">
        <ele>1475</ele>
        <time>2020-02-01T09:26:22.000Z</time>
      </trkpt>
      <trkpt lat="42.84719" lon="0.50967">
        <ele>1475</ele>
        <time>2020-02-01T09:26:23.000Z</time>
      </trkpt>
      <trkpt lat="42.8472" lon="0.50966">
        <ele>1475</ele>
        <time>2020-02-01T09:26:24.000Z</time>
      </trkpt>
      <trkpt lat="42.84721" lon="0.50965">
        <ele>1475</ele>
        <time>2020-02-01T09:26:25.000Z</time>
      </trkpt>
      <trkpt lat="42.84722" lon="0.50965">
        <ele>1475</ele>
        <time>2020-02-01T09:26:26.000Z</time>
      </trkpt>
      <trkpt lat="42.84722" lon="0.50964">
        <ele>1475.5</ele>
        <time>2020-02-01T09:26:27.000Z</time>
      </trkpt>
      <trkpt lat="42.84722" lon="0.50963">
        <ele>1476</ele>
        <time>2020-02-01T09:26:28.000Z</time>
      </trkpt>
      <trkpt lat="42.84722" lon="0.50962">
        <ele>1477</ele>
        <time>2020-02-01T09:26:29.000Z</time>
      </trkpt>
      <trkpt lat="42.84722" lon="0.50961">
        <ele>1477</ele>
        <time>2020-02-01T09:26:30.000Z</time>
      </trkpt>
      <trkpt lat="42.84722" lon="0.5096">
        <ele>1477</ele>
        <time>2020-02-01T09:26:31.000Z</time>
      </trkpt>
      <trkpt lat="42.84721" lon="0.50959">
        <ele>1477</ele>
        <time>2020-02-01T09:26:32.000Z</time>
      </trkpt>
      <trkpt lat="42.84721" lon="0.50958">
        <ele>1477</ele>
        <time>2020-02-01T09:26:33.000Z</time>
      </trkpt>
      <trkpt lat="42.8472" lon="0.50957">
        <ele>1477.5</ele>
        <time>2020-02-01T09:26:34.000Z</time>
      </trkpt>
      <trkpt lat="42.8472" lon="0.50956">
        <ele>1478</ele>
        <time>2020-02-01T09:26:35.000Z</time>
      </trkpt>
      <trkpt lat="42.8472" lon="0.50955">
        <ele>1478</ele>
        <time>2020-02-01T09:26:36.000Z</time>
      </trkpt>
      <trkpt lat="42.8472" lon="0.50954">
        <ele>1478</ele>
        <time>2020-02-01T09:26:37.000Z</time>
      </trkpt>
      <trkpt lat="42.8472" lon="0.50954">
        <ele>1478</ele>
        <time>2020-02-01T09:26:38.000Z</time>
      </trkpt>
      <trkpt lat="42.8472" lon="0.50953">
        <ele>1478</ele>
        <time>2020-02-01T09:26:39.000Z</time>
      </trkpt>
      <trkpt lat="42.8472" lon="0.50952">
        <ele>1478</ele>
        <time>2020-02-01T09:26:40.000Z</time>
      </trkpt>
      <trkpt lat="42.8472" lon="0.50952">
        <ele>1478</ele>
        <time>2020-02-01T09:26:41.000Z</time>
      </trkpt>
      <trkpt lat="42.8472" lon="0.50951">
        <ele>1478</ele>
        <time>2020-02-01T09:26:42.000Z</time>
      </trkpt>
      <trkpt lat="42.8472" lon="0.50951">
        <ele>1478</ele>
        <time>2020-02-01T09:26:43.000Z</time>
      </trkpt>
      <trkpt lat="42.8472" lon="0.5095">
        <ele>1478.5</ele>
        <time>2020-02-01T09:26:44.000Z</time>
      </trkpt>
      <trkpt lat="42.8472" lon="0.50949">
        <ele>1479</ele>
        <time>2020-02-01T09:26:45.000Z</time>
      </trkpt>
      <trkpt lat="42.8472" lon="0.50949">
        <ele>1479</ele>
        <time>2020-02-01T09:26:46.000Z</time>
      </trkpt>
      <trkpt lat="42.8472" lon="0.50948">
        <ele>1479</ele>
        <time>2020-02-01T09:26:47.000Z</time>
      </trkpt>
      <trkpt lat="42.84719" lon="0.50947">
        <ele>1479</ele>
        <time>2020-02-01T09:26:48.000Z</time>
      </trkpt>
      <trkpt lat="42.84719" lon="0.50947">
        <ele>1479</ele>
        <time>2020-02-01T09:26:49.000Z</time>
      </trkpt>
      <trkpt lat="42.84719" lon="0.50946">
        <ele>1479</ele>
        <time>2020-02-01T09:26:50.000Z</time>
      </trkpt>
      <trkpt lat="42.8472" lon="0.50945">
        <ele>1479</ele>
        <time>2020-02-01T09:26:51.000Z</time>
      </trkpt>
      <trkpt lat="42.8472" lon="0.50944">
        <ele>1479</ele>
        <time>2020-02-01T09:26:52.000Z</time>
      </trkpt>
      <trkpt lat="42.8472" lon="0.50944">
        <ele>1479</ele>
        <time>2020-02-01T09:26:53.000Z</time>
      </trkpt>
      <trkpt lat="42.84721" lon="0.50943">
        <ele>1479.5</ele>
        <time>2020-02-01T09:26:54.000Z</time>
      </trkpt>
      <trkpt lat="42.84721" lon="0.50943">
        <ele>1480</ele>
        <time>2020-02-01T09:26:55.000Z</time>
      </trkpt>
      <trkpt lat="42.84721" lon="0.50943">
        <ele>1480</ele>
        <time>2020-02-01T09:26:56.000Z</time>
      </trkpt>
      <trkpt lat="42.84721" lon="0.50943">
        <ele>1480</ele>
        <time>2020-02-01T09:26:57.000Z</time>
      </trkpt>
      <trkpt lat="42.84722" lon="0.50943">
        <ele>1480</ele>
        <time>2020-02-01T09:26:58.000Z</time>
      </trkpt>
      <trkpt lat="42.84722" lon="0.50943">
        <ele>1480</ele>
        <time>2020-02-01T09:26:59.000Z</time>
      </trkpt>
      <trkpt lat="42.84722" lon="0.50943">
        <ele>1480</ele>
        <time>2020-02-01T09:27:00.000Z</time>
      </trkpt>
      <trkpt lat="42.84722" lon="0.50942">
        <ele>1480</ele>
        <time>2020-02-01T09:27:01.000Z</time>
      </trkpt>
      <trkpt lat="42.84722" lon="0.50942">
        <ele>1480</ele>
        <time>2020-02-01T09:27:02.000Z</time>
      </trkpt>
      <trkpt lat="42.84722" lon="0.50942">
        <ele>1480</ele>
        <time>2020-02-01T09:27:03.000Z</time>
      </trkpt>
      <trkpt lat="42.84722" lon="0.50942">
        <ele>1480</ele>
        <time>2020-02-01T09:27:04.000Z</time>
      </trkpt>
      <trkpt lat="42.84722" lon="0.50941">
        <ele>1480</ele>
        <time>2020-02-01T09:27:05.000Z</time>
      </trkpt>
      <trkpt lat="42.84722" lon="0.50941">
        <ele>1481</ele>
        <time>2020-02-01T09:27:06.000Z</time>
      </trkpt>
      <trkpt lat="42.84722" lon="0.5094">
        <ele>1481</ele>
        <time>2020-02-01T09:27:07.000Z</time>
      </trkpt>
      <trkpt lat="42.84721" lon="0.5094">
        <ele>1481</ele>
        <time>2020-02-01T09:27:08.000Z</time>
      </trkpt>
      <trkpt lat="42.84721" lon="0.50939">
        <ele>1481</ele>
        <time>2020-02-01T09:27:09.000Z</time>
      </trkpt>
      <trkpt lat="42.84721" lon="0.50939">
        <ele>1481.5</ele>
        <time>2020-02-01T09:27:10.000Z</time>
      </trkpt>
      <trkpt lat="42.84721" lon="0.50938">
        <ele>1482</ele>
        <time>2020-02-01T09:27:11.000Z</time>
      </trkpt>
      <trkpt lat="42.84722" lon="0.50937">
        <ele>1482</ele>
        <time>2020-02-01T09:27:12.000Z</time>
      </trkpt>
      <trkpt lat="42.84722" lon="0.50937">
        <ele>1482</ele>
        <time>2020-02-01T09:27:13.000Z</time>
      </trkpt>
      <trkpt lat="42.84722" lon="0.50936">
        <ele>1482</ele>
        <time>2020-02-01T09:27:14.000Z</time>
      </trkpt>
      <trkpt lat="42.84723" lon="0.50935">
        <ele>1482</ele>
        <time>2020-02-01T09:27:15.000Z</time>
      </trkpt>
      <trkpt lat="42.84723" lon="0.50935">
        <ele>1483</ele>
        <time>2020-02-01T09:27:16.000Z</time>
      </trkpt>
      <trkpt lat="42.84723" lon="0.50934">
        <ele>1483</ele>
        <time>2020-02-01T09:27:17.000Z</time>
      </trkpt>
      <trkpt lat="42.84723" lon="0.50934">
        <ele>1483</ele>
        <time>2020-02-01T09:27:18.000Z</time>
      </trkpt>
      <trkpt lat="42.84722" lon="0.50933">
        <ele>1483</ele>
        <time>2020-02-01T09:27:19.000Z</time>
      </trkpt>
      <trkpt lat="42.84722" lon="0.50933">
        <ele>1483</ele>
        <time>2020-02-01T09:27:20.000Z</time>
      </trkpt>
      <trkpt lat="42.84723" lon="0.50933">
        <ele>1483</ele>
        <time>2020-02-01T09:27:21.000Z</time>
      </trkpt>
      <trkpt lat="42.84723" lon="0.50932">
        <ele>1483</ele>
        <time>2020-02-01T09:27:22.000Z</time>
      </trkpt>
      <trkpt lat="42.84723" lon="0.50931">
        <ele>1483</ele>
        <time>2020-02-01T09:27:23.000Z</time>
      </trkpt>
      <trkpt lat="42.84724" lon="0.50931">
        <ele>1483.5</ele>
        <time>2020-02-01T09:27:24.000Z</time>
      </trkpt>
      <trkpt lat="42.84724" lon="0.5093">
        <ele>1484</ele>
        <time>2020-02-01T09:27:25.000Z</time>
      </trkpt>
      <trkpt lat="42.84725" lon="0.50929">
        <ele>1484</ele>
        <time>2020-02-01T09:27:26.000Z</time>
      </trkpt>
      <trkpt lat="42.84725" lon="0.50928">
        <ele>1484</ele>
        <time>2020-02-01T09:27:27.000Z</time>
      </trkpt>
      <trkpt lat="42.84724" lon="0.50927">
        <ele>1484</ele>
        <time>2020-02-01T09:27:28.000Z</time>
      </trkpt>
      <trkpt lat="42.84724" lon="0.50926">
        <ele>1484</ele>
        <time>2020-02-01T09:27:29.000Z</time>
      </trkpt>
      <trkpt lat="42.84723" lon="0.50925">
        <ele>1484</ele>
        <time>2020-02-01T09:27:30.000Z</time>
      </trkpt>
      <trkpt lat="42.84723" lon="0.50924">
        <ele>1484</ele>
        <time>2020-02-01T09:27:31.000Z</time>
      </trkpt>
      <trkpt lat="42.84722" lon="0.50924">
        <ele>1484</ele>
        <time>2020-02-01T09:27:32.000Z</time>
      </trkpt>
      <trkpt lat="42.84722" lon="0.50923">
        <ele>1484</ele>
        <time>2020-02-01T09:27:33.000Z</time>
      </trkpt>
      <trkpt lat="42.84722" lon="0.50922">
        <ele>1484.5</ele>
        <time>2020-02-01T09:27:34.000Z</time>
      </trkpt>
      <trkpt lat="42.84722" lon="0.50921">
        <ele>1485</ele>
        <time>2020-02-01T09:27:35.000Z</time>
      </trkpt>
      <trkpt lat="42.84722" lon="0.50921">
        <ele>1485</ele>
        <time>2020-02-01T09:27:36.000Z</time>
      </trkpt>
      <trkpt lat="42.84722" lon="0.5092">
        <ele>1485</ele>
        <time>2020-02-01T09:27:37.000Z</time>
      </trkpt>
      <trkpt lat="42.84722" lon="0.50919">
        <ele>1485</ele>
        <time>2020-02-01T09:27:38.000Z</time>
      </trkpt>
      <trkpt lat="42.84721" lon="0.50918">
        <ele>1485</ele>
        <time>2020-02-01T09:27:39.000Z</time>
      </trkpt>
      <trkpt lat="42.84721" lon="0.50917">
        <ele>1486</ele>
        <time>2020-02-01T09:27:40.000Z</time>
      </trkpt>
      <trkpt lat="42.8472" lon="0.50916">
        <ele>1486</ele>
        <time>2020-02-01T09:27:41.000Z</time>
      </trkpt>
      <trkpt lat="42.8472" lon="0.50915">
        <ele>1486</ele>
        <time>2020-02-01T09:27:42.000Z</time>
      </trkpt>
      <trkpt lat="42.84719" lon="0.50914">
        <ele>1486</ele>
        <time>2020-02-01T09:27:43.000Z</time>
      </trkpt>
      <trkpt lat="42.84719" lon="0.50913">
        <ele>1486.5</ele>
        <time>2020-02-01T09:27:44.000Z</time>
      </trkpt>
      <trkpt lat="42.84718" lon="0.50912">
        <ele>1487</ele>
        <time>2020-02-01T09:27:45.000Z</time>
      </trkpt>
      <trkpt lat="42.84717" lon="0.50911">
        <ele>1487</ele>
        <time>2020-02-01T09:27:46.000Z</time>
      </trkpt>
      <trkpt lat="42.84716" lon="0.5091">
        <ele>1487</ele>
        <time>2020-02-01T09:27:47.000Z</time>
      </trkpt>
      <trkpt lat="42.84716" lon="0.50909">
        <ele>1487</ele>
        <time>2020-02-01T09:27:48.000Z</time>
      </trkpt>
      <trkpt lat="42.84715" lon="0.50909">
        <ele>1487</ele>
        <time>2020-02-01T09:27:49.000Z</time>
      </trkpt>
      <trkpt lat="42.84714" lon="0.50908">
        <ele>1487.5</ele>
        <time>2020-02-01T09:27:50.000Z</time>
      </trkpt>
      <trkpt lat="42.84713" lon="0.50907">
        <ele>1488</ele>
        <time>2020-02-01T09:27:51.000Z</time>
      </trkpt>
      <trkpt lat="42.84713" lon="0.50906">
        <ele>1488</ele>
        <time>2020-02-01T09:27:52.000Z</time>
      </trkpt>
      <trkpt lat="42.84712" lon="0.50906">
        <ele>1488</ele>
        <time>2020-02-01T09:27:53.000Z</time>
      </trkpt>
      <trkpt lat="42.84711" lon="0.50905">
        <ele>1488</ele>
        <time>2020-02-01T09:27:54.000Z</time>
      </trkpt>
      <trkpt lat="42.84711" lon="0.50905">
        <ele>1488</ele>
        <time>2020-02-01T09:27:55.000Z</time>
      </trkpt>
      <trkpt lat="42.8471" lon="0.50904">
        <ele>1488.5</ele>
        <time>2020-02-01T09:27:56.000Z</time>
      </trkpt>
      <trkpt lat="42.8471" lon="0.50904">
        <ele>1489</ele>
        <time>2020-02-01T09:27:57.000Z</time>
      </trkpt>
      <trkpt lat="42.8471" lon="0.50903">
        <ele>1489</ele>
        <time>2020-02-01T09:27:58.000Z</time>
      </trkpt>
      <trkpt lat="42.8471" lon="0.50903">
        <ele>1489</ele>
        <time>2020-02-01T09:27:59.000Z</time>
      </trkpt>
      <trkpt lat="42.8471" lon="0.50902">
        <ele>1489</ele>
        <time>2020-02-01T09:28:00.000Z</time>
      </trkpt>
      <trkpt lat="42.8471" lon="0.50902">
        <ele>1489</ele>
        <time>2020-02-01T09:28:01.000Z</time>
      </trkpt>
      <trkpt lat="42.8471" lon="0.50901">
        <ele>1489</ele>
        <time>2020-02-01T09:28:02.000Z</time>
      </trkpt>
      <trkpt lat="42.84711" lon="0.50901">
        <ele>1489</ele>
        <time>2020-02-01T09:28:03.000Z</time>
      </trkpt>
      <trkpt lat="42.84711" lon="0.509">
        <ele>1490</ele>
        <time>2020-02-01T09:28:04.000Z</time>
      </trkpt>
      <trkpt lat="42.84712" lon="0.509">
        <ele>1490</ele>
        <time>2020-02-01T09:28:05.000Z</time>
      </trkpt>
      <trkpt lat="42.84712" lon="0.50899">
        <ele>1490</ele>
        <time>2020-02-01T09:28:06.000Z</time>
      </trkpt>
      <trkpt lat="42.84713" lon="0.50898">
        <ele>1490</ele>
        <time>2020-02-01T09:28:07.000Z</time>
      </trkpt>
      <trkpt lat="42.84714" lon="0.50898">
        <ele>1490</ele>
        <time>2020-02-01T09:28:08.000Z</time>
      </trkpt>
      <trkpt lat="42.84714" lon="0.50897">
        <ele>1490</ele>
        <time>2020-02-01T09:28:09.000Z</time>
      </trkpt>
      <trkpt lat="42.84715" lon="0.50896">
        <ele>1490.5</ele>
        <time>2020-02-01T09:28:10.000Z</time>
      </trkpt>
      <trkpt lat="42.84715" lon="0.50896">
        <ele>1491</ele>
        <time>2020-02-01T09:28:11.000Z</time>
      </trkpt>
      <trkpt lat="42.84716" lon="0.50895">
        <ele>1491</ele>
        <time>2020-02-01T09:28:12.000Z</time>
      </trkpt>
      <trkpt lat="42.84716" lon="0.50894">
        <ele>1491</ele>
        <time>2020-02-01T09:28:13.000Z</time>
      </trkpt>
      <trkpt lat="42.84717" lon="0.50893">
        <ele>1492</ele>
        <time>2020-02-01T09:28:14.000Z</time>
      </trkpt>
      <trkpt lat="42.84717" lon="0.50893">
        <ele>1492</ele>
        <time>2020-02-01T09:28:15.000Z</time>
      </trkpt>
      <trkpt lat="42.84717" lon="0.50892">
        <ele>1492.3</ele>
        <time>2020-02-01T09:28:16.000Z</time>
      </trkpt>
      <trkpt lat="42.84717" lon="0.50891">
        <ele>1492.7</ele>
        <time>2020-02-01T09:28:17.000Z</time>
      </trkpt>
      <trkpt lat="42.84717" lon="0.5089">
        <ele>1493</ele>
        <time>2020-02-01T09:28:18.000Z</time>
      </trkpt>
      <trkpt lat="42.84717" lon="0.5089">
        <ele>1493</ele>
        <time>2020-02-01T09:28:19.000Z</time>
      </trkpt>
      <trkpt lat="42.84717" lon="0.50889">
        <ele>1493</ele>
        <time>2020-02-01T09:28:20.000Z</time>
      </trkpt>
      <trkpt lat="42.84717" lon="0.50888">
        <ele>1493</ele>
        <time>2020-02-01T09:28:21.000Z</time>
      </trkpt>
      <trkpt lat="42.84716" lon="0.50888">
        <ele>1493</ele>
        <time>2020-02-01T09:28:22.000Z</time>
      </trkpt>
      <trkpt lat="42.84716" lon="0.50887">
        <ele>1493</ele>
        <time>2020-02-01T09:28:23.000Z</time>
      </trkpt>
      <trkpt lat="42.84715" lon="0.50886">
        <ele>1493</ele>
        <time>2020-02-01T09:28:24.000Z</time>
      </trkpt>
      <trkpt lat="42.84715" lon="0.50886">
        <ele>1493.5</ele>
        <time>2020-02-01T09:28:25.000Z</time>
      </trkpt>
      <trkpt lat="42.84715" lon="0.50885">
        <ele>1494</ele>
        <time>2020-02-01T09:28:26.000Z</time>
      </trkpt>
      <trkpt lat="42.84714" lon="0.50885">
        <ele>1494</ele>
        <time>2020-02-01T09:28:27.000Z</time>
      </trkpt>
      <trkpt lat="42.84714" lon="0.50884">
        <ele>1494</ele>
        <time>2020-02-01T09:28:28.000Z</time>
      </trkpt>
      <trkpt lat="42.84714" lon="0.50884">
        <ele>1494</ele>
        <time>2020-02-01T09:28:29.000Z</time>
      </trkpt>
      <trkpt lat="42.84714" lon="0.50883">
        <ele>1494</ele>
        <time>2020-02-01T09:28:30.000Z</time>
      </trkpt>
      <trkpt lat="42.84714" lon="0.50883">
        <ele>1494</ele>
        <time>2020-02-01T09:28:31.000Z</time>
      </trkpt>
      <trkpt lat="42.84715" lon="0.50882">
        <ele>1494.5</ele>
        <time>2020-02-01T09:28:32.000Z</time>
      </trkpt>
      <trkpt lat="42.84715" lon="0.50882">
        <ele>1495</ele>
        <time>2020-02-01T09:28:33.000Z</time>
      </trkpt>
      <trkpt lat="42.84715" lon="0.50881">
        <ele>1495</ele>
        <time>2020-02-01T09:28:34.000Z</time>
      </trkpt>
      <trkpt lat="42.84716" lon="0.50881">
        <ele>1495</ele>
        <time>2020-02-01T09:28:35.000Z</time>
      </trkpt>
      <trkpt lat="42.84716" lon="0.5088">
        <ele>1495</ele>
        <time>2020-02-01T09:28:36.000Z</time>
      </trkpt>
      <trkpt lat="42.84716" lon="0.50879">
        <ele>1495</ele>
        <time>2020-02-01T09:28:37.000Z</time>
      </trkpt>
      <trkpt lat="42.84716" lon="0.50879">
        <ele>1495</ele>
        <time>2020-02-01T09:28:38.000Z</time>
      </trkpt>
      <trkpt lat="42.84716" lon="0.50878">
        <ele>1495</ele>
        <time>2020-02-01T09:28:39.000Z</time>
      </trkpt>
      <trkpt lat="42.84716" lon="0.50878">
        <ele>1495</ele>
        <time>2020-02-01T09:28:40.000Z</time>
      </trkpt>
      <trkpt lat="42.84716" lon="0.50877">
        <ele>1495.5</ele>
        <time>2020-02-01T09:28:41.000Z</time>
      </trkpt>
      <trkpt lat="42.84716" lon="0.50877">
        <ele>1496</ele>
        <time>2020-02-01T09:28:42.000Z</time>
      </trkpt>
      <trkpt lat="42.84716" lon="0.50876">
        <ele>1496</ele>
        <time>2020-02-01T09:28:43.000Z</time>
      </trkpt>
      <trkpt lat="42.84715" lon="0.50875">
        <ele>1496</ele>
        <time>2020-02-01T09:28:44.000Z</time>
      </trkpt>
      <trkpt lat="42.84715" lon="0.50875">
        <ele>1496</ele>
        <time>2020-02-01T09:28:45.000Z</time>
      </trkpt>
      <trkpt lat="42.84715" lon="0.50874">
        <ele>1496</ele>
        <time>2020-02-01T09:28:46.000Z</time>
      </trkpt>
      <trkpt lat="42.84715" lon="0.50874">
        <ele>1496</ele>
        <time>2020-02-01T09:28:47.000Z</time>
      </trkpt>
      <trkpt lat="42.84714" lon="0.50873">
        <ele>1496</ele>
        <time>2020-02-01T09:28:48.000Z</time>
      </trkpt>
      <trkpt lat="42.84714" lon="0.50872">
        <ele>1496.5</ele>
        <time>2020-02-01T09:28:49.000Z</time>
      </trkpt>
      <trkpt lat="42.84714" lon="0.50871">
        <ele>1497</ele>
        <time>2020-02-01T09:28:50.000Z</time>
      </trkpt>
      <trkpt lat="42.84714" lon="0.50871">
        <ele>1497</ele>
        <time>2020-02-01T09:28:51.000Z</time>
      </trkpt>
      <trkpt lat="42.84714" lon="0.5087">
        <ele>1497</ele>
        <time>2020-02-01T09:28:52.000Z</time>
      </trkpt>
      <trkpt lat="42.84715" lon="0.50869">
        <ele>1497</ele>
        <time>2020-02-01T09:28:53.000Z</time>
      </trkpt>
      <trkpt lat="42.84715" lon="0.50868">
        <ele>1497</ele>
        <time>2020-02-01T09:28:54.000Z</time>
      </trkpt>
      <trkpt lat="42.84715" lon="0.50868">
        <ele>1497.5</ele>
        <time>2020-02-01T09:28:55.000Z</time>
      </trkpt>
      <trkpt lat="42.84715" lon="0.50867">
        <ele>1498</ele>
        <time>2020-02-01T09:28:56.000Z</time>
      </trkpt>
      <trkpt lat="42.84715" lon="0.50866">
        <ele>1498</ele>
        <time>2020-02-01T09:28:57.000Z</time>
      </trkpt>
      <trkpt lat="42.84715" lon="0.50866">
        <ele>1498</ele>
        <time>2020-02-01T09:28:58.000Z</time>
      </trkpt>
      <trkpt lat="42.84715" lon="0.50865">
        <ele>1498.5</ele>
        <time>2020-02-01T09:28:59.000Z</time>
      </trkpt>
      <trkpt lat="42.84714" lon="0.50864">
        <ele>1499</ele>
        <time>2020-02-01T09:29:00.000Z</time>
      </trkpt>
      <trkpt lat="42.84714" lon="0.50864">
        <ele>1499</ele>
        <time>2020-02-01T09:29:01.000Z</time>
      </trkpt>
      <trkpt lat="42.84714" lon="0.50863">
        <ele>1499</ele>
        <time>2020-02-01T09:29:02.000Z</time>
      </trkpt>
      <trkpt lat="42.84714" lon="0.50862">
        <ele>1499</ele>
        <time>2020-02-01T09:29:03.000Z</time>
      </trkpt>
      <trkpt lat="42.84714" lon="0.50862">
        <ele>1499</ele>
        <time>2020-02-01T09:29:04.000Z</time>
      </trkpt>
      <trkpt lat="42.84713" lon="0.50861">
        <ele>1499.5</ele>
        <time>2020-02-01T09:29:05.000Z</time>
      </trkpt>
      <trkpt lat="42.84713" lon="0.5086">
        <ele>1500</ele>
        <time>2020-02-01T09:29:06.000Z</time>
      </trkpt>
      <trkpt lat="42.84713" lon="0.50859">
        <ele>1500</ele>
        <time>2020-02-01T09:29:07.000Z</time>
      </trkpt>
      <trkpt lat="42.84713" lon="0.50858">
        <ele>1500</ele>
        <time>2020-02-01T09:29:08.000Z</time>
      </trkpt>
      <trkpt lat="42.84713" lon="0.50857">
        <ele>1500</ele>
        <time>2020-02-01T09:29:09.000Z</time>
      </trkpt>
      <trkpt lat="42.84714" lon="0.50856">
        <ele>1500</ele>
        <time>2020-02-01T09:29:10.000Z</time>
      </trkpt>
      <trkpt lat="42.84714" lon="0.50855">
        <ele>1500.5</ele>
        <time>2020-02-01T09:29:11.000Z</time>
      </trkpt>
      <trkpt lat="42.84714" lon="0.50854">
        <ele>1501</ele>
        <time>2020-02-01T09:29:12.000Z</time>
      </trkpt>
      <trkpt lat="42.84714" lon="0.50853">
        <ele>1501</ele>
        <time>2020-02-01T09:29:13.000Z</time>
      </trkpt>
      <trkpt lat="42.84713" lon="0.50852">
        <ele>1501</ele>
        <time>2020-02-01T09:29:14.000Z</time>
      </trkpt>
      <trkpt lat="42.84713" lon="0.5085">
        <ele>1501</ele>
        <time>2020-02-01T09:29:15.000Z</time>
      </trkpt>
      <trkpt lat="42.84712" lon="0.50849">
        <ele>1501</ele>
        <time>2020-02-01T09:29:16.000Z</time>
      </trkpt>
      <trkpt lat="42.84711" lon="0.50848">
        <ele>1501</ele>
        <time>2020-02-01T09:29:17.000Z</time>
      </trkpt>
      <trkpt lat="42.8471" lon="0.50847">
        <ele>1501</ele>
        <time>2020-02-01T09:29:18.000Z</time>
      </trkpt>
      <trkpt lat="42.84709" lon="0.50847">
        <ele>1501</ele>
        <time>2020-02-01T09:29:19.000Z</time>
      </trkpt>
      <trkpt lat="42.84708" lon="0.50846">
        <ele>1501</ele>
        <time>2020-02-01T09:29:20.000Z</time>
      </trkpt>
      <trkpt lat="42.84707" lon="0.50846">
        <ele>1501</ele>
        <time>2020-02-01T09:29:21.000Z</time>
      </trkpt>
      <trkpt lat="42.84707" lon="0.50845">
        <ele>1501</ele>
        <time>2020-02-01T09:29:22.000Z</time>
      </trkpt>
      <trkpt lat="42.84707" lon="0.50845">
        <ele>1501</ele>
        <time>2020-02-01T09:29:23.000Z</time>
      </trkpt>
      <trkpt lat="42.84708" lon="0.50845">
        <ele>1501</ele>
        <time>2020-02-01T09:29:24.000Z</time>
      </trkpt>
      <trkpt lat="42.84708" lon="0.50844">
        <ele>1501.5</ele>
        <time>2020-02-01T09:29:25.000Z</time>
      </trkpt>
      <trkpt lat="42.84708" lon="0.50844">
        <ele>1502</ele>
        <time>2020-02-01T09:29:26.000Z</time>
      </trkpt>
      <trkpt lat="42.84708" lon="0.50843">
        <ele>1502</ele>
        <time>2020-02-01T09:29:27.000Z</time>
      </trkpt>
      <trkpt lat="42.84708" lon="0.50842">
        <ele>1502</ele>
        <time>2020-02-01T09:29:28.000Z</time>
      </trkpt>
      <trkpt lat="42.84708" lon="0.5084">
        <ele>1502</ele>
        <time>2020-02-01T09:29:29.000Z</time>
      </trkpt>
      <trkpt lat="42.84707" lon="0.50839">
        <ele>1502</ele>
        <time>2020-02-01T09:29:30.000Z</time>
      </trkpt>
      <trkpt lat="42.84707" lon="0.50838">
        <ele>1503</ele>
        <time>2020-02-01T09:29:31.000Z</time>
      </trkpt>
      <trkpt lat="42.84707" lon="0.50837">
        <ele>1503</ele>
        <time>2020-02-01T09:29:32.000Z</time>
      </trkpt>
      <trkpt lat="42.84707" lon="0.50836">
        <ele>1503</ele>
        <time>2020-02-01T09:29:33.000Z</time>
      </trkpt>
      <trkpt lat="42.84707" lon="0.50835">
        <ele>1503</ele>
        <time>2020-02-01T09:29:34.000Z</time>
      </trkpt>
      <trkpt lat="42.84707" lon="0.50834">
        <ele>1503</ele>
        <time>2020-02-01T09:29:35.000Z</time>
      </trkpt>
      <trkpt lat="42.84707" lon="0.50834">
        <ele>1503</ele>
        <time>2020-02-01T09:29:36.000Z</time>
      </trkpt>
      <trkpt lat="42.84707" lon="0.50833">
        <ele>1503</ele>
        <time>2020-02-01T09:29:37.000Z</time>
      </trkpt>
      <trkpt lat="42.84708" lon="0.50833">
        <ele>1503</ele>
        <time>2020-02-01T09:29:38.000Z</time>
      </trkpt>
      <trkpt lat="42.84708" lon="0.50832">
        <ele>1503</ele>
        <time>2020-02-01T09:29:39.000Z</time>
      </trkpt>
      <trkpt lat="42.84708" lon="0.50832">
        <ele>1503</ele>
        <time>2020-02-01T09:29:40.000Z</time>
      </trkpt>
      <trkpt lat="42.84708" lon="0.50831">
        <ele>1504</ele>
        <time>2020-02-01T09:29:41.000Z</time>
      </trkpt>
      <trkpt lat="42.84708" lon="0.5083">
        <ele>1504</ele>
        <time>2020-02-01T09:29:42.000Z</time>
      </trkpt>
      <trkpt lat="42.84708" lon="0.5083">
        <ele>1504</ele>
        <time>2020-02-01T09:29:43.000Z</time>
      </trkpt>
      <trkpt lat="42.84708" lon="0.50829">
        <ele>1504</ele>
        <time>2020-02-01T09:29:44.000Z</time>
      </trkpt>
      <trkpt lat="42.84708" lon="0.50828">
        <ele>1504</ele>
        <time>2020-02-01T09:29:45.000Z</time>
      </trkpt>
      <trkpt lat="42.84708" lon="0.50828">
        <ele>1504</ele>
        <time>2020-02-01T09:29:46.000Z</time>
      </trkpt>
      <trkpt lat="42.84708" lon="0.50827">
        <ele>1504.5</ele>
        <time>2020-02-01T09:29:47.000Z</time>
      </trkpt>
      <trkpt lat="42.84708" lon="0.50826">
        <ele>1505</ele>
        <time>2020-02-01T09:29:48.000Z</time>
      </trkpt>
      <trkpt lat="42.84708" lon="0.50825">
        <ele>1505</ele>
        <time>2020-02-01T09:29:49.000Z</time>
      </trkpt>
      <trkpt lat="42.84708" lon="0.50824">
        <ele>1505</ele>
        <time>2020-02-01T09:29:50.000Z</time>
      </trkpt>
      <trkpt lat="42.84708" lon="0.50823">
        <ele>1505</ele>
        <time>2020-02-01T09:29:51.000Z</time>
      </trkpt>
      <trkpt lat="42.84709" lon="0.50822">
        <ele>1505.3</ele>
        <time>2020-02-01T09:29:52.000Z</time>
      </trkpt>
      <trkpt lat="42.84709" lon="0.50821">
        <ele>1505.7</ele>
        <time>2020-02-01T09:29:53.000Z</time>
      </trkpt>
      <trkpt lat="42.84709" lon="0.5082">
        <ele>1506</ele>
        <time>2020-02-01T09:29:54.000Z</time>
      </trkpt>
      <trkpt lat="42.84709" lon="0.50819">
        <ele>1506</ele>
        <time>2020-02-01T09:29:55.000Z</time>
      </trkpt>
      <trkpt lat="42.8471" lon="0.50818">
        <ele>1506</ele>
        <time>2020-02-01T09:29:56.000Z</time>
      </trkpt>
      <trkpt lat="42.8471" lon="0.50818">
        <ele>1506</ele>
        <time>2020-02-01T09:29:57.000Z</time>
      </trkpt>
      <trkpt lat="42.8471" lon="0.50817">
        <ele>1506</ele>
        <time>2020-02-01T09:29:58.000Z</time>
      </trkpt>
      <trkpt lat="42.8471" lon="0.50817">
        <ele>1506</ele>
        <time>2020-02-01T09:29:59.000Z</time>
      </trkpt>
      <trkpt lat="42.8471" lon="0.50816">
        <ele>1506</ele>
        <time>2020-02-01T09:30:00.000Z</time>
      </trkpt>
      <trkpt lat="42.84709" lon="0.50815">
        <ele>1506.5</ele>
        <time>2020-02-01T09:30:01.000Z</time>
      </trkpt>
      <trkpt lat="42.84709" lon="0.50815">
        <ele>1507</ele>
        <time>2020-02-01T09:30:02.000Z</time>
      </trkpt>
      <trkpt lat="42.84709" lon="0.50814">
        <ele>1507</ele>
        <time>2020-02-01T09:30:03.000Z</time>
      </trkpt>
      <trkpt lat="42.8471" lon="0.50813">
        <ele>1507</ele>
        <time>2020-02-01T09:30:04.000Z</time>
      </trkpt>
      <trkpt lat="42.8471" lon="0.50812">
        <ele>1507.5</ele>
        <time>2020-02-01T09:30:05.000Z</time>
      </trkpt>
      <trkpt lat="42.8471" lon="0.50811">
        <ele>1508</ele>
        <time>2020-02-01T09:30:06.000Z</time>
      </trkpt>
      <trkpt lat="42.8471" lon="0.50811">
        <ele>1508</ele>
        <time>2020-02-01T09:30:07.000Z</time>
      </trkpt>
      <trkpt lat="42.8471" lon="0.5081">
        <ele>1508</ele>
        <time>2020-02-01T09:30:08.000Z</time>
      </trkpt>
      <trkpt lat="42.8471" lon="0.5081">
        <ele>1508</ele>
        <time>2020-02-01T09:30:09.000Z</time>
      </trkpt>
      <trkpt lat="42.8471" lon="0.50809">
        <ele>1508.3</ele>
        <time>2020-02-01T09:30:10.000Z</time>
      </trkpt>
      <trkpt lat="42.8471" lon="0.50809">
        <ele>1508.7</ele>
        <time>2020-02-01T09:30:11.000Z</time>
      </trkpt>
      <trkpt lat="42.8471" lon="0.50808">
        <ele>1509</ele>
        <time>2020-02-01T09:30:12.000Z</time>
      </trkpt>
      <trkpt lat="42.8471" lon="0.50807">
        <ele>1509.5</ele>
        <time>2020-02-01T09:30:13.000Z</time>
      </trkpt>
      <trkpt lat="42.8471" lon="0.50806">
        <ele>1510</ele>
        <time>2020-02-01T09:30:14.000Z</time>
      </trkpt>
      <trkpt lat="42.84711" lon="0.50806">
        <ele>1510</ele>
        <time>2020-02-01T09:30:15.000Z</time>
      </trkpt>
      <trkpt lat="42.84711" lon="0.50805">
        <ele>1510</ele>
        <time>2020-02-01T09:30:16.000Z</time>
      </trkpt>
      <trkpt lat="42.84711" lon="0.50804">
        <ele>1510.5</ele>
        <time>2020-02-01T09:30:17.000Z</time>
      </trkpt>
      <trkpt lat="42.84712" lon="0.50803">
        <ele>1511</ele>
        <time>2020-02-01T09:30:18.000Z</time>
      </trkpt>
      <trkpt lat="42.84712" lon="0.50802">
        <ele>1511.5</ele>
        <time>2020-02-01T09:30:19.000Z</time>
      </trkpt>
      <trkpt lat="42.84713" lon="0.50802">
        <ele>1512</ele>
        <time>2020-02-01T09:30:20.000Z</time>
      </trkpt>
      <trkpt lat="42.84714" lon="0.50801">
        <ele>1512</ele>
        <time>2020-02-01T09:30:21.000Z</time>
      </trkpt>
      <trkpt lat="42.84715" lon="0.50801">
        <ele>1512</ele>
        <time>2020-02-01T09:30:22.000Z</time>
      </trkpt>
      <trkpt lat="42.84715" lon="0.508">
        <ele>1512</ele>
        <time>2020-02-01T09:30:23.000Z</time>
      </trkpt>
      <trkpt lat="42.84716" lon="0.508">
        <ele>1512.3</ele>
        <time>2020-02-01T09:30:24.000Z</time>
      </trkpt>
      <trkpt lat="42.84716" lon="0.508">
        <ele>1512.7</ele>
        <time>2020-02-01T09:30:25.000Z</time>
      </trkpt>
      <trkpt lat="42.84716" lon="0.50799">
        <ele>1513</ele>
        <time>2020-02-01T09:30:26.000Z</time>
      </trkpt>
      <trkpt lat="42.84716" lon="0.50798">
        <ele>1513</ele>
        <time>2020-02-01T09:30:27.000Z</time>
      </trkpt>
      <trkpt lat="42.84716" lon="0.50798">
        <ele>1513</ele>
        <time>2020-02-01T09:30:28.000Z</time>
      </trkpt>
      <trkpt lat="42.84716" lon="0.50797">
        <ele>1513</ele>
        <time>2020-02-01T09:30:29.000Z</time>
      </trkpt>
      <trkpt lat="42.84716" lon="0.50795">
        <ele>1513</ele>
        <time>2020-02-01T09:30:30.000Z</time>
      </trkpt>
      <trkpt lat="42.84716" lon="0.50794">
        <ele>1513</ele>
        <time>2020-02-01T09:30:31.000Z</time>
      </trkpt>
      <trkpt lat="42.84715" lon="0.50793">
        <ele>1513</ele>
        <time>2020-02-01T09:30:32.000Z</time>
      </trkpt>
      <trkpt lat="42.84715" lon="0.50792">
        <ele>1513</ele>
        <time>2020-02-01T09:30:33.000Z</time>
      </trkpt>
      <trkpt lat="42.84715" lon="0.50791">
        <ele>1513</ele>
        <time>2020-02-01T09:30:34.000Z</time>
      </trkpt>
      <trkpt lat="42.84715" lon="0.5079">
        <ele>1514</ele>
        <time>2020-02-01T09:30:35.000Z</time>
      </trkpt>
      <trkpt lat="42.84715" lon="0.50789">
        <ele>1514</ele>
        <time>2020-02-01T09:30:36.000Z</time>
      </trkpt>
      <trkpt lat="42.84716" lon="0.50788">
        <ele>1514</ele>
        <time>2020-02-01T09:30:37.000Z</time>
      </trkpt>
      <trkpt lat="42.84716" lon="0.50787">
        <ele>1514</ele>
        <time>2020-02-01T09:30:38.000Z</time>
      </trkpt>
      <trkpt lat="42.84716" lon="0.50786">
        <ele>1514</ele>
        <time>2020-02-01T09:30:39.000Z</time>
      </trkpt>
      <trkpt lat="42.84716" lon="0.50785">
        <ele>1514</ele>
        <time>2020-02-01T09:30:40.000Z</time>
      </trkpt>
      <trkpt lat="42.84716" lon="0.50784">
        <ele>1514</ele>
        <time>2020-02-01T09:30:41.000Z</time>
      </trkpt>
      <trkpt lat="42.84716" lon="0.50783">
        <ele>1514</ele>
        <time>2020-02-01T09:30:42.000Z</time>
      </trkpt>
      <trkpt lat="42.84716" lon="0.50782">
        <ele>1514</ele>
        <time>2020-02-01T09:30:43.000Z</time>
      </trkpt>
      <trkpt lat="42.84716" lon="0.50781">
        <ele>1514</ele>
        <time>2020-02-01T09:30:44.000Z</time>
      </trkpt>
      <trkpt lat="42.84716" lon="0.5078">
        <ele>1514.5</ele>
        <time>2020-02-01T09:30:45.000Z</time>
      </trkpt>
      <trkpt lat="42.84715" lon="0.50779">
        <ele>1515</ele>
        <time>2020-02-01T09:30:46.000Z</time>
      </trkpt>
      <trkpt lat="42.84714" lon="0.50778">
        <ele>1515</ele>
        <time>2020-02-01T09:30:47.000Z</time>
      </trkpt>
      <trkpt lat="42.84713" lon="0.50777">
        <ele>1515</ele>
        <time>2020-02-01T09:30:48.000Z</time>
      </trkpt>
      <trkpt lat="42.84711" lon="0.50775">
        <ele>1515.5</ele>
        <time>2020-02-01T09:30:49.000Z</time>
      </trkpt>
      <trkpt lat="42.84709" lon="0.50774">
        <ele>1516</ele>
        <time>2020-02-01T09:30:50.000Z</time>
      </trkpt>
      <trkpt lat="42.84708" lon="0.50773">
        <ele>1516</ele>
        <time>2020-02-01T09:30:51.000Z</time>
      </trkpt>
      <trkpt lat="42.84706" lon="0.50772">
        <ele>1516</ele>
        <time>2020-02-01T09:30:52.000Z</time>
      </trkpt>
      <trkpt lat="42.84705" lon="0.50771">
        <ele>1516</ele>
        <time>2020-02-01T09:30:53.000Z</time>
      </trkpt>
      <trkpt lat="42.84705" lon="0.5077">
        <ele>1516</ele>
        <time>2020-02-01T09:30:54.000Z</time>
      </trkpt>
      <trkpt lat="42.84705" lon="0.50769">
        <ele>1516</ele>
        <time>2020-02-01T09:30:55.000Z</time>
      </trkpt>
      <trkpt lat="42.84705" lon="0.50769">
        <ele>1516</ele>
        <time>2020-02-01T09:30:56.000Z</time>
      </trkpt>
      <trkpt lat="42.84705" lon="0.50768">
        <ele>1516</ele>
        <time>2020-02-01T09:30:57.000Z</time>
      </trkpt>
      <trkpt lat="42.84706" lon="0.50768">
        <ele>1516</ele>
        <time>2020-02-01T09:30:58.000Z</time>
      </trkpt>
      <trkpt lat="42.84706" lon="0.50767">
        <ele>1516</ele>
        <time>2020-02-01T09:30:59.000Z</time>
      </trkpt>
      <trkpt lat="42.84707" lon="0.50767">
        <ele>1516</ele>
        <time>2020-02-01T09:31:00.000Z</time>
      </trkpt>
      <trkpt lat="42.84708" lon="0.50766">
        <ele>1516</ele>
        <time>2020-02-01T09:31:01.000Z</time>
      </trkpt>
      <trkpt lat="42.84708" lon="0.50766">
        <ele>1516</ele>
        <time>2020-02-01T09:31:02.000Z</time>
      </trkpt>
      <trkpt lat="42.84709" lon="0.50765">
        <ele>1516.5</ele>
        <time>2020-02-01T09:31:03.000Z</time>
      </trkpt>
      <trkpt lat="42.8471" lon="0.50765">
        <ele>1517</ele>
        <time>2020-02-01T09:31:04.000Z</time>
      </trkpt>
      <trkpt lat="42.8471" lon="0.50764">
        <ele>1517</ele>
        <time>2020-02-01T09:31:05.000Z</time>
      </trkpt>
      <trkpt lat="42.84711" lon="0.50763">
        <ele>1517</ele>
        <time>2020-02-01T09:31:06.000Z</time>
      </trkpt>
      <trkpt lat="42.84711" lon="0.50763">
        <ele>1517</ele>
        <time>2020-02-01T09:31:07.000Z</time>
      </trkpt>
      <trkpt lat="42.84712" lon="0.50762">
        <ele>1517</ele>
        <time>2020-02-01T09:31:08.000Z</time>
      </trkpt>
      <trkpt lat="42.84712" lon="0.50762">
        <ele>1517.5</ele>
        <time>2020-02-01T09:31:09.000Z</time>
      </trkpt>
      <trkpt lat="42.84712" lon="0.50761">
        <ele>1518</ele>
        <time>2020-02-01T09:31:10.000Z</time>
      </trkpt>
      <trkpt lat="42.84713" lon="0.50761">
        <ele>1518</ele>
        <time>2020-02-01T09:31:11.000Z</time>
      </trkpt>
      <trkpt lat="42.84713" lon="0.5076">
        <ele>1518</ele>
        <time>2020-02-01T09:31:12.000Z</time>
      </trkpt>
      <trkpt lat="42.84713" lon="0.5076">
        <ele>1518</ele>
        <time>2020-02-01T09:31:13.000Z</time>
      </trkpt>
      <trkpt lat="42.84713" lon="0.5076">
        <ele>1518</ele>
        <time>2020-02-01T09:31:14.000Z</time>
      </trkpt>
      <trkpt lat="42.84714" lon="0.50759">
        <ele>1518</ele>
        <time>2020-02-01T09:31:15.000Z</time>
      </trkpt>
      <trkpt lat="42.84714" lon="0.50759">
        <ele>1518</ele>
        <time>2020-02-01T09:31:16.000Z</time>
      </trkpt>
      <trkpt lat="42.84714" lon="0.50759">
        <ele>1518.5</ele>
        <time>2020-02-01T09:31:17.000Z</time>
      </trkpt>
      <trkpt lat="42.84714" lon="0.50758">
        <ele>1519</ele>
        <time>2020-02-01T09:31:18.000Z</time>
      </trkpt>
      <trkpt lat="42.84714" lon="0.50758">
        <ele>1519</ele>
        <time>2020-02-01T09:31:19.000Z</time>
      </trkpt>
      <trkpt lat="42.84715" lon="0.50758">
        <ele>1519</ele>
        <time>2020-02-01T09:31:20.000Z</time>
      </trkpt>
      <trkpt lat="42.84715" lon="0.50758">
        <ele>1519</ele>
        <time>2020-02-01T09:31:21.000Z</time>
      </trkpt>
      <trkpt lat="42.84716" lon="0.50757">
        <ele>1519</ele>
        <time>2020-02-01T09:31:22.000Z</time>
      </trkpt>
      <trkpt lat="42.84716" lon="0.50757">
        <ele>1519.5</ele>
        <time>2020-02-01T09:31:23.000Z</time>
      </trkpt>
      <trkpt lat="42.84716" lon="0.50757">
        <ele>1520</ele>
        <time>2020-02-01T09:31:24.000Z</time>
      </trkpt>
      <trkpt lat="42.84717" lon="0.50756">
        <ele>1520</ele>
        <time>2020-02-01T09:31:25.000Z</time>
      </trkpt>
      <trkpt lat="42.84717" lon="0.50756">
        <ele>1520</ele>
        <time>2020-02-01T09:31:26.000Z</time>
      </trkpt>
      <trkpt lat="42.84718" lon="0.50756">
        <ele>1520</ele>
        <time>2020-02-01T09:31:27.000Z</time>
      </trkpt>
      <trkpt lat="42.84718" lon="0.50755">
        <ele>1520</ele>
        <time>2020-02-01T09:31:28.000Z</time>
      </trkpt>
      <trkpt lat="42.84718" lon="0.50755">
        <ele>1520</ele>
        <time>2020-02-01T09:31:29.000Z</time>
      </trkpt>
      <trkpt lat="42.84719" lon="0.50754">
        <ele>1520</ele>
        <time>2020-02-01T09:31:30.000Z</time>
      </trkpt>
      <trkpt lat="42.84719" lon="0.50753">
        <ele>1521</ele>
        <time>2020-02-01T09:31:31.000Z</time>
      </trkpt>
      <trkpt lat="42.84719" lon="0.50752">
        <ele>1521</ele>
        <time>2020-02-01T09:31:32.000Z</time>
      </trkpt>
      <trkpt lat="42.84719" lon="0.50752">
        <ele>1521</ele>
        <time>2020-02-01T09:31:33.000Z</time>
      </trkpt>
      <trkpt lat="42.84719" lon="0.50751">
        <ele>1521</ele>
        <time>2020-02-01T09:31:34.000Z</time>
      </trkpt>
      <trkpt lat="42.84718" lon="0.5075">
        <ele>1521</ele>
        <time>2020-02-01T09:31:35.000Z</time>
      </trkpt>
      <trkpt lat="42.84718" lon="0.50749">
        <ele>1521</ele>
        <time>2020-02-01T09:31:36.000Z</time>
      </trkpt>
      <trkpt lat="42.84718" lon="0.50748">
        <ele>1521</ele>
        <time>2020-02-01T09:31:37.000Z</time>
      </trkpt>
      <trkpt lat="42.84718" lon="0.50748">
        <ele>1521</ele>
        <time>2020-02-01T09:31:38.000Z</time>
      </trkpt>
      <trkpt lat="42.84717" lon="0.50747">
        <ele>1521.5</ele>
        <time>2020-02-01T09:31:39.000Z</time>
      </trkpt>
      <trkpt lat="42.84717" lon="0.50746">
        <ele>1522</ele>
        <time>2020-02-01T09:31:40.000Z</time>
      </trkpt>
      <trkpt lat="42.84717" lon="0.50746">
        <ele>1522</ele>
        <time>2020-02-01T09:31:41.000Z</time>
      </trkpt>
      <trkpt lat="42.84717" lon="0.50745">
        <ele>1522</ele>
        <time>2020-02-01T09:31:42.000Z</time>
      </trkpt>
      <trkpt lat="42.84716" lon="0.50745">
        <ele>1522</ele>
        <time>2020-02-01T09:31:43.000Z</time>
      </trkpt>
      <trkpt lat="42.84716" lon="0.50745">
        <ele>1522</ele>
        <time>2020-02-01T09:31:44.000Z</time>
      </trkpt>
      <trkpt lat="42.84716" lon="0.50744">
        <ele>1523</ele>
        <time>2020-02-01T09:31:45.000Z</time>
      </trkpt>
      <trkpt lat="42.84716" lon="0.50744">
        <ele>1523</ele>
        <time>2020-02-01T09:31:46.000Z</time>
      </trkpt>
      <trkpt lat="42.84716" lon="0.50744">
        <ele>1523</ele>
        <time>2020-02-01T09:31:47.000Z</time>
      </trkpt>
      <trkpt lat="42.84715" lon="0.50743">
        <ele>1523</ele>
        <time>2020-02-01T09:31:48.000Z</time>
      </trkpt>
      <trkpt lat="42.84715" lon="0.50743">
        <ele>1523</ele>
        <time>2020-02-01T09:31:49.000Z</time>
      </trkpt>
      <trkpt lat="42.84716" lon="0.50743">
        <ele>1523</ele>
        <time>2020-02-01T09:31:50.000Z</time>
      </trkpt>
      <trkpt lat="42.84716" lon="0.50743">
        <ele>1523</ele>
        <time>2020-02-01T09:31:51.000Z</time>
      </trkpt>
      <trkpt lat="42.84716" lon="0.50742">
        <ele>1523</ele>
        <time>2020-02-01T09:31:52.000Z</time>
      </trkpt>
      <trkpt lat="42.84716" lon="0.50742">
        <ele>1523.5</ele>
        <time>2020-02-01T09:31:53.000Z</time>
      </trkpt>
      <trkpt lat="42.84716" lon="0.50742">
        <ele>1524</ele>
        <time>2020-02-01T09:31:54.000Z</time>
      </trkpt>
      <trkpt lat="42.84716" lon="0.50741">
        <ele>1524</ele>
        <time>2020-02-01T09:31:55.000Z</time>
      </trkpt>
      <trkpt lat="42.84716" lon="0.50741">
        <ele>1524</ele>
        <time>2020-02-01T09:31:56.000Z</time>
      </trkpt>
      <trkpt lat="42.84716" lon="0.5074">
        <ele>1524</ele>
        <time>2020-02-01T09:31:57.000Z</time>
      </trkpt>
      <trkpt lat="42.84716" lon="0.5074">
        <ele>1524</ele>
        <time>2020-02-01T09:31:58.000Z</time>
      </trkpt>
      <trkpt lat="42.84716" lon="0.50739">
        <ele>1524</ele>
        <time>2020-02-01T09:31:59.000Z</time>
      </trkpt>
      <trkpt lat="42.84715" lon="0.50739">
        <ele>1524.3</ele>
        <time>2020-02-01T09:32:00.000Z</time>
      </trkpt>
      <trkpt lat="42.84715" lon="0.50738">
        <ele>1524.7</ele>
        <time>2020-02-01T09:32:01.000Z</time>
      </trkpt>
      <trkpt lat="42.84714" lon="0.50737">
        <ele>1525</ele>
        <time>2020-02-01T09:32:02.000Z</time>
      </trkpt>
      <trkpt lat="42.84714" lon="0.50737">
        <ele>1525</ele>
        <time>2020-02-01T09:32:03.000Z</time>
      </trkpt>
      <trkpt lat="42.84713" lon="0.50736">
        <ele>1525</ele>
        <time>2020-02-01T09:32:04.000Z</time>
      </trkpt>
      <trkpt lat="42.84712" lon="0.50735">
        <ele>1525.5</ele>
        <time>2020-02-01T09:32:05.000Z</time>
      </trkpt>
      <trkpt lat="42.84711" lon="0.50735">
        <ele>1526</ele>
        <time>2020-02-01T09:32:06.000Z</time>
      </trkpt>
      <trkpt lat="42.84711" lon="0.50734">
        <ele>1526</ele>
        <time>2020-02-01T09:32:07.000Z</time>
      </trkpt>
      <trkpt lat="42.8471" lon="0.50733">
        <ele>1526</ele>
        <time>2020-02-01T09:32:08.000Z</time>
      </trkpt>
      <trkpt lat="42.84709" lon="0.50732">
        <ele>1526</ele>
        <time>2020-02-01T09:32:09.000Z</time>
      </trkpt>
      <trkpt lat="42.84708" lon="0.50731">
        <ele>1526</ele>
        <time>2020-02-01T09:32:10.000Z</time>
      </trkpt>
      <trkpt lat="42.84708" lon="0.50731">
        <ele>1526.5</ele>
        <time>2020-02-01T09:32:11.000Z</time>
      </trkpt>
      <trkpt lat="42.84707" lon="0.5073">
        <ele>1527</ele>
        <time>2020-02-01T09:32:12.000Z</time>
      </trkpt>
      <trkpt lat="42.84706" lon="0.50729">
        <ele>1527</ele>
        <time>2020-02-01T09:32:13.000Z</time>
      </trkpt>
      <trkpt lat="42.84706" lon="0.50728">
        <ele>1527</ele>
        <time>2020-02-01T09:32:14.000Z</time>
      </trkpt>
      <trkpt lat="42.84705" lon="0.50728">
        <ele>1527</ele>
        <time>2020-02-01T09:32:15.000Z</time>
      </trkpt>
      <trkpt lat="42.84705" lon="0.50727">
        <ele>1527</ele>
        <time>2020-02-01T09:32:16.000Z</time>
      </trkpt>
      <trkpt lat="42.84704" lon="0.50727">
        <ele>1528</ele>
        <time>2020-02-01T09:32:17.000Z</time>
      </trkpt>
      <trkpt lat="42.84704" lon="0.50726">
        <ele>1528</ele>
        <time>2020-02-01T09:32:18.000Z</time>
      </trkpt>
      <trkpt lat="42.84704" lon="0.50726">
        <ele>1528</ele>
        <time>2020-02-01T09:32:19.000Z</time>
      </trkpt>
      <trkpt lat="42.84704" lon="0.50726">
        <ele>1528</ele>
        <time>2020-02-01T09:32:20.000Z</time>
      </trkpt>
      <trkpt lat="42.84704" lon="0.50726">
        <ele>1528</ele>
        <time>2020-02-01T09:32:21.000Z</time>
      </trkpt>
      <trkpt lat="42.84705" lon="0.50726">
        <ele>1528</ele>
        <time>2020-02-01T09:32:22.000Z</time>
      </trkpt>
      <trkpt lat="42.84705" lon="0.50726">
        <ele>1528</ele>
        <time>2020-02-01T09:32:23.000Z</time>
      </trkpt>
      <trkpt lat="42.84706" lon="0.50725">
        <ele>1528.3</ele>
        <time>2020-02-01T09:32:24.000Z</time>
      </trkpt>
      <trkpt lat="42.84707" lon="0.50725">
        <ele>1528.7</ele>
        <time>2020-02-01T09:32:25.000Z</time>
      </trkpt>
      <trkpt lat="42.84707" lon="0.50724">
        <ele>1529</ele>
        <time>2020-02-01T09:32:26.000Z</time>
      </trkpt>
      <trkpt lat="42.84708" lon="0.50724">
        <ele>1529</ele>
        <time>2020-02-01T09:32:27.000Z</time>
      </trkpt>
      <trkpt lat="42.84709" lon="0.50724">
        <ele>1529</ele>
        <time>2020-02-01T09:32:28.000Z</time>
      </trkpt>
      <trkpt lat="42.84709" lon="0.50724">
        <ele>1529</ele>
        <time>2020-02-01T09:32:29.000Z</time>
      </trkpt>
      <trkpt lat="42.8471" lon="0.50724">
        <ele>1529</ele>
        <time>2020-02-01T09:32:30.000Z</time>
      </trkpt>
      <trkpt lat="42.8471" lon="0.50723">
        <ele>1529</ele>
        <time>2020-02-01T09:32:31.000Z</time>
      </trkpt>
      <trkpt lat="42.84711" lon="0.50723">
        <ele>1529.3</ele>
        <time>2020-02-01T09:32:32.000Z</time>
      </trkpt>
      <trkpt lat="42.84711" lon="0.50723">
        <ele>1529.7</ele>
        <time>2020-02-01T09:32:33.000Z</time>
      </trkpt>
      <trkpt lat="42.84712" lon="0.50723">
        <ele>1530</ele>
        <time>2020-02-01T09:32:34.000Z</time>
      </trkpt>
      <trkpt lat="42.84712" lon="0.50722">
        <ele>1530</ele>
        <time>2020-02-01T09:32:35.000Z</time>
      </trkpt>
      <trkpt lat="42.84713" lon="0.50722">
        <ele>1530</ele>
        <time>2020-02-01T09:32:36.000Z</time>
      </trkpt>
      <trkpt lat="42.84714" lon="0.50721">
        <ele>1530.5</ele>
        <time>2020-02-01T09:32:37.000Z</time>
      </trkpt>
      <trkpt lat="42.84715" lon="0.5072">
        <ele>1531</ele>
        <time>2020-02-01T09:32:38.000Z</time>
      </trkpt>
      <trkpt lat="42.84716" lon="0.50719">
        <ele>1531</ele>
        <time>2020-02-01T09:32:39.000Z</time>
      </trkpt>
      <trkpt lat="42.84716" lon="0.50718">
        <ele>1531</ele>
        <time>2020-02-01T09:32:40.000Z</time>
      </trkpt>
      <trkpt lat="42.84715" lon="0.50717">
        <ele>1531</ele>
        <time>2020-02-01T09:32:41.000Z</time>
      </trkpt>
      <trkpt lat="42.84713" lon="0.50717">
        <ele>1531</ele>
        <time>2020-02-01T09:32:42.000Z</time>
      </trkpt>
      <trkpt lat="42.84711" lon="0.50716">
        <ele>1531</ele>
        <time>2020-02-01T09:32:43.000Z</time>
      </trkpt>
      <trkpt lat="42.84708" lon="0.50716">
        <ele>1531</ele>
        <time>2020-02-01T09:32:44.000Z</time>
      </trkpt>
      <trkpt lat="42.84706" lon="0.50716">
        <ele>1531</ele>
        <time>2020-02-01T09:32:45.000Z</time>
      </trkpt>
      <trkpt lat="42.84704" lon="0.50716">
        <ele>1531</ele>
        <time>2020-02-01T09:32:46.000Z</time>
      </trkpt>
      <trkpt lat="42.84703" lon="0.50716">
        <ele>1531.5</ele>
        <time>2020-02-01T09:32:47.000Z</time>
      </trkpt>
      <trkpt lat="42.84702" lon="0.50716">
        <ele>1532</ele>
        <time>2020-02-01T09:32:48.000Z</time>
      </trkpt>
      <trkpt lat="42.84702" lon="0.50715">
        <ele>1532</ele>
        <time>2020-02-01T09:32:49.000Z</time>
      </trkpt>
      <trkpt lat="42.84702" lon="0.50715">
        <ele>1532</ele>
        <time>2020-02-01T09:32:50.000Z</time>
      </trkpt>
      <trkpt lat="42.84702" lon="0.50714">
        <ele>1532</ele>
        <time>2020-02-01T09:32:51.000Z</time>
      </trkpt>
      <trkpt lat="42.84702" lon="0.50713">
        <ele>1532</ele>
        <time>2020-02-01T09:32:52.000Z</time>
      </trkpt>
      <trkpt lat="42.84701" lon="0.50713">
        <ele>1532</ele>
        <time>2020-02-01T09:32:53.000Z</time>
      </trkpt>
      <trkpt lat="42.84701" lon="0.50712">
        <ele>1532.3</ele>
        <time>2020-02-01T09:32:54.000Z</time>
      </trkpt>
      <trkpt lat="42.84701" lon="0.50711">
        <ele>1532.7</ele>
        <time>2020-02-01T09:32:55.000Z</time>
      </trkpt>
      <trkpt lat="42.84701" lon="0.50711">
        <ele>1533</ele>
        <time>2020-02-01T09:32:56.000Z</time>
      </trkpt>
      <trkpt lat="42.84701" lon="0.5071">
        <ele>1533</ele>
        <time>2020-02-01T09:32:57.000Z</time>
      </trkpt>
      <trkpt lat="42.84701" lon="0.5071">
        <ele>1533</ele>
        <time>2020-02-01T09:32:58.000Z</time>
      </trkpt>
      <trkpt lat="42.84702" lon="0.5071">
        <ele>1533</ele>
        <time>2020-02-01T09:32:59.000Z</time>
      </trkpt>
      <trkpt lat="42.84702" lon="0.50709">
        <ele>1533</ele>
        <time>2020-02-01T09:33:00.000Z</time>
      </trkpt>
      <trkpt lat="42.84702" lon="0.50709">
        <ele>1533</ele>
        <time>2020-02-01T09:33:01.000Z</time>
      </trkpt>
      <trkpt lat="42.84702" lon="0.50709">
        <ele>1533</ele>
        <time>2020-02-01T09:33:02.000Z</time>
      </trkpt>
      <trkpt lat="42.84702" lon="0.50709">
        <ele>1534</ele>
        <time>2020-02-01T09:33:03.000Z</time>
      </trkpt>
      <trkpt lat="42.84702" lon="0.50708">
        <ele>1534</ele>
        <time>2020-02-01T09:33:04.000Z</time>
      </trkpt>
      <trkpt lat="42.84702" lon="0.50708">
        <ele>1534</ele>
        <time>2020-02-01T09:33:05.000Z</time>
      </trkpt>
      <trkpt lat="42.84702" lon="0.50707">
        <ele>1534</ele>
        <time>2020-02-01T09:33:06.000Z</time>
      </trkpt>
      <trkpt lat="42.84702" lon="0.50706">
        <ele>1534</ele>
        <time>2020-02-01T09:33:07.000Z</time>
      </trkpt>
      <trkpt lat="42.84702" lon="0.50706">
        <ele>1534</ele>
        <time>2020-02-01T09:33:08.000Z</time>
      </trkpt>
      <trkpt lat="42.84702" lon="0.50705">
        <ele>1535</ele>
        <time>2020-02-01T09:33:09.000Z</time>
      </trkpt>
      <trkpt lat="42.84702" lon="0.50704">
        <ele>1535</ele>
        <time>2020-02-01T09:33:10.000Z</time>
      </trkpt>
      <trkpt lat="42.84702" lon="0.50703">
        <ele>1535</ele>
        <time>2020-02-01T09:33:11.000Z</time>
      </trkpt>
      <trkpt lat="42.84702" lon="0.50703">
        <ele>1535</ele>
        <time>2020-02-01T09:33:12.000Z</time>
      </trkpt>
      <trkpt lat="42.84701" lon="0.50702">
        <ele>1535</ele>
        <time>2020-02-01T09:33:13.000Z</time>
      </trkpt>
      <trkpt lat="42.84701" lon="0.50702">
        <ele>1535</ele>
        <time>2020-02-01T09:33:14.000Z</time>
      </trkpt>
      <trkpt lat="42.84701" lon="0.50701">
        <ele>1536</ele>
        <time>2020-02-01T09:33:15.000Z</time>
      </trkpt>
      <trkpt lat="42.847" lon="0.50701">
        <ele>1536</ele>
        <time>2020-02-01T09:33:16.000Z</time>
      </trkpt>
      <trkpt lat="42.847" lon="0.50701">
        <ele>1536</ele>
        <time>2020-02-01T09:33:17.000Z</time>
      </trkpt>
      <trkpt lat="42.847" lon="0.50701">
        <ele>1536</ele>
        <time>2020-02-01T09:33:18.000Z</time>
      </trkpt>
      <trkpt lat="42.84699" lon="0.50701">
        <ele>1536</ele>
        <time>2020-02-01T09:33:19.000Z</time>
      </trkpt>
      <trkpt lat="42.84699" lon="0.50701">
        <ele>1536</ele>
        <time>2020-02-01T09:33:20.000Z</time>
      </trkpt>
      <trkpt lat="42.84699" lon="0.50701">
        <ele>1536.5</ele>
        <time>2020-02-01T09:33:21.000Z</time>
      </trkpt>
      <trkpt lat="42.84699" lon="0.507">
        <ele>1537</ele>
        <time>2020-02-01T09:33:22.000Z</time>
      </trkpt>
      <trkpt lat="42.84699" lon="0.507">
        <ele>1537</ele>
        <time>2020-02-01T09:33:23.000Z</time>
      </trkpt>
      <trkpt lat="42.84699" lon="0.507">
        <ele>1537.3</ele>
        <time>2020-02-01T09:33:24.000Z</time>
      </trkpt>
      <trkpt lat="42.84699" lon="0.50699">
        <ele>1537.7</ele>
        <time>2020-02-01T09:33:25.000Z</time>
      </trkpt>
      <trkpt lat="42.84699" lon="0.50699">
        <ele>1538</ele>
        <time>2020-02-01T09:33:26.000Z</time>
      </trkpt>
      <trkpt lat="42.847" lon="0.50698">
        <ele>1538</ele>
        <time>2020-02-01T09:33:27.000Z</time>
      </trkpt>
      <trkpt lat="42.847" lon="0.50698">
        <ele>1538</ele>
        <time>2020-02-01T09:33:28.000Z</time>
      </trkpt>
      <trkpt lat="42.84701" lon="0.50697">
        <ele>1538</ele>
        <time>2020-02-01T09:33:29.000Z</time>
      </trkpt>
      <trkpt lat="42.84701" lon="0.50696">
        <ele>1538</ele>
        <time>2020-02-01T09:33:30.000Z</time>
      </trkpt>
      <trkpt lat="42.84702" lon="0.50695">
        <ele>1538.5</ele>
        <time>2020-02-01T09:33:31.000Z</time>
      </trkpt>
      <trkpt lat="42.84702" lon="0.50694">
        <ele>1539</ele>
        <time>2020-02-01T09:33:32.000Z</time>
      </trkpt>
      <trkpt lat="42.84703" lon="0.50694">
        <ele>1539</ele>
        <time>2020-02-01T09:33:33.000Z</time>
      </trkpt>
      <trkpt lat="42.84703" lon="0.50693">
        <ele>1539</ele>
        <time>2020-02-01T09:33:34.000Z</time>
      </trkpt>
      <trkpt lat="42.84703" lon="0.50692">
        <ele>1539</ele>
        <time>2020-02-01T09:33:35.000Z</time>
      </trkpt>
      <trkpt lat="42.84702" lon="0.50691">
        <ele>1539</ele>
        <time>2020-02-01T09:33:36.000Z</time>
      </trkpt>
      <trkpt lat="42.84702" lon="0.50691">
        <ele>1539.5</ele>
        <time>2020-02-01T09:33:37.000Z</time>
      </trkpt>
      <trkpt lat="42.84702" lon="0.5069">
        <ele>1540</ele>
        <time>2020-02-01T09:33:38.000Z</time>
      </trkpt>
      <trkpt lat="42.84703" lon="0.50689">
        <ele>1540</ele>
        <time>2020-02-01T09:33:39.000Z</time>
      </trkpt>
      <trkpt lat="42.84703" lon="0.50688">
        <ele>1540</ele>
        <time>2020-02-01T09:33:40.000Z</time>
      </trkpt>
      <trkpt lat="42.84703" lon="0.50687">
        <ele>1540</ele>
        <time>2020-02-01T09:33:41.000Z</time>
      </trkpt>
      <trkpt lat="42.84704" lon="0.50686">
        <ele>1540</ele>
        <time>2020-02-01T09:33:42.000Z</time>
      </trkpt>
      <trkpt lat="42.84704" lon="0.50686">
        <ele>1540.5</ele>
        <time>2020-02-01T09:33:43.000Z</time>
      </trkpt>
      <trkpt lat="42.84704" lon="0.50685">
        <ele>1541</ele>
        <time>2020-02-01T09:33:44.000Z</time>
      </trkpt>
      <trkpt lat="42.84705" lon="0.50685">
        <ele>1541</ele>
        <time>2020-02-01T09:33:45.000Z</time>
      </trkpt>
      <trkpt lat="42.84705" lon="0.50684">
        <ele>1541</ele>
        <time>2020-02-01T09:33:46.000Z</time>
      </trkpt>
      <trkpt lat="42.84705" lon="0.50684">
        <ele>1541</ele>
        <time>2020-02-01T09:33:47.000Z</time>
      </trkpt>
      <trkpt lat="42.84705" lon="0.50684">
        <ele>1541.3</ele>
        <time>2020-02-01T09:33:48.000Z</time>
      </trkpt>
      <trkpt lat="42.84705" lon="0.50683">
        <ele>1541.7</ele>
        <time>2020-02-01T09:33:49.000Z</time>
      </trkpt>
      <trkpt lat="42.84705" lon="0.50683">
        <ele>1542</ele>
        <time>2020-02-01T09:33:50.000Z</time>
      </trkpt>
      <trkpt lat="42.84705" lon="0.50683">
        <ele>1542</ele>
        <time>2020-02-01T09:33:51.000Z</time>
      </trkpt>
      <trkpt lat="42.84705" lon="0.50682">
        <ele>1542</ele>
        <time>2020-02-01T09:33:52.000Z</time>
      </trkpt>
      <trkpt lat="42.84705" lon="0.50681">
        <ele>1542</ele>
        <time>2020-02-01T09:33:53.000Z</time>
      </trkpt>
      <trkpt lat="42.84704" lon="0.50681">
        <ele>1542</ele>
        <time>2020-02-01T09:33:54.000Z</time>
      </trkpt>
      <trkpt lat="42.84704" lon="0.5068">
        <ele>1542</ele>
        <time>2020-02-01T09:33:55.000Z</time>
      </trkpt>
      <trkpt lat="42.84704" lon="0.50679">
        <ele>1542</ele>
        <time>2020-02-01T09:33:56.000Z</time>
      </trkpt>
      <trkpt lat="42.84704" lon="0.50678">
        <ele>1542.5</ele>
        <time>2020-02-01T09:33:57.000Z</time>
      </trkpt>
      <trkpt lat="42.84704" lon="0.50678">
        <ele>1543</ele>
        <time>2020-02-01T09:33:58.000Z</time>
      </trkpt>
      <trkpt lat="42.84703" lon="0.50677">
        <ele>1543</ele>
        <time>2020-02-01T09:33:59.000Z</time>
      </trkpt>
      <trkpt lat="42.84703" lon="0.50676">
        <ele>1543</ele>
        <time>2020-02-01T09:34:00.000Z</time>
      </trkpt>
      <trkpt lat="42.84703" lon="0.50675">
        <ele>1543</ele>
        <time>2020-02-01T09:34:01.000Z</time>
      </trkpt>
      <trkpt lat="42.84702" lon="0.50675">
        <ele>1543</ele>
        <time>2020-02-01T09:34:02.000Z</time>
      </trkpt>
      <trkpt lat="42.84702" lon="0.50674">
        <ele>1543</ele>
        <time>2020-02-01T09:34:03.000Z</time>
      </trkpt>
      <trkpt lat="42.84702" lon="0.50674">
        <ele>1543</ele>
        <time>2020-02-01T09:34:04.000Z</time>
      </trkpt>
      <trkpt lat="42.84701" lon="0.50674">
        <ele>1544</ele>
        <time>2020-02-01T09:34:05.000Z</time>
      </trkpt>
      <trkpt lat="42.84701" lon="0.50673">
        <ele>1544</ele>
        <time>2020-02-01T09:34:06.000Z</time>
      </trkpt>
      <trkpt lat="42.84701" lon="0.50673">
        <ele>1544</ele>
        <time>2020-02-01T09:34:07.000Z</time>
      </trkpt>
      <trkpt lat="42.847" lon="0.50673">
        <ele>1544</ele>
        <time>2020-02-01T09:34:08.000Z</time>
      </trkpt>
      <trkpt lat="42.847" lon="0.50673">
        <ele>1544</ele>
        <time>2020-02-01T09:34:09.000Z</time>
      </trkpt>
      <trkpt lat="42.847" lon="0.50673">
        <ele>1544</ele>
        <time>2020-02-01T09:34:10.000Z</time>
      </trkpt>
      <trkpt lat="42.84699" lon="0.50673">
        <ele>1544</ele>
        <time>2020-02-01T09:34:11.000Z</time>
      </trkpt>
      <trkpt lat="42.84699" lon="0.50672">
        <ele>1544</ele>
        <time>2020-02-01T09:34:12.000Z</time>
      </trkpt>
      <trkpt lat="42.84699" lon="0.50672">
        <ele>1544.5</ele>
        <time>2020-02-01T09:34:13.000Z</time>
      </trkpt>
      <trkpt lat="42.84698" lon="0.50672">
        <ele>1545</ele>
        <time>2020-02-01T09:34:14.000Z</time>
      </trkpt>
      <trkpt lat="42.84698" lon="0.50671">
        <ele>1545</ele>
        <time>2020-02-01T09:34:15.000Z</time>
      </trkpt>
      <trkpt lat="42.84698" lon="0.5067">
        <ele>1545</ele>
        <time>2020-02-01T09:34:16.000Z</time>
      </trkpt>
      <trkpt lat="42.84698" lon="0.50669">
        <ele>1545.5</ele>
        <time>2020-02-01T09:34:17.000Z</time>
      </trkpt>
      <trkpt lat="42.84698" lon="0.50668">
        <ele>1546</ele>
        <time>2020-02-01T09:34:18.000Z</time>
      </trkpt>
      <trkpt lat="42.84698" lon="0.50668">
        <ele>1546</ele>
        <time>2020-02-01T09:34:19.000Z</time>
      </trkpt>
      <trkpt lat="42.84699" lon="0.50667">
        <ele>1546</ele>
        <time>2020-02-01T09:34:20.000Z</time>
      </trkpt>
      <trkpt lat="42.84699" lon="0.50666">
        <ele>1546</ele>
        <time>2020-02-01T09:34:21.000Z</time>
      </trkpt>
      <trkpt lat="42.847" lon="0.50665">
        <ele>1546</ele>
        <time>2020-02-01T09:34:22.000Z</time>
      </trkpt>
      <trkpt lat="42.847" lon="0.50665">
        <ele>1546</ele>
        <time>2020-02-01T09:34:23.000Z</time>
      </trkpt>
      <trkpt lat="42.84701" lon="0.50665">
        <ele>1546</ele>
        <time>2020-02-01T09:34:24.000Z</time>
      </trkpt>
      <trkpt lat="42.84702" lon="0.50664">
        <ele>1546.5</ele>
        <time>2020-02-01T09:34:25.000Z</time>
      </trkpt>
      <trkpt lat="42.84702" lon="0.50664">
        <ele>1547</ele>
        <time>2020-02-01T09:34:26.000Z</time>
      </trkpt>
      <trkpt lat="42.84703" lon="0.50664">
        <ele>1547</ele>
        <time>2020-02-01T09:34:27.000Z</time>
      </trkpt>
      <trkpt lat="42.84703" lon="0.50664">
        <ele>1547</ele>
        <time>2020-02-01T09:34:28.000Z</time>
      </trkpt>
      <trkpt lat="42.84703" lon="0.50663">
        <ele>1547</ele>
        <time>2020-02-01T09:34:29.000Z</time>
      </trkpt>
      <trkpt lat="42.84703" lon="0.50663">
        <ele>1547</ele>
        <time>2020-02-01T09:34:30.000Z</time>
      </trkpt>
      <trkpt lat="42.84703" lon="0.50661">
        <ele>1547.5</ele>
        <time>2020-02-01T09:34:31.000Z</time>
      </trkpt>
      <trkpt lat="42.84703" lon="0.5066">
        <ele>1548</ele>
        <time>2020-02-01T09:34:32.000Z</time>
      </trkpt>
      <trkpt lat="42.84703" lon="0.50658">
        <ele>1548</ele>
        <time>2020-02-01T09:34:33.000Z</time>
      </trkpt>
      <trkpt lat="42.84703" lon="0.50657">
        <ele>1548</ele>
        <time>2020-02-01T09:34:34.000Z</time>
      </trkpt>
      <trkpt lat="42.84701" lon="0.50656">
        <ele>1548</ele>
        <time>2020-02-01T09:34:35.000Z</time>
      </trkpt>
      <trkpt lat="42.847" lon="0.50655">
        <ele>1548</ele>
        <time>2020-02-01T09:34:36.000Z</time>
      </trkpt>
      <trkpt lat="42.84699" lon="0.50655">
        <ele>1548.5</ele>
        <time>2020-02-01T09:34:37.000Z</time>
      </trkpt>
      <trkpt lat="42.84698" lon="0.50654">
        <ele>1549</ele>
        <time>2020-02-01T09:34:38.000Z</time>
      </trkpt>
      <trkpt lat="42.84697" lon="0.50654">
        <ele>1549</ele>
        <time>2020-02-01T09:34:39.000Z</time>
      </trkpt>
      <trkpt lat="42.84697" lon="0.50654">
        <ele>1549</ele>
        <time>2020-02-01T09:34:40.000Z</time>
      </trkpt>
      <trkpt lat="42.84696" lon="0.50654">
        <ele>1549</ele>
        <time>2020-02-01T09:34:41.000Z</time>
      </trkpt>
      <trkpt lat="42.84696" lon="0.50654">
        <ele>1549</ele>
        <time>2020-02-01T09:34:42.000Z</time>
      </trkpt>
      <trkpt lat="42.84696" lon="0.50654">
        <ele>1549.5</ele>
        <time>2020-02-01T09:34:43.000Z</time>
      </trkpt>
      <trkpt lat="42.84695" lon="0.50654">
        <ele>1550</ele>
        <time>2020-02-01T09:34:44.000Z</time>
      </trkpt>
      <trkpt lat="42.84695" lon="0.50654">
        <ele>1550</ele>
        <time>2020-02-01T09:34:45.000Z</time>
      </trkpt>
      <trkpt lat="42.84695" lon="0.50654">
        <ele>1550</ele>
        <time>2020-02-01T09:34:46.000Z</time>
      </trkpt>
      <trkpt lat="42.84695" lon="0.50654">
        <ele>1550</ele>
        <time>2020-02-01T09:34:47.000Z</time>
      </trkpt>
      <trkpt lat="42.84696" lon="0.50653">
        <ele>1550</ele>
        <time>2020-02-01T09:34:48.000Z</time>
      </trkpt>
      <trkpt lat="42.84696" lon="0.50653">
        <ele>1550</ele>
        <time>2020-02-01T09:34:49.000Z</time>
      </trkpt>
      <trkpt lat="42.84696" lon="0.50652">
        <ele>1550</ele>
        <time>2020-02-01T09:34:50.000Z</time>
      </trkpt>
      <trkpt lat="42.84697" lon="0.50651">
        <ele>1550</ele>
        <time>2020-02-01T09:34:51.000Z</time>
      </trkpt>
      <trkpt lat="42.84698" lon="0.5065">
        <ele>1550</ele>
        <time>2020-02-01T09:34:52.000Z</time>
      </trkpt>
      <trkpt lat="42.84698" lon="0.5065">
        <ele>1550.5</ele>
        <time>2020-02-01T09:34:53.000Z</time>
      </trkpt>
      <trkpt lat="42.84699" lon="0.50649">
        <ele>1551</ele>
        <time>2020-02-01T09:34:54.000Z</time>
      </trkpt>
      <trkpt lat="42.84699" lon="0.50648">
        <ele>1551</ele>
        <time>2020-02-01T09:34:55.000Z</time>
      </trkpt>
      <trkpt lat="42.84699" lon="0.50648">
        <ele>1551</ele>
        <time>2020-02-01T09:34:56.000Z</time>
      </trkpt>
      <trkpt lat="42.84699" lon="0.50648">
        <ele>1551</ele>
        <time>2020-02-01T09:34:57.000Z</time>
      </trkpt>
      <trkpt lat="42.847" lon="0.50648">
        <ele>1551</ele>
        <time>2020-02-01T09:34:58.000Z</time>
      </trkpt>
      <trkpt lat="42.847" lon="0.50648">
        <ele>1552</ele>
        <time>2020-02-01T09:34:59.000Z</time>
      </trkpt>
      <trkpt lat="42.847" lon="0.50647">
        <ele>1552</ele>
        <time>2020-02-01T09:35:00.000Z</time>
      </trkpt>
      <trkpt lat="42.84701" lon="0.50646">
        <ele>1552</ele>
        <time>2020-02-01T09:35:01.000Z</time>
      </trkpt>
      <trkpt lat="42.847" lon="0.50645">
        <ele>1552</ele>
        <time>2020-02-01T09:35:02.000Z</time>
      </trkpt>
      <trkpt lat="42.84698" lon="0.50645">
        <ele>1552</ele>
        <time>2020-02-01T09:35:03.000Z</time>
      </trkpt>
      <trkpt lat="42.84695" lon="0.50644">
        <ele>1552.3</ele>
        <time>2020-02-01T09:35:04.000Z</time>
      </trkpt>
      <trkpt lat="42.84692" lon="0.50644">
        <ele>1552.7</ele>
        <time>2020-02-01T09:35:05.000Z</time>
      </trkpt>
      <trkpt lat="42.84691" lon="0.50643">
        <ele>1553</ele>
        <time>2020-02-01T09:35:06.000Z</time>
      </trkpt>
      <trkpt lat="42.8469" lon="0.50641">
        <ele>1553</ele>
        <time>2020-02-01T09:35:07.000Z</time>
      </trkpt>
      <trkpt lat="42.84689" lon="0.50639">
        <ele>1553</ele>
        <time>2020-02-01T09:35:08.000Z</time>
      </trkpt>
      <trkpt lat="42.84689" lon="0.50638">
        <ele>1553</ele>
        <time>2020-02-01T09:35:09.000Z</time>
      </trkpt>
      <trkpt lat="42.84688" lon="0.50637">
        <ele>1553</ele>
        <time>2020-02-01T09:35:10.000Z</time>
      </trkpt>
      <trkpt lat="42.84688" lon="0.50636">
        <ele>1553.5</ele>
        <time>2020-02-01T09:35:11.000Z</time>
      </trkpt>
      <trkpt lat="42.84688" lon="0.50636">
        <ele>1554</ele>
        <time>2020-02-01T09:35:12.000Z</time>
      </trkpt>
      <trkpt lat="42.84688" lon="0.50635">
        <ele>1554</ele>
        <time>2020-02-01T09:35:13.000Z</time>
      </trkpt>
      <trkpt lat="42.84688" lon="0.50635">
        <ele>1554</ele>
        <time>2020-02-01T09:35:14.000Z</time>
      </trkpt>
      <trkpt lat="42.84687" lon="0.50635">
        <ele>1554.5</ele>
        <time>2020-02-01T09:35:15.000Z</time>
      </trkpt>
      <trkpt lat="42.84687" lon="0.50635">
        <ele>1555</ele>
        <time>2020-02-01T09:35:16.000Z</time>
      </trkpt>
      <trkpt lat="42.84687" lon="0.50635">
        <ele>1555</ele>
        <time>2020-02-01T09:35:17.000Z</time>
      </trkpt>
      <trkpt lat="42.84688" lon="0.50634">
        <ele>1555</ele>
        <time>2020-02-01T09:35:18.000Z</time>
      </trkpt>
      <trkpt lat="42.84688" lon="0.50634">
        <ele>1554.5</ele>
        <time>2020-02-01T09:35:19.000Z</time>
      </trkpt>
      <trkpt lat="42.84688" lon="0.50633">
        <ele>1554</ele>
        <time>2020-02-01T09:35:20.000Z</time>
      </trkpt>
      <trkpt lat="42.84688" lon="0.50633">
        <ele>1554.5</ele>
        <time>2020-02-01T09:35:21.000Z</time>
      </trkpt>
      <trkpt lat="42.84688" lon="0.50632">
        <ele>1555</ele>
        <time>2020-02-01T09:35:22.000Z</time>
      </trkpt>
      <trkpt lat="42.84688" lon="0.50631">
        <ele>1555</ele>
        <time>2020-02-01T09:35:23.000Z</time>
      </trkpt>
      <trkpt lat="42.84689" lon="0.5063">
        <ele>1555</ele>
        <time>2020-02-01T09:35:24.000Z</time>
      </trkpt>
      <trkpt lat="42.84689" lon="0.50629">
        <ele>1555</ele>
        <time>2020-02-01T09:35:25.000Z</time>
      </trkpt>
      <trkpt lat="42.8469" lon="0.50628">
        <ele>1555</ele>
        <time>2020-02-01T09:35:26.000Z</time>
      </trkpt>
      <trkpt lat="42.8469" lon="0.50627">
        <ele>1555</ele>
        <time>2020-02-01T09:35:27.000Z</time>
      </trkpt>
      <trkpt lat="42.84691" lon="0.50627">
        <ele>1555</ele>
        <time>2020-02-01T09:35:28.000Z</time>
      </trkpt>
      <trkpt lat="42.84692" lon="0.50626">
        <ele>1555.5</ele>
        <time>2020-02-01T09:35:29.000Z</time>
      </trkpt>
      <trkpt lat="42.84693" lon="0.50625">
        <ele>1556</ele>
        <time>2020-02-01T09:35:30.000Z</time>
      </trkpt>
      <trkpt lat="42.84694" lon="0.50624">
        <ele>1556</ele>
        <time>2020-02-01T09:35:31.000Z</time>
      </trkpt>
      <trkpt lat="42.84695" lon="0.50623">
        <ele>1556</ele>
        <time>2020-02-01T09:35:32.000Z</time>
      </trkpt>
      <trkpt lat="42.84696" lon="0.50623">
        <ele>1556</ele>
        <time>2020-02-01T09:35:33.000Z</time>
      </trkpt>
      <trkpt lat="42.84697" lon="0.50622">
        <ele>1556</ele>
        <time>2020-02-01T09:35:34.000Z</time>
      </trkpt>
      <trkpt lat="42.84698" lon="0.50622">
        <ele>1556</ele>
        <time>2020-02-01T09:35:35.000Z</time>
      </trkpt>
      <trkpt lat="42.84699" lon="0.50621">
        <ele>1556</ele>
        <time>2020-02-01T09:35:36.000Z</time>
      </trkpt>
      <trkpt lat="42.84699" lon="0.5062">
        <ele>1556</ele>
        <time>2020-02-01T09:35:37.000Z</time>
      </trkpt>
      <trkpt lat="42.847" lon="0.5062">
        <ele>1556.3</ele>
        <time>2020-02-01T09:35:38.000Z</time>
      </trkpt>
      <trkpt lat="42.847" lon="0.50619">
        <ele>1556.7</ele>
        <time>2020-02-01T09:35:39.000Z</time>
      </trkpt>
      <trkpt lat="42.84701" lon="0.50619">
        <ele>1557</ele>
        <time>2020-02-01T09:35:40.000Z</time>
      </trkpt>
      <trkpt lat="42.84701" lon="0.50618">
        <ele>1557</ele>
        <time>2020-02-01T09:35:41.000Z</time>
      </trkpt>
      <trkpt lat="42.84701" lon="0.50618">
        <ele>1557</ele>
        <time>2020-02-01T09:35:42.000Z</time>
      </trkpt>
      <trkpt lat="42.84701" lon="0.50617">
        <ele>1557</ele>
        <time>2020-02-01T09:35:43.000Z</time>
      </trkpt>
      <trkpt lat="42.84702" lon="0.50617">
        <ele>1557</ele>
        <time>2020-02-01T09:35:44.000Z</time>
      </trkpt>
      <trkpt lat="42.84702" lon="0.50616">
        <ele>1557</ele>
        <time>2020-02-01T09:35:45.000Z</time>
      </trkpt>
      <trkpt lat="42.84702" lon="0.50615">
        <ele>1557</ele>
        <time>2020-02-01T09:35:46.000Z</time>
      </trkpt>
      <trkpt lat="42.84702" lon="0.50615">
        <ele>1557</ele>
        <time>2020-02-01T09:35:47.000Z</time>
      </trkpt>
      <trkpt lat="42.84702" lon="0.50614">
        <ele>1557</ele>
        <time>2020-02-01T09:35:48.000Z</time>
      </trkpt>
      <trkpt lat="42.84702" lon="0.50613">
        <ele>1557</ele>
        <time>2020-02-01T09:35:49.000Z</time>
      </trkpt>
      <trkpt lat="42.84702" lon="0.50612">
        <ele>1557.3</ele>
        <time>2020-02-01T09:35:50.000Z</time>
      </trkpt>
      <trkpt lat="42.84702" lon="0.50611">
        <ele>1557.7</ele>
        <time>2020-02-01T09:35:51.000Z</time>
      </trkpt>
      <trkpt lat="42.84703" lon="0.5061">
        <ele>1558</ele>
        <time>2020-02-01T09:35:52.000Z</time>
      </trkpt>
      <trkpt lat="42.84703" lon="0.5061">
        <ele>1558</ele>
        <time>2020-02-01T09:35:53.000Z</time>
      </trkpt>
      <trkpt lat="42.84703" lon="0.50609">
        <ele>1558</ele>
        <time>2020-02-01T09:35:54.000Z</time>
      </trkpt>
      <trkpt lat="42.84703" lon="0.50608">
        <ele>1558</ele>
        <time>2020-02-01T09:35:55.000Z</time>
      </trkpt>
      <trkpt lat="42.84702" lon="0.50607">
        <ele>1558</ele>
        <time>2020-02-01T09:35:56.000Z</time>
      </trkpt>
      <trkpt lat="42.84702" lon="0.50606">
        <ele>1558</ele>
        <time>2020-02-01T09:35:57.000Z</time>
      </trkpt>
      <trkpt lat="42.84702" lon="0.50605">
        <ele>1558.3</ele>
        <time>2020-02-01T09:35:58.000Z</time>
      </trkpt>
      <trkpt lat="42.84702" lon="0.50604">
        <ele>1558.7</ele>
        <time>2020-02-01T09:35:59.000Z</time>
      </trkpt>
      <trkpt lat="42.84701" lon="0.50603">
        <ele>1559</ele>
        <time>2020-02-01T09:36:00.000Z</time>
      </trkpt>
      <trkpt lat="42.84701" lon="0.50602">
        <ele>1559</ele>
        <time>2020-02-01T09:36:01.000Z</time>
      </trkpt>
      <trkpt lat="42.84701" lon="0.50601">
        <ele>1559</ele>
        <time>2020-02-01T09:36:02.000Z</time>
      </trkpt>
      <trkpt lat="42.84701" lon="0.506">
        <ele>1559</ele>
        <time>2020-02-01T09:36:03.000Z</time>
      </trkpt>
      <trkpt lat="42.847" lon="0.50598">
        <ele>1559</ele>
        <time>2020-02-01T09:36:04.000Z</time>
      </trkpt>
      <trkpt lat="42.84701" lon="0.50597">
        <ele>1559</ele>
        <time>2020-02-01T09:36:05.000Z</time>
      </trkpt>
      <trkpt lat="42.84701" lon="0.50596">
        <ele>1559</ele>
        <time>2020-02-01T09:36:06.000Z</time>
      </trkpt>
      <trkpt lat="42.84701" lon="0.50595">
        <ele>1560</ele>
        <time>2020-02-01T09:36:07.000Z</time>
      </trkpt>
      <trkpt lat="42.84702" lon="0.50594">
        <ele>1560</ele>
        <time>2020-02-01T09:36:08.000Z</time>
      </trkpt>
      <trkpt lat="42.84703" lon="0.50593">
        <ele>1560</ele>
        <time>2020-02-01T09:36:09.000Z</time>
      </trkpt>
      <trkpt lat="42.84704" lon="0.50592">
        <ele>1560</ele>
        <time>2020-02-01T09:36:10.000Z</time>
      </trkpt>
      <trkpt lat="42.84706" lon="0.50592">
        <ele>1560</ele>
        <time>2020-02-01T09:36:11.000Z</time>
      </trkpt>
      <trkpt lat="42.84707" lon="0.50591">
        <ele>1560</ele>
        <time>2020-02-01T09:36:12.000Z</time>
      </trkpt>
      <trkpt lat="42.84709" lon="0.5059">
        <ele>1560</ele>
        <time>2020-02-01T09:36:13.000Z</time>
      </trkpt>
      <trkpt lat="42.8471" lon="0.5059">
        <ele>1560</ele>
        <time>2020-02-01T09:36:14.000Z</time>
      </trkpt>
      <trkpt lat="42.84711" lon="0.50589">
        <ele>1560.5</ele>
        <time>2020-02-01T09:36:15.000Z</time>
      </trkpt>
      <trkpt lat="42.84712" lon="0.50588">
        <ele>1561</ele>
        <time>2020-02-01T09:36:16.000Z</time>
      </trkpt>
      <trkpt lat="42.84713" lon="0.50587">
        <ele>1561</ele>
        <time>2020-02-01T09:36:17.000Z</time>
      </trkpt>
      <trkpt lat="42.84713" lon="0.50586">
        <ele>1561</ele>
        <time>2020-02-01T09:36:18.000Z</time>
      </trkpt>
      <trkpt lat="42.84713" lon="0.50585">
        <ele>1561</ele>
        <time>2020-02-01T09:36:19.000Z</time>
      </trkpt>
      <trkpt lat="42.84713" lon="0.50584">
        <ele>1561</ele>
        <time>2020-02-01T09:36:20.000Z</time>
      </trkpt>
      <trkpt lat="42.84713" lon="0.50582">
        <ele>1561</ele>
        <time>2020-02-01T09:36:21.000Z</time>
      </trkpt>
      <trkpt lat="42.84713" lon="0.50581">
        <ele>1561</ele>
        <time>2020-02-01T09:36:22.000Z</time>
      </trkpt>
      <trkpt lat="42.84713" lon="0.5058">
        <ele>1561</ele>
        <time>2020-02-01T09:36:23.000Z</time>
      </trkpt>
      <trkpt lat="42.84712" lon="0.50579">
        <ele>1561</ele>
        <time>2020-02-01T09:36:24.000Z</time>
      </trkpt>
      <trkpt lat="42.84712" lon="0.50578">
        <ele>1561</ele>
        <time>2020-02-01T09:36:25.000Z</time>
      </trkpt>
      <trkpt lat="42.84712" lon="0.50577">
        <ele>1561</ele>
        <time>2020-02-01T09:36:26.000Z</time>
      </trkpt>
      <trkpt lat="42.84712" lon="0.50576">
        <ele>1561</ele>
        <time>2020-02-01T09:36:27.000Z</time>
      </trkpt>
      <trkpt lat="42.84711" lon="0.50575">
        <ele>1561</ele>
        <time>2020-02-01T09:36:28.000Z</time>
      </trkpt>
      <trkpt lat="42.84711" lon="0.50574">
        <ele>1561</ele>
        <time>2020-02-01T09:36:29.000Z</time>
      </trkpt>
      <trkpt lat="42.84711" lon="0.50573">
        <ele>1561</ele>
        <time>2020-02-01T09:36:30.000Z</time>
      </trkpt>
      <trkpt lat="42.8471" lon="0.50572">
        <ele>1561</ele>
        <time>2020-02-01T09:36:31.000Z</time>
      </trkpt>
      <trkpt lat="42.8471" lon="0.50571">
        <ele>1561</ele>
        <time>2020-02-01T09:36:32.000Z</time>
      </trkpt>
      <trkpt lat="42.84709" lon="0.5057">
        <ele>1561</ele>
        <time>2020-02-01T09:36:33.000Z</time>
      </trkpt>
      <trkpt lat="42.84709" lon="0.50569">
        <ele>1561</ele>
        <time>2020-02-01T09:36:34.000Z</time>
      </trkpt>
      <trkpt lat="42.84708" lon="0.50568">
        <ele>1561.5</ele>
        <time>2020-02-01T09:36:35.000Z</time>
      </trkpt>
      <trkpt lat="42.84708" lon="0.50567">
        <ele>1562</ele>
        <time>2020-02-01T09:36:36.000Z</time>
      </trkpt>
      <trkpt lat="42.84707" lon="0.50566">
        <ele>1562</ele>
        <time>2020-02-01T09:36:37.000Z</time>
      </trkpt>
      <trkpt lat="42.84706" lon="0.50565">
        <ele>1562</ele>
        <time>2020-02-01T09:36:38.000Z</time>
      </trkpt>
      <trkpt lat="42.84705" lon="0.50564">
        <ele>1562</ele>
        <time>2020-02-01T09:36:39.000Z</time>
      </trkpt>
      <trkpt lat="42.84705" lon="0.50563">
        <ele>1562</ele>
        <time>2020-02-01T09:36:40.000Z</time>
      </trkpt>
      <trkpt lat="42.84704" lon="0.50562">
        <ele>1562</ele>
        <time>2020-02-01T09:36:41.000Z</time>
      </trkpt>
      <trkpt lat="42.84704" lon="0.50562">
        <ele>1562</ele>
        <time>2020-02-01T09:36:42.000Z</time>
      </trkpt>
      <trkpt lat="42.84703" lon="0.50561">
        <ele>1562.5</ele>
        <time>2020-02-01T09:36:43.000Z</time>
      </trkpt>
      <trkpt lat="42.84703" lon="0.5056">
        <ele>1563</ele>
        <time>2020-02-01T09:36:44.000Z</time>
      </trkpt>
      <trkpt lat="42.84703" lon="0.50559">
        <ele>1563</ele>
        <time>2020-02-01T09:36:45.000Z</time>
      </trkpt>
      <trkpt lat="42.84703" lon="0.50559">
        <ele>1563</ele>
        <time>2020-02-01T09:36:46.000Z</time>
      </trkpt>
      <trkpt lat="42.84702" lon="0.50558">
        <ele>1563</ele>
        <time>2020-02-01T09:36:47.000Z</time>
      </trkpt>
      <trkpt lat="42.84702" lon="0.50557">
        <ele>1563</ele>
        <time>2020-02-01T09:36:48.000Z</time>
      </trkpt>
      <trkpt lat="42.84702" lon="0.50556">
        <ele>1563</ele>
        <time>2020-02-01T09:36:49.000Z</time>
      </trkpt>
      <trkpt lat="42.84701" lon="0.50555">
        <ele>1563.3</ele>
        <time>2020-02-01T09:36:50.000Z</time>
      </trkpt>
      <trkpt lat="42.84701" lon="0.50553">
        <ele>1563.7</ele>
        <time>2020-02-01T09:36:51.000Z</time>
      </trkpt>
      <trkpt lat="42.847" lon="0.50552">
        <ele>1564</ele>
        <time>2020-02-01T09:36:52.000Z</time>
      </trkpt>
      <trkpt lat="42.84698" lon="0.5055">
        <ele>1564</ele>
        <time>2020-02-01T09:36:55.000Z</time>
      </trkpt>
      <trkpt lat="42.84697" lon="0.50549">
        <ele>1564</ele>
        <time>2020-02-01T09:36:56.000Z</time>
      </trkpt>
      <trkpt lat="42.84695" lon="0.50548">
        <ele>1564</ele>
        <time>2020-02-01T09:36:57.000Z</time>
      </trkpt>
      <trkpt lat="42.84693" lon="0.50547">
        <ele>1564</ele>
        <time>2020-02-01T09:36:58.000Z</time>
      </trkpt>
      <trkpt lat="42.84693" lon="0.50547">
        <ele>1564</ele>
        <time>2020-02-01T09:36:59.000Z</time>
      </trkpt>
      <trkpt lat="42.84692" lon="0.50547">
        <ele>1564</ele>
        <time>2020-02-01T09:37:00.000Z</time>
      </trkpt>
      <trkpt lat="42.84691" lon="0.50547">
        <ele>1565</ele>
        <time>2020-02-01T09:37:01.000Z</time>
      </trkpt>
      <trkpt lat="42.84691" lon="0.50546">
        <ele>1565</ele>
        <time>2020-02-01T09:37:02.000Z</time>
      </trkpt>
      <trkpt lat="42.8469" lon="0.50545">
        <ele>1565</ele>
        <time>2020-02-01T09:37:03.000Z</time>
      </trkpt>
      <trkpt lat="42.8469" lon="0.50545">
        <ele>1565</ele>
        <time>2020-02-01T09:37:04.000Z</time>
      </trkpt>
      <trkpt lat="42.84689" lon="0.50544">
        <ele>1565</ele>
        <time>2020-02-01T09:37:05.000Z</time>
      </trkpt>
      <trkpt lat="42.84689" lon="0.50543">
        <ele>1565</ele>
        <time>2020-02-01T09:37:06.000Z</time>
      </trkpt>
      <trkpt lat="42.84689" lon="0.50543">
        <ele>1565</ele>
        <time>2020-02-01T09:37:07.000Z</time>
      </trkpt>
      <trkpt lat="42.84689" lon="0.50542">
        <ele>1565.5</ele>
        <time>2020-02-01T09:37:08.000Z</time>
      </trkpt>
      <trkpt lat="42.84688" lon="0.50541">
        <ele>1566</ele>
        <time>2020-02-01T09:37:09.000Z</time>
      </trkpt>
      <trkpt lat="42.84688" lon="0.5054">
        <ele>1566</ele>
        <time>2020-02-01T09:37:10.000Z</time>
      </trkpt>
      <trkpt lat="42.84688" lon="0.50539">
        <ele>1566</ele>
        <time>2020-02-01T09:37:11.000Z</time>
      </trkpt>
      <trkpt lat="42.84688" lon="0.50538">
        <ele>1566</ele>
        <time>2020-02-01T09:37:12.000Z</time>
      </trkpt>
      <trkpt lat="42.84688" lon="0.50538">
        <ele>1566</ele>
        <time>2020-02-01T09:37:13.000Z</time>
      </trkpt>
      <trkpt lat="42.84687" lon="0.50537">
        <ele>1566</ele>
        <time>2020-02-01T09:37:14.000Z</time>
      </trkpt>
      <trkpt lat="42.84687" lon="0.50536">
        <ele>1566</ele>
        <time>2020-02-01T09:37:15.000Z</time>
      </trkpt>
      <trkpt lat="42.84687" lon="0.50535">
        <ele>1566</ele>
        <time>2020-02-01T09:37:16.000Z</time>
      </trkpt>
      <trkpt lat="42.84686" lon="0.50534">
        <ele>1566</ele>
        <time>2020-02-01T09:37:17.000Z</time>
      </trkpt>
      <trkpt lat="42.84686" lon="0.50533">
        <ele>1566</ele>
        <time>2020-02-01T09:37:18.000Z</time>
      </trkpt>
      <trkpt lat="42.84685" lon="0.50532">
        <ele>1566</ele>
        <time>2020-02-01T09:37:19.000Z</time>
      </trkpt>
      <trkpt lat="42.84684" lon="0.50532">
        <ele>1566.5</ele>
        <time>2020-02-01T09:37:20.000Z</time>
      </trkpt>
      <trkpt lat="42.84684" lon="0.50531">
        <ele>1567</ele>
        <time>2020-02-01T09:37:21.000Z</time>
      </trkpt>
      <trkpt lat="42.84683" lon="0.5053">
        <ele>1567</ele>
        <time>2020-02-01T09:37:22.000Z</time>
      </trkpt>
      <trkpt lat="42.84683" lon="0.50529">
        <ele>1567</ele>
        <time>2020-02-01T09:37:23.000Z</time>
      </trkpt>
      <trkpt lat="42.84683" lon="0.50529">
        <ele>1567</ele>
        <time>2020-02-01T09:37:24.000Z</time>
      </trkpt>
      <trkpt lat="42.84682" lon="0.50528">
        <ele>1567</ele>
        <time>2020-02-01T09:37:25.000Z</time>
      </trkpt>
      <trkpt lat="42.84682" lon="0.50527">
        <ele>1567</ele>
        <time>2020-02-01T09:37:26.000Z</time>
      </trkpt>
      <trkpt lat="42.84682" lon="0.50527">
        <ele>1567.3</ele>
        <time>2020-02-01T09:37:27.000Z</time>
      </trkpt>
      <trkpt lat="42.84682" lon="0.50526">
        <ele>1567.7</ele>
        <time>2020-02-01T09:37:28.000Z</time>
      </trkpt>
      <trkpt lat="42.84682" lon="0.50526">
        <ele>1568</ele>
        <time>2020-02-01T09:37:29.000Z</time>
      </trkpt>
      <trkpt lat="42.84682" lon="0.50525">
        <ele>1568</ele>
        <time>2020-02-01T09:37:30.000Z</time>
      </trkpt>
      <trkpt lat="42.84682" lon="0.50525">
        <ele>1568</ele>
        <time>2020-02-01T09:37:31.000Z</time>
      </trkpt>
      <trkpt lat="42.84682" lon="0.50524">
        <ele>1568</ele>
        <time>2020-02-01T09:37:32.000Z</time>
      </trkpt>
      <trkpt lat="42.84682" lon="0.50524">
        <ele>1568</ele>
        <time>2020-02-01T09:37:33.000Z</time>
      </trkpt>
      <trkpt lat="42.84682" lon="0.50523">
        <ele>1568.5</ele>
        <time>2020-02-01T09:37:34.000Z</time>
      </trkpt>
      <trkpt lat="42.84682" lon="0.50523">
        <ele>1569</ele>
        <time>2020-02-01T09:37:35.000Z</time>
      </trkpt>
      <trkpt lat="42.84682" lon="0.50522">
        <ele>1569</ele>
        <time>2020-02-01T09:37:36.000Z</time>
      </trkpt>
      <trkpt lat="42.84681" lon="0.50522">
        <ele>1569</ele>
        <time>2020-02-01T09:37:37.000Z</time>
      </trkpt>
      <trkpt lat="42.84681" lon="0.50521">
        <ele>1569</ele>
        <time>2020-02-01T09:37:38.000Z</time>
      </trkpt>
      <trkpt lat="42.84681" lon="0.50521">
        <ele>1569</ele>
        <time>2020-02-01T09:37:39.000Z</time>
      </trkpt>
      <trkpt lat="42.84681" lon="0.5052">
        <ele>1569</ele>
        <time>2020-02-01T09:37:40.000Z</time>
      </trkpt>
      <trkpt lat="42.84681" lon="0.50519">
        <ele>1569</ele>
        <time>2020-02-01T09:37:41.000Z</time>
      </trkpt>
      <trkpt lat="42.84681" lon="0.50519">
        <ele>1570</ele>
        <time>2020-02-01T09:37:42.000Z</time>
      </trkpt>
      <trkpt lat="42.84681" lon="0.50518">
        <ele>1570</ele>
        <time>2020-02-01T09:37:43.000Z</time>
      </trkpt>
      <trkpt lat="42.84681" lon="0.50517">
        <ele>1570</ele>
        <time>2020-02-01T09:37:44.000Z</time>
      </trkpt>
      <trkpt lat="42.84681" lon="0.50516">
        <ele>1570</ele>
        <time>2020-02-01T09:37:45.000Z</time>
      </trkpt>
      <trkpt lat="42.84681" lon="0.50515">
        <ele>1570</ele>
        <time>2020-02-01T09:37:46.000Z</time>
      </trkpt>
      <trkpt lat="42.84681" lon="0.50514">
        <ele>1570.3</ele>
        <time>2020-02-01T09:37:47.000Z</time>
      </trkpt>
      <trkpt lat="42.84681" lon="0.50513">
        <ele>1570.7</ele>
        <time>2020-02-01T09:37:48.000Z</time>
      </trkpt>
      <trkpt lat="42.8468" lon="0.50512">
        <ele>1571</ele>
        <time>2020-02-01T09:37:49.000Z</time>
      </trkpt>
      <trkpt lat="42.84679" lon="0.50512">
        <ele>1571</ele>
        <time>2020-02-01T09:37:50.000Z</time>
      </trkpt>
      <trkpt lat="42.84678" lon="0.50511">
        <ele>1571</ele>
        <time>2020-02-01T09:37:51.000Z</time>
      </trkpt>
      <trkpt lat="42.84677" lon="0.5051">
        <ele>1571</ele>
        <time>2020-02-01T09:37:52.000Z</time>
      </trkpt>
      <trkpt lat="42.84675" lon="0.50509">
        <ele>1571</ele>
        <time>2020-02-01T09:37:53.000Z</time>
      </trkpt>
      <trkpt lat="42.84674" lon="0.50508">
        <ele>1571</ele>
        <time>2020-02-01T09:37:54.000Z</time>
      </trkpt>
      <trkpt lat="42.84673" lon="0.50507">
        <ele>1571</ele>
        <time>2020-02-01T09:37:55.000Z</time>
      </trkpt>
      <trkpt lat="42.84672" lon="0.50507">
        <ele>1571.3</ele>
        <time>2020-02-01T09:37:56.000Z</time>
      </trkpt>
      <trkpt lat="42.84671" lon="0.50506">
        <ele>1571.7</ele>
        <time>2020-02-01T09:37:57.000Z</time>
      </trkpt>
      <trkpt lat="42.8467" lon="0.50505">
        <ele>1572</ele>
        <time>2020-02-01T09:37:58.000Z</time>
      </trkpt>
      <trkpt lat="42.84669" lon="0.50505">
        <ele>1572</ele>
        <time>2020-02-01T09:37:59.000Z</time>
      </trkpt>
      <trkpt lat="42.84668" lon="0.50504">
        <ele>1572</ele>
        <time>2020-02-01T09:38:00.000Z</time>
      </trkpt>
      <trkpt lat="42.84667" lon="0.50504">
        <ele>1572</ele>
        <time>2020-02-01T09:38:01.000Z</time>
      </trkpt>
      <trkpt lat="42.84666" lon="0.50504">
        <ele>1572</ele>
        <time>2020-02-01T09:38:02.000Z</time>
      </trkpt>
      <trkpt lat="42.84665" lon="0.50503">
        <ele>1572.5</ele>
        <time>2020-02-01T09:38:03.000Z</time>
      </trkpt>
      <trkpt lat="42.84664" lon="0.50503">
        <ele>1573</ele>
        <time>2020-02-01T09:38:04.000Z</time>
      </trkpt>
      <trkpt lat="42.84663" lon="0.50503">
        <ele>1573</ele>
        <time>2020-02-01T09:38:05.000Z</time>
      </trkpt>
      <trkpt lat="42.84662" lon="0.50503">
        <ele>1573</ele>
        <time>2020-02-01T09:38:06.000Z</time>
      </trkpt>
      <trkpt lat="42.84661" lon="0.50502">
        <ele>1573</ele>
        <time>2020-02-01T09:38:07.000Z</time>
      </trkpt>
      <trkpt lat="42.8466" lon="0.50502">
        <ele>1573</ele>
        <time>2020-02-01T09:38:08.000Z</time>
      </trkpt>
      <trkpt lat="42.84659" lon="0.50502">
        <ele>1573.5</ele>
        <time>2020-02-01T09:38:09.000Z</time>
      </trkpt>
      <trkpt lat="42.84659" lon="0.50502">
        <ele>1574</ele>
        <time>2020-02-01T09:38:10.000Z</time>
      </trkpt>
      <trkpt lat="42.84658" lon="0.50502">
        <ele>1574</ele>
        <time>2020-02-01T09:38:11.000Z</time>
      </trkpt>
      <trkpt lat="42.84657" lon="0.50501">
        <ele>1574</ele>
        <time>2020-02-01T09:38:12.000Z</time>
      </trkpt>
      <trkpt lat="42.84656" lon="0.50501">
        <ele>1574</ele>
        <time>2020-02-01T09:38:13.000Z</time>
      </trkpt>
      <trkpt lat="42.84655" lon="0.505">
        <ele>1574</ele>
        <time>2020-02-01T09:38:14.000Z</time>
      </trkpt>
      <trkpt lat="42.84655" lon="0.505">
        <ele>1574</ele>
        <time>2020-02-01T09:38:15.000Z</time>
      </trkpt>
      <trkpt lat="42.84654" lon="0.50499">
        <ele>1574</ele>
        <time>2020-02-01T09:38:16.000Z</time>
      </trkpt>
      <trkpt lat="42.84653" lon="0.50499">
        <ele>1574</ele>
        <time>2020-02-01T09:38:17.000Z</time>
      </trkpt>
      <trkpt lat="42.84653" lon="0.50498">
        <ele>1574</ele>
        <time>2020-02-01T09:38:18.000Z</time>
      </trkpt>
      <trkpt lat="42.84653" lon="0.50497">
        <ele>1574</ele>
        <time>2020-02-01T09:38:19.000Z</time>
      </trkpt>
      <trkpt lat="42.84653" lon="0.50497">
        <ele>1574</ele>
        <time>2020-02-01T09:38:20.000Z</time>
      </trkpt>
      <trkpt lat="42.84653" lon="0.50496">
        <ele>1574</ele>
        <time>2020-02-01T09:38:21.000Z</time>
      </trkpt>
      <trkpt lat="42.84653" lon="0.50495">
        <ele>1574</ele>
        <time>2020-02-01T09:38:22.000Z</time>
      </trkpt>
      <trkpt lat="42.84653" lon="0.50494">
        <ele>1574</ele>
        <time>2020-02-01T09:38:23.000Z</time>
      </trkpt>
      <trkpt lat="42.84653" lon="0.50493">
        <ele>1574</ele>
        <time>2020-02-01T09:38:24.000Z</time>
      </trkpt>
      <trkpt lat="42.84653" lon="0.50493">
        <ele>1574</ele>
        <time>2020-02-01T09:38:25.000Z</time>
      </trkpt>
      <trkpt lat="42.84654" lon="0.50492">
        <ele>1574</ele>
        <time>2020-02-01T09:38:26.000Z</time>
      </trkpt>
      <trkpt lat="42.84654" lon="0.50491">
        <ele>1574</ele>
        <time>2020-02-01T09:38:27.000Z</time>
      </trkpt>
      <trkpt lat="42.84653" lon="0.5049">
        <ele>1574</ele>
        <time>2020-02-01T09:38:28.000Z</time>
      </trkpt>
      <trkpt lat="42.84653" lon="0.50489">
        <ele>1574</ele>
        <time>2020-02-01T09:38:29.000Z</time>
      </trkpt>
      <trkpt lat="42.84652" lon="0.50489">
        <ele>1574</ele>
        <time>2020-02-01T09:38:30.000Z</time>
      </trkpt>
      <trkpt lat="42.84651" lon="0.50488">
        <ele>1575</ele>
        <time>2020-02-01T09:38:31.000Z</time>
      </trkpt>
      <trkpt lat="42.84649" lon="0.50488">
        <ele>1575</ele>
        <time>2020-02-01T09:38:32.000Z</time>
      </trkpt>
      <trkpt lat="42.84648" lon="0.50487">
        <ele>1575</ele>
        <time>2020-02-01T09:38:33.000Z</time>
      </trkpt>
      <trkpt lat="42.84646" lon="0.50487">
        <ele>1575</ele>
        <time>2020-02-01T09:38:34.000Z</time>
      </trkpt>
      <trkpt lat="42.84645" lon="0.50487">
        <ele>1576</ele>
        <time>2020-02-01T09:38:35.000Z</time>
      </trkpt>
      <trkpt lat="42.84644" lon="0.50487">
        <ele>1576</ele>
        <time>2020-02-01T09:38:36.000Z</time>
      </trkpt>
      <trkpt lat="42.84643" lon="0.50487">
        <ele>1576</ele>
        <time>2020-02-01T09:38:37.000Z</time>
      </trkpt>
      <trkpt lat="42.84642" lon="0.50488">
        <ele>1576</ele>
        <time>2020-02-01T09:38:38.000Z</time>
      </trkpt>
      <trkpt lat="42.84642" lon="0.50488">
        <ele>1576</ele>
        <time>2020-02-01T09:38:39.000Z</time>
      </trkpt>
      <trkpt lat="42.84642" lon="0.50488">
        <ele>1576</ele>
        <time>2020-02-01T09:38:40.000Z</time>
      </trkpt>
      <trkpt lat="42.84641" lon="0.50488">
        <ele>1576</ele>
        <time>2020-02-01T09:38:41.000Z</time>
      </trkpt>
      <trkpt lat="42.84641" lon="0.50489">
        <ele>1576</ele>
        <time>2020-02-01T09:38:42.000Z</time>
      </trkpt>
      <trkpt lat="42.84641" lon="0.50489">
        <ele>1576</ele>
        <time>2020-02-01T09:38:43.000Z</time>
      </trkpt>
      <trkpt lat="42.84641" lon="0.50489">
        <ele>1576</ele>
        <time>2020-02-01T09:38:44.000Z</time>
      </trkpt>
      <trkpt lat="42.8464" lon="0.50489">
        <ele>1576</ele>
        <time>2020-02-01T09:38:45.000Z</time>
      </trkpt>
      <trkpt lat="42.8464" lon="0.50489">
        <ele>1576</ele>
        <time>2020-02-01T09:38:46.000Z</time>
      </trkpt>
      <trkpt lat="42.8464" lon="0.50489">
        <ele>1575.5</ele>
        <time>2020-02-01T09:38:47.000Z</time>
      </trkpt>
      <trkpt lat="42.84639" lon="0.50489">
        <ele>1575</ele>
        <time>2020-02-01T09:38:48.000Z</time>
      </trkpt>
      <trkpt lat="42.84639" lon="0.5049">
        <ele>1575</ele>
        <time>2020-02-01T09:38:49.000Z</time>
      </trkpt>
      <trkpt lat="42.84638" lon="0.5049">
        <ele>1575</ele>
        <time>2020-02-01T09:38:50.000Z</time>
      </trkpt>
      <trkpt lat="42.84638" lon="0.50491">
        <ele>1575</ele>
        <time>2020-02-01T09:38:51.000Z</time>
      </trkpt>
      <trkpt lat="42.84637" lon="0.50492">
        <ele>1575</ele>
        <time>2020-02-01T09:38:52.000Z</time>
      </trkpt>
      <trkpt lat="42.84637" lon="0.50492">
        <ele>1575</ele>
        <time>2020-02-01T09:38:53.000Z</time>
      </trkpt>
      <trkpt lat="42.84636" lon="0.50493">
        <ele>1575</ele>
        <time>2020-02-01T09:38:54.000Z</time>
      </trkpt>
      <trkpt lat="42.84636" lon="0.50493">
        <ele>1575</ele>
        <time>2020-02-01T09:38:55.000Z</time>
      </trkpt>
      <trkpt lat="42.84637" lon="0.50493">
        <ele>1575</ele>
        <time>2020-02-01T09:38:56.000Z</time>
      </trkpt>
      <trkpt lat="42.84637" lon="0.50493">
        <ele>1575.3</ele>
        <time>2020-02-01T09:38:57.000Z</time>
      </trkpt>
      <trkpt lat="42.84637" lon="0.50492">
        <ele>1575.7</ele>
        <time>2020-02-01T09:38:58.000Z</time>
      </trkpt>
      <trkpt lat="42.84638" lon="0.50492">
        <ele>1576</ele>
        <time>2020-02-01T09:38:59.000Z</time>
      </trkpt>
      <trkpt lat="42.84638" lon="0.50492">
        <ele>1576</ele>
        <time>2020-02-01T09:39:00.000Z</time>
      </trkpt>
      <trkpt lat="42.84638" lon="0.50491">
        <ele>1576</ele>
        <time>2020-02-01T09:39:01.000Z</time>
      </trkpt>
      <trkpt lat="42.84638" lon="0.50491">
        <ele>1576</ele>
        <time>2020-02-01T09:39:02.000Z</time>
      </trkpt>
      <trkpt lat="42.84639" lon="0.50491">
        <ele>1576</ele>
        <time>2020-02-01T09:39:03.000Z</time>
      </trkpt>
      <trkpt lat="42.84639" lon="0.5049">
        <ele>1576</ele>
        <time>2020-02-01T09:39:04.000Z</time>
      </trkpt>
      <trkpt lat="42.84639" lon="0.5049">
        <ele>1576</ele>
        <time>2020-02-01T09:39:05.000Z</time>
      </trkpt>
      <trkpt lat="42.84639" lon="0.5049">
        <ele>1576</ele>
        <time>2020-02-01T09:39:06.000Z</time>
      </trkpt>
      <trkpt lat="42.84639" lon="0.5049">
        <ele>1576</ele>
        <time>2020-02-01T09:39:07.000Z</time>
      </trkpt>
      <trkpt lat="42.84639" lon="0.5049">
        <ele>1576</ele>
        <time>2020-02-01T09:39:08.000Z</time>
      </trkpt>
      <trkpt lat="42.84639" lon="0.50489">
        <ele>1576</ele>
        <time>2020-02-01T09:39:09.000Z</time>
      </trkpt>
      <trkpt lat="42.84639" lon="0.50489">
        <ele>1576</ele>
        <time>2020-02-01T09:39:10.000Z</time>
      </trkpt>
      <trkpt lat="42.84639" lon="0.50489">
        <ele>1576</ele>
        <time>2020-02-01T09:39:11.000Z</time>
      </trkpt>
      <trkpt lat="42.84639" lon="0.50489">
        <ele>1576</ele>
        <time>2020-02-01T09:39:12.000Z</time>
      </trkpt>
      <trkpt lat="42.84639" lon="0.50489">
        <ele>1575.7</ele>
        <time>2020-02-01T09:39:13.000Z</time>
      </trkpt>
      <trkpt lat="42.84639" lon="0.50489">
        <ele>1575.3</ele>
        <time>2020-02-01T09:39:14.000Z</time>
      </trkpt>
      <trkpt lat="42.84639" lon="0.50489">
        <ele>1575</ele>
        <time>2020-02-01T09:39:15.000Z</time>
      </trkpt>
      <trkpt lat="42.84639" lon="0.50489">
        <ele>1575.5</ele>
        <time>2020-02-01T09:39:16.000Z</time>
      </trkpt>
      <trkpt lat="42.84639" lon="0.50489">
        <ele>1576</ele>
        <time>2020-02-01T09:39:17.000Z</time>
      </trkpt>
      <trkpt lat="42.84639" lon="0.50489">
        <ele>1576</ele>
        <time>2020-02-01T09:39:18.000Z</time>
      </trkpt>
      <trkpt lat="42.84639" lon="0.50489">
        <ele>1575.7</ele>
        <time>2020-02-01T09:39:19.000Z</time>
      </trkpt>
      <trkpt lat="42.84639" lon="0.50489">
        <ele>1575.3</ele>
        <time>2020-02-01T09:39:20.000Z</time>
      </trkpt>
      <trkpt lat="42.84639" lon="0.50489">
        <ele>1575</ele>
        <time>2020-02-01T09:39:21.000Z</time>
      </trkpt>
      <trkpt lat="42.84639" lon="0.50489">
        <ele>1576</ele>
        <time>2020-02-01T09:39:22.000Z</time>
      </trkpt>
      <trkpt lat="42.84639" lon="0.50489">
        <ele>1576</ele>
        <time>2020-02-01T09:39:23.000Z</time>
      </trkpt>
      <trkpt lat="42.84639" lon="0.50489">
        <ele>1576</ele>
        <time>2020-02-01T09:39:24.000Z</time>
      </trkpt>
      <trkpt lat="42.8464" lon="0.50489">
        <ele>1576</ele>
        <time>2020-02-01T09:39:25.000Z</time>
      </trkpt>
      <trkpt lat="42.8464" lon="0.50488">
        <ele>1576</ele>
        <time>2020-02-01T09:39:26.000Z</time>
      </trkpt>
      <trkpt lat="42.8464" lon="0.50488">
        <ele>1576</ele>
        <time>2020-02-01T09:39:27.000Z</time>
      </trkpt>
      <trkpt lat="42.84641" lon="0.50488">
        <ele>1576</ele>
        <time>2020-02-01T09:39:28.000Z</time>
      </trkpt>
      <trkpt lat="42.84641" lon="0.50487">
        <ele>1576</ele>
        <time>2020-02-01T09:39:29.000Z</time>
      </trkpt>
      <trkpt lat="42.84641" lon="0.50487">
        <ele>1576</ele>
        <time>2020-02-01T09:39:30.000Z</time>
      </trkpt>
      <trkpt lat="42.84641" lon="0.50486">
        <ele>1576</ele>
        <time>2020-02-01T09:39:31.000Z</time>
      </trkpt>
      <trkpt lat="42.8464" lon="0.50486">
        <ele>1576</ele>
        <time>2020-02-01T09:39:32.000Z</time>
      </trkpt>
      <trkpt lat="42.84639" lon="0.50486">
        <ele>1576</ele>
        <time>2020-02-01T09:39:33.000Z</time>
      </trkpt>
      <trkpt lat="42.84637" lon="0.50486">
        <ele>1576</ele>
        <time>2020-02-01T09:39:34.000Z</time>
      </trkpt>
      <trkpt lat="42.84635" lon="0.50487">
        <ele>1576</ele>
        <time>2020-02-01T09:39:35.000Z</time>
      </trkpt>
      <trkpt lat="42.84634" lon="0.50487">
        <ele>1576</ele>
        <time>2020-02-01T09:39:36.000Z</time>
      </trkpt>
      <trkpt lat="42.84632" lon="0.50488">
        <ele>1576</ele>
        <time>2020-02-01T09:39:37.000Z</time>
      </trkpt>
      <trkpt lat="42.84631" lon="0.50489">
        <ele>1576</ele>
        <time>2020-02-01T09:39:38.000Z</time>
      </trkpt>
      <trkpt lat="42.84631" lon="0.5049">
        <ele>1576</ele>
        <time>2020-02-01T09:39:39.000Z</time>
      </trkpt>
      <trkpt lat="42.84631" lon="0.5049">
        <ele>1576</ele>
        <time>2020-02-01T09:39:40.000Z</time>
      </trkpt>
      <trkpt lat="42.84631" lon="0.5049">
        <ele>1576</ele>
        <time>2020-02-01T09:39:41.000Z</time>
      </trkpt>
      <trkpt lat="42.84631" lon="0.5049">
        <ele>1576</ele>
        <time>2020-02-01T09:39:42.000Z</time>
      </trkpt>
      <trkpt lat="42.84632" lon="0.50489">
        <ele>1576</ele>
        <time>2020-02-01T09:39:43.000Z</time>
      </trkpt>
      <trkpt lat="42.84632" lon="0.50488">
        <ele>1576</ele>
        <time>2020-02-01T09:39:44.000Z</time>
      </trkpt>
      <trkpt lat="42.84633" lon="0.50487">
        <ele>1576</ele>
        <time>2020-02-01T09:39:45.000Z</time>
      </trkpt>
      <trkpt lat="42.84634" lon="0.50485">
        <ele>1576</ele>
        <time>2020-02-01T09:39:46.000Z</time>
      </trkpt>
      <trkpt lat="42.84635" lon="0.50484">
        <ele>1576.5</ele>
        <time>2020-02-01T09:39:47.000Z</time>
      </trkpt>
      <trkpt lat="42.84635" lon="0.50483">
        <ele>1577</ele>
        <time>2020-02-01T09:39:48.000Z</time>
      </trkpt>
      <trkpt lat="42.84636" lon="0.50483">
        <ele>1577</ele>
        <time>2020-02-01T09:39:49.000Z</time>
      </trkpt>
      <trkpt lat="42.84637" lon="0.50482">
        <ele>1577</ele>
        <time>2020-02-01T09:39:50.000Z</time>
      </trkpt>
      <trkpt lat="42.84637" lon="0.50481">
        <ele>1577</ele>
        <time>2020-02-01T09:39:51.000Z</time>
      </trkpt>
      <trkpt lat="42.84637" lon="0.50481">
        <ele>1577</ele>
        <time>2020-02-01T09:39:52.000Z</time>
      </trkpt>
      <trkpt lat="42.84638" lon="0.5048">
        <ele>1577</ele>
        <time>2020-02-01T09:39:53.000Z</time>
      </trkpt>
      <trkpt lat="42.84638" lon="0.5048">
        <ele>1577</ele>
        <time>2020-02-01T09:39:54.000Z</time>
      </trkpt>
      <trkpt lat="42.84638" lon="0.50479">
        <ele>1576.5</ele>
        <time>2020-02-01T09:39:55.000Z</time>
      </trkpt>
      <trkpt lat="42.84638" lon="0.50479">
        <ele>1576</ele>
        <time>2020-02-01T09:39:56.000Z</time>
      </trkpt>
      <trkpt lat="42.84638" lon="0.50478">
        <ele>1576</ele>
        <time>2020-02-01T09:39:57.000Z</time>
      </trkpt>
      <trkpt lat="42.84638" lon="0.50478">
        <ele>1576</ele>
        <time>2020-02-01T09:39:58.000Z</time>
      </trkpt>
      <trkpt lat="42.84638" lon="0.50477">
        <ele>1576</ele>
        <time>2020-02-01T09:39:59.000Z</time>
      </trkpt>
      <trkpt lat="42.84638" lon="0.50477">
        <ele>1576</ele>
        <time>2020-02-01T09:40:00.000Z</time>
      </trkpt>
      <trkpt lat="42.84638" lon="0.50476">
        <ele>1576</ele>
        <time>2020-02-01T09:40:01.000Z</time>
      </trkpt>
      <trkpt lat="42.84637" lon="0.50475">
        <ele>1576</ele>
        <time>2020-02-01T09:40:02.000Z</time>
      </trkpt>
      <trkpt lat="42.84637" lon="0.50475">
        <ele>1576</ele>
        <time>2020-02-01T09:40:03.000Z</time>
      </trkpt>
      <trkpt lat="42.84637" lon="0.50475">
        <ele>1576</ele>
        <time>2020-02-01T09:40:04.000Z</time>
      </trkpt>
      <trkpt lat="42.84637" lon="0.50474">
        <ele>1576</ele>
        <time>2020-02-01T09:40:05.000Z</time>
      </trkpt>
      <trkpt lat="42.84637" lon="0.50474">
        <ele>1576</ele>
        <time>2020-02-01T09:40:06.000Z</time>
      </trkpt>
      <trkpt lat="42.84636" lon="0.50474">
        <ele>1576</ele>
        <time>2020-02-01T09:40:07.000Z</time>
      </trkpt>
      <trkpt lat="42.84636" lon="0.50474">
        <ele>1576</ele>
        <time>2020-02-01T09:40:08.000Z</time>
      </trkpt>
      <trkpt lat="42.84636" lon="0.50473">
        <ele>1575.5</ele>
        <time>2020-02-01T09:40:09.000Z</time>
      </trkpt>
      <trkpt lat="42.84636" lon="0.50473">
        <ele>1575</ele>
        <time>2020-02-01T09:40:10.000Z</time>
      </trkpt>
      <trkpt lat="42.84636" lon="0.50473">
        <ele>1575</ele>
        <time>2020-02-01T09:40:11.000Z</time>
      </trkpt>
      <trkpt lat="42.84636" lon="0.50473">
        <ele>1575</ele>
        <time>2020-02-01T09:40:12.000Z</time>
      </trkpt>
      <trkpt lat="42.84636" lon="0.50473">
        <ele>1575</ele>
        <time>2020-02-01T09:40:13.000Z</time>
      </trkpt>
      <trkpt lat="42.84636" lon="0.50473">
        <ele>1575</ele>
        <time>2020-02-01T09:40:14.000Z</time>
      </trkpt>
      <trkpt lat="42.84636" lon="0.50473">
        <ele>1575</ele>
        <time>2020-02-01T09:40:15.000Z</time>
      </trkpt>
      <trkpt lat="42.84636" lon="0.50473">
        <ele>1575</ele>
        <time>2020-02-01T09:40:16.000Z</time>
      </trkpt>
      <trkpt lat="42.84636" lon="0.50473">
        <ele>1575</ele>
        <time>2020-02-01T09:40:17.000Z</time>
      </trkpt>
      <trkpt lat="42.84636" lon="0.50473">
        <ele>1575</ele>
        <time>2020-02-01T09:40:18.000Z</time>
      </trkpt>
      <trkpt lat="42.84636" lon="0.50473">
        <ele>1575</ele>
        <time>2020-02-01T09:40:19.000Z</time>
      </trkpt>
      <trkpt lat="42.84636" lon="0.50473">
        <ele>1575</ele>
        <time>2020-02-01T09:40:20.000Z</time>
      </trkpt>
      <trkpt lat="42.84636" lon="0.50473">
        <ele>1575</ele>
        <time>2020-02-01T09:40:21.000Z</time>
      </trkpt>
      <trkpt lat="42.84636" lon="0.50473">
        <ele>1575</ele>
        <time>2020-02-01T09:40:22.000Z</time>
      </trkpt>
      <trkpt lat="42.84636" lon="0.50472">
        <ele>1575</ele>
        <time>2020-02-01T09:40:23.000Z</time>
      </trkpt>
      <trkpt lat="42.84636" lon="0.50472">
        <ele>1575</ele>
        <time>2020-02-01T09:40:24.000Z</time>
      </trkpt>
      <trkpt lat="42.84635" lon="0.50471">
        <ele>1575</ele>
        <time>2020-02-01T09:40:25.000Z</time>
      </trkpt>
      <trkpt lat="42.84635" lon="0.50471">
        <ele>1575</ele>
        <time>2020-02-01T09:40:26.000Z</time>
      </trkpt>
      <trkpt lat="42.84635" lon="0.5047">
        <ele>1575</ele>
        <time>2020-02-01T09:40:27.000Z</time>
      </trkpt>
      <trkpt lat="42.84635" lon="0.5047">
        <ele>1575</ele>
        <time>2020-02-01T09:40:28.000Z</time>
      </trkpt>
      <trkpt lat="42.84635" lon="0.50469">
        <ele>1575</ele>
        <time>2020-02-01T09:40:29.000Z</time>
      </trkpt>
      <trkpt lat="42.84635" lon="0.50469">
        <ele>1575</ele>
        <time>2020-02-01T09:40:30.000Z</time>
      </trkpt>
      <trkpt lat="42.84635" lon="0.50469">
        <ele>1575</ele>
        <time>2020-02-01T09:40:31.000Z</time>
      </trkpt>
      <trkpt lat="42.84635" lon="0.50468">
        <ele>1575</ele>
        <time>2020-02-01T09:40:32.000Z</time>
      </trkpt>
      <trkpt lat="42.84635" lon="0.50468">
        <ele>1575</ele>
        <time>2020-02-01T09:40:33.000Z</time>
      </trkpt>
      <trkpt lat="42.84635" lon="0.50468">
        <ele>1575</ele>
        <time>2020-02-01T09:40:34.000Z</time>
      </trkpt>
      <trkpt lat="42.84635" lon="0.50467">
        <ele>1575</ele>
        <time>2020-02-01T09:40:35.000Z</time>
      </trkpt>
      <trkpt lat="42.84634" lon="0.50466">
        <ele>1575</ele>
        <time>2020-02-01T09:40:36.000Z</time>
      </trkpt>
      <trkpt lat="42.84634" lon="0.50465">
        <ele>1575</ele>
        <time>2020-02-01T09:40:37.000Z</time>
      </trkpt>
      <trkpt lat="42.84634" lon="0.50464">
        <ele>1575</ele>
        <time>2020-02-01T09:40:38.000Z</time>
      </trkpt>
      <trkpt lat="42.84634" lon="0.50463">
        <ele>1575</ele>
        <time>2020-02-01T09:40:39.000Z</time>
      </trkpt>
      <trkpt lat="42.84634" lon="0.50463">
        <ele>1575</ele>
        <time>2020-02-01T09:40:40.000Z</time>
      </trkpt>
      <trkpt lat="42.84634" lon="0.50462">
        <ele>1575</ele>
        <time>2020-02-01T09:40:41.000Z</time>
      </trkpt>
      <trkpt lat="42.84634" lon="0.50461">
        <ele>1575</ele>
        <time>2020-02-01T09:40:42.000Z</time>
      </trkpt>
      <trkpt lat="42.84633" lon="0.5046">
        <ele>1575.5</ele>
        <time>2020-02-01T09:40:43.000Z</time>
      </trkpt>
      <trkpt lat="42.84633" lon="0.50459">
        <ele>1576</ele>
        <time>2020-02-01T09:40:44.000Z</time>
      </trkpt>
      <trkpt lat="42.84632" lon="0.50458">
        <ele>1576</ele>
        <time>2020-02-01T09:40:45.000Z</time>
      </trkpt>
      <trkpt lat="42.84631" lon="0.50458">
        <ele>1576</ele>
        <time>2020-02-01T09:40:46.000Z</time>
      </trkpt>
      <trkpt lat="42.8463" lon="0.50457">
        <ele>1576</ele>
        <time>2020-02-01T09:40:47.000Z</time>
      </trkpt>
      <trkpt lat="42.84629" lon="0.50456">
        <ele>1576</ele>
        <time>2020-02-01T09:40:48.000Z</time>
      </trkpt>
      <trkpt lat="42.84628" lon="0.50455">
        <ele>1576</ele>
        <time>2020-02-01T09:40:49.000Z</time>
      </trkpt>
      <trkpt lat="42.84627" lon="0.50454">
        <ele>1576</ele>
        <time>2020-02-01T09:40:50.000Z</time>
      </trkpt>
      <trkpt lat="42.84626" lon="0.50453">
        <ele>1576</ele>
        <time>2020-02-01T09:40:51.000Z</time>
      </trkpt>
      <trkpt lat="42.84625" lon="0.50452">
        <ele>1576</ele>
        <time>2020-02-01T09:40:52.000Z</time>
      </trkpt>
      <trkpt lat="42.84624" lon="0.50451">
        <ele>1576</ele>
        <time>2020-02-01T09:40:53.000Z</time>
      </trkpt>
      <trkpt lat="42.84623" lon="0.5045">
        <ele>1576</ele>
        <time>2020-02-01T09:40:54.000Z</time>
      </trkpt>
      <trkpt lat="42.84622" lon="0.50449">
        <ele>1576</ele>
        <time>2020-02-01T09:40:55.000Z</time>
      </trkpt>
      <trkpt lat="42.84622" lon="0.50448">
        <ele>1576</ele>
        <time>2020-02-01T09:40:56.000Z</time>
      </trkpt>
      <trkpt lat="42.84621" lon="0.50447">
        <ele>1577</ele>
        <time>2020-02-01T09:40:57.000Z</time>
      </trkpt>
      <trkpt lat="42.84621" lon="0.50446">
        <ele>1577</ele>
        <time>2020-02-01T09:40:58.000Z</time>
      </trkpt>
      <trkpt lat="42.8462" lon="0.50445">
        <ele>1577</ele>
        <time>2020-02-01T09:40:59.000Z</time>
      </trkpt>
      <trkpt lat="42.8462" lon="0.50444">
        <ele>1577</ele>
        <time>2020-02-01T09:41:00.000Z</time>
      </trkpt>
      <trkpt lat="42.8462" lon="0.50443">
        <ele>1577</ele>
        <time>2020-02-01T09:41:01.000Z</time>
      </trkpt>
      <trkpt lat="42.8462" lon="0.50442">
        <ele>1577</ele>
        <time>2020-02-01T09:41:02.000Z</time>
      </trkpt>
      <trkpt lat="42.84619" lon="0.50441">
        <ele>1577</ele>
        <time>2020-02-01T09:41:03.000Z</time>
      </trkpt>
      <trkpt lat="42.84619" lon="0.5044">
        <ele>1577</ele>
        <time>2020-02-01T09:41:04.000Z</time>
      </trkpt>
      <trkpt lat="42.84619" lon="0.50439">
        <ele>1577.5</ele>
        <time>2020-02-01T09:41:05.000Z</time>
      </trkpt>
      <trkpt lat="42.84619" lon="0.50438">
        <ele>1578</ele>
        <time>2020-02-01T09:41:06.000Z</time>
      </trkpt>
      <trkpt lat="42.84619" lon="0.50437">
        <ele>1578</ele>
        <time>2020-02-01T09:41:07.000Z</time>
      </trkpt>
      <trkpt lat="42.84619" lon="0.50436">
        <ele>1578</ele>
        <time>2020-02-01T09:41:08.000Z</time>
      </trkpt>
      <trkpt lat="42.84619" lon="0.50435">
        <ele>1578</ele>
        <time>2020-02-01T09:41:09.000Z</time>
      </trkpt>
      <trkpt lat="42.84619" lon="0.50434">
        <ele>1578</ele>
        <time>2020-02-01T09:41:10.000Z</time>
      </trkpt>
      <trkpt lat="42.84619" lon="0.50433">
        <ele>1578</ele>
        <time>2020-02-01T09:41:11.000Z</time>
      </trkpt>
      <trkpt lat="42.84619" lon="0.50432">
        <ele>1578</ele>
        <time>2020-02-01T09:41:12.000Z</time>
      </trkpt>
      <trkpt lat="42.84619" lon="0.50431">
        <ele>1578</ele>
        <time>2020-02-01T09:41:13.000Z</time>
      </trkpt>
      <trkpt lat="42.84619" lon="0.5043">
        <ele>1578</ele>
        <time>2020-02-01T09:41:14.000Z</time>
      </trkpt>
      <trkpt lat="42.84619" lon="0.50429">
        <ele>1578</ele>
        <time>2020-02-01T09:41:15.000Z</time>
      </trkpt>
      <trkpt lat="42.84619" lon="0.50429">
        <ele>1578</ele>
        <time>2020-02-01T09:41:16.000Z</time>
      </trkpt>
      <trkpt lat="42.84619" lon="0.50428">
        <ele>1578</ele>
        <time>2020-02-01T09:41:17.000Z</time>
      </trkpt>
      <trkpt lat="42.84619" lon="0.50428">
        <ele>1578</ele>
        <time>2020-02-01T09:41:18.000Z</time>
      </trkpt>
      <trkpt lat="42.8462" lon="0.50427">
        <ele>1578</ele>
        <time>2020-02-01T09:41:19.000Z</time>
      </trkpt>
      <trkpt lat="42.8462" lon="0.50427">
        <ele>1578</ele>
        <time>2020-02-01T09:41:20.000Z</time>
      </trkpt>
      <trkpt lat="42.84621" lon="0.50426">
        <ele>1578</ele>
        <time>2020-02-01T09:41:21.000Z</time>
      </trkpt>
      <trkpt lat="42.84621" lon="0.50425">
        <ele>1578</ele>
        <time>2020-02-01T09:41:22.000Z</time>
      </trkpt>
      <trkpt lat="42.84621" lon="0.50424">
        <ele>1578</ele>
        <time>2020-02-01T09:41:23.000Z</time>
      </trkpt>
      <trkpt lat="42.84621" lon="0.50423">
        <ele>1578</ele>
        <time>2020-02-01T09:41:24.000Z</time>
      </trkpt>
      <trkpt lat="42.84621" lon="0.50422">
        <ele>1578.5</ele>
        <time>2020-02-01T09:41:25.000Z</time>
      </trkpt>
      <trkpt lat="42.84621" lon="0.50421">
        <ele>1579</ele>
        <time>2020-02-01T09:41:26.000Z</time>
      </trkpt>
      <trkpt lat="42.84621" lon="0.5042">
        <ele>1579</ele>
        <time>2020-02-01T09:41:27.000Z</time>
      </trkpt>
      <trkpt lat="42.84621" lon="0.50419">
        <ele>1579</ele>
        <time>2020-02-01T09:41:28.000Z</time>
      </trkpt>
      <trkpt lat="42.84621" lon="0.50418">
        <ele>1579</ele>
        <time>2020-02-01T09:41:29.000Z</time>
      </trkpt>
      <trkpt lat="42.84621" lon="0.50417">
        <ele>1579</ele>
        <time>2020-02-01T09:41:30.000Z</time>
      </trkpt>
      <trkpt lat="42.84621" lon="0.50416">
        <ele>1579</ele>
        <time>2020-02-01T09:41:31.000Z</time>
      </trkpt>
      <trkpt lat="42.84621" lon="0.50415">
        <ele>1579</ele>
        <time>2020-02-01T09:41:32.000Z</time>
      </trkpt>
      <trkpt lat="42.84621" lon="0.50414">
        <ele>1579</ele>
        <time>2020-02-01T09:41:33.000Z</time>
      </trkpt>
      <trkpt lat="42.84621" lon="0.50413">
        <ele>1579</ele>
        <time>2020-02-01T09:41:34.000Z</time>
      </trkpt>
      <trkpt lat="42.84621" lon="0.50412">
        <ele>1579</ele>
        <time>2020-02-01T09:41:35.000Z</time>
      </trkpt>
      <trkpt lat="42.84621" lon="0.50411">
        <ele>1579</ele>
        <time>2020-02-01T09:41:36.000Z</time>
      </trkpt>
      <trkpt lat="42.84621" lon="0.50409">
        <ele>1579</ele>
        <time>2020-02-01T09:41:37.000Z</time>
      </trkpt>
      <trkpt lat="42.8462" lon="0.50408">
        <ele>1579</ele>
        <time>2020-02-01T09:41:38.000Z</time>
      </trkpt>
      <trkpt lat="42.8462" lon="0.50407">
        <ele>1579</ele>
        <time>2020-02-01T09:41:39.000Z</time>
      </trkpt>
      <trkpt lat="42.8462" lon="0.50406">
        <ele>1579</ele>
        <time>2020-02-01T09:41:40.000Z</time>
      </trkpt>
      <trkpt lat="42.84619" lon="0.50406">
        <ele>1579</ele>
        <time>2020-02-01T09:41:41.000Z</time>
      </trkpt>
      <trkpt lat="42.84619" lon="0.50405">
        <ele>1579</ele>
        <time>2020-02-01T09:41:42.000Z</time>
      </trkpt>
      <trkpt lat="42.84619" lon="0.50404">
        <ele>1579</ele>
        <time>2020-02-01T09:41:43.000Z</time>
      </trkpt>
      <trkpt lat="42.84618" lon="0.50403">
        <ele>1579</ele>
        <time>2020-02-01T09:41:44.000Z</time>
      </trkpt>
      <trkpt lat="42.84618" lon="0.50403">
        <ele>1579</ele>
        <time>2020-02-01T09:41:45.000Z</time>
      </trkpt>
      <trkpt lat="42.84618" lon="0.50402">
        <ele>1579</ele>
        <time>2020-02-01T09:41:46.000Z</time>
      </trkpt>
      <trkpt lat="42.84617" lon="0.50401">
        <ele>1579</ele>
        <time>2020-02-01T09:41:47.000Z</time>
      </trkpt>
      <trkpt lat="42.84617" lon="0.50401">
        <ele>1578.7</ele>
        <time>2020-02-01T09:41:48.000Z</time>
      </trkpt>
      <trkpt lat="42.84616" lon="0.504">
        <ele>1578.3</ele>
        <time>2020-02-01T09:41:49.000Z</time>
      </trkpt>
      <trkpt lat="42.84616" lon="0.50399">
        <ele>1578</ele>
        <time>2020-02-01T09:41:50.000Z</time>
      </trkpt>
      <trkpt lat="42.84615" lon="0.50398">
        <ele>1578</ele>
        <time>2020-02-01T09:41:51.000Z</time>
      </trkpt>
      <trkpt lat="42.84615" lon="0.50397">
        <ele>1578</ele>
        <time>2020-02-01T09:41:52.000Z</time>
      </trkpt>
      <trkpt lat="42.84614" lon="0.50396">
        <ele>1578</ele>
        <time>2020-02-01T09:41:53.000Z</time>
      </trkpt>
      <trkpt lat="42.84614" lon="0.50395">
        <ele>1578</ele>
        <time>2020-02-01T09:41:54.000Z</time>
      </trkpt>
      <trkpt lat="42.84613" lon="0.50394">
        <ele>1578</ele>
        <time>2020-02-01T09:41:55.000Z</time>
      </trkpt>
      <trkpt lat="42.84613" lon="0.50393">
        <ele>1578</ele>
        <time>2020-02-01T09:41:56.000Z</time>
      </trkpt>
      <trkpt lat="42.84613" lon="0.50391">
        <ele>1578</ele>
        <time>2020-02-01T09:41:57.000Z</time>
      </trkpt>
      <trkpt lat="42.84613" lon="0.5039">
        <ele>1578</ele>
        <time>2020-02-01T09:41:58.000Z</time>
      </trkpt>
      <trkpt lat="42.84612" lon="0.50389">
        <ele>1578</ele>
        <time>2020-02-01T09:41:59.000Z</time>
      </trkpt>
      <trkpt lat="42.84612" lon="0.50388">
        <ele>1578</ele>
        <time>2020-02-01T09:42:00.000Z</time>
      </trkpt>
      <trkpt lat="42.84612" lon="0.50387">
        <ele>1578</ele>
        <time>2020-02-01T09:42:01.000Z</time>
      </trkpt>
      <trkpt lat="42.84612" lon="0.50386">
        <ele>1578</ele>
        <time>2020-02-01T09:42:02.000Z</time>
      </trkpt>
      <trkpt lat="42.84612" lon="0.50385">
        <ele>1578.5</ele>
        <time>2020-02-01T09:42:03.000Z</time>
      </trkpt>
      <trkpt lat="42.84611" lon="0.50385">
        <ele>1579</ele>
        <time>2020-02-01T09:42:04.000Z</time>
      </trkpt>
      <trkpt lat="42.84611" lon="0.50385">
        <ele>1579</ele>
        <time>2020-02-01T09:42:05.000Z</time>
      </trkpt>
      <trkpt lat="42.84611" lon="0.50385">
        <ele>1579</ele>
        <time>2020-02-01T09:42:06.000Z</time>
      </trkpt>
      <trkpt lat="42.84611" lon="0.50385">
        <ele>1579</ele>
        <time>2020-02-01T09:42:07.000Z</time>
      </trkpt>
      <trkpt lat="42.84611" lon="0.50385">
        <ele>1579</ele>
        <time>2020-02-01T09:42:08.000Z</time>
      </trkpt>
      <trkpt lat="42.84611" lon="0.50385">
        <ele>1579</ele>
        <time>2020-02-01T09:42:09.000Z</time>
      </trkpt>
      <trkpt lat="42.84611" lon="0.50385">
        <ele>1579</ele>
        <time>2020-02-01T09:42:10.000Z</time>
      </trkpt>
      <trkpt lat="42.84611" lon="0.50384">
        <ele>1579</ele>
        <time>2020-02-01T09:42:11.000Z</time>
      </trkpt>
      <trkpt lat="42.84611" lon="0.50383">
        <ele>1579</ele>
        <time>2020-02-01T09:42:12.000Z</time>
      </trkpt>
      <trkpt lat="42.84611" lon="0.50383">
        <ele>1579</ele>
        <time>2020-02-01T09:42:13.000Z</time>
      </trkpt>
      <trkpt lat="42.84612" lon="0.50382">
        <ele>1579</ele>
        <time>2020-02-01T09:42:14.000Z</time>
      </trkpt>
      <trkpt lat="42.84612" lon="0.50382">
        <ele>1579</ele>
        <time>2020-02-01T09:42:15.000Z</time>
      </trkpt>
      <trkpt lat="42.84613" lon="0.50381">
        <ele>1579</ele>
        <time>2020-02-01T09:42:16.000Z</time>
      </trkpt>
      <trkpt lat="42.84613" lon="0.50381">
        <ele>1579</ele>
        <time>2020-02-01T09:42:17.000Z</time>
      </trkpt>
      <trkpt lat="42.84613" lon="0.50381">
        <ele>1579</ele>
        <time>2020-02-01T09:42:18.000Z</time>
      </trkpt>
      <trkpt lat="42.84613" lon="0.50381">
        <ele>1579</ele>
        <time>2020-02-01T09:42:19.000Z</time>
      </trkpt>
      <trkpt lat="42.84612" lon="0.50381">
        <ele>1579</ele>
        <time>2020-02-01T09:42:20.000Z</time>
      </trkpt>
      <trkpt lat="42.84612" lon="0.50381">
        <ele>1579</ele>
        <time>2020-02-01T09:42:21.000Z</time>
      </trkpt>
      <trkpt lat="42.84611" lon="0.50382">
        <ele>1579</ele>
        <time>2020-02-01T09:42:22.000Z</time>
      </trkpt>
      <trkpt lat="42.8461" lon="0.50382">
        <ele>1579</ele>
        <time>2020-02-01T09:42:23.000Z</time>
      </trkpt>
      <trkpt lat="42.84608" lon="0.50382">
        <ele>1579</ele>
        <time>2020-02-01T09:42:24.000Z</time>
      </trkpt>
      <trkpt lat="42.84607" lon="0.50383">
        <ele>1579</ele>
        <time>2020-02-01T09:42:25.000Z</time>
      </trkpt>
      <trkpt lat="42.84606" lon="0.50383">
        <ele>1579</ele>
        <time>2020-02-01T09:42:26.000Z</time>
      </trkpt>
      <trkpt lat="42.84604" lon="0.50383">
        <ele>1579</ele>
        <time>2020-02-01T09:42:27.000Z</time>
      </trkpt>
      <trkpt lat="42.84603" lon="0.50384">
        <ele>1579</ele>
        <time>2020-02-01T09:42:28.000Z</time>
      </trkpt>
      <trkpt lat="42.84602" lon="0.50384">
        <ele>1579</ele>
        <time>2020-02-01T09:42:29.000Z</time>
      </trkpt>
      <trkpt lat="42.84601" lon="0.50384">
        <ele>1579</ele>
        <time>2020-02-01T09:42:30.000Z</time>
      </trkpt>
      <trkpt lat="42.846" lon="0.50384">
        <ele>1579</ele>
        <time>2020-02-01T09:42:31.000Z</time>
      </trkpt>
      <trkpt lat="42.84599" lon="0.50384">
        <ele>1579</ele>
        <time>2020-02-01T09:42:32.000Z</time>
      </trkpt>
      <trkpt lat="42.84598" lon="0.50383">
        <ele>1579</ele>
        <time>2020-02-01T09:42:33.000Z</time>
      </trkpt>
      <trkpt lat="42.84597" lon="0.50383">
        <ele>1579</ele>
        <time>2020-02-01T09:42:34.000Z</time>
      </trkpt>
      <trkpt lat="42.84596" lon="0.50383">
        <ele>1579</ele>
        <time>2020-02-01T09:42:35.000Z</time>
      </trkpt>
      <trkpt lat="42.84596" lon="0.50383">
        <ele>1579</ele>
        <time>2020-02-01T09:42:36.000Z</time>
      </trkpt>
      <trkpt lat="42.84595" lon="0.50383">
        <ele>1579</ele>
        <time>2020-02-01T09:42:37.000Z</time>
      </trkpt>
      <trkpt lat="42.84595" lon="0.50383">
        <ele>1579</ele>
        <time>2020-02-01T09:42:38.000Z</time>
      </trkpt>
      <trkpt lat="42.84595" lon="0.50383">
        <ele>1579</ele>
        <time>2020-02-01T09:42:39.000Z</time>
      </trkpt>
      <trkpt lat="42.84595" lon="0.50383">
        <ele>1579</ele>
        <time>2020-02-01T09:42:40.000Z</time>
      </trkpt>
      <trkpt lat="42.84595" lon="0.50383">
        <ele>1579</ele>
        <time>2020-02-01T09:42:41.000Z</time>
      </trkpt>
      <trkpt lat="42.84595" lon="0.50383">
        <ele>1579</ele>
        <time>2020-02-01T09:42:42.000Z</time>
      </trkpt>
      <trkpt lat="42.84595" lon="0.50383">
        <ele>1579</ele>
        <time>2020-02-01T09:42:43.000Z</time>
      </trkpt>
      <trkpt lat="42.84595" lon="0.50383">
        <ele>1579</ele>
        <time>2020-02-01T09:42:44.000Z</time>
      </trkpt>
      <trkpt lat="42.84595" lon="0.50382">
        <ele>1579</ele>
        <time>2020-02-01T09:42:45.000Z</time>
      </trkpt>
      <trkpt lat="42.84594" lon="0.50382">
        <ele>1579</ele>
        <time>2020-02-01T09:42:46.000Z</time>
      </trkpt>
      <trkpt lat="42.84594" lon="0.50382">
        <ele>1579</ele>
        <time>2020-02-01T09:42:47.000Z</time>
      </trkpt>
      <trkpt lat="42.84593" lon="0.50381">
        <ele>1579</ele>
        <time>2020-02-01T09:42:48.000Z</time>
      </trkpt>
      <trkpt lat="42.84592" lon="0.50381">
        <ele>1579</ele>
        <time>2020-02-01T09:42:49.000Z</time>
      </trkpt>
      <trkpt lat="42.84592" lon="0.5038">
        <ele>1579</ele>
        <time>2020-02-01T09:42:50.000Z</time>
      </trkpt>
      <trkpt lat="42.84591" lon="0.5038">
        <ele>1579</ele>
        <time>2020-02-01T09:42:56.000Z</time>
      </trkpt>
      <trkpt lat="42.8459" lon="0.50379">
        <ele>1579</ele>
        <time>2020-02-01T09:42:57.000Z</time>
      </trkpt>
      <trkpt lat="42.84589" lon="0.50378">
        <ele>1579</ele>
        <time>2020-02-01T09:42:58.000Z</time>
      </trkpt>
      <trkpt lat="42.84588" lon="0.50378">
        <ele>1579</ele>
        <time>2020-02-01T09:42:59.000Z</time>
      </trkpt>
      <trkpt lat="42.84587" lon="0.50377">
        <ele>1579</ele>
        <time>2020-02-01T09:43:00.000Z</time>
      </trkpt>
      <trkpt lat="42.84587" lon="0.50376">
        <ele>1579</ele>
        <time>2020-02-01T09:43:01.000Z</time>
      </trkpt>
      <trkpt lat="42.84586" lon="0.50376">
        <ele>1579</ele>
        <time>2020-02-01T09:43:02.000Z</time>
      </trkpt>
      <trkpt lat="42.84586" lon="0.50376">
        <ele>1579</ele>
        <time>2020-02-01T09:43:03.000Z</time>
      </trkpt>
      <trkpt lat="42.84586" lon="0.50375">
        <ele>1579</ele>
        <time>2020-02-01T09:43:04.000Z</time>
      </trkpt>
      <trkpt lat="42.84587" lon="0.50375">
        <ele>1579</ele>
        <time>2020-02-01T09:43:05.000Z</time>
      </trkpt>
      <trkpt lat="42.84587" lon="0.50375">
        <ele>1579</ele>
        <time>2020-02-01T09:43:06.000Z</time>
      </trkpt>
      <trkpt lat="42.84588" lon="0.50375">
        <ele>1579</ele>
        <time>2020-02-01T09:43:07.000Z</time>
      </trkpt>
      <trkpt lat="42.84589" lon="0.50374">
        <ele>1579</ele>
        <time>2020-02-01T09:43:08.000Z</time>
      </trkpt>
      <trkpt lat="42.84589" lon="0.50374">
        <ele>1579</ele>
        <time>2020-02-01T09:43:09.000Z</time>
      </trkpt>
      <trkpt lat="42.8459" lon="0.50374">
        <ele>1579.3</ele>
        <time>2020-02-01T09:43:10.000Z</time>
      </trkpt>
      <trkpt lat="42.84591" lon="0.50374">
        <ele>1579.7</ele>
        <time>2020-02-01T09:43:11.000Z</time>
      </trkpt>
      <trkpt lat="42.84592" lon="0.50373">
        <ele>1580</ele>
        <time>2020-02-01T09:43:12.000Z</time>
      </trkpt>
      <trkpt lat="42.84593" lon="0.50373">
        <ele>1579.5</ele>
        <time>2020-02-01T09:43:13.000Z</time>
      </trkpt>
      <trkpt lat="42.84594" lon="0.50372">
        <ele>1579</ele>
        <time>2020-02-01T09:43:14.000Z</time>
      </trkpt>
      <trkpt lat="42.84594" lon="0.50372">
        <ele>1579</ele>
        <time>2020-02-01T09:43:15.000Z</time>
      </trkpt>
      <trkpt lat="42.84595" lon="0.50371">
        <ele>1579</ele>
        <time>2020-02-01T09:43:16.000Z</time>
      </trkpt>
      <trkpt lat="42.84596" lon="0.5037">
        <ele>1579</ele>
        <time>2020-02-01T09:43:17.000Z</time>
      </trkpt>
      <trkpt lat="42.84596" lon="0.5037">
        <ele>1579</ele>
        <time>2020-02-01T09:43:18.000Z</time>
      </trkpt>
      <trkpt lat="42.84596" lon="0.50369">
        <ele>1579</ele>
        <time>2020-02-01T09:43:19.000Z</time>
      </trkpt>
      <trkpt lat="42.84597" lon="0.50368">
        <ele>1579</ele>
        <time>2020-02-01T09:43:20.000Z</time>
      </trkpt>
      <trkpt lat="42.84597" lon="0.50367">
        <ele>1580</ele>
        <time>2020-02-01T09:43:21.000Z</time>
      </trkpt>
      <trkpt lat="42.84596" lon="0.50366">
        <ele>1580</ele>
        <time>2020-02-01T09:43:22.000Z</time>
      </trkpt>
      <trkpt lat="42.84596" lon="0.50364">
        <ele>1580</ele>
        <time>2020-02-01T09:43:23.000Z</time>
      </trkpt>
      <trkpt lat="42.84596" lon="0.50363">
        <ele>1580</ele>
        <time>2020-02-01T09:43:24.000Z</time>
      </trkpt>
      <trkpt lat="42.84595" lon="0.50362">
        <ele>1580</ele>
        <time>2020-02-01T09:43:25.000Z</time>
      </trkpt>
      <trkpt lat="42.84594" lon="0.50361">
        <ele>1580</ele>
        <time>2020-02-01T09:43:26.000Z</time>
      </trkpt>
      <trkpt lat="42.84594" lon="0.5036">
        <ele>1580</ele>
        <time>2020-02-01T09:43:27.000Z</time>
      </trkpt>
      <trkpt lat="42.84593" lon="0.50358">
        <ele>1580</ele>
        <time>2020-02-01T09:43:28.000Z</time>
      </trkpt>
      <trkpt lat="42.84592" lon="0.50357">
        <ele>1580</ele>
        <time>2020-02-01T09:43:29.000Z</time>
      </trkpt>
      <trkpt lat="42.84591" lon="0.50356">
        <ele>1580</ele>
        <time>2020-02-01T09:43:30.000Z</time>
      </trkpt>
      <trkpt lat="42.8459" lon="0.50355">
        <ele>1580</ele>
        <time>2020-02-01T09:43:31.000Z</time>
      </trkpt>
      <trkpt lat="42.8459" lon="0.50354">
        <ele>1580</ele>
        <time>2020-02-01T09:43:32.000Z</time>
      </trkpt>
      <trkpt lat="42.84589" lon="0.50354">
        <ele>1580</ele>
        <time>2020-02-01T09:43:33.000Z</time>
      </trkpt>
      <trkpt lat="42.84588" lon="0.50353">
        <ele>1580</ele>
        <time>2020-02-01T09:43:34.000Z</time>
      </trkpt>
      <trkpt lat="42.84587" lon="0.50352">
        <ele>1580</ele>
        <time>2020-02-01T09:43:35.000Z</time>
      </trkpt>
      <trkpt lat="42.84586" lon="0.50352">
        <ele>1580</ele>
        <time>2020-02-01T09:43:36.000Z</time>
      </trkpt>
      <trkpt lat="42.84585" lon="0.50351">
        <ele>1580</ele>
        <time>2020-02-01T09:43:37.000Z</time>
      </trkpt>
      <trkpt lat="42.84584" lon="0.50351">
        <ele>1580</ele>
        <time>2020-02-01T09:43:38.000Z</time>
      </trkpt>
      <trkpt lat="42.84583" lon="0.5035">
        <ele>1580</ele>
        <time>2020-02-01T09:43:39.000Z</time>
      </trkpt>
      <trkpt lat="42.84582" lon="0.50349">
        <ele>1580</ele>
        <time>2020-02-01T09:43:40.000Z</time>
      </trkpt>
      <trkpt lat="42.84581" lon="0.50349">
        <ele>1580</ele>
        <time>2020-02-01T09:43:41.000Z</time>
      </trkpt>
      <trkpt lat="42.8458" lon="0.50348">
        <ele>1580</ele>
        <time>2020-02-01T09:43:42.000Z</time>
      </trkpt>
      <trkpt lat="42.8458" lon="0.50347">
        <ele>1580</ele>
        <time>2020-02-01T09:43:43.000Z</time>
      </trkpt>
      <trkpt lat="42.84579" lon="0.50346">
        <ele>1580</ele>
        <time>2020-02-01T09:43:44.000Z</time>
      </trkpt>
      <trkpt lat="42.84579" lon="0.50344">
        <ele>1580</ele>
        <time>2020-02-01T09:43:45.000Z</time>
      </trkpt>
      <trkpt lat="42.84579" lon="0.50342">
        <ele>1580</ele>
        <time>2020-02-01T09:43:46.000Z</time>
      </trkpt>
      <trkpt lat="42.84579" lon="0.50341">
        <ele>1580</ele>
        <time>2020-02-01T09:43:47.000Z</time>
      </trkpt>
      <trkpt lat="42.84579" lon="0.50339">
        <ele>1580</ele>
        <time>2020-02-01T09:43:48.000Z</time>
      </trkpt>
      <trkpt lat="42.8458" lon="0.50337">
        <ele>1580</ele>
        <time>2020-02-01T09:43:49.000Z</time>
      </trkpt>
      <trkpt lat="42.8458" lon="0.50336">
        <ele>1580</ele>
        <time>2020-02-01T09:43:50.000Z</time>
      </trkpt>
      <trkpt lat="42.8458" lon="0.50335">
        <ele>1581</ele>
        <time>2020-02-01T09:43:51.000Z</time>
      </trkpt>
      <trkpt lat="42.8458" lon="0.50335">
        <ele>1581</ele>
        <time>2020-02-01T09:43:52.000Z</time>
      </trkpt>
      <trkpt lat="42.84581" lon="0.50334">
        <ele>1581</ele>
        <time>2020-02-01T09:43:53.000Z</time>
      </trkpt>
      <trkpt lat="42.84581" lon="0.50333">
        <ele>1581</ele>
        <time>2020-02-01T09:43:54.000Z</time>
      </trkpt>
      <trkpt lat="42.84581" lon="0.50333">
        <ele>1581</ele>
        <time>2020-02-01T09:43:55.000Z</time>
      </trkpt>
      <trkpt lat="42.84582" lon="0.50332">
        <ele>1581</ele>
        <time>2020-02-01T09:43:56.000Z</time>
      </trkpt>
      <trkpt lat="42.84583" lon="0.50331">
        <ele>1581</ele>
        <time>2020-02-01T09:43:57.000Z</time>
      </trkpt>
      <trkpt lat="42.84583" lon="0.50329">
        <ele>1581</ele>
        <time>2020-02-01T09:43:58.000Z</time>
      </trkpt>
      <trkpt lat="42.84584" lon="0.50328">
        <ele>1581</ele>
        <time>2020-02-01T09:43:59.000Z</time>
      </trkpt>
      <trkpt lat="42.84585" lon="0.50327">
        <ele>1581</ele>
        <time>2020-02-01T09:44:00.000Z</time>
      </trkpt>
      <trkpt lat="42.84585" lon="0.50325">
        <ele>1582</ele>
        <time>2020-02-01T09:44:01.000Z</time>
      </trkpt>
      <trkpt lat="42.84586" lon="0.50324">
        <ele>1582</ele>
        <time>2020-02-01T09:44:02.000Z</time>
      </trkpt>
      <trkpt lat="42.84586" lon="0.50323">
        <ele>1582</ele>
        <time>2020-02-01T09:44:03.000Z</time>
      </trkpt>
      <trkpt lat="42.84587" lon="0.50321">
        <ele>1582</ele>
        <time>2020-02-01T09:44:04.000Z</time>
      </trkpt>
      <trkpt lat="42.84587" lon="0.50319">
        <ele>1582</ele>
        <time>2020-02-01T09:44:05.000Z</time>
      </trkpt>
      <trkpt lat="42.84587" lon="0.50318">
        <ele>1582</ele>
        <time>2020-02-01T09:44:06.000Z</time>
      </trkpt>
      <trkpt lat="42.84587" lon="0.50316">
        <ele>1582</ele>
        <time>2020-02-01T09:44:07.000Z</time>
      </trkpt>
      <trkpt lat="42.84587" lon="0.50315">
        <ele>1582</ele>
        <time>2020-02-01T09:44:08.000Z</time>
      </trkpt>
      <trkpt lat="42.84587" lon="0.50313">
        <ele>1582</ele>
        <time>2020-02-01T09:44:09.000Z</time>
      </trkpt>
      <trkpt lat="42.84587" lon="0.50313">
        <ele>1582</ele>
        <time>2020-02-01T09:44:10.000Z</time>
      </trkpt>
      <trkpt lat="42.84586" lon="0.50312">
        <ele>1582</ele>
        <time>2020-02-01T09:44:11.000Z</time>
      </trkpt>
      <trkpt lat="42.84586" lon="0.50311">
        <ele>1582</ele>
        <time>2020-02-01T09:44:12.000Z</time>
      </trkpt>
      <trkpt lat="42.84586" lon="0.5031">
        <ele>1583</ele>
        <time>2020-02-01T09:44:13.000Z</time>
      </trkpt>
      <trkpt lat="42.84586" lon="0.50308">
        <ele>1583</ele>
        <time>2020-02-01T09:44:14.000Z</time>
      </trkpt>
      <trkpt lat="42.84586" lon="0.50307">
        <ele>1583</ele>
        <time>2020-02-01T09:44:15.000Z</time>
      </trkpt>
      <trkpt lat="42.84585" lon="0.50305">
        <ele>1583</ele>
        <time>2020-02-01T09:44:16.000Z</time>
      </trkpt>
      <trkpt lat="42.84585" lon="0.50302">
        <ele>1583</ele>
        <time>2020-02-01T09:44:17.000Z</time>
      </trkpt>
      <trkpt lat="42.84584" lon="0.503">
        <ele>1583</ele>
        <time>2020-02-01T09:44:18.000Z</time>
      </trkpt>
      <trkpt lat="42.84583" lon="0.50299">
        <ele>1583</ele>
        <time>2020-02-01T09:44:19.000Z</time>
      </trkpt>
      <trkpt lat="42.84582" lon="0.50297">
        <ele>1584</ele>
        <time>2020-02-01T09:44:20.000Z</time>
      </trkpt>
      <trkpt lat="42.84581" lon="0.50296">
        <ele>1584</ele>
        <time>2020-02-01T09:44:21.000Z</time>
      </trkpt>
      <trkpt lat="42.84579" lon="0.50295">
        <ele>1585</ele>
        <time>2020-02-01T09:44:22.000Z</time>
      </trkpt>
      <trkpt lat="42.84578" lon="0.50295">
        <ele>1586</ele>
        <time>2020-02-01T09:44:23.000Z</time>
      </trkpt>
      <trkpt lat="42.84576" lon="0.50294">
        <ele>1585.5</ele>
        <time>2020-02-01T09:44:24.000Z</time>
      </trkpt>
      <trkpt lat="42.84575" lon="0.50294">
        <ele>1585</ele>
        <time>2020-02-01T09:44:25.000Z</time>
      </trkpt>
      <trkpt lat="42.84574" lon="0.50294">
        <ele>1585</ele>
        <time>2020-02-01T09:44:26.000Z</time>
      </trkpt>
      <trkpt lat="42.84573" lon="0.50293">
        <ele>1584</ele>
        <time>2020-02-01T09:44:27.000Z</time>
      </trkpt>
      <trkpt lat="42.84572" lon="0.50293">
        <ele>1584</ele>
        <time>2020-02-01T09:44:28.000Z</time>
      </trkpt>
      <trkpt lat="42.84571" lon="0.50292">
        <ele>1584</ele>
        <time>2020-02-01T09:44:29.000Z</time>
      </trkpt>
      <trkpt lat="42.84571" lon="0.50291">
        <ele>1584</ele>
        <time>2020-02-01T09:44:30.000Z</time>
      </trkpt>
      <trkpt lat="42.84571" lon="0.50289">
        <ele>1584</ele>
        <time>2020-02-01T09:44:31.000Z</time>
      </trkpt>
      <trkpt lat="42.84571" lon="0.50288">
        <ele>1584</ele>
        <time>2020-02-01T09:44:32.000Z</time>
      </trkpt>
      <trkpt lat="42.84572" lon="0.50287">
        <ele>1584</ele>
        <time>2020-02-01T09:44:33.000Z</time>
      </trkpt>
      <trkpt lat="42.84572" lon="0.50285">
        <ele>1584</ele>
        <time>2020-02-01T09:44:34.000Z</time>
      </trkpt>
      <trkpt lat="42.84573" lon="0.50284">
        <ele>1584</ele>
        <time>2020-02-01T09:44:35.000Z</time>
      </trkpt>
      <trkpt lat="42.84573" lon="0.50283">
        <ele>1584</ele>
        <time>2020-02-01T09:44:36.000Z</time>
      </trkpt>
      <trkpt lat="42.84574" lon="0.50283">
        <ele>1584.5</ele>
        <time>2020-02-01T09:44:37.000Z</time>
      </trkpt>
      <trkpt lat="42.84574" lon="0.50282">
        <ele>1585</ele>
        <time>2020-02-01T09:44:38.000Z</time>
      </trkpt>
      <trkpt lat="42.84575" lon="0.50282">
        <ele>1585</ele>
        <time>2020-02-01T09:44:39.000Z</time>
      </trkpt>
      <trkpt lat="42.84575" lon="0.50282">
        <ele>1585</ele>
        <time>2020-02-01T09:44:40.000Z</time>
      </trkpt>
      <trkpt lat="42.84575" lon="0.50282">
        <ele>1585</ele>
        <time>2020-02-01T09:44:41.000Z</time>
      </trkpt>
      <trkpt lat="42.84575" lon="0.50281">
        <ele>1585</ele>
        <time>2020-02-01T09:44:42.000Z</time>
      </trkpt>
      <trkpt lat="42.84575" lon="0.5028">
        <ele>1585</ele>
        <time>2020-02-01T09:44:43.000Z</time>
      </trkpt>
      <trkpt lat="42.84574" lon="0.50279">
        <ele>1585</ele>
        <time>2020-02-01T09:44:44.000Z</time>
      </trkpt>
      <trkpt lat="42.84574" lon="0.50278">
        <ele>1585.5</ele>
        <time>2020-02-01T09:44:45.000Z</time>
      </trkpt>
      <trkpt lat="42.84574" lon="0.50277">
        <ele>1586</ele>
        <time>2020-02-01T09:44:46.000Z</time>
      </trkpt>
      <trkpt lat="42.84574" lon="0.50275">
        <ele>1586</ele>
        <time>2020-02-01T09:44:47.000Z</time>
      </trkpt>
      <trkpt lat="42.84574" lon="0.50274">
        <ele>1586</ele>
        <time>2020-02-01T09:44:48.000Z</time>
      </trkpt>
      <trkpt lat="42.84574" lon="0.50274">
        <ele>1586</ele>
        <time>2020-02-01T09:44:49.000Z</time>
      </trkpt>
      <trkpt lat="42.84574" lon="0.50273">
        <ele>1586</ele>
        <time>2020-02-01T09:44:50.000Z</time>
      </trkpt>
      <trkpt lat="42.84575" lon="0.50272">
        <ele>1587</ele>
        <time>2020-02-01T09:44:51.000Z</time>
      </trkpt>
      <trkpt lat="42.84575" lon="0.50271">
        <ele>1587</ele>
        <time>2020-02-01T09:44:52.000Z</time>
      </trkpt>
      <trkpt lat="42.84576" lon="0.50271">
        <ele>1587</ele>
        <time>2020-02-01T09:44:53.000Z</time>
      </trkpt>
      <trkpt lat="42.84576" lon="0.5027">
        <ele>1587</ele>
        <time>2020-02-01T09:44:54.000Z</time>
      </trkpt>
      <trkpt lat="42.84576" lon="0.50269">
        <ele>1587</ele>
        <time>2020-02-01T09:44:55.000Z</time>
      </trkpt>
      <trkpt lat="42.84576" lon="0.50268">
        <ele>1587</ele>
        <time>2020-02-01T09:44:56.000Z</time>
      </trkpt>
      <trkpt lat="42.84576" lon="0.50267">
        <ele>1587</ele>
        <time>2020-02-01T09:44:57.000Z</time>
      </trkpt>
      <trkpt lat="42.84577" lon="0.50266">
        <ele>1587</ele>
        <time>2020-02-01T09:44:58.000Z</time>
      </trkpt>
      <trkpt lat="42.84577" lon="0.50266">
        <ele>1587</ele>
        <time>2020-02-01T09:44:59.000Z</time>
      </trkpt>
      <trkpt lat="42.84577" lon="0.50265">
        <ele>1587</ele>
        <time>2020-02-01T09:45:00.000Z</time>
      </trkpt>
      <trkpt lat="42.84577" lon="0.50264">
        <ele>1587.5</ele>
        <time>2020-02-01T09:45:01.000Z</time>
      </trkpt>
      <trkpt lat="42.84577" lon="0.50263">
        <ele>1588</ele>
        <time>2020-02-01T09:45:02.000Z</time>
      </trkpt>
      <trkpt lat="42.84577" lon="0.50262">
        <ele>1588</ele>
        <time>2020-02-01T09:45:03.000Z</time>
      </trkpt>
      <trkpt lat="42.84577" lon="0.50262">
        <ele>1588</ele>
        <time>2020-02-01T09:45:04.000Z</time>
      </trkpt>
      <trkpt lat="42.84577" lon="0.50261">
        <ele>1588</ele>
        <time>2020-02-01T09:45:05.000Z</time>
      </trkpt>
      <trkpt lat="42.84577" lon="0.5026">
        <ele>1588</ele>
        <time>2020-02-01T09:45:06.000Z</time>
      </trkpt>
      <trkpt lat="42.84577" lon="0.50259">
        <ele>1588.5</ele>
        <time>2020-02-01T09:45:07.000Z</time>
      </trkpt>
      <trkpt lat="42.84577" lon="0.50258">
        <ele>1589</ele>
        <time>2020-02-01T09:45:08.000Z</time>
      </trkpt>
      <trkpt lat="42.84577" lon="0.50257">
        <ele>1589</ele>
        <time>2020-02-01T09:45:09.000Z</time>
      </trkpt>
      <trkpt lat="42.84577" lon="0.50256">
        <ele>1589</ele>
        <time>2020-02-01T09:45:10.000Z</time>
      </trkpt>
      <trkpt lat="42.84577" lon="0.50256">
        <ele>1589</ele>
        <time>2020-02-01T09:45:11.000Z</time>
      </trkpt>
      <trkpt lat="42.84577" lon="0.50255">
        <ele>1589</ele>
        <time>2020-02-01T09:45:12.000Z</time>
      </trkpt>
      <trkpt lat="42.84577" lon="0.50254">
        <ele>1590</ele>
        <time>2020-02-01T09:45:13.000Z</time>
      </trkpt>
      <trkpt lat="42.84577" lon="0.50253">
        <ele>1590</ele>
        <time>2020-02-01T09:45:14.000Z</time>
      </trkpt>
      <trkpt lat="42.84578" lon="0.50253">
        <ele>1590</ele>
        <time>2020-02-01T09:45:15.000Z</time>
      </trkpt>
      <trkpt lat="42.84578" lon="0.50252">
        <ele>1590</ele>
        <time>2020-02-01T09:45:16.000Z</time>
      </trkpt>
      <trkpt lat="42.84579" lon="0.50252">
        <ele>1590.5</ele>
        <time>2020-02-01T09:45:17.000Z</time>
      </trkpt>
      <trkpt lat="42.8458" lon="0.50251">
        <ele>1591</ele>
        <time>2020-02-01T09:45:18.000Z</time>
      </trkpt>
      <trkpt lat="42.8458" lon="0.5025">
        <ele>1591</ele>
        <time>2020-02-01T09:45:19.000Z</time>
      </trkpt>
      <trkpt lat="42.8458" lon="0.50248">
        <ele>1591</ele>
        <time>2020-02-01T09:45:20.000Z</time>
      </trkpt>
      <trkpt lat="42.8458" lon="0.50247">
        <ele>1591</ele>
        <time>2020-02-01T09:45:21.000Z</time>
      </trkpt>
      <trkpt lat="42.8458" lon="0.50246">
        <ele>1591</ele>
        <time>2020-02-01T09:45:22.000Z</time>
      </trkpt>
      <trkpt lat="42.84579" lon="0.50246">
        <ele>1591.5</ele>
        <time>2020-02-01T09:45:23.000Z</time>
      </trkpt>
      <trkpt lat="42.84579" lon="0.50245">
        <ele>1592</ele>
        <time>2020-02-01T09:45:24.000Z</time>
      </trkpt>
      <trkpt lat="42.84578" lon="0.50244">
        <ele>1592</ele>
        <time>2020-02-01T09:45:25.000Z</time>
      </trkpt>
      <trkpt lat="42.84577" lon="0.50244">
        <ele>1592</ele>
        <time>2020-02-01T09:45:26.000Z</time>
      </trkpt>
      <trkpt lat="42.84577" lon="0.50243">
        <ele>1592</ele>
        <time>2020-02-01T09:45:27.000Z</time>
      </trkpt>
      <trkpt lat="42.84576" lon="0.50242">
        <ele>1592</ele>
        <time>2020-02-01T09:45:28.000Z</time>
      </trkpt>
      <trkpt lat="42.84576" lon="0.50241">
        <ele>1592</ele>
        <time>2020-02-01T09:45:29.000Z</time>
      </trkpt>
      <trkpt lat="42.84575" lon="0.5024">
        <ele>1592</ele>
        <time>2020-02-01T09:45:30.000Z</time>
      </trkpt>
      <trkpt lat="42.84575" lon="0.50239">
        <ele>1592</ele>
        <time>2020-02-01T09:45:31.000Z</time>
      </trkpt>
      <trkpt lat="42.84574" lon="0.50237">
        <ele>1592</ele>
        <time>2020-02-01T09:45:32.000Z</time>
      </trkpt>
      <trkpt lat="42.84574" lon="0.50236">
        <ele>1592.5</ele>
        <time>2020-02-01T09:45:33.000Z</time>
      </trkpt>
      <trkpt lat="42.84574" lon="0.50235">
        <ele>1593</ele>
        <time>2020-02-01T09:45:34.000Z</time>
      </trkpt>
      <trkpt lat="42.84574" lon="0.50233">
        <ele>1593</ele>
        <time>2020-02-01T09:45:35.000Z</time>
      </trkpt>
      <trkpt lat="42.84574" lon="0.50231">
        <ele>1593</ele>
        <time>2020-02-01T09:45:36.000Z</time>
      </trkpt>
      <trkpt lat="42.84575" lon="0.50229">
        <ele>1593</ele>
        <time>2020-02-01T09:45:37.000Z</time>
      </trkpt>
      <trkpt lat="42.84575" lon="0.50227">
        <ele>1593</ele>
        <time>2020-02-01T09:45:38.000Z</time>
      </trkpt>
      <trkpt lat="42.84576" lon="0.50226">
        <ele>1593</ele>
        <time>2020-02-01T09:45:39.000Z</time>
      </trkpt>
      <trkpt lat="42.84577" lon="0.50224">
        <ele>1593</ele>
        <time>2020-02-01T09:45:40.000Z</time>
      </trkpt>
      <trkpt lat="42.84577" lon="0.50224">
        <ele>1593</ele>
        <time>2020-02-01T09:45:41.000Z</time>
      </trkpt>
      <trkpt lat="42.84578" lon="0.50223">
        <ele>1593</ele>
        <time>2020-02-01T09:45:42.000Z</time>
      </trkpt>
      <trkpt lat="42.84579" lon="0.50222">
        <ele>1594</ele>
        <time>2020-02-01T09:45:43.000Z</time>
      </trkpt>
      <trkpt lat="42.84579" lon="0.50222">
        <ele>1594</ele>
        <time>2020-02-01T09:45:44.000Z</time>
      </trkpt>
      <trkpt lat="42.8458" lon="0.50221">
        <ele>1594</ele>
        <time>2020-02-01T09:45:45.000Z</time>
      </trkpt>
      <trkpt lat="42.84581" lon="0.5022">
        <ele>1594</ele>
        <time>2020-02-01T09:45:46.000Z</time>
      </trkpt>
      <trkpt lat="42.84582" lon="0.50219">
        <ele>1594</ele>
        <time>2020-02-01T09:45:47.000Z</time>
      </trkpt>
      <trkpt lat="42.84582" lon="0.50218">
        <ele>1594</ele>
        <time>2020-02-01T09:45:48.000Z</time>
      </trkpt>
      <trkpt lat="42.84583" lon="0.50217">
        <ele>1594.5</ele>
        <time>2020-02-01T09:45:49.000Z</time>
      </trkpt>
      <trkpt lat="42.84584" lon="0.50216">
        <ele>1595</ele>
        <time>2020-02-01T09:45:50.000Z</time>
      </trkpt>
      <trkpt lat="42.84585" lon="0.50215">
        <ele>1595</ele>
        <time>2020-02-01T09:45:51.000Z</time>
      </trkpt>
      <trkpt lat="42.84586" lon="0.50214">
        <ele>1595</ele>
        <time>2020-02-01T09:45:52.000Z</time>
      </trkpt>
      <trkpt lat="42.84587" lon="0.50214">
        <ele>1595</ele>
        <time>2020-02-01T09:45:53.000Z</time>
      </trkpt>
      <trkpt lat="42.84588" lon="0.50213">
        <ele>1595</ele>
        <time>2020-02-01T09:45:54.000Z</time>
      </trkpt>
      <trkpt lat="42.84589" lon="0.50212">
        <ele>1595</ele>
        <time>2020-02-01T09:45:55.000Z</time>
      </trkpt>
      <trkpt lat="42.8459" lon="0.50211">
        <ele>1595</ele>
        <time>2020-02-01T09:45:56.000Z</time>
      </trkpt>
      <trkpt lat="42.8459" lon="0.50209">
        <ele>1595</ele>
        <time>2020-02-01T09:45:57.000Z</time>
      </trkpt>
      <trkpt lat="42.84591" lon="0.50208">
        <ele>1595.3</ele>
        <time>2020-02-01T09:45:58.000Z</time>
      </trkpt>
      <trkpt lat="42.84591" lon="0.50207">
        <ele>1595.7</ele>
        <time>2020-02-01T09:45:59.000Z</time>
      </trkpt>
      <trkpt lat="42.84591" lon="0.50206">
        <ele>1596</ele>
        <time>2020-02-01T09:46:00.000Z</time>
      </trkpt>
      <trkpt lat="42.84592" lon="0.50205">
        <ele>1596</ele>
        <time>2020-02-01T09:46:01.000Z</time>
      </trkpt>
      <trkpt lat="42.84592" lon="0.50204">
        <ele>1596</ele>
        <time>2020-02-01T09:46:02.000Z</time>
      </trkpt>
      <trkpt lat="42.84592" lon="0.50203">
        <ele>1596</ele>
        <time>2020-02-01T09:46:03.000Z</time>
      </trkpt>
      <trkpt lat="42.84593" lon="0.50202">
        <ele>1596</ele>
        <time>2020-02-01T09:46:04.000Z</time>
      </trkpt>
      <trkpt lat="42.84593" lon="0.50201">
        <ele>1596.5</ele>
        <time>2020-02-01T09:46:05.000Z</time>
      </trkpt>
      <trkpt lat="42.84594" lon="0.502">
        <ele>1597</ele>
        <time>2020-02-01T09:46:06.000Z</time>
      </trkpt>
      <trkpt lat="42.84595" lon="0.50199">
        <ele>1597</ele>
        <time>2020-02-01T09:46:07.000Z</time>
      </trkpt>
      <trkpt lat="42.84595" lon="0.50198">
        <ele>1597</ele>
        <time>2020-02-01T09:46:08.000Z</time>
      </trkpt>
      <trkpt lat="42.84596" lon="0.50198">
        <ele>1597</ele>
        <time>2020-02-01T09:46:09.000Z</time>
      </trkpt>
      <trkpt lat="42.84597" lon="0.50197">
        <ele>1597</ele>
        <time>2020-02-01T09:46:10.000Z</time>
      </trkpt>
      <trkpt lat="42.84597" lon="0.50196">
        <ele>1597</ele>
        <time>2020-02-01T09:46:11.000Z</time>
      </trkpt>
      <trkpt lat="42.84598" lon="0.50196">
        <ele>1597</ele>
        <time>2020-02-01T09:46:12.000Z</time>
      </trkpt>
      <trkpt lat="42.84598" lon="0.50195">
        <ele>1597</ele>
        <time>2020-02-01T09:46:13.000Z</time>
      </trkpt>
      <trkpt lat="42.84599" lon="0.50194">
        <ele>1597</ele>
        <time>2020-02-01T09:46:14.000Z</time>
      </trkpt>
      <trkpt lat="42.84599" lon="0.50193">
        <ele>1597</ele>
        <time>2020-02-01T09:46:15.000Z</time>
      </trkpt>
      <trkpt lat="42.846" lon="0.50193">
        <ele>1597</ele>
        <time>2020-02-01T09:46:16.000Z</time>
      </trkpt>
      <trkpt lat="42.846" lon="0.50192">
        <ele>1597</ele>
        <time>2020-02-01T09:46:17.000Z</time>
      </trkpt>
      <trkpt lat="42.846" lon="0.50191">
        <ele>1597</ele>
        <time>2020-02-01T09:46:18.000Z</time>
      </trkpt>
      <trkpt lat="42.84601" lon="0.50191">
        <ele>1597.5</ele>
        <time>2020-02-01T09:46:19.000Z</time>
      </trkpt>
      <trkpt lat="42.84601" lon="0.5019">
        <ele>1598</ele>
        <time>2020-02-01T09:46:20.000Z</time>
      </trkpt>
      <trkpt lat="42.84601" lon="0.50189">
        <ele>1598</ele>
        <time>2020-02-01T09:46:21.000Z</time>
      </trkpt>
      <trkpt lat="42.84601" lon="0.50189">
        <ele>1598</ele>
        <time>2020-02-01T09:46:22.000Z</time>
      </trkpt>
      <trkpt lat="42.84601" lon="0.50188">
        <ele>1598</ele>
        <time>2020-02-01T09:46:23.000Z</time>
      </trkpt>
      <trkpt lat="42.84601" lon="0.50187">
        <ele>1598</ele>
        <time>2020-02-01T09:46:24.000Z</time>
      </trkpt>
      <trkpt lat="42.84602" lon="0.50186">
        <ele>1598</ele>
        <time>2020-02-01T09:46:25.000Z</time>
      </trkpt>
      <trkpt lat="42.84602" lon="0.50186">
        <ele>1598</ele>
        <time>2020-02-01T09:46:26.000Z</time>
      </trkpt>
      <trkpt lat="42.84602" lon="0.50185">
        <ele>1598</ele>
        <time>2020-02-01T09:46:27.000Z</time>
      </trkpt>
      <trkpt lat="42.84602" lon="0.50184">
        <ele>1598</ele>
        <time>2020-02-01T09:46:28.000Z</time>
      </trkpt>
      <trkpt lat="42.84602" lon="0.50183">
        <ele>1598</ele>
        <time>2020-02-01T09:46:29.000Z</time>
      </trkpt>
      <trkpt lat="42.84602" lon="0.50183">
        <ele>1598</ele>
        <time>2020-02-01T09:46:30.000Z</time>
      </trkpt>
      <trkpt lat="42.84603" lon="0.50182">
        <ele>1598.5</ele>
        <time>2020-02-01T09:46:31.000Z</time>
      </trkpt>
      <trkpt lat="42.84603" lon="0.50181">
        <ele>1599</ele>
        <time>2020-02-01T09:46:32.000Z</time>
      </trkpt>
      <trkpt lat="42.84603" lon="0.5018">
        <ele>1599</ele>
        <time>2020-02-01T09:46:33.000Z</time>
      </trkpt>
      <trkpt lat="42.84603" lon="0.50179">
        <ele>1599</ele>
        <time>2020-02-01T09:46:34.000Z</time>
      </trkpt>
      <trkpt lat="42.84604" lon="0.50178">
        <ele>1599</ele>
        <time>2020-02-01T09:46:35.000Z</time>
      </trkpt>
      <trkpt lat="42.84604" lon="0.50177">
        <ele>1599</ele>
        <time>2020-02-01T09:46:36.000Z</time>
      </trkpt>
      <trkpt lat="42.84605" lon="0.50176">
        <ele>1600</ele>
        <time>2020-02-01T09:46:37.000Z</time>
      </trkpt>
      <trkpt lat="42.84606" lon="0.50175">
        <ele>1600</ele>
        <time>2020-02-01T09:46:38.000Z</time>
      </trkpt>
      <trkpt lat="42.84606" lon="0.50174">
        <ele>1600</ele>
        <time>2020-02-01T09:46:39.000Z</time>
      </trkpt>
      <trkpt lat="42.84606" lon="0.50173">
        <ele>1600</ele>
        <time>2020-02-01T09:46:40.000Z</time>
      </trkpt>
      <trkpt lat="42.84607" lon="0.50172">
        <ele>1600</ele>
        <time>2020-02-01T09:46:41.000Z</time>
      </trkpt>
      <trkpt lat="42.84607" lon="0.50171">
        <ele>1600</ele>
        <time>2020-02-01T09:46:42.000Z</time>
      </trkpt>
      <trkpt lat="42.84607" lon="0.5017">
        <ele>1600</ele>
        <time>2020-02-01T09:46:43.000Z</time>
      </trkpt>
      <trkpt lat="42.84607" lon="0.50169">
        <ele>1600</ele>
        <time>2020-02-01T09:46:44.000Z</time>
      </trkpt>
      <trkpt lat="42.84608" lon="0.50168">
        <ele>1600</ele>
        <time>2020-02-01T09:46:45.000Z</time>
      </trkpt>
      <trkpt lat="42.84608" lon="0.50168">
        <ele>1600</ele>
        <time>2020-02-01T09:46:46.000Z</time>
      </trkpt>
      <trkpt lat="42.84609" lon="0.50167">
        <ele>1600</ele>
        <time>2020-02-01T09:46:47.000Z</time>
      </trkpt>
      <trkpt lat="42.8461" lon="0.50167">
        <ele>1600</ele>
        <time>2020-02-01T09:46:48.000Z</time>
      </trkpt>
      <trkpt lat="42.8461" lon="0.50166">
        <ele>1600.5</ele>
        <time>2020-02-01T09:46:49.000Z</time>
      </trkpt>
      <trkpt lat="42.84611" lon="0.50166">
        <ele>1601</ele>
        <time>2020-02-01T09:46:50.000Z</time>
      </trkpt>
      <trkpt lat="42.84611" lon="0.50165">
        <ele>1601</ele>
        <time>2020-02-01T09:46:51.000Z</time>
      </trkpt>
      <trkpt lat="42.84612" lon="0.50164">
        <ele>1601</ele>
        <time>2020-02-01T09:46:52.000Z</time>
      </trkpt>
      <trkpt lat="42.84612" lon="0.50164">
        <ele>1601</ele>
        <time>2020-02-01T09:46:53.000Z</time>
      </trkpt>
      <trkpt lat="42.84613" lon="0.50163">
        <ele>1601</ele>
        <time>2020-02-01T09:46:54.000Z</time>
      </trkpt>
      <trkpt lat="42.84613" lon="0.50162">
        <ele>1601</ele>
        <time>2020-02-01T09:46:55.000Z</time>
      </trkpt>
      <trkpt lat="42.84614" lon="0.50162">
        <ele>1601</ele>
        <time>2020-02-01T09:46:56.000Z</time>
      </trkpt>
      <trkpt lat="42.84614" lon="0.50161">
        <ele>1601</ele>
        <time>2020-02-01T09:46:57.000Z</time>
      </trkpt>
      <trkpt lat="42.84615" lon="0.5016">
        <ele>1601</ele>
        <time>2020-02-01T09:46:58.000Z</time>
      </trkpt>
      <trkpt lat="42.84615" lon="0.50159">
        <ele>1601.5</ele>
        <time>2020-02-01T09:46:59.000Z</time>
      </trkpt>
      <trkpt lat="42.84615" lon="0.50159">
        <ele>1602</ele>
        <time>2020-02-01T09:47:00.000Z</time>
      </trkpt>
      <trkpt lat="42.84615" lon="0.50158">
        <ele>1602</ele>
        <time>2020-02-01T09:47:01.000Z</time>
      </trkpt>
      <trkpt lat="42.84616" lon="0.50157">
        <ele>1602</ele>
        <time>2020-02-01T09:47:02.000Z</time>
      </trkpt>
      <trkpt lat="42.84616" lon="0.50156">
        <ele>1602</ele>
        <time>2020-02-01T09:47:03.000Z</time>
      </trkpt>
      <trkpt lat="42.84616" lon="0.50156">
        <ele>1602</ele>
        <time>2020-02-01T09:47:04.000Z</time>
      </trkpt>
      <trkpt lat="42.84616" lon="0.50155">
        <ele>1602</ele>
        <time>2020-02-01T09:47:05.000Z</time>
      </trkpt>
      <trkpt lat="42.84616" lon="0.50155">
        <ele>1602</ele>
        <time>2020-02-01T09:47:06.000Z</time>
      </trkpt>
      <trkpt lat="42.84616" lon="0.50154">
        <ele>1602</ele>
        <time>2020-02-01T09:47:07.000Z</time>
      </trkpt>
      <trkpt lat="42.84616" lon="0.50154">
        <ele>1602</ele>
        <time>2020-02-01T09:47:08.000Z</time>
      </trkpt>
      <trkpt lat="42.84616" lon="0.50153">
        <ele>1602.5</ele>
        <time>2020-02-01T09:47:09.000Z</time>
      </trkpt>
      <trkpt lat="42.84616" lon="0.50153">
        <ele>1603</ele>
        <time>2020-02-01T09:47:10.000Z</time>
      </trkpt>
      <trkpt lat="42.84615" lon="0.50153">
        <ele>1603</ele>
        <time>2020-02-01T09:47:11.000Z</time>
      </trkpt>
      <trkpt lat="42.84615" lon="0.50153">
        <ele>1603</ele>
        <time>2020-02-01T09:47:12.000Z</time>
      </trkpt>
      <trkpt lat="42.84615" lon="0.50153">
        <ele>1603</ele>
        <time>2020-02-01T09:47:13.000Z</time>
      </trkpt>
      <trkpt lat="42.84614" lon="0.50152">
        <ele>1603</ele>
        <time>2020-02-01T09:47:14.000Z</time>
      </trkpt>
      <trkpt lat="42.84614" lon="0.50152">
        <ele>1603</ele>
        <time>2020-02-01T09:47:15.000Z</time>
      </trkpt>
      <trkpt lat="42.84614" lon="0.50151">
        <ele>1603</ele>
        <time>2020-02-01T09:47:16.000Z</time>
      </trkpt>
      <trkpt lat="42.84613" lon="0.5015">
        <ele>1603</ele>
        <time>2020-02-01T09:47:17.000Z</time>
      </trkpt>
      <trkpt lat="42.84613" lon="0.5015">
        <ele>1603</ele>
        <time>2020-02-01T09:47:18.000Z</time>
      </trkpt>
      <trkpt lat="42.84613" lon="0.50149">
        <ele>1603</ele>
        <time>2020-02-01T09:47:19.000Z</time>
      </trkpt>
      <trkpt lat="42.84613" lon="0.50148">
        <ele>1603</ele>
        <time>2020-02-01T09:47:20.000Z</time>
      </trkpt>
      <trkpt lat="42.84613" lon="0.50147">
        <ele>1603.5</ele>
        <time>2020-02-01T09:47:21.000Z</time>
      </trkpt>
      <trkpt lat="42.84613" lon="0.50146">
        <ele>1604</ele>
        <time>2020-02-01T09:47:22.000Z</time>
      </trkpt>
      <trkpt lat="42.84613" lon="0.50145">
        <ele>1604</ele>
        <time>2020-02-01T09:47:23.000Z</time>
      </trkpt>
      <trkpt lat="42.84613" lon="0.50144">
        <ele>1604</ele>
        <time>2020-02-01T09:47:24.000Z</time>
      </trkpt>
      <trkpt lat="42.84612" lon="0.50143">
        <ele>1604</ele>
        <time>2020-02-01T09:47:25.000Z</time>
      </trkpt>
      <trkpt lat="42.84612" lon="0.50142">
        <ele>1604</ele>
        <time>2020-02-01T09:47:26.000Z</time>
      </trkpt>
      <trkpt lat="42.84612" lon="0.50142">
        <ele>1604</ele>
        <time>2020-02-01T09:47:27.000Z</time>
      </trkpt>
      <trkpt lat="42.84611" lon="0.50141">
        <ele>1604</ele>
        <time>2020-02-01T09:47:28.000Z</time>
      </trkpt>
      <trkpt lat="42.84611" lon="0.50141">
        <ele>1604</ele>
        <time>2020-02-01T09:47:29.000Z</time>
      </trkpt>
      <trkpt lat="42.84611" lon="0.5014">
        <ele>1604</ele>
        <time>2020-02-01T09:47:30.000Z</time>
      </trkpt>
      <trkpt lat="42.84611" lon="0.50139">
        <ele>1604.5</ele>
        <time>2020-02-01T09:47:31.000Z</time>
      </trkpt>
      <trkpt lat="42.84611" lon="0.50139">
        <ele>1605</ele>
        <time>2020-02-01T09:47:32.000Z</time>
      </trkpt>
      <trkpt lat="42.84611" lon="0.50138">
        <ele>1605</ele>
        <time>2020-02-01T09:47:33.000Z</time>
      </trkpt>
      <trkpt lat="42.84611" lon="0.50137">
        <ele>1605</ele>
        <time>2020-02-01T09:47:34.000Z</time>
      </trkpt>
      <trkpt lat="42.84611" lon="0.50136">
        <ele>1605</ele>
        <time>2020-02-01T09:47:35.000Z</time>
      </trkpt>
      <trkpt lat="42.84612" lon="0.50136">
        <ele>1605</ele>
        <time>2020-02-01T09:47:36.000Z</time>
      </trkpt>
      <trkpt lat="42.84612" lon="0.50135">
        <ele>1605</ele>
        <time>2020-02-01T09:47:37.000Z</time>
      </trkpt>
      <trkpt lat="42.84612" lon="0.50134">
        <ele>1605</ele>
        <time>2020-02-01T09:47:38.000Z</time>
      </trkpt>
      <trkpt lat="42.84612" lon="0.50133">
        <ele>1605.5</ele>
        <time>2020-02-01T09:47:39.000Z</time>
      </trkpt>
      <trkpt lat="42.84613" lon="0.50133">
        <ele>1606</ele>
        <time>2020-02-01T09:47:40.000Z</time>
      </trkpt>
      <trkpt lat="42.84613" lon="0.50132">
        <ele>1606</ele>
        <time>2020-02-01T09:47:41.000Z</time>
      </trkpt>
      <trkpt lat="42.84613" lon="0.50131">
        <ele>1606</ele>
        <time>2020-02-01T09:47:42.000Z</time>
      </trkpt>
      <trkpt lat="42.84614" lon="0.5013">
        <ele>1606</ele>
        <time>2020-02-01T09:47:43.000Z</time>
      </trkpt>
      <trkpt lat="42.84614" lon="0.50129">
        <ele>1606</ele>
        <time>2020-02-01T09:47:44.000Z</time>
      </trkpt>
      <trkpt lat="42.84614" lon="0.50129">
        <ele>1606</ele>
        <time>2020-02-01T09:47:45.000Z</time>
      </trkpt>
      <trkpt lat="42.84614" lon="0.50128">
        <ele>1606</ele>
        <time>2020-02-01T09:47:46.000Z</time>
      </trkpt>
      <trkpt lat="42.84615" lon="0.50127">
        <ele>1606</ele>
        <time>2020-02-01T09:47:47.000Z</time>
      </trkpt>
      <trkpt lat="42.84615" lon="0.50126">
        <ele>1606</ele>
        <time>2020-02-01T09:47:48.000Z</time>
      </trkpt>
      <trkpt lat="42.84615" lon="0.50125">
        <ele>1606</ele>
        <time>2020-02-01T09:47:49.000Z</time>
      </trkpt>
      <trkpt lat="42.84615" lon="0.50125">
        <ele>1606</ele>
        <time>2020-02-01T09:47:50.000Z</time>
      </trkpt>
      <trkpt lat="42.84615" lon="0.50124">
        <ele>1606.5</ele>
        <time>2020-02-01T09:47:51.000Z</time>
      </trkpt>
      <trkpt lat="42.84615" lon="0.50123">
        <ele>1607</ele>
        <time>2020-02-01T09:47:52.000Z</time>
      </trkpt>
      <trkpt lat="42.84615" lon="0.50122">
        <ele>1607</ele>
        <time>2020-02-01T09:47:53.000Z</time>
      </trkpt>
      <trkpt lat="42.84615" lon="0.50121">
        <ele>1607</ele>
        <time>2020-02-01T09:47:54.000Z</time>
      </trkpt>
      <trkpt lat="42.84615" lon="0.5012">
        <ele>1607</ele>
        <time>2020-02-01T09:47:55.000Z</time>
      </trkpt>
      <trkpt lat="42.84615" lon="0.50119">
        <ele>1607</ele>
        <time>2020-02-01T09:47:56.000Z</time>
      </trkpt>
      <trkpt lat="42.84615" lon="0.50119">
        <ele>1607</ele>
        <time>2020-02-01T09:47:57.000Z</time>
      </trkpt>
      <trkpt lat="42.84615" lon="0.50118">
        <ele>1607.3</ele>
        <time>2020-02-01T09:47:58.000Z</time>
      </trkpt>
      <trkpt lat="42.84615" lon="0.50117">
        <ele>1607.7</ele>
        <time>2020-02-01T09:47:59.000Z</time>
      </trkpt>
      <trkpt lat="42.84615" lon="0.50116">
        <ele>1608</ele>
        <time>2020-02-01T09:48:00.000Z</time>
      </trkpt>
      <trkpt lat="42.84615" lon="0.50116">
        <ele>1608</ele>
        <time>2020-02-01T09:48:01.000Z</time>
      </trkpt>
      <trkpt lat="42.84615" lon="0.50115">
        <ele>1608</ele>
        <time>2020-02-01T09:48:02.000Z</time>
      </trkpt>
      <trkpt lat="42.84615" lon="0.50114">
        <ele>1608</ele>
        <time>2020-02-01T09:48:03.000Z</time>
      </trkpt>
      <trkpt lat="42.84615" lon="0.50114">
        <ele>1608</ele>
        <time>2020-02-01T09:48:04.000Z</time>
      </trkpt>
      <trkpt lat="42.84614" lon="0.50113">
        <ele>1608</ele>
        <time>2020-02-01T09:48:05.000Z</time>
      </trkpt>
      <trkpt lat="42.84614" lon="0.50112">
        <ele>1608</ele>
        <time>2020-02-01T09:48:06.000Z</time>
      </trkpt>
      <trkpt lat="42.84614" lon="0.50112">
        <ele>1608.5</ele>
        <time>2020-02-01T09:48:07.000Z</time>
      </trkpt>
      <trkpt lat="42.84613" lon="0.50111">
        <ele>1609</ele>
        <time>2020-02-01T09:48:08.000Z</time>
      </trkpt>
      <trkpt lat="42.84612" lon="0.50111">
        <ele>1609</ele>
        <time>2020-02-01T09:48:09.000Z</time>
      </trkpt>
      <trkpt lat="42.84612" lon="0.50111">
        <ele>1609</ele>
        <time>2020-02-01T09:48:10.000Z</time>
      </trkpt>
      <trkpt lat="42.84611" lon="0.5011">
        <ele>1609</ele>
        <time>2020-02-01T09:48:11.000Z</time>
      </trkpt>
      <trkpt lat="42.8461" lon="0.5011">
        <ele>1609</ele>
        <time>2020-02-01T09:48:12.000Z</time>
      </trkpt>
      <trkpt lat="42.84609" lon="0.5011">
        <ele>1609</ele>
        <time>2020-02-01T09:48:13.000Z</time>
      </trkpt>
      <trkpt lat="42.84608" lon="0.5011">
        <ele>1609</ele>
        <time>2020-02-01T09:48:14.000Z</time>
      </trkpt>
      <trkpt lat="42.84607" lon="0.5011">
        <ele>1609.5</ele>
        <time>2020-02-01T09:48:15.000Z</time>
      </trkpt>
      <trkpt lat="42.84606" lon="0.50109">
        <ele>1610</ele>
        <time>2020-02-01T09:48:16.000Z</time>
      </trkpt>
      <trkpt lat="42.84605" lon="0.50109">
        <ele>1610</ele>
        <time>2020-02-01T09:48:17.000Z</time>
      </trkpt>
      <trkpt lat="42.84604" lon="0.50109">
        <ele>1610</ele>
        <time>2020-02-01T09:48:18.000Z</time>
      </trkpt>
      <trkpt lat="42.84603" lon="0.50109">
        <ele>1610</ele>
        <time>2020-02-01T09:48:19.000Z</time>
      </trkpt>
      <trkpt lat="42.84602" lon="0.50109">
        <ele>1610</ele>
        <time>2020-02-01T09:48:20.000Z</time>
      </trkpt>
      <trkpt lat="42.84601" lon="0.50109">
        <ele>1610</ele>
        <time>2020-02-01T09:48:21.000Z</time>
      </trkpt>
      <trkpt lat="42.846" lon="0.50109">
        <ele>1610</ele>
        <time>2020-02-01T09:48:22.000Z</time>
      </trkpt>
      <trkpt lat="42.84599" lon="0.50108">
        <ele>1611</ele>
        <time>2020-02-01T09:48:23.000Z</time>
      </trkpt>
      <trkpt lat="42.84598" lon="0.50108">
        <ele>1611</ele>
        <time>2020-02-01T09:48:24.000Z</time>
      </trkpt>
      <trkpt lat="42.84597" lon="0.50108">
        <ele>1611</ele>
        <time>2020-02-01T09:48:25.000Z</time>
      </trkpt>
      <trkpt lat="42.84597" lon="0.50108">
        <ele>1611</ele>
        <time>2020-02-01T09:48:26.000Z</time>
      </trkpt>
      <trkpt lat="42.84596" lon="0.50107">
        <ele>1611</ele>
        <time>2020-02-01T09:48:27.000Z</time>
      </trkpt>
      <trkpt lat="42.84596" lon="0.50107">
        <ele>1611</ele>
        <time>2020-02-01T09:48:28.000Z</time>
      </trkpt>
      <trkpt lat="42.84595" lon="0.50106">
        <ele>1611</ele>
        <time>2020-02-01T09:48:29.000Z</time>
      </trkpt>
      <trkpt lat="42.84595" lon="0.50106">
        <ele>1611</ele>
        <time>2020-02-01T09:48:30.000Z</time>
      </trkpt>
      <trkpt lat="42.84595" lon="0.50105">
        <ele>1611.5</ele>
        <time>2020-02-01T09:48:31.000Z</time>
      </trkpt>
      <trkpt lat="42.84595" lon="0.50105">
        <ele>1612</ele>
        <time>2020-02-01T09:48:32.000Z</time>
      </trkpt>
      <trkpt lat="42.84595" lon="0.50104">
        <ele>1612</ele>
        <time>2020-02-01T09:48:33.000Z</time>
      </trkpt>
      <trkpt lat="42.84594" lon="0.50104">
        <ele>1612</ele>
        <time>2020-02-01T09:48:34.000Z</time>
      </trkpt>
      <trkpt lat="42.84594" lon="0.50103">
        <ele>1612</ele>
        <time>2020-02-01T09:48:35.000Z</time>
      </trkpt>
      <trkpt lat="42.84594" lon="0.50103">
        <ele>1612</ele>
        <time>2020-02-01T09:48:36.000Z</time>
      </trkpt>
      <trkpt lat="42.84594" lon="0.50102">
        <ele>1612</ele>
        <time>2020-02-01T09:48:37.000Z</time>
      </trkpt>
      <trkpt lat="42.84593" lon="0.50102">
        <ele>1612</ele>
        <time>2020-02-01T09:48:38.000Z</time>
      </trkpt>
      <trkpt lat="42.84593" lon="0.50102">
        <ele>1612</ele>
        <time>2020-02-01T09:48:39.000Z</time>
      </trkpt>
      <trkpt lat="42.84592" lon="0.50101">
        <ele>1612</ele>
        <time>2020-02-01T09:48:40.000Z</time>
      </trkpt>
      <trkpt lat="42.84592" lon="0.50101">
        <ele>1613</ele>
        <time>2020-02-01T09:48:41.000Z</time>
      </trkpt>
      <trkpt lat="42.84591" lon="0.50101">
        <ele>1613</ele>
        <time>2020-02-01T09:48:42.000Z</time>
      </trkpt>
      <trkpt lat="42.84591" lon="0.50101">
        <ele>1613</ele>
        <time>2020-02-01T09:48:43.000Z</time>
      </trkpt>
      <trkpt lat="42.84591" lon="0.50101">
        <ele>1613</ele>
        <time>2020-02-01T09:48:44.000Z</time>
      </trkpt>
      <trkpt lat="42.8459" lon="0.50101">
        <ele>1613</ele>
        <time>2020-02-01T09:48:45.000Z</time>
      </trkpt>
      <trkpt lat="42.8459" lon="0.50101">
        <ele>1613</ele>
        <time>2020-02-01T09:48:46.000Z</time>
      </trkpt>
      <trkpt lat="42.84589" lon="0.50101">
        <ele>1613</ele>
        <time>2020-02-01T09:48:47.000Z</time>
      </trkpt>
      <trkpt lat="42.84589" lon="0.50101">
        <ele>1613</ele>
        <time>2020-02-01T09:48:48.000Z</time>
      </trkpt>
      <trkpt lat="42.84588" lon="0.50101">
        <ele>1613</ele>
        <time>2020-02-01T09:48:49.000Z</time>
      </trkpt>
      <trkpt lat="42.84588" lon="0.50101">
        <ele>1614</ele>
        <time>2020-02-01T09:48:50.000Z</time>
      </trkpt>
      <trkpt lat="42.84587" lon="0.50102">
        <ele>1614</ele>
        <time>2020-02-01T09:48:51.000Z</time>
      </trkpt>
      <trkpt lat="42.84587" lon="0.50102">
        <ele>1614</ele>
        <time>2020-02-01T09:48:52.000Z</time>
      </trkpt>
      <trkpt lat="42.84586" lon="0.50103">
        <ele>1614</ele>
        <time>2020-02-01T09:48:53.000Z</time>
      </trkpt>
      <trkpt lat="42.84586" lon="0.50103">
        <ele>1614</ele>
        <time>2020-02-01T09:48:54.000Z</time>
      </trkpt>
      <trkpt lat="42.84586" lon="0.50104">
        <ele>1614</ele>
        <time>2020-02-01T09:48:55.000Z</time>
      </trkpt>
      <trkpt lat="42.84585" lon="0.50105">
        <ele>1614</ele>
        <time>2020-02-01T09:48:56.000Z</time>
      </trkpt>
      <trkpt lat="42.84585" lon="0.50105">
        <ele>1615</ele>
        <time>2020-02-01T09:48:57.000Z</time>
      </trkpt>
      <trkpt lat="42.84585" lon="0.50106">
        <ele>1615</ele>
        <time>2020-02-01T09:48:58.000Z</time>
      </trkpt>
      <trkpt lat="42.84585" lon="0.50107">
        <ele>1615</ele>
        <time>2020-02-01T09:48:59.000Z</time>
      </trkpt>
      <trkpt lat="42.84584" lon="0.50107">
        <ele>1615</ele>
        <time>2020-02-01T09:49:00.000Z</time>
      </trkpt>
      <trkpt lat="42.84584" lon="0.50108">
        <ele>1615</ele>
        <time>2020-02-01T09:49:01.000Z</time>
      </trkpt>
      <trkpt lat="42.84584" lon="0.50108">
        <ele>1615</ele>
        <time>2020-02-01T09:49:02.000Z</time>
      </trkpt>
      <trkpt lat="42.84584" lon="0.50109">
        <ele>1615</ele>
        <time>2020-02-01T09:49:03.000Z</time>
      </trkpt>
      <trkpt lat="42.84584" lon="0.50109">
        <ele>1615.3</ele>
        <time>2020-02-01T09:49:04.000Z</time>
      </trkpt>
      <trkpt lat="42.84584" lon="0.5011">
        <ele>1615.7</ele>
        <time>2020-02-01T09:49:05.000Z</time>
      </trkpt>
      <trkpt lat="42.84584" lon="0.50111">
        <ele>1616</ele>
        <time>2020-02-01T09:49:06.000Z</time>
      </trkpt>
      <trkpt lat="42.84584" lon="0.50111">
        <ele>1616</ele>
        <time>2020-02-01T09:49:07.000Z</time>
      </trkpt>
      <trkpt lat="42.84584" lon="0.50112">
        <ele>1616</ele>
        <time>2020-02-01T09:49:08.000Z</time>
      </trkpt>
      <trkpt lat="42.84584" lon="0.50113">
        <ele>1616</ele>
        <time>2020-02-01T09:49:09.000Z</time>
      </trkpt>
      <trkpt lat="42.84585" lon="0.50114">
        <ele>1616</ele>
        <time>2020-02-01T09:49:10.000Z</time>
      </trkpt>
      <trkpt lat="42.84585" lon="0.50114">
        <ele>1616</ele>
        <time>2020-02-01T09:49:11.000Z</time>
      </trkpt>
      <trkpt lat="42.84585" lon="0.50115">
        <ele>1616</ele>
        <time>2020-02-01T09:49:12.000Z</time>
      </trkpt>
      <trkpt lat="42.84586" lon="0.50116">
        <ele>1616</ele>
        <time>2020-02-01T09:49:13.000Z</time>
      </trkpt>
      <trkpt lat="42.84586" lon="0.50116">
        <ele>1616.3</ele>
        <time>2020-02-01T09:49:14.000Z</time>
      </trkpt>
      <trkpt lat="42.84586" lon="0.50117">
        <ele>1616.7</ele>
        <time>2020-02-01T09:49:15.000Z</time>
      </trkpt>
      <trkpt lat="42.84586" lon="0.50118">
        <ele>1617</ele>
        <time>2020-02-01T09:49:16.000Z</time>
      </trkpt>
      <trkpt lat="42.84586" lon="0.50118">
        <ele>1617</ele>
        <time>2020-02-01T09:49:17.000Z</time>
      </trkpt>
      <trkpt lat="42.84587" lon="0.50119">
        <ele>1617</ele>
        <time>2020-02-01T09:49:18.000Z</time>
      </trkpt>
      <trkpt lat="42.84587" lon="0.50119">
        <ele>1617</ele>
        <time>2020-02-01T09:49:19.000Z</time>
      </trkpt>
      <trkpt lat="42.84587" lon="0.5012">
        <ele>1617</ele>
        <time>2020-02-01T09:49:20.000Z</time>
      </trkpt>
      <trkpt lat="42.84587" lon="0.5012">
        <ele>1617.5</ele>
        <time>2020-02-01T09:49:21.000Z</time>
      </trkpt>
      <trkpt lat="42.84588" lon="0.50121">
        <ele>1618</ele>
        <time>2020-02-01T09:49:22.000Z</time>
      </trkpt>
      <trkpt lat="42.84588" lon="0.50121">
        <ele>1618</ele>
        <time>2020-02-01T09:49:23.000Z</time>
      </trkpt>
      <trkpt lat="42.84588" lon="0.50122">
        <ele>1618</ele>
        <time>2020-02-01T09:49:24.000Z</time>
      </trkpt>
      <trkpt lat="42.84588" lon="0.50123">
        <ele>1618</ele>
        <time>2020-02-01T09:49:25.000Z</time>
      </trkpt>
      <trkpt lat="42.84589" lon="0.50123">
        <ele>1618</ele>
        <time>2020-02-01T09:49:26.000Z</time>
      </trkpt>
      <trkpt lat="42.84589" lon="0.50123">
        <ele>1618</ele>
        <time>2020-02-01T09:49:27.000Z</time>
      </trkpt>
      <trkpt lat="42.84589" lon="0.50124">
        <ele>1618</ele>
        <time>2020-02-01T09:49:28.000Z</time>
      </trkpt>
      <trkpt lat="42.8459" lon="0.50124">
        <ele>1618.5</ele>
        <time>2020-02-01T09:49:29.000Z</time>
      </trkpt>
      <trkpt lat="42.8459" lon="0.50125">
        <ele>1619</ele>
        <time>2020-02-01T09:49:30.000Z</time>
      </trkpt>
      <trkpt lat="42.8459" lon="0.50126">
        <ele>1619</ele>
        <time>2020-02-01T09:49:31.000Z</time>
      </trkpt>
      <trkpt lat="42.84589" lon="0.50127">
        <ele>1619</ele>
        <time>2020-02-01T09:49:32.000Z</time>
      </trkpt>
      <trkpt lat="42.84589" lon="0.50128">
        <ele>1619</ele>
        <time>2020-02-01T09:49:33.000Z</time>
      </trkpt>
      <trkpt lat="42.84588" lon="0.5013">
        <ele>1619.3</ele>
        <time>2020-02-01T09:49:34.000Z</time>
      </trkpt>
      <trkpt lat="42.84587" lon="0.5013">
        <ele>1619.7</ele>
        <time>2020-02-01T09:49:35.000Z</time>
      </trkpt>
      <trkpt lat="42.84586" lon="0.50131">
        <ele>1620</ele>
        <time>2020-02-01T09:49:36.000Z</time>
      </trkpt>
      <trkpt lat="42.84585" lon="0.50132">
        <ele>1620</ele>
        <time>2020-02-01T09:49:37.000Z</time>
      </trkpt>
      <trkpt lat="42.84584" lon="0.50132">
        <ele>1620</ele>
        <time>2020-02-01T09:49:38.000Z</time>
      </trkpt>
      <trkpt lat="42.84583" lon="0.50133">
        <ele>1620.5</ele>
        <time>2020-02-01T09:49:39.000Z</time>
      </trkpt>
      <trkpt lat="42.84582" lon="0.50133">
        <ele>1621</ele>
        <time>2020-02-01T09:49:40.000Z</time>
      </trkpt>
      <trkpt lat="42.84581" lon="0.50133">
        <ele>1621</ele>
        <time>2020-02-01T09:49:41.000Z</time>
      </trkpt>
      <trkpt lat="42.8458" lon="0.50133">
        <ele>1621</ele>
        <time>2020-02-01T09:49:42.000Z</time>
      </trkpt>
      <trkpt lat="42.84579" lon="0.50133">
        <ele>1621</ele>
        <time>2020-02-01T09:49:43.000Z</time>
      </trkpt>
      <trkpt lat="42.84578" lon="0.50133">
        <ele>1621</ele>
        <time>2020-02-01T09:49:44.000Z</time>
      </trkpt>
      <trkpt lat="42.84577" lon="0.50133">
        <ele>1621</ele>
        <time>2020-02-01T09:49:45.000Z</time>
      </trkpt>
      <trkpt lat="42.84577" lon="0.50133">
        <ele>1621</ele>
        <time>2020-02-01T09:49:46.000Z</time>
      </trkpt>
      <trkpt lat="42.84576" lon="0.50132">
        <ele>1621.5</ele>
        <time>2020-02-01T09:49:47.000Z</time>
      </trkpt>
      <trkpt lat="42.84575" lon="0.50132">
        <ele>1622</ele>
        <time>2020-02-01T09:49:48.000Z</time>
      </trkpt>
      <trkpt lat="42.84575" lon="0.50132">
        <ele>1622</ele>
        <time>2020-02-01T09:49:49.000Z</time>
      </trkpt>
      <trkpt lat="42.84574" lon="0.50131">
        <ele>1622</ele>
        <time>2020-02-01T09:49:50.000Z</time>
      </trkpt>
      <trkpt lat="42.84574" lon="0.50131">
        <ele>1622</ele>
        <time>2020-02-01T09:49:51.000Z</time>
      </trkpt>
      <trkpt lat="42.84573" lon="0.5013">
        <ele>1622</ele>
        <time>2020-02-01T09:49:52.000Z</time>
      </trkpt>
      <trkpt lat="42.84573" lon="0.5013">
        <ele>1622.5</ele>
        <time>2020-02-01T09:49:53.000Z</time>
      </trkpt>
      <trkpt lat="42.84573" lon="0.50129">
        <ele>1623</ele>
        <time>2020-02-01T09:49:54.000Z</time>
      </trkpt>
      <trkpt lat="42.84572" lon="0.50129">
        <ele>1623</ele>
        <time>2020-02-01T09:49:55.000Z</time>
      </trkpt>
      <trkpt lat="42.84572" lon="0.50128">
        <ele>1623</ele>
        <time>2020-02-01T09:49:56.000Z</time>
      </trkpt>
      <trkpt lat="42.84572" lon="0.50128">
        <ele>1623</ele>
        <time>2020-02-01T09:49:57.000Z</time>
      </trkpt>
      <trkpt lat="42.84572" lon="0.50127">
        <ele>1623</ele>
        <time>2020-02-01T09:49:58.000Z</time>
      </trkpt>
      <trkpt lat="42.84571" lon="0.50127">
        <ele>1623</ele>
        <time>2020-02-01T09:49:59.000Z</time>
      </trkpt>
      <trkpt lat="42.84571" lon="0.50127">
        <ele>1623</ele>
        <time>2020-02-01T09:50:00.000Z</time>
      </trkpt>
      <trkpt lat="42.84571" lon="0.50126">
        <ele>1623</ele>
        <time>2020-02-01T09:50:01.000Z</time>
      </trkpt>
      <trkpt lat="42.84571" lon="0.50126">
        <ele>1623.3</ele>
        <time>2020-02-01T09:50:02.000Z</time>
      </trkpt>
      <trkpt lat="42.84571" lon="0.50126">
        <ele>1623.7</ele>
        <time>2020-02-01T09:50:03.000Z</time>
      </trkpt>
      <trkpt lat="42.84571" lon="0.50126">
        <ele>1624</ele>
        <time>2020-02-01T09:50:04.000Z</time>
      </trkpt>
      <trkpt lat="42.8457" lon="0.50126">
        <ele>1624</ele>
        <time>2020-02-01T09:50:05.000Z</time>
      </trkpt>
      <trkpt lat="42.8457" lon="0.50125">
        <ele>1624</ele>
        <time>2020-02-01T09:50:06.000Z</time>
      </trkpt>
      <trkpt lat="42.8457" lon="0.50125">
        <ele>1624</ele>
        <time>2020-02-01T09:50:07.000Z</time>
      </trkpt>
      <trkpt lat="42.8457" lon="0.50125">
        <ele>1624.3</ele>
        <time>2020-02-01T09:50:08.000Z</time>
      </trkpt>
      <trkpt lat="42.8457" lon="0.50125">
        <ele>1624.7</ele>
        <time>2020-02-01T09:50:09.000Z</time>
      </trkpt>
      <trkpt lat="42.84569" lon="0.50125">
        <ele>1625</ele>
        <time>2020-02-01T09:50:10.000Z</time>
      </trkpt>
      <trkpt lat="42.84569" lon="0.50125">
        <ele>1625</ele>
        <time>2020-02-01T09:50:11.000Z</time>
      </trkpt>
      <trkpt lat="42.84569" lon="0.50125">
        <ele>1625</ele>
        <time>2020-02-01T09:50:12.000Z</time>
      </trkpt>
      <trkpt lat="42.84568" lon="0.50124">
        <ele>1625</ele>
        <time>2020-02-01T09:50:13.000Z</time>
      </trkpt>
      <trkpt lat="42.84568" lon="0.50124">
        <ele>1625</ele>
        <time>2020-02-01T09:50:14.000Z</time>
      </trkpt>
      <trkpt lat="42.84567" lon="0.50124">
        <ele>1625</ele>
        <time>2020-02-01T09:50:15.000Z</time>
      </trkpt>
      <trkpt lat="42.84567" lon="0.50124">
        <ele>1625</ele>
        <time>2020-02-01T09:50:16.000Z</time>
      </trkpt>
      <trkpt lat="42.84567" lon="0.50124">
        <ele>1625</ele>
        <time>2020-02-01T09:50:17.000Z</time>
      </trkpt>
      <trkpt lat="42.84566" lon="0.50124">
        <ele>1625</ele>
        <time>2020-02-01T09:50:18.000Z</time>
      </trkpt>
      <trkpt lat="42.84566" lon="0.50123">
        <ele>1625.5</ele>
        <time>2020-02-01T09:50:19.000Z</time>
      </trkpt>
      <trkpt lat="42.84565" lon="0.50123">
        <ele>1626</ele>
        <time>2020-02-01T09:50:20.000Z</time>
      </trkpt>
      <trkpt lat="42.84565" lon="0.50123">
        <ele>1626</ele>
        <time>2020-02-01T09:50:21.000Z</time>
      </trkpt>
      <trkpt lat="42.84565" lon="0.50123">
        <ele>1626</ele>
        <time>2020-02-01T09:50:22.000Z</time>
      </trkpt>
      <trkpt lat="42.84564" lon="0.50123">
        <ele>1626</ele>
        <time>2020-02-01T09:50:23.000Z</time>
      </trkpt>
      <trkpt lat="42.84564" lon="0.50123">
        <ele>1626</ele>
        <time>2020-02-01T09:50:24.000Z</time>
      </trkpt>
      <trkpt lat="42.84563" lon="0.50123">
        <ele>1626</ele>
        <time>2020-02-01T09:50:25.000Z</time>
      </trkpt>
      <trkpt lat="42.84563" lon="0.50122">
        <ele>1626.3</ele>
        <time>2020-02-01T09:50:26.000Z</time>
      </trkpt>
      <trkpt lat="42.84563" lon="0.50122">
        <ele>1626.7</ele>
        <time>2020-02-01T09:50:27.000Z</time>
      </trkpt>
      <trkpt lat="42.84562" lon="0.50122">
        <ele>1627</ele>
        <time>2020-02-01T09:50:28.000Z</time>
      </trkpt>
      <trkpt lat="42.84562" lon="0.50121">
        <ele>1627</ele>
        <time>2020-02-01T09:50:29.000Z</time>
      </trkpt>
      <trkpt lat="42.84561" lon="0.50121">
        <ele>1627</ele>
        <time>2020-02-01T09:50:30.000Z</time>
      </trkpt>
      <trkpt lat="42.84561" lon="0.50121">
        <ele>1627</ele>
        <time>2020-02-01T09:50:31.000Z</time>
      </trkpt>
      <trkpt lat="42.8456" lon="0.5012">
        <ele>1627</ele>
        <time>2020-02-01T09:50:32.000Z</time>
      </trkpt>
      <trkpt lat="42.8456" lon="0.5012">
        <ele>1627</ele>
        <time>2020-02-01T09:50:33.000Z</time>
      </trkpt>
      <trkpt lat="42.84559" lon="0.50119">
        <ele>1627</ele>
        <time>2020-02-01T09:50:34.000Z</time>
      </trkpt>
      <trkpt lat="42.84559" lon="0.50119">
        <ele>1627</ele>
        <time>2020-02-01T09:50:35.000Z</time>
      </trkpt>
      <trkpt lat="42.84558" lon="0.50118">
        <ele>1627</ele>
        <time>2020-02-01T09:50:36.000Z</time>
      </trkpt>
      <trkpt lat="42.84558" lon="0.50118">
        <ele>1627.5</ele>
        <time>2020-02-01T09:50:37.000Z</time>
      </trkpt>
      <trkpt lat="42.84557" lon="0.50117">
        <ele>1628</ele>
        <time>2020-02-01T09:50:38.000Z</time>
      </trkpt>
      <trkpt lat="42.84557" lon="0.50117">
        <ele>1628</ele>
        <time>2020-02-01T09:50:39.000Z</time>
      </trkpt>
      <trkpt lat="42.84557" lon="0.50116">
        <ele>1628</ele>
        <time>2020-02-01T09:50:40.000Z</time>
      </trkpt>
      <trkpt lat="42.84556" lon="0.50116">
        <ele>1628</ele>
        <time>2020-02-01T09:50:41.000Z</time>
      </trkpt>
      <trkpt lat="42.84556" lon="0.50116">
        <ele>1628</ele>
        <time>2020-02-01T09:50:42.000Z</time>
      </trkpt>
      <trkpt lat="42.84556" lon="0.50115">
        <ele>1628</ele>
        <time>2020-02-01T09:50:43.000Z</time>
      </trkpt>
      <trkpt lat="42.84555" lon="0.50115">
        <ele>1628</ele>
        <time>2020-02-01T09:50:44.000Z</time>
      </trkpt>
      <trkpt lat="42.84555" lon="0.50115">
        <ele>1628</ele>
        <time>2020-02-01T09:50:45.000Z</time>
      </trkpt>
      <trkpt lat="42.84555" lon="0.50115">
        <ele>1628</ele>
        <time>2020-02-01T09:50:46.000Z</time>
      </trkpt>
      <trkpt lat="42.84555" lon="0.50115">
        <ele>1629</ele>
        <time>2020-02-01T09:50:47.000Z</time>
      </trkpt>
      <trkpt lat="42.84555" lon="0.50115">
        <ele>1629</ele>
        <time>2020-02-01T09:50:48.000Z</time>
      </trkpt>
      <trkpt lat="42.84554" lon="0.50115">
        <ele>1629</ele>
        <time>2020-02-01T09:50:49.000Z</time>
      </trkpt>
      <trkpt lat="42.84554" lon="0.50115">
        <ele>1629</ele>
        <time>2020-02-01T09:50:50.000Z</time>
      </trkpt>
      <trkpt lat="42.84554" lon="0.50115">
        <ele>1629</ele>
        <time>2020-02-01T09:50:51.000Z</time>
      </trkpt>
      <trkpt lat="42.84554" lon="0.50115">
        <ele>1629</ele>
        <time>2020-02-01T09:50:52.000Z</time>
      </trkpt>
      <trkpt lat="42.84554" lon="0.50115">
        <ele>1629</ele>
        <time>2020-02-01T09:50:53.000Z</time>
      </trkpt>
      <trkpt lat="42.84553" lon="0.50116">
        <ele>1629</ele>
        <time>2020-02-01T09:50:54.000Z</time>
      </trkpt>
      <trkpt lat="42.84553" lon="0.50116">
        <ele>1629</ele>
        <time>2020-02-01T09:50:55.000Z</time>
      </trkpt>
      <trkpt lat="42.84553" lon="0.50116">
        <ele>1629</ele>
        <time>2020-02-01T09:50:56.000Z</time>
      </trkpt>
      <trkpt lat="42.84552" lon="0.50116">
        <ele>1630</ele>
        <time>2020-02-01T09:50:57.000Z</time>
      </trkpt>
      <trkpt lat="42.84552" lon="0.50116">
        <ele>1630</ele>
        <time>2020-02-01T09:50:58.000Z</time>
      </trkpt>
      <trkpt lat="42.84551" lon="0.50117">
        <ele>1630</ele>
        <time>2020-02-01T09:50:59.000Z</time>
      </trkpt>
      <trkpt lat="42.84551" lon="0.50117">
        <ele>1630</ele>
        <time>2020-02-01T09:51:00.000Z</time>
      </trkpt>
      <trkpt lat="42.84551" lon="0.50117">
        <ele>1630</ele>
        <time>2020-02-01T09:51:01.000Z</time>
      </trkpt>
      <trkpt lat="42.8455" lon="0.50117">
        <ele>1630</ele>
        <time>2020-02-01T09:51:02.000Z</time>
      </trkpt>
      <trkpt lat="42.8455" lon="0.50117">
        <ele>1630</ele>
        <time>2020-02-01T09:51:03.000Z</time>
      </trkpt>
      <trkpt lat="42.84549" lon="0.50117">
        <ele>1630</ele>
        <time>2020-02-01T09:51:04.000Z</time>
      </trkpt>
      <trkpt lat="42.84549" lon="0.50118">
        <ele>1631</ele>
        <time>2020-02-01T09:51:05.000Z</time>
      </trkpt>
      <trkpt lat="42.84549" lon="0.50118">
        <ele>1631</ele>
        <time>2020-02-01T09:51:06.000Z</time>
      </trkpt>
      <trkpt lat="42.84548" lon="0.50118">
        <ele>1631</ele>
        <time>2020-02-01T09:51:07.000Z</time>
      </trkpt>
      <trkpt lat="42.84548" lon="0.50118">
        <ele>1631</ele>
        <time>2020-02-01T09:51:08.000Z</time>
      </trkpt>
      <trkpt lat="42.84548" lon="0.50119">
        <ele>1631</ele>
        <time>2020-02-01T09:51:09.000Z</time>
      </trkpt>
      <trkpt lat="42.84547" lon="0.50119">
        <ele>1631</ele>
        <time>2020-02-01T09:51:10.000Z</time>
      </trkpt>
      <trkpt lat="42.84547" lon="0.5012">
        <ele>1631</ele>
        <time>2020-02-01T09:51:11.000Z</time>
      </trkpt>
      <trkpt lat="42.84547" lon="0.5012">
        <ele>1631</ele>
        <time>2020-02-01T09:51:12.000Z</time>
      </trkpt>
      <trkpt lat="42.84546" lon="0.5012">
        <ele>1631</ele>
        <time>2020-02-01T09:51:13.000Z</time>
      </trkpt>
      <trkpt lat="42.84546" lon="0.50121">
        <ele>1631.3</ele>
        <time>2020-02-01T09:51:14.000Z</time>
      </trkpt>
      <trkpt lat="42.84546" lon="0.50121">
        <ele>1631.7</ele>
        <time>2020-02-01T09:51:15.000Z</time>
      </trkpt>
      <trkpt lat="42.84546" lon="0.50121">
        <ele>1632</ele>
        <time>2020-02-01T09:51:16.000Z</time>
      </trkpt>
      <trkpt lat="42.84545" lon="0.50121">
        <ele>1632</ele>
        <time>2020-02-01T09:51:17.000Z</time>
      </trkpt>
      <trkpt lat="42.84545" lon="0.50121">
        <ele>1632</ele>
        <time>2020-02-01T09:51:18.000Z</time>
      </trkpt>
      <trkpt lat="42.84545" lon="0.50122">
        <ele>1632</ele>
        <time>2020-02-01T09:51:19.000Z</time>
      </trkpt>
      <trkpt lat="42.84545" lon="0.50122">
        <ele>1632</ele>
        <time>2020-02-01T09:51:20.000Z</time>
      </trkpt>
      <trkpt lat="42.84545" lon="0.50122">
        <ele>1632</ele>
        <time>2020-02-01T09:51:21.000Z</time>
      </trkpt>
      <trkpt lat="42.84544" lon="0.50122">
        <ele>1632.3</ele>
        <time>2020-02-01T09:51:22.000Z</time>
      </trkpt>
      <trkpt lat="42.84544" lon="0.50122">
        <ele>1632.7</ele>
        <time>2020-02-01T09:51:23.000Z</time>
      </trkpt>
      <trkpt lat="42.84543" lon="0.50122">
        <ele>1633</ele>
        <time>2020-02-01T09:51:24.000Z</time>
      </trkpt>
      <trkpt lat="42.84543" lon="0.50123">
        <ele>1633</ele>
        <time>2020-02-01T09:51:25.000Z</time>
      </trkpt>
      <trkpt lat="42.84543" lon="0.50123">
        <ele>1633</ele>
        <time>2020-02-01T09:51:26.000Z</time>
      </trkpt>
      <trkpt lat="42.84542" lon="0.50123">
        <ele>1633</ele>
        <time>2020-02-01T09:51:27.000Z</time>
      </trkpt>
      <trkpt lat="42.84542" lon="0.50123">
        <ele>1633</ele>
        <time>2020-02-01T09:51:28.000Z</time>
      </trkpt>
      <trkpt lat="42.84542" lon="0.50123">
        <ele>1633</ele>
        <time>2020-02-01T09:51:29.000Z</time>
      </trkpt>
      <trkpt lat="42.84542" lon="0.50123">
        <ele>1633</ele>
        <time>2020-02-01T09:51:30.000Z</time>
      </trkpt>
      <trkpt lat="42.84542" lon="0.50124">
        <ele>1633</ele>
        <time>2020-02-01T09:51:31.000Z</time>
      </trkpt>
      <trkpt lat="42.84542" lon="0.50124">
        <ele>1633.3</ele>
        <time>2020-02-01T09:51:32.000Z</time>
      </trkpt>
      <trkpt lat="42.84542" lon="0.50124">
        <ele>1633.7</ele>
        <time>2020-02-01T09:51:33.000Z</time>
      </trkpt>
      <trkpt lat="42.84542" lon="0.50124">
        <ele>1634</ele>
        <time>2020-02-01T09:51:34.000Z</time>
      </trkpt>
      <trkpt lat="42.84542" lon="0.50124">
        <ele>1634</ele>
        <time>2020-02-01T09:51:35.000Z</time>
      </trkpt>
      <trkpt lat="42.84542" lon="0.50124">
        <ele>1634</ele>
        <time>2020-02-01T09:51:36.000Z</time>
      </trkpt>
      <trkpt lat="42.84541" lon="0.50124">
        <ele>1634</ele>
        <time>2020-02-01T09:51:37.000Z</time>
      </trkpt>
      <trkpt lat="42.84541" lon="0.50124">
        <ele>1634</ele>
        <time>2020-02-01T09:51:38.000Z</time>
      </trkpt>
      <trkpt lat="42.84541" lon="0.50124">
        <ele>1634</ele>
        <time>2020-02-01T09:51:39.000Z</time>
      </trkpt>
      <trkpt lat="42.84541" lon="0.50124">
        <ele>1634</ele>
        <time>2020-02-01T09:51:40.000Z</time>
      </trkpt>
      <trkpt lat="42.84541" lon="0.50124">
        <ele>1635</ele>
        <time>2020-02-01T09:51:41.000Z</time>
      </trkpt>
      <trkpt lat="42.84541" lon="0.50124">
        <ele>1635</ele>
        <time>2020-02-01T09:51:42.000Z</time>
      </trkpt>
      <trkpt lat="42.84541" lon="0.50124">
        <ele>1635</ele>
        <time>2020-02-01T09:51:43.000Z</time>
      </trkpt>
      <trkpt lat="42.84541" lon="0.50124">
        <ele>1635</ele>
        <time>2020-02-01T09:51:44.000Z</time>
      </trkpt>
      <trkpt lat="42.8454" lon="0.50124">
        <ele>1635</ele>
        <time>2020-02-01T09:51:45.000Z</time>
      </trkpt>
      <trkpt lat="42.8454" lon="0.50123">
        <ele>1635</ele>
        <time>2020-02-01T09:51:46.000Z</time>
      </trkpt>
      <trkpt lat="42.8454" lon="0.50123">
        <ele>1635</ele>
        <time>2020-02-01T09:51:47.000Z</time>
      </trkpt>
      <trkpt lat="42.8454" lon="0.50123">
        <ele>1635</ele>
        <time>2020-02-01T09:51:48.000Z</time>
      </trkpt>
      <trkpt lat="42.8454" lon="0.50122">
        <ele>1635</ele>
        <time>2020-02-01T09:51:49.000Z</time>
      </trkpt>
      <trkpt lat="42.8454" lon="0.50122">
        <ele>1635</ele>
        <time>2020-02-01T09:51:50.000Z</time>
      </trkpt>
      <trkpt lat="42.84541" lon="0.50123">
        <ele>1635</ele>
        <time>2020-02-01T09:51:51.000Z</time>
      </trkpt>
      <trkpt lat="42.84541" lon="0.50123">
        <ele>1635</ele>
        <time>2020-02-01T09:51:52.000Z</time>
      </trkpt>
      <trkpt lat="42.84542" lon="0.50124">
        <ele>1635</ele>
        <time>2020-02-01T09:51:53.000Z</time>
      </trkpt>
      <trkpt lat="42.84542" lon="0.50125">
        <ele>1635</ele>
        <time>2020-02-01T09:51:54.000Z</time>
      </trkpt>
      <trkpt lat="42.84541" lon="0.50125">
        <ele>1635</ele>
        <time>2020-02-01T09:51:55.000Z</time>
      </trkpt>
      <trkpt lat="42.84541" lon="0.50125">
        <ele>1635</ele>
        <time>2020-02-01T09:51:56.000Z</time>
      </trkpt>
      <trkpt lat="42.8454" lon="0.50125">
        <ele>1635</ele>
        <time>2020-02-01T09:51:57.000Z</time>
      </trkpt>
      <trkpt lat="42.84539" lon="0.50125">
        <ele>1635</ele>
        <time>2020-02-01T09:51:58.000Z</time>
      </trkpt>
      <trkpt lat="42.84538" lon="0.50125">
        <ele>1635</ele>
        <time>2020-02-01T09:51:59.000Z</time>
      </trkpt>
      <trkpt lat="42.84537" lon="0.50124">
        <ele>1635</ele>
        <time>2020-02-01T09:52:00.000Z</time>
      </trkpt>
      <trkpt lat="42.84537" lon="0.50124">
        <ele>1635.5</ele>
        <time>2020-02-01T09:52:01.000Z</time>
      </trkpt>
      <trkpt lat="42.84536" lon="0.50123">
        <ele>1636</ele>
        <time>2020-02-01T09:52:02.000Z</time>
      </trkpt>
      <trkpt lat="42.84535" lon="0.50122">
        <ele>1636</ele>
        <time>2020-02-01T09:52:03.000Z</time>
      </trkpt>
      <trkpt lat="42.84534" lon="0.5012">
        <ele>1636</ele>
        <time>2020-02-01T09:52:04.000Z</time>
      </trkpt>
      <trkpt lat="42.84533" lon="0.50119">
        <ele>1636</ele>
        <time>2020-02-01T09:52:05.000Z</time>
      </trkpt>
      <trkpt lat="42.84533" lon="0.50119">
        <ele>1636</ele>
        <time>2020-02-01T09:52:06.000Z</time>
      </trkpt>
      <trkpt lat="42.84533" lon="0.50119">
        <ele>1636</ele>
        <time>2020-02-01T09:52:07.000Z</time>
      </trkpt>
      <trkpt lat="42.84533" lon="0.50119">
        <ele>1636.3</ele>
        <time>2020-02-01T09:52:08.000Z</time>
      </trkpt>
      <trkpt lat="42.84533" lon="0.50118">
        <ele>1636.7</ele>
        <time>2020-02-01T09:52:09.000Z</time>
      </trkpt>
      <trkpt lat="42.84533" lon="0.50118">
        <ele>1637</ele>
        <time>2020-02-01T09:52:10.000Z</time>
      </trkpt>
      <trkpt lat="42.84533" lon="0.50118">
        <ele>1637</ele>
        <time>2020-02-01T09:52:11.000Z</time>
      </trkpt>
      <trkpt lat="42.84533" lon="0.50117">
        <ele>1637</ele>
        <time>2020-02-01T09:52:12.000Z</time>
      </trkpt>
      <trkpt lat="42.84533" lon="0.50117">
        <ele>1637</ele>
        <time>2020-02-01T09:52:13.000Z</time>
      </trkpt>
      <trkpt lat="42.84533" lon="0.50116">
        <ele>1637</ele>
        <time>2020-02-01T09:52:14.000Z</time>
      </trkpt>
      <trkpt lat="42.84533" lon="0.50116">
        <ele>1637.5</ele>
        <time>2020-02-01T09:52:15.000Z</time>
      </trkpt>
      <trkpt lat="42.84532" lon="0.50116">
        <ele>1638</ele>
        <time>2020-02-01T09:52:16.000Z</time>
      </trkpt>
      <trkpt lat="42.84532" lon="0.50115">
        <ele>1638</ele>
        <time>2020-02-01T09:52:17.000Z</time>
      </trkpt>
      <trkpt lat="42.84532" lon="0.50115">
        <ele>1638</ele>
        <time>2020-02-01T09:52:18.000Z</time>
      </trkpt>
      <trkpt lat="42.84531" lon="0.50115">
        <ele>1638</ele>
        <time>2020-02-01T09:52:19.000Z</time>
      </trkpt>
      <trkpt lat="42.84531" lon="0.50115">
        <ele>1638</ele>
        <time>2020-02-01T09:52:20.000Z</time>
      </trkpt>
      <trkpt lat="42.84531" lon="0.50115">
        <ele>1638</ele>
        <time>2020-02-01T09:52:21.000Z</time>
      </trkpt>
      <trkpt lat="42.84531" lon="0.50114">
        <ele>1638</ele>
        <time>2020-02-01T09:52:22.000Z</time>
      </trkpt>
      <trkpt lat="42.8453" lon="0.50114">
        <ele>1638</ele>
        <time>2020-02-01T09:52:23.000Z</time>
      </trkpt>
      <trkpt lat="42.8453" lon="0.50114">
        <ele>1638</ele>
        <time>2020-02-01T09:52:24.000Z</time>
      </trkpt>
      <trkpt lat="42.8453" lon="0.50114">
        <ele>1638</ele>
        <time>2020-02-01T09:52:25.000Z</time>
      </trkpt>
      <trkpt lat="42.8453" lon="0.50114">
        <ele>1638</ele>
        <time>2020-02-01T09:52:26.000Z</time>
      </trkpt>
      <trkpt lat="42.8453" lon="0.50114">
        <ele>1638</ele>
        <time>2020-02-01T09:52:27.000Z</time>
      </trkpt>
      <trkpt lat="42.8453" lon="0.50114">
        <ele>1638</ele>
        <time>2020-02-01T09:52:28.000Z</time>
      </trkpt>
      <trkpt lat="42.84531" lon="0.50114">
        <ele>1638</ele>
        <time>2020-02-01T09:52:29.000Z</time>
      </trkpt>
      <trkpt lat="42.84531" lon="0.50114">
        <ele>1638</ele>
        <time>2020-02-01T09:52:30.000Z</time>
      </trkpt>
      <trkpt lat="42.84531" lon="0.50114">
        <ele>1638</ele>
        <time>2020-02-01T09:52:31.000Z</time>
      </trkpt>
      <trkpt lat="42.84531" lon="0.50114">
        <ele>1638</ele>
        <time>2020-02-01T09:52:32.000Z</time>
      </trkpt>
      <trkpt lat="42.84531" lon="0.50113">
        <ele>1638</ele>
        <time>2020-02-01T09:52:33.000Z</time>
      </trkpt>
      <trkpt lat="42.84532" lon="0.50113">
        <ele>1638</ele>
        <time>2020-02-01T09:52:34.000Z</time>
      </trkpt>
      <trkpt lat="42.84532" lon="0.50112">
        <ele>1638.5</ele>
        <time>2020-02-01T09:52:35.000Z</time>
      </trkpt>
      <trkpt lat="42.84532" lon="0.50112">
        <ele>1639</ele>
        <time>2020-02-01T09:52:36.000Z</time>
      </trkpt>
      <trkpt lat="42.84532" lon="0.50111">
        <ele>1639</ele>
        <time>2020-02-01T09:52:37.000Z</time>
      </trkpt>
      <trkpt lat="42.84533" lon="0.50111">
        <ele>1639</ele>
        <time>2020-02-01T09:52:38.000Z</time>
      </trkpt>
      <trkpt lat="42.84533" lon="0.50111">
        <ele>1639</ele>
        <time>2020-02-01T09:52:39.000Z</time>
      </trkpt>
      <trkpt lat="42.84533" lon="0.50111">
        <ele>1639</ele>
        <time>2020-02-01T09:52:40.000Z</time>
      </trkpt>
      <trkpt lat="42.84533" lon="0.50111">
        <ele>1639</ele>
        <time>2020-02-01T09:52:41.000Z</time>
      </trkpt>
      <trkpt lat="42.84533" lon="0.50111">
        <ele>1639</ele>
        <time>2020-02-01T09:52:42.000Z</time>
      </trkpt>
      <trkpt lat="42.84532" lon="0.50111">
        <ele>1640</ele>
        <time>2020-02-01T09:52:43.000Z</time>
      </trkpt>
      <trkpt lat="42.84532" lon="0.50111">
        <ele>1640</ele>
        <time>2020-02-01T09:52:44.000Z</time>
      </trkpt>
      <trkpt lat="42.84533" lon="0.50111">
        <ele>1640</ele>
        <time>2020-02-01T09:52:45.000Z</time>
      </trkpt>
      <trkpt lat="42.84533" lon="0.50111">
        <ele>1640</ele>
        <time>2020-02-01T09:52:46.000Z</time>
      </trkpt>
      <trkpt lat="42.84533" lon="0.5011">
        <ele>1640</ele>
        <time>2020-02-01T09:52:47.000Z</time>
      </trkpt>
      <trkpt lat="42.84533" lon="0.5011">
        <ele>1640</ele>
        <time>2020-02-01T09:52:48.000Z</time>
      </trkpt>
      <trkpt lat="42.84533" lon="0.5011">
        <ele>1640</ele>
        <time>2020-02-01T09:52:49.000Z</time>
      </trkpt>
      <trkpt lat="42.84533" lon="0.5011">
        <ele>1640</ele>
        <time>2020-02-01T09:52:50.000Z</time>
      </trkpt>
      <trkpt lat="42.84534" lon="0.50109">
        <ele>1640</ele>
        <time>2020-02-01T09:52:51.000Z</time>
      </trkpt>
      <trkpt lat="42.84534" lon="0.50109">
        <ele>1640</ele>
        <time>2020-02-01T09:52:52.000Z</time>
      </trkpt>
      <trkpt lat="42.84534" lon="0.50108">
        <ele>1640</ele>
        <time>2020-02-01T09:52:53.000Z</time>
      </trkpt>
      <trkpt lat="42.84535" lon="0.50108">
        <ele>1640</ele>
        <time>2020-02-01T09:52:54.000Z</time>
      </trkpt>
      <trkpt lat="42.84535" lon="0.50107">
        <ele>1640</ele>
        <time>2020-02-01T09:52:55.000Z</time>
      </trkpt>
      <trkpt lat="42.84535" lon="0.50107">
        <ele>1640</ele>
        <time>2020-02-01T09:52:56.000Z</time>
      </trkpt>
      <trkpt lat="42.84535" lon="0.50107">
        <ele>1640</ele>
        <time>2020-02-01T09:52:57.000Z</time>
      </trkpt>
      <trkpt lat="42.84535" lon="0.50107">
        <ele>1640</ele>
        <time>2020-02-01T09:52:58.000Z</time>
      </trkpt>
      <trkpt lat="42.84535" lon="0.50107">
        <ele>1640</ele>
        <time>2020-02-01T09:52:59.000Z</time>
      </trkpt>
      <trkpt lat="42.84535" lon="0.50107">
        <ele>1640</ele>
        <time>2020-02-01T09:53:00.000Z</time>
      </trkpt>
      <trkpt lat="42.84535" lon="0.50107">
        <ele>1640</ele>
        <time>2020-02-01T09:53:01.000Z</time>
      </trkpt>
      <trkpt lat="42.84535" lon="0.50107">
        <ele>1640</ele>
        <time>2020-02-01T09:53:02.000Z</time>
      </trkpt>
      <trkpt lat="42.84535" lon="0.50107">
        <ele>1640</ele>
        <time>2020-02-01T09:53:03.000Z</time>
      </trkpt>
      <trkpt lat="42.84535" lon="0.50107">
        <ele>1640</ele>
        <time>2020-02-01T09:53:04.000Z</time>
      </trkpt>
      <trkpt lat="42.84536" lon="0.50107">
        <ele>1640</ele>
        <time>2020-02-01T09:53:05.000Z</time>
      </trkpt>
      <trkpt lat="42.84536" lon="0.50107">
        <ele>1640</ele>
        <time>2020-02-01T09:53:06.000Z</time>
      </trkpt>
      <trkpt lat="42.84536" lon="0.50107">
        <ele>1640</ele>
        <time>2020-02-01T09:53:07.000Z</time>
      </trkpt>
      <trkpt lat="42.84536" lon="0.50107">
        <ele>1640</ele>
        <time>2020-02-01T09:53:08.000Z</time>
      </trkpt>
      <trkpt lat="42.84536" lon="0.50107">
        <ele>1640</ele>
        <time>2020-02-01T09:53:09.000Z</time>
      </trkpt>
      <trkpt lat="42.84537" lon="0.50107">
        <ele>1640</ele>
        <time>2020-02-01T09:53:10.000Z</time>
      </trkpt>
      <trkpt lat="42.84537" lon="0.50107">
        <ele>1639</ele>
        <time>2020-02-01T09:53:11.000Z</time>
      </trkpt>
      <trkpt lat="42.84537" lon="0.50107">
        <ele>1639</ele>
        <time>2020-02-01T09:53:12.000Z</time>
      </trkpt>
      <trkpt lat="42.84537" lon="0.50107">
        <ele>1639</ele>
        <time>2020-02-01T09:53:13.000Z</time>
      </trkpt>
      <trkpt lat="42.84537" lon="0.50107">
        <ele>1639</ele>
        <time>2020-02-01T09:53:14.000Z</time>
      </trkpt>
      <trkpt lat="42.84537" lon="0.50107">
        <ele>1639</ele>
        <time>2020-02-01T09:53:15.000Z</time>
      </trkpt>
      <trkpt lat="42.84537" lon="0.50107">
        <ele>1639</ele>
        <time>2020-02-01T09:53:16.000Z</time>
      </trkpt>
      <trkpt lat="42.84537" lon="0.50107">
        <ele>1639</ele>
        <time>2020-02-01T09:53:17.000Z</time>
      </trkpt>
      <trkpt lat="42.84537" lon="0.50107">
        <ele>1639</ele>
        <time>2020-02-01T09:53:18.000Z</time>
      </trkpt>
      <trkpt lat="42.84537" lon="0.50107">
        <ele>1639</ele>
        <time>2020-02-01T09:53:19.000Z</time>
      </trkpt>
      <trkpt lat="42.84537" lon="0.50107">
        <ele>1639</ele>
        <time>2020-02-01T09:53:20.000Z</time>
      </trkpt>
      <trkpt lat="42.84537" lon="0.50107">
        <ele>1639</ele>
        <time>2020-02-01T09:53:21.000Z</time>
      </trkpt>
      <trkpt lat="42.84537" lon="0.50107">
        <ele>1639</ele>
        <time>2020-02-01T09:53:22.000Z</time>
      </trkpt>
      <trkpt lat="42.84537" lon="0.50107">
        <ele>1639</ele>
        <time>2020-02-01T09:53:23.000Z</time>
      </trkpt>
      <trkpt lat="42.84537" lon="0.50107">
        <ele>1639</ele>
        <time>2020-02-01T09:53:24.000Z</time>
      </trkpt>
      <trkpt lat="42.84537" lon="0.50107">
        <ele>1639</ele>
        <time>2020-02-01T09:53:25.000Z</time>
      </trkpt>
      <trkpt lat="42.84537" lon="0.50107">
        <ele>1639</ele>
        <time>2020-02-01T09:53:26.000Z</time>
      </trkpt>
      <trkpt lat="42.84537" lon="0.50107">
        <ele>1640</ele>
        <time>2020-02-01T09:53:27.000Z</time>
      </trkpt>
      <trkpt lat="42.84537" lon="0.50107">
        <ele>1640</ele>
        <time>2020-02-01T09:53:28.000Z</time>
      </trkpt>
      <trkpt lat="42.84537" lon="0.50107">
        <ele>1640</ele>
        <time>2020-02-01T09:53:29.000Z</time>
      </trkpt>
      <trkpt lat="42.84537" lon="0.50107">
        <ele>1640</ele>
        <time>2020-02-01T09:53:30.000Z</time>
      </trkpt>
      <trkpt lat="42.84537" lon="0.50107">
        <ele>1640</ele>
        <time>2020-02-01T09:53:31.000Z</time>
      </trkpt>
      <trkpt lat="42.84537" lon="0.50107">
        <ele>1640</ele>
        <time>2020-02-01T09:53:32.000Z</time>
      </trkpt>
      <trkpt lat="42.84537" lon="0.50107">
        <ele>1640</ele>
        <time>2020-02-01T09:53:33.000Z</time>
      </trkpt>
      <trkpt lat="42.84537" lon="0.50107">
        <ele>1640</ele>
        <time>2020-02-01T09:53:34.000Z</time>
      </trkpt>
      <trkpt lat="42.84538" lon="0.50107">
        <ele>1640</ele>
        <time>2020-02-01T09:53:35.000Z</time>
      </trkpt>
      <trkpt lat="42.84538" lon="0.50107">
        <ele>1640</ele>
        <time>2020-02-01T09:53:36.000Z</time>
      </trkpt>
      <trkpt lat="42.84539" lon="0.50107">
        <ele>1639</ele>
        <time>2020-02-01T09:53:37.000Z</time>
      </trkpt>
      <trkpt lat="42.84539" lon="0.50107">
        <ele>1639</ele>
        <time>2020-02-01T09:53:38.000Z</time>
      </trkpt>
      <trkpt lat="42.8454" lon="0.50106">
        <ele>1639</ele>
        <time>2020-02-01T09:53:39.000Z</time>
      </trkpt>
      <trkpt lat="42.8454" lon="0.50106">
        <ele>1639</ele>
        <time>2020-02-01T09:53:40.000Z</time>
      </trkpt>
      <trkpt lat="42.84541" lon="0.50106">
        <ele>1639</ele>
        <time>2020-02-01T09:53:41.000Z</time>
      </trkpt>
      <trkpt lat="42.84541" lon="0.50106">
        <ele>1639</ele>
        <time>2020-02-01T09:53:42.000Z</time>
      </trkpt>
      <trkpt lat="42.84541" lon="0.50105">
        <ele>1639</ele>
        <time>2020-02-01T09:53:43.000Z</time>
      </trkpt>
      <trkpt lat="42.84542" lon="0.50105">
        <ele>1639</ele>
        <time>2020-02-01T09:53:44.000Z</time>
      </trkpt>
      <trkpt lat="42.84542" lon="0.50105">
        <ele>1639</ele>
        <time>2020-02-01T09:53:45.000Z</time>
      </trkpt>
      <trkpt lat="42.84542" lon="0.50105">
        <ele>1639</ele>
        <time>2020-02-01T09:53:46.000Z</time>
      </trkpt>
      <trkpt lat="42.84542" lon="0.50105">
        <ele>1639.5</ele>
        <time>2020-02-01T09:53:47.000Z</time>
      </trkpt>
      <trkpt lat="42.84543" lon="0.50105">
        <ele>1640</ele>
        <time>2020-02-01T09:53:48.000Z</time>
      </trkpt>
      <trkpt lat="42.84542" lon="0.50105">
        <ele>1640</ele>
        <time>2020-02-01T09:53:49.000Z</time>
      </trkpt>
      <trkpt lat="42.84542" lon="0.50106">
        <ele>1640</ele>
        <time>2020-02-01T09:53:50.000Z</time>
      </trkpt>
      <trkpt lat="42.84542" lon="0.50106">
        <ele>1640</ele>
        <time>2020-02-01T09:53:51.000Z</time>
      </trkpt>
      <trkpt lat="42.84542" lon="0.50107">
        <ele>1640</ele>
        <time>2020-02-01T09:53:52.000Z</time>
      </trkpt>
      <trkpt lat="42.84541" lon="0.50107">
        <ele>1640</ele>
        <time>2020-02-01T09:53:53.000Z</time>
      </trkpt>
      <trkpt lat="42.84541" lon="0.50108">
        <ele>1640</ele>
        <time>2020-02-01T09:53:54.000Z</time>
      </trkpt>
      <trkpt lat="42.84541" lon="0.50109">
        <ele>1640</ele>
        <time>2020-02-01T09:53:55.000Z</time>
      </trkpt>
      <trkpt lat="42.8454" lon="0.5011">
        <ele>1640</ele>
        <time>2020-02-01T09:53:56.000Z</time>
      </trkpt>
      <trkpt lat="42.8454" lon="0.50111">
        <ele>1640</ele>
        <time>2020-02-01T09:53:57.000Z</time>
      </trkpt>
      <trkpt lat="42.8454" lon="0.50112">
        <ele>1640</ele>
        <time>2020-02-01T09:53:58.000Z</time>
      </trkpt>
      <trkpt lat="42.8454" lon="0.50113">
        <ele>1640</ele>
        <time>2020-02-01T09:53:59.000Z</time>
      </trkpt>
      <trkpt lat="42.8454" lon="0.50114">
        <ele>1640</ele>
        <time>2020-02-01T09:54:00.000Z</time>
      </trkpt>
      <trkpt lat="42.8454" lon="0.50115">
        <ele>1640</ele>
        <time>2020-02-01T09:54:01.000Z</time>
      </trkpt>
      <trkpt lat="42.84539" lon="0.50116">
        <ele>1640</ele>
        <time>2020-02-01T09:54:02.000Z</time>
      </trkpt>
      <trkpt lat="42.84539" lon="0.50117">
        <ele>1640.5</ele>
        <time>2020-02-01T09:54:03.000Z</time>
      </trkpt>
      <trkpt lat="42.84539" lon="0.50118">
        <ele>1641</ele>
        <time>2020-02-01T09:54:04.000Z</time>
      </trkpt>
      <trkpt lat="42.84539" lon="0.50119">
        <ele>1641</ele>
        <time>2020-02-01T09:54:05.000Z</time>
      </trkpt>
      <trkpt lat="42.84539" lon="0.5012">
        <ele>1641</ele>
        <time>2020-02-01T09:54:06.000Z</time>
      </trkpt>
      <trkpt lat="42.84539" lon="0.5012">
        <ele>1641</ele>
        <time>2020-02-01T09:54:07.000Z</time>
      </trkpt>
      <trkpt lat="42.84539" lon="0.50121">
        <ele>1641</ele>
        <time>2020-02-01T09:54:08.000Z</time>
      </trkpt>
      <trkpt lat="42.84538" lon="0.50121">
        <ele>1641</ele>
        <time>2020-02-01T09:54:09.000Z</time>
      </trkpt>
      <trkpt lat="42.84538" lon="0.50122">
        <ele>1641</ele>
        <time>2020-02-01T09:54:10.000Z</time>
      </trkpt>
      <trkpt lat="42.84537" lon="0.50122">
        <ele>1641</ele>
        <time>2020-02-01T09:54:11.000Z</time>
      </trkpt>
      <trkpt lat="42.84537" lon="0.50123">
        <ele>1641</ele>
        <time>2020-02-01T09:54:12.000Z</time>
      </trkpt>
      <trkpt lat="42.84536" lon="0.50124">
        <ele>1641</ele>
        <time>2020-02-01T09:54:13.000Z</time>
      </trkpt>
      <trkpt lat="42.84536" lon="0.50124">
        <ele>1641</ele>
        <time>2020-02-01T09:54:14.000Z</time>
      </trkpt>
      <trkpt lat="42.84536" lon="0.50125">
        <ele>1642</ele>
        <time>2020-02-01T09:54:15.000Z</time>
      </trkpt>
      <trkpt lat="42.84535" lon="0.50126">
        <ele>1642</ele>
        <time>2020-02-01T09:54:16.000Z</time>
      </trkpt>
      <trkpt lat="42.84535" lon="0.50127">
        <ele>1642</ele>
        <time>2020-02-01T09:54:17.000Z</time>
      </trkpt>
      <trkpt lat="42.84534" lon="0.50128">
        <ele>1642</ele>
        <time>2020-02-01T09:54:18.000Z</time>
      </trkpt>
      <trkpt lat="42.84533" lon="0.50128">
        <ele>1642</ele>
        <time>2020-02-01T09:54:19.000Z</time>
      </trkpt>
      <trkpt lat="42.84533" lon="0.50129">
        <ele>1642</ele>
        <time>2020-02-01T09:54:20.000Z</time>
      </trkpt>
      <trkpt lat="42.84532" lon="0.50129">
        <ele>1642</ele>
        <time>2020-02-01T09:54:21.000Z</time>
      </trkpt>
      <trkpt lat="42.84531" lon="0.5013">
        <ele>1642</ele>
        <time>2020-02-01T09:54:22.000Z</time>
      </trkpt>
      <trkpt lat="42.84531" lon="0.50131">
        <ele>1642</ele>
        <time>2020-02-01T09:54:23.000Z</time>
      </trkpt>
      <trkpt lat="42.8453" lon="0.50131">
        <ele>1642</ele>
        <time>2020-02-01T09:54:24.000Z</time>
      </trkpt>
      <trkpt lat="42.8453" lon="0.50132">
        <ele>1642</ele>
        <time>2020-02-01T09:54:25.000Z</time>
      </trkpt>
      <trkpt lat="42.84529" lon="0.50133">
        <ele>1642.5</ele>
        <time>2020-02-01T09:54:26.000Z</time>
      </trkpt>
      <trkpt lat="42.84529" lon="0.50134">
        <ele>1643</ele>
        <time>2020-02-01T09:54:27.000Z</time>
      </trkpt>
      <trkpt lat="42.84529" lon="0.50136">
        <ele>1643</ele>
        <time>2020-02-01T09:54:28.000Z</time>
      </trkpt>
      <trkpt lat="42.84529" lon="0.50137">
        <ele>1643</ele>
        <time>2020-02-01T09:54:29.000Z</time>
      </trkpt>
      <trkpt lat="42.84529" lon="0.50138">
        <ele>1643</ele>
        <time>2020-02-01T09:54:30.000Z</time>
      </trkpt>
      <trkpt lat="42.84529" lon="0.50139">
        <ele>1643</ele>
        <time>2020-02-01T09:54:31.000Z</time>
      </trkpt>
      <trkpt lat="42.84529" lon="0.50139">
        <ele>1643</ele>
        <time>2020-02-01T09:54:32.000Z</time>
      </trkpt>
      <trkpt lat="42.84529" lon="0.5014">
        <ele>1643</ele>
        <time>2020-02-01T09:54:33.000Z</time>
      </trkpt>
      <trkpt lat="42.84529" lon="0.5014">
        <ele>1643</ele>
        <time>2020-02-01T09:54:34.000Z</time>
      </trkpt>
      <trkpt lat="42.84529" lon="0.5014">
        <ele>1643</ele>
        <time>2020-02-01T09:54:35.000Z</time>
      </trkpt>
      <trkpt lat="42.84529" lon="0.50141">
        <ele>1643.5</ele>
        <time>2020-02-01T09:54:36.000Z</time>
      </trkpt>
      <trkpt lat="42.84529" lon="0.50142">
        <ele>1644</ele>
        <time>2020-02-01T09:54:37.000Z</time>
      </trkpt>
      <trkpt lat="42.84529" lon="0.50143">
        <ele>1644</ele>
        <time>2020-02-01T09:54:38.000Z</time>
      </trkpt>
      <trkpt lat="42.84528" lon="0.50144">
        <ele>1644</ele>
        <time>2020-02-01T09:54:39.000Z</time>
      </trkpt>
      <trkpt lat="42.84528" lon="0.50145">
        <ele>1644</ele>
        <time>2020-02-01T09:54:40.000Z</time>
      </trkpt>
      <trkpt lat="42.84528" lon="0.50146">
        <ele>1644</ele>
        <time>2020-02-01T09:54:41.000Z</time>
      </trkpt>
      <trkpt lat="42.84527" lon="0.50146">
        <ele>1644</ele>
        <time>2020-02-01T09:54:42.000Z</time>
      </trkpt>
      <trkpt lat="42.84527" lon="0.50147">
        <ele>1644</ele>
        <time>2020-02-01T09:54:43.000Z</time>
      </trkpt>
      <trkpt lat="42.84527" lon="0.50147">
        <ele>1644</ele>
        <time>2020-02-01T09:54:44.000Z</time>
      </trkpt>
      <trkpt lat="42.84527" lon="0.50148">
        <ele>1644</ele>
        <time>2020-02-01T09:54:45.000Z</time>
      </trkpt>
      <trkpt lat="42.84527" lon="0.50148">
        <ele>1644</ele>
        <time>2020-02-01T09:54:46.000Z</time>
      </trkpt>
      <trkpt lat="42.84527" lon="0.50148">
        <ele>1644</ele>
        <time>2020-02-01T09:54:47.000Z</time>
      </trkpt>
      <trkpt lat="42.84527" lon="0.50148">
        <ele>1644</ele>
        <time>2020-02-01T09:54:48.000Z</time>
      </trkpt>
      <trkpt lat="42.84527" lon="0.50149">
        <ele>1644</ele>
        <time>2020-02-01T09:54:49.000Z</time>
      </trkpt>
      <trkpt lat="42.84527" lon="0.5015">
        <ele>1644</ele>
        <time>2020-02-01T09:54:50.000Z</time>
      </trkpt>
      <trkpt lat="42.84526" lon="0.50151">
        <ele>1644</ele>
        <time>2020-02-01T09:54:51.000Z</time>
      </trkpt>
      <trkpt lat="42.84526" lon="0.50152">
        <ele>1644</ele>
        <time>2020-02-01T09:54:52.000Z</time>
      </trkpt>
      <trkpt lat="42.84525" lon="0.50154">
        <ele>1644</ele>
        <time>2020-02-01T09:54:53.000Z</time>
      </trkpt>
      <trkpt lat="42.84525" lon="0.50155">
        <ele>1644</ele>
        <time>2020-02-01T09:54:54.000Z</time>
      </trkpt>
      <trkpt lat="42.84524" lon="0.50157">
        <ele>1644</ele>
        <time>2020-02-01T09:54:55.000Z</time>
      </trkpt>
      <trkpt lat="42.84523" lon="0.50158">
        <ele>1644</ele>
        <time>2020-02-01T09:54:56.000Z</time>
      </trkpt>
      <trkpt lat="42.84522" lon="0.50159">
        <ele>1644</ele>
        <time>2020-02-01T09:54:57.000Z</time>
      </trkpt>
      <trkpt lat="42.84522" lon="0.5016">
        <ele>1644</ele>
        <time>2020-02-01T09:54:58.000Z</time>
      </trkpt>
      <trkpt lat="42.84521" lon="0.5016">
        <ele>1644</ele>
        <time>2020-02-01T09:54:59.000Z</time>
      </trkpt>
      <trkpt lat="42.8452" lon="0.50161">
        <ele>1644</ele>
        <time>2020-02-01T09:55:00.000Z</time>
      </trkpt>
      <trkpt lat="42.8452" lon="0.50161">
        <ele>1644</ele>
        <time>2020-02-01T09:55:01.000Z</time>
      </trkpt>
      <trkpt lat="42.84519" lon="0.50162">
        <ele>1644</ele>
        <time>2020-02-01T09:55:02.000Z</time>
      </trkpt>
      <trkpt lat="42.84519" lon="0.50162">
        <ele>1645</ele>
        <time>2020-02-01T09:55:03.000Z</time>
      </trkpt>
      <trkpt lat="42.84518" lon="0.50163">
        <ele>1645</ele>
        <time>2020-02-01T09:55:04.000Z</time>
      </trkpt>
      <trkpt lat="42.84518" lon="0.50164">
        <ele>1645</ele>
        <time>2020-02-01T09:55:05.000Z</time>
      </trkpt>
      <trkpt lat="42.84517" lon="0.50165">
        <ele>1645</ele>
        <time>2020-02-01T09:55:06.000Z</time>
      </trkpt>
      <trkpt lat="42.84517" lon="0.50166">
        <ele>1645</ele>
        <time>2020-02-01T09:55:07.000Z</time>
      </trkpt>
      <trkpt lat="42.84516" lon="0.50168">
        <ele>1645.5</ele>
        <time>2020-02-01T09:55:08.000Z</time>
      </trkpt>
      <trkpt lat="42.84516" lon="0.50169">
        <ele>1646</ele>
        <time>2020-02-01T09:55:09.000Z</time>
      </trkpt>
      <trkpt lat="42.84515" lon="0.5017">
        <ele>1646</ele>
        <time>2020-02-01T09:55:10.000Z</time>
      </trkpt>
      <trkpt lat="42.84515" lon="0.50171">
        <ele>1646</ele>
        <time>2020-02-01T09:55:11.000Z</time>
      </trkpt>
      <trkpt lat="42.84514" lon="0.50173">
        <ele>1646</ele>
        <time>2020-02-01T09:55:12.000Z</time>
      </trkpt>
      <trkpt lat="42.84514" lon="0.50174">
        <ele>1646</ele>
        <time>2020-02-01T09:55:13.000Z</time>
      </trkpt>
      <trkpt lat="42.84513" lon="0.50175">
        <ele>1646</ele>
        <time>2020-02-01T09:55:14.000Z</time>
      </trkpt>
      <trkpt lat="42.84513" lon="0.50176">
        <ele>1646</ele>
        <time>2020-02-01T09:55:15.000Z</time>
      </trkpt>
      <trkpt lat="42.84512" lon="0.50176">
        <ele>1646</ele>
        <time>2020-02-01T09:55:16.000Z</time>
      </trkpt>
      <trkpt lat="42.84512" lon="0.50177">
        <ele>1646</ele>
        <time>2020-02-01T09:55:17.000Z</time>
      </trkpt>
      <trkpt lat="42.84512" lon="0.50178">
        <ele>1646</ele>
        <time>2020-02-01T09:55:18.000Z</time>
      </trkpt>
      <trkpt lat="42.84512" lon="0.50178">
        <ele>1646</ele>
        <time>2020-02-01T09:55:19.000Z</time>
      </trkpt>
      <trkpt lat="42.84512" lon="0.50179">
        <ele>1646.5</ele>
        <time>2020-02-01T09:55:20.000Z</time>
      </trkpt>
      <trkpt lat="42.84512" lon="0.5018">
        <ele>1647</ele>
        <time>2020-02-01T09:55:21.000Z</time>
      </trkpt>
      <trkpt lat="42.84512" lon="0.50181">
        <ele>1647</ele>
        <time>2020-02-01T09:55:22.000Z</time>
      </trkpt>
      <trkpt lat="42.84512" lon="0.50182">
        <ele>1647</ele>
        <time>2020-02-01T09:55:23.000Z</time>
      </trkpt>
      <trkpt lat="42.84512" lon="0.50183">
        <ele>1647</ele>
        <time>2020-02-01T09:55:24.000Z</time>
      </trkpt>
      <trkpt lat="42.84512" lon="0.50184">
        <ele>1647</ele>
        <time>2020-02-01T09:55:25.000Z</time>
      </trkpt>
      <trkpt lat="42.84512" lon="0.50186">
        <ele>1647</ele>
        <time>2020-02-01T09:55:26.000Z</time>
      </trkpt>
      <trkpt lat="42.84512" lon="0.50187">
        <ele>1647</ele>
        <time>2020-02-01T09:55:27.000Z</time>
      </trkpt>
      <trkpt lat="42.84512" lon="0.50188">
        <ele>1647</ele>
        <time>2020-02-01T09:55:28.000Z</time>
      </trkpt>
      <trkpt lat="42.84511" lon="0.5019">
        <ele>1647</ele>
        <time>2020-02-01T09:55:29.000Z</time>
      </trkpt>
      <trkpt lat="42.84511" lon="0.50191">
        <ele>1647</ele>
        <time>2020-02-01T09:55:30.000Z</time>
      </trkpt>
      <trkpt lat="42.8451" lon="0.50192">
        <ele>1648</ele>
        <time>2020-02-01T09:55:31.000Z</time>
      </trkpt>
      <trkpt lat="42.8451" lon="0.50194">
        <ele>1648</ele>
        <time>2020-02-01T09:55:32.000Z</time>
      </trkpt>
      <trkpt lat="42.8451" lon="0.50195">
        <ele>1648</ele>
        <time>2020-02-01T09:55:33.000Z</time>
      </trkpt>
      <trkpt lat="42.84509" lon="0.50196">
        <ele>1648</ele>
        <time>2020-02-01T09:55:34.000Z</time>
      </trkpt>
      <trkpt lat="42.84509" lon="0.50196">
        <ele>1648</ele>
        <time>2020-02-01T09:55:35.000Z</time>
      </trkpt>
      <trkpt lat="42.84509" lon="0.50197">
        <ele>1648</ele>
        <time>2020-02-01T09:55:36.000Z</time>
      </trkpt>
      <trkpt lat="42.84508" lon="0.50198">
        <ele>1648</ele>
        <time>2020-02-01T09:55:37.000Z</time>
      </trkpt>
      <trkpt lat="42.84508" lon="0.50198">
        <ele>1648</ele>
        <time>2020-02-01T09:55:38.000Z</time>
      </trkpt>
      <trkpt lat="42.84508" lon="0.50199">
        <ele>1648</ele>
        <time>2020-02-01T09:55:39.000Z</time>
      </trkpt>
      <trkpt lat="42.84507" lon="0.50199">
        <ele>1648</ele>
        <time>2020-02-01T09:55:40.000Z</time>
      </trkpt>
      <trkpt lat="42.84507" lon="0.502">
        <ele>1648.5</ele>
        <time>2020-02-01T09:55:41.000Z</time>
      </trkpt>
      <trkpt lat="42.84507" lon="0.50201">
        <ele>1649</ele>
        <time>2020-02-01T09:55:42.000Z</time>
      </trkpt>
      <trkpt lat="42.84506" lon="0.50202">
        <ele>1649</ele>
        <time>2020-02-01T09:55:43.000Z</time>
      </trkpt>
      <trkpt lat="42.84506" lon="0.50203">
        <ele>1649</ele>
        <time>2020-02-01T09:55:44.000Z</time>
      </trkpt>
      <trkpt lat="42.84506" lon="0.50204">
        <ele>1649</ele>
        <time>2020-02-01T09:55:45.000Z</time>
      </trkpt>
      <trkpt lat="42.84505" lon="0.50205">
        <ele>1649</ele>
        <time>2020-02-01T09:55:46.000Z</time>
      </trkpt>
      <trkpt lat="42.84505" lon="0.50206">
        <ele>1649</ele>
        <time>2020-02-01T09:55:47.000Z</time>
      </trkpt>
      <trkpt lat="42.84504" lon="0.50207">
        <ele>1649</ele>
        <time>2020-02-01T09:55:48.000Z</time>
      </trkpt>
      <trkpt lat="42.84504" lon="0.50208">
        <ele>1649</ele>
        <time>2020-02-01T09:55:49.000Z</time>
      </trkpt>
      <trkpt lat="42.84503" lon="0.50209">
        <ele>1649</ele>
        <time>2020-02-01T09:55:50.000Z</time>
      </trkpt>
      <trkpt lat="42.84503" lon="0.50211">
        <ele>1650</ele>
        <time>2020-02-01T09:55:51.000Z</time>
      </trkpt>
      <trkpt lat="42.84503" lon="0.50212">
        <ele>1650</ele>
        <time>2020-02-01T09:55:52.000Z</time>
      </trkpt>
      <trkpt lat="42.84502" lon="0.50213">
        <ele>1650</ele>
        <time>2020-02-01T09:55:53.000Z</time>
      </trkpt>
      <trkpt lat="42.84502" lon="0.50214">
        <ele>1650</ele>
        <time>2020-02-01T09:55:54.000Z</time>
      </trkpt>
      <trkpt lat="42.84501" lon="0.50214">
        <ele>1650</ele>
        <time>2020-02-01T09:55:55.000Z</time>
      </trkpt>
      <trkpt lat="42.84501" lon="0.50215">
        <ele>1650</ele>
        <time>2020-02-01T09:55:56.000Z</time>
      </trkpt>
      <trkpt lat="42.84501" lon="0.50216">
        <ele>1650</ele>
        <time>2020-02-01T09:55:57.000Z</time>
      </trkpt>
      <trkpt lat="42.845" lon="0.50217">
        <ele>1650</ele>
        <time>2020-02-01T09:55:58.000Z</time>
      </trkpt>
      <trkpt lat="42.845" lon="0.50217">
        <ele>1650</ele>
        <time>2020-02-01T09:55:59.000Z</time>
      </trkpt>
      <trkpt lat="42.845" lon="0.50218">
        <ele>1650</ele>
        <time>2020-02-01T09:56:00.000Z</time>
      </trkpt>
      <trkpt lat="42.845" lon="0.50218">
        <ele>1650.5</ele>
        <time>2020-02-01T09:56:01.000Z</time>
      </trkpt>
      <trkpt lat="42.84499" lon="0.50219">
        <ele>1651</ele>
        <time>2020-02-01T09:56:02.000Z</time>
      </trkpt>
      <trkpt lat="42.84499" lon="0.50219">
        <ele>1651</ele>
        <time>2020-02-01T09:56:03.000Z</time>
      </trkpt>
      <trkpt lat="42.84499" lon="0.5022">
        <ele>1651</ele>
        <time>2020-02-01T09:56:04.000Z</time>
      </trkpt>
      <trkpt lat="42.84499" lon="0.5022">
        <ele>1651</ele>
        <time>2020-02-01T09:56:05.000Z</time>
      </trkpt>
      <trkpt lat="42.84499" lon="0.5022">
        <ele>1651</ele>
        <time>2020-02-01T09:56:06.000Z</time>
      </trkpt>
      <trkpt lat="42.84499" lon="0.50221">
        <ele>1651</ele>
        <time>2020-02-01T09:56:07.000Z</time>
      </trkpt>
      <trkpt lat="42.84499" lon="0.50221">
        <ele>1651.5</ele>
        <time>2020-02-01T09:56:08.000Z</time>
      </trkpt>
      <trkpt lat="42.84499" lon="0.50222">
        <ele>1652</ele>
        <time>2020-02-01T09:56:09.000Z</time>
      </trkpt>
      <trkpt lat="42.84499" lon="0.50223">
        <ele>1652</ele>
        <time>2020-02-01T09:56:10.000Z</time>
      </trkpt>
      <trkpt lat="42.84498" lon="0.50224">
        <ele>1652</ele>
        <time>2020-02-01T09:56:11.000Z</time>
      </trkpt>
      <trkpt lat="42.84498" lon="0.50225">
        <ele>1652</ele>
        <time>2020-02-01T09:56:12.000Z</time>
      </trkpt>
      <trkpt lat="42.84497" lon="0.50226">
        <ele>1652</ele>
        <time>2020-02-01T09:56:13.000Z</time>
      </trkpt>
      <trkpt lat="42.84497" lon="0.50227">
        <ele>1652</ele>
        <time>2020-02-01T09:56:14.000Z</time>
      </trkpt>
      <trkpt lat="42.84496" lon="0.50228">
        <ele>1652</ele>
        <time>2020-02-01T09:56:15.000Z</time>
      </trkpt>
      <trkpt lat="42.84496" lon="0.50229">
        <ele>1652</ele>
        <time>2020-02-01T09:56:16.000Z</time>
      </trkpt>
      <trkpt lat="42.84495" lon="0.50231">
        <ele>1652.5</ele>
        <time>2020-02-01T09:56:17.000Z</time>
      </trkpt>
      <trkpt lat="42.84494" lon="0.50232">
        <ele>1653</ele>
        <time>2020-02-01T09:56:18.000Z</time>
      </trkpt>
      <trkpt lat="42.84494" lon="0.50233">
        <ele>1653</ele>
        <time>2020-02-01T09:56:19.000Z</time>
      </trkpt>
      <trkpt lat="42.84493" lon="0.50234">
        <ele>1653</ele>
        <time>2020-02-01T09:56:20.000Z</time>
      </trkpt>
      <trkpt lat="42.84493" lon="0.50235">
        <ele>1653</ele>
        <time>2020-02-01T09:56:21.000Z</time>
      </trkpt>
      <trkpt lat="42.84492" lon="0.50236">
        <ele>1653</ele>
        <time>2020-02-01T09:56:22.000Z</time>
      </trkpt>
      <trkpt lat="42.84492" lon="0.50237">
        <ele>1653</ele>
        <time>2020-02-01T09:56:23.000Z</time>
      </trkpt>
      <trkpt lat="42.84491" lon="0.50238">
        <ele>1653.5</ele>
        <time>2020-02-01T09:56:24.000Z</time>
      </trkpt>
      <trkpt lat="42.84491" lon="0.50239">
        <ele>1654</ele>
        <time>2020-02-01T09:56:25.000Z</time>
      </trkpt>
      <trkpt lat="42.84491" lon="0.5024">
        <ele>1654.3</ele>
        <time>2020-02-01T09:56:26.000Z</time>
      </trkpt>
      <trkpt lat="42.84491" lon="0.5024">
        <ele>1654.7</ele>
        <time>2020-02-01T09:56:27.000Z</time>
      </trkpt>
      <trkpt lat="42.84491" lon="0.50241">
        <ele>1655</ele>
        <time>2020-02-01T09:56:28.000Z</time>
      </trkpt>
      <trkpt lat="42.84491" lon="0.50241">
        <ele>1656</ele>
        <time>2020-02-01T09:56:29.000Z</time>
      </trkpt>
      <trkpt lat="42.84491" lon="0.50242">
        <ele>1656</ele>
        <time>2020-02-01T09:56:30.000Z</time>
      </trkpt>
      <trkpt lat="42.84491" lon="0.50243">
        <ele>1656</ele>
        <time>2020-02-01T09:56:31.000Z</time>
      </trkpt>
      <trkpt lat="42.84491" lon="0.50243">
        <ele>1656</ele>
        <time>2020-02-01T09:56:32.000Z</time>
      </trkpt>
      <trkpt lat="42.84491" lon="0.50244">
        <ele>1656</ele>
        <time>2020-02-01T09:56:33.000Z</time>
      </trkpt>
      <trkpt lat="42.84491" lon="0.50245">
        <ele>1656</ele>
        <time>2020-02-01T09:56:34.000Z</time>
      </trkpt>
      <trkpt lat="42.84491" lon="0.50246">
        <ele>1656</ele>
        <time>2020-02-01T09:56:35.000Z</time>
      </trkpt>
      <trkpt lat="42.84491" lon="0.50246">
        <ele>1656</ele>
        <time>2020-02-01T09:56:36.000Z</time>
      </trkpt>
      <trkpt lat="42.84491" lon="0.50247">
        <ele>1656</ele>
        <time>2020-02-01T09:56:37.000Z</time>
      </trkpt>
      <trkpt lat="42.84491" lon="0.50248">
        <ele>1656.3</ele>
        <time>2020-02-01T09:56:38.000Z</time>
      </trkpt>
      <trkpt lat="42.8449" lon="0.50249">
        <ele>1656.7</ele>
        <time>2020-02-01T09:56:39.000Z</time>
      </trkpt>
      <trkpt lat="42.8449" lon="0.5025">
        <ele>1657</ele>
        <time>2020-02-01T09:56:40.000Z</time>
      </trkpt>
      <trkpt lat="42.84489" lon="0.50251">
        <ele>1657</ele>
        <time>2020-02-01T09:56:41.000Z</time>
      </trkpt>
      <trkpt lat="42.84488" lon="0.50251">
        <ele>1657</ele>
        <time>2020-02-01T09:56:42.000Z</time>
      </trkpt>
      <trkpt lat="42.84488" lon="0.50252">
        <ele>1657</ele>
        <time>2020-02-01T09:56:43.000Z</time>
      </trkpt>
      <trkpt lat="42.84487" lon="0.50253">
        <ele>1657</ele>
        <time>2020-02-01T09:56:44.000Z</time>
      </trkpt>
      <trkpt lat="42.84486" lon="0.50254">
        <ele>1657</ele>
        <time>2020-02-01T09:56:45.000Z</time>
      </trkpt>
      <trkpt lat="42.84486" lon="0.50255">
        <ele>1657</ele>
        <time>2020-02-01T09:56:46.000Z</time>
      </trkpt>
      <trkpt lat="42.84485" lon="0.50256">
        <ele>1658</ele>
        <time>2020-02-01T09:56:47.000Z</time>
      </trkpt>
      <trkpt lat="42.84485" lon="0.50257">
        <ele>1658</ele>
        <time>2020-02-01T09:56:48.000Z</time>
      </trkpt>
      <trkpt lat="42.84484" lon="0.50257">
        <ele>1658</ele>
        <time>2020-02-01T09:56:49.000Z</time>
      </trkpt>
      <trkpt lat="42.84484" lon="0.50258">
        <ele>1658</ele>
        <time>2020-02-01T09:56:50.000Z</time>
      </trkpt>
      <trkpt lat="42.84483" lon="0.50259">
        <ele>1658</ele>
        <time>2020-02-01T09:56:51.000Z</time>
      </trkpt>
      <trkpt lat="42.84483" lon="0.5026">
        <ele>1658</ele>
        <time>2020-02-01T09:56:52.000Z</time>
      </trkpt>
      <trkpt lat="42.84482" lon="0.50261">
        <ele>1658.5</ele>
        <time>2020-02-01T09:56:53.000Z</time>
      </trkpt>
      <trkpt lat="42.84482" lon="0.50261">
        <ele>1659</ele>
        <time>2020-02-01T09:56:54.000Z</time>
      </trkpt>
      <trkpt lat="42.84481" lon="0.50262">
        <ele>1659</ele>
        <time>2020-02-01T09:56:55.000Z</time>
      </trkpt>
      <trkpt lat="42.84481" lon="0.50263">
        <ele>1659</ele>
        <time>2020-02-01T09:56:56.000Z</time>
      </trkpt>
      <trkpt lat="42.8448" lon="0.50263">
        <ele>1659</ele>
        <time>2020-02-01T09:56:57.000Z</time>
      </trkpt>
      <trkpt lat="42.8448" lon="0.50264">
        <ele>1659</ele>
        <time>2020-02-01T09:56:58.000Z</time>
      </trkpt>
      <trkpt lat="42.84479" lon="0.50265">
        <ele>1660</ele>
        <time>2020-02-01T09:56:59.000Z</time>
      </trkpt>
      <trkpt lat="42.84479" lon="0.50266">
        <ele>1660</ele>
        <time>2020-02-01T09:57:00.000Z</time>
      </trkpt>
      <trkpt lat="42.84478" lon="0.50267">
        <ele>1660</ele>
        <time>2020-02-01T09:57:01.000Z</time>
      </trkpt>
      <trkpt lat="42.84478" lon="0.50267">
        <ele>1660</ele>
        <time>2020-02-01T09:57:02.000Z</time>
      </trkpt>
      <trkpt lat="42.84477" lon="0.50268">
        <ele>1660</ele>
        <time>2020-02-01T09:57:03.000Z</time>
      </trkpt>
      <trkpt lat="42.84477" lon="0.50269">
        <ele>1660</ele>
        <time>2020-02-01T09:57:04.000Z</time>
      </trkpt>
      <trkpt lat="42.84476" lon="0.5027">
        <ele>1660</ele>
        <time>2020-02-01T09:57:05.000Z</time>
      </trkpt>
      <trkpt lat="42.84476" lon="0.50271">
        <ele>1660</ele>
        <time>2020-02-01T09:57:06.000Z</time>
      </trkpt>
      <trkpt lat="42.84475" lon="0.50271">
        <ele>1660</ele>
        <time>2020-02-01T09:57:07.000Z</time>
      </trkpt>
      <trkpt lat="42.84475" lon="0.50272">
        <ele>1660</ele>
        <time>2020-02-01T09:57:08.000Z</time>
      </trkpt>
      <trkpt lat="42.84474" lon="0.50273">
        <ele>1660</ele>
        <time>2020-02-01T09:57:09.000Z</time>
      </trkpt>
      <trkpt lat="42.84474" lon="0.50274">
        <ele>1660</ele>
        <time>2020-02-01T09:57:10.000Z</time>
      </trkpt>
      <trkpt lat="42.84474" lon="0.50275">
        <ele>1661</ele>
        <time>2020-02-01T09:57:11.000Z</time>
      </trkpt>
      <trkpt lat="42.84474" lon="0.50275">
        <ele>1661</ele>
        <time>2020-02-01T09:57:12.000Z</time>
      </trkpt>
      <trkpt lat="42.84473" lon="0.50276">
        <ele>1661</ele>
        <time>2020-02-01T09:57:13.000Z</time>
      </trkpt>
      <trkpt lat="42.84473" lon="0.50277">
        <ele>1661</ele>
        <time>2020-02-01T09:57:14.000Z</time>
      </trkpt>
      <trkpt lat="42.84473" lon="0.50278">
        <ele>1661</ele>
        <time>2020-02-01T09:57:15.000Z</time>
      </trkpt>
      <trkpt lat="42.84473" lon="0.50279">
        <ele>1661</ele>
        <time>2020-02-01T09:57:16.000Z</time>
      </trkpt>
      <trkpt lat="42.84472" lon="0.50279">
        <ele>1662</ele>
        <time>2020-02-01T09:57:17.000Z</time>
      </trkpt>
      <trkpt lat="42.84472" lon="0.5028">
        <ele>1662</ele>
        <time>2020-02-01T09:57:18.000Z</time>
      </trkpt>
      <trkpt lat="42.84472" lon="0.50281">
        <ele>1662</ele>
        <time>2020-02-01T09:57:19.000Z</time>
      </trkpt>
      <trkpt lat="42.84471" lon="0.50282">
        <ele>1662</ele>
        <time>2020-02-01T09:57:20.000Z</time>
      </trkpt>
      <trkpt lat="42.84471" lon="0.50283">
        <ele>1662</ele>
        <time>2020-02-01T09:57:21.000Z</time>
      </trkpt>
      <trkpt lat="42.8447" lon="0.50283">
        <ele>1662</ele>
        <time>2020-02-01T09:57:22.000Z</time>
      </trkpt>
      <trkpt lat="42.8447" lon="0.50284">
        <ele>1662</ele>
        <time>2020-02-01T09:57:23.000Z</time>
      </trkpt>
      <trkpt lat="42.84469" lon="0.50284">
        <ele>1662</ele>
        <time>2020-02-01T09:57:24.000Z</time>
      </trkpt>
      <trkpt lat="42.84468" lon="0.50285">
        <ele>1662</ele>
        <time>2020-02-01T09:57:25.000Z</time>
      </trkpt>
      <trkpt lat="42.84468" lon="0.50285">
        <ele>1662</ele>
        <time>2020-02-01T09:57:26.000Z</time>
      </trkpt>
      <trkpt lat="42.84467" lon="0.50285">
        <ele>1662</ele>
        <time>2020-02-01T09:57:27.000Z</time>
      </trkpt>
      <trkpt lat="42.84467" lon="0.50286">
        <ele>1662</ele>
        <time>2020-02-01T09:57:28.000Z</time>
      </trkpt>
      <trkpt lat="42.84466" lon="0.50286">
        <ele>1662</ele>
        <time>2020-02-01T09:57:29.000Z</time>
      </trkpt>
      <trkpt lat="42.84465" lon="0.50285">
        <ele>1662.3</ele>
        <time>2020-02-01T09:57:30.000Z</time>
      </trkpt>
      <trkpt lat="42.84465" lon="0.50285">
        <ele>1662.7</ele>
        <time>2020-02-01T09:57:31.000Z</time>
      </trkpt>
      <trkpt lat="42.84464" lon="0.50285">
        <ele>1663</ele>
        <time>2020-02-01T09:57:32.000Z</time>
      </trkpt>
      <trkpt lat="42.84463" lon="0.50286">
        <ele>1663</ele>
        <time>2020-02-01T09:57:33.000Z</time>
      </trkpt>
      <trkpt lat="42.84463" lon="0.50286">
        <ele>1663</ele>
        <time>2020-02-01T09:57:34.000Z</time>
      </trkpt>
      <trkpt lat="42.84462" lon="0.50286">
        <ele>1664</ele>
        <time>2020-02-01T09:57:35.000Z</time>
      </trkpt>
      <trkpt lat="42.84462" lon="0.50287">
        <ele>1664</ele>
        <time>2020-02-01T09:57:36.000Z</time>
      </trkpt>
      <trkpt lat="42.84462" lon="0.50288">
        <ele>1664</ele>
        <time>2020-02-01T09:57:37.000Z</time>
      </trkpt>
      <trkpt lat="42.84461" lon="0.5029">
        <ele>1664</ele>
        <time>2020-02-01T09:57:38.000Z</time>
      </trkpt>
      <trkpt lat="42.84461" lon="0.50294">
        <ele>1664</ele>
        <time>2020-02-01T09:57:39.000Z</time>
      </trkpt>
      <trkpt lat="42.84459" lon="0.50299">
        <ele>1664</ele>
        <time>2020-02-01T09:57:40.000Z</time>
      </trkpt>
      <trkpt lat="42.84458" lon="0.50304">
        <ele>1664</ele>
        <time>2020-02-01T09:57:41.000Z</time>
      </trkpt>
      <trkpt lat="42.84457" lon="0.50307">
        <ele>1664</ele>
        <time>2020-02-01T09:57:42.000Z</time>
      </trkpt>
      <trkpt lat="42.84457" lon="0.50308">
        <ele>1663.5</ele>
        <time>2020-02-01T09:57:43.000Z</time>
      </trkpt>
      <trkpt lat="42.84456" lon="0.5031">
        <ele>1663</ele>
        <time>2020-02-01T09:57:44.000Z</time>
      </trkpt>
      <trkpt lat="42.84455" lon="0.50311">
        <ele>1663.5</ele>
        <time>2020-02-01T09:57:45.000Z</time>
      </trkpt>
      <trkpt lat="42.84455" lon="0.50313">
        <ele>1664</ele>
        <time>2020-02-01T09:57:46.000Z</time>
      </trkpt>
      <trkpt lat="42.84454" lon="0.50314">
        <ele>1664</ele>
        <time>2020-02-01T09:57:47.000Z</time>
      </trkpt>
      <trkpt lat="42.84453" lon="0.50315">
        <ele>1664</ele>
        <time>2020-02-01T09:57:48.000Z</time>
      </trkpt>
      <trkpt lat="42.84453" lon="0.50316">
        <ele>1664</ele>
        <time>2020-02-01T09:57:49.000Z</time>
      </trkpt>
      <trkpt lat="42.84452" lon="0.50316">
        <ele>1664</ele>
        <time>2020-02-01T09:57:50.000Z</time>
      </trkpt>
      <trkpt lat="42.84451" lon="0.50317">
        <ele>1664</ele>
        <time>2020-02-01T09:57:51.000Z</time>
      </trkpt>
      <trkpt lat="42.84451" lon="0.50317">
        <ele>1664</ele>
        <time>2020-02-01T09:57:52.000Z</time>
      </trkpt>
      <trkpt lat="42.8445" lon="0.50317">
        <ele>1664</ele>
        <time>2020-02-01T09:57:53.000Z</time>
      </trkpt>
      <trkpt lat="42.84449" lon="0.50317">
        <ele>1664</ele>
        <time>2020-02-01T09:57:54.000Z</time>
      </trkpt>
      <trkpt lat="42.84449" lon="0.50318">
        <ele>1664</ele>
        <time>2020-02-01T09:57:55.000Z</time>
      </trkpt>
      <trkpt lat="42.84448" lon="0.50318">
        <ele>1664</ele>
        <time>2020-02-01T09:57:56.000Z</time>
      </trkpt>
      <trkpt lat="42.84448" lon="0.50318">
        <ele>1664</ele>
        <time>2020-02-01T09:57:57.000Z</time>
      </trkpt>
      <trkpt lat="42.84447" lon="0.50319">
        <ele>1664</ele>
        <time>2020-02-01T09:57:58.000Z</time>
      </trkpt>
      <trkpt lat="42.84447" lon="0.50319">
        <ele>1664</ele>
        <time>2020-02-01T09:57:59.000Z</time>
      </trkpt>
      <trkpt lat="42.84446" lon="0.50319">
        <ele>1664</ele>
        <time>2020-02-01T09:58:00.000Z</time>
      </trkpt>
      <trkpt lat="42.84446" lon="0.5032">
        <ele>1664</ele>
        <time>2020-02-01T09:58:01.000Z</time>
      </trkpt>
      <trkpt lat="42.84446" lon="0.5032">
        <ele>1664</ele>
        <time>2020-02-01T09:58:02.000Z</time>
      </trkpt>
      <trkpt lat="42.84445" lon="0.50321">
        <ele>1664</ele>
        <time>2020-02-01T09:58:03.000Z</time>
      </trkpt>
      <trkpt lat="42.84445" lon="0.50321">
        <ele>1664</ele>
        <time>2020-02-01T09:58:04.000Z</time>
      </trkpt>
      <trkpt lat="42.84445" lon="0.50321">
        <ele>1664</ele>
        <time>2020-02-01T09:58:05.000Z</time>
      </trkpt>
      <trkpt lat="42.84445" lon="0.50322">
        <ele>1664</ele>
        <time>2020-02-01T09:58:06.000Z</time>
      </trkpt>
      <trkpt lat="42.84445" lon="0.50322">
        <ele>1664</ele>
        <time>2020-02-01T09:58:07.000Z</time>
      </trkpt>
      <trkpt lat="42.84444" lon="0.50323">
        <ele>1664</ele>
        <time>2020-02-01T09:58:08.000Z</time>
      </trkpt>
      <trkpt lat="42.84442" lon="0.50324">
        <ele>1664.5</ele>
        <time>2020-02-01T09:58:09.000Z</time>
      </trkpt>
      <trkpt lat="42.84441" lon="0.50326">
        <ele>1665</ele>
        <time>2020-02-01T09:58:10.000Z</time>
      </trkpt>
      <trkpt lat="42.84439" lon="0.50328">
        <ele>1665</ele>
        <time>2020-02-01T09:58:11.000Z</time>
      </trkpt>
      <trkpt lat="42.84439" lon="0.5033">
        <ele>1665</ele>
        <time>2020-02-01T09:58:12.000Z</time>
      </trkpt>
      <trkpt lat="42.84438" lon="0.50332">
        <ele>1665</ele>
        <time>2020-02-01T09:58:13.000Z</time>
      </trkpt>
      <trkpt lat="42.84438" lon="0.50333">
        <ele>1665</ele>
        <time>2020-02-01T09:58:14.000Z</time>
      </trkpt>
      <trkpt lat="42.84437" lon="0.50334">
        <ele>1665</ele>
        <time>2020-02-01T09:58:15.000Z</time>
      </trkpt>
      <trkpt lat="42.84436" lon="0.50334">
        <ele>1665</ele>
        <time>2020-02-01T09:58:16.000Z</time>
      </trkpt>
      <trkpt lat="42.84435" lon="0.50334">
        <ele>1665.5</ele>
        <time>2020-02-01T09:58:17.000Z</time>
      </trkpt>
      <trkpt lat="42.84434" lon="0.50333">
        <ele>1666</ele>
        <time>2020-02-01T09:58:18.000Z</time>
      </trkpt>
      <trkpt lat="42.84434" lon="0.50333">
        <ele>1666</ele>
        <time>2020-02-01T09:58:19.000Z</time>
      </trkpt>
      <trkpt lat="42.84433" lon="0.50332">
        <ele>1666</ele>
        <time>2020-02-01T09:58:20.000Z</time>
      </trkpt>
      <trkpt lat="42.84433" lon="0.50332">
        <ele>1666</ele>
        <time>2020-02-01T09:58:21.000Z</time>
      </trkpt>
      <trkpt lat="42.84433" lon="0.50332">
        <ele>1666</ele>
        <time>2020-02-01T09:58:22.000Z</time>
      </trkpt>
      <trkpt lat="42.84432" lon="0.50331">
        <ele>1666</ele>
        <time>2020-02-01T09:58:23.000Z</time>
      </trkpt>
      <trkpt lat="42.84432" lon="0.50331">
        <ele>1666</ele>
        <time>2020-02-01T09:58:24.000Z</time>
      </trkpt>
      <trkpt lat="42.84431" lon="0.5033">
        <ele>1666</ele>
        <time>2020-02-01T09:58:25.000Z</time>
      </trkpt>
      <trkpt lat="42.8443" lon="0.50329">
        <ele>1666</ele>
        <time>2020-02-01T09:58:26.000Z</time>
      </trkpt>
      <trkpt lat="42.84429" lon="0.50329">
        <ele>1666</ele>
        <time>2020-02-01T09:58:27.000Z</time>
      </trkpt>
      <trkpt lat="42.84428" lon="0.50328">
        <ele>1666</ele>
        <time>2020-02-01T09:58:28.000Z</time>
      </trkpt>
      <trkpt lat="42.84427" lon="0.50328">
        <ele>1666</ele>
        <time>2020-02-01T09:58:29.000Z</time>
      </trkpt>
      <trkpt lat="42.84426" lon="0.50328">
        <ele>1666</ele>
        <time>2020-02-01T09:58:30.000Z</time>
      </trkpt>
      <trkpt lat="42.84425" lon="0.50327">
        <ele>1666</ele>
        <time>2020-02-01T09:58:31.000Z</time>
      </trkpt>
      <trkpt lat="42.84425" lon="0.50327">
        <ele>1666</ele>
        <time>2020-02-01T09:58:32.000Z</time>
      </trkpt>
      <trkpt lat="42.84424" lon="0.50327">
        <ele>1666</ele>
        <time>2020-02-01T09:58:33.000Z</time>
      </trkpt>
      <trkpt lat="42.84423" lon="0.50327">
        <ele>1666</ele>
        <time>2020-02-01T09:58:34.000Z</time>
      </trkpt>
      <trkpt lat="42.84422" lon="0.50327">
        <ele>1666</ele>
        <time>2020-02-01T09:58:35.000Z</time>
      </trkpt>
      <trkpt lat="42.84422" lon="0.50327">
        <ele>1666</ele>
        <time>2020-02-01T09:58:36.000Z</time>
      </trkpt>
      <trkpt lat="42.84421" lon="0.50328">
        <ele>1666</ele>
        <time>2020-02-01T09:58:37.000Z</time>
      </trkpt>
      <trkpt lat="42.8442" lon="0.50328">
        <ele>1666</ele>
        <time>2020-02-01T09:58:38.000Z</time>
      </trkpt>
      <trkpt lat="42.84419" lon="0.50328">
        <ele>1666</ele>
        <time>2020-02-01T09:58:39.000Z</time>
      </trkpt>
      <trkpt lat="42.84419" lon="0.50329">
        <ele>1666</ele>
        <time>2020-02-01T09:58:40.000Z</time>
      </trkpt>
      <trkpt lat="42.84418" lon="0.50329">
        <ele>1665</ele>
        <time>2020-02-01T09:58:41.000Z</time>
      </trkpt>
      <trkpt lat="42.84417" lon="0.5033">
        <ele>1665</ele>
        <time>2020-02-01T09:58:42.000Z</time>
      </trkpt>
      <trkpt lat="42.84416" lon="0.5033">
        <ele>1665</ele>
        <time>2020-02-01T09:58:43.000Z</time>
      </trkpt>
      <trkpt lat="42.84415" lon="0.50331">
        <ele>1665</ele>
        <time>2020-02-01T09:58:44.000Z</time>
      </trkpt>
      <trkpt lat="42.84415" lon="0.50331">
        <ele>1665</ele>
        <time>2020-02-01T09:58:45.000Z</time>
      </trkpt>
      <trkpt lat="42.84414" lon="0.50332">
        <ele>1665</ele>
        <time>2020-02-01T09:58:46.000Z</time>
      </trkpt>
      <trkpt lat="42.84413" lon="0.50332">
        <ele>1665</ele>
        <time>2020-02-01T09:58:47.000Z</time>
      </trkpt>
      <trkpt lat="42.84412" lon="0.50333">
        <ele>1665</ele>
        <time>2020-02-01T09:58:48.000Z</time>
      </trkpt>
      <trkpt lat="42.84411" lon="0.50333">
        <ele>1665</ele>
        <time>2020-02-01T09:58:49.000Z</time>
      </trkpt>
      <trkpt lat="42.84411" lon="0.50333">
        <ele>1665</ele>
        <time>2020-02-01T09:58:50.000Z</time>
      </trkpt>
      <trkpt lat="42.8441" lon="0.50333">
        <ele>1665</ele>
        <time>2020-02-01T09:58:51.000Z</time>
      </trkpt>
      <trkpt lat="42.84409" lon="0.50333">
        <ele>1665</ele>
        <time>2020-02-01T09:58:52.000Z</time>
      </trkpt>
      <trkpt lat="42.84408" lon="0.50334">
        <ele>1665</ele>
        <time>2020-02-01T09:58:53.000Z</time>
      </trkpt>
      <trkpt lat="42.84408" lon="0.50334">
        <ele>1665</ele>
        <time>2020-02-01T09:58:54.000Z</time>
      </trkpt>
      <trkpt lat="42.84407" lon="0.50334">
        <ele>1665</ele>
        <time>2020-02-01T09:58:55.000Z</time>
      </trkpt>
      <trkpt lat="42.84406" lon="0.50335">
        <ele>1665</ele>
        <time>2020-02-01T09:58:56.000Z</time>
      </trkpt>
      <trkpt lat="42.84405" lon="0.50335">
        <ele>1665</ele>
        <time>2020-02-01T09:58:57.000Z</time>
      </trkpt>
      <trkpt lat="42.84404" lon="0.50336">
        <ele>1665</ele>
        <time>2020-02-01T09:58:58.000Z</time>
      </trkpt>
      <trkpt lat="42.84403" lon="0.50336">
        <ele>1665</ele>
        <time>2020-02-01T09:58:59.000Z</time>
      </trkpt>
      <trkpt lat="42.84402" lon="0.50337">
        <ele>1665</ele>
        <time>2020-02-01T09:59:00.000Z</time>
      </trkpt>
      <trkpt lat="42.84401" lon="0.50337">
        <ele>1665</ele>
        <time>2020-02-01T09:59:01.000Z</time>
      </trkpt>
      <trkpt lat="42.84401" lon="0.50338">
        <ele>1665</ele>
        <time>2020-02-01T09:59:02.000Z</time>
      </trkpt>
      <trkpt lat="42.844" lon="0.50338">
        <ele>1665.5</ele>
        <time>2020-02-01T09:59:03.000Z</time>
      </trkpt>
      <trkpt lat="42.844" lon="0.50339">
        <ele>1666</ele>
        <time>2020-02-01T09:59:04.000Z</time>
      </trkpt>
      <trkpt lat="42.84399" lon="0.50339">
        <ele>1666</ele>
        <time>2020-02-01T09:59:05.000Z</time>
      </trkpt>
      <trkpt lat="42.84399" lon="0.50339">
        <ele>1666</ele>
        <time>2020-02-01T09:59:06.000Z</time>
      </trkpt>
      <trkpt lat="42.84399" lon="0.50339">
        <ele>1666</ele>
        <time>2020-02-01T09:59:07.000Z</time>
      </trkpt>
      <trkpt lat="42.84398" lon="0.5034">
        <ele>1666</ele>
        <time>2020-02-01T09:59:08.000Z</time>
      </trkpt>
      <trkpt lat="42.84398" lon="0.5034">
        <ele>1666</ele>
        <time>2020-02-01T09:59:09.000Z</time>
      </trkpt>
      <trkpt lat="42.84397" lon="0.5034">
        <ele>1666</ele>
        <time>2020-02-01T09:59:10.000Z</time>
      </trkpt>
      <trkpt lat="42.84397" lon="0.50341">
        <ele>1666</ele>
        <time>2020-02-01T09:59:11.000Z</time>
      </trkpt>
      <trkpt lat="42.84396" lon="0.50341">
        <ele>1666</ele>
        <time>2020-02-01T09:59:12.000Z</time>
      </trkpt>
      <trkpt lat="42.84395" lon="0.50342">
        <ele>1666</ele>
        <time>2020-02-01T09:59:13.000Z</time>
      </trkpt>
      <trkpt lat="42.84395" lon="0.50342">
        <ele>1666</ele>
        <time>2020-02-01T09:59:14.000Z</time>
      </trkpt>
      <trkpt lat="42.84394" lon="0.50343">
        <ele>1666</ele>
        <time>2020-02-01T09:59:15.000Z</time>
      </trkpt>
      <trkpt lat="42.84394" lon="0.50343">
        <ele>1666</ele>
        <time>2020-02-01T09:59:16.000Z</time>
      </trkpt>
      <trkpt lat="42.84393" lon="0.50343">
        <ele>1666</ele>
        <time>2020-02-01T09:59:17.000Z</time>
      </trkpt>
      <trkpt lat="42.84393" lon="0.50344">
        <ele>1666</ele>
        <time>2020-02-01T09:59:18.000Z</time>
      </trkpt>
      <trkpt lat="42.84392" lon="0.50344">
        <ele>1666</ele>
        <time>2020-02-01T09:59:19.000Z</time>
      </trkpt>
      <trkpt lat="42.84392" lon="0.50345">
        <ele>1666</ele>
        <time>2020-02-01T09:59:20.000Z</time>
      </trkpt>
      <trkpt lat="42.84391" lon="0.50345">
        <ele>1666</ele>
        <time>2020-02-01T09:59:21.000Z</time>
      </trkpt>
      <trkpt lat="42.84391" lon="0.50345">
        <ele>1666</ele>
        <time>2020-02-01T09:59:22.000Z</time>
      </trkpt>
      <trkpt lat="42.8439" lon="0.50346">
        <ele>1666</ele>
        <time>2020-02-01T09:59:23.000Z</time>
      </trkpt>
      <trkpt lat="42.8439" lon="0.50346">
        <ele>1666.3</ele>
        <time>2020-02-01T09:59:24.000Z</time>
      </trkpt>
      <trkpt lat="42.8439" lon="0.50346">
        <ele>1666.7</ele>
        <time>2020-02-01T09:59:25.000Z</time>
      </trkpt>
      <trkpt lat="42.84389" lon="0.50346">
        <ele>1667</ele>
        <time>2020-02-01T09:59:26.000Z</time>
      </trkpt>
      <trkpt lat="42.84389" lon="0.50346">
        <ele>1667</ele>
        <time>2020-02-01T09:59:27.000Z</time>
      </trkpt>
      <trkpt lat="42.84388" lon="0.50346">
        <ele>1667</ele>
        <time>2020-02-01T09:59:28.000Z</time>
      </trkpt>
      <trkpt lat="42.84388" lon="0.50347">
        <ele>1667</ele>
        <time>2020-02-01T09:59:29.000Z</time>
      </trkpt>
      <trkpt lat="42.84388" lon="0.50347">
        <ele>1667</ele>
        <time>2020-02-01T09:59:30.000Z</time>
      </trkpt>
      <trkpt lat="42.84387" lon="0.50347">
        <ele>1667</ele>
        <time>2020-02-01T09:59:31.000Z</time>
      </trkpt>
      <trkpt lat="42.84387" lon="0.50347">
        <ele>1667</ele>
        <time>2020-02-01T09:59:32.000Z</time>
      </trkpt>
      <trkpt lat="42.84386" lon="0.50347">
        <ele>1667</ele>
        <time>2020-02-01T09:59:33.000Z</time>
      </trkpt>
      <trkpt lat="42.84386" lon="0.50347">
        <ele>1667</ele>
        <time>2020-02-01T09:59:34.000Z</time>
      </trkpt>
      <trkpt lat="42.84385" lon="0.50347">
        <ele>1667</ele>
        <time>2020-02-01T09:59:35.000Z</time>
      </trkpt>
      <trkpt lat="42.84385" lon="0.50347">
        <ele>1667</ele>
        <time>2020-02-01T09:59:36.000Z</time>
      </trkpt>
      <trkpt lat="42.84385" lon="0.50347">
        <ele>1668</ele>
        <time>2020-02-01T09:59:37.000Z</time>
      </trkpt>
      <trkpt lat="42.84384" lon="0.50347">
        <ele>1668</ele>
        <time>2020-02-01T09:59:38.000Z</time>
      </trkpt>
      <trkpt lat="42.84384" lon="0.50347">
        <ele>1668</ele>
        <time>2020-02-01T09:59:39.000Z</time>
      </trkpt>
      <trkpt lat="42.84383" lon="0.50347">
        <ele>1668</ele>
        <time>2020-02-01T09:59:40.000Z</time>
      </trkpt>
      <trkpt lat="42.84383" lon="0.50347">
        <ele>1668</ele>
        <time>2020-02-01T09:59:41.000Z</time>
      </trkpt>
      <trkpt lat="42.84383" lon="0.50347">
        <ele>1668.3</ele>
        <time>2020-02-01T09:59:42.000Z</time>
      </trkpt>
      <trkpt lat="42.84383" lon="0.50347">
        <ele>1668.7</ele>
        <time>2020-02-01T09:59:43.000Z</time>
      </trkpt>
      <trkpt lat="42.84382" lon="0.50347">
        <ele>1669</ele>
        <time>2020-02-01T09:59:44.000Z</time>
      </trkpt>
      <trkpt lat="42.84382" lon="0.50347">
        <ele>1669</ele>
        <time>2020-02-01T09:59:45.000Z</time>
      </trkpt>
      <trkpt lat="42.84382" lon="0.50347">
        <ele>1669</ele>
        <time>2020-02-01T09:59:46.000Z</time>
      </trkpt>
      <trkpt lat="42.84382" lon="0.50347">
        <ele>1669</ele>
        <time>2020-02-01T09:59:47.000Z</time>
      </trkpt>
      <trkpt lat="42.84382" lon="0.50347">
        <ele>1669</ele>
        <time>2020-02-01T09:59:48.000Z</time>
      </trkpt>
      <trkpt lat="42.84382" lon="0.50347">
        <ele>1669</ele>
        <time>2020-02-01T09:59:49.000Z</time>
      </trkpt>
      <trkpt lat="42.84382" lon="0.50347">
        <ele>1669</ele>
        <time>2020-02-01T09:59:50.000Z</time>
      </trkpt>
      <trkpt lat="42.84382" lon="0.50346">
        <ele>1670</ele>
        <time>2020-02-01T09:59:51.000Z</time>
      </trkpt>
      <trkpt lat="42.84381" lon="0.50346">
        <ele>1670</ele>
        <time>2020-02-01T09:59:52.000Z</time>
      </trkpt>
      <trkpt lat="42.8438" lon="0.50345">
        <ele>1670</ele>
        <time>2020-02-01T09:59:53.000Z</time>
      </trkpt>
      <trkpt lat="42.8438" lon="0.50345">
        <ele>1670</ele>
        <time>2020-02-01T09:59:54.000Z</time>
      </trkpt>
      <trkpt lat="42.8438" lon="0.50345">
        <ele>1670</ele>
        <time>2020-02-01T09:59:55.000Z</time>
      </trkpt>
      <trkpt lat="42.8438" lon="0.50345">
        <ele>1670</ele>
        <time>2020-02-01T09:59:56.000Z</time>
      </trkpt>
      <trkpt lat="42.8438" lon="0.50345">
        <ele>1670</ele>
        <time>2020-02-01T09:59:57.000Z</time>
      </trkpt>
      <trkpt lat="42.8438" lon="0.50345">
        <ele>1670</ele>
        <time>2020-02-01T09:59:58.000Z</time>
      </trkpt>
      <trkpt lat="42.8438" lon="0.50345">
        <ele>1670</ele>
        <time>2020-02-01T09:59:59.000Z</time>
      </trkpt>
      <trkpt lat="42.8438" lon="0.50345">
        <ele>1670</ele>
        <time>2020-02-01T10:00:00.000Z</time>
      </trkpt>
      <trkpt lat="42.84379" lon="0.50345">
        <ele>1670</ele>
        <time>2020-02-01T10:00:01.000Z</time>
      </trkpt>
      <trkpt lat="42.84379" lon="0.50345">
        <ele>1670</ele>
        <time>2020-02-01T10:00:02.000Z</time>
      </trkpt>
      <trkpt lat="42.84379" lon="0.50344">
        <ele>1669</ele>
        <time>2020-02-01T10:00:03.000Z</time>
      </trkpt>
      <trkpt lat="42.84378" lon="0.50344">
        <ele>1669.3</ele>
        <time>2020-02-01T10:00:04.000Z</time>
      </trkpt>
      <trkpt lat="42.84378" lon="0.50343">
        <ele>1669.7</ele>
        <time>2020-02-01T10:00:05.000Z</time>
      </trkpt>
      <trkpt lat="42.84378" lon="0.50342">
        <ele>1670</ele>
        <time>2020-02-01T10:00:06.000Z</time>
      </trkpt>
      <trkpt lat="42.84377" lon="0.50341">
        <ele>1670</ele>
        <time>2020-02-01T10:00:07.000Z</time>
      </trkpt>
      <trkpt lat="42.84377" lon="0.50339">
        <ele>1670</ele>
        <time>2020-02-01T10:00:08.000Z</time>
      </trkpt>
      <trkpt lat="42.84377" lon="0.50336">
        <ele>1670</ele>
        <time>2020-02-01T10:00:09.000Z</time>
      </trkpt>
      <trkpt lat="42.84377" lon="0.50334">
        <ele>1670</ele>
        <time>2020-02-01T10:00:10.000Z</time>
      </trkpt>
      <trkpt lat="42.84377" lon="0.50331">
        <ele>1670</ele>
        <time>2020-02-01T10:00:11.000Z</time>
      </trkpt>
      <trkpt lat="42.84378" lon="0.50329">
        <ele>1670</ele>
        <time>2020-02-01T10:00:12.000Z</time>
      </trkpt>
      <trkpt lat="42.84378" lon="0.50327">
        <ele>1670</ele>
        <time>2020-02-01T10:00:13.000Z</time>
      </trkpt>
      <trkpt lat="42.84378" lon="0.50327">
        <ele>1670</ele>
        <time>2020-02-01T10:00:14.000Z</time>
      </trkpt>
      <trkpt lat="42.84378" lon="0.50327">
        <ele>1670</ele>
        <time>2020-02-01T10:00:15.000Z</time>
      </trkpt>
      <trkpt lat="42.84378" lon="0.50327">
        <ele>1670</ele>
        <time>2020-02-01T10:00:16.000Z</time>
      </trkpt>
      <trkpt lat="42.84378" lon="0.50328">
        <ele>1670</ele>
        <time>2020-02-01T10:00:17.000Z</time>
      </trkpt>
      <trkpt lat="42.84378" lon="0.50328">
        <ele>1670</ele>
        <time>2020-02-01T10:00:18.000Z</time>
      </trkpt>
      <trkpt lat="42.84378" lon="0.50327">
        <ele>1670</ele>
        <time>2020-02-01T10:00:19.000Z</time>
      </trkpt>
      <trkpt lat="42.84378" lon="0.50326">
        <ele>1670</ele>
        <time>2020-02-01T10:00:20.000Z</time>
      </trkpt>
      <trkpt lat="42.84377" lon="0.50325">
        <ele>1670</ele>
        <time>2020-02-01T10:00:21.000Z</time>
      </trkpt>
      <trkpt lat="42.84377" lon="0.50324">
        <ele>1670</ele>
        <time>2020-02-01T10:00:22.000Z</time>
      </trkpt>
      <trkpt lat="42.84377" lon="0.50324">
        <ele>1670</ele>
        <time>2020-02-01T10:00:23.000Z</time>
      </trkpt>
      <trkpt lat="42.84377" lon="0.50323">
        <ele>1670</ele>
        <time>2020-02-01T10:00:24.000Z</time>
      </trkpt>
      <trkpt lat="42.84377" lon="0.50323">
        <ele>1671</ele>
        <time>2020-02-01T10:00:25.000Z</time>
      </trkpt>
      <trkpt lat="42.84377" lon="0.50323">
        <ele>1671</ele>
        <time>2020-02-01T10:00:26.000Z</time>
      </trkpt>
      <trkpt lat="42.84378" lon="0.50323">
        <ele>1671</ele>
        <time>2020-02-01T10:00:27.000Z</time>
      </trkpt>
      <trkpt lat="42.84378" lon="0.50323">
        <ele>1671</ele>
        <time>2020-02-01T10:00:28.000Z</time>
      </trkpt>
      <trkpt lat="42.84379" lon="0.50323">
        <ele>1671</ele>
        <time>2020-02-01T10:00:29.000Z</time>
      </trkpt>
      <trkpt lat="42.84379" lon="0.50322">
        <ele>1671</ele>
        <time>2020-02-01T10:00:30.000Z</time>
      </trkpt>
      <trkpt lat="42.8438" lon="0.50322">
        <ele>1671</ele>
        <time>2020-02-01T10:00:31.000Z</time>
      </trkpt>
      <trkpt lat="42.8438" lon="0.50321">
        <ele>1671</ele>
        <time>2020-02-01T10:00:32.000Z</time>
      </trkpt>
      <trkpt lat="42.8438" lon="0.50321">
        <ele>1671</ele>
        <time>2020-02-01T10:00:33.000Z</time>
      </trkpt>
      <trkpt lat="42.8438" lon="0.5032">
        <ele>1671</ele>
        <time>2020-02-01T10:00:34.000Z</time>
      </trkpt>
      <trkpt lat="42.84381" lon="0.5032">
        <ele>1670</ele>
        <time>2020-02-01T10:00:35.000Z</time>
      </trkpt>
      <trkpt lat="42.84381" lon="0.5032">
        <ele>1671</ele>
        <time>2020-02-01T10:00:36.000Z</time>
      </trkpt>
      <trkpt lat="42.84381" lon="0.50321">
        <ele>1670</ele>
        <time>2020-02-01T10:00:37.000Z</time>
      </trkpt>
      <trkpt lat="42.8438" lon="0.50321">
        <ele>1670</ele>
        <time>2020-02-01T10:00:38.000Z</time>
      </trkpt>
      <trkpt lat="42.8438" lon="0.50323">
        <ele>1670</ele>
        <time>2020-02-01T10:00:39.000Z</time>
      </trkpt>
      <trkpt lat="42.84379" lon="0.50325">
        <ele>1670</ele>
        <time>2020-02-01T10:00:40.000Z</time>
      </trkpt>
      <trkpt lat="42.84379" lon="0.50328">
        <ele>1670</ele>
        <time>2020-02-01T10:00:41.000Z</time>
      </trkpt>
      <trkpt lat="42.84378" lon="0.5033">
        <ele>1670</ele>
        <time>2020-02-01T10:00:42.000Z</time>
      </trkpt>
      <trkpt lat="42.84377" lon="0.50333">
        <ele>1670</ele>
        <time>2020-02-01T10:00:43.000Z</time>
      </trkpt>
      <trkpt lat="42.84377" lon="0.50334">
        <ele>1670</ele>
        <time>2020-02-01T10:00:44.000Z</time>
      </trkpt>
      <trkpt lat="42.84377" lon="0.50335">
        <ele>1670</ele>
        <time>2020-02-01T10:00:45.000Z</time>
      </trkpt>
      <trkpt lat="42.84377" lon="0.50336">
        <ele>1670</ele>
        <time>2020-02-01T10:00:46.000Z</time>
      </trkpt>
      <trkpt lat="42.84377" lon="0.50336">
        <ele>1670</ele>
        <time>2020-02-01T10:00:47.000Z</time>
      </trkpt>
      <trkpt lat="42.84377" lon="0.50337">
        <ele>1670</ele>
        <time>2020-02-01T10:00:48.000Z</time>
      </trkpt>
      <trkpt lat="42.84377" lon="0.50337">
        <ele>1670</ele>
        <time>2020-02-01T10:00:49.000Z</time>
      </trkpt>
      <trkpt lat="42.84377" lon="0.50337">
        <ele>1670</ele>
        <time>2020-02-01T10:00:50.000Z</time>
      </trkpt>
      <trkpt lat="42.84377" lon="0.50337">
        <ele>1670</ele>
        <time>2020-02-01T10:00:51.000Z</time>
      </trkpt>
      <trkpt lat="42.84377" lon="0.50337">
        <ele>1670</ele>
        <time>2020-02-01T10:00:52.000Z</time>
      </trkpt>
      <trkpt lat="42.84376" lon="0.50337">
        <ele>1670</ele>
        <time>2020-02-01T10:00:53.000Z</time>
      </trkpt>
      <trkpt lat="42.84376" lon="0.50337">
        <ele>1670</ele>
        <time>2020-02-01T10:00:54.000Z</time>
      </trkpt>
      <trkpt lat="42.84376" lon="0.50338">
        <ele>1670</ele>
        <time>2020-02-01T10:00:55.000Z</time>
      </trkpt>
      <trkpt lat="42.84376" lon="0.50338">
        <ele>1670</ele>
        <time>2020-02-01T10:00:56.000Z</time>
      </trkpt>
      <trkpt lat="42.84376" lon="0.50339">
        <ele>1670</ele>
        <time>2020-02-01T10:00:57.000Z</time>
      </trkpt>
      <trkpt lat="42.84375" lon="0.5034">
        <ele>1670</ele>
        <time>2020-02-01T10:00:58.000Z</time>
      </trkpt>
      <trkpt lat="42.84375" lon="0.50341">
        <ele>1670</ele>
        <time>2020-02-01T10:00:59.000Z</time>
      </trkpt>
      <trkpt lat="42.84375" lon="0.50342">
        <ele>1670</ele>
        <time>2020-02-01T10:01:00.000Z</time>
      </trkpt>
      <trkpt lat="42.84374" lon="0.50344">
        <ele>1670</ele>
        <time>2020-02-01T10:01:01.000Z</time>
      </trkpt>
      <trkpt lat="42.84374" lon="0.50346">
        <ele>1670</ele>
        <time>2020-02-01T10:01:02.000Z</time>
      </trkpt>
      <trkpt lat="42.84374" lon="0.50347">
        <ele>1670</ele>
        <time>2020-02-01T10:01:03.000Z</time>
      </trkpt>
      <trkpt lat="42.84374" lon="0.50349">
        <ele>1670</ele>
        <time>2020-02-01T10:01:04.000Z</time>
      </trkpt>
      <trkpt lat="42.84373" lon="0.50349">
        <ele>1670</ele>
        <time>2020-02-01T10:01:05.000Z</time>
      </trkpt>
      <trkpt lat="42.84373" lon="0.50349">
        <ele>1670</ele>
        <time>2020-02-01T10:01:06.000Z</time>
      </trkpt>
      <trkpt lat="42.84372" lon="0.50348">
        <ele>1670</ele>
        <time>2020-02-01T10:01:07.000Z</time>
      </trkpt>
      <trkpt lat="42.84371" lon="0.50347">
        <ele>1670</ele>
        <time>2020-02-01T10:01:08.000Z</time>
      </trkpt>
      <trkpt lat="42.84371" lon="0.50346">
        <ele>1670</ele>
        <time>2020-02-01T10:01:09.000Z</time>
      </trkpt>
      <trkpt lat="42.84371" lon="0.50346">
        <ele>1670</ele>
        <time>2020-02-01T10:01:10.000Z</time>
      </trkpt>
      <trkpt lat="42.84371" lon="0.50346">
        <ele>1670</ele>
        <time>2020-02-01T10:01:11.000Z</time>
      </trkpt>
      <trkpt lat="42.84371" lon="0.50346">
        <ele>1670</ele>
        <time>2020-02-01T10:01:12.000Z</time>
      </trkpt>
      <trkpt lat="42.84371" lon="0.50346">
        <ele>1670</ele>
        <time>2020-02-01T10:01:13.000Z</time>
      </trkpt>
      <trkpt lat="42.84371" lon="0.50346">
        <ele>1670</ele>
        <time>2020-02-01T10:01:14.000Z</time>
      </trkpt>
      <trkpt lat="42.84371" lon="0.50346">
        <ele>1670</ele>
        <time>2020-02-01T10:01:15.000Z</time>
      </trkpt>
      <trkpt lat="42.84371" lon="0.50346">
        <ele>1670</ele>
        <time>2020-02-01T10:01:16.000Z</time>
      </trkpt>
      <trkpt lat="42.84371" lon="0.50346">
        <ele>1670</ele>
        <time>2020-02-01T10:01:17.000Z</time>
      </trkpt>
      <trkpt lat="42.84371" lon="0.50346">
        <ele>1670</ele>
        <time>2020-02-01T10:01:18.000Z</time>
      </trkpt>
      <trkpt lat="42.84371" lon="0.50346">
        <ele>1670</ele>
        <time>2020-02-01T10:01:19.000Z</time>
      </trkpt>
      <trkpt lat="42.84371" lon="0.50346">
        <ele>1670</ele>
        <time>2020-02-01T10:01:20.000Z</time>
      </trkpt>
      <trkpt lat="42.84371" lon="0.50346">
        <ele>1670</ele>
        <time>2020-02-01T10:01:21.000Z</time>
      </trkpt>
      <trkpt lat="42.84371" lon="0.50346">
        <ele>1670</ele>
        <time>2020-02-01T10:01:22.000Z</time>
      </trkpt>
      <trkpt lat="42.84371" lon="0.50346">
        <ele>1670</ele>
        <time>2020-02-01T10:01:23.000Z</time>
      </trkpt>
      <trkpt lat="42.84371" lon="0.50346">
        <ele>1670</ele>
        <time>2020-02-01T10:01:24.000Z</time>
      </trkpt>
      <trkpt lat="42.84371" lon="0.50346">
        <ele>1670</ele>
        <time>2020-02-01T10:01:25.000Z</time>
      </trkpt>
      <trkpt lat="42.84371" lon="0.50346">
        <ele>1670</ele>
        <time>2020-02-01T10:01:26.000Z</time>
      </trkpt>
      <trkpt lat="42.84371" lon="0.50346">
        <ele>1670</ele>
        <time>2020-02-01T10:01:27.000Z</time>
      </trkpt>
      <trkpt lat="42.84371" lon="0.50346">
        <ele>1670</ele>
        <time>2020-02-01T10:01:28.000Z</time>
      </trkpt>
      <trkpt lat="42.84371" lon="0.50346">
        <ele>1670</ele>
        <time>2020-02-01T10:01:29.000Z</time>
      </trkpt>
      <trkpt lat="42.84371" lon="0.50346">
        <ele>1670</ele>
        <time>2020-02-01T10:01:30.000Z</time>
      </trkpt>
      <trkpt lat="42.84371" lon="0.50346">
        <ele>1670</ele>
        <time>2020-02-01T10:01:31.000Z</time>
      </trkpt>
      <trkpt lat="42.84371" lon="0.50346">
        <ele>1670</ele>
        <time>2020-02-01T10:01:32.000Z</time>
      </trkpt>
      <trkpt lat="42.84371" lon="0.50346">
        <ele>1670</ele>
        <time>2020-02-01T10:01:33.000Z</time>
      </trkpt>
      <trkpt lat="42.84371" lon="0.50346">
        <ele>1670</ele>
        <time>2020-02-01T10:01:34.000Z</time>
      </trkpt>
      <trkpt lat="42.84372" lon="0.50346">
        <ele>1670</ele>
        <time>2020-02-01T10:01:35.000Z</time>
      </trkpt>
      <trkpt lat="42.84372" lon="0.50346">
        <ele>1670</ele>
        <time>2020-02-01T10:01:36.000Z</time>
      </trkpt>
      <trkpt lat="42.84372" lon="0.50346">
        <ele>1670</ele>
        <time>2020-02-01T10:01:37.000Z</time>
      </trkpt>
      <trkpt lat="42.84372" lon="0.50346">
        <ele>1670</ele>
        <time>2020-02-01T10:01:38.000Z</time>
      </trkpt>
      <trkpt lat="42.84373" lon="0.50346">
        <ele>1670</ele>
        <time>2020-02-01T10:01:39.000Z</time>
      </trkpt>
      <trkpt lat="42.84373" lon="0.50346">
        <ele>1670.5</ele>
        <time>2020-02-01T10:01:40.000Z</time>
      </trkpt>
      <trkpt lat="42.84373" lon="0.50346">
        <ele>1671</ele>
        <time>2020-02-01T10:01:41.000Z</time>
      </trkpt>
      <trkpt lat="42.84373" lon="0.50346">
        <ele>1671</ele>
        <time>2020-02-01T10:01:42.000Z</time>
      </trkpt>
      <trkpt lat="42.84374" lon="0.50346">
        <ele>1671</ele>
        <time>2020-02-01T10:01:43.000Z</time>
      </trkpt>
      <trkpt lat="42.84374" lon="0.50346">
        <ele>1670</ele>
        <time>2020-02-01T10:01:44.000Z</time>
      </trkpt>
      <trkpt lat="42.84374" lon="0.50345">
        <ele>1670</ele>
        <time>2020-02-01T10:01:45.000Z</time>
      </trkpt>
      <trkpt lat="42.84375" lon="0.50345">
        <ele>1670</ele>
        <time>2020-02-01T10:01:46.000Z</time>
      </trkpt>
      <trkpt lat="42.84375" lon="0.50345">
        <ele>1670</ele>
        <time>2020-02-01T10:01:47.000Z</time>
      </trkpt>
      <trkpt lat="42.84375" lon="0.50344">
        <ele>1670</ele>
        <time>2020-02-01T10:01:48.000Z</time>
      </trkpt>
      <trkpt lat="42.84375" lon="0.50344">
        <ele>1670</ele>
        <time>2020-02-01T10:01:49.000Z</time>
      </trkpt>
      <trkpt lat="42.84376" lon="0.50343">
        <ele>1670</ele>
        <time>2020-02-01T10:01:50.000Z</time>
      </trkpt>
      <trkpt lat="42.84376" lon="0.50343">
        <ele>1670.5</ele>
        <time>2020-02-01T10:01:51.000Z</time>
      </trkpt>
      <trkpt lat="42.84376" lon="0.50343">
        <ele>1671</ele>
        <time>2020-02-01T10:01:52.000Z</time>
      </trkpt>
      <trkpt lat="42.84376" lon="0.50343">
        <ele>1671</ele>
        <time>2020-02-01T10:01:53.000Z</time>
      </trkpt>
      <trkpt lat="42.84376" lon="0.50344">
        <ele>1671</ele>
        <time>2020-02-01T10:01:54.000Z</time>
      </trkpt>
      <trkpt lat="42.84377" lon="0.50344">
        <ele>1671</ele>
        <time>2020-02-01T10:02:01.000Z</time>
      </trkpt>
      <trkpt lat="42.84377" lon="0.50345">
        <ele>1671</ele>
        <time>2020-02-01T10:02:02.000Z</time>
      </trkpt>
      <trkpt lat="42.84377" lon="0.50346">
        <ele>1671</ele>
        <time>2020-02-01T10:02:03.000Z</time>
      </trkpt>
      <trkpt lat="42.84377" lon="0.50347">
        <ele>1671</ele>
        <time>2020-02-01T10:02:04.000Z</time>
      </trkpt>
      <trkpt lat="42.84377" lon="0.50347">
        <ele>1671</ele>
        <time>2020-02-01T10:02:05.000Z</time>
      </trkpt>
      <trkpt lat="42.84377" lon="0.50347">
        <ele>1671</ele>
        <time>2020-02-01T10:02:06.000Z</time>
      </trkpt>
      <trkpt lat="42.84377" lon="0.50347">
        <ele>1670</ele>
        <time>2020-02-01T10:02:07.000Z</time>
      </trkpt>
      <trkpt lat="42.84377" lon="0.50347">
        <ele>1670</ele>
        <time>2020-02-01T10:02:08.000Z</time>
      </trkpt>
      <trkpt lat="42.84377" lon="0.50347">
        <ele>1670</ele>
        <time>2020-02-01T10:02:09.000Z</time>
      </trkpt>
      <trkpt lat="42.84377" lon="0.50347">
        <ele>1671</ele>
        <time>2020-02-01T10:02:10.000Z</time>
      </trkpt>
      <trkpt lat="42.84377" lon="0.50347">
        <ele>1671</ele>
        <time>2020-02-01T10:02:11.000Z</time>
      </trkpt>
      <trkpt lat="42.84377" lon="0.50347">
        <ele>1671</ele>
        <time>2020-02-01T10:02:12.000Z</time>
      </trkpt>
      <trkpt lat="42.84377" lon="0.50347">
        <ele>1671</ele>
        <time>2020-02-01T10:02:13.000Z</time>
      </trkpt>
      <trkpt lat="42.84377" lon="0.50347">
        <ele>1671</ele>
        <time>2020-02-01T10:02:14.000Z</time>
      </trkpt>
      <trkpt lat="42.84377" lon="0.50347">
        <ele>1671</ele>
        <time>2020-02-01T10:02:15.000Z</time>
      </trkpt>
      <trkpt lat="42.84377" lon="0.50347">
        <ele>1671</ele>
        <time>2020-02-01T10:02:16.000Z</time>
      </trkpt>
      <trkpt lat="42.84376" lon="0.50347">
        <ele>1671</ele>
        <time>2020-02-01T10:02:17.000Z</time>
      </trkpt>
      <trkpt lat="42.84376" lon="0.50348">
        <ele>1671</ele>
        <time>2020-02-01T10:02:18.000Z</time>
      </trkpt>
      <trkpt lat="42.84376" lon="0.50348">
        <ele>1671</ele>
        <time>2020-02-01T10:02:19.000Z</time>
      </trkpt>
      <trkpt lat="42.84376" lon="0.50348">
        <ele>1671</ele>
        <time>2020-02-01T10:02:20.000Z</time>
      </trkpt>
      <trkpt lat="42.84376" lon="0.50348">
        <ele>1670</ele>
        <time>2020-02-01T10:02:21.000Z</time>
      </trkpt>
      <trkpt lat="42.84376" lon="0.50348">
        <ele>1670</ele>
        <time>2020-02-01T10:02:22.000Z</time>
      </trkpt>
      <trkpt lat="42.84377" lon="0.50348">
        <ele>1671</ele>
        <time>2020-02-01T10:02:23.000Z</time>
      </trkpt>
      <trkpt lat="42.84377" lon="0.50348">
        <ele>1670</ele>
        <time>2020-02-01T10:02:24.000Z</time>
      </trkpt>
      <trkpt lat="42.84377" lon="0.50348">
        <ele>1670</ele>
        <time>2020-02-01T10:02:25.000Z</time>
      </trkpt>
      <trkpt lat="42.84377" lon="0.50348">
        <ele>1670</ele>
        <time>2020-02-01T10:02:26.000Z</time>
      </trkpt>
      <trkpt lat="42.84377" lon="0.50348">
        <ele>1670</ele>
        <time>2020-02-01T10:02:27.000Z</time>
      </trkpt>
      <trkpt lat="42.84376" lon="0.50348">
        <ele>1670</ele>
        <time>2020-02-01T10:02:28.000Z</time>
      </trkpt>
      <trkpt lat="42.84376" lon="0.50348">
        <ele>1670</ele>
        <time>2020-02-01T10:02:29.000Z</time>
      </trkpt>
      <trkpt lat="42.84376" lon="0.50348">
        <ele>1670</ele>
        <time>2020-02-01T10:02:30.000Z</time>
      </trkpt>
      <trkpt lat="42.84375" lon="0.50349">
        <ele>1670</ele>
        <time>2020-02-01T10:02:31.000Z</time>
      </trkpt>
      <trkpt lat="42.84375" lon="0.50349">
        <ele>1670</ele>
        <time>2020-02-01T10:02:32.000Z</time>
      </trkpt>
      <trkpt lat="42.84374" lon="0.5035">
        <ele>1670</ele>
        <time>2020-02-01T10:02:33.000Z</time>
      </trkpt>
      <trkpt lat="42.84374" lon="0.5035">
        <ele>1670</ele>
        <time>2020-02-01T10:02:34.000Z</time>
      </trkpt>
      <trkpt lat="42.84374" lon="0.50351">
        <ele>1670</ele>
        <time>2020-02-01T10:02:35.000Z</time>
      </trkpt>
      <trkpt lat="42.84373" lon="0.50351">
        <ele>1670</ele>
        <time>2020-02-01T10:02:36.000Z</time>
      </trkpt>
      <trkpt lat="42.84373" lon="0.50352">
        <ele>1670</ele>
        <time>2020-02-01T10:02:37.000Z</time>
      </trkpt>
      <trkpt lat="42.84373" lon="0.50352">
        <ele>1670</ele>
        <time>2020-02-01T10:02:38.000Z</time>
      </trkpt>
      <trkpt lat="42.84373" lon="0.50352">
        <ele>1670</ele>
        <time>2020-02-01T10:02:39.000Z</time>
      </trkpt>
      <trkpt lat="42.84373" lon="0.50351">
        <ele>1670</ele>
        <time>2020-02-01T10:02:40.000Z</time>
      </trkpt>
      <trkpt lat="42.84373" lon="0.50351">
        <ele>1670</ele>
        <time>2020-02-01T10:02:41.000Z</time>
      </trkpt>
      <trkpt lat="42.84374" lon="0.5035">
        <ele>1670</ele>
        <time>2020-02-01T10:02:42.000Z</time>
      </trkpt>
      <trkpt lat="42.84374" lon="0.50349">
        <ele>1670</ele>
        <time>2020-02-01T10:02:43.000Z</time>
      </trkpt>
      <trkpt lat="42.84374" lon="0.50349">
        <ele>1670</ele>
        <time>2020-02-01T10:02:44.000Z</time>
      </trkpt>
      <trkpt lat="42.84374" lon="0.50348">
        <ele>1669.5</ele>
        <time>2020-02-01T10:02:45.000Z</time>
      </trkpt>
      <trkpt lat="42.84375" lon="0.50348">
        <ele>1669</ele>
        <time>2020-02-01T10:02:46.000Z</time>
      </trkpt>
      <trkpt lat="42.84375" lon="0.50348">
        <ele>1669</ele>
        <time>2020-02-01T10:02:47.000Z</time>
      </trkpt>
      <trkpt lat="42.84375" lon="0.50348">
        <ele>1669</ele>
        <time>2020-02-01T10:02:48.000Z</time>
      </trkpt>
      <trkpt lat="42.84376" lon="0.50348">
        <ele>1669</ele>
        <time>2020-02-01T10:02:49.000Z</time>
      </trkpt>
      <trkpt lat="42.84376" lon="0.50349">
        <ele>1669</ele>
        <time>2020-02-01T10:02:50.000Z</time>
      </trkpt>
      <trkpt lat="42.84377" lon="0.50349">
        <ele>1669</ele>
        <time>2020-02-01T10:02:51.000Z</time>
      </trkpt>
      <trkpt lat="42.84377" lon="0.5035">
        <ele>1668.7</ele>
        <time>2020-02-01T10:02:52.000Z</time>
      </trkpt>
      <trkpt lat="42.84377" lon="0.5035">
        <ele>1668.3</ele>
        <time>2020-02-01T10:02:53.000Z</time>
      </trkpt>
      <trkpt lat="42.84378" lon="0.50351">
        <ele>1668</ele>
        <time>2020-02-01T10:02:54.000Z</time>
      </trkpt>
      <trkpt lat="42.84378" lon="0.50351">
        <ele>1668</ele>
        <time>2020-02-01T10:02:55.000Z</time>
      </trkpt>
      <trkpt lat="42.84378" lon="0.50351">
        <ele>1668</ele>
        <time>2020-02-01T10:02:56.000Z</time>
      </trkpt>
      <trkpt lat="42.84378" lon="0.50352">
        <ele>1668</ele>
        <time>2020-02-01T10:02:57.000Z</time>
      </trkpt>
      <trkpt lat="42.84378" lon="0.50352">
        <ele>1668.3</ele>
        <time>2020-02-01T10:02:58.000Z</time>
      </trkpt>
      <trkpt lat="42.84379" lon="0.50352">
        <ele>1668.7</ele>
        <time>2020-02-01T10:02:59.000Z</time>
      </trkpt>
      <trkpt lat="42.84379" lon="0.50352">
        <ele>1669</ele>
        <time>2020-02-01T10:03:00.000Z</time>
      </trkpt>
      <trkpt lat="42.84379" lon="0.50352">
        <ele>1669</ele>
        <time>2020-02-01T10:03:01.000Z</time>
      </trkpt>
      <trkpt lat="42.84379" lon="0.50352">
        <ele>1670</ele>
        <time>2020-02-01T10:03:02.000Z</time>
      </trkpt>
      <trkpt lat="42.84379" lon="0.50352">
        <ele>1671</ele>
        <time>2020-02-01T10:03:03.000Z</time>
      </trkpt>
      <trkpt lat="42.84379" lon="0.50352">
        <ele>1672</ele>
        <time>2020-02-01T10:03:04.000Z</time>
      </trkpt>
      <trkpt lat="42.84379" lon="0.50352">
        <ele>1670</ele>
        <time>2020-02-01T10:03:05.000Z</time>
      </trkpt>
      <trkpt lat="42.84379" lon="0.50352">
        <ele>1670</ele>
        <time>2020-02-01T10:03:06.000Z</time>
      </trkpt>
      <trkpt lat="42.84379" lon="0.50352">
        <ele>1670</ele>
        <time>2020-02-01T10:03:07.000Z</time>
      </trkpt>
      <trkpt lat="42.84379" lon="0.50352">
        <ele>1670</ele>
        <time>2020-02-01T10:03:08.000Z</time>
      </trkpt>
      <trkpt lat="42.8438" lon="0.50352">
        <ele>1670</ele>
        <time>2020-02-01T10:03:09.000Z</time>
      </trkpt>
      <trkpt lat="42.8438" lon="0.50352">
        <ele>1670</ele>
        <time>2020-02-01T10:03:10.000Z</time>
      </trkpt>
      <trkpt lat="42.8438" lon="0.50353">
        <ele>1670</ele>
        <time>2020-02-01T10:03:11.000Z</time>
      </trkpt>
      <trkpt lat="42.8438" lon="0.50353">
        <ele>1670</ele>
        <time>2020-02-01T10:03:12.000Z</time>
      </trkpt>
      <trkpt lat="42.84381" lon="0.50353">
        <ele>1670</ele>
        <time>2020-02-01T10:03:13.000Z</time>
      </trkpt>
      <trkpt lat="42.84381" lon="0.50354">
        <ele>1670</ele>
        <time>2020-02-01T10:03:14.000Z</time>
      </trkpt>
      <trkpt lat="42.84381" lon="0.50355">
        <ele>1670</ele>
        <time>2020-02-01T10:03:15.000Z</time>
      </trkpt>
      <trkpt lat="42.84382" lon="0.50355">
        <ele>1670</ele>
        <time>2020-02-01T10:03:16.000Z</time>
      </trkpt>
      <trkpt lat="42.84382" lon="0.50356">
        <ele>1669</ele>
        <time>2020-02-01T10:03:17.000Z</time>
      </trkpt>
      <trkpt lat="42.84382" lon="0.50357">
        <ele>1670</ele>
        <time>2020-02-01T10:03:18.000Z</time>
      </trkpt>
      <trkpt lat="42.84383" lon="0.50358">
        <ele>1670</ele>
        <time>2020-02-01T10:03:19.000Z</time>
      </trkpt>
      <trkpt lat="42.84383" lon="0.50359">
        <ele>1670</ele>
        <time>2020-02-01T10:03:20.000Z</time>
      </trkpt>
      <trkpt lat="42.84383" lon="0.50359">
        <ele>1670</ele>
        <time>2020-02-01T10:03:21.000Z</time>
      </trkpt>
      <trkpt lat="42.84384" lon="0.5036">
        <ele>1670</ele>
        <time>2020-02-01T10:03:22.000Z</time>
      </trkpt>
      <trkpt lat="42.84384" lon="0.5036">
        <ele>1670</ele>
        <time>2020-02-01T10:03:23.000Z</time>
      </trkpt>
      <trkpt lat="42.84384" lon="0.50361">
        <ele>1670</ele>
        <time>2020-02-01T10:03:24.000Z</time>
      </trkpt>
      <trkpt lat="42.84384" lon="0.50361">
        <ele>1670</ele>
        <time>2020-02-01T10:03:25.000Z</time>
      </trkpt>
      <trkpt lat="42.84383" lon="0.50361">
        <ele>1670</ele>
        <time>2020-02-01T10:03:26.000Z</time>
      </trkpt>
      <trkpt lat="42.84383" lon="0.50361">
        <ele>1670</ele>
        <time>2020-02-01T10:03:27.000Z</time>
      </trkpt>
      <trkpt lat="42.84383" lon="0.50361">
        <ele>1670</ele>
        <time>2020-02-01T10:03:28.000Z</time>
      </trkpt>
      <trkpt lat="42.84383" lon="0.50361">
        <ele>1670</ele>
        <time>2020-02-01T10:03:29.000Z</time>
      </trkpt>
      <trkpt lat="42.84382" lon="0.50361">
        <ele>1670</ele>
        <time>2020-02-01T10:03:30.000Z</time>
      </trkpt>
      <trkpt lat="42.84382" lon="0.50361">
        <ele>1670</ele>
        <time>2020-02-01T10:03:31.000Z</time>
      </trkpt>
      <trkpt lat="42.84382" lon="0.50361">
        <ele>1670</ele>
        <time>2020-02-01T10:03:32.000Z</time>
      </trkpt>
      <trkpt lat="42.84382" lon="0.50362">
        <ele>1670</ele>
        <time>2020-02-01T10:03:33.000Z</time>
      </trkpt>
      <trkpt lat="42.84381" lon="0.50362">
        <ele>1670</ele>
        <time>2020-02-01T10:03:34.000Z</time>
      </trkpt>
      <trkpt lat="42.84381" lon="0.50362">
        <ele>1670</ele>
        <time>2020-02-01T10:03:35.000Z</time>
      </trkpt>
      <trkpt lat="42.8438" lon="0.50362">
        <ele>1670</ele>
        <time>2020-02-01T10:03:36.000Z</time>
      </trkpt>
      <trkpt lat="42.8438" lon="0.50362">
        <ele>1670</ele>
        <time>2020-02-01T10:03:37.000Z</time>
      </trkpt>
      <trkpt lat="42.84379" lon="0.50362">
        <ele>1670</ele>
        <time>2020-02-01T10:03:38.000Z</time>
      </trkpt>
      <trkpt lat="42.84379" lon="0.50362">
        <ele>1670</ele>
        <time>2020-02-01T10:03:39.000Z</time>
      </trkpt>
      <trkpt lat="42.84379" lon="0.50362">
        <ele>1670</ele>
        <time>2020-02-01T10:03:40.000Z</time>
      </trkpt>
      <trkpt lat="42.84378" lon="0.50362">
        <ele>1670</ele>
        <time>2020-02-01T10:03:41.000Z</time>
      </trkpt>
      <trkpt lat="42.84378" lon="0.50361">
        <ele>1670</ele>
        <time>2020-02-01T10:03:42.000Z</time>
      </trkpt>
      <trkpt lat="42.84378" lon="0.50361">
        <ele>1670</ele>
        <time>2020-02-01T10:03:43.000Z</time>
      </trkpt>
      <trkpt lat="42.84378" lon="0.50361">
        <ele>1670</ele>
        <time>2020-02-01T10:03:44.000Z</time>
      </trkpt>
      <trkpt lat="42.84378" lon="0.50361">
        <ele>1670</ele>
        <time>2020-02-01T10:03:45.000Z</time>
      </trkpt>
      <trkpt lat="42.84378" lon="0.50361">
        <ele>1670</ele>
        <time>2020-02-01T10:03:46.000Z</time>
      </trkpt>
      <trkpt lat="42.84377" lon="0.50361">
        <ele>1670</ele>
        <time>2020-02-01T10:03:47.000Z</time>
      </trkpt>
      <trkpt lat="42.84377" lon="0.50361">
        <ele>1670</ele>
        <time>2020-02-01T10:03:48.000Z</time>
      </trkpt>
      <trkpt lat="42.84377" lon="0.50361">
        <ele>1669</ele>
        <time>2020-02-01T10:03:49.000Z</time>
      </trkpt>
      <trkpt lat="42.84376" lon="0.50361">
        <ele>1669</ele>
        <time>2020-02-01T10:03:50.000Z</time>
      </trkpt>
      <trkpt lat="42.84376" lon="0.50361">
        <ele>1669</ele>
        <time>2020-02-01T10:03:51.000Z</time>
      </trkpt>
      <trkpt lat="42.84376" lon="0.50361">
        <ele>1669</ele>
        <time>2020-02-01T10:03:52.000Z</time>
      </trkpt>
      <trkpt lat="42.84376" lon="0.50361">
        <ele>1669.5</ele>
        <time>2020-02-01T10:03:53.000Z</time>
      </trkpt>
      <trkpt lat="42.84376" lon="0.50361">
        <ele>1670</ele>
        <time>2020-02-01T10:03:54.000Z</time>
      </trkpt>
      <trkpt lat="42.84375" lon="0.50361">
        <ele>1670</ele>
        <time>2020-02-01T10:03:55.000Z</time>
      </trkpt>
      <trkpt lat="42.84375" lon="0.5036">
        <ele>1670</ele>
        <time>2020-02-01T10:03:56.000Z</time>
      </trkpt>
      <trkpt lat="42.84375" lon="0.5036">
        <ele>1670</ele>
        <time>2020-02-01T10:03:57.000Z</time>
      </trkpt>
      <trkpt lat="42.84375" lon="0.50359">
        <ele>1670</ele>
        <time>2020-02-01T10:03:58.000Z</time>
      </trkpt>
      <trkpt lat="42.84374" lon="0.50358">
        <ele>1670</ele>
        <time>2020-02-01T10:03:59.000Z</time>
      </trkpt>
      <trkpt lat="42.84374" lon="0.50357">
        <ele>1670</ele>
        <time>2020-02-01T10:04:00.000Z</time>
      </trkpt>
      <trkpt lat="42.84374" lon="0.50356">
        <ele>1670</ele>
        <time>2020-02-01T10:04:01.000Z</time>
      </trkpt>
      <trkpt lat="42.84374" lon="0.50355">
        <ele>1670.3</ele>
        <time>2020-02-01T10:04:02.000Z</time>
      </trkpt>
      <trkpt lat="42.84374" lon="0.50355">
        <ele>1670.7</ele>
        <time>2020-02-01T10:04:03.000Z</time>
      </trkpt>
      <trkpt lat="42.84374" lon="0.50354">
        <ele>1671</ele>
        <time>2020-02-01T10:04:04.000Z</time>
      </trkpt>
      <trkpt lat="42.84374" lon="0.50354">
        <ele>1671</ele>
        <time>2020-02-01T10:04:05.000Z</time>
      </trkpt>
      <trkpt lat="42.84374" lon="0.50353">
        <ele>1671</ele>
        <time>2020-02-01T10:04:06.000Z</time>
      </trkpt>
      <trkpt lat="42.84374" lon="0.50353">
        <ele>1671</ele>
        <time>2020-02-01T10:04:07.000Z</time>
      </trkpt>
      <trkpt lat="42.84374" lon="0.50353">
        <ele>1671</ele>
        <time>2020-02-01T10:04:08.000Z</time>
      </trkpt>
      <trkpt lat="42.84374" lon="0.50353">
        <ele>1671</ele>
        <time>2020-02-01T10:04:09.000Z</time>
      </trkpt>
      <trkpt lat="42.84374" lon="0.50353">
        <ele>1671</ele>
        <time>2020-02-01T10:04:10.000Z</time>
      </trkpt>
      <trkpt lat="42.84374" lon="0.50353">
        <ele>1671</ele>
        <time>2020-02-01T10:04:11.000Z</time>
      </trkpt>
      <trkpt lat="42.84373" lon="0.50353">
        <ele>1671</ele>
        <time>2020-02-01T10:04:12.000Z</time>
      </trkpt>
      <trkpt lat="42.84373" lon="0.50353">
        <ele>1671</ele>
        <time>2020-02-01T10:04:13.000Z</time>
      </trkpt>
      <trkpt lat="42.84373" lon="0.50353">
        <ele>1671</ele>
        <time>2020-02-01T10:04:14.000Z</time>
      </trkpt>
      <trkpt lat="42.84373" lon="0.50354">
        <ele>1671</ele>
        <time>2020-02-01T10:04:15.000Z</time>
      </trkpt>
      <trkpt lat="42.84373" lon="0.50354">
        <ele>1671</ele>
        <time>2020-02-01T10:04:16.000Z</time>
      </trkpt>
      <trkpt lat="42.84373" lon="0.50354">
        <ele>1671</ele>
        <time>2020-02-01T10:04:17.000Z</time>
      </trkpt>
      <trkpt lat="42.84372" lon="0.50354">
        <ele>1672</ele>
        <time>2020-02-01T10:04:18.000Z</time>
      </trkpt>
      <trkpt lat="42.84372" lon="0.50354">
        <ele>1672</ele>
        <time>2020-02-01T10:04:19.000Z</time>
      </trkpt>
      <trkpt lat="42.84372" lon="0.50354">
        <ele>1672</ele>
        <time>2020-02-01T10:04:20.000Z</time>
      </trkpt>
      <trkpt lat="42.84372" lon="0.50354">
        <ele>1672</ele>
        <time>2020-02-01T10:04:21.000Z</time>
      </trkpt>
      <trkpt lat="42.84372" lon="0.50354">
        <ele>1672</ele>
        <time>2020-02-01T10:04:22.000Z</time>
      </trkpt>
      <trkpt lat="42.84372" lon="0.50354">
        <ele>1672</ele>
        <time>2020-02-01T10:04:23.000Z</time>
      </trkpt>
      <trkpt lat="42.84372" lon="0.50354">
        <ele>1672</ele>
        <time>2020-02-01T10:04:24.000Z</time>
      </trkpt>
      <trkpt lat="42.84372" lon="0.50354">
        <ele>1672</ele>
        <time>2020-02-01T10:04:25.000Z</time>
      </trkpt>
      <trkpt lat="42.84372" lon="0.50354">
        <ele>1672</ele>
        <time>2020-02-01T10:04:26.000Z</time>
      </trkpt>
      <trkpt lat="42.84372" lon="0.50354">
        <ele>1672</ele>
        <time>2020-02-01T10:04:27.000Z</time>
      </trkpt>
      <trkpt lat="42.84372" lon="0.50354">
        <ele>1672</ele>
        <time>2020-02-01T10:04:28.000Z</time>
      </trkpt>
      <trkpt lat="42.84372" lon="0.50354">
        <ele>1671</ele>
        <time>2020-02-01T10:04:29.000Z</time>
      </trkpt>
      <trkpt lat="42.84372" lon="0.50354">
        <ele>1671</ele>
        <time>2020-02-01T10:04:30.000Z</time>
      </trkpt>
      <trkpt lat="42.84372" lon="0.50354">
        <ele>1671</ele>
        <time>2020-02-01T10:04:31.000Z</time>
      </trkpt>
      <trkpt lat="42.84372" lon="0.50354">
        <ele>1671</ele>
        <time>2020-02-01T10:04:32.000Z</time>
      </trkpt>
      <trkpt lat="42.84372" lon="0.50354">
        <ele>1671</ele>
        <time>2020-02-01T10:04:33.000Z</time>
      </trkpt>
      <trkpt lat="42.84372" lon="0.50354">
        <ele>1671</ele>
        <time>2020-02-01T10:04:34.000Z</time>
      </trkpt>
      <trkpt lat="42.84372" lon="0.50354">
        <ele>1671</ele>
        <time>2020-02-01T10:04:35.000Z</time>
      </trkpt>
      <trkpt lat="42.84372" lon="0.50354">
        <ele>1670</ele>
        <time>2020-02-01T10:04:36.000Z</time>
      </trkpt>
      <trkpt lat="42.84372" lon="0.50354">
        <ele>1670</ele>
        <time>2020-02-01T10:04:37.000Z</time>
      </trkpt>
      <trkpt lat="42.84372" lon="0.50354">
        <ele>1670</ele>
        <time>2020-02-01T10:04:38.000Z</time>
      </trkpt>
      <trkpt lat="42.84372" lon="0.50354">
        <ele>1670</ele>
        <time>2020-02-01T10:04:39.000Z</time>
      </trkpt>
      <trkpt lat="42.84372" lon="0.50354">
        <ele>1670</ele>
        <time>2020-02-01T10:04:40.000Z</time>
      </trkpt>
      <trkpt lat="42.84372" lon="0.50354">
        <ele>1670</ele>
        <time>2020-02-01T10:04:41.000Z</time>
      </trkpt>
      <trkpt lat="42.84372" lon="0.50354">
        <ele>1670</ele>
        <time>2020-02-01T10:04:42.000Z</time>
      </trkpt>
      <trkpt lat="42.84372" lon="0.50354">
        <ele>1670</ele>
        <time>2020-02-01T10:04:43.000Z</time>
      </trkpt>
      <trkpt lat="42.84372" lon="0.50354">
        <ele>1670</ele>
        <time>2020-02-01T10:04:44.000Z</time>
      </trkpt>
      <trkpt lat="42.84372" lon="0.50354">
        <ele>1671</ele>
        <time>2020-02-01T10:04:52.000Z</time>
      </trkpt>
      <trkpt lat="42.84373" lon="0.50353">
        <ele>1670</ele>
        <time>2020-02-01T10:04:53.000Z</time>
      </trkpt>
      <trkpt lat="42.84373" lon="0.50353">
        <ele>1670</ele>
        <time>2020-02-01T10:04:54.000Z</time>
      </trkpt>
      <trkpt lat="42.84373" lon="0.50352">
        <ele>1670</ele>
        <time>2020-02-01T10:04:55.000Z</time>
      </trkpt>
      <trkpt lat="42.84374" lon="0.50351">
        <ele>1671</ele>
        <time>2020-02-01T10:04:56.000Z</time>
      </trkpt>
      <trkpt lat="42.84374" lon="0.5035">
        <ele>1671</ele>
        <time>2020-02-01T10:04:57.000Z</time>
      </trkpt>
      <trkpt lat="42.84375" lon="0.5035">
        <ele>1671</ele>
        <time>2020-02-01T10:04:58.000Z</time>
      </trkpt>
      <trkpt lat="42.84375" lon="0.50349">
        <ele>1671</ele>
        <time>2020-02-01T10:04:59.000Z</time>
      </trkpt>
      <trkpt lat="42.84375" lon="0.50349">
        <ele>1671</ele>
        <time>2020-02-01T10:05:00.000Z</time>
      </trkpt>
      <trkpt lat="42.84375" lon="0.50349">
        <ele>1670</ele>
        <time>2020-02-01T10:05:01.000Z</time>
      </trkpt>
      <trkpt lat="42.84376" lon="0.5035">
        <ele>1670</ele>
        <time>2020-02-01T10:05:02.000Z</time>
      </trkpt>
      <trkpt lat="42.84376" lon="0.5035">
        <ele>1670</ele>
        <time>2020-02-01T10:05:03.000Z</time>
      </trkpt>
      <trkpt lat="42.84376" lon="0.50351">
        <ele>1670</ele>
        <time>2020-02-01T10:05:04.000Z</time>
      </trkpt>
      <trkpt lat="42.84377" lon="0.50351">
        <ele>1670</ele>
        <time>2020-02-01T10:05:05.000Z</time>
      </trkpt>
      <trkpt lat="42.84377" lon="0.50352">
        <ele>1670</ele>
        <time>2020-02-01T10:05:06.000Z</time>
      </trkpt>
      <trkpt lat="42.84377" lon="0.50353">
        <ele>1670</ele>
        <time>2020-02-01T10:05:07.000Z</time>
      </trkpt>
      <trkpt lat="42.84378" lon="0.50354">
        <ele>1670</ele>
        <time>2020-02-01T10:05:08.000Z</time>
      </trkpt>
      <trkpt lat="42.84379" lon="0.50355">
        <ele>1670</ele>
        <time>2020-02-01T10:05:09.000Z</time>
      </trkpt>
      <trkpt lat="42.8438" lon="0.50355">
        <ele>1670</ele>
        <time>2020-02-01T10:05:10.000Z</time>
      </trkpt>
      <trkpt lat="42.84381" lon="0.50356">
        <ele>1670</ele>
        <time>2020-02-01T10:05:11.000Z</time>
      </trkpt>
      <trkpt lat="42.84382" lon="0.50357">
        <ele>1670</ele>
        <time>2020-02-01T10:05:12.000Z</time>
      </trkpt>
      <trkpt lat="42.84382" lon="0.50358">
        <ele>1670</ele>
        <time>2020-02-01T10:05:13.000Z</time>
      </trkpt>
      <trkpt lat="42.84383" lon="0.50358">
        <ele>1670</ele>
        <time>2020-02-01T10:05:14.000Z</time>
      </trkpt>
      <trkpt lat="42.84384" lon="0.50359">
        <ele>1670</ele>
        <time>2020-02-01T10:05:15.000Z</time>
      </trkpt>
      <trkpt lat="42.84385" lon="0.50359">
        <ele>1670</ele>
        <time>2020-02-01T10:05:16.000Z</time>
      </trkpt>
      <trkpt lat="42.84385" lon="0.5036">
        <ele>1670</ele>
        <time>2020-02-01T10:05:17.000Z</time>
      </trkpt>
      <trkpt lat="42.84385" lon="0.5036">
        <ele>1670</ele>
        <time>2020-02-01T10:05:18.000Z</time>
      </trkpt>
      <trkpt lat="42.84385" lon="0.50361">
        <ele>1670</ele>
        <time>2020-02-01T10:05:19.000Z</time>
      </trkpt>
      <trkpt lat="42.84385" lon="0.50361">
        <ele>1670</ele>
        <time>2020-02-01T10:05:20.000Z</time>
      </trkpt>
      <trkpt lat="42.84385" lon="0.50361">
        <ele>1670</ele>
        <time>2020-02-01T10:05:21.000Z</time>
      </trkpt>
      <trkpt lat="42.84385" lon="0.50361">
        <ele>1670</ele>
        <time>2020-02-01T10:05:22.000Z</time>
      </trkpt>
      <trkpt lat="42.84385" lon="0.50361">
        <ele>1670</ele>
        <time>2020-02-01T10:05:23.000Z</time>
      </trkpt>
      <trkpt lat="42.84385" lon="0.50361">
        <ele>1670</ele>
        <time>2020-02-01T10:05:24.000Z</time>
      </trkpt>
      <trkpt lat="42.84385" lon="0.50361">
        <ele>1670</ele>
        <time>2020-02-01T10:05:25.000Z</time>
      </trkpt>
      <trkpt lat="42.84384" lon="0.50361">
        <ele>1670</ele>
        <time>2020-02-01T10:05:26.000Z</time>
      </trkpt>
      <trkpt lat="42.84384" lon="0.50361">
        <ele>1670</ele>
        <time>2020-02-01T10:05:27.000Z</time>
      </trkpt>
      <trkpt lat="42.84384" lon="0.50361">
        <ele>1670</ele>
        <time>2020-02-01T10:05:28.000Z</time>
      </trkpt>
      <trkpt lat="42.84384" lon="0.50361">
        <ele>1670</ele>
        <time>2020-02-01T10:05:29.000Z</time>
      </trkpt>
      <trkpt lat="42.84384" lon="0.5036">
        <ele>1670</ele>
        <time>2020-02-01T10:05:30.000Z</time>
      </trkpt>
      <trkpt lat="42.84382" lon="0.5036">
        <ele>1670</ele>
        <time>2020-02-01T10:05:31.000Z</time>
      </trkpt>
      <trkpt lat="42.84381" lon="0.50359">
        <ele>1670</ele>
        <time>2020-02-01T10:05:32.000Z</time>
      </trkpt>
      <trkpt lat="42.84379" lon="0.50358">
        <ele>1670</ele>
        <time>2020-02-01T10:05:33.000Z</time>
      </trkpt>
      <trkpt lat="42.84378" lon="0.50357">
        <ele>1670</ele>
        <time>2020-02-01T10:05:34.000Z</time>
      </trkpt>
      <trkpt lat="42.84378" lon="0.50357">
        <ele>1670</ele>
        <time>2020-02-01T10:05:35.000Z</time>
      </trkpt>
      <trkpt lat="42.84378" lon="0.50357">
        <ele>1670</ele>
        <time>2020-02-01T10:05:36.000Z</time>
      </trkpt>
      <trkpt lat="42.84379" lon="0.50357">
        <ele>1670</ele>
        <time>2020-02-01T10:05:37.000Z</time>
      </trkpt>
      <trkpt lat="42.84379" lon="0.50357">
        <ele>1670</ele>
        <time>2020-02-01T10:05:38.000Z</time>
      </trkpt>
      <trkpt lat="42.84379" lon="0.50357">
        <ele>1670</ele>
        <time>2020-02-01T10:05:39.000Z</time>
      </trkpt>
      <trkpt lat="42.84379" lon="0.50357">
        <ele>1670</ele>
        <time>2020-02-01T10:05:40.000Z</time>
      </trkpt>
      <trkpt lat="42.84379" lon="0.50357">
        <ele>1670</ele>
        <time>2020-02-01T10:05:41.000Z</time>
      </trkpt>
      <trkpt lat="42.84379" lon="0.50357">
        <ele>1670</ele>
        <time>2020-02-01T10:05:42.000Z</time>
      </trkpt>
      <trkpt lat="42.84379" lon="0.50357">
        <ele>1670</ele>
        <time>2020-02-01T10:05:43.000Z</time>
      </trkpt>
      <trkpt lat="42.84379" lon="0.50357">
        <ele>1670</ele>
        <time>2020-02-01T10:05:44.000Z</time>
      </trkpt>
      <trkpt lat="42.84379" lon="0.50357">
        <ele>1670</ele>
        <time>2020-02-01T10:05:45.000Z</time>
      </trkpt>
      <trkpt lat="42.84379" lon="0.50356">
        <ele>1670</ele>
        <time>2020-02-01T10:05:46.000Z</time>
      </trkpt>
      <trkpt lat="42.84379" lon="0.50356">
        <ele>1670</ele>
        <time>2020-02-01T10:05:47.000Z</time>
      </trkpt>
      <trkpt lat="42.84379" lon="0.50356">
        <ele>1670</ele>
        <time>2020-02-01T10:05:48.000Z</time>
      </trkpt>
      <trkpt lat="42.84379" lon="0.50356">
        <ele>1671</ele>
        <time>2020-02-01T10:05:49.000Z</time>
      </trkpt>
      <trkpt lat="42.84379" lon="0.50355">
        <ele>1671</ele>
        <time>2020-02-01T10:05:50.000Z</time>
      </trkpt>
      <trkpt lat="42.84379" lon="0.50355">
        <ele>1671</ele>
        <time>2020-02-01T10:05:51.000Z</time>
      </trkpt>
      <trkpt lat="42.84379" lon="0.50355">
        <ele>1671</ele>
        <time>2020-02-01T10:05:52.000Z</time>
      </trkpt>
      <trkpt lat="42.84379" lon="0.50355">
        <ele>1671</ele>
        <time>2020-02-01T10:05:53.000Z</time>
      </trkpt>
      <trkpt lat="42.84378" lon="0.50355">
        <ele>1671</ele>
        <time>2020-02-01T10:05:54.000Z</time>
      </trkpt>
      <trkpt lat="42.84378" lon="0.50355">
        <ele>1670</ele>
        <time>2020-02-01T10:05:55.000Z</time>
      </trkpt>
      <trkpt lat="42.84378" lon="0.50354">
        <ele>1670</ele>
        <time>2020-02-01T10:05:56.000Z</time>
      </trkpt>
      <trkpt lat="42.84378" lon="0.50354">
        <ele>1671</ele>
        <time>2020-02-01T10:05:57.000Z</time>
      </trkpt>
      <trkpt lat="42.84378" lon="0.50354">
        <ele>1670</ele>
        <time>2020-02-01T10:05:58.000Z</time>
      </trkpt>
      <trkpt lat="42.84378" lon="0.50354">
        <ele>1670</ele>
        <time>2020-02-01T10:05:59.000Z</time>
      </trkpt>
      <trkpt lat="42.84378" lon="0.50354">
        <ele>1670</ele>
        <time>2020-02-01T10:06:00.000Z</time>
      </trkpt>
      <trkpt lat="42.84378" lon="0.50354">
        <ele>1670</ele>
        <time>2020-02-01T10:06:01.000Z</time>
      </trkpt>
      <trkpt lat="42.84377" lon="0.50354">
        <ele>1670</ele>
        <time>2020-02-01T10:06:02.000Z</time>
      </trkpt>
      <trkpt lat="42.84375" lon="0.50354">
        <ele>1670</ele>
        <time>2020-02-01T10:06:03.000Z</time>
      </trkpt>
      <trkpt lat="42.84375" lon="0.50354">
        <ele>1670</ele>
        <time>2020-02-01T10:06:04.000Z</time>
      </trkpt>
      <trkpt lat="42.84375" lon="0.50354">
        <ele>1670</ele>
        <time>2020-02-01T10:06:05.000Z</time>
      </trkpt>
      <trkpt lat="42.84375" lon="0.50353">
        <ele>1670</ele>
        <time>2020-02-01T10:06:06.000Z</time>
      </trkpt>
      <trkpt lat="42.84375" lon="0.50353">
        <ele>1670</ele>
        <time>2020-02-01T10:06:07.000Z</time>
      </trkpt>
      <trkpt lat="42.84375" lon="0.50353">
        <ele>1670</ele>
        <time>2020-02-01T10:06:08.000Z</time>
      </trkpt>
      <trkpt lat="42.84375" lon="0.50353">
        <ele>1670</ele>
        <time>2020-02-01T10:06:09.000Z</time>
      </trkpt>
      <trkpt lat="42.84375" lon="0.50353">
        <ele>1670</ele>
        <time>2020-02-01T10:06:10.000Z</time>
      </trkpt>
      <trkpt lat="42.84375" lon="0.50353">
        <ele>1671</ele>
        <time>2020-02-01T10:06:13.000Z</time>
      </trkpt>
      <trkpt lat="42.84375" lon="0.50353">
        <ele>1671</ele>
        <time>2020-02-01T10:06:14.000Z</time>
      </trkpt>
      <trkpt lat="42.84375" lon="0.50353">
        <ele>1671</ele>
        <time>2020-02-01T10:06:15.000Z</time>
      </trkpt>
      <trkpt lat="42.84375" lon="0.50353">
        <ele>1671</ele>
        <time>2020-02-01T10:06:16.000Z</time>
      </trkpt>
      <trkpt lat="42.84376" lon="0.50354">
        <ele>1670</ele>
        <time>2020-02-01T10:06:17.000Z</time>
      </trkpt>
      <trkpt lat="42.84376" lon="0.50354">
        <ele>1670</ele>
        <time>2020-02-01T10:06:18.000Z</time>
      </trkpt>
      <trkpt lat="42.84376" lon="0.50354">
        <ele>1670</ele>
        <time>2020-02-01T10:06:19.000Z</time>
      </trkpt>
      <trkpt lat="42.84376" lon="0.50355">
        <ele>1670</ele>
        <time>2020-02-01T10:06:20.000Z</time>
      </trkpt>
      <trkpt lat="42.84376" lon="0.50355">
        <ele>1670</ele>
        <time>2020-02-01T10:06:21.000Z</time>
      </trkpt>
      <trkpt lat="42.84377" lon="0.50355">
        <ele>1670</ele>
        <time>2020-02-01T10:06:22.000Z</time>
      </trkpt>
      <trkpt lat="42.84377" lon="0.50356">
        <ele>1670</ele>
        <time>2020-02-01T10:06:23.000Z</time>
      </trkpt>
      <trkpt lat="42.84377" lon="0.50356">
        <ele>1671</ele>
        <time>2020-02-01T10:06:24.000Z</time>
      </trkpt>
      <trkpt lat="42.84377" lon="0.50357">
        <ele>1670</ele>
        <time>2020-02-01T10:06:25.000Z</time>
      </trkpt>
      <trkpt lat="42.84377" lon="0.50357">
        <ele>1671</ele>
        <time>2020-02-01T10:06:26.000Z</time>
      </trkpt>
      <trkpt lat="42.84377" lon="0.50357">
        <ele>1671</ele>
        <time>2020-02-01T10:06:27.000Z</time>
      </trkpt>
      <trkpt lat="42.84377" lon="0.50357">
        <ele>1671</ele>
        <time>2020-02-01T10:06:28.000Z</time>
      </trkpt>
      <trkpt lat="42.84378" lon="0.50357">
        <ele>1671</ele>
        <time>2020-02-01T10:06:29.000Z</time>
      </trkpt>
      <trkpt lat="42.84378" lon="0.50357">
        <ele>1671</ele>
        <time>2020-02-01T10:06:30.000Z</time>
      </trkpt>
      <trkpt lat="42.84378" lon="0.50357">
        <ele>1671</ele>
        <time>2020-02-01T10:06:31.000Z</time>
      </trkpt>
      <trkpt lat="42.84378" lon="0.50356">
        <ele>1671</ele>
        <time>2020-02-01T10:06:32.000Z</time>
      </trkpt>
      <trkpt lat="42.84379" lon="0.50356">
        <ele>1671</ele>
        <time>2020-02-01T10:06:33.000Z</time>
      </trkpt>
      <trkpt lat="42.84379" lon="0.50355">
        <ele>1671</ele>
        <time>2020-02-01T10:06:34.000Z</time>
      </trkpt>
      <trkpt lat="42.8438" lon="0.50354">
        <ele>1671</ele>
        <time>2020-02-01T10:06:35.000Z</time>
      </trkpt>
      <trkpt lat="42.8438" lon="0.50353">
        <ele>1671</ele>
        <time>2020-02-01T10:06:36.000Z</time>
      </trkpt>
      <trkpt lat="42.8438" lon="0.50352">
        <ele>1671</ele>
        <time>2020-02-01T10:06:37.000Z</time>
      </trkpt>
      <trkpt lat="42.84381" lon="0.50351">
        <ele>1670</ele>
        <time>2020-02-01T10:06:38.000Z</time>
      </trkpt>
      <trkpt lat="42.84381" lon="0.5035">
        <ele>1670</ele>
        <time>2020-02-01T10:06:39.000Z</time>
      </trkpt>
      <trkpt lat="42.84381" lon="0.50349">
        <ele>1670</ele>
        <time>2020-02-01T10:06:40.000Z</time>
      </trkpt>
      <trkpt lat="42.84382" lon="0.50348">
        <ele>1670</ele>
        <time>2020-02-01T10:06:41.000Z</time>
      </trkpt>
      <trkpt lat="42.84382" lon="0.50347">
        <ele>1670</ele>
        <time>2020-02-01T10:06:42.000Z</time>
      </trkpt>
      <trkpt lat="42.84382" lon="0.50346">
        <ele>1670</ele>
        <time>2020-02-01T10:06:43.000Z</time>
      </trkpt>
      <trkpt lat="42.84382" lon="0.50346">
        <ele>1671</ele>
        <time>2020-02-01T10:06:44.000Z</time>
      </trkpt>
      <trkpt lat="42.84382" lon="0.50345">
        <ele>1671</ele>
        <time>2020-02-01T10:06:45.000Z</time>
      </trkpt>
      <trkpt lat="42.84383" lon="0.50345">
        <ele>1671</ele>
        <time>2020-02-01T10:06:46.000Z</time>
      </trkpt>
      <trkpt lat="42.84383" lon="0.50344">
        <ele>1671</ele>
        <time>2020-02-01T10:06:47.000Z</time>
      </trkpt>
      <trkpt lat="42.84383" lon="0.50344">
        <ele>1671</ele>
        <time>2020-02-01T10:06:48.000Z</time>
      </trkpt>
      <trkpt lat="42.84383" lon="0.50344">
        <ele>1670</ele>
        <time>2020-02-01T10:06:49.000Z</time>
      </trkpt>
      <trkpt lat="42.84383" lon="0.50344">
        <ele>1670</ele>
        <time>2020-02-01T10:06:50.000Z</time>
      </trkpt>
      <trkpt lat="42.84383" lon="0.50344">
        <ele>1670</ele>
        <time>2020-02-01T10:06:51.000Z</time>
      </trkpt>
      <trkpt lat="42.84383" lon="0.50344">
        <ele>1671</ele>
        <time>2020-02-01T10:06:52.000Z</time>
      </trkpt>
      <trkpt lat="42.84383" lon="0.50344">
        <ele>1671</ele>
        <time>2020-02-01T10:06:53.000Z</time>
      </trkpt>
      <trkpt lat="42.84383" lon="0.50344">
        <ele>1671</ele>
        <time>2020-02-01T10:06:54.000Z</time>
      </trkpt>
      <trkpt lat="42.84383" lon="0.50344">
        <ele>1672</ele>
        <time>2020-02-01T10:06:55.000Z</time>
      </trkpt>
      <trkpt lat="42.84383" lon="0.50344">
        <ele>1672</ele>
        <time>2020-02-01T10:06:56.000Z</time>
      </trkpt>
      <trkpt lat="42.84383" lon="0.50344">
        <ele>1672</ele>
        <time>2020-02-01T10:06:57.000Z</time>
      </trkpt>
      <trkpt lat="42.84383" lon="0.50344">
        <ele>1672</ele>
        <time>2020-02-01T10:06:58.000Z</time>
      </trkpt>
      <trkpt lat="42.84383" lon="0.50344">
        <ele>1672</ele>
        <time>2020-02-01T10:06:59.000Z</time>
      </trkpt>
      <trkpt lat="42.84383" lon="0.50344">
        <ele>1672</ele>
        <time>2020-02-01T10:07:00.000Z</time>
      </trkpt>
      <trkpt lat="42.84383" lon="0.50344">
        <ele>1672</ele>
        <time>2020-02-01T10:07:01.000Z</time>
      </trkpt>
      <trkpt lat="42.84383" lon="0.50344">
        <ele>1673</ele>
        <time>2020-02-01T10:07:02.000Z</time>
      </trkpt>
      <trkpt lat="42.84383" lon="0.50344">
        <ele>1673</ele>
        <time>2020-02-01T10:07:03.000Z</time>
      </trkpt>
      <trkpt lat="42.84383" lon="0.50344">
        <ele>1672</ele>
        <time>2020-02-01T10:07:04.000Z</time>
      </trkpt>
      <trkpt lat="42.84383" lon="0.50343">
        <ele>1672</ele>
        <time>2020-02-01T10:07:05.000Z</time>
      </trkpt>
      <trkpt lat="42.84383" lon="0.50343">
        <ele>1671</ele>
        <time>2020-02-01T10:07:06.000Z</time>
      </trkpt>
      <trkpt lat="42.84383" lon="0.50343">
        <ele>1671</ele>
        <time>2020-02-01T10:07:07.000Z</time>
      </trkpt>
      <trkpt lat="42.84383" lon="0.50342">
        <ele>1671</ele>
        <time>2020-02-01T10:07:08.000Z</time>
      </trkpt>
      <trkpt lat="42.84383" lon="0.50341">
        <ele>1671</ele>
        <time>2020-02-01T10:07:09.000Z</time>
      </trkpt>
      <trkpt lat="42.84382" lon="0.50339">
        <ele>1671</ele>
        <time>2020-02-01T10:07:10.000Z</time>
      </trkpt>
      <trkpt lat="42.84382" lon="0.50338">
        <ele>1670</ele>
        <time>2020-02-01T10:07:11.000Z</time>
      </trkpt>
      <trkpt lat="42.84382" lon="0.50337">
        <ele>1670</ele>
        <time>2020-02-01T10:07:12.000Z</time>
      </trkpt>
      <trkpt lat="42.84382" lon="0.50335">
        <ele>1670</ele>
        <time>2020-02-01T10:07:13.000Z</time>
      </trkpt>
      <trkpt lat="42.84382" lon="0.50334">
        <ele>1670</ele>
        <time>2020-02-01T10:07:14.000Z</time>
      </trkpt>
      <trkpt lat="42.84382" lon="0.50333">
        <ele>1670</ele>
        <time>2020-02-01T10:07:15.000Z</time>
      </trkpt>
      <trkpt lat="42.84382" lon="0.50333">
        <ele>1670</ele>
        <time>2020-02-01T10:07:16.000Z</time>
      </trkpt>
      <trkpt lat="42.84382" lon="0.50332">
        <ele>1670</ele>
        <time>2020-02-01T10:07:17.000Z</time>
      </trkpt>
      <trkpt lat="42.84382" lon="0.50332">
        <ele>1670</ele>
        <time>2020-02-01T10:07:18.000Z</time>
      </trkpt>
      <trkpt lat="42.84382" lon="0.50332">
        <ele>1670</ele>
        <time>2020-02-01T10:07:19.000Z</time>
      </trkpt>
      <trkpt lat="42.84382" lon="0.50332">
        <ele>1670</ele>
        <time>2020-02-01T10:07:20.000Z</time>
      </trkpt>
      <trkpt lat="42.84382" lon="0.50332">
        <ele>1670</ele>
        <time>2020-02-01T10:07:21.000Z</time>
      </trkpt>
      <trkpt lat="42.84382" lon="0.50332">
        <ele>1670</ele>
        <time>2020-02-01T10:07:22.000Z</time>
      </trkpt>
      <trkpt lat="42.84382" lon="0.50332">
        <ele>1670</ele>
        <time>2020-02-01T10:07:23.000Z</time>
      </trkpt>
      <trkpt lat="42.84382" lon="0.50332">
        <ele>1670</ele>
        <time>2020-02-01T10:07:24.000Z</time>
      </trkpt>
      <trkpt lat="42.84382" lon="0.50332">
        <ele>1670</ele>
        <time>2020-02-01T10:07:25.000Z</time>
      </trkpt>
      <trkpt lat="42.84382" lon="0.50332">
        <ele>1671</ele>
        <time>2020-02-01T10:07:26.000Z</time>
      </trkpt>
      <trkpt lat="42.84382" lon="0.50332">
        <ele>1672</ele>
        <time>2020-02-01T10:07:27.000Z</time>
      </trkpt>
      <trkpt lat="42.84382" lon="0.50332">
        <ele>1672</ele>
        <time>2020-02-01T10:07:28.000Z</time>
      </trkpt>
      <trkpt lat="42.84382" lon="0.50332">
        <ele>1671</ele>
        <time>2020-02-01T10:07:29.000Z</time>
      </trkpt>
      <trkpt lat="42.84382" lon="0.50332">
        <ele>1673</ele>
        <time>2020-02-01T10:07:30.000Z</time>
      </trkpt>
      <trkpt lat="42.84382" lon="0.50332">
        <ele>1674</ele>
        <time>2020-02-01T10:07:31.000Z</time>
      </trkpt>
      <trkpt lat="42.84382" lon="0.50332">
        <ele>1674</ele>
        <time>2020-02-01T10:07:32.000Z</time>
      </trkpt>
      <trkpt lat="42.84382" lon="0.50332">
        <ele>1674</ele>
        <time>2020-02-01T10:07:33.000Z</time>
      </trkpt>
      <trkpt lat="42.84382" lon="0.50334">
        <ele>1674</ele>
        <time>2020-02-01T10:07:34.000Z</time>
      </trkpt>
      <trkpt lat="42.84382" lon="0.50337">
        <ele>1674</ele>
        <time>2020-02-01T10:07:35.000Z</time>
      </trkpt>
      <trkpt lat="42.84382" lon="0.50342">
        <ele>1674</ele>
        <time>2020-02-01T10:07:36.000Z</time>
      </trkpt>
      <trkpt lat="42.84382" lon="0.50348">
        <ele>1674</ele>
        <time>2020-02-01T10:07:49.000Z</time>
      </trkpt>
      <trkpt lat="42.84382" lon="0.50353">
        <ele>1674</ele>
        <time>2020-02-01T10:07:50.000Z</time>
      </trkpt>
      <trkpt lat="42.84382" lon="0.50356">
        <ele>1674</ele>
        <time>2020-02-01T10:07:51.000Z</time>
      </trkpt>
      <trkpt lat="42.84382" lon="0.50358">
        <ele>1674</ele>
        <time>2020-02-01T10:07:52.000Z</time>
      </trkpt>
      <trkpt lat="42.84382" lon="0.5036">
        <ele>1674</ele>
        <time>2020-02-01T10:07:53.000Z</time>
      </trkpt>
      <trkpt lat="42.84382" lon="0.50361">
        <ele>1674</ele>
        <time>2020-02-01T10:07:54.000Z</time>
      </trkpt>
      <trkpt lat="42.84382" lon="0.50362">
        <ele>1674</ele>
        <time>2020-02-01T10:07:55.000Z</time>
      </trkpt>
      <trkpt lat="42.84382" lon="0.50362">
        <ele>1672</ele>
        <time>2020-02-01T10:07:56.000Z</time>
      </trkpt>
      <trkpt lat="42.84382" lon="0.50362">
        <ele>1672</ele>
        <time>2020-02-01T10:07:57.000Z</time>
      </trkpt>
      <trkpt lat="42.84382" lon="0.50362">
        <ele>1671</ele>
        <time>2020-02-01T10:07:58.000Z</time>
      </trkpt>
      <trkpt lat="42.84382" lon="0.50362">
        <ele>1671</ele>
        <time>2020-02-01T10:07:59.000Z</time>
      </trkpt>
      <trkpt lat="42.84382" lon="0.50362">
        <ele>1670</ele>
        <time>2020-02-01T10:08:00.000Z</time>
      </trkpt>
      <trkpt lat="42.84382" lon="0.50362">
        <ele>1670</ele>
        <time>2020-02-01T10:08:01.000Z</time>
      </trkpt>
      <trkpt lat="42.84382" lon="0.50362">
        <ele>1670</ele>
        <time>2020-02-01T10:08:02.000Z</time>
      </trkpt>
      <trkpt lat="42.84382" lon="0.50363">
        <ele>1669</ele>
        <time>2020-02-01T10:08:03.000Z</time>
      </trkpt>
      <trkpt lat="42.84382" lon="0.50363">
        <ele>1669</ele>
        <time>2020-02-01T10:08:04.000Z</time>
      </trkpt>
      <trkpt lat="42.84382" lon="0.50364">
        <ele>1669</ele>
        <time>2020-02-01T10:08:05.000Z</time>
      </trkpt>
      <trkpt lat="42.84382" lon="0.50365">
        <ele>1669</ele>
        <time>2020-02-01T10:08:06.000Z</time>
      </trkpt>
      <trkpt lat="42.84382" lon="0.50366">
        <ele>1669</ele>
        <time>2020-02-01T10:08:07.000Z</time>
      </trkpt>
      <trkpt lat="42.84381" lon="0.50367">
        <ele>1669</ele>
        <time>2020-02-01T10:08:08.000Z</time>
      </trkpt>
      <trkpt lat="42.84381" lon="0.50368">
        <ele>1669</ele>
        <time>2020-02-01T10:08:09.000Z</time>
      </trkpt>
      <trkpt lat="42.84381" lon="0.50369">
        <ele>1669</ele>
        <time>2020-02-01T10:08:10.000Z</time>
      </trkpt>
      <trkpt lat="42.84381" lon="0.50369">
        <ele>1669</ele>
        <time>2020-02-01T10:08:11.000Z</time>
      </trkpt>
      <trkpt lat="42.84381" lon="0.50369">
        <ele>1669</ele>
        <time>2020-02-01T10:08:12.000Z</time>
      </trkpt>
      <trkpt lat="42.84381" lon="0.50369">
        <ele>1669</ele>
        <time>2020-02-01T10:08:13.000Z</time>
      </trkpt>
      <trkpt lat="42.84381" lon="0.50369">
        <ele>1670</ele>
        <time>2020-02-01T10:08:14.000Z</time>
      </trkpt>
      <trkpt lat="42.84381" lon="0.50369">
        <ele>1670</ele>
        <time>2020-02-01T10:08:15.000Z</time>
      </trkpt>
      <trkpt lat="42.84381" lon="0.50368">
        <ele>1670</ele>
        <time>2020-02-01T10:08:16.000Z</time>
      </trkpt>
      <trkpt lat="42.84381" lon="0.50367">
        <ele>1670</ele>
        <time>2020-02-01T10:08:17.000Z</time>
      </trkpt>
      <trkpt lat="42.84381" lon="0.50366">
        <ele>1670</ele>
        <time>2020-02-01T10:08:18.000Z</time>
      </trkpt>
      <trkpt lat="42.84381" lon="0.50365">
        <ele>1670</ele>
        <time>2020-02-01T10:08:33.000Z</time>
      </trkpt>
      <trkpt lat="42.84381" lon="0.50364">
        <ele>1669</ele>
        <time>2020-02-01T10:08:34.000Z</time>
      </trkpt>
      <trkpt lat="42.84381" lon="0.50363">
        <ele>1669</ele>
        <time>2020-02-01T10:08:35.000Z</time>
      </trkpt>
      <trkpt lat="42.84381" lon="0.50362">
        <ele>1669</ele>
        <time>2020-02-01T10:08:36.000Z</time>
      </trkpt>
      <trkpt lat="42.84381" lon="0.50361">
        <ele>1669</ele>
        <time>2020-02-01T10:08:37.000Z</time>
      </trkpt>
      <trkpt lat="42.84381" lon="0.5036">
        <ele>1669</ele>
        <time>2020-02-01T10:08:38.000Z</time>
      </trkpt>
      <trkpt lat="42.84381" lon="0.50359">
        <ele>1669</ele>
        <time>2020-02-01T10:08:39.000Z</time>
      </trkpt>
      <trkpt lat="42.84381" lon="0.50359">
        <ele>1669</ele>
        <time>2020-02-01T10:08:40.000Z</time>
      </trkpt>
      <trkpt lat="42.84381" lon="0.50358">
        <ele>1669</ele>
        <time>2020-02-01T10:08:41.000Z</time>
      </trkpt>
      <trkpt lat="42.8438" lon="0.50358">
        <ele>1670</ele>
        <time>2020-02-01T10:08:42.000Z</time>
      </trkpt>
      <trkpt lat="42.8438" lon="0.50357">
        <ele>1670</ele>
        <time>2020-02-01T10:08:43.000Z</time>
      </trkpt>
      <trkpt lat="42.8438" lon="0.50357">
        <ele>1670</ele>
        <time>2020-02-01T10:08:44.000Z</time>
      </trkpt>
      <trkpt lat="42.8438" lon="0.50357">
        <ele>1670</ele>
        <time>2020-02-01T10:08:45.000Z</time>
      </trkpt>
      <trkpt lat="42.8438" lon="0.50357">
        <ele>1670</ele>
        <time>2020-02-01T10:08:46.000Z</time>
      </trkpt>
      <trkpt lat="42.8438" lon="0.50357">
        <ele>1669</ele>
        <time>2020-02-01T10:08:47.000Z</time>
      </trkpt>
      <trkpt lat="42.8438" lon="0.50357">
        <ele>1669</ele>
        <time>2020-02-01T10:08:48.000Z</time>
      </trkpt>
      <trkpt lat="42.8438" lon="0.50357">
        <ele>1669</ele>
        <time>2020-02-01T10:08:49.000Z</time>
      </trkpt>
      <trkpt lat="42.8438" lon="0.50357">
        <ele>1669</ele>
        <time>2020-02-01T10:08:50.000Z</time>
      </trkpt>
      <trkpt lat="42.8438" lon="0.50357">
        <ele>1669</ele>
        <time>2020-02-01T10:08:51.000Z</time>
      </trkpt>
      <trkpt lat="42.8438" lon="0.50357">
        <ele>1669</ele>
        <time>2020-02-01T10:08:52.000Z</time>
      </trkpt>
      <trkpt lat="42.8438" lon="0.50357">
        <ele>1670</ele>
        <time>2020-02-01T10:08:53.000Z</time>
      </trkpt>
      <trkpt lat="42.84379" lon="0.50357">
        <ele>1670</ele>
        <time>2020-02-01T10:08:54.000Z</time>
      </trkpt>
      <trkpt lat="42.84379" lon="0.50358">
        <ele>1670</ele>
        <time>2020-02-01T10:08:55.000Z</time>
      </trkpt>
      <trkpt lat="42.84379" lon="0.50358">
        <ele>1670</ele>
        <time>2020-02-01T10:08:56.000Z</time>
      </trkpt>
      <trkpt lat="42.84379" lon="0.50358">
        <ele>1670</ele>
        <time>2020-02-01T10:08:57.000Z</time>
      </trkpt>
      <trkpt lat="42.84379" lon="0.50357">
        <ele>1670</ele>
        <time>2020-02-01T10:08:58.000Z</time>
      </trkpt>
      <trkpt lat="42.84379" lon="0.50357">
        <ele>1670</ele>
        <time>2020-02-01T10:08:59.000Z</time>
      </trkpt>
      <trkpt lat="42.84379" lon="0.50357">
        <ele>1670</ele>
        <time>2020-02-01T10:09:00.000Z</time>
      </trkpt>
      <trkpt lat="42.84379" lon="0.50357">
        <ele>1670</ele>
        <time>2020-02-01T10:09:01.000Z</time>
      </trkpt>
      <trkpt lat="42.84379" lon="0.50357">
        <ele>1670</ele>
        <time>2020-02-01T10:09:02.000Z</time>
      </trkpt>
      <trkpt lat="42.84379" lon="0.50357">
        <ele>1670</ele>
        <time>2020-02-01T10:09:03.000Z</time>
      </trkpt>
      <trkpt lat="42.84379" lon="0.50356">
        <ele>1670</ele>
        <time>2020-02-01T10:09:04.000Z</time>
      </trkpt>
      <trkpt lat="42.84379" lon="0.50356">
        <ele>1670</ele>
        <time>2020-02-01T10:09:05.000Z</time>
      </trkpt>
      <trkpt lat="42.8438" lon="0.50356">
        <ele>1670</ele>
        <time>2020-02-01T10:09:06.000Z</time>
      </trkpt>
      <trkpt lat="42.8438" lon="0.50356">
        <ele>1670</ele>
        <time>2020-02-01T10:09:07.000Z</time>
      </trkpt>
      <trkpt lat="42.8438" lon="0.50356">
        <ele>1670</ele>
        <time>2020-02-01T10:09:08.000Z</time>
      </trkpt>
      <trkpt lat="42.84381" lon="0.50355">
        <ele>1670</ele>
        <time>2020-02-01T10:09:09.000Z</time>
      </trkpt>
      <trkpt lat="42.84381" lon="0.50355">
        <ele>1670</ele>
        <time>2020-02-01T10:09:10.000Z</time>
      </trkpt>
      <trkpt lat="42.84381" lon="0.50355">
        <ele>1670</ele>
        <time>2020-02-01T10:09:11.000Z</time>
      </trkpt>
      <trkpt lat="42.84381" lon="0.50355">
        <ele>1670</ele>
        <time>2020-02-01T10:09:12.000Z</time>
      </trkpt>
      <trkpt lat="42.84381" lon="0.50355">
        <ele>1670</ele>
        <time>2020-02-01T10:09:13.000Z</time>
      </trkpt>
      <trkpt lat="42.84381" lon="0.50355">
        <ele>1670</ele>
        <time>2020-02-01T10:09:14.000Z</time>
      </trkpt>
      <trkpt lat="42.84381" lon="0.50355">
        <ele>1670</ele>
        <time>2020-02-01T10:09:15.000Z</time>
      </trkpt>
      <trkpt lat="42.84381" lon="0.50355">
        <ele>1670</ele>
        <time>2020-02-01T10:09:16.000Z</time>
      </trkpt>
      <trkpt lat="42.84381" lon="0.50355">
        <ele>1670</ele>
        <time>2020-02-01T10:09:17.000Z</time>
      </trkpt>
      <trkpt lat="42.84381" lon="0.50355">
        <ele>1670</ele>
        <time>2020-02-01T10:09:18.000Z</time>
      </trkpt>
      <trkpt lat="42.84381" lon="0.50355">
        <ele>1670</ele>
        <time>2020-02-01T10:09:19.000Z</time>
      </trkpt>
      <trkpt lat="42.84381" lon="0.50355">
        <ele>1670</ele>
        <time>2020-02-01T10:09:20.000Z</time>
      </trkpt>
      <trkpt lat="42.84381" lon="0.50355">
        <ele>1670</ele>
        <time>2020-02-01T10:09:21.000Z</time>
      </trkpt>
      <trkpt lat="42.84381" lon="0.50355">
        <ele>1670</ele>
        <time>2020-02-01T10:09:22.000Z</time>
      </trkpt>
      <trkpt lat="42.84381" lon="0.50355">
        <ele>1670</ele>
        <time>2020-02-01T10:09:23.000Z</time>
      </trkpt>
      <trkpt lat="42.84381" lon="0.50355">
        <ele>1670</ele>
        <time>2020-02-01T10:09:24.000Z</time>
      </trkpt>
      <trkpt lat="42.84381" lon="0.50355">
        <ele>1670</ele>
        <time>2020-02-01T10:09:25.000Z</time>
      </trkpt>
      <trkpt lat="42.84381" lon="0.50355">
        <ele>1670</ele>
        <time>2020-02-01T10:09:26.000Z</time>
      </trkpt>
      <trkpt lat="42.84381" lon="0.50355">
        <ele>1670</ele>
        <time>2020-02-01T10:09:27.000Z</time>
      </trkpt>
      <trkpt lat="42.84381" lon="0.50354">
        <ele>1670</ele>
        <time>2020-02-01T10:09:28.000Z</time>
      </trkpt>
      <trkpt lat="42.84382" lon="0.50353">
        <ele>1670</ele>
        <time>2020-02-01T10:09:29.000Z</time>
      </trkpt>
      <trkpt lat="42.84382" lon="0.50351">
        <ele>1670</ele>
        <time>2020-02-01T10:09:30.000Z</time>
      </trkpt>
      <trkpt lat="42.84383" lon="0.50349">
        <ele>1670</ele>
        <time>2020-02-01T10:09:31.000Z</time>
      </trkpt>
      <trkpt lat="42.84383" lon="0.50348">
        <ele>1670</ele>
        <time>2020-02-01T10:09:32.000Z</time>
      </trkpt>
      <trkpt lat="42.84383" lon="0.50347">
        <ele>1670</ele>
        <time>2020-02-01T10:09:33.000Z</time>
      </trkpt>
      <trkpt lat="42.84384" lon="0.50347">
        <ele>1670</ele>
        <time>2020-02-01T10:09:34.000Z</time>
      </trkpt>
      <trkpt lat="42.84384" lon="0.50346">
        <ele>1670</ele>
        <time>2020-02-01T10:09:35.000Z</time>
      </trkpt>
      <trkpt lat="42.84384" lon="0.50346">
        <ele>1670</ele>
        <time>2020-02-01T10:09:36.000Z</time>
      </trkpt>
      <trkpt lat="42.84384" lon="0.50346">
        <ele>1670</ele>
        <time>2020-02-01T10:09:37.000Z</time>
      </trkpt>
      <trkpt lat="42.84384" lon="0.50346">
        <ele>1670</ele>
        <time>2020-02-01T10:09:38.000Z</time>
      </trkpt>
      <trkpt lat="42.84384" lon="0.50345">
        <ele>1670</ele>
        <time>2020-02-01T10:09:39.000Z</time>
      </trkpt>
      <trkpt lat="42.84384" lon="0.50345">
        <ele>1670</ele>
        <time>2020-02-01T10:09:40.000Z</time>
      </trkpt>
      <trkpt lat="42.84384" lon="0.50345">
        <ele>1670</ele>
        <time>2020-02-01T10:09:41.000Z</time>
      </trkpt>
      <trkpt lat="42.84384" lon="0.50345">
        <ele>1670</ele>
        <time>2020-02-01T10:09:42.000Z</time>
      </trkpt>
      <trkpt lat="42.84384" lon="0.50345">
        <ele>1670</ele>
        <time>2020-02-01T10:09:43.000Z</time>
      </trkpt>
      <trkpt lat="42.84384" lon="0.50345">
        <ele>1670</ele>
        <time>2020-02-01T10:09:44.000Z</time>
      </trkpt>
      <trkpt lat="42.84384" lon="0.50345">
        <ele>1670</ele>
        <time>2020-02-01T10:09:45.000Z</time>
      </trkpt>
      <trkpt lat="42.84385" lon="0.50344">
        <ele>1670</ele>
        <time>2020-02-01T10:09:46.000Z</time>
      </trkpt>
      <trkpt lat="42.84385" lon="0.50344">
        <ele>1670</ele>
        <time>2020-02-01T10:09:47.000Z</time>
      </trkpt>
      <trkpt lat="42.84386" lon="0.50343">
        <ele>1670</ele>
        <time>2020-02-01T10:09:48.000Z</time>
      </trkpt>
      <trkpt lat="42.84387" lon="0.50342">
        <ele>1670</ele>
        <time>2020-02-01T10:09:49.000Z</time>
      </trkpt>
      <trkpt lat="42.84388" lon="0.50341">
        <ele>1670</ele>
        <time>2020-02-01T10:09:50.000Z</time>
      </trkpt>
      <trkpt lat="42.84389" lon="0.5034">
        <ele>1670</ele>
        <time>2020-02-01T10:09:51.000Z</time>
      </trkpt>
      <trkpt lat="42.8439" lon="0.5034">
        <ele>1670</ele>
        <time>2020-02-01T10:09:52.000Z</time>
      </trkpt>
      <trkpt lat="42.8439" lon="0.5034">
        <ele>1670</ele>
        <time>2020-02-01T10:09:53.000Z</time>
      </trkpt>
      <trkpt lat="42.8439" lon="0.50339">
        <ele>1670</ele>
        <time>2020-02-01T10:09:54.000Z</time>
      </trkpt>
      <trkpt lat="42.84391" lon="0.50339">
        <ele>1670</ele>
        <time>2020-02-01T10:09:55.000Z</time>
      </trkpt>
      <trkpt lat="42.84391" lon="0.50339">
        <ele>1670</ele>
        <time>2020-02-01T10:09:56.000Z</time>
      </trkpt>
      <trkpt lat="42.84391" lon="0.50339">
        <ele>1670</ele>
        <time>2020-02-01T10:09:57.000Z</time>
      </trkpt>
      <trkpt lat="42.84391" lon="0.50339">
        <ele>1670</ele>
        <time>2020-02-01T10:09:58.000Z</time>
      </trkpt>
      <trkpt lat="42.84391" lon="0.50339">
        <ele>1670</ele>
        <time>2020-02-01T10:09:59.000Z</time>
      </trkpt>
      <trkpt lat="42.84391" lon="0.50339">
        <ele>1670</ele>
        <time>2020-02-01T10:10:00.000Z</time>
      </trkpt>
      <trkpt lat="42.84391" lon="0.50339">
        <ele>1670</ele>
        <time>2020-02-01T10:10:01.000Z</time>
      </trkpt>
      <trkpt lat="42.84391" lon="0.50339">
        <ele>1670</ele>
        <time>2020-02-01T10:10:02.000Z</time>
      </trkpt>
      <trkpt lat="42.84391" lon="0.50339">
        <ele>1670</ele>
        <time>2020-02-01T10:10:03.000Z</time>
      </trkpt>
      <trkpt lat="42.84391" lon="0.50339">
        <ele>1670</ele>
        <time>2020-02-01T10:10:04.000Z</time>
      </trkpt>
      <trkpt lat="42.84391" lon="0.50339">
        <ele>1670</ele>
        <time>2020-02-01T10:10:05.000Z</time>
      </trkpt>
      <trkpt lat="42.84391" lon="0.50339">
        <ele>1670</ele>
        <time>2020-02-01T10:10:06.000Z</time>
      </trkpt>
      <trkpt lat="42.84391" lon="0.50339">
        <ele>1670</ele>
        <time>2020-02-01T10:10:07.000Z</time>
      </trkpt>
      <trkpt lat="42.84391" lon="0.50339">
        <ele>1670</ele>
        <time>2020-02-01T10:10:08.000Z</time>
      </trkpt>
      <trkpt lat="42.84391" lon="0.50339">
        <ele>1670</ele>
        <time>2020-02-01T10:10:09.000Z</time>
      </trkpt>
      <trkpt lat="42.84391" lon="0.50339">
        <ele>1670</ele>
        <time>2020-02-01T10:10:10.000Z</time>
      </trkpt>
      <trkpt lat="42.84391" lon="0.50339">
        <ele>1670</ele>
        <time>2020-02-01T10:10:11.000Z</time>
      </trkpt>
      <trkpt lat="42.84391" lon="0.50339">
        <ele>1670</ele>
        <time>2020-02-01T10:10:12.000Z</time>
      </trkpt>
      <trkpt lat="42.84391" lon="0.50339">
        <ele>1670</ele>
        <time>2020-02-01T10:10:13.000Z</time>
      </trkpt>
      <trkpt lat="42.84391" lon="0.50339">
        <ele>1670</ele>
        <time>2020-02-01T10:10:14.000Z</time>
      </trkpt>
      <trkpt lat="42.84391" lon="0.50339">
        <ele>1670</ele>
        <time>2020-02-01T10:10:15.000Z</time>
      </trkpt>
      <trkpt lat="42.84391" lon="0.50339">
        <ele>1670</ele>
        <time>2020-02-01T10:10:16.000Z</time>
      </trkpt>
      <trkpt lat="42.84391" lon="0.50339">
        <ele>1670</ele>
        <time>2020-02-01T10:10:17.000Z</time>
      </trkpt>
      <trkpt lat="42.8439" lon="0.50339">
        <ele>1670</ele>
        <time>2020-02-01T10:10:18.000Z</time>
      </trkpt>
      <trkpt lat="42.84389" lon="0.50339">
        <ele>1670</ele>
        <time>2020-02-01T10:10:19.000Z</time>
      </trkpt>
      <trkpt lat="42.84388" lon="0.5034">
        <ele>1670</ele>
        <time>2020-02-01T10:10:20.000Z</time>
      </trkpt>
      <trkpt lat="42.84388" lon="0.5034">
        <ele>1670</ele>
        <time>2020-02-01T10:10:21.000Z</time>
      </trkpt>
      <trkpt lat="42.84387" lon="0.5034">
        <ele>1670</ele>
        <time>2020-02-01T10:10:22.000Z</time>
      </trkpt>
      <trkpt lat="42.84386" lon="0.5034">
        <ele>1670</ele>
        <time>2020-02-01T10:10:23.000Z</time>
      </trkpt>
      <trkpt lat="42.84386" lon="0.50341">
        <ele>1670</ele>
        <time>2020-02-01T10:10:24.000Z</time>
      </trkpt>
      <trkpt lat="42.84385" lon="0.50341">
        <ele>1670</ele>
        <time>2020-02-01T10:10:25.000Z</time>
      </trkpt>
      <trkpt lat="42.84385" lon="0.50341">
        <ele>1670</ele>
        <time>2020-02-01T10:10:26.000Z</time>
      </trkpt>
      <trkpt lat="42.84384" lon="0.50342">
        <ele>1670</ele>
        <time>2020-02-01T10:10:27.000Z</time>
      </trkpt>
      <trkpt lat="42.84384" lon="0.50342">
        <ele>1670</ele>
        <time>2020-02-01T10:10:28.000Z</time>
      </trkpt>
      <trkpt lat="42.84384" lon="0.50343">
        <ele>1670</ele>
        <time>2020-02-01T10:10:29.000Z</time>
      </trkpt>
      <trkpt lat="42.84383" lon="0.50343">
        <ele>1670</ele>
        <time>2020-02-01T10:10:30.000Z</time>
      </trkpt>
      <trkpt lat="42.84383" lon="0.50344">
        <ele>1670</ele>
        <time>2020-02-01T10:10:31.000Z</time>
      </trkpt>
      <trkpt lat="42.84383" lon="0.50344">
        <ele>1670</ele>
        <time>2020-02-01T10:10:32.000Z</time>
      </trkpt>
      <trkpt lat="42.84382" lon="0.50345">
        <ele>1670</ele>
        <time>2020-02-01T10:10:33.000Z</time>
      </trkpt>
      <trkpt lat="42.84382" lon="0.50345">
        <ele>1670</ele>
        <time>2020-02-01T10:10:34.000Z</time>
      </trkpt>
      <trkpt lat="42.84382" lon="0.50346">
        <ele>1670</ele>
        <time>2020-02-01T10:10:35.000Z</time>
      </trkpt>
      <trkpt lat="42.84381" lon="0.50347">
        <ele>1670</ele>
        <time>2020-02-01T10:10:36.000Z</time>
      </trkpt>
      <trkpt lat="42.84381" lon="0.50347">
        <ele>1670</ele>
        <time>2020-02-01T10:10:37.000Z</time>
      </trkpt>
      <trkpt lat="42.8438" lon="0.50347">
        <ele>1670</ele>
        <time>2020-02-01T10:10:38.000Z</time>
      </trkpt>
      <trkpt lat="42.8438" lon="0.50348">
        <ele>1670</ele>
        <time>2020-02-01T10:10:39.000Z</time>
      </trkpt>
      <trkpt lat="42.8438" lon="0.50348">
        <ele>1670</ele>
        <time>2020-02-01T10:10:40.000Z</time>
      </trkpt>
      <trkpt lat="42.84379" lon="0.50348">
        <ele>1670</ele>
        <time>2020-02-01T10:10:41.000Z</time>
      </trkpt>
      <trkpt lat="42.84379" lon="0.50348">
        <ele>1670</ele>
        <time>2020-02-01T10:10:42.000Z</time>
      </trkpt>
      <trkpt lat="42.84379" lon="0.50348">
        <ele>1670</ele>
        <time>2020-02-01T10:10:43.000Z</time>
      </trkpt>
      <trkpt lat="42.84379" lon="0.50348">
        <ele>1670</ele>
        <time>2020-02-01T10:10:44.000Z</time>
      </trkpt>
      <trkpt lat="42.84379" lon="0.50348">
        <ele>1670</ele>
        <time>2020-02-01T10:10:45.000Z</time>
      </trkpt>
      <trkpt lat="42.84379" lon="0.50348">
        <ele>1670</ele>
        <time>2020-02-01T10:10:46.000Z</time>
      </trkpt>
      <trkpt lat="42.84379" lon="0.50348">
        <ele>1670</ele>
        <time>2020-02-01T10:10:47.000Z</time>
      </trkpt>
      <trkpt lat="42.84379" lon="0.50348">
        <ele>1670</ele>
        <time>2020-02-01T10:10:48.000Z</time>
      </trkpt>
      <trkpt lat="42.84379" lon="0.50348">
        <ele>1670</ele>
        <time>2020-02-01T10:10:49.000Z</time>
      </trkpt>
      <trkpt lat="42.84379" lon="0.50349">
        <ele>1670</ele>
        <time>2020-02-01T10:10:50.000Z</time>
      </trkpt>
      <trkpt lat="42.84378" lon="0.50349">
        <ele>1670</ele>
        <time>2020-02-01T10:10:51.000Z</time>
      </trkpt>
      <trkpt lat="42.84378" lon="0.50349">
        <ele>1670</ele>
        <time>2020-02-01T10:10:52.000Z</time>
      </trkpt>
      <trkpt lat="42.84378" lon="0.50349">
        <ele>1670</ele>
        <time>2020-02-01T10:10:53.000Z</time>
      </trkpt>
      <trkpt lat="42.84377" lon="0.50349">
        <ele>1670</ele>
        <time>2020-02-01T10:10:54.000Z</time>
      </trkpt>
      <trkpt lat="42.84377" lon="0.50349">
        <ele>1670</ele>
        <time>2020-02-01T10:10:55.000Z</time>
      </trkpt>
      <trkpt lat="42.84377" lon="0.50348">
        <ele>1670</ele>
        <time>2020-02-01T10:10:56.000Z</time>
      </trkpt>
      <trkpt lat="42.84377" lon="0.50348">
        <ele>1670</ele>
        <time>2020-02-01T10:10:57.000Z</time>
      </trkpt>
      <trkpt lat="42.84377" lon="0.50347">
        <ele>1670</ele>
        <time>2020-02-01T10:10:58.000Z</time>
      </trkpt>
      <trkpt lat="42.84377" lon="0.50346">
        <ele>1671</ele>
        <time>2020-02-01T10:10:59.000Z</time>
      </trkpt>
      <trkpt lat="42.84377" lon="0.50346">
        <ele>1671</ele>
        <time>2020-02-01T10:11:00.000Z</time>
      </trkpt>
      <trkpt lat="42.84378" lon="0.50345">
        <ele>1671</ele>
        <time>2020-02-01T10:11:01.000Z</time>
      </trkpt>
      <trkpt lat="42.84378" lon="0.50344">
        <ele>1670</ele>
        <time>2020-02-01T10:11:02.000Z</time>
      </trkpt>
      <trkpt lat="42.84378" lon="0.50344">
        <ele>1670</ele>
        <time>2020-02-01T10:11:03.000Z</time>
      </trkpt>
      <trkpt lat="42.84379" lon="0.50343">
        <ele>1670</ele>
        <time>2020-02-01T10:11:04.000Z</time>
      </trkpt>
      <trkpt lat="42.84379" lon="0.50343">
        <ele>1670</ele>
        <time>2020-02-01T10:11:05.000Z</time>
      </trkpt>
      <trkpt lat="42.84379" lon="0.50342">
        <ele>1670</ele>
        <time>2020-02-01T10:11:06.000Z</time>
      </trkpt>
      <trkpt lat="42.84379" lon="0.50342">
        <ele>1670</ele>
        <time>2020-02-01T10:11:07.000Z</time>
      </trkpt>
      <trkpt lat="42.8438" lon="0.50342">
        <ele>1670</ele>
        <time>2020-02-01T10:11:08.000Z</time>
      </trkpt>
      <trkpt lat="42.8438" lon="0.50342">
        <ele>1670</ele>
        <time>2020-02-01T10:11:09.000Z</time>
      </trkpt>
      <trkpt lat="42.8438" lon="0.50342">
        <ele>1670</ele>
        <time>2020-02-01T10:11:10.000Z</time>
      </trkpt>
      <trkpt lat="42.8438" lon="0.50342">
        <ele>1670</ele>
        <time>2020-02-01T10:11:11.000Z</time>
      </trkpt>
      <trkpt lat="42.84381" lon="0.50342">
        <ele>1670</ele>
        <time>2020-02-01T10:11:12.000Z</time>
      </trkpt>
      <trkpt lat="42.84381" lon="0.50343">
        <ele>1670</ele>
        <time>2020-02-01T10:11:13.000Z</time>
      </trkpt>
      <trkpt lat="42.84381" lon="0.50343">
        <ele>1669</ele>
        <time>2020-02-01T10:11:14.000Z</time>
      </trkpt>
      <trkpt lat="42.84381" lon="0.50344">
        <ele>1669</ele>
        <time>2020-02-01T10:11:15.000Z</time>
      </trkpt>
      <trkpt lat="42.84381" lon="0.50344">
        <ele>1669</ele>
        <time>2020-02-01T10:11:16.000Z</time>
      </trkpt>
      <trkpt lat="42.84381" lon="0.50344">
        <ele>1669</ele>
        <time>2020-02-01T10:11:17.000Z</time>
      </trkpt>
      <trkpt lat="42.84381" lon="0.50345">
        <ele>1669</ele>
        <time>2020-02-01T10:11:18.000Z</time>
      </trkpt>
      <trkpt lat="42.84381" lon="0.50345">
        <ele>1669</ele>
        <time>2020-02-01T10:11:19.000Z</time>
      </trkpt>
      <trkpt lat="42.84381" lon="0.50345">
        <ele>1669</ele>
        <time>2020-02-01T10:11:20.000Z</time>
      </trkpt>
      <trkpt lat="42.84381" lon="0.50345">
        <ele>1669</ele>
        <time>2020-02-01T10:11:21.000Z</time>
      </trkpt>
      <trkpt lat="42.84381" lon="0.50345">
        <ele>1669</ele>
        <time>2020-02-01T10:11:22.000Z</time>
      </trkpt>
      <trkpt lat="42.84381" lon="0.50347">
        <ele>1669</ele>
        <time>2020-02-01T10:11:23.000Z</time>
      </trkpt>
      <trkpt lat="42.8438" lon="0.5035">
        <ele>1669</ele>
        <time>2020-02-01T10:11:24.000Z</time>
      </trkpt>
      <trkpt lat="42.84379" lon="0.50354">
        <ele>1669</ele>
        <time>2020-02-01T10:11:25.000Z</time>
      </trkpt>
      <trkpt lat="42.84379" lon="0.50357">
        <ele>1669</ele>
        <time>2020-02-01T10:11:26.000Z</time>
      </trkpt>
      <trkpt lat="42.84378" lon="0.5036">
        <ele>1669</ele>
        <time>2020-02-01T10:11:27.000Z</time>
      </trkpt>
      <trkpt lat="42.84377" lon="0.50361">
        <ele>1669</ele>
        <time>2020-02-01T10:11:28.000Z</time>
      </trkpt>
      <trkpt lat="42.84377" lon="0.50361">
        <ele>1669</ele>
        <time>2020-02-01T10:11:29.000Z</time>
      </trkpt>
      <trkpt lat="42.84377" lon="0.50361">
        <ele>1669</ele>
        <time>2020-02-01T10:11:30.000Z</time>
      </trkpt>
      <trkpt lat="42.84376" lon="0.50361">
        <ele>1669</ele>
        <time>2020-02-01T10:11:31.000Z</time>
      </trkpt>
      <trkpt lat="42.84377" lon="0.50362">
        <ele>1669</ele>
        <time>2020-02-01T10:11:32.000Z</time>
      </trkpt>
      <trkpt lat="42.84377" lon="0.50363">
        <ele>1669</ele>
        <time>2020-02-01T10:11:33.000Z</time>
      </trkpt>
      <trkpt lat="42.84377" lon="0.50366">
        <ele>1669</ele>
        <time>2020-02-01T10:11:34.000Z</time>
      </trkpt>
      <trkpt lat="42.84378" lon="0.50371">
        <ele>1669</ele>
        <time>2020-02-01T10:11:35.000Z</time>
      </trkpt>
      <trkpt lat="42.84379" lon="0.50377">
        <ele>1669</ele>
        <time>2020-02-01T10:11:36.000Z</time>
      </trkpt>
      <trkpt lat="42.8438" lon="0.50384">
        <ele>1669</ele>
        <time>2020-02-01T10:11:37.000Z</time>
      </trkpt>
      <trkpt lat="42.8438" lon="0.50383">
        <ele>1670</ele>
        <time>2020-02-01T10:14:42.000Z</time>
      </trkpt>
      <trkpt lat="42.84379" lon="0.50382">
        <ele>1670</ele>
        <time>2020-02-01T10:14:43.000Z</time>
      </trkpt>
      <trkpt lat="42.84379" lon="0.50382">
        <ele>1670</ele>
        <time>2020-02-01T10:14:44.000Z</time>
      </trkpt>
      <trkpt lat="42.84379" lon="0.50381">
        <ele>1670</ele>
        <time>2020-02-01T10:14:45.000Z</time>
      </trkpt>
      <trkpt lat="42.84379" lon="0.50381">
        <ele>1670</ele>
        <time>2020-02-01T10:14:46.000Z</time>
      </trkpt>
      <trkpt lat="42.84379" lon="0.50381">
        <ele>1670</ele>
        <time>2020-02-01T10:14:47.000Z</time>
      </trkpt>
      <trkpt lat="42.84379" lon="0.50381">
        <ele>1670</ele>
        <time>2020-02-01T10:14:48.000Z</time>
      </trkpt>
      <trkpt lat="42.84379" lon="0.50381">
        <ele>1670</ele>
        <time>2020-02-01T10:14:49.000Z</time>
      </trkpt>
      <trkpt lat="42.84379" lon="0.50381">
        <ele>1670</ele>
        <time>2020-02-01T10:14:50.000Z</time>
      </trkpt>
      <trkpt lat="42.84379" lon="0.50381">
        <ele>1670</ele>
        <time>2020-02-01T10:14:51.000Z</time>
      </trkpt>
      <trkpt lat="42.84379" lon="0.5038">
        <ele>1670</ele>
        <time>2020-02-01T10:14:52.000Z</time>
      </trkpt>
      <trkpt lat="42.84379" lon="0.50379">
        <ele>1670</ele>
        <time>2020-02-01T10:14:53.000Z</time>
      </trkpt>
      <trkpt lat="42.84379" lon="0.50377">
        <ele>1670</ele>
        <time>2020-02-01T10:14:54.000Z</time>
      </trkpt>
      <trkpt lat="42.84379" lon="0.50376">
        <ele>1670</ele>
        <time>2020-02-01T10:14:55.000Z</time>
      </trkpt>
      <trkpt lat="42.84379" lon="0.50374">
        <ele>1670</ele>
        <time>2020-02-01T10:14:56.000Z</time>
      </trkpt>
      <trkpt lat="42.84379" lon="0.50372">
        <ele>1670</ele>
        <time>2020-02-01T10:14:57.000Z</time>
      </trkpt>
      <trkpt lat="42.8438" lon="0.5037">
        <ele>1670</ele>
        <time>2020-02-01T10:14:58.000Z</time>
      </trkpt>
      <trkpt lat="42.8438" lon="0.50367">
        <ele>1670</ele>
        <time>2020-02-01T10:14:59.000Z</time>
      </trkpt>
      <trkpt lat="42.8438" lon="0.50365">
        <ele>1670</ele>
        <time>2020-02-01T10:15:00.000Z</time>
      </trkpt>
      <trkpt lat="42.84381" lon="0.50363">
        <ele>1670</ele>
        <time>2020-02-01T10:15:01.000Z</time>
      </trkpt>
      <trkpt lat="42.84381" lon="0.50362">
        <ele>1670</ele>
        <time>2020-02-01T10:15:02.000Z</time>
      </trkpt>
      <trkpt lat="42.84381" lon="0.50361">
        <ele>1670</ele>
        <time>2020-02-01T10:15:03.000Z</time>
      </trkpt>
      <trkpt lat="42.84381" lon="0.50361">
        <ele>1670</ele>
        <time>2020-02-01T10:15:04.000Z</time>
      </trkpt>
      <trkpt lat="42.84381" lon="0.5036">
        <ele>1670</ele>
        <time>2020-02-01T10:15:05.000Z</time>
      </trkpt>
      <trkpt lat="42.84381" lon="0.5036">
        <ele>1670</ele>
        <time>2020-02-01T10:15:06.000Z</time>
      </trkpt>
      <trkpt lat="42.84381" lon="0.5036">
        <ele>1670</ele>
        <time>2020-02-01T10:15:07.000Z</time>
      </trkpt>
      <trkpt lat="42.84381" lon="0.5036">
        <ele>1670</ele>
        <time>2020-02-01T10:15:08.000Z</time>
      </trkpt>
      <trkpt lat="42.84381" lon="0.5036">
        <ele>1670</ele>
        <time>2020-02-01T10:15:09.000Z</time>
      </trkpt>
      <trkpt lat="42.84381" lon="0.5036">
        <ele>1670</ele>
        <time>2020-02-01T10:15:10.000Z</time>
      </trkpt>
      <trkpt lat="42.84382" lon="0.5036">
        <ele>1670</ele>
        <time>2020-02-01T10:15:11.000Z</time>
      </trkpt>
      <trkpt lat="42.84382" lon="0.50359">
        <ele>1670</ele>
        <time>2020-02-01T10:15:12.000Z</time>
      </trkpt>
      <trkpt lat="42.84382" lon="0.50359">
        <ele>1670</ele>
        <time>2020-02-01T10:15:13.000Z</time>
      </trkpt>
      <trkpt lat="42.84382" lon="0.50358">
        <ele>1670</ele>
        <time>2020-02-01T10:15:14.000Z</time>
      </trkpt>
      <trkpt lat="42.84382" lon="0.50357">
        <ele>1670</ele>
        <time>2020-02-01T10:15:15.000Z</time>
      </trkpt>
      <trkpt lat="42.84382" lon="0.50357">
        <ele>1670</ele>
        <time>2020-02-01T10:15:16.000Z</time>
      </trkpt>
      <trkpt lat="42.84382" lon="0.50356">
        <ele>1670</ele>
        <time>2020-02-01T10:15:17.000Z</time>
      </trkpt>
      <trkpt lat="42.84382" lon="0.50356">
        <ele>1670</ele>
        <time>2020-02-01T10:15:18.000Z</time>
      </trkpt>
      <trkpt lat="42.84382" lon="0.50356">
        <ele>1670</ele>
        <time>2020-02-01T10:15:19.000Z</time>
      </trkpt>
      <trkpt lat="42.84382" lon="0.50356">
        <ele>1670</ele>
        <time>2020-02-01T10:15:20.000Z</time>
      </trkpt>
      <trkpt lat="42.84382" lon="0.50355">
        <ele>1670</ele>
        <time>2020-02-01T10:15:21.000Z</time>
      </trkpt>
      <trkpt lat="42.84382" lon="0.50355">
        <ele>1670</ele>
        <time>2020-02-01T10:15:22.000Z</time>
      </trkpt>
      <trkpt lat="42.84382" lon="0.50355">
        <ele>1670</ele>
        <time>2020-02-01T10:15:23.000Z</time>
      </trkpt>
      <trkpt lat="42.84382" lon="0.50355">
        <ele>1670</ele>
        <time>2020-02-01T10:15:24.000Z</time>
      </trkpt>
      <trkpt lat="42.84382" lon="0.50355">
        <ele>1670</ele>
        <time>2020-02-01T10:15:25.000Z</time>
      </trkpt>
      <trkpt lat="42.84382" lon="0.50354">
        <ele>1670</ele>
        <time>2020-02-01T10:15:26.000Z</time>
      </trkpt>
      <trkpt lat="42.84382" lon="0.50354">
        <ele>1670</ele>
        <time>2020-02-01T10:15:27.000Z</time>
      </trkpt>
      <trkpt lat="42.84382" lon="0.50352">
        <ele>1670</ele>
        <time>2020-02-01T10:15:28.000Z</time>
      </trkpt>
      <trkpt lat="42.84382" lon="0.5035">
        <ele>1670</ele>
        <time>2020-02-01T10:15:29.000Z</time>
      </trkpt>
      <trkpt lat="42.84381" lon="0.50349">
        <ele>1670</ele>
        <time>2020-02-01T10:15:30.000Z</time>
      </trkpt>
      <trkpt lat="42.84381" lon="0.50348">
        <ele>1670</ele>
        <time>2020-02-01T10:15:31.000Z</time>
      </trkpt>
      <trkpt lat="42.84381" lon="0.50347">
        <ele>1670</ele>
        <time>2020-02-01T10:15:32.000Z</time>
      </trkpt>
      <trkpt lat="42.8438" lon="0.50347">
        <ele>1670</ele>
        <time>2020-02-01T10:15:33.000Z</time>
      </trkpt>
      <trkpt lat="42.8438" lon="0.50347">
        <ele>1670</ele>
        <time>2020-02-01T10:15:34.000Z</time>
      </trkpt>
      <trkpt lat="42.8438" lon="0.50347">
        <ele>1670</ele>
        <time>2020-02-01T10:15:35.000Z</time>
      </trkpt>
      <trkpt lat="42.84379" lon="0.50346">
        <ele>1670</ele>
        <time>2020-02-01T10:15:36.000Z</time>
      </trkpt>
      <trkpt lat="42.84379" lon="0.50346">
        <ele>1670</ele>
        <time>2020-02-01T10:15:37.000Z</time>
      </trkpt>
      <trkpt lat="42.84379" lon="0.50346">
        <ele>1670</ele>
        <time>2020-02-01T10:15:38.000Z</time>
      </trkpt>
      <trkpt lat="42.84378" lon="0.50345">
        <ele>1670</ele>
        <time>2020-02-01T10:15:39.000Z</time>
      </trkpt>
      <trkpt lat="42.84378" lon="0.50345">
        <ele>1670</ele>
        <time>2020-02-01T10:15:40.000Z</time>
      </trkpt>
      <trkpt lat="42.84377" lon="0.50345">
        <ele>1670</ele>
        <time>2020-02-01T10:15:41.000Z</time>
      </trkpt>
      <trkpt lat="42.84377" lon="0.50345">
        <ele>1670</ele>
        <time>2020-02-01T10:15:42.000Z</time>
      </trkpt>
      <trkpt lat="42.84377" lon="0.50345">
        <ele>1670</ele>
        <time>2020-02-01T10:15:43.000Z</time>
      </trkpt>
      <trkpt lat="42.84377" lon="0.50345">
        <ele>1670</ele>
        <time>2020-02-01T10:15:44.000Z</time>
      </trkpt>
      <trkpt lat="42.84377" lon="0.50345">
        <ele>1670</ele>
        <time>2020-02-01T10:15:45.000Z</time>
      </trkpt>
      <trkpt lat="42.84377" lon="0.50344">
        <ele>1670</ele>
        <time>2020-02-01T10:15:46.000Z</time>
      </trkpt>
      <trkpt lat="42.84377" lon="0.50344">
        <ele>1670</ele>
        <time>2020-02-01T10:15:47.000Z</time>
      </trkpt>
      <trkpt lat="42.84377" lon="0.50344">
        <ele>1670</ele>
        <time>2020-02-01T10:15:48.000Z</time>
      </trkpt>
      <trkpt lat="42.84377" lon="0.50344">
        <ele>1670</ele>
        <time>2020-02-01T10:15:49.000Z</time>
      </trkpt>
      <trkpt lat="42.84377" lon="0.50344">
        <ele>1670</ele>
        <time>2020-02-01T10:15:50.000Z</time>
      </trkpt>
      <trkpt lat="42.84377" lon="0.50344">
        <ele>1670</ele>
        <time>2020-02-01T10:15:51.000Z</time>
      </trkpt>
      <trkpt lat="42.84377" lon="0.50344">
        <ele>1670</ele>
        <time>2020-02-01T10:15:52.000Z</time>
      </trkpt>
      <trkpt lat="42.84377" lon="0.50344">
        <ele>1670</ele>
        <time>2020-02-01T10:15:53.000Z</time>
      </trkpt>
      <trkpt lat="42.84377" lon="0.50344">
        <ele>1670</ele>
        <time>2020-02-01T10:15:54.000Z</time>
      </trkpt>
      <trkpt lat="42.84377" lon="0.50344">
        <ele>1670</ele>
        <time>2020-02-01T10:15:55.000Z</time>
      </trkpt>
      <trkpt lat="42.84377" lon="0.50344">
        <ele>1670</ele>
        <time>2020-02-01T10:15:56.000Z</time>
      </trkpt>
      <trkpt lat="42.84377" lon="0.50344">
        <ele>1670</ele>
        <time>2020-02-01T10:15:57.000Z</time>
      </trkpt>
      <trkpt lat="42.84377" lon="0.50344">
        <ele>1670</ele>
        <time>2020-02-01T10:15:58.000Z</time>
      </trkpt>
      <trkpt lat="42.84377" lon="0.50344">
        <ele>1670</ele>
        <time>2020-02-01T10:15:59.000Z</time>
      </trkpt>
      <trkpt lat="42.84377" lon="0.50344">
        <ele>1670</ele>
        <time>2020-02-01T10:16:00.000Z</time>
      </trkpt>
      <trkpt lat="42.84377" lon="0.50344">
        <ele>1669.7</ele>
        <time>2020-02-01T10:16:01.000Z</time>
      </trkpt>
      <trkpt lat="42.84377" lon="0.50344">
        <ele>1669.3</ele>
        <time>2020-02-01T10:16:02.000Z</time>
      </trkpt>
      <trkpt lat="42.84378" lon="0.50344">
        <ele>1669</ele>
        <time>2020-02-01T10:16:03.000Z</time>
      </trkpt>
      <trkpt lat="42.84381" lon="0.50344">
        <ele>1669</ele>
        <time>2020-02-01T10:16:04.000Z</time>
      </trkpt>
      <trkpt lat="42.84384" lon="0.50343">
        <ele>1669</ele>
        <time>2020-02-01T10:16:05.000Z</time>
      </trkpt>
      <trkpt lat="42.84385" lon="0.50343">
        <ele>1669</ele>
        <time>2020-02-01T10:16:06.000Z</time>
      </trkpt>
      <trkpt lat="42.84385" lon="0.50343">
        <ele>1669</ele>
        <time>2020-02-01T10:16:07.000Z</time>
      </trkpt>
      <trkpt lat="42.84385" lon="0.50343">
        <ele>1669</ele>
        <time>2020-02-01T10:16:08.000Z</time>
      </trkpt>
      <trkpt lat="42.84384" lon="0.50343">
        <ele>1669.3</ele>
        <time>2020-02-01T10:16:09.000Z</time>
      </trkpt>
      <trkpt lat="42.84384" lon="0.50343">
        <ele>1669.7</ele>
        <time>2020-02-01T10:16:10.000Z</time>
      </trkpt>
      <trkpt lat="42.84384" lon="0.50343">
        <ele>1670</ele>
        <time>2020-02-01T10:16:11.000Z</time>
      </trkpt>
      <trkpt lat="42.84384" lon="0.50343">
        <ele>1670</ele>
        <time>2020-02-01T10:16:12.000Z</time>
      </trkpt>
      <trkpt lat="42.84384" lon="0.50343">
        <ele>1670</ele>
        <time>2020-02-01T10:16:13.000Z</time>
      </trkpt>
      <trkpt lat="42.84385" lon="0.50343">
        <ele>1670</ele>
        <time>2020-02-01T10:16:14.000Z</time>
      </trkpt>
      <trkpt lat="42.84385" lon="0.50343">
        <ele>1670</ele>
        <time>2020-02-01T10:16:15.000Z</time>
      </trkpt>
      <trkpt lat="42.84385" lon="0.50343">
        <ele>1670</ele>
        <time>2020-02-01T10:16:16.000Z</time>
      </trkpt>
      <trkpt lat="42.84385" lon="0.50343">
        <ele>1670</ele>
        <time>2020-02-01T10:16:17.000Z</time>
      </trkpt>
      <trkpt lat="42.84385" lon="0.50343">
        <ele>1670</ele>
        <time>2020-02-01T10:16:18.000Z</time>
      </trkpt>
      <trkpt lat="42.84385" lon="0.50343">
        <ele>1670</ele>
        <time>2020-02-01T10:16:19.000Z</time>
      </trkpt>
      <trkpt lat="42.84385" lon="0.50343">
        <ele>1670</ele>
        <time>2020-02-01T10:16:20.000Z</time>
      </trkpt>
      <trkpt lat="42.84385" lon="0.50343">
        <ele>1670</ele>
        <time>2020-02-01T10:16:21.000Z</time>
      </trkpt>
      <trkpt lat="42.84385" lon="0.50343">
        <ele>1670</ele>
        <time>2020-02-01T10:16:22.000Z</time>
      </trkpt>
      <trkpt lat="42.84385" lon="0.50343">
        <ele>1670</ele>
        <time>2020-02-01T10:16:23.000Z</time>
      </trkpt>
      <trkpt lat="42.84385" lon="0.50343">
        <ele>1670</ele>
        <time>2020-02-01T10:16:24.000Z</time>
      </trkpt>
      <trkpt lat="42.84385" lon="0.50343">
        <ele>1670</ele>
        <time>2020-02-01T10:16:25.000Z</time>
      </trkpt>
      <trkpt lat="42.84385" lon="0.50343">
        <ele>1670</ele>
        <time>2020-02-01T10:16:26.000Z</time>
      </trkpt>
      <trkpt lat="42.84385" lon="0.50343">
        <ele>1670</ele>
        <time>2020-02-01T10:16:27.000Z</time>
      </trkpt>
      <trkpt lat="42.84384" lon="0.50343">
        <ele>1670</ele>
        <time>2020-02-01T10:16:28.000Z</time>
      </trkpt>
      <trkpt lat="42.84384" lon="0.50343">
        <ele>1670</ele>
        <time>2020-02-01T10:16:29.000Z</time>
      </trkpt>
      <trkpt lat="42.84383" lon="0.50343">
        <ele>1670</ele>
        <time>2020-02-01T10:16:30.000Z</time>
      </trkpt>
      <trkpt lat="42.84383" lon="0.50343">
        <ele>1670</ele>
        <time>2020-02-01T10:16:31.000Z</time>
      </trkpt>
      <trkpt lat="42.84383" lon="0.50344">
        <ele>1670</ele>
        <time>2020-02-01T10:16:32.000Z</time>
      </trkpt>
      <trkpt lat="42.84383" lon="0.50344">
        <ele>1670</ele>
        <time>2020-02-01T10:16:33.000Z</time>
      </trkpt>
      <trkpt lat="42.84383" lon="0.50344">
        <ele>1670</ele>
        <time>2020-02-01T10:16:34.000Z</time>
      </trkpt>
      <trkpt lat="42.84383" lon="0.50345">
        <ele>1670</ele>
        <time>2020-02-01T10:16:35.000Z</time>
      </trkpt>
      <trkpt lat="42.84383" lon="0.50345">
        <ele>1670</ele>
        <time>2020-02-01T10:16:36.000Z</time>
      </trkpt>
      <trkpt lat="42.84382" lon="0.50345">
        <ele>1670</ele>
        <time>2020-02-01T10:16:37.000Z</time>
      </trkpt>
      <trkpt lat="42.84382" lon="0.50345">
        <ele>1670</ele>
        <time>2020-02-01T10:16:38.000Z</time>
      </trkpt>
      <trkpt lat="42.84382" lon="0.50345">
        <ele>1670</ele>
        <time>2020-02-01T10:16:39.000Z</time>
      </trkpt>
      <trkpt lat="42.84382" lon="0.50345">
        <ele>1670</ele>
        <time>2020-02-01T10:16:40.000Z</time>
      </trkpt>
      <trkpt lat="42.84382" lon="0.50345">
        <ele>1670</ele>
        <time>2020-02-01T10:16:41.000Z</time>
      </trkpt>
      <trkpt lat="42.84382" lon="0.50345">
        <ele>1670</ele>
        <time>2020-02-01T10:16:42.000Z</time>
      </trkpt>
      <trkpt lat="42.84383" lon="0.50345">
        <ele>1670</ele>
        <time>2020-02-01T10:16:43.000Z</time>
      </trkpt>
      <trkpt lat="42.84383" lon="0.50345">
        <ele>1670</ele>
        <time>2020-02-01T10:16:44.000Z</time>
      </trkpt>
      <trkpt lat="42.84383" lon="0.50345">
        <ele>1670</ele>
        <time>2020-02-01T10:16:45.000Z</time>
      </trkpt>
      <trkpt lat="42.84383" lon="0.50345">
        <ele>1670</ele>
        <time>2020-02-01T10:16:46.000Z</time>
      </trkpt>
      <trkpt lat="42.84383" lon="0.50346">
        <ele>1670</ele>
        <time>2020-02-01T10:16:47.000Z</time>
      </trkpt>
      <trkpt lat="42.84384" lon="0.50346">
        <ele>1670</ele>
        <time>2020-02-01T10:16:48.000Z</time>
      </trkpt>
      <trkpt lat="42.84384" lon="0.50346">
        <ele>1670</ele>
        <time>2020-02-01T10:16:49.000Z</time>
      </trkpt>
      <trkpt lat="42.84384" lon="0.50346">
        <ele>1670</ele>
        <time>2020-02-01T10:16:50.000Z</time>
      </trkpt>
      <trkpt lat="42.84385" lon="0.50346">
        <ele>1670</ele>
        <time>2020-02-01T10:16:51.000Z</time>
      </trkpt>
      <trkpt lat="42.84385" lon="0.50346">
        <ele>1670</ele>
        <time>2020-02-01T10:16:52.000Z</time>
      </trkpt>
      <trkpt lat="42.84385" lon="0.50345">
        <ele>1670</ele>
        <time>2020-02-01T10:16:53.000Z</time>
      </trkpt>
      <trkpt lat="42.84385" lon="0.50344">
        <ele>1670</ele>
        <time>2020-02-01T10:16:54.000Z</time>
      </trkpt>
      <trkpt lat="42.84385" lon="0.50343">
        <ele>1670</ele>
        <time>2020-02-01T10:16:55.000Z</time>
      </trkpt>
      <trkpt lat="42.84385" lon="0.50343">
        <ele>1670</ele>
        <time>2020-02-01T10:16:56.000Z</time>
      </trkpt>
      <trkpt lat="42.84385" lon="0.50342">
        <ele>1670</ele>
        <time>2020-02-01T10:16:57.000Z</time>
      </trkpt>
      <trkpt lat="42.84384" lon="0.50341">
        <ele>1670</ele>
        <time>2020-02-01T10:16:58.000Z</time>
      </trkpt>
      <trkpt lat="42.84384" lon="0.50341">
        <ele>1670</ele>
        <time>2020-02-01T10:16:59.000Z</time>
      </trkpt>
      <trkpt lat="42.84384" lon="0.50341">
        <ele>1670</ele>
        <time>2020-02-01T10:17:00.000Z</time>
      </trkpt>
      <trkpt lat="42.84384" lon="0.50341">
        <ele>1670</ele>
        <time>2020-02-01T10:17:01.000Z</time>
      </trkpt>
      <trkpt lat="42.84384" lon="0.50342">
        <ele>1670</ele>
        <time>2020-02-01T10:17:02.000Z</time>
      </trkpt>
      <trkpt lat="42.84384" lon="0.50342">
        <ele>1670</ele>
        <time>2020-02-01T10:17:03.000Z</time>
      </trkpt>
      <trkpt lat="42.84384" lon="0.50342">
        <ele>1670</ele>
        <time>2020-02-01T10:17:04.000Z</time>
      </trkpt>
      <trkpt lat="42.84384" lon="0.50342">
        <ele>1670</ele>
        <time>2020-02-01T10:17:05.000Z</time>
      </trkpt>
      <trkpt lat="42.84384" lon="0.50343">
        <ele>1670</ele>
        <time>2020-02-01T10:17:06.000Z</time>
      </trkpt>
      <trkpt lat="42.84384" lon="0.50343">
        <ele>1670</ele>
        <time>2020-02-01T10:17:07.000Z</time>
      </trkpt>
      <trkpt lat="42.84384" lon="0.50343">
        <ele>1670</ele>
        <time>2020-02-01T10:17:08.000Z</time>
      </trkpt>
      <trkpt lat="42.84384" lon="0.50343">
        <ele>1670</ele>
        <time>2020-02-01T10:17:09.000Z</time>
      </trkpt>
      <trkpt lat="42.84384" lon="0.50343">
        <ele>1670</ele>
        <time>2020-02-01T10:17:10.000Z</time>
      </trkpt>
      <trkpt lat="42.84384" lon="0.50343">
        <ele>1670</ele>
        <time>2020-02-01T10:17:11.000Z</time>
      </trkpt>
      <trkpt lat="42.84384" lon="0.50343">
        <ele>1670</ele>
        <time>2020-02-01T10:17:12.000Z</time>
      </trkpt>
      <trkpt lat="42.84384" lon="0.50343">
        <ele>1670</ele>
        <time>2020-02-01T10:17:13.000Z</time>
      </trkpt>
      <trkpt lat="42.84384" lon="0.50343">
        <ele>1670</ele>
        <time>2020-02-01T10:17:14.000Z</time>
      </trkpt>
      <trkpt lat="42.84384" lon="0.50343">
        <ele>1670</ele>
        <time>2020-02-01T10:17:15.000Z</time>
      </trkpt>
      <trkpt lat="42.84384" lon="0.50343">
        <ele>1670</ele>
        <time>2020-02-01T10:17:16.000Z</time>
      </trkpt>
      <trkpt lat="42.84384" lon="0.50343">
        <ele>1670</ele>
        <time>2020-02-01T10:17:17.000Z</time>
      </trkpt>
      <trkpt lat="42.84384" lon="0.50343">
        <ele>1670</ele>
        <time>2020-02-01T10:17:18.000Z</time>
      </trkpt>
      <trkpt lat="42.84384" lon="0.50344">
        <ele>1670</ele>
        <time>2020-02-01T10:17:19.000Z</time>
      </trkpt>
      <trkpt lat="42.84384" lon="0.50344">
        <ele>1670</ele>
        <time>2020-02-01T10:17:20.000Z</time>
      </trkpt>
      <trkpt lat="42.84384" lon="0.50344">
        <ele>1670</ele>
        <time>2020-02-01T10:17:21.000Z</time>
      </trkpt>
      <trkpt lat="42.84385" lon="0.50344">
        <ele>1670</ele>
        <time>2020-02-01T10:17:22.000Z</time>
      </trkpt>
      <trkpt lat="42.84385" lon="0.50344">
        <ele>1670</ele>
        <time>2020-02-01T10:17:23.000Z</time>
      </trkpt>
      <trkpt lat="42.84385" lon="0.50344">
        <ele>1670</ele>
        <time>2020-02-01T10:17:24.000Z</time>
      </trkpt>
      <trkpt lat="42.84385" lon="0.50344">
        <ele>1670</ele>
        <time>2020-02-01T10:17:25.000Z</time>
      </trkpt>
      <trkpt lat="42.84385" lon="0.50344">
        <ele>1670</ele>
        <time>2020-02-01T10:17:26.000Z</time>
      </trkpt>
      <trkpt lat="42.84385" lon="0.50344">
        <ele>1670</ele>
        <time>2020-02-01T10:17:27.000Z</time>
      </trkpt>
      <trkpt lat="42.84385" lon="0.50344">
        <ele>1670</ele>
        <time>2020-02-01T10:17:28.000Z</time>
      </trkpt>
      <trkpt lat="42.84385" lon="0.50344">
        <ele>1670</ele>
        <time>2020-02-01T10:17:29.000Z</time>
      </trkpt>
      <trkpt lat="42.84385" lon="0.50344">
        <ele>1670</ele>
        <time>2020-02-01T10:17:30.000Z</time>
      </trkpt>
      <trkpt lat="42.84385" lon="0.50344">
        <ele>1670</ele>
        <time>2020-02-01T10:17:31.000Z</time>
      </trkpt>
      <trkpt lat="42.84385" lon="0.50344">
        <ele>1670</ele>
        <time>2020-02-01T10:17:32.000Z</time>
      </trkpt>
      <trkpt lat="42.84385" lon="0.50344">
        <ele>1670</ele>
        <time>2020-02-01T10:17:33.000Z</time>
      </trkpt>
      <trkpt lat="42.84385" lon="0.50344">
        <ele>1670</ele>
        <time>2020-02-01T10:17:34.000Z</time>
      </trkpt>
      <trkpt lat="42.84385" lon="0.50344">
        <ele>1670</ele>
        <time>2020-02-01T10:17:35.000Z</time>
      </trkpt>
      <trkpt lat="42.84385" lon="0.50344">
        <ele>1670</ele>
        <time>2020-02-01T10:17:36.000Z</time>
      </trkpt>
      <trkpt lat="42.84385" lon="0.50344">
        <ele>1670</ele>
        <time>2020-02-01T10:17:37.000Z</time>
      </trkpt>
      <trkpt lat="42.84385" lon="0.50344">
        <ele>1670</ele>
        <time>2020-02-01T10:17:38.000Z</time>
      </trkpt>
      <trkpt lat="42.84385" lon="0.50344">
        <ele>1670</ele>
        <time>2020-02-01T10:17:39.000Z</time>
      </trkpt>
      <trkpt lat="42.84385" lon="0.50344">
        <ele>1670</ele>
        <time>2020-02-01T10:17:40.000Z</time>
      </trkpt>
      <trkpt lat="42.84385" lon="0.50344">
        <ele>1670</ele>
        <time>2020-02-01T10:17:41.000Z</time>
      </trkpt>
      <trkpt lat="42.84385" lon="0.50344">
        <ele>1670</ele>
        <time>2020-02-01T10:17:42.000Z</time>
      </trkpt>
      <trkpt lat="42.84385" lon="0.50344">
        <ele>1670</ele>
        <time>2020-02-01T10:17:43.000Z</time>
      </trkpt>
      <trkpt lat="42.84384" lon="0.50344">
        <ele>1670</ele>
        <time>2020-02-01T10:17:44.000Z</time>
      </trkpt>
      <trkpt lat="42.84384" lon="0.50344">
        <ele>1670</ele>
        <time>2020-02-01T10:17:45.000Z</time>
      </trkpt>
      <trkpt lat="42.84384" lon="0.50344">
        <ele>1670</ele>
        <time>2020-02-01T10:17:46.000Z</time>
      </trkpt>
      <trkpt lat="42.84384" lon="0.50344">
        <ele>1670</ele>
        <time>2020-02-01T10:17:47.000Z</time>
      </trkpt>
      <trkpt lat="42.84384" lon="0.50344">
        <ele>1670</ele>
        <time>2020-02-01T10:17:48.000Z</time>
      </trkpt>
      <trkpt lat="42.84384" lon="0.50344">
        <ele>1670</ele>
        <time>2020-02-01T10:17:49.000Z</time>
      </trkpt>
      <trkpt lat="42.84384" lon="0.50344">
        <ele>1670</ele>
        <time>2020-02-01T10:17:50.000Z</time>
      </trkpt>
      <trkpt lat="42.84384" lon="0.50344">
        <ele>1670</ele>
        <time>2020-02-01T10:17:51.000Z</time>
      </trkpt>
      <trkpt lat="42.84384" lon="0.50344">
        <ele>1670</ele>
        <time>2020-02-01T10:17:52.000Z</time>
      </trkpt>
      <trkpt lat="42.84384" lon="0.50344">
        <ele>1670</ele>
        <time>2020-02-01T10:17:53.000Z</time>
      </trkpt>
      <trkpt lat="42.84384" lon="0.50344">
        <ele>1670</ele>
        <time>2020-02-01T10:17:54.000Z</time>
      </trkpt>
      <trkpt lat="42.84384" lon="0.50344">
        <ele>1670</ele>
        <time>2020-02-01T10:17:55.000Z</time>
      </trkpt>
      <trkpt lat="42.84384" lon="0.50344">
        <ele>1670</ele>
        <time>2020-02-01T10:17:56.000Z</time>
      </trkpt>
      <trkpt lat="42.84383" lon="0.50344">
        <ele>1670</ele>
        <time>2020-02-01T10:17:57.000Z</time>
      </trkpt>
      <trkpt lat="42.84383" lon="0.50344">
        <ele>1670</ele>
        <time>2020-02-01T10:17:58.000Z</time>
      </trkpt>
      <trkpt lat="42.84383" lon="0.50344">
        <ele>1670</ele>
        <time>2020-02-01T10:17:59.000Z</time>
      </trkpt>
      <trkpt lat="42.84383" lon="0.50344">
        <ele>1670</ele>
        <time>2020-02-01T10:18:00.000Z</time>
      </trkpt>
      <trkpt lat="42.84383" lon="0.50344">
        <ele>1670</ele>
        <time>2020-02-01T10:18:01.000Z</time>
      </trkpt>
      <trkpt lat="42.84382" lon="0.50344">
        <ele>1670</ele>
        <time>2020-02-01T10:18:02.000Z</time>
      </trkpt>
      <trkpt lat="42.84382" lon="0.50344">
        <ele>1670</ele>
        <time>2020-02-01T10:18:03.000Z</time>
      </trkpt>
      <trkpt lat="42.84382" lon="0.50344">
        <ele>1670</ele>
        <time>2020-02-01T10:18:04.000Z</time>
      </trkpt>
      <trkpt lat="42.84381" lon="0.50344">
        <ele>1670</ele>
        <time>2020-02-01T10:18:05.000Z</time>
      </trkpt>
      <trkpt lat="42.84381" lon="0.50344">
        <ele>1670</ele>
        <time>2020-02-01T10:18:06.000Z</time>
      </trkpt>
      <trkpt lat="42.84381" lon="0.50344">
        <ele>1670</ele>
        <time>2020-02-01T10:18:07.000Z</time>
      </trkpt>
      <trkpt lat="42.84381" lon="0.50344">
        <ele>1670</ele>
        <time>2020-02-01T10:18:08.000Z</time>
      </trkpt>
      <trkpt lat="42.8438" lon="0.50344">
        <ele>1670</ele>
        <time>2020-02-01T10:18:09.000Z</time>
      </trkpt>
      <trkpt lat="42.8438" lon="0.50344">
        <ele>1670</ele>
        <time>2020-02-01T10:18:10.000Z</time>
      </trkpt>
      <trkpt lat="42.8438" lon="0.50344">
        <ele>1670</ele>
        <time>2020-02-01T10:18:11.000Z</time>
      </trkpt>
      <trkpt lat="42.8438" lon="0.50344">
        <ele>1670</ele>
        <time>2020-02-01T10:18:12.000Z</time>
      </trkpt>
      <trkpt lat="42.8438" lon="0.50344">
        <ele>1670</ele>
        <time>2020-02-01T10:18:13.000Z</time>
      </trkpt>
      <trkpt lat="42.8438" lon="0.50344">
        <ele>1670</ele>
        <time>2020-02-01T10:18:14.000Z</time>
      </trkpt>
      <trkpt lat="42.8438" lon="0.50344">
        <ele>1670</ele>
        <time>2020-02-01T10:18:15.000Z</time>
      </trkpt>
      <trkpt lat="42.8438" lon="0.50344">
        <ele>1670</ele>
        <time>2020-02-01T10:18:16.000Z</time>
      </trkpt>
      <trkpt lat="42.8438" lon="0.50344">
        <ele>1670</ele>
        <time>2020-02-01T10:18:17.000Z</time>
      </trkpt>
      <trkpt lat="42.8438" lon="0.50344">
        <ele>1670</ele>
        <time>2020-02-01T10:18:18.000Z</time>
      </trkpt>
      <trkpt lat="42.8438" lon="0.50344">
        <ele>1670</ele>
        <time>2020-02-01T10:18:19.000Z</time>
      </trkpt>
      <trkpt lat="42.8438" lon="0.50344">
        <ele>1670</ele>
        <time>2020-02-01T10:18:20.000Z</time>
      </trkpt>
      <trkpt lat="42.8438" lon="0.50344">
        <ele>1670</ele>
        <time>2020-02-01T10:18:21.000Z</time>
      </trkpt>
      <trkpt lat="42.8438" lon="0.50344">
        <ele>1670</ele>
        <time>2020-02-01T10:18:22.000Z</time>
      </trkpt>
      <trkpt lat="42.8438" lon="0.50344">
        <ele>1670</ele>
        <time>2020-02-01T10:18:23.000Z</time>
      </trkpt>
      <trkpt lat="42.8438" lon="0.50344">
        <ele>1670</ele>
        <time>2020-02-01T10:18:24.000Z</time>
      </trkpt>
      <trkpt lat="42.8438" lon="0.50344">
        <ele>1670</ele>
        <time>2020-02-01T10:18:25.000Z</time>
      </trkpt>
      <trkpt lat="42.84381" lon="0.50343">
        <ele>1670</ele>
        <time>2020-02-01T10:18:26.000Z</time>
      </trkpt>
      <trkpt lat="42.84382" lon="0.50343">
        <ele>1670</ele>
        <time>2020-02-01T10:18:27.000Z</time>
      </trkpt>
      <trkpt lat="42.84382" lon="0.50343">
        <ele>1670</ele>
        <time>2020-02-01T10:18:28.000Z</time>
      </trkpt>
      <trkpt lat="42.84382" lon="0.50343">
        <ele>1670</ele>
        <time>2020-02-01T10:18:29.000Z</time>
      </trkpt>
      <trkpt lat="42.84382" lon="0.50343">
        <ele>1670</ele>
        <time>2020-02-01T10:18:30.000Z</time>
      </trkpt>
      <trkpt lat="42.84382" lon="0.50343">
        <ele>1670</ele>
        <time>2020-02-01T10:18:31.000Z</time>
      </trkpt>
      <trkpt lat="42.84382" lon="0.50343">
        <ele>1670</ele>
        <time>2020-02-01T10:18:32.000Z</time>
      </trkpt>
      <trkpt lat="42.84382" lon="0.50343">
        <ele>1669</ele>
        <time>2020-02-01T10:18:33.000Z</time>
      </trkpt>
      <trkpt lat="42.84382" lon="0.50343">
        <ele>1669</ele>
        <time>2020-02-01T10:18:34.000Z</time>
      </trkpt>
      <trkpt lat="42.84382" lon="0.50342">
        <ele>1669</ele>
        <time>2020-02-01T10:18:35.000Z</time>
      </trkpt>
      <trkpt lat="42.84381" lon="0.50342">
        <ele>1669</ele>
        <time>2020-02-01T10:18:36.000Z</time>
      </trkpt>
      <trkpt lat="42.8438" lon="0.50342">
        <ele>1669</ele>
        <time>2020-02-01T10:18:37.000Z</time>
      </trkpt>
      <trkpt lat="42.8438" lon="0.50342">
        <ele>1669</ele>
        <time>2020-02-01T10:18:38.000Z</time>
      </trkpt>
      <trkpt lat="42.84379" lon="0.50342">
        <ele>1669</ele>
        <time>2020-02-01T10:18:39.000Z</time>
      </trkpt>
      <trkpt lat="42.84379" lon="0.50342">
        <ele>1669</ele>
        <time>2020-02-01T10:18:40.000Z</time>
      </trkpt>
      <trkpt lat="42.84379" lon="0.50342">
        <ele>1669</ele>
        <time>2020-02-01T10:18:41.000Z</time>
      </trkpt>
      <trkpt lat="42.84378" lon="0.50342">
        <ele>1669</ele>
        <time>2020-02-01T10:18:42.000Z</time>
      </trkpt>
      <trkpt lat="42.84378" lon="0.50342">
        <ele>1669</ele>
        <time>2020-02-01T10:18:43.000Z</time>
      </trkpt>
      <trkpt lat="42.84378" lon="0.50342">
        <ele>1669</ele>
        <time>2020-02-01T10:18:44.000Z</time>
      </trkpt>
      <trkpt lat="42.84378" lon="0.50342">
        <ele>1669</ele>
        <time>2020-02-01T10:18:45.000Z</time>
      </trkpt>
      <trkpt lat="42.84378" lon="0.50342">
        <ele>1669</ele>
        <time>2020-02-01T10:18:46.000Z</time>
      </trkpt>
      <trkpt lat="42.84378" lon="0.50342">
        <ele>1669</ele>
        <time>2020-02-01T10:18:47.000Z</time>
      </trkpt>
      <trkpt lat="42.84379" lon="0.50342">
        <ele>1669</ele>
        <time>2020-02-01T10:18:48.000Z</time>
      </trkpt>
      <trkpt lat="42.84379" lon="0.50342">
        <ele>1669</ele>
        <time>2020-02-01T10:18:49.000Z</time>
      </trkpt>
      <trkpt lat="42.84379" lon="0.50342">
        <ele>1669</ele>
        <time>2020-02-01T10:18:50.000Z</time>
      </trkpt>
      <trkpt lat="42.84379" lon="0.50343">
        <ele>1669</ele>
        <time>2020-02-01T10:18:51.000Z</time>
      </trkpt>
      <trkpt lat="42.8438" lon="0.50343">
        <ele>1669</ele>
        <time>2020-02-01T10:18:52.000Z</time>
      </trkpt>
      <trkpt lat="42.8438" lon="0.50343">
        <ele>1669</ele>
        <time>2020-02-01T10:18:53.000Z</time>
      </trkpt>
      <trkpt lat="42.8438" lon="0.50343">
        <ele>1669</ele>
        <time>2020-02-01T10:18:54.000Z</time>
      </trkpt>
      <trkpt lat="42.84381" lon="0.50343">
        <ele>1669</ele>
        <time>2020-02-01T10:18:55.000Z</time>
      </trkpt>
      <trkpt lat="42.84381" lon="0.50343">
        <ele>1669</ele>
        <time>2020-02-01T10:18:56.000Z</time>
      </trkpt>
      <trkpt lat="42.84381" lon="0.50343">
        <ele>1669</ele>
        <time>2020-02-01T10:18:57.000Z</time>
      </trkpt>
      <trkpt lat="42.84381" lon="0.50343">
        <ele>1669</ele>
        <time>2020-02-01T10:18:58.000Z</time>
      </trkpt>
      <trkpt lat="42.84381" lon="0.50343">
        <ele>1669</ele>
        <time>2020-02-01T10:18:59.000Z</time>
      </trkpt>
      <trkpt lat="42.84381" lon="0.50343">
        <ele>1669</ele>
        <time>2020-02-01T10:19:00.000Z</time>
      </trkpt>
      <trkpt lat="42.84381" lon="0.50343">
        <ele>1669</ele>
        <time>2020-02-01T10:19:01.000Z</time>
      </trkpt>
      <trkpt lat="42.84381" lon="0.50343">
        <ele>1669</ele>
        <time>2020-02-01T10:19:02.000Z</time>
      </trkpt>
      <trkpt lat="42.84381" lon="0.50343">
        <ele>1669</ele>
        <time>2020-02-01T10:19:03.000Z</time>
      </trkpt>
      <trkpt lat="42.84381" lon="0.50343">
        <ele>1669</ele>
        <time>2020-02-01T10:19:04.000Z</time>
      </trkpt>
      <trkpt lat="42.84381" lon="0.50342">
        <ele>1669</ele>
        <time>2020-02-01T10:19:05.000Z</time>
      </trkpt>
      <trkpt lat="42.84381" lon="0.50342">
        <ele>1669</ele>
        <time>2020-02-01T10:19:06.000Z</time>
      </trkpt>
      <trkpt lat="42.84381" lon="0.50342">
        <ele>1669</ele>
        <time>2020-02-01T10:19:07.000Z</time>
      </trkpt>
      <trkpt lat="42.84381" lon="0.50342">
        <ele>1669</ele>
        <time>2020-02-01T10:19:08.000Z</time>
      </trkpt>
      <trkpt lat="42.84381" lon="0.50342">
        <ele>1669</ele>
        <time>2020-02-01T10:19:09.000Z</time>
      </trkpt>
      <trkpt lat="42.84381" lon="0.50342">
        <ele>1669</ele>
        <time>2020-02-01T10:19:10.000Z</time>
      </trkpt>
      <trkpt lat="42.84381" lon="0.50342">
        <ele>1669.5</ele>
        <time>2020-02-01T10:19:11.000Z</time>
      </trkpt>
      <trkpt lat="42.84381" lon="0.50342">
        <ele>1670</ele>
        <time>2020-02-01T10:19:12.000Z</time>
      </trkpt>
      <trkpt lat="42.84381" lon="0.50342">
        <ele>1670</ele>
        <time>2020-02-01T10:19:13.000Z</time>
      </trkpt>
      <trkpt lat="42.84381" lon="0.50342">
        <ele>1670</ele>
        <time>2020-02-01T10:19:14.000Z</time>
      </trkpt>
      <trkpt lat="42.84381" lon="0.50342">
        <ele>1670</ele>
        <time>2020-02-01T10:19:15.000Z</time>
      </trkpt>
      <trkpt lat="42.84381" lon="0.50342">
        <ele>1670</ele>
        <time>2020-02-01T10:19:16.000Z</time>
      </trkpt>
      <trkpt lat="42.84381" lon="0.50342">
        <ele>1670</ele>
        <time>2020-02-01T10:19:17.000Z</time>
      </trkpt>
      <trkpt lat="42.84382" lon="0.50342">
        <ele>1670</ele>
        <time>2020-02-01T10:19:18.000Z</time>
      </trkpt>
      <trkpt lat="42.84382" lon="0.50342">
        <ele>1669</ele>
        <time>2020-02-01T10:19:19.000Z</time>
      </trkpt>
      <trkpt lat="42.84382" lon="0.50342">
        <ele>1669</ele>
        <time>2020-02-01T10:19:20.000Z</time>
      </trkpt>
      <trkpt lat="42.84382" lon="0.50341">
        <ele>1669</ele>
        <time>2020-02-01T10:19:21.000Z</time>
      </trkpt>
      <trkpt lat="42.84382" lon="0.50341">
        <ele>1669</ele>
        <time>2020-02-01T10:19:22.000Z</time>
      </trkpt>
      <trkpt lat="42.84382" lon="0.50341">
        <ele>1668</ele>
        <time>2020-02-01T10:19:23.000Z</time>
      </trkpt>
      <trkpt lat="42.84382" lon="0.5034">
        <ele>1668</ele>
        <time>2020-02-01T10:19:24.000Z</time>
      </trkpt>
      <trkpt lat="42.84382" lon="0.5034">
        <ele>1668</ele>
        <time>2020-02-01T10:19:25.000Z</time>
      </trkpt>
      <trkpt lat="42.84382" lon="0.50339">
        <ele>1668</ele>
        <time>2020-02-01T10:19:26.000Z</time>
      </trkpt>
      <trkpt lat="42.84382" lon="0.50338">
        <ele>1668</ele>
        <time>2020-02-01T10:19:27.000Z</time>
      </trkpt>
      <trkpt lat="42.84382" lon="0.50337">
        <ele>1668</ele>
        <time>2020-02-01T10:19:28.000Z</time>
      </trkpt>
      <trkpt lat="42.84382" lon="0.50335">
        <ele>1668</ele>
        <time>2020-02-01T10:19:29.000Z</time>
      </trkpt>
      <trkpt lat="42.84382" lon="0.50334">
        <ele>1668</ele>
        <time>2020-02-01T10:19:30.000Z</time>
      </trkpt>
      <trkpt lat="42.84382" lon="0.50333">
        <ele>1669</ele>
        <time>2020-02-01T10:19:31.000Z</time>
      </trkpt>
      <trkpt lat="42.84382" lon="0.50332">
        <ele>1669</ele>
        <time>2020-02-01T10:19:32.000Z</time>
      </trkpt>
      <trkpt lat="42.84382" lon="0.5033">
        <ele>1669</ele>
        <time>2020-02-01T10:19:33.000Z</time>
      </trkpt>
      <trkpt lat="42.84382" lon="0.50329">
        <ele>1669</ele>
        <time>2020-02-01T10:19:34.000Z</time>
      </trkpt>
      <trkpt lat="42.84382" lon="0.50328">
        <ele>1669</ele>
        <time>2020-02-01T10:19:35.000Z</time>
      </trkpt>
      <trkpt lat="42.84382" lon="0.50328">
        <ele>1669</ele>
        <time>2020-02-01T10:19:36.000Z</time>
      </trkpt>
      <trkpt lat="42.84382" lon="0.50327">
        <ele>1669</ele>
        <time>2020-02-01T10:19:37.000Z</time>
      </trkpt>
      <trkpt lat="42.84382" lon="0.50326">
        <ele>1669</ele>
        <time>2020-02-01T10:19:38.000Z</time>
      </trkpt>
      <trkpt lat="42.84382" lon="0.50326">
        <ele>1669</ele>
        <time>2020-02-01T10:19:39.000Z</time>
      </trkpt>
      <trkpt lat="42.84382" lon="0.50326">
        <ele>1669</ele>
        <time>2020-02-01T10:19:40.000Z</time>
      </trkpt>
      <trkpt lat="42.84382" lon="0.50326">
        <ele>1669</ele>
        <time>2020-02-01T10:19:41.000Z</time>
      </trkpt>
      <trkpt lat="42.84382" lon="0.50326">
        <ele>1669</ele>
        <time>2020-02-01T10:19:42.000Z</time>
      </trkpt>
      <trkpt lat="42.84382" lon="0.50326">
        <ele>1668</ele>
        <time>2020-02-01T10:19:43.000Z</time>
      </trkpt>
      <trkpt lat="42.84382" lon="0.50326">
        <ele>1668</ele>
        <time>2020-02-01T10:19:44.000Z</time>
      </trkpt>
      <trkpt lat="42.84382" lon="0.50326">
        <ele>1669</ele>
        <time>2020-02-01T10:19:45.000Z</time>
      </trkpt>
      <trkpt lat="42.84382" lon="0.50326">
        <ele>1669</ele>
        <time>2020-02-01T10:19:46.000Z</time>
      </trkpt>
      <trkpt lat="42.84382" lon="0.50326">
        <ele>1669</ele>
        <time>2020-02-01T10:19:47.000Z</time>
      </trkpt>
      <trkpt lat="42.84382" lon="0.50326">
        <ele>1669</ele>
        <time>2020-02-01T10:19:48.000Z</time>
      </trkpt>
      <trkpt lat="42.84382" lon="0.50326">
        <ele>1669</ele>
        <time>2020-02-01T10:19:49.000Z</time>
      </trkpt>
      <trkpt lat="42.84383" lon="0.50326">
        <ele>1669</ele>
        <time>2020-02-01T10:19:50.000Z</time>
      </trkpt>
      <trkpt lat="42.84383" lon="0.50326">
        <ele>1669</ele>
        <time>2020-02-01T10:19:51.000Z</time>
      </trkpt>
      <trkpt lat="42.84383" lon="0.50326">
        <ele>1669</ele>
        <time>2020-02-01T10:19:52.000Z</time>
      </trkpt>
      <trkpt lat="42.84383" lon="0.50326">
        <ele>1669</ele>
        <time>2020-02-01T10:19:53.000Z</time>
      </trkpt>
      <trkpt lat="42.84383" lon="0.50326">
        <ele>1669</ele>
        <time>2020-02-01T10:19:54.000Z</time>
      </trkpt>
      <trkpt lat="42.84383" lon="0.50326">
        <ele>1669</ele>
        <time>2020-02-01T10:19:55.000Z</time>
      </trkpt>
      <trkpt lat="42.84383" lon="0.50327">
        <ele>1669</ele>
        <time>2020-02-01T10:19:56.000Z</time>
      </trkpt>
      <trkpt lat="42.84383" lon="0.50327">
        <ele>1669</ele>
        <time>2020-02-01T10:19:57.000Z</time>
      </trkpt>
      <trkpt lat="42.84384" lon="0.50328">
        <ele>1669</ele>
        <time>2020-02-01T10:19:58.000Z</time>
      </trkpt>
      <trkpt lat="42.84384" lon="0.50329">
        <ele>1669</ele>
        <time>2020-02-01T10:19:59.000Z</time>
      </trkpt>
      <trkpt lat="42.84384" lon="0.5033">
        <ele>1669</ele>
        <time>2020-02-01T10:20:00.000Z</time>
      </trkpt>
      <trkpt lat="42.84384" lon="0.50331">
        <ele>1669</ele>
        <time>2020-02-01T10:20:01.000Z</time>
      </trkpt>
      <trkpt lat="42.84384" lon="0.50333">
        <ele>1669</ele>
        <time>2020-02-01T10:20:02.000Z</time>
      </trkpt>
      <trkpt lat="42.84384" lon="0.50336">
        <ele>1669</ele>
        <time>2020-02-01T10:20:03.000Z</time>
      </trkpt>
      <trkpt lat="42.84384" lon="0.50339">
        <ele>1669</ele>
        <time>2020-02-01T10:20:04.000Z</time>
      </trkpt>
      <trkpt lat="42.84385" lon="0.50343">
        <ele>1669</ele>
        <time>2020-02-01T10:20:05.000Z</time>
      </trkpt>
      <trkpt lat="42.84385" lon="0.50347">
        <ele>1669</ele>
        <time>2020-02-01T10:20:06.000Z</time>
      </trkpt>
      <trkpt lat="42.84385" lon="0.5035">
        <ele>1669</ele>
        <time>2020-02-01T10:21:04.000Z</time>
      </trkpt>
      <trkpt lat="42.84385" lon="0.5035">
        <ele>1669</ele>
        <time>2020-02-01T10:21:05.000Z</time>
      </trkpt>
      <trkpt lat="42.84385" lon="0.50351">
        <ele>1669</ele>
        <time>2020-02-01T10:21:06.000Z</time>
      </trkpt>
      <trkpt lat="42.84386" lon="0.50351">
        <ele>1669</ele>
        <time>2020-02-01T10:21:07.000Z</time>
      </trkpt>
      <trkpt lat="42.84386" lon="0.50351">
        <ele>1669</ele>
        <time>2020-02-01T10:21:08.000Z</time>
      </trkpt>
      <trkpt lat="42.84386" lon="0.50351">
        <ele>1669</ele>
        <time>2020-02-01T10:21:09.000Z</time>
      </trkpt>
      <trkpt lat="42.84386" lon="0.50351">
        <ele>1669</ele>
        <time>2020-02-01T10:21:10.000Z</time>
      </trkpt>
      <trkpt lat="42.84386" lon="0.50351">
        <ele>1669</ele>
        <time>2020-02-01T10:21:11.000Z</time>
      </trkpt>
      <trkpt lat="42.84386" lon="0.50351">
        <ele>1669</ele>
        <time>2020-02-01T10:21:12.000Z</time>
      </trkpt>
      <trkpt lat="42.84386" lon="0.50351">
        <ele>1669</ele>
        <time>2020-02-01T10:21:13.000Z</time>
      </trkpt>
      <trkpt lat="42.84386" lon="0.50352">
        <ele>1669</ele>
        <time>2020-02-01T10:21:14.000Z</time>
      </trkpt>
      <trkpt lat="42.84386" lon="0.50352">
        <ele>1669.3</ele>
        <time>2020-02-01T10:21:15.000Z</time>
      </trkpt>
      <trkpt lat="42.84386" lon="0.50352">
        <ele>1669.7</ele>
        <time>2020-02-01T10:21:16.000Z</time>
      </trkpt>
      <trkpt lat="42.84386" lon="0.50352">
        <ele>1670</ele>
        <time>2020-02-01T10:21:17.000Z</time>
      </trkpt>
      <trkpt lat="42.84386" lon="0.50352">
        <ele>1670</ele>
        <time>2020-02-01T10:21:18.000Z</time>
      </trkpt>
      <trkpt lat="42.84386" lon="0.50352">
        <ele>1670</ele>
        <time>2020-02-01T10:21:19.000Z</time>
      </trkpt>
      <trkpt lat="42.84386" lon="0.50352">
        <ele>1670</ele>
        <time>2020-02-01T10:21:20.000Z</time>
      </trkpt>
      <trkpt lat="42.84386" lon="0.50352">
        <ele>1670</ele>
        <time>2020-02-01T10:21:21.000Z</time>
      </trkpt>
      <trkpt lat="42.84386" lon="0.50352">
        <ele>1670</ele>
        <time>2020-02-01T10:21:22.000Z</time>
      </trkpt>
      <trkpt lat="42.84386" lon="0.50352">
        <ele>1670</ele>
        <time>2020-02-01T10:21:23.000Z</time>
      </trkpt>
      <trkpt lat="42.84386" lon="0.50352">
        <ele>1670</ele>
        <time>2020-02-01T10:21:24.000Z</time>
      </trkpt>
      <trkpt lat="42.84386" lon="0.50352">
        <ele>1670</ele>
        <time>2020-02-01T10:21:25.000Z</time>
      </trkpt>
      <trkpt lat="42.84386" lon="0.50352">
        <ele>1669.5</ele>
        <time>2020-02-01T10:21:26.000Z</time>
      </trkpt>
      <trkpt lat="42.84386" lon="0.50352">
        <ele>1669</ele>
        <time>2020-02-01T10:21:27.000Z</time>
      </trkpt>
      <trkpt lat="42.84386" lon="0.50352">
        <ele>1669</ele>
        <time>2020-02-01T10:21:28.000Z</time>
      </trkpt>
      <trkpt lat="42.84386" lon="0.50352">
        <ele>1669</ele>
        <time>2020-02-01T10:21:29.000Z</time>
      </trkpt>
      <trkpt lat="42.84386" lon="0.50352">
        <ele>1669</ele>
        <time>2020-02-01T10:21:30.000Z</time>
      </trkpt>
      <trkpt lat="42.84386" lon="0.50352">
        <ele>1669</ele>
        <time>2020-02-01T10:21:31.000Z</time>
      </trkpt>
      <trkpt lat="42.84386" lon="0.50352">
        <ele>1670</ele>
        <time>2020-02-01T10:21:32.000Z</time>
      </trkpt>
      <trkpt lat="42.84386" lon="0.50352">
        <ele>1670</ele>
        <time>2020-02-01T10:21:33.000Z</time>
      </trkpt>
      <trkpt lat="42.84386" lon="0.50352">
        <ele>1670</ele>
        <time>2020-02-01T10:21:34.000Z</time>
      </trkpt>
      <trkpt lat="42.84386" lon="0.50352">
        <ele>1670</ele>
        <time>2020-02-01T10:21:35.000Z</time>
      </trkpt>
      <trkpt lat="42.84386" lon="0.50352">
        <ele>1670</ele>
        <time>2020-02-01T10:21:36.000Z</time>
      </trkpt>
      <trkpt lat="42.84386" lon="0.50352">
        <ele>1670</ele>
        <time>2020-02-01T10:21:37.000Z</time>
      </trkpt>
      <trkpt lat="42.84386" lon="0.50352">
        <ele>1670</ele>
        <time>2020-02-01T10:21:38.000Z</time>
      </trkpt>
      <trkpt lat="42.84386" lon="0.50352">
        <ele>1670</ele>
        <time>2020-02-01T10:21:39.000Z</time>
      </trkpt>
      <trkpt lat="42.84386" lon="0.50352">
        <ele>1669.5</ele>
        <time>2020-02-01T10:21:40.000Z</time>
      </trkpt>
      <trkpt lat="42.84386" lon="0.50352">
        <ele>1669</ele>
        <time>2020-02-01T10:21:41.000Z</time>
      </trkpt>
      <trkpt lat="42.84386" lon="0.50352">
        <ele>1669</ele>
        <time>2020-02-01T10:21:42.000Z</time>
      </trkpt>
      <trkpt lat="42.84385" lon="0.50351">
        <ele>1669</ele>
        <time>2020-02-01T10:21:43.000Z</time>
      </trkpt>
      <trkpt lat="42.84385" lon="0.50351">
        <ele>1669</ele>
        <time>2020-02-01T10:21:44.000Z</time>
      </trkpt>
      <trkpt lat="42.84385" lon="0.50351">
        <ele>1669</ele>
        <time>2020-02-01T10:21:45.000Z</time>
      </trkpt>
      <trkpt lat="42.84385" lon="0.5035">
        <ele>1669</ele>
        <time>2020-02-01T10:21:46.000Z</time>
      </trkpt>
      <trkpt lat="42.84385" lon="0.5035">
        <ele>1669</ele>
        <time>2020-02-01T10:21:47.000Z</time>
      </trkpt>
      <trkpt lat="42.84385" lon="0.5035">
        <ele>1669</ele>
        <time>2020-02-01T10:21:48.000Z</time>
      </trkpt>
      <trkpt lat="42.84385" lon="0.50349">
        <ele>1669</ele>
        <time>2020-02-01T10:21:49.000Z</time>
      </trkpt>
      <trkpt lat="42.84385" lon="0.50349">
        <ele>1669</ele>
        <time>2020-02-01T10:21:50.000Z</time>
      </trkpt>
      <trkpt lat="42.84385" lon="0.50348">
        <ele>1669</ele>
        <time>2020-02-01T10:21:51.000Z</time>
      </trkpt>
      <trkpt lat="42.84385" lon="0.50348">
        <ele>1669</ele>
        <time>2020-02-01T10:21:52.000Z</time>
      </trkpt>
      <trkpt lat="42.84385" lon="0.50347">
        <ele>1669</ele>
        <time>2020-02-01T10:21:53.000Z</time>
      </trkpt>
      <trkpt lat="42.84385" lon="0.50347">
        <ele>1669</ele>
        <time>2020-02-01T10:21:54.000Z</time>
      </trkpt>
      <trkpt lat="42.84386" lon="0.50346">
        <ele>1669</ele>
        <time>2020-02-01T10:21:55.000Z</time>
      </trkpt>
      <trkpt lat="42.84386" lon="0.50345">
        <ele>1669</ele>
        <time>2020-02-01T10:21:56.000Z</time>
      </trkpt>
      <trkpt lat="42.84386" lon="0.50344">
        <ele>1669</ele>
        <time>2020-02-01T10:21:57.000Z</time>
      </trkpt>
      <trkpt lat="42.84386" lon="0.50344">
        <ele>1669</ele>
        <time>2020-02-01T10:21:58.000Z</time>
      </trkpt>
      <trkpt lat="42.84386" lon="0.50343">
        <ele>1669</ele>
        <time>2020-02-01T10:21:59.000Z</time>
      </trkpt>
      <trkpt lat="42.84386" lon="0.50342">
        <ele>1669</ele>
        <time>2020-02-01T10:22:00.000Z</time>
      </trkpt>
      <trkpt lat="42.84386" lon="0.50341">
        <ele>1669</ele>
        <time>2020-02-01T10:22:01.000Z</time>
      </trkpt>
      <trkpt lat="42.84386" lon="0.5034">
        <ele>1669</ele>
        <time>2020-02-01T10:22:02.000Z</time>
      </trkpt>
      <trkpt lat="42.84386" lon="0.50339">
        <ele>1669</ele>
        <time>2020-02-01T10:22:03.000Z</time>
      </trkpt>
      <trkpt lat="42.84385" lon="0.50338">
        <ele>1669</ele>
        <time>2020-02-01T10:22:04.000Z</time>
      </trkpt>
      <trkpt lat="42.84385" lon="0.50338">
        <ele>1669</ele>
        <time>2020-02-01T10:22:05.000Z</time>
      </trkpt>
      <trkpt lat="42.84385" lon="0.50337">
        <ele>1669</ele>
        <time>2020-02-01T10:22:06.000Z</time>
      </trkpt>
      <trkpt lat="42.84385" lon="0.50336">
        <ele>1669</ele>
        <time>2020-02-01T10:22:07.000Z</time>
      </trkpt>
      <trkpt lat="42.84385" lon="0.50336">
        <ele>1669</ele>
        <time>2020-02-01T10:22:08.000Z</time>
      </trkpt>
      <trkpt lat="42.84385" lon="0.50336">
        <ele>1669</ele>
        <time>2020-02-01T10:22:09.000Z</time>
      </trkpt>
      <trkpt lat="42.84385" lon="0.50335">
        <ele>1669</ele>
        <time>2020-02-01T10:22:10.000Z</time>
      </trkpt>
      <trkpt lat="42.84385" lon="0.50335">
        <ele>1669</ele>
        <time>2020-02-01T10:22:11.000Z</time>
      </trkpt>
      <trkpt lat="42.84385" lon="0.50335">
        <ele>1669</ele>
        <time>2020-02-01T10:22:12.000Z</time>
      </trkpt>
      <trkpt lat="42.84385" lon="0.50335">
        <ele>1669</ele>
        <time>2020-02-01T10:22:13.000Z</time>
      </trkpt>
      <trkpt lat="42.84385" lon="0.50336">
        <ele>1669</ele>
        <time>2020-02-01T10:22:14.000Z</time>
      </trkpt>
      <trkpt lat="42.84385" lon="0.50336">
        <ele>1669</ele>
        <time>2020-02-01T10:22:15.000Z</time>
      </trkpt>
      <trkpt lat="42.84384" lon="0.50336">
        <ele>1669</ele>
        <time>2020-02-01T10:22:16.000Z</time>
      </trkpt>
      <trkpt lat="42.84384" lon="0.50337">
        <ele>1669</ele>
        <time>2020-02-01T10:22:17.000Z</time>
      </trkpt>
      <trkpt lat="42.84384" lon="0.50337">
        <ele>1669</ele>
        <time>2020-02-01T10:22:18.000Z</time>
      </trkpt>
      <trkpt lat="42.84383" lon="0.50338">
        <ele>1669</ele>
        <time>2020-02-01T10:22:19.000Z</time>
      </trkpt>
      <trkpt lat="42.84383" lon="0.50339">
        <ele>1669</ele>
        <time>2020-02-01T10:22:20.000Z</time>
      </trkpt>
      <trkpt lat="42.84382" lon="0.50339">
        <ele>1669</ele>
        <time>2020-02-01T10:22:21.000Z</time>
      </trkpt>
      <trkpt lat="42.84382" lon="0.5034">
        <ele>1669</ele>
        <time>2020-02-01T10:22:22.000Z</time>
      </trkpt>
      <trkpt lat="42.84381" lon="0.5034">
        <ele>1669</ele>
        <time>2020-02-01T10:22:23.000Z</time>
      </trkpt>
      <trkpt lat="42.84381" lon="0.5034">
        <ele>1669</ele>
        <time>2020-02-01T10:22:24.000Z</time>
      </trkpt>
      <trkpt lat="42.8438" lon="0.5034">
        <ele>1669</ele>
        <time>2020-02-01T10:22:25.000Z</time>
      </trkpt>
      <trkpt lat="42.84379" lon="0.5034">
        <ele>1669</ele>
        <time>2020-02-01T10:22:26.000Z</time>
      </trkpt>
      <trkpt lat="42.84379" lon="0.5034">
        <ele>1669</ele>
        <time>2020-02-01T10:22:27.000Z</time>
      </trkpt>
      <trkpt lat="42.84378" lon="0.5034">
        <ele>1669</ele>
        <time>2020-02-01T10:22:28.000Z</time>
      </trkpt>
      <trkpt lat="42.84378" lon="0.5034">
        <ele>1669</ele>
        <time>2020-02-01T10:22:29.000Z</time>
      </trkpt>
      <trkpt lat="42.84378" lon="0.5034">
        <ele>1669</ele>
        <time>2020-02-01T10:22:30.000Z</time>
      </trkpt>
      <trkpt lat="42.84377" lon="0.5034">
        <ele>1669</ele>
        <time>2020-02-01T10:22:31.000Z</time>
      </trkpt>
      <trkpt lat="42.84377" lon="0.5034">
        <ele>1669</ele>
        <time>2020-02-01T10:22:32.000Z</time>
      </trkpt>
      <trkpt lat="42.84376" lon="0.5034">
        <ele>1669</ele>
        <time>2020-02-01T10:22:33.000Z</time>
      </trkpt>
      <trkpt lat="42.84376" lon="0.5034">
        <ele>1669</ele>
        <time>2020-02-01T10:22:34.000Z</time>
      </trkpt>
      <trkpt lat="42.84376" lon="0.5034">
        <ele>1669</ele>
        <time>2020-02-01T10:22:35.000Z</time>
      </trkpt>
      <trkpt lat="42.84375" lon="0.5034">
        <ele>1669</ele>
        <time>2020-02-01T10:22:36.000Z</time>
      </trkpt>
      <trkpt lat="42.84375" lon="0.5034">
        <ele>1669</ele>
        <time>2020-02-01T10:22:37.000Z</time>
      </trkpt>
      <trkpt lat="42.84375" lon="0.50341">
        <ele>1669</ele>
        <time>2020-02-01T10:22:38.000Z</time>
      </trkpt>
      <trkpt lat="42.84374" lon="0.50341">
        <ele>1669</ele>
        <time>2020-02-01T10:22:39.000Z</time>
      </trkpt>
      <trkpt lat="42.84374" lon="0.50341">
        <ele>1669</ele>
        <time>2020-02-01T10:22:40.000Z</time>
      </trkpt>
      <trkpt lat="42.84374" lon="0.50341">
        <ele>1669</ele>
        <time>2020-02-01T10:22:41.000Z</time>
      </trkpt>
      <trkpt lat="42.84374" lon="0.50341">
        <ele>1669</ele>
        <time>2020-02-01T10:22:42.000Z</time>
      </trkpt>
      <trkpt lat="42.84374" lon="0.50342">
        <ele>1670</ele>
        <time>2020-02-01T10:22:43.000Z</time>
      </trkpt>
      <trkpt lat="42.84373" lon="0.50342">
        <ele>1670</ele>
        <time>2020-02-01T10:22:44.000Z</time>
      </trkpt>
      <trkpt lat="42.84373" lon="0.50342">
        <ele>1670</ele>
        <time>2020-02-01T10:24:33.000Z</time>
      </trkpt>
      <trkpt lat="42.84374" lon="0.50342">
        <ele>1670</ele>
        <time>2020-02-01T10:24:34.000Z</time>
      </trkpt>
      <trkpt lat="42.84374" lon="0.50342">
        <ele>1670</ele>
        <time>2020-02-01T10:24:35.000Z</time>
      </trkpt>
      <trkpt lat="42.84374" lon="0.50342">
        <ele>1670</ele>
        <time>2020-02-01T10:24:36.000Z</time>
      </trkpt>
      <trkpt lat="42.84374" lon="0.50342">
        <ele>1670</ele>
        <time>2020-02-01T10:24:37.000Z</time>
      </trkpt>
      <trkpt lat="42.84373" lon="0.50342">
        <ele>1670</ele>
        <time>2020-02-01T10:24:38.000Z</time>
      </trkpt>
      <trkpt lat="42.84373" lon="0.50343">
        <ele>1670</ele>
        <time>2020-02-01T10:24:39.000Z</time>
      </trkpt>
      <trkpt lat="42.84373" lon="0.50343">
        <ele>1670</ele>
        <time>2020-02-01T10:24:40.000Z</time>
      </trkpt>
      <trkpt lat="42.84372" lon="0.50344">
        <ele>1670</ele>
        <time>2020-02-01T10:24:41.000Z</time>
      </trkpt>
      <trkpt lat="42.84373" lon="0.50356">
        <ele>1670</ele>
        <time>2020-02-01T10:24:42.000Z</time>
      </trkpt>
      <trkpt lat="42.84372" lon="0.50357">
        <ele>1670</ele>
        <time>2020-02-01T10:24:43.000Z</time>
      </trkpt>
      <trkpt lat="42.84372" lon="0.50357">
        <ele>1670</ele>
        <time>2020-02-01T10:24:44.000Z</time>
      </trkpt>
      <trkpt lat="42.84372" lon="0.50357">
        <ele>1670</ele>
        <time>2020-02-01T10:24:45.000Z</time>
      </trkpt>
      <trkpt lat="42.84373" lon="0.50358">
        <ele>1670</ele>
        <time>2020-02-01T10:24:46.000Z</time>
      </trkpt>
      <trkpt lat="42.84373" lon="0.50359">
        <ele>1669</ele>
        <time>2020-02-01T10:24:47.000Z</time>
      </trkpt>
      <trkpt lat="42.84374" lon="0.50361">
        <ele>1669</ele>
        <time>2020-02-01T10:24:48.000Z</time>
      </trkpt>
      <trkpt lat="42.84375" lon="0.50362">
        <ele>1669</ele>
        <time>2020-02-01T10:24:49.000Z</time>
      </trkpt>
      <trkpt lat="42.84375" lon="0.50362">
        <ele>1669</ele>
        <time>2020-02-01T10:24:50.000Z</time>
      </trkpt>
      <trkpt lat="42.84375" lon="0.50362">
        <ele>1669</ele>
        <time>2020-02-01T10:24:51.000Z</time>
      </trkpt>
      <trkpt lat="42.84375" lon="0.50362">
        <ele>1669</ele>
        <time>2020-02-01T10:24:52.000Z</time>
      </trkpt>
      <trkpt lat="42.84375" lon="0.50362">
        <ele>1669</ele>
        <time>2020-02-01T10:24:53.000Z</time>
      </trkpt>
      <trkpt lat="42.84375" lon="0.50363">
        <ele>1669</ele>
        <time>2020-02-01T10:24:54.000Z</time>
      </trkpt>
      <trkpt lat="42.84375" lon="0.50363">
        <ele>1669</ele>
        <time>2020-02-01T10:24:55.000Z</time>
      </trkpt>
      <trkpt lat="42.84376" lon="0.50363">
        <ele>1669</ele>
        <time>2020-02-01T10:24:56.000Z</time>
      </trkpt>
      <trkpt lat="42.84376" lon="0.50363">
        <ele>1669</ele>
        <time>2020-02-01T10:24:57.000Z</time>
      </trkpt>
      <trkpt lat="42.84376" lon="0.50363">
        <ele>1669</ele>
        <time>2020-02-01T10:24:58.000Z</time>
      </trkpt>
      <trkpt lat="42.84377" lon="0.50363">
        <ele>1669</ele>
        <time>2020-02-01T10:24:59.000Z</time>
      </trkpt>
      <trkpt lat="42.84377" lon="0.50363">
        <ele>1669</ele>
        <time>2020-02-01T10:25:00.000Z</time>
      </trkpt>
      <trkpt lat="42.84378" lon="0.50363">
        <ele>1669</ele>
        <time>2020-02-01T10:25:01.000Z</time>
      </trkpt>
      <trkpt lat="42.84378" lon="0.50362">
        <ele>1669</ele>
        <time>2020-02-01T10:25:02.000Z</time>
      </trkpt>
      <trkpt lat="42.84378" lon="0.50362">
        <ele>1669</ele>
        <time>2020-02-01T10:25:03.000Z</time>
      </trkpt>
      <trkpt lat="42.84378" lon="0.50361">
        <ele>1669</ele>
        <time>2020-02-01T10:25:04.000Z</time>
      </trkpt>
      <trkpt lat="42.84378" lon="0.5036">
        <ele>1669</ele>
        <time>2020-02-01T10:25:05.000Z</time>
      </trkpt>
      <trkpt lat="42.84378" lon="0.5036">
        <ele>1669</ele>
        <time>2020-02-01T10:25:06.000Z</time>
      </trkpt>
      <trkpt lat="42.84378" lon="0.50359">
        <ele>1669</ele>
        <time>2020-02-01T10:25:07.000Z</time>
      </trkpt>
      <trkpt lat="42.84378" lon="0.50359">
        <ele>1669</ele>
        <time>2020-02-01T10:25:08.000Z</time>
      </trkpt>
      <trkpt lat="42.84378" lon="0.50358">
        <ele>1669</ele>
        <time>2020-02-01T10:25:09.000Z</time>
      </trkpt>
      <trkpt lat="42.84378" lon="0.50358">
        <ele>1669</ele>
        <time>2020-02-01T10:25:10.000Z</time>
      </trkpt>
      <trkpt lat="42.84378" lon="0.50357">
        <ele>1669</ele>
        <time>2020-02-01T10:25:11.000Z</time>
      </trkpt>
      <trkpt lat="42.84378" lon="0.50357">
        <ele>1669</ele>
        <time>2020-02-01T10:25:12.000Z</time>
      </trkpt>
      <trkpt lat="42.84378" lon="0.50356">
        <ele>1669</ele>
        <time>2020-02-01T10:25:13.000Z</time>
      </trkpt>
      <trkpt lat="42.84378" lon="0.50356">
        <ele>1669</ele>
        <time>2020-02-01T10:25:14.000Z</time>
      </trkpt>
      <trkpt lat="42.84378" lon="0.50356">
        <ele>1669</ele>
        <time>2020-02-01T10:25:15.000Z</time>
      </trkpt>
      <trkpt lat="42.84378" lon="0.50356">
        <ele>1669</ele>
        <time>2020-02-01T10:25:16.000Z</time>
      </trkpt>
      <trkpt lat="42.84378" lon="0.50355">
        <ele>1669</ele>
        <time>2020-02-01T10:25:17.000Z</time>
      </trkpt>
      <trkpt lat="42.84378" lon="0.50355">
        <ele>1669</ele>
        <time>2020-02-01T10:25:18.000Z</time>
      </trkpt>
      <trkpt lat="42.84378" lon="0.50355">
        <ele>1669</ele>
        <time>2020-02-01T10:25:19.000Z</time>
      </trkpt>
      <trkpt lat="42.84378" lon="0.50355">
        <ele>1669</ele>
        <time>2020-02-01T10:25:20.000Z</time>
      </trkpt>
      <trkpt lat="42.84378" lon="0.50355">
        <ele>1669</ele>
        <time>2020-02-01T10:25:21.000Z</time>
      </trkpt>
      <trkpt lat="42.84378" lon="0.50354">
        <ele>1669</ele>
        <time>2020-02-01T10:25:22.000Z</time>
      </trkpt>
      <trkpt lat="42.84377" lon="0.50354">
        <ele>1669</ele>
        <time>2020-02-01T10:25:23.000Z</time>
      </trkpt>
      <trkpt lat="42.84377" lon="0.50354">
        <ele>1669</ele>
        <time>2020-02-01T10:25:24.000Z</time>
      </trkpt>
      <trkpt lat="42.84377" lon="0.50353">
        <ele>1669</ele>
        <time>2020-02-01T10:25:25.000Z</time>
      </trkpt>
      <trkpt lat="42.84378" lon="0.50351">
        <ele>1669</ele>
        <time>2020-02-01T10:25:26.000Z</time>
      </trkpt>
      <trkpt lat="42.84378" lon="0.50349">
        <ele>1669</ele>
        <time>2020-02-01T10:25:27.000Z</time>
      </trkpt>
      <trkpt lat="42.84379" lon="0.50347">
        <ele>1669</ele>
        <time>2020-02-01T10:25:28.000Z</time>
      </trkpt>
      <trkpt lat="42.8438" lon="0.50345">
        <ele>1669</ele>
        <time>2020-02-01T10:25:29.000Z</time>
      </trkpt>
      <trkpt lat="42.84381" lon="0.50344">
        <ele>1669</ele>
        <time>2020-02-01T10:25:30.000Z</time>
      </trkpt>
      <trkpt lat="42.84381" lon="0.50343">
        <ele>1670</ele>
        <time>2020-02-01T10:26:46.000Z</time>
      </trkpt>
      <trkpt lat="42.84382" lon="0.50342">
        <ele>1670</ele>
        <time>2020-02-01T10:26:47.000Z</time>
      </trkpt>
      <trkpt lat="42.84382" lon="0.50342">
        <ele>1670</ele>
        <time>2020-02-01T10:26:48.000Z</time>
      </trkpt>
      <trkpt lat="42.84382" lon="0.50341">
        <ele>1670</ele>
        <time>2020-02-01T10:26:49.000Z</time>
      </trkpt>
      <trkpt lat="42.84382" lon="0.50341">
        <ele>1670</ele>
        <time>2020-02-01T10:26:50.000Z</time>
      </trkpt>
      <trkpt lat="42.84382" lon="0.50341">
        <ele>1670</ele>
        <time>2020-02-01T10:26:51.000Z</time>
      </trkpt>
      <trkpt lat="42.84382" lon="0.50341">
        <ele>1670</ele>
        <time>2020-02-01T10:26:52.000Z</time>
      </trkpt>
      <trkpt lat="42.84382" lon="0.50341">
        <ele>1670</ele>
        <time>2020-02-01T10:26:53.000Z</time>
      </trkpt>
      <trkpt lat="42.84381" lon="0.50341">
        <ele>1670</ele>
        <time>2020-02-01T10:26:54.000Z</time>
      </trkpt>
      <trkpt lat="42.8438" lon="0.50341">
        <ele>1670</ele>
        <time>2020-02-01T10:26:55.000Z</time>
      </trkpt>
      <trkpt lat="42.8438" lon="0.50341">
        <ele>1670</ele>
        <time>2020-02-01T10:26:56.000Z</time>
      </trkpt>
      <trkpt lat="42.8438" lon="0.50342">
        <ele>1670</ele>
        <time>2020-02-01T10:26:57.000Z</time>
      </trkpt>
      <trkpt lat="42.8438" lon="0.50342">
        <ele>1670</ele>
        <time>2020-02-01T10:26:58.000Z</time>
      </trkpt>
      <trkpt lat="42.8438" lon="0.50342">
        <ele>1670</ele>
        <time>2020-02-01T10:26:59.000Z</time>
      </trkpt>
      <trkpt lat="42.8438" lon="0.50342">
        <ele>1670</ele>
        <time>2020-02-01T10:27:00.000Z</time>
      </trkpt>
      <trkpt lat="42.8438" lon="0.50343">
        <ele>1670</ele>
        <time>2020-02-01T10:27:01.000Z</time>
      </trkpt>
      <trkpt lat="42.8438" lon="0.50343">
        <ele>1670</ele>
        <time>2020-02-01T10:27:02.000Z</time>
      </trkpt>
      <trkpt lat="42.8438" lon="0.50343">
        <ele>1670</ele>
        <time>2020-02-01T10:27:03.000Z</time>
      </trkpt>
      <trkpt lat="42.8438" lon="0.50342">
        <ele>1670</ele>
        <time>2020-02-01T10:27:04.000Z</time>
      </trkpt>
      <trkpt lat="42.8438" lon="0.50342">
        <ele>1670</ele>
        <time>2020-02-01T10:27:05.000Z</time>
      </trkpt>
      <trkpt lat="42.8438" lon="0.50342">
        <ele>1669</ele>
        <time>2020-02-01T10:27:06.000Z</time>
      </trkpt>
      <trkpt lat="42.8438" lon="0.50343">
        <ele>1669</ele>
        <time>2020-02-01T10:27:07.000Z</time>
      </trkpt>
      <trkpt lat="42.8438" lon="0.50343">
        <ele>1669</ele>
        <time>2020-02-01T10:27:08.000Z</time>
      </trkpt>
      <trkpt lat="42.8438" lon="0.50343">
        <ele>1669</ele>
        <time>2020-02-01T10:27:09.000Z</time>
      </trkpt>
      <trkpt lat="42.8438" lon="0.50344">
        <ele>1669</ele>
        <time>2020-02-01T10:27:10.000Z</time>
      </trkpt>
      <trkpt lat="42.8438" lon="0.50344">
        <ele>1669</ele>
        <time>2020-02-01T10:27:35.000Z</time>
      </trkpt>
      <trkpt lat="42.8438" lon="0.50345">
        <ele>1669</ele>
        <time>2020-02-01T10:27:36.000Z</time>
      </trkpt>
      <trkpt lat="42.8438" lon="0.50346">
        <ele>1669</ele>
        <time>2020-02-01T10:27:37.000Z</time>
      </trkpt>
      <trkpt lat="42.8438" lon="0.50346">
        <ele>1669</ele>
        <time>2020-02-01T10:27:38.000Z</time>
      </trkpt>
      <trkpt lat="42.8438" lon="0.50347">
        <ele>1669</ele>
        <time>2020-02-01T10:27:39.000Z</time>
      </trkpt>
      <trkpt lat="42.8438" lon="0.50348">
        <ele>1669</ele>
        <time>2020-02-01T10:27:40.000Z</time>
      </trkpt>
      <trkpt lat="42.84379" lon="0.50348">
        <ele>1669</ele>
        <time>2020-02-01T10:27:41.000Z</time>
      </trkpt>
      <trkpt lat="42.84379" lon="0.50348">
        <ele>1669</ele>
        <time>2020-02-01T10:27:42.000Z</time>
      </trkpt>
      <trkpt lat="42.84379" lon="0.50349">
        <ele>1669</ele>
        <time>2020-02-01T10:27:43.000Z</time>
      </trkpt>
      <trkpt lat="42.84379" lon="0.50349">
        <ele>1669</ele>
        <time>2020-02-01T10:27:44.000Z</time>
      </trkpt>
      <trkpt lat="42.84379" lon="0.50349">
        <ele>1668</ele>
        <time>2020-02-01T10:27:45.000Z</time>
      </trkpt>
      <trkpt lat="42.84379" lon="0.50349">
        <ele>1668</ele>
        <time>2020-02-01T10:27:46.000Z</time>
      </trkpt>
      <trkpt lat="42.84379" lon="0.50349">
        <ele>1668</ele>
        <time>2020-02-01T10:27:47.000Z</time>
      </trkpt>
      <trkpt lat="42.84379" lon="0.50349">
        <ele>1668</ele>
        <time>2020-02-01T10:27:48.000Z</time>
      </trkpt>
      <trkpt lat="42.84379" lon="0.50349">
        <ele>1668</ele>
        <time>2020-02-01T10:27:49.000Z</time>
      </trkpt>
      <trkpt lat="42.84379" lon="0.50349">
        <ele>1668</ele>
        <time>2020-02-01T10:27:50.000Z</time>
      </trkpt>
      <trkpt lat="42.84379" lon="0.50349">
        <ele>1668</ele>
        <time>2020-02-01T10:27:51.000Z</time>
      </trkpt>
      <trkpt lat="42.84379" lon="0.50349">
        <ele>1668</ele>
        <time>2020-02-01T10:27:52.000Z</time>
      </trkpt>
      <trkpt lat="42.84379" lon="0.50349">
        <ele>1668</ele>
        <time>2020-02-01T10:27:53.000Z</time>
      </trkpt>
      <trkpt lat="42.84379" lon="0.50349">
        <ele>1668</ele>
        <time>2020-02-01T10:27:54.000Z</time>
      </trkpt>
      <trkpt lat="42.84379" lon="0.50349">
        <ele>1668</ele>
        <time>2020-02-01T10:27:55.000Z</time>
      </trkpt>
      <trkpt lat="42.84378" lon="0.50349">
        <ele>1668</ele>
        <time>2020-02-01T10:27:56.000Z</time>
      </trkpt>
      <trkpt lat="42.84378" lon="0.50349">
        <ele>1668</ele>
        <time>2020-02-01T10:27:57.000Z</time>
      </trkpt>
      <trkpt lat="42.84378" lon="0.50349">
        <ele>1668</ele>
        <time>2020-02-01T10:27:58.000Z</time>
      </trkpt>
      <trkpt lat="42.84378" lon="0.50349">
        <ele>1668</ele>
        <time>2020-02-01T10:27:59.000Z</time>
      </trkpt>
      <trkpt lat="42.84377" lon="0.50348">
        <ele>1668</ele>
        <time>2020-02-01T10:28:00.000Z</time>
      </trkpt>
      <trkpt lat="42.84377" lon="0.50348">
        <ele>1668</ele>
        <time>2020-02-01T10:28:01.000Z</time>
      </trkpt>
      <trkpt lat="42.84377" lon="0.50348">
        <ele>1668</ele>
        <time>2020-02-01T10:28:02.000Z</time>
      </trkpt>
      <trkpt lat="42.84377" lon="0.50348">
        <ele>1668</ele>
        <time>2020-02-01T10:28:03.000Z</time>
      </trkpt>
      <trkpt lat="42.84377" lon="0.50348">
        <ele>1668</ele>
        <time>2020-02-01T10:28:04.000Z</time>
      </trkpt>
      <trkpt lat="42.84377" lon="0.50348">
        <ele>1668</ele>
        <time>2020-02-01T10:28:05.000Z</time>
      </trkpt>
      <trkpt lat="42.84377" lon="0.50348">
        <ele>1668</ele>
        <time>2020-02-01T10:28:06.000Z</time>
      </trkpt>
      <trkpt lat="42.84377" lon="0.50348">
        <ele>1668</ele>
        <time>2020-02-01T10:28:07.000Z</time>
      </trkpt>
      <trkpt lat="42.84377" lon="0.50348">
        <ele>1668</ele>
        <time>2020-02-01T10:28:08.000Z</time>
      </trkpt>
      <trkpt lat="42.84376" lon="0.50348">
        <ele>1668</ele>
        <time>2020-02-01T10:28:09.000Z</time>
      </trkpt>
      <trkpt lat="42.84376" lon="0.50349">
        <ele>1668</ele>
        <time>2020-02-01T10:28:10.000Z</time>
      </trkpt>
      <trkpt lat="42.84376" lon="0.50349">
        <ele>1668</ele>
        <time>2020-02-01T10:28:11.000Z</time>
      </trkpt>
      <trkpt lat="42.84375" lon="0.50349">
        <ele>1668</ele>
        <time>2020-02-01T10:28:12.000Z</time>
      </trkpt>
      <trkpt lat="42.84375" lon="0.50349">
        <ele>1668</ele>
        <time>2020-02-01T10:28:13.000Z</time>
      </trkpt>
      <trkpt lat="42.84375" lon="0.50349">
        <ele>1668</ele>
        <time>2020-02-01T10:28:14.000Z</time>
      </trkpt>
      <trkpt lat="42.84375" lon="0.5035">
        <ele>1668</ele>
        <time>2020-02-01T10:28:15.000Z</time>
      </trkpt>
      <trkpt lat="42.84375" lon="0.5035">
        <ele>1668</ele>
        <time>2020-02-01T10:28:16.000Z</time>
      </trkpt>
      <trkpt lat="42.84375" lon="0.5035">
        <ele>1668</ele>
        <time>2020-02-01T10:28:17.000Z</time>
      </trkpt>
      <trkpt lat="42.84375" lon="0.50351">
        <ele>1668</ele>
        <time>2020-02-01T10:28:18.000Z</time>
      </trkpt>
      <trkpt lat="42.84375" lon="0.50351">
        <ele>1668</ele>
        <time>2020-02-01T10:28:19.000Z</time>
      </trkpt>
      <trkpt lat="42.84375" lon="0.50351">
        <ele>1668</ele>
        <time>2020-02-01T10:28:20.000Z</time>
      </trkpt>
      <trkpt lat="42.84375" lon="0.50351">
        <ele>1668</ele>
        <time>2020-02-01T10:28:21.000Z</time>
      </trkpt>
      <trkpt lat="42.84375" lon="0.50352">
        <ele>1668</ele>
        <time>2020-02-01T10:28:22.000Z</time>
      </trkpt>
      <trkpt lat="42.84375" lon="0.50352">
        <ele>1668</ele>
        <time>2020-02-01T10:28:23.000Z</time>
      </trkpt>
      <trkpt lat="42.84375" lon="0.50352">
        <ele>1668</ele>
        <time>2020-02-01T10:28:24.000Z</time>
      </trkpt>
      <trkpt lat="42.84375" lon="0.50352">
        <ele>1668</ele>
        <time>2020-02-01T10:28:25.000Z</time>
      </trkpt>
      <trkpt lat="42.84375" lon="0.50352">
        <ele>1668</ele>
        <time>2020-02-01T10:28:26.000Z</time>
      </trkpt>
      <trkpt lat="42.84375" lon="0.50352">
        <ele>1668</ele>
        <time>2020-02-01T10:28:27.000Z</time>
      </trkpt>
      <trkpt lat="42.84375" lon="0.50351">
        <ele>1668</ele>
        <time>2020-02-01T10:28:28.000Z</time>
      </trkpt>
      <trkpt lat="42.84375" lon="0.50351">
        <ele>1668</ele>
        <time>2020-02-01T10:28:29.000Z</time>
      </trkpt>
      <trkpt lat="42.84375" lon="0.50351">
        <ele>1668</ele>
        <time>2020-02-01T10:28:30.000Z</time>
      </trkpt>
      <trkpt lat="42.84375" lon="0.5035">
        <ele>1668</ele>
        <time>2020-02-01T10:28:31.000Z</time>
      </trkpt>
      <trkpt lat="42.84375" lon="0.5035">
        <ele>1668</ele>
        <time>2020-02-01T10:28:32.000Z</time>
      </trkpt>
      <trkpt lat="42.84375" lon="0.5035">
        <ele>1668</ele>
        <time>2020-02-01T10:28:33.000Z</time>
      </trkpt>
      <trkpt lat="42.84375" lon="0.5035">
        <ele>1668</ele>
        <time>2020-02-01T10:28:34.000Z</time>
      </trkpt>
      <trkpt lat="42.84375" lon="0.5035">
        <ele>1668</ele>
        <time>2020-02-01T10:28:35.000Z</time>
      </trkpt>
      <trkpt lat="42.84375" lon="0.5035">
        <ele>1668</ele>
        <time>2020-02-01T10:28:36.000Z</time>
      </trkpt>
      <trkpt lat="42.84375" lon="0.5035">
        <ele>1668</ele>
        <time>2020-02-01T10:28:37.000Z</time>
      </trkpt>
      <trkpt lat="42.84375" lon="0.5035">
        <ele>1668</ele>
        <time>2020-02-01T10:28:38.000Z</time>
      </trkpt>
      <trkpt lat="42.84375" lon="0.5035">
        <ele>1668</ele>
        <time>2020-02-01T10:28:39.000Z</time>
      </trkpt>
      <trkpt lat="42.84375" lon="0.5035">
        <ele>1668</ele>
        <time>2020-02-01T10:28:40.000Z</time>
      </trkpt>
      <trkpt lat="42.84375" lon="0.5035">
        <ele>1668</ele>
        <time>2020-02-01T10:28:41.000Z</time>
      </trkpt>
      <trkpt lat="42.84375" lon="0.5035">
        <ele>1668</ele>
        <time>2020-02-01T10:28:42.000Z</time>
      </trkpt>
      <trkpt lat="42.84375" lon="0.5035">
        <ele>1668</ele>
        <time>2020-02-01T10:28:43.000Z</time>
      </trkpt>
      <trkpt lat="42.84375" lon="0.5035">
        <ele>1668</ele>
        <time>2020-02-01T10:28:44.000Z</time>
      </trkpt>
      <trkpt lat="42.84375" lon="0.5035">
        <ele>1668</ele>
        <time>2020-02-01T10:28:45.000Z</time>
      </trkpt>
      <trkpt lat="42.84375" lon="0.5035">
        <ele>1668</ele>
        <time>2020-02-01T10:28:46.000Z</time>
      </trkpt>
      <trkpt lat="42.84375" lon="0.5035">
        <ele>1668</ele>
        <time>2020-02-01T10:28:47.000Z</time>
      </trkpt>
      <trkpt lat="42.84375" lon="0.5035">
        <ele>1668</ele>
        <time>2020-02-01T10:28:48.000Z</time>
      </trkpt>
      <trkpt lat="42.84375" lon="0.5035">
        <ele>1668</ele>
        <time>2020-02-01T10:28:49.000Z</time>
      </trkpt>
      <trkpt lat="42.84375" lon="0.5035">
        <ele>1668</ele>
        <time>2020-02-01T10:28:50.000Z</time>
      </trkpt>
      <trkpt lat="42.84375" lon="0.5035">
        <ele>1668</ele>
        <time>2020-02-01T10:28:51.000Z</time>
      </trkpt>
      <trkpt lat="42.84375" lon="0.5035">
        <ele>1668</ele>
        <time>2020-02-01T10:28:52.000Z</time>
      </trkpt>
      <trkpt lat="42.84375" lon="0.5035">
        <ele>1668</ele>
        <time>2020-02-01T10:28:53.000Z</time>
      </trkpt>
      <trkpt lat="42.84375" lon="0.5035">
        <ele>1668</ele>
        <time>2020-02-01T10:28:54.000Z</time>
      </trkpt>
      <trkpt lat="42.84375" lon="0.5035">
        <ele>1668</ele>
        <time>2020-02-01T10:28:55.000Z</time>
      </trkpt>
      <trkpt lat="42.84375" lon="0.5035">
        <ele>1668</ele>
        <time>2020-02-01T10:28:56.000Z</time>
      </trkpt>
      <trkpt lat="42.84375" lon="0.5035">
        <ele>1668</ele>
        <time>2020-02-01T10:28:57.000Z</time>
      </trkpt>
      <trkpt lat="42.84375" lon="0.5035">
        <ele>1668</ele>
        <time>2020-02-01T10:28:58.000Z</time>
      </trkpt>
      <trkpt lat="42.84375" lon="0.5035">
        <ele>1668</ele>
        <time>2020-02-01T10:28:59.000Z</time>
      </trkpt>
      <trkpt lat="42.84375" lon="0.5035">
        <ele>1668</ele>
        <time>2020-02-01T10:29:00.000Z</time>
      </trkpt>
      <trkpt lat="42.84375" lon="0.5035">
        <ele>1668</ele>
        <time>2020-02-01T10:29:01.000Z</time>
      </trkpt>
      <trkpt lat="42.84375" lon="0.5035">
        <ele>1668</ele>
        <time>2020-02-01T10:29:02.000Z</time>
      </trkpt>
      <trkpt lat="42.84375" lon="0.5035">
        <ele>1668</ele>
        <time>2020-02-01T10:29:03.000Z</time>
      </trkpt>
      <trkpt lat="42.84375" lon="0.5035">
        <ele>1668</ele>
        <time>2020-02-01T10:29:04.000Z</time>
      </trkpt>
      <trkpt lat="42.84375" lon="0.5035">
        <ele>1668</ele>
        <time>2020-02-01T10:29:05.000Z</time>
      </trkpt>
      <trkpt lat="42.84375" lon="0.5035">
        <ele>1668</ele>
        <time>2020-02-01T10:29:06.000Z</time>
      </trkpt>
      <trkpt lat="42.84375" lon="0.5035">
        <ele>1668</ele>
        <time>2020-02-01T10:29:07.000Z</time>
      </trkpt>
      <trkpt lat="42.84375" lon="0.5035">
        <ele>1668</ele>
        <time>2020-02-01T10:29:08.000Z</time>
      </trkpt>
      <trkpt lat="42.84375" lon="0.5035">
        <ele>1668</ele>
        <time>2020-02-01T10:29:09.000Z</time>
      </trkpt>
      <trkpt lat="42.84375" lon="0.5035">
        <ele>1668</ele>
        <time>2020-02-01T10:29:10.000Z</time>
      </trkpt>
      <trkpt lat="42.84375" lon="0.5035">
        <ele>1668</ele>
        <time>2020-02-01T10:29:11.000Z</time>
      </trkpt>
      <trkpt lat="42.84375" lon="0.5035">
        <ele>1668</ele>
        <time>2020-02-01T10:29:12.000Z</time>
      </trkpt>
      <trkpt lat="42.84375" lon="0.5035">
        <ele>1668</ele>
        <time>2020-02-01T10:29:13.000Z</time>
      </trkpt>
      <trkpt lat="42.84375" lon="0.5035">
        <ele>1668</ele>
        <time>2020-02-01T10:29:14.000Z</time>
      </trkpt>
      <trkpt lat="42.84375" lon="0.5035">
        <ele>1668</ele>
        <time>2020-02-01T10:29:15.000Z</time>
      </trkpt>
      <trkpt lat="42.84375" lon="0.5035">
        <ele>1668</ele>
        <time>2020-02-01T10:29:16.000Z</time>
      </trkpt>
      <trkpt lat="42.84375" lon="0.5035">
        <ele>1668</ele>
        <time>2020-02-01T10:29:17.000Z</time>
      </trkpt>
      <trkpt lat="42.84375" lon="0.5035">
        <ele>1668</ele>
        <time>2020-02-01T10:29:18.000Z</time>
      </trkpt>
      <trkpt lat="42.84375" lon="0.5035">
        <ele>1668</ele>
        <time>2020-02-01T10:29:19.000Z</time>
      </trkpt>
      <trkpt lat="42.84375" lon="0.5035">
        <ele>1668</ele>
        <time>2020-02-01T10:29:20.000Z</time>
      </trkpt>
      <trkpt lat="42.84375" lon="0.5035">
        <ele>1668</ele>
        <time>2020-02-01T10:29:21.000Z</time>
      </trkpt>
      <trkpt lat="42.84375" lon="0.5035">
        <ele>1668</ele>
        <time>2020-02-01T10:29:22.000Z</time>
      </trkpt>
      <trkpt lat="42.84375" lon="0.5035">
        <ele>1668</ele>
        <time>2020-02-01T10:29:23.000Z</time>
      </trkpt>
      <trkpt lat="42.84375" lon="0.5035">
        <ele>1668</ele>
        <time>2020-02-01T10:29:24.000Z</time>
      </trkpt>
      <trkpt lat="42.84375" lon="0.5035">
        <ele>1668</ele>
        <time>2020-02-01T10:29:25.000Z</time>
      </trkpt>
      <trkpt lat="42.84375" lon="0.5035">
        <ele>1668</ele>
        <time>2020-02-01T10:29:26.000Z</time>
      </trkpt>
      <trkpt lat="42.84375" lon="0.5035">
        <ele>1668</ele>
        <time>2020-02-01T10:29:27.000Z</time>
      </trkpt>
      <trkpt lat="42.84375" lon="0.5035">
        <ele>1668</ele>
        <time>2020-02-01T10:29:28.000Z</time>
      </trkpt>
      <trkpt lat="42.84375" lon="0.5035">
        <ele>1668</ele>
        <time>2020-02-01T10:29:29.000Z</time>
      </trkpt>
      <trkpt lat="42.84375" lon="0.5035">
        <ele>1668</ele>
        <time>2020-02-01T10:29:30.000Z</time>
      </trkpt>
      <trkpt lat="42.84375" lon="0.5035">
        <ele>1668</ele>
        <time>2020-02-01T10:29:31.000Z</time>
      </trkpt>
      <trkpt lat="42.84375" lon="0.5035">
        <ele>1668</ele>
        <time>2020-02-01T10:29:32.000Z</time>
      </trkpt>
      <trkpt lat="42.84375" lon="0.5035">
        <ele>1668</ele>
        <time>2020-02-01T10:29:33.000Z</time>
      </trkpt>
      <trkpt lat="42.84375" lon="0.5035">
        <ele>1668</ele>
        <time>2020-02-01T10:29:34.000Z</time>
      </trkpt>
      <trkpt lat="42.84375" lon="0.5035">
        <ele>1668</ele>
        <time>2020-02-01T10:29:35.000Z</time>
      </trkpt>
      <trkpt lat="42.84375" lon="0.5035">
        <ele>1668</ele>
        <time>2020-02-01T10:29:36.000Z</time>
      </trkpt>
      <trkpt lat="42.84375" lon="0.50349">
        <ele>1668</ele>
        <time>2020-02-01T10:29:37.000Z</time>
      </trkpt>
      <trkpt lat="42.84374" lon="0.50348">
        <ele>1668</ele>
        <time>2020-02-01T10:29:38.000Z</time>
      </trkpt>
      <trkpt lat="42.84374" lon="0.50348">
        <ele>1668</ele>
        <time>2020-02-01T10:29:39.000Z</time>
      </trkpt>
      <trkpt lat="42.84374" lon="0.50347">
        <ele>1668</ele>
        <time>2020-02-01T10:29:40.000Z</time>
      </trkpt>
      <trkpt lat="42.84374" lon="0.50346">
        <ele>1668</ele>
        <time>2020-02-01T10:29:41.000Z</time>
      </trkpt>
      <trkpt lat="42.84374" lon="0.50345">
        <ele>1668</ele>
        <time>2020-02-01T10:29:42.000Z</time>
      </trkpt>
      <trkpt lat="42.84374" lon="0.50345">
        <ele>1668</ele>
        <time>2020-02-01T10:29:43.000Z</time>
      </trkpt>
      <trkpt lat="42.84374" lon="0.50345">
        <ele>1668</ele>
        <time>2020-02-01T10:29:44.000Z</time>
      </trkpt>
      <trkpt lat="42.84374" lon="0.50345">
        <ele>1668</ele>
        <time>2020-02-01T10:29:45.000Z</time>
      </trkpt>
      <trkpt lat="42.84374" lon="0.50345">
        <ele>1668</ele>
        <time>2020-02-01T10:29:46.000Z</time>
      </trkpt>
      <trkpt lat="42.84374" lon="0.50345">
        <ele>1668</ele>
        <time>2020-02-01T10:29:47.000Z</time>
      </trkpt>
      <trkpt lat="42.84375" lon="0.50345">
        <ele>1668</ele>
        <time>2020-02-01T10:29:48.000Z</time>
      </trkpt>
      <trkpt lat="42.84375" lon="0.50345">
        <ele>1668</ele>
        <time>2020-02-01T10:29:49.000Z</time>
      </trkpt>
      <trkpt lat="42.84375" lon="0.50345">
        <ele>1668</ele>
        <time>2020-02-01T10:29:50.000Z</time>
      </trkpt>
      <trkpt lat="42.84375" lon="0.50345">
        <ele>1668</ele>
        <time>2020-02-01T10:29:51.000Z</time>
      </trkpt>
      <trkpt lat="42.84375" lon="0.50345">
        <ele>1668</ele>
        <time>2020-02-01T10:29:52.000Z</time>
      </trkpt>
      <trkpt lat="42.84376" lon="0.50344">
        <ele>1668</ele>
        <time>2020-02-01T10:29:53.000Z</time>
      </trkpt>
      <trkpt lat="42.84376" lon="0.50344">
        <ele>1668</ele>
        <time>2020-02-01T10:29:54.000Z</time>
      </trkpt>
      <trkpt lat="42.84376" lon="0.50344">
        <ele>1668</ele>
        <time>2020-02-01T10:29:55.000Z</time>
      </trkpt>
      <trkpt lat="42.84376" lon="0.50344">
        <ele>1668</ele>
        <time>2020-02-01T10:29:56.000Z</time>
      </trkpt>
      <trkpt lat="42.84376" lon="0.50344">
        <ele>1668</ele>
        <time>2020-02-01T10:29:57.000Z</time>
      </trkpt>
      <trkpt lat="42.84376" lon="0.50344">
        <ele>1668</ele>
        <time>2020-02-01T10:29:58.000Z</time>
      </trkpt>
      <trkpt lat="42.84376" lon="0.50344">
        <ele>1668</ele>
        <time>2020-02-01T10:29:59.000Z</time>
      </trkpt>
      <trkpt lat="42.84376" lon="0.50344">
        <ele>1668</ele>
        <time>2020-02-01T10:30:00.000Z</time>
      </trkpt>
      <trkpt lat="42.84376" lon="0.50343">
        <ele>1668</ele>
        <time>2020-02-01T10:30:01.000Z</time>
      </trkpt>
      <trkpt lat="42.84377" lon="0.50343">
        <ele>1668</ele>
        <time>2020-02-01T10:30:02.000Z</time>
      </trkpt>
      <trkpt lat="42.84377" lon="0.50343">
        <ele>1668</ele>
        <time>2020-02-01T10:30:03.000Z</time>
      </trkpt>
      <trkpt lat="42.84377" lon="0.50343">
        <ele>1668</ele>
        <time>2020-02-01T10:30:04.000Z</time>
      </trkpt>
      <trkpt lat="42.84378" lon="0.50343">
        <ele>1668</ele>
        <time>2020-02-01T10:30:05.000Z</time>
      </trkpt>
      <trkpt lat="42.84378" lon="0.50343">
        <ele>1668</ele>
        <time>2020-02-01T10:30:06.000Z</time>
      </trkpt>
      <trkpt lat="42.84378" lon="0.50342">
        <ele>1668</ele>
        <time>2020-02-01T10:30:07.000Z</time>
      </trkpt>
      <trkpt lat="42.84379" lon="0.50342">
        <ele>1668</ele>
        <time>2020-02-01T10:30:08.000Z</time>
      </trkpt>
      <trkpt lat="42.84379" lon="0.50342">
        <ele>1668</ele>
        <time>2020-02-01T10:30:09.000Z</time>
      </trkpt>
      <trkpt lat="42.84379" lon="0.50342">
        <ele>1668</ele>
        <time>2020-02-01T10:30:10.000Z</time>
      </trkpt>
      <trkpt lat="42.84379" lon="0.50341">
        <ele>1668</ele>
        <time>2020-02-01T10:30:11.000Z</time>
      </trkpt>
      <trkpt lat="42.8438" lon="0.50341">
        <ele>1668</ele>
        <time>2020-02-01T10:30:12.000Z</time>
      </trkpt>
      <trkpt lat="42.8438" lon="0.5034">
        <ele>1668</ele>
        <time>2020-02-01T10:30:13.000Z</time>
      </trkpt>
      <trkpt lat="42.8438" lon="0.5034">
        <ele>1668</ele>
        <time>2020-02-01T10:30:14.000Z</time>
      </trkpt>
      <trkpt lat="42.8438" lon="0.50339">
        <ele>1668</ele>
        <time>2020-02-01T10:30:15.000Z</time>
      </trkpt>
      <trkpt lat="42.8438" lon="0.50339">
        <ele>1668</ele>
        <time>2020-02-01T10:30:16.000Z</time>
      </trkpt>
      <trkpt lat="42.8438" lon="0.50338">
        <ele>1668</ele>
        <time>2020-02-01T10:30:17.000Z</time>
      </trkpt>
      <trkpt lat="42.8438" lon="0.50338">
        <ele>1668</ele>
        <time>2020-02-01T10:30:18.000Z</time>
      </trkpt>
      <trkpt lat="42.8438" lon="0.50338">
        <ele>1668</ele>
        <time>2020-02-01T10:30:19.000Z</time>
      </trkpt>
      <trkpt lat="42.8438" lon="0.50337">
        <ele>1668</ele>
        <time>2020-02-01T10:30:20.000Z</time>
      </trkpt>
      <trkpt lat="42.8438" lon="0.50337">
        <ele>1668</ele>
        <time>2020-02-01T10:30:21.000Z</time>
      </trkpt>
      <trkpt lat="42.8438" lon="0.50337">
        <ele>1668</ele>
        <time>2020-02-01T10:30:22.000Z</time>
      </trkpt>
      <trkpt lat="42.8438" lon="0.50337">
        <ele>1668</ele>
        <time>2020-02-01T10:30:23.000Z</time>
      </trkpt>
      <trkpt lat="42.8438" lon="0.50337">
        <ele>1668</ele>
        <time>2020-02-01T10:30:24.000Z</time>
      </trkpt>
      <trkpt lat="42.8438" lon="0.50338">
        <ele>1668</ele>
        <time>2020-02-01T10:30:25.000Z</time>
      </trkpt>
      <trkpt lat="42.8438" lon="0.50338">
        <ele>1668</ele>
        <time>2020-02-01T10:30:26.000Z</time>
      </trkpt>
      <trkpt lat="42.8438" lon="0.50338">
        <ele>1668</ele>
        <time>2020-02-01T10:30:27.000Z</time>
      </trkpt>
      <trkpt lat="42.8438" lon="0.50338">
        <ele>1668</ele>
        <time>2020-02-01T10:30:28.000Z</time>
      </trkpt>
      <trkpt lat="42.8438" lon="0.50338">
        <ele>1668</ele>
        <time>2020-02-01T10:30:29.000Z</time>
      </trkpt>
      <trkpt lat="42.8438" lon="0.50338">
        <ele>1668</ele>
        <time>2020-02-01T10:30:30.000Z</time>
      </trkpt>
      <trkpt lat="42.8438" lon="0.50337">
        <ele>1669</ele>
        <time>2020-02-01T10:30:59.000Z</time>
      </trkpt>
      <trkpt lat="42.8438" lon="0.50337">
        <ele>1669</ele>
        <time>2020-02-01T10:31:00.000Z</time>
      </trkpt>
      <trkpt lat="42.8438" lon="0.50336">
        <ele>1669</ele>
        <time>2020-02-01T10:31:01.000Z</time>
      </trkpt>
      <trkpt lat="42.8438" lon="0.50335">
        <ele>1668</ele>
        <time>2020-02-01T10:31:02.000Z</time>
      </trkpt>
      <trkpt lat="42.84381" lon="0.50334">
        <ele>1668</ele>
        <time>2020-02-01T10:31:03.000Z</time>
      </trkpt>
      <trkpt lat="42.84381" lon="0.50333">
        <ele>1668</ele>
        <time>2020-02-01T10:31:04.000Z</time>
      </trkpt>
      <trkpt lat="42.84381" lon="0.50332">
        <ele>1668</ele>
        <time>2020-02-01T10:31:05.000Z</time>
      </trkpt>
      <trkpt lat="42.84381" lon="0.50331">
        <ele>1668</ele>
        <time>2020-02-01T10:31:06.000Z</time>
      </trkpt>
      <trkpt lat="42.84382" lon="0.50331">
        <ele>1668</ele>
        <time>2020-02-01T10:31:07.000Z</time>
      </trkpt>
      <trkpt lat="42.84382" lon="0.50331">
        <ele>1668</ele>
        <time>2020-02-01T10:31:08.000Z</time>
      </trkpt>
      <trkpt lat="42.84382" lon="0.50331">
        <ele>1668</ele>
        <time>2020-02-01T10:31:09.000Z</time>
      </trkpt>
      <trkpt lat="42.84382" lon="0.50331">
        <ele>1668</ele>
        <time>2020-02-01T10:31:10.000Z</time>
      </trkpt>
      <trkpt lat="42.84382" lon="0.5033">
        <ele>1668</ele>
        <time>2020-02-01T10:31:11.000Z</time>
      </trkpt>
      <trkpt lat="42.84382" lon="0.50329">
        <ele>1668</ele>
        <time>2020-02-01T10:31:12.000Z</time>
      </trkpt>
      <trkpt lat="42.84383" lon="0.50328">
        <ele>1668</ele>
        <time>2020-02-01T10:31:13.000Z</time>
      </trkpt>
      <trkpt lat="42.84383" lon="0.50327">
        <ele>1668</ele>
        <time>2020-02-01T10:31:14.000Z</time>
      </trkpt>
      <trkpt lat="42.84383" lon="0.50326">
        <ele>1668</ele>
        <time>2020-02-01T10:31:15.000Z</time>
      </trkpt>
      <trkpt lat="42.84383" lon="0.50325">
        <ele>1668</ele>
        <time>2020-02-01T10:31:16.000Z</time>
      </trkpt>
      <trkpt lat="42.84384" lon="0.50324">
        <ele>1668</ele>
        <time>2020-02-01T10:31:17.000Z</time>
      </trkpt>
      <trkpt lat="42.84384" lon="0.50324">
        <ele>1668</ele>
        <time>2020-02-01T10:31:18.000Z</time>
      </trkpt>
      <trkpt lat="42.84384" lon="0.50324">
        <ele>1668</ele>
        <time>2020-02-01T10:31:28.000Z</time>
      </trkpt>
      <trkpt lat="42.84384" lon="0.50323">
        <ele>1668</ele>
        <time>2020-02-01T10:31:29.000Z</time>
      </trkpt>
      <trkpt lat="42.84384" lon="0.50323">
        <ele>1668</ele>
        <time>2020-02-01T10:31:30.000Z</time>
      </trkpt>
      <trkpt lat="42.84384" lon="0.50324">
        <ele>1668</ele>
        <time>2020-02-01T10:31:31.000Z</time>
      </trkpt>
      <trkpt lat="42.84384" lon="0.50324">
        <ele>1668</ele>
        <time>2020-02-01T10:31:32.000Z</time>
      </trkpt>
      <trkpt lat="42.84384" lon="0.50324">
        <ele>1668</ele>
        <time>2020-02-01T10:31:33.000Z</time>
      </trkpt>
      <trkpt lat="42.84384" lon="0.50324">
        <ele>1668</ele>
        <time>2020-02-01T10:31:34.000Z</time>
      </trkpt>
      <trkpt lat="42.84384" lon="0.50324">
        <ele>1668</ele>
        <time>2020-02-01T10:31:35.000Z</time>
      </trkpt>
      <trkpt lat="42.84384" lon="0.50324">
        <ele>1668</ele>
        <time>2020-02-01T10:31:36.000Z</time>
      </trkpt>
      <trkpt lat="42.84384" lon="0.50324">
        <ele>1668</ele>
        <time>2020-02-01T10:31:37.000Z</time>
      </trkpt>
      <trkpt lat="42.84384" lon="0.50324">
        <ele>1668</ele>
        <time>2020-02-01T10:31:38.000Z</time>
      </trkpt>
      <trkpt lat="42.84384" lon="0.50324">
        <ele>1668</ele>
        <time>2020-02-01T10:31:39.000Z</time>
      </trkpt>
      <trkpt lat="42.84385" lon="0.50323">
        <ele>1668</ele>
        <time>2020-02-01T10:31:40.000Z</time>
      </trkpt>
      <trkpt lat="42.84385" lon="0.50323">
        <ele>1668</ele>
        <time>2020-02-01T10:31:41.000Z</time>
      </trkpt>
      <trkpt lat="42.84385" lon="0.50323">
        <ele>1668</ele>
        <time>2020-02-01T10:31:42.000Z</time>
      </trkpt>
      <trkpt lat="42.84385" lon="0.50323">
        <ele>1668</ele>
        <time>2020-02-01T10:31:43.000Z</time>
      </trkpt>
      <trkpt lat="42.84386" lon="0.50323">
        <ele>1668</ele>
        <time>2020-02-01T10:31:44.000Z</time>
      </trkpt>
      <trkpt lat="42.84386" lon="0.50323">
        <ele>1668</ele>
        <time>2020-02-01T10:31:45.000Z</time>
      </trkpt>
      <trkpt lat="42.84386" lon="0.50324">
        <ele>1668</ele>
        <time>2020-02-01T10:31:46.000Z</time>
      </trkpt>
      <trkpt lat="42.84386" lon="0.50325">
        <ele>1668</ele>
        <time>2020-02-01T10:31:47.000Z</time>
      </trkpt>
      <trkpt lat="42.84386" lon="0.50326">
        <ele>1668</ele>
        <time>2020-02-01T10:31:48.000Z</time>
      </trkpt>
      <trkpt lat="42.84386" lon="0.50327">
        <ele>1668</ele>
        <time>2020-02-01T10:31:49.000Z</time>
      </trkpt>
      <trkpt lat="42.84385" lon="0.50329">
        <ele>1668</ele>
        <time>2020-02-01T10:31:50.000Z</time>
      </trkpt>
      <trkpt lat="42.84385" lon="0.50331">
        <ele>1668</ele>
        <time>2020-02-01T10:31:51.000Z</time>
      </trkpt>
      <trkpt lat="42.84384" lon="0.50332">
        <ele>1668</ele>
        <time>2020-02-01T10:31:52.000Z</time>
      </trkpt>
      <trkpt lat="42.84384" lon="0.50334">
        <ele>1668</ele>
        <time>2020-02-01T10:31:53.000Z</time>
      </trkpt>
      <trkpt lat="42.84383" lon="0.50335">
        <ele>1668</ele>
        <time>2020-02-01T10:31:54.000Z</time>
      </trkpt>
      <trkpt lat="42.84383" lon="0.50336">
        <ele>1668</ele>
        <time>2020-02-01T10:31:55.000Z</time>
      </trkpt>
      <trkpt lat="42.84382" lon="0.50336">
        <ele>1668</ele>
        <time>2020-02-01T10:31:56.000Z</time>
      </trkpt>
      <trkpt lat="42.84382" lon="0.50335">
        <ele>1668</ele>
        <time>2020-02-01T10:31:57.000Z</time>
      </trkpt>
      <trkpt lat="42.84382" lon="0.50335">
        <ele>1668</ele>
        <time>2020-02-01T10:31:58.000Z</time>
      </trkpt>
      <trkpt lat="42.84382" lon="0.50334">
        <ele>1668</ele>
        <time>2020-02-01T10:31:59.000Z</time>
      </trkpt>
      <trkpt lat="42.84382" lon="0.50333">
        <ele>1668</ele>
        <time>2020-02-01T10:32:00.000Z</time>
      </trkpt>
      <trkpt lat="42.84382" lon="0.50331">
        <ele>1668</ele>
        <time>2020-02-01T10:32:01.000Z</time>
      </trkpt>
      <trkpt lat="42.84382" lon="0.5033">
        <ele>1668</ele>
        <time>2020-02-01T10:32:02.000Z</time>
      </trkpt>
      <trkpt lat="42.84382" lon="0.5033">
        <ele>1668</ele>
        <time>2020-02-01T10:32:03.000Z</time>
      </trkpt>
      <trkpt lat="42.84382" lon="0.50329">
        <ele>1668</ele>
        <time>2020-02-01T10:32:04.000Z</time>
      </trkpt>
      <trkpt lat="42.84382" lon="0.50329">
        <ele>1668</ele>
        <time>2020-02-01T10:32:05.000Z</time>
      </trkpt>
      <trkpt lat="42.84382" lon="0.50329">
        <ele>1668</ele>
        <time>2020-02-01T10:32:06.000Z</time>
      </trkpt>
      <trkpt lat="42.84382" lon="0.50329">
        <ele>1668</ele>
        <time>2020-02-01T10:32:07.000Z</time>
      </trkpt>
      <trkpt lat="42.84382" lon="0.50329">
        <ele>1668</ele>
        <time>2020-02-01T10:32:08.000Z</time>
      </trkpt>
      <trkpt lat="42.84382" lon="0.50329">
        <ele>1668</ele>
        <time>2020-02-01T10:32:09.000Z</time>
      </trkpt>
      <trkpt lat="42.84381" lon="0.50329">
        <ele>1668</ele>
        <time>2020-02-01T10:32:10.000Z</time>
      </trkpt>
      <trkpt lat="42.8438" lon="0.5033">
        <ele>1668</ele>
        <time>2020-02-01T10:32:11.000Z</time>
      </trkpt>
      <trkpt lat="42.84379" lon="0.50332">
        <ele>1668</ele>
        <time>2020-02-01T10:32:12.000Z</time>
      </trkpt>
      <trkpt lat="42.84379" lon="0.50333">
        <ele>1668</ele>
        <time>2020-02-01T10:32:13.000Z</time>
      </trkpt>
      <trkpt lat="42.84379" lon="0.50333">
        <ele>1668</ele>
        <time>2020-02-01T10:32:14.000Z</time>
      </trkpt>
      <trkpt lat="42.84379" lon="0.50333">
        <ele>1668</ele>
        <time>2020-02-01T10:32:15.000Z</time>
      </trkpt>
      <trkpt lat="42.84379" lon="0.50333">
        <ele>1668</ele>
        <time>2020-02-01T10:32:16.000Z</time>
      </trkpt>
      <trkpt lat="42.8438" lon="0.50333">
        <ele>1668</ele>
        <time>2020-02-01T10:32:17.000Z</time>
      </trkpt>
      <trkpt lat="42.8438" lon="0.50333">
        <ele>1668</ele>
        <time>2020-02-01T10:32:18.000Z</time>
      </trkpt>
      <trkpt lat="42.8438" lon="0.50333">
        <ele>1668</ele>
        <time>2020-02-01T10:32:19.000Z</time>
      </trkpt>
      <trkpt lat="42.8438" lon="0.50333">
        <ele>1668</ele>
        <time>2020-02-01T10:32:20.000Z</time>
      </trkpt>
      <trkpt lat="42.8438" lon="0.50334">
        <ele>1668</ele>
        <time>2020-02-01T10:32:21.000Z</time>
      </trkpt>
      <trkpt lat="42.8438" lon="0.50335">
        <ele>1668</ele>
        <time>2020-02-01T10:32:22.000Z</time>
      </trkpt>
      <trkpt lat="42.8438" lon="0.50336">
        <ele>1668</ele>
        <time>2020-02-01T10:32:23.000Z</time>
      </trkpt>
      <trkpt lat="42.84379" lon="0.50337">
        <ele>1668</ele>
        <time>2020-02-01T10:32:24.000Z</time>
      </trkpt>
      <trkpt lat="42.84379" lon="0.50338">
        <ele>1669</ele>
        <time>2020-02-01T10:32:25.000Z</time>
      </trkpt>
      <trkpt lat="42.84378" lon="0.50339">
        <ele>1669</ele>
        <time>2020-02-01T10:32:26.000Z</time>
      </trkpt>
      <trkpt lat="42.84377" lon="0.50341">
        <ele>1669</ele>
        <time>2020-02-01T10:32:27.000Z</time>
      </trkpt>
      <trkpt lat="42.84376" lon="0.50342">
        <ele>1669</ele>
        <time>2020-02-01T10:32:28.000Z</time>
      </trkpt>
      <trkpt lat="42.84375" lon="0.50343">
        <ele>1669</ele>
        <time>2020-02-01T10:32:29.000Z</time>
      </trkpt>
      <trkpt lat="42.84374" lon="0.50344">
        <ele>1669</ele>
        <time>2020-02-01T10:32:30.000Z</time>
      </trkpt>
      <trkpt lat="42.84373" lon="0.50345">
        <ele>1669</ele>
        <time>2020-02-01T10:32:31.000Z</time>
      </trkpt>
      <trkpt lat="42.84372" lon="0.50345">
        <ele>1669</ele>
        <time>2020-02-01T10:32:32.000Z</time>
      </trkpt>
      <trkpt lat="42.84372" lon="0.50345">
        <ele>1669</ele>
        <time>2020-02-01T10:32:33.000Z</time>
      </trkpt>
      <trkpt lat="42.84372" lon="0.50345">
        <ele>1669</ele>
        <time>2020-02-01T10:32:34.000Z</time>
      </trkpt>
      <trkpt lat="42.84371" lon="0.50344">
        <ele>1669</ele>
        <time>2020-02-01T10:32:35.000Z</time>
      </trkpt>
      <trkpt lat="42.84372" lon="0.50343">
        <ele>1669</ele>
        <time>2020-02-01T10:32:36.000Z</time>
      </trkpt>
      <trkpt lat="42.84372" lon="0.50343">
        <ele>1668</ele>
        <time>2020-02-01T10:32:37.000Z</time>
      </trkpt>
      <trkpt lat="42.84372" lon="0.50342">
        <ele>1668</ele>
        <time>2020-02-01T10:32:38.000Z</time>
      </trkpt>
      <trkpt lat="42.84372" lon="0.50341">
        <ele>1668</ele>
        <time>2020-02-01T10:32:39.000Z</time>
      </trkpt>
      <trkpt lat="42.84373" lon="0.5034">
        <ele>1668</ele>
        <time>2020-02-01T10:32:40.000Z</time>
      </trkpt>
      <trkpt lat="42.84373" lon="0.50339">
        <ele>1668</ele>
        <time>2020-02-01T10:32:41.000Z</time>
      </trkpt>
      <trkpt lat="42.84373" lon="0.50338">
        <ele>1668</ele>
        <time>2020-02-01T10:32:42.000Z</time>
      </trkpt>
      <trkpt lat="42.84374" lon="0.50337">
        <ele>1668</ele>
        <time>2020-02-01T10:32:43.000Z</time>
      </trkpt>
      <trkpt lat="42.84374" lon="0.50336">
        <ele>1668</ele>
        <time>2020-02-01T10:32:44.000Z</time>
      </trkpt>
      <trkpt lat="42.84374" lon="0.50335">
        <ele>1668</ele>
        <time>2020-02-01T10:32:45.000Z</time>
      </trkpt>
      <trkpt lat="42.84375" lon="0.50335">
        <ele>1668</ele>
        <time>2020-02-01T10:32:46.000Z</time>
      </trkpt>
      <trkpt lat="42.84375" lon="0.50334">
        <ele>1668</ele>
        <time>2020-02-01T10:32:47.000Z</time>
      </trkpt>
      <trkpt lat="42.84375" lon="0.50334">
        <ele>1668</ele>
        <time>2020-02-01T10:32:48.000Z</time>
      </trkpt>
      <trkpt lat="42.84375" lon="0.50334">
        <ele>1668</ele>
        <time>2020-02-01T10:32:49.000Z</time>
      </trkpt>
      <trkpt lat="42.84375" lon="0.50333">
        <ele>1668</ele>
        <time>2020-02-01T10:32:50.000Z</time>
      </trkpt>
      <trkpt lat="42.84375" lon="0.50333">
        <ele>1668</ele>
        <time>2020-02-01T10:32:51.000Z</time>
      </trkpt>
      <trkpt lat="42.84375" lon="0.50333">
        <ele>1668</ele>
        <time>2020-02-01T10:32:52.000Z</time>
      </trkpt>
      <trkpt lat="42.84375" lon="0.50333">
        <ele>1668</ele>
        <time>2020-02-01T10:32:53.000Z</time>
      </trkpt>
      <trkpt lat="42.84375" lon="0.50333">
        <ele>1668</ele>
        <time>2020-02-01T10:32:54.000Z</time>
      </trkpt>
      <trkpt lat="42.84375" lon="0.50333">
        <ele>1668</ele>
        <time>2020-02-01T10:32:55.000Z</time>
      </trkpt>
      <trkpt lat="42.84376" lon="0.50332">
        <ele>1668</ele>
        <time>2020-02-01T10:32:56.000Z</time>
      </trkpt>
      <trkpt lat="42.84376" lon="0.50331">
        <ele>1668</ele>
        <time>2020-02-01T10:32:57.000Z</time>
      </trkpt>
      <trkpt lat="42.84377" lon="0.50329">
        <ele>1668</ele>
        <time>2020-02-01T10:32:58.000Z</time>
      </trkpt>
      <trkpt lat="42.84378" lon="0.50328">
        <ele>1668</ele>
        <time>2020-02-01T10:32:59.000Z</time>
      </trkpt>
      <trkpt lat="42.84379" lon="0.50326">
        <ele>1668</ele>
        <time>2020-02-01T10:33:00.000Z</time>
      </trkpt>
      <trkpt lat="42.84379" lon="0.50325">
        <ele>1668</ele>
        <time>2020-02-01T10:33:01.000Z</time>
      </trkpt>
      <trkpt lat="42.8438" lon="0.50324">
        <ele>1668</ele>
        <time>2020-02-01T10:33:02.000Z</time>
      </trkpt>
      <trkpt lat="42.8438" lon="0.50323">
        <ele>1668</ele>
        <time>2020-02-01T10:33:03.000Z</time>
      </trkpt>
      <trkpt lat="42.8438" lon="0.50322">
        <ele>1668</ele>
        <time>2020-02-01T10:33:04.000Z</time>
      </trkpt>
      <trkpt lat="42.84381" lon="0.50322">
        <ele>1668</ele>
        <time>2020-02-01T10:33:05.000Z</time>
      </trkpt>
      <trkpt lat="42.84381" lon="0.50322">
        <ele>1668</ele>
        <time>2020-02-01T10:33:06.000Z</time>
      </trkpt>
      <trkpt lat="42.84381" lon="0.50321">
        <ele>1668</ele>
        <time>2020-02-01T10:33:07.000Z</time>
      </trkpt>
      <trkpt lat="42.84381" lon="0.50321">
        <ele>1668</ele>
        <time>2020-02-01T10:33:08.000Z</time>
      </trkpt>
      <trkpt lat="42.84381" lon="0.50321">
        <ele>1668</ele>
        <time>2020-02-01T10:33:09.000Z</time>
      </trkpt>
      <trkpt lat="42.84381" lon="0.50321">
        <ele>1668</ele>
        <time>2020-02-01T10:33:10.000Z</time>
      </trkpt>
      <trkpt lat="42.84381" lon="0.50321">
        <ele>1668</ele>
        <time>2020-02-01T10:33:11.000Z</time>
      </trkpt>
      <trkpt lat="42.84381" lon="0.50321">
        <ele>1668</ele>
        <time>2020-02-01T10:33:12.000Z</time>
      </trkpt>
      <trkpt lat="42.84381" lon="0.50321">
        <ele>1668</ele>
        <time>2020-02-01T10:33:13.000Z</time>
      </trkpt>
      <trkpt lat="42.84381" lon="0.50321">
        <ele>1668</ele>
        <time>2020-02-01T10:33:14.000Z</time>
      </trkpt>
      <trkpt lat="42.84381" lon="0.50321">
        <ele>1668</ele>
        <time>2020-02-01T10:33:15.000Z</time>
      </trkpt>
      <trkpt lat="42.84381" lon="0.50321">
        <ele>1668</ele>
        <time>2020-02-01T10:33:16.000Z</time>
      </trkpt>
      <trkpt lat="42.84381" lon="0.50321">
        <ele>1668</ele>
        <time>2020-02-01T10:33:17.000Z</time>
      </trkpt>
      <trkpt lat="42.84381" lon="0.50321">
        <ele>1668</ele>
        <time>2020-02-01T10:33:18.000Z</time>
      </trkpt>
      <trkpt lat="42.84381" lon="0.50321">
        <ele>1668</ele>
        <time>2020-02-01T10:33:19.000Z</time>
      </trkpt>
      <trkpt lat="42.84381" lon="0.50321">
        <ele>1668</ele>
        <time>2020-02-01T10:33:20.000Z</time>
      </trkpt>
      <trkpt lat="42.84381" lon="0.50321">
        <ele>1668</ele>
        <time>2020-02-01T10:33:21.000Z</time>
      </trkpt>
      <trkpt lat="42.84381" lon="0.50321">
        <ele>1668</ele>
        <time>2020-02-01T10:33:22.000Z</time>
      </trkpt>
      <trkpt lat="42.84381" lon="0.50321">
        <ele>1668</ele>
        <time>2020-02-01T10:33:23.000Z</time>
      </trkpt>
      <trkpt lat="42.84381" lon="0.50321">
        <ele>1668</ele>
        <time>2020-02-01T10:33:24.000Z</time>
      </trkpt>
      <trkpt lat="42.84381" lon="0.50321">
        <ele>1668</ele>
        <time>2020-02-01T10:33:25.000Z</time>
      </trkpt>
      <trkpt lat="42.84381" lon="0.50321">
        <ele>1668</ele>
        <time>2020-02-01T10:33:26.000Z</time>
      </trkpt>
      <trkpt lat="42.84381" lon="0.50321">
        <ele>1668</ele>
        <time>2020-02-01T10:33:27.000Z</time>
      </trkpt>
      <trkpt lat="42.84381" lon="0.50321">
        <ele>1668</ele>
        <time>2020-02-01T10:33:28.000Z</time>
      </trkpt>
      <trkpt lat="42.84381" lon="0.50321">
        <ele>1668</ele>
        <time>2020-02-01T10:33:29.000Z</time>
      </trkpt>
      <trkpt lat="42.84382" lon="0.50321">
        <ele>1668</ele>
        <time>2020-02-01T10:33:30.000Z</time>
      </trkpt>
      <trkpt lat="42.84382" lon="0.50321">
        <ele>1668</ele>
        <time>2020-02-01T10:33:31.000Z</time>
      </trkpt>
      <trkpt lat="42.84382" lon="0.50321">
        <ele>1668</ele>
        <time>2020-02-01T10:33:32.000Z</time>
      </trkpt>
      <trkpt lat="42.84383" lon="0.50321">
        <ele>1668</ele>
        <time>2020-02-01T10:33:33.000Z</time>
      </trkpt>
      <trkpt lat="42.84383" lon="0.5032">
        <ele>1668</ele>
        <time>2020-02-01T10:33:34.000Z</time>
      </trkpt>
      <trkpt lat="42.84383" lon="0.5032">
        <ele>1668</ele>
        <time>2020-02-01T10:33:39.000Z</time>
      </trkpt>
      <trkpt lat="42.84383" lon="0.5032">
        <ele>1668</ele>
        <time>2020-02-01T10:33:40.000Z</time>
      </trkpt>
      <trkpt lat="42.84383" lon="0.5032">
        <ele>1668</ele>
        <time>2020-02-01T10:33:41.000Z</time>
      </trkpt>
      <trkpt lat="42.84383" lon="0.5032">
        <ele>1668</ele>
        <time>2020-02-01T10:33:42.000Z</time>
      </trkpt>
      <trkpt lat="42.84384" lon="0.5032">
        <ele>1668</ele>
        <time>2020-02-01T10:33:43.000Z</time>
      </trkpt>
      <trkpt lat="42.84384" lon="0.5032">
        <ele>1668</ele>
        <time>2020-02-01T10:33:44.000Z</time>
      </trkpt>
      <trkpt lat="42.84385" lon="0.50319">
        <ele>1668</ele>
        <time>2020-02-01T10:33:45.000Z</time>
      </trkpt>
      <trkpt lat="42.84385" lon="0.50319">
        <ele>1668</ele>
        <time>2020-02-01T10:33:46.000Z</time>
      </trkpt>
      <trkpt lat="42.84385" lon="0.50319">
        <ele>1668</ele>
        <time>2020-02-01T10:33:47.000Z</time>
      </trkpt>
      <trkpt lat="42.84386" lon="0.50319">
        <ele>1668</ele>
        <time>2020-02-01T10:33:48.000Z</time>
      </trkpt>
      <trkpt lat="42.84386" lon="0.50319">
        <ele>1668</ele>
        <time>2020-02-01T10:33:49.000Z</time>
      </trkpt>
      <trkpt lat="42.84386" lon="0.50319">
        <ele>1668</ele>
        <time>2020-02-01T10:33:50.000Z</time>
      </trkpt>
      <trkpt lat="42.84386" lon="0.50319">
        <ele>1668</ele>
        <time>2020-02-01T10:33:51.000Z</time>
      </trkpt>
      <trkpt lat="42.84386" lon="0.50319">
        <ele>1668</ele>
        <time>2020-02-01T10:33:52.000Z</time>
      </trkpt>
      <trkpt lat="42.84386" lon="0.50319">
        <ele>1668</ele>
        <time>2020-02-01T10:33:53.000Z</time>
      </trkpt>
      <trkpt lat="42.84385" lon="0.50319">
        <ele>1668</ele>
        <time>2020-02-01T10:33:54.000Z</time>
      </trkpt>
      <trkpt lat="42.84385" lon="0.50319">
        <ele>1667</ele>
        <time>2020-02-01T10:33:55.000Z</time>
      </trkpt>
      <trkpt lat="42.84385" lon="0.5032">
        <ele>1668</ele>
        <time>2020-02-01T10:33:56.000Z</time>
      </trkpt>
      <trkpt lat="42.84384" lon="0.5032">
        <ele>1667</ele>
        <time>2020-02-01T10:33:57.000Z</time>
      </trkpt>
      <trkpt lat="42.84384" lon="0.50321">
        <ele>1668</ele>
        <time>2020-02-01T10:33:58.000Z</time>
      </trkpt>
      <trkpt lat="42.84384" lon="0.50322">
        <ele>1668</ele>
        <time>2020-02-01T10:33:59.000Z</time>
      </trkpt>
      <trkpt lat="42.84384" lon="0.50322">
        <ele>1668</ele>
        <time>2020-02-01T10:34:00.000Z</time>
      </trkpt>
      <trkpt lat="42.84383" lon="0.50323">
        <ele>1668</ele>
        <time>2020-02-01T10:34:01.000Z</time>
      </trkpt>
      <trkpt lat="42.84383" lon="0.50323">
        <ele>1667</ele>
        <time>2020-02-01T10:34:02.000Z</time>
      </trkpt>
      <trkpt lat="42.84383" lon="0.50324">
        <ele>1667</ele>
        <time>2020-02-01T10:34:03.000Z</time>
      </trkpt>
      <trkpt lat="42.84383" lon="0.50324">
        <ele>1667</ele>
        <time>2020-02-01T10:34:04.000Z</time>
      </trkpt>
      <trkpt lat="42.84383" lon="0.50325">
        <ele>1667</ele>
        <time>2020-02-01T10:34:05.000Z</time>
      </trkpt>
      <trkpt lat="42.84384" lon="0.50325">
        <ele>1667</ele>
        <time>2020-02-01T10:34:06.000Z</time>
      </trkpt>
      <trkpt lat="42.84384" lon="0.50326">
        <ele>1667</ele>
        <time>2020-02-01T10:34:07.000Z</time>
      </trkpt>
      <trkpt lat="42.84384" lon="0.50326">
        <ele>1667</ele>
        <time>2020-02-01T10:34:08.000Z</time>
      </trkpt>
      <trkpt lat="42.84385" lon="0.50326">
        <ele>1667</ele>
        <time>2020-02-01T10:34:09.000Z</time>
      </trkpt>
      <trkpt lat="42.84385" lon="0.50327">
        <ele>1667</ele>
        <time>2020-02-01T10:34:10.000Z</time>
      </trkpt>
      <trkpt lat="42.84385" lon="0.50327">
        <ele>1667</ele>
        <time>2020-02-01T10:34:11.000Z</time>
      </trkpt>
      <trkpt lat="42.84386" lon="0.50327">
        <ele>1667</ele>
        <time>2020-02-01T10:34:12.000Z</time>
      </trkpt>
      <trkpt lat="42.84386" lon="0.50327">
        <ele>1667</ele>
        <time>2020-02-01T10:34:13.000Z</time>
      </trkpt>
      <trkpt lat="42.84386" lon="0.50328">
        <ele>1667</ele>
        <time>2020-02-01T10:34:14.000Z</time>
      </trkpt>
      <trkpt lat="42.84386" lon="0.50328">
        <ele>1667</ele>
        <time>2020-02-01T10:34:15.000Z</time>
      </trkpt>
      <trkpt lat="42.84386" lon="0.50328">
        <ele>1667</ele>
        <time>2020-02-01T10:34:16.000Z</time>
      </trkpt>
      <trkpt lat="42.84386" lon="0.50329">
        <ele>1667</ele>
        <time>2020-02-01T10:34:17.000Z</time>
      </trkpt>
      <trkpt lat="42.84386" lon="0.50329">
        <ele>1667</ele>
        <time>2020-02-01T10:34:18.000Z</time>
      </trkpt>
      <trkpt lat="42.84386" lon="0.5033">
        <ele>1667</ele>
        <time>2020-02-01T10:34:19.000Z</time>
      </trkpt>
      <trkpt lat="42.84386" lon="0.50331">
        <ele>1667</ele>
        <time>2020-02-01T10:34:20.000Z</time>
      </trkpt>
      <trkpt lat="42.84385" lon="0.50332">
        <ele>1668</ele>
        <time>2020-02-01T10:34:21.000Z</time>
      </trkpt>
      <trkpt lat="42.84385" lon="0.50332">
        <ele>1668</ele>
        <time>2020-02-01T10:34:22.000Z</time>
      </trkpt>
      <trkpt lat="42.84384" lon="0.50334">
        <ele>1668</ele>
        <time>2020-02-01T10:34:23.000Z</time>
      </trkpt>
      <trkpt lat="42.84383" lon="0.50335">
        <ele>1668</ele>
        <time>2020-02-01T10:34:24.000Z</time>
      </trkpt>
      <trkpt lat="42.84382" lon="0.50336">
        <ele>1668</ele>
        <time>2020-02-01T10:34:25.000Z</time>
      </trkpt>
      <trkpt lat="42.84381" lon="0.50337">
        <ele>1668</ele>
        <time>2020-02-01T10:34:26.000Z</time>
      </trkpt>
      <trkpt lat="42.8438" lon="0.50338">
        <ele>1668</ele>
        <time>2020-02-01T10:34:27.000Z</time>
      </trkpt>
      <trkpt lat="42.84379" lon="0.50339">
        <ele>1668</ele>
        <time>2020-02-01T10:34:28.000Z</time>
      </trkpt>
      <trkpt lat="42.84378" lon="0.5034">
        <ele>1668</ele>
        <time>2020-02-01T10:34:29.000Z</time>
      </trkpt>
      <trkpt lat="42.84377" lon="0.5034">
        <ele>1668</ele>
        <time>2020-02-01T10:34:30.000Z</time>
      </trkpt>
      <trkpt lat="42.84376" lon="0.50341">
        <ele>1668</ele>
        <time>2020-02-01T10:34:31.000Z</time>
      </trkpt>
      <trkpt lat="42.84375" lon="0.50341">
        <ele>1668</ele>
        <time>2020-02-01T10:34:32.000Z</time>
      </trkpt>
      <trkpt lat="42.84375" lon="0.50341">
        <ele>1668</ele>
        <time>2020-02-01T10:34:33.000Z</time>
      </trkpt>
      <trkpt lat="42.84374" lon="0.50341">
        <ele>1668</ele>
        <time>2020-02-01T10:34:34.000Z</time>
      </trkpt>
      <trkpt lat="42.84373" lon="0.50341">
        <ele>1668</ele>
        <time>2020-02-01T10:34:35.000Z</time>
      </trkpt>
      <trkpt lat="42.84373" lon="0.50342">
        <ele>1668</ele>
        <time>2020-02-01T10:34:36.000Z</time>
      </trkpt>
      <trkpt lat="42.84373" lon="0.50344">
        <ele>1668</ele>
        <time>2020-02-01T10:34:37.000Z</time>
      </trkpt>
      <trkpt lat="42.84374" lon="0.50346">
        <ele>1667</ele>
        <time>2020-02-01T10:35:13.000Z</time>
      </trkpt>
      <trkpt lat="42.84374" lon="0.50346">
        <ele>1667</ele>
        <time>2020-02-01T10:35:14.000Z</time>
      </trkpt>
      <trkpt lat="42.84374" lon="0.50346">
        <ele>1667</ele>
        <time>2020-02-01T10:35:15.000Z</time>
      </trkpt>
      <trkpt lat="42.84374" lon="0.50347">
        <ele>1667</ele>
        <time>2020-02-01T10:35:16.000Z</time>
      </trkpt>
      <trkpt lat="42.84373" lon="0.50347">
        <ele>1667</ele>
        <time>2020-02-01T10:35:17.000Z</time>
      </trkpt>
      <trkpt lat="42.84373" lon="0.50347">
        <ele>1667</ele>
        <time>2020-02-01T10:35:18.000Z</time>
      </trkpt>
      <trkpt lat="42.84373" lon="0.50348">
        <ele>1667</ele>
        <time>2020-02-01T10:35:19.000Z</time>
      </trkpt>
      <trkpt lat="42.84373" lon="0.50348">
        <ele>1667</ele>
        <time>2020-02-01T10:35:20.000Z</time>
      </trkpt>
      <trkpt lat="42.84373" lon="0.50348">
        <ele>1667</ele>
        <time>2020-02-01T10:35:21.000Z</time>
      </trkpt>
      <trkpt lat="42.84372" lon="0.50348">
        <ele>1667</ele>
        <time>2020-02-01T10:35:22.000Z</time>
      </trkpt>
      <trkpt lat="42.84372" lon="0.50348">
        <ele>1667</ele>
        <time>2020-02-01T10:35:23.000Z</time>
      </trkpt>
      <trkpt lat="42.84372" lon="0.50348">
        <ele>1667</ele>
        <time>2020-02-01T10:35:24.000Z</time>
      </trkpt>
      <trkpt lat="42.84372" lon="0.50348">
        <ele>1667</ele>
        <time>2020-02-01T10:35:25.000Z</time>
      </trkpt>
      <trkpt lat="42.84372" lon="0.50348">
        <ele>1667</ele>
        <time>2020-02-01T10:35:26.000Z</time>
      </trkpt>
      <trkpt lat="42.84372" lon="0.50348">
        <ele>1667</ele>
        <time>2020-02-01T10:35:27.000Z</time>
      </trkpt>
      <trkpt lat="42.84371" lon="0.50348">
        <ele>1667</ele>
        <time>2020-02-01T10:35:28.000Z</time>
      </trkpt>
      <trkpt lat="42.84371" lon="0.50348">
        <ele>1667</ele>
        <time>2020-02-01T10:35:29.000Z</time>
      </trkpt>
      <trkpt lat="42.84372" lon="0.50348">
        <ele>1667</ele>
        <time>2020-02-01T10:35:30.000Z</time>
      </trkpt>
      <trkpt lat="42.84372" lon="0.50348">
        <ele>1667</ele>
        <time>2020-02-01T10:35:31.000Z</time>
      </trkpt>
      <trkpt lat="42.84372" lon="0.50348">
        <ele>1667</ele>
        <time>2020-02-01T10:35:32.000Z</time>
      </trkpt>
      <trkpt lat="42.84372" lon="0.50348">
        <ele>1667</ele>
        <time>2020-02-01T10:35:33.000Z</time>
      </trkpt>
      <trkpt lat="42.84372" lon="0.50348">
        <ele>1667</ele>
        <time>2020-02-01T10:35:34.000Z</time>
      </trkpt>
      <trkpt lat="42.84372" lon="0.50348">
        <ele>1667</ele>
        <time>2020-02-01T10:35:35.000Z</time>
      </trkpt>
      <trkpt lat="42.84372" lon="0.50348">
        <ele>1667</ele>
        <time>2020-02-01T10:35:36.000Z</time>
      </trkpt>
      <trkpt lat="42.84372" lon="0.50348">
        <ele>1667</ele>
        <time>2020-02-01T10:35:37.000Z</time>
      </trkpt>
      <trkpt lat="42.84372" lon="0.50348">
        <ele>1667</ele>
        <time>2020-02-01T10:35:38.000Z</time>
      </trkpt>
      <trkpt lat="42.84372" lon="0.50348">
        <ele>1667</ele>
        <time>2020-02-01T10:35:39.000Z</time>
      </trkpt>
      <trkpt lat="42.84372" lon="0.50348">
        <ele>1667</ele>
        <time>2020-02-01T10:35:40.000Z</time>
      </trkpt>
      <trkpt lat="42.84372" lon="0.50348">
        <ele>1667</ele>
        <time>2020-02-01T10:35:41.000Z</time>
      </trkpt>
      <trkpt lat="42.84373" lon="0.50347">
        <ele>1667</ele>
        <time>2020-02-01T10:35:42.000Z</time>
      </trkpt>
      <trkpt lat="42.84374" lon="0.50347">
        <ele>1667</ele>
        <time>2020-02-01T10:35:43.000Z</time>
      </trkpt>
      <trkpt lat="42.84375" lon="0.50346">
        <ele>1667</ele>
        <time>2020-02-01T10:35:44.000Z</time>
      </trkpt>
      <trkpt lat="42.84375" lon="0.50345">
        <ele>1667</ele>
        <time>2020-02-01T10:35:45.000Z</time>
      </trkpt>
      <trkpt lat="42.84376" lon="0.50345">
        <ele>1667</ele>
        <time>2020-02-01T10:35:46.000Z</time>
      </trkpt>
      <trkpt lat="42.84376" lon="0.50344">
        <ele>1667</ele>
        <time>2020-02-01T10:35:47.000Z</time>
      </trkpt>
      <trkpt lat="42.84377" lon="0.50344">
        <ele>1667</ele>
        <time>2020-02-01T10:35:48.000Z</time>
      </trkpt>
      <trkpt lat="42.84377" lon="0.50344">
        <ele>1667</ele>
        <time>2020-02-01T10:35:49.000Z</time>
      </trkpt>
      <trkpt lat="42.84377" lon="0.50344">
        <ele>1667</ele>
        <time>2020-02-01T10:35:50.000Z</time>
      </trkpt>
      <trkpt lat="42.84377" lon="0.50344">
        <ele>1667</ele>
        <time>2020-02-01T10:35:51.000Z</time>
      </trkpt>
      <trkpt lat="42.84377" lon="0.50344">
        <ele>1667</ele>
        <time>2020-02-01T10:35:52.000Z</time>
      </trkpt>
      <trkpt lat="42.84377" lon="0.50344">
        <ele>1667</ele>
        <time>2020-02-01T10:35:53.000Z</time>
      </trkpt>
      <trkpt lat="42.84377" lon="0.50344">
        <ele>1667</ele>
        <time>2020-02-01T10:35:54.000Z</time>
      </trkpt>
      <trkpt lat="42.84377" lon="0.50344">
        <ele>1667</ele>
        <time>2020-02-01T10:35:55.000Z</time>
      </trkpt>
      <trkpt lat="42.84377" lon="0.50344">
        <ele>1667</ele>
        <time>2020-02-01T10:35:56.000Z</time>
      </trkpt>
      <trkpt lat="42.84377" lon="0.50344">
        <ele>1667</ele>
        <time>2020-02-01T10:35:57.000Z</time>
      </trkpt>
      <trkpt lat="42.84377" lon="0.50344">
        <ele>1667</ele>
        <time>2020-02-01T10:35:58.000Z</time>
      </trkpt>
      <trkpt lat="42.84377" lon="0.50344">
        <ele>1667</ele>
        <time>2020-02-01T10:35:59.000Z</time>
      </trkpt>
      <trkpt lat="42.84377" lon="0.50344">
        <ele>1667</ele>
        <time>2020-02-01T10:36:00.000Z</time>
      </trkpt>
      <trkpt lat="42.84377" lon="0.50344">
        <ele>1667</ele>
        <time>2020-02-01T10:36:01.000Z</time>
      </trkpt>
      <trkpt lat="42.84377" lon="0.50344">
        <ele>1667</ele>
        <time>2020-02-01T10:36:02.000Z</time>
      </trkpt>
      <trkpt lat="42.84377" lon="0.50344">
        <ele>1667</ele>
        <time>2020-02-01T10:36:03.000Z</time>
      </trkpt>
      <trkpt lat="42.84377" lon="0.50344">
        <ele>1667</ele>
        <time>2020-02-01T10:36:04.000Z</time>
      </trkpt>
      <trkpt lat="42.84377" lon="0.50344">
        <ele>1667</ele>
        <time>2020-02-01T10:36:05.000Z</time>
      </trkpt>
      <trkpt lat="42.84377" lon="0.50344">
        <ele>1667</ele>
        <time>2020-02-01T10:36:06.000Z</time>
      </trkpt>
      <trkpt lat="42.84377" lon="0.50344">
        <ele>1667</ele>
        <time>2020-02-01T10:36:07.000Z</time>
      </trkpt>
      <trkpt lat="42.84377" lon="0.50344">
        <ele>1667</ele>
        <time>2020-02-01T10:36:08.000Z</time>
      </trkpt>
      <trkpt lat="42.84377" lon="0.50344">
        <ele>1667</ele>
        <time>2020-02-01T10:36:09.000Z</time>
      </trkpt>
      <trkpt lat="42.84377" lon="0.50344">
        <ele>1667</ele>
        <time>2020-02-01T10:36:10.000Z</time>
      </trkpt>
      <trkpt lat="42.84377" lon="0.50344">
        <ele>1667</ele>
        <time>2020-02-01T10:36:11.000Z</time>
      </trkpt>
      <trkpt lat="42.84377" lon="0.50344">
        <ele>1667</ele>
        <time>2020-02-01T10:36:12.000Z</time>
      </trkpt>
      <trkpt lat="42.84377" lon="0.50344">
        <ele>1667</ele>
        <time>2020-02-01T10:36:13.000Z</time>
      </trkpt>
      <trkpt lat="42.84377" lon="0.50344">
        <ele>1667</ele>
        <time>2020-02-01T10:36:14.000Z</time>
      </trkpt>
      <trkpt lat="42.84377" lon="0.50344">
        <ele>1667</ele>
        <time>2020-02-01T10:36:15.000Z</time>
      </trkpt>
      <trkpt lat="42.84377" lon="0.50344">
        <ele>1667</ele>
        <time>2020-02-01T10:36:16.000Z</time>
      </trkpt>
      <trkpt lat="42.84377" lon="0.50344">
        <ele>1667</ele>
        <time>2020-02-01T10:36:17.000Z</time>
      </trkpt>
      <trkpt lat="42.84377" lon="0.50344">
        <ele>1667</ele>
        <time>2020-02-01T10:36:18.000Z</time>
      </trkpt>
      <trkpt lat="42.84377" lon="0.50344">
        <ele>1667</ele>
        <time>2020-02-01T10:36:19.000Z</time>
      </trkpt>
      <trkpt lat="42.84377" lon="0.50344">
        <ele>1667</ele>
        <time>2020-02-01T10:36:20.000Z</time>
      </trkpt>
      <trkpt lat="42.84377" lon="0.50344">
        <ele>1667</ele>
        <time>2020-02-01T10:36:21.000Z</time>
      </trkpt>
      <trkpt lat="42.84378" lon="0.50344">
        <ele>1667</ele>
        <time>2020-02-01T10:36:22.000Z</time>
      </trkpt>
      <trkpt lat="42.84378" lon="0.50344">
        <ele>1667</ele>
        <time>2020-02-01T10:36:23.000Z</time>
      </trkpt>
      <trkpt lat="42.84378" lon="0.50344">
        <ele>1667</ele>
        <time>2020-02-01T10:36:24.000Z</time>
      </trkpt>
      <trkpt lat="42.84378" lon="0.50344">
        <ele>1667</ele>
        <time>2020-02-01T10:36:25.000Z</time>
      </trkpt>
      <trkpt lat="42.84378" lon="0.50344">
        <ele>1667</ele>
        <time>2020-02-01T10:36:26.000Z</time>
      </trkpt>
      <trkpt lat="42.84378" lon="0.50345">
        <ele>1667</ele>
        <time>2020-02-01T10:36:27.000Z</time>
      </trkpt>
      <trkpt lat="42.84378" lon="0.50345">
        <ele>1667</ele>
        <time>2020-02-01T10:36:28.000Z</time>
      </trkpt>
      <trkpt lat="42.84378" lon="0.50345">
        <ele>1667</ele>
        <time>2020-02-01T10:36:29.000Z</time>
      </trkpt>
      <trkpt lat="42.84378" lon="0.50345">
        <ele>1667</ele>
        <time>2020-02-01T10:36:30.000Z</time>
      </trkpt>
      <trkpt lat="42.84378" lon="0.50346">
        <ele>1667</ele>
        <time>2020-02-01T10:36:31.000Z</time>
      </trkpt>
      <trkpt lat="42.84378" lon="0.50346">
        <ele>1667</ele>
        <time>2020-02-01T10:36:32.000Z</time>
      </trkpt>
      <trkpt lat="42.84379" lon="0.50346">
        <ele>1667</ele>
        <time>2020-02-01T10:36:33.000Z</time>
      </trkpt>
      <trkpt lat="42.84379" lon="0.50347">
        <ele>1667</ele>
        <time>2020-02-01T10:36:34.000Z</time>
      </trkpt>
      <trkpt lat="42.84379" lon="0.50347">
        <ele>1667</ele>
        <time>2020-02-01T10:36:35.000Z</time>
      </trkpt>
      <trkpt lat="42.84379" lon="0.50348">
        <ele>1667</ele>
        <time>2020-02-01T10:36:36.000Z</time>
      </trkpt>
      <trkpt lat="42.84378" lon="0.50348">
        <ele>1667</ele>
        <time>2020-02-01T10:36:37.000Z</time>
      </trkpt>
      <trkpt lat="42.84378" lon="0.50348">
        <ele>1667</ele>
        <time>2020-02-01T10:36:38.000Z</time>
      </trkpt>
      <trkpt lat="42.84378" lon="0.50349">
        <ele>1667</ele>
        <time>2020-02-01T10:36:45.000Z</time>
      </trkpt>
      <trkpt lat="42.84377" lon="0.50349">
        <ele>1667</ele>
        <time>2020-02-01T10:36:46.000Z</time>
      </trkpt>
      <trkpt lat="42.84377" lon="0.50348">
        <ele>1667</ele>
        <time>2020-02-01T10:36:47.000Z</time>
      </trkpt>
      <trkpt lat="42.84377" lon="0.50347">
        <ele>1667</ele>
        <time>2020-02-01T10:36:48.000Z</time>
      </trkpt>
      <trkpt lat="42.84376" lon="0.50348">
        <ele>1667</ele>
        <time>2020-02-01T10:36:49.000Z</time>
      </trkpt>
      <trkpt lat="42.84376" lon="0.50351">
        <ele>1667</ele>
        <time>2020-02-01T10:36:50.000Z</time>
      </trkpt>
      <trkpt lat="42.84375" lon="0.50358">
        <ele>1667</ele>
        <time>2020-02-01T10:36:51.000Z</time>
      </trkpt>
      <trkpt lat="42.84374" lon="0.50365">
        <ele>1667</ele>
        <time>2020-02-01T10:36:52.000Z</time>
      </trkpt>
      <trkpt lat="42.84373" lon="0.50369">
        <ele>1667</ele>
        <time>2020-02-01T10:36:53.000Z</time>
      </trkpt>
      <trkpt lat="42.84373" lon="0.5037">
        <ele>1667</ele>
        <time>2020-02-01T10:36:54.000Z</time>
      </trkpt>
      <trkpt lat="42.84372" lon="0.50371">
        <ele>1667</ele>
        <time>2020-02-01T10:37:09.000Z</time>
      </trkpt>
      <trkpt lat="42.84372" lon="0.50371">
        <ele>1667</ele>
        <time>2020-02-01T10:37:10.000Z</time>
      </trkpt>
      <trkpt lat="42.84372" lon="0.50371">
        <ele>1667</ele>
        <time>2020-02-01T10:37:11.000Z</time>
      </trkpt>
      <trkpt lat="42.84372" lon="0.50371">
        <ele>1667</ele>
        <time>2020-02-01T10:37:12.000Z</time>
      </trkpt>
      <trkpt lat="42.84372" lon="0.50371">
        <ele>1667</ele>
        <time>2020-02-01T10:37:13.000Z</time>
      </trkpt>
      <trkpt lat="42.84372" lon="0.50371">
        <ele>1667</ele>
        <time>2020-02-01T10:37:14.000Z</time>
      </trkpt>
      <trkpt lat="42.84372" lon="0.50371">
        <ele>1667</ele>
        <time>2020-02-01T10:37:15.000Z</time>
      </trkpt>
      <trkpt lat="42.84372" lon="0.50371">
        <ele>1667</ele>
        <time>2020-02-01T10:37:16.000Z</time>
      </trkpt>
      <trkpt lat="42.84372" lon="0.50371">
        <ele>1667</ele>
        <time>2020-02-01T10:37:17.000Z</time>
      </trkpt>
      <trkpt lat="42.84372" lon="0.50371">
        <ele>1667</ele>
        <time>2020-02-01T10:37:18.000Z</time>
      </trkpt>
      <trkpt lat="42.84372" lon="0.50371">
        <ele>1667</ele>
        <time>2020-02-01T10:37:19.000Z</time>
      </trkpt>
      <trkpt lat="42.84372" lon="0.50371">
        <ele>1667</ele>
        <time>2020-02-01T10:37:20.000Z</time>
      </trkpt>
      <trkpt lat="42.84372" lon="0.50371">
        <ele>1667</ele>
        <time>2020-02-01T10:37:21.000Z</time>
      </trkpt>
      <trkpt lat="42.84372" lon="0.5037">
        <ele>1667</ele>
        <time>2020-02-01T10:37:22.000Z</time>
      </trkpt>
      <trkpt lat="42.84372" lon="0.50369">
        <ele>1667</ele>
        <time>2020-02-01T10:37:23.000Z</time>
      </trkpt>
      <trkpt lat="42.84371" lon="0.50367">
        <ele>1667</ele>
        <time>2020-02-01T10:37:24.000Z</time>
      </trkpt>
      <trkpt lat="42.84371" lon="0.50364">
        <ele>1667</ele>
        <time>2020-02-01T10:37:40.000Z</time>
      </trkpt>
      <trkpt lat="42.8437" lon="0.5036">
        <ele>1667</ele>
        <time>2020-02-01T10:37:41.000Z</time>
      </trkpt>
      <trkpt lat="42.8437" lon="0.50358">
        <ele>1667</ele>
        <time>2020-02-01T10:37:42.000Z</time>
      </trkpt>
      <trkpt lat="42.84371" lon="0.50355">
        <ele>1667</ele>
        <time>2020-02-01T10:37:43.000Z</time>
      </trkpt>
      <trkpt lat="42.84371" lon="0.50354">
        <ele>1667</ele>
        <time>2020-02-01T10:37:44.000Z</time>
      </trkpt>
      <trkpt lat="42.84371" lon="0.50352">
        <ele>1668</ele>
        <time>2020-02-01T10:37:45.000Z</time>
      </trkpt>
      <trkpt lat="42.84372" lon="0.50351">
        <ele>1667</ele>
        <time>2020-02-01T10:37:46.000Z</time>
      </trkpt>
      <trkpt lat="42.84372" lon="0.50351">
        <ele>1667</ele>
        <time>2020-02-01T10:37:47.000Z</time>
      </trkpt>
      <trkpt lat="42.84372" lon="0.5035">
        <ele>1667</ele>
        <time>2020-02-01T10:37:48.000Z</time>
      </trkpt>
      <trkpt lat="42.84372" lon="0.5035">
        <ele>1667</ele>
        <time>2020-02-01T10:37:49.000Z</time>
      </trkpt>
      <trkpt lat="42.84372" lon="0.5035">
        <ele>1667</ele>
        <time>2020-02-01T10:37:50.000Z</time>
      </trkpt>
      <trkpt lat="42.84372" lon="0.5035">
        <ele>1667</ele>
        <time>2020-02-01T10:37:51.000Z</time>
      </trkpt>
      <trkpt lat="42.84372" lon="0.5035">
        <ele>1667</ele>
        <time>2020-02-01T10:37:52.000Z</time>
      </trkpt>
      <trkpt lat="42.84372" lon="0.5035">
        <ele>1667</ele>
        <time>2020-02-01T10:37:53.000Z</time>
      </trkpt>
      <trkpt lat="42.84372" lon="0.5035">
        <ele>1667</ele>
        <time>2020-02-01T10:37:54.000Z</time>
      </trkpt>
      <trkpt lat="42.84372" lon="0.50349">
        <ele>1667</ele>
        <time>2020-02-01T10:37:55.000Z</time>
      </trkpt>
      <trkpt lat="42.84372" lon="0.50349">
        <ele>1667</ele>
        <time>2020-02-01T10:37:56.000Z</time>
      </trkpt>
      <trkpt lat="42.84372" lon="0.50348">
        <ele>1667</ele>
        <time>2020-02-01T10:37:57.000Z</time>
      </trkpt>
      <trkpt lat="42.84372" lon="0.50347">
        <ele>1667</ele>
        <time>2020-02-01T10:37:58.000Z</time>
      </trkpt>
      <trkpt lat="42.84373" lon="0.50346">
        <ele>1667</ele>
        <time>2020-02-01T10:37:59.000Z</time>
      </trkpt>
      <trkpt lat="42.84373" lon="0.50345">
        <ele>1667</ele>
        <time>2020-02-01T10:38:00.000Z</time>
      </trkpt>
      <trkpt lat="42.84373" lon="0.50344">
        <ele>1667</ele>
        <time>2020-02-01T10:38:01.000Z</time>
      </trkpt>
      <trkpt lat="42.84373" lon="0.50343">
        <ele>1667</ele>
        <time>2020-02-01T10:38:02.000Z</time>
      </trkpt>
      <trkpt lat="42.84374" lon="0.50342">
        <ele>1667</ele>
        <time>2020-02-01T10:38:03.000Z</time>
      </trkpt>
      <trkpt lat="42.84374" lon="0.50341">
        <ele>1667</ele>
        <time>2020-02-01T10:38:04.000Z</time>
      </trkpt>
      <trkpt lat="42.84374" lon="0.5034">
        <ele>1667</ele>
        <time>2020-02-01T10:38:05.000Z</time>
      </trkpt>
      <trkpt lat="42.84375" lon="0.5034">
        <ele>1667</ele>
        <time>2020-02-01T10:38:06.000Z</time>
      </trkpt>
      <trkpt lat="42.84375" lon="0.50339">
        <ele>1667</ele>
        <time>2020-02-01T10:38:07.000Z</time>
      </trkpt>
      <trkpt lat="42.84376" lon="0.50338">
        <ele>1667</ele>
        <time>2020-02-01T10:38:08.000Z</time>
      </trkpt>
      <trkpt lat="42.84376" lon="0.50338">
        <ele>1666</ele>
        <time>2020-02-01T10:38:09.000Z</time>
      </trkpt>
      <trkpt lat="42.84376" lon="0.50338">
        <ele>1666</ele>
        <time>2020-02-01T10:38:10.000Z</time>
      </trkpt>
      <trkpt lat="42.84377" lon="0.50338">
        <ele>1666</ele>
        <time>2020-02-01T10:38:11.000Z</time>
      </trkpt>
      <trkpt lat="42.84377" lon="0.50337">
        <ele>1666</ele>
        <time>2020-02-01T10:38:12.000Z</time>
      </trkpt>
      <trkpt lat="42.84378" lon="0.50337">
        <ele>1667</ele>
        <time>2020-02-01T10:38:13.000Z</time>
      </trkpt>
      <trkpt lat="42.84378" lon="0.50337">
        <ele>1667</ele>
        <time>2020-02-01T10:38:14.000Z</time>
      </trkpt>
      <trkpt lat="42.84378" lon="0.50337">
        <ele>1667</ele>
        <time>2020-02-01T10:38:15.000Z</time>
      </trkpt>
      <trkpt lat="42.84378" lon="0.50337">
        <ele>1667</ele>
        <time>2020-02-01T10:38:16.000Z</time>
      </trkpt>
      <trkpt lat="42.84378" lon="0.50337">
        <ele>1667</ele>
        <time>2020-02-01T10:38:17.000Z</time>
      </trkpt>
      <trkpt lat="42.84378" lon="0.50338">
        <ele>1667</ele>
        <time>2020-02-01T10:38:18.000Z</time>
      </trkpt>
      <trkpt lat="42.84378" lon="0.50338">
        <ele>1667</ele>
        <time>2020-02-01T10:38:19.000Z</time>
      </trkpt>
      <trkpt lat="42.84378" lon="0.50338">
        <ele>1667</ele>
        <time>2020-02-01T10:38:20.000Z</time>
      </trkpt>
      <trkpt lat="42.84378" lon="0.50339">
        <ele>1667</ele>
        <time>2020-02-01T10:38:21.000Z</time>
      </trkpt>
      <trkpt lat="42.84378" lon="0.50339">
        <ele>1667</ele>
        <time>2020-02-01T10:38:22.000Z</time>
      </trkpt>
      <trkpt lat="42.84378" lon="0.5034">
        <ele>1667</ele>
        <time>2020-02-01T10:38:23.000Z</time>
      </trkpt>
      <trkpt lat="42.84377" lon="0.50341">
        <ele>1666</ele>
        <time>2020-02-01T10:38:24.000Z</time>
      </trkpt>
      <trkpt lat="42.84377" lon="0.50341">
        <ele>1666</ele>
        <time>2020-02-01T10:38:25.000Z</time>
      </trkpt>
      <trkpt lat="42.84377" lon="0.50342">
        <ele>1666</ele>
        <time>2020-02-01T10:38:26.000Z</time>
      </trkpt>
      <trkpt lat="42.84376" lon="0.50342">
        <ele>1666</ele>
        <time>2020-02-01T10:38:27.000Z</time>
      </trkpt>
      <trkpt lat="42.84376" lon="0.50343">
        <ele>1666</ele>
        <time>2020-02-01T10:38:28.000Z</time>
      </trkpt>
      <trkpt lat="42.84376" lon="0.50343">
        <ele>1666</ele>
        <time>2020-02-01T10:38:29.000Z</time>
      </trkpt>
      <trkpt lat="42.84376" lon="0.50343">
        <ele>1666</ele>
        <time>2020-02-01T10:38:30.000Z</time>
      </trkpt>
      <trkpt lat="42.84376" lon="0.50343">
        <ele>1667</ele>
        <time>2020-02-01T10:38:31.000Z</time>
      </trkpt>
      <trkpt lat="42.84376" lon="0.50343">
        <ele>1666</ele>
        <time>2020-02-01T10:38:32.000Z</time>
      </trkpt>
      <trkpt lat="42.84376" lon="0.50343">
        <ele>1667</ele>
        <time>2020-02-01T10:38:33.000Z</time>
      </trkpt>
      <trkpt lat="42.84376" lon="0.50343">
        <ele>1667</ele>
        <time>2020-02-01T10:38:34.000Z</time>
      </trkpt>
      <trkpt lat="42.84376" lon="0.50343">
        <ele>1667</ele>
        <time>2020-02-01T10:38:35.000Z</time>
      </trkpt>
      <trkpt lat="42.84376" lon="0.50344">
        <ele>1666</ele>
        <time>2020-02-01T10:38:36.000Z</time>
      </trkpt>
      <trkpt lat="42.84376" lon="0.50345">
        <ele>1666</ele>
        <time>2020-02-01T10:38:37.000Z</time>
      </trkpt>
      <trkpt lat="42.84375" lon="0.50345">
        <ele>1666</ele>
        <time>2020-02-01T10:38:38.000Z</time>
      </trkpt>
      <trkpt lat="42.84374" lon="0.50345">
        <ele>1666</ele>
        <time>2020-02-01T10:38:39.000Z</time>
      </trkpt>
      <trkpt lat="42.84374" lon="0.50344">
        <ele>1666</ele>
        <time>2020-02-01T10:38:40.000Z</time>
      </trkpt>
      <trkpt lat="42.84373" lon="0.50344">
        <ele>1666</ele>
        <time>2020-02-01T10:38:41.000Z</time>
      </trkpt>
      <trkpt lat="42.84373" lon="0.50344">
        <ele>1666</ele>
        <time>2020-02-01T10:38:42.000Z</time>
      </trkpt>
      <trkpt lat="42.84373" lon="0.50343">
        <ele>1666.5</ele>
        <time>2020-02-01T10:38:43.000Z</time>
      </trkpt>
      <trkpt lat="42.84373" lon="0.50343">
        <ele>1667</ele>
        <time>2020-02-01T10:38:44.000Z</time>
      </trkpt>
      <trkpt lat="42.84373" lon="0.50343">
        <ele>1667</ele>
        <time>2020-02-01T10:38:45.000Z</time>
      </trkpt>
      <trkpt lat="42.84373" lon="0.50343">
        <ele>1667</ele>
        <time>2020-02-01T10:38:46.000Z</time>
      </trkpt>
      <trkpt lat="42.84372" lon="0.50343">
        <ele>1667</ele>
        <time>2020-02-01T10:38:47.000Z</time>
      </trkpt>
      <trkpt lat="42.84372" lon="0.50343">
        <ele>1667</ele>
        <time>2020-02-01T10:38:48.000Z</time>
      </trkpt>
      <trkpt lat="42.84372" lon="0.50343">
        <ele>1667</ele>
        <time>2020-02-01T10:38:49.000Z</time>
      </trkpt>
      <trkpt lat="42.84373" lon="0.50343">
        <ele>1667</ele>
        <time>2020-02-01T10:38:50.000Z</time>
      </trkpt>
      <trkpt lat="42.84373" lon="0.50343">
        <ele>1668</ele>
        <time>2020-02-01T10:38:51.000Z</time>
      </trkpt>
      <trkpt lat="42.84373" lon="0.50343">
        <ele>1667.5</ele>
        <time>2020-02-01T10:38:52.000Z</time>
      </trkpt>
      <trkpt lat="42.84373" lon="0.50342">
        <ele>1667</ele>
        <time>2020-02-01T10:38:53.000Z</time>
      </trkpt>
      <trkpt lat="42.84374" lon="0.50342">
        <ele>1667</ele>
        <time>2020-02-01T10:38:54.000Z</time>
      </trkpt>
      <trkpt lat="42.84374" lon="0.50342">
        <ele>1667</ele>
        <time>2020-02-01T10:38:55.000Z</time>
      </trkpt>
      <trkpt lat="42.84374" lon="0.50342">
        <ele>1667</ele>
        <time>2020-02-01T10:38:56.000Z</time>
      </trkpt>
      <trkpt lat="42.84374" lon="0.50342">
        <ele>1667</ele>
        <time>2020-02-01T10:38:57.000Z</time>
      </trkpt>
      <trkpt lat="42.84374" lon="0.50342">
        <ele>1667</ele>
        <time>2020-02-01T10:38:58.000Z</time>
      </trkpt>
      <trkpt lat="42.84375" lon="0.50342">
        <ele>1667</ele>
        <time>2020-02-01T10:38:59.000Z</time>
      </trkpt>
      <trkpt lat="42.84375" lon="0.50342">
        <ele>1667</ele>
        <time>2020-02-01T10:39:00.000Z</time>
      </trkpt>
      <trkpt lat="42.84375" lon="0.50342">
        <ele>1667</ele>
        <time>2020-02-01T10:39:01.000Z</time>
      </trkpt>
      <trkpt lat="42.84375" lon="0.50342">
        <ele>1667</ele>
        <time>2020-02-01T10:39:02.000Z</time>
      </trkpt>
      <trkpt lat="42.84375" lon="0.50342">
        <ele>1667</ele>
        <time>2020-02-01T10:39:03.000Z</time>
      </trkpt>
      <trkpt lat="42.84375" lon="0.50342">
        <ele>1667</ele>
        <time>2020-02-01T10:39:04.000Z</time>
      </trkpt>
      <trkpt lat="42.84375" lon="0.50342">
        <ele>1667</ele>
        <time>2020-02-01T10:39:05.000Z</time>
      </trkpt>
      <trkpt lat="42.84375" lon="0.50342">
        <ele>1667</ele>
        <time>2020-02-01T10:39:06.000Z</time>
      </trkpt>
      <trkpt lat="42.84375" lon="0.50342">
        <ele>1667</ele>
        <time>2020-02-01T10:39:07.000Z</time>
      </trkpt>
      <trkpt lat="42.84375" lon="0.50342">
        <ele>1667</ele>
        <time>2020-02-01T10:39:08.000Z</time>
      </trkpt>
      <trkpt lat="42.84375" lon="0.50342">
        <ele>1667</ele>
        <time>2020-02-01T10:39:09.000Z</time>
      </trkpt>
      <trkpt lat="42.84375" lon="0.50342">
        <ele>1667</ele>
        <time>2020-02-01T10:39:10.000Z</time>
      </trkpt>
      <trkpt lat="42.84375" lon="0.50342">
        <ele>1667</ele>
        <time>2020-02-01T10:39:11.000Z</time>
      </trkpt>
      <trkpt lat="42.84375" lon="0.50342">
        <ele>1667</ele>
        <time>2020-02-01T10:39:12.000Z</time>
      </trkpt>
      <trkpt lat="42.84375" lon="0.50342">
        <ele>1667.5</ele>
        <time>2020-02-01T10:39:13.000Z</time>
      </trkpt>
      <trkpt lat="42.84375" lon="0.50342">
        <ele>1668</ele>
        <time>2020-02-01T10:39:14.000Z</time>
      </trkpt>
      <trkpt lat="42.84375" lon="0.50342">
        <ele>1668</ele>
        <time>2020-02-01T10:39:15.000Z</time>
      </trkpt>
      <trkpt lat="42.84375" lon="0.50342">
        <ele>1668</ele>
        <time>2020-02-01T10:39:16.000Z</time>
      </trkpt>
      <trkpt lat="42.84375" lon="0.50342">
        <ele>1668</ele>
        <time>2020-02-01T10:39:17.000Z</time>
      </trkpt>
      <trkpt lat="42.84375" lon="0.50342">
        <ele>1667.7</ele>
        <time>2020-02-01T10:39:18.000Z</time>
      </trkpt>
      <trkpt lat="42.84375" lon="0.50342">
        <ele>1667.3</ele>
        <time>2020-02-01T10:39:19.000Z</time>
      </trkpt>
      <trkpt lat="42.84375" lon="0.50342">
        <ele>1667</ele>
        <time>2020-02-01T10:39:20.000Z</time>
      </trkpt>
      <trkpt lat="42.84376" lon="0.50342">
        <ele>1667</ele>
        <time>2020-02-01T10:39:21.000Z</time>
      </trkpt>
      <trkpt lat="42.84376" lon="0.50343">
        <ele>1667</ele>
        <time>2020-02-01T10:39:22.000Z</time>
      </trkpt>
      <trkpt lat="42.84376" lon="0.50343">
        <ele>1668</ele>
        <time>2020-02-01T10:39:23.000Z</time>
      </trkpt>
      <trkpt lat="42.84377" lon="0.50343">
        <ele>1668</ele>
        <time>2020-02-01T10:39:24.000Z</time>
      </trkpt>
      <trkpt lat="42.84377" lon="0.50344">
        <ele>1668</ele>
        <time>2020-02-01T10:39:25.000Z</time>
      </trkpt>
      <trkpt lat="42.84377" lon="0.50344">
        <ele>1668</ele>
        <time>2020-02-01T10:39:26.000Z</time>
      </trkpt>
      <trkpt lat="42.84378" lon="0.50344">
        <ele>1668</ele>
        <time>2020-02-01T10:39:27.000Z</time>
      </trkpt>
      <trkpt lat="42.84378" lon="0.50345">
        <ele>1668</ele>
        <time>2020-02-01T10:39:28.000Z</time>
      </trkpt>
      <trkpt lat="42.84379" lon="0.50345">
        <ele>1668</ele>
        <time>2020-02-01T10:39:29.000Z</time>
      </trkpt>
      <trkpt lat="42.84379" lon="0.50345">
        <ele>1668</ele>
        <time>2020-02-01T10:39:30.000Z</time>
      </trkpt>
      <trkpt lat="42.8438" lon="0.50345">
        <ele>1668</ele>
        <time>2020-02-01T10:39:31.000Z</time>
      </trkpt>
      <trkpt lat="42.8438" lon="0.50345">
        <ele>1668</ele>
        <time>2020-02-01T10:39:32.000Z</time>
      </trkpt>
      <trkpt lat="42.8438" lon="0.50345">
        <ele>1667</ele>
        <time>2020-02-01T10:39:33.000Z</time>
      </trkpt>
      <trkpt lat="42.84381" lon="0.50345">
        <ele>1667</ele>
        <time>2020-02-01T10:39:34.000Z</time>
      </trkpt>
      <trkpt lat="42.84381" lon="0.50345">
        <ele>1667</ele>
        <time>2020-02-01T10:39:35.000Z</time>
      </trkpt>
      <trkpt lat="42.84381" lon="0.50345">
        <ele>1667</ele>
        <time>2020-02-01T10:39:36.000Z</time>
      </trkpt>
      <trkpt lat="42.84381" lon="0.50344">
        <ele>1667</ele>
        <time>2020-02-01T10:39:37.000Z</time>
      </trkpt>
      <trkpt lat="42.84382" lon="0.50344">
        <ele>1667</ele>
        <time>2020-02-01T10:39:38.000Z</time>
      </trkpt>
      <trkpt lat="42.84382" lon="0.50344">
        <ele>1667</ele>
        <time>2020-02-01T10:39:39.000Z</time>
      </trkpt>
      <trkpt lat="42.84382" lon="0.50344">
        <ele>1667</ele>
        <time>2020-02-01T10:39:40.000Z</time>
      </trkpt>
      <trkpt lat="42.84382" lon="0.50343">
        <ele>1667</ele>
        <time>2020-02-01T10:39:41.000Z</time>
      </trkpt>
      <trkpt lat="42.84382" lon="0.50343">
        <ele>1667</ele>
        <time>2020-02-01T10:39:42.000Z</time>
      </trkpt>
      <trkpt lat="42.84382" lon="0.50343">
        <ele>1667</ele>
        <time>2020-02-01T10:39:43.000Z</time>
      </trkpt>
      <trkpt lat="42.84382" lon="0.50343">
        <ele>1667</ele>
        <time>2020-02-01T10:39:44.000Z</time>
      </trkpt>
      <trkpt lat="42.84382" lon="0.50343">
        <ele>1667</ele>
        <time>2020-02-01T10:39:45.000Z</time>
      </trkpt>
      <trkpt lat="42.84382" lon="0.50343">
        <ele>1667</ele>
        <time>2020-02-01T10:39:46.000Z</time>
      </trkpt>
      <trkpt lat="42.84382" lon="0.50343">
        <ele>1667</ele>
        <time>2020-02-01T10:39:47.000Z</time>
      </trkpt>
      <trkpt lat="42.84382" lon="0.50343">
        <ele>1667</ele>
        <time>2020-02-01T10:39:48.000Z</time>
      </trkpt>
      <trkpt lat="42.84382" lon="0.50343">
        <ele>1667</ele>
        <time>2020-02-01T10:39:49.000Z</time>
      </trkpt>
      <trkpt lat="42.84382" lon="0.50343">
        <ele>1667</ele>
        <time>2020-02-01T10:39:50.000Z</time>
      </trkpt>
      <trkpt lat="42.84382" lon="0.50343">
        <ele>1667</ele>
        <time>2020-02-01T10:39:51.000Z</time>
      </trkpt>
      <trkpt lat="42.84382" lon="0.50343">
        <ele>1667.3</ele>
        <time>2020-02-01T10:39:52.000Z</time>
      </trkpt>
      <trkpt lat="42.84382" lon="0.50343">
        <ele>1667.7</ele>
        <time>2020-02-01T10:39:53.000Z</time>
      </trkpt>
      <trkpt lat="42.84382" lon="0.50343">
        <ele>1668</ele>
        <time>2020-02-01T10:39:54.000Z</time>
      </trkpt>
      <trkpt lat="42.84382" lon="0.50343">
        <ele>1668</ele>
        <time>2020-02-01T10:39:55.000Z</time>
      </trkpt>
      <trkpt lat="42.84382" lon="0.50343">
        <ele>1668</ele>
        <time>2020-02-01T10:39:56.000Z</time>
      </trkpt>
      <trkpt lat="42.84382" lon="0.50343">
        <ele>1668</ele>
        <time>2020-02-01T10:39:57.000Z</time>
      </trkpt>
      <trkpt lat="42.84382" lon="0.50343">
        <ele>1667.7</ele>
        <time>2020-02-01T10:39:58.000Z</time>
      </trkpt>
      <trkpt lat="42.84382" lon="0.50343">
        <ele>1667.3</ele>
        <time>2020-02-01T10:39:59.000Z</time>
      </trkpt>
      <trkpt lat="42.84382" lon="0.50343">
        <ele>1667</ele>
        <time>2020-02-01T10:40:00.000Z</time>
      </trkpt>
      <trkpt lat="42.84382" lon="0.50343">
        <ele>1667</ele>
        <time>2020-02-01T10:40:01.000Z</time>
      </trkpt>
      <trkpt lat="42.84382" lon="0.50343">
        <ele>1667</ele>
        <time>2020-02-01T10:40:02.000Z</time>
      </trkpt>
      <trkpt lat="42.84382" lon="0.50343">
        <ele>1668</ele>
        <time>2020-02-01T10:40:03.000Z</time>
      </trkpt>
      <trkpt lat="42.84382" lon="0.50343">
        <ele>1668</ele>
        <time>2020-02-01T10:40:04.000Z</time>
      </trkpt>
      <trkpt lat="42.84382" lon="0.50343">
        <ele>1668</ele>
        <time>2020-02-01T10:40:05.000Z</time>
      </trkpt>
      <trkpt lat="42.84382" lon="0.50343">
        <ele>1668</ele>
        <time>2020-02-01T10:40:06.000Z</time>
      </trkpt>
      <trkpt lat="42.84382" lon="0.50343">
        <ele>1667.5</ele>
        <time>2020-02-01T10:40:07.000Z</time>
      </trkpt>
      <trkpt lat="42.84382" lon="0.50343">
        <ele>1667</ele>
        <time>2020-02-01T10:40:08.000Z</time>
      </trkpt>
      <trkpt lat="42.84382" lon="0.50343">
        <ele>1667</ele>
        <time>2020-02-01T10:40:09.000Z</time>
      </trkpt>
      <trkpt lat="42.84382" lon="0.50343">
        <ele>1667</ele>
        <time>2020-02-01T10:40:10.000Z</time>
      </trkpt>
      <trkpt lat="42.84381" lon="0.50343">
        <ele>1667</ele>
        <time>2020-02-01T10:40:11.000Z</time>
      </trkpt>
      <trkpt lat="42.84381" lon="0.50343">
        <ele>1667</ele>
        <time>2020-02-01T10:40:12.000Z</time>
      </trkpt>
      <trkpt lat="42.84381" lon="0.50343">
        <ele>1667</ele>
        <time>2020-02-01T10:40:13.000Z</time>
      </trkpt>
      <trkpt lat="42.84381" lon="0.50343">
        <ele>1667</ele>
        <time>2020-02-01T10:40:14.000Z</time>
      </trkpt>
      <trkpt lat="42.84381" lon="0.50343">
        <ele>1667</ele>
        <time>2020-02-01T10:40:15.000Z</time>
      </trkpt>
      <trkpt lat="42.84381" lon="0.50343">
        <ele>1667</ele>
        <time>2020-02-01T10:40:16.000Z</time>
      </trkpt>
      <trkpt lat="42.84381" lon="0.50343">
        <ele>1667</ele>
        <time>2020-02-01T10:40:17.000Z</time>
      </trkpt>
      <trkpt lat="42.84381" lon="0.50343">
        <ele>1667</ele>
        <time>2020-02-01T10:40:18.000Z</time>
      </trkpt>
      <trkpt lat="42.84381" lon="0.50343">
        <ele>1667</ele>
        <time>2020-02-01T10:40:19.000Z</time>
      </trkpt>
      <trkpt lat="42.84381" lon="0.50344">
        <ele>1667</ele>
        <time>2020-02-01T10:40:20.000Z</time>
      </trkpt>
      <trkpt lat="42.84381" lon="0.50344">
        <ele>1667</ele>
        <time>2020-02-01T10:40:21.000Z</time>
      </trkpt>
      <trkpt lat="42.84382" lon="0.50344">
        <ele>1667</ele>
        <time>2020-02-01T10:40:22.000Z</time>
      </trkpt>
      <trkpt lat="42.84382" lon="0.50344">
        <ele>1667</ele>
        <time>2020-02-01T10:40:23.000Z</time>
      </trkpt>
      <trkpt lat="42.84383" lon="0.50345">
        <ele>1667</ele>
        <time>2020-02-01T10:40:24.000Z</time>
      </trkpt>
      <trkpt lat="42.84383" lon="0.50345">
        <ele>1667</ele>
        <time>2020-02-01T10:40:25.000Z</time>
      </trkpt>
      <trkpt lat="42.84383" lon="0.50345">
        <ele>1667</ele>
        <time>2020-02-01T10:40:26.000Z</time>
      </trkpt>
      <trkpt lat="42.84383" lon="0.50345">
        <ele>1667</ele>
        <time>2020-02-01T10:40:27.000Z</time>
      </trkpt>
      <trkpt lat="42.84383" lon="0.50346">
        <ele>1667</ele>
        <time>2020-02-01T10:40:28.000Z</time>
      </trkpt>
      <trkpt lat="42.84382" lon="0.50346">
        <ele>1667</ele>
        <time>2020-02-01T10:40:29.000Z</time>
      </trkpt>
      <trkpt lat="42.84382" lon="0.50346">
        <ele>1667</ele>
        <time>2020-02-01T10:40:30.000Z</time>
      </trkpt>
      <trkpt lat="42.84382" lon="0.50346">
        <ele>1667</ele>
        <time>2020-02-01T10:40:31.000Z</time>
      </trkpt>
      <trkpt lat="42.84381" lon="0.50346">
        <ele>1667</ele>
        <time>2020-02-01T10:40:32.000Z</time>
      </trkpt>
      <trkpt lat="42.84381" lon="0.50346">
        <ele>1666</ele>
        <time>2020-02-01T10:40:33.000Z</time>
      </trkpt>
      <trkpt lat="42.8438" lon="0.50346">
        <ele>1666</ele>
        <time>2020-02-01T10:40:34.000Z</time>
      </trkpt>
      <trkpt lat="42.8438" lon="0.50346">
        <ele>1666</ele>
        <time>2020-02-01T10:40:35.000Z</time>
      </trkpt>
      <trkpt lat="42.84379" lon="0.50345">
        <ele>1666</ele>
        <time>2020-02-01T10:40:36.000Z</time>
      </trkpt>
      <trkpt lat="42.84379" lon="0.50345">
        <ele>1667</ele>
        <time>2020-02-01T10:40:37.000Z</time>
      </trkpt>
      <trkpt lat="42.84379" lon="0.50345">
        <ele>1667</ele>
        <time>2020-02-01T10:40:38.000Z</time>
      </trkpt>
      <trkpt lat="42.84379" lon="0.50345">
        <ele>1667</ele>
        <time>2020-02-01T10:40:39.000Z</time>
      </trkpt>
      <trkpt lat="42.84379" lon="0.50345">
        <ele>1667</ele>
        <time>2020-02-01T10:40:40.000Z</time>
      </trkpt>
      <trkpt lat="42.84379" lon="0.50345">
        <ele>1666</ele>
        <time>2020-02-01T10:40:41.000Z</time>
      </trkpt>
      <trkpt lat="42.84379" lon="0.50345">
        <ele>1666</ele>
        <time>2020-02-01T10:40:42.000Z</time>
      </trkpt>
      <trkpt lat="42.84379" lon="0.50345">
        <ele>1666</ele>
        <time>2020-02-01T10:40:43.000Z</time>
      </trkpt>
      <trkpt lat="42.84379" lon="0.50345">
        <ele>1666</ele>
        <time>2020-02-01T10:40:44.000Z</time>
      </trkpt>
      <trkpt lat="42.84379" lon="0.50345">
        <ele>1666</ele>
        <time>2020-02-01T10:40:45.000Z</time>
      </trkpt>
      <trkpt lat="42.84378" lon="0.50346">
        <ele>1666</ele>
        <time>2020-02-01T10:40:46.000Z</time>
      </trkpt>
      <trkpt lat="42.84378" lon="0.50346">
        <ele>1666</ele>
        <time>2020-02-01T10:40:47.000Z</time>
      </trkpt>
      <trkpt lat="42.84377" lon="0.50346">
        <ele>1666</ele>
        <time>2020-02-01T10:40:48.000Z</time>
      </trkpt>
      <trkpt lat="42.84377" lon="0.50347">
        <ele>1666</ele>
        <time>2020-02-01T10:40:49.000Z</time>
      </trkpt>
      <trkpt lat="42.84376" lon="0.50347">
        <ele>1666</ele>
        <time>2020-02-01T10:40:50.000Z</time>
      </trkpt>
      <trkpt lat="42.84376" lon="0.50347">
        <ele>1666</ele>
        <time>2020-02-01T10:40:51.000Z</time>
      </trkpt>
      <trkpt lat="42.84376" lon="0.50348">
        <ele>1666</ele>
        <time>2020-02-01T10:40:52.000Z</time>
      </trkpt>
      <trkpt lat="42.84376" lon="0.50348">
        <ele>1666</ele>
        <time>2020-02-01T10:40:53.000Z</time>
      </trkpt>
      <trkpt lat="42.84376" lon="0.50348">
        <ele>1666</ele>
        <time>2020-02-01T10:40:54.000Z</time>
      </trkpt>
      <trkpt lat="42.84376" lon="0.50348">
        <ele>1666</ele>
        <time>2020-02-01T10:40:55.000Z</time>
      </trkpt>
      <trkpt lat="42.84376" lon="0.50348">
        <ele>1666</ele>
        <time>2020-02-01T10:40:56.000Z</time>
      </trkpt>
      <trkpt lat="42.84376" lon="0.50348">
        <ele>1666.3</ele>
        <time>2020-02-01T10:40:57.000Z</time>
      </trkpt>
      <trkpt lat="42.84376" lon="0.50348">
        <ele>1666.7</ele>
        <time>2020-02-01T10:40:58.000Z</time>
      </trkpt>
      <trkpt lat="42.84376" lon="0.50348">
        <ele>1667</ele>
        <time>2020-02-01T10:40:59.000Z</time>
      </trkpt>
      <trkpt lat="42.84375" lon="0.50348">
        <ele>1667</ele>
        <time>2020-02-01T10:41:00.000Z</time>
      </trkpt>
      <trkpt lat="42.84375" lon="0.50348">
        <ele>1667</ele>
        <time>2020-02-01T10:41:01.000Z</time>
      </trkpt>
      <trkpt lat="42.84375" lon="0.50348">
        <ele>1667</ele>
        <time>2020-02-01T10:41:02.000Z</time>
      </trkpt>
      <trkpt lat="42.84375" lon="0.50348">
        <ele>1667</ele>
        <time>2020-02-01T10:41:03.000Z</time>
      </trkpt>
      <trkpt lat="42.84375" lon="0.50348">
        <ele>1667</ele>
        <time>2020-02-01T10:41:04.000Z</time>
      </trkpt>
      <trkpt lat="42.84375" lon="0.50348">
        <ele>1667</ele>
        <time>2020-02-01T10:41:05.000Z</time>
      </trkpt>
      <trkpt lat="42.84375" lon="0.50348">
        <ele>1667</ele>
        <time>2020-02-01T10:41:06.000Z</time>
      </trkpt>
      <trkpt lat="42.84375" lon="0.50348">
        <ele>1667</ele>
        <time>2020-02-01T10:41:07.000Z</time>
      </trkpt>
      <trkpt lat="42.84375" lon="0.50348">
        <ele>1667</ele>
        <time>2020-02-01T10:41:08.000Z</time>
      </trkpt>
      <trkpt lat="42.84375" lon="0.50348">
        <ele>1667</ele>
        <time>2020-02-01T10:41:09.000Z</time>
      </trkpt>
      <trkpt lat="42.84375" lon="0.50348">
        <ele>1667</ele>
        <time>2020-02-01T10:41:10.000Z</time>
      </trkpt>
      <trkpt lat="42.84375" lon="0.50348">
        <ele>1667</ele>
        <time>2020-02-01T10:41:11.000Z</time>
      </trkpt>
      <trkpt lat="42.84375" lon="0.50348">
        <ele>1666</ele>
        <time>2020-02-01T10:41:12.000Z</time>
      </trkpt>
      <trkpt lat="42.84375" lon="0.50348">
        <ele>1666</ele>
        <time>2020-02-01T10:41:13.000Z</time>
      </trkpt>
      <trkpt lat="42.84375" lon="0.50348">
        <ele>1666</ele>
        <time>2020-02-01T10:41:14.000Z</time>
      </trkpt>
      <trkpt lat="42.84375" lon="0.50348">
        <ele>1666</ele>
        <time>2020-02-01T10:41:15.000Z</time>
      </trkpt>
      <trkpt lat="42.84375" lon="0.50348">
        <ele>1666</ele>
        <time>2020-02-01T10:41:16.000Z</time>
      </trkpt>
      <trkpt lat="42.84375" lon="0.50348">
        <ele>1666</ele>
        <time>2020-02-01T10:41:17.000Z</time>
      </trkpt>
      <trkpt lat="42.84375" lon="0.50348">
        <ele>1666</ele>
        <time>2020-02-01T10:41:18.000Z</time>
      </trkpt>
      <trkpt lat="42.84375" lon="0.50348">
        <ele>1666</ele>
        <time>2020-02-01T10:41:19.000Z</time>
      </trkpt>
      <trkpt lat="42.84375" lon="0.50348">
        <ele>1666</ele>
        <time>2020-02-01T10:41:20.000Z</time>
      </trkpt>
      <trkpt lat="42.84375" lon="0.50348">
        <ele>1666</ele>
        <time>2020-02-01T10:41:21.000Z</time>
      </trkpt>
      <trkpt lat="42.84375" lon="0.50348">
        <ele>1666</ele>
        <time>2020-02-01T10:41:22.000Z</time>
      </trkpt>
      <trkpt lat="42.84375" lon="0.50347">
        <ele>1666</ele>
        <time>2020-02-01T10:41:23.000Z</time>
      </trkpt>
      <trkpt lat="42.84375" lon="0.50347">
        <ele>1666</ele>
        <time>2020-02-01T10:41:24.000Z</time>
      </trkpt>
      <trkpt lat="42.84374" lon="0.50347">
        <ele>1666</ele>
        <time>2020-02-01T10:41:31.000Z</time>
      </trkpt>
      <trkpt lat="42.84374" lon="0.50346">
        <ele>1666</ele>
        <time>2020-02-01T10:41:32.000Z</time>
      </trkpt>
      <trkpt lat="42.84373" lon="0.50345">
        <ele>1666</ele>
        <time>2020-02-01T10:41:33.000Z</time>
      </trkpt>
      <trkpt lat="42.84373" lon="0.50345">
        <ele>1666</ele>
        <time>2020-02-01T10:41:34.000Z</time>
      </trkpt>
      <trkpt lat="42.84373" lon="0.50344">
        <ele>1666</ele>
        <time>2020-02-01T10:41:35.000Z</time>
      </trkpt>
      <trkpt lat="42.84372" lon="0.50343">
        <ele>1666</ele>
        <time>2020-02-01T10:41:36.000Z</time>
      </trkpt>
      <trkpt lat="42.84372" lon="0.50342">
        <ele>1666</ele>
        <time>2020-02-01T10:41:37.000Z</time>
      </trkpt>
      <trkpt lat="42.84372" lon="0.50341">
        <ele>1666</ele>
        <time>2020-02-01T10:41:38.000Z</time>
      </trkpt>
      <trkpt lat="42.84372" lon="0.5034">
        <ele>1666</ele>
        <time>2020-02-01T10:41:39.000Z</time>
      </trkpt>
      <trkpt lat="42.84372" lon="0.50339">
        <ele>1666</ele>
        <time>2020-02-01T10:41:40.000Z</time>
      </trkpt>
      <trkpt lat="42.84372" lon="0.50338">
        <ele>1666</ele>
        <time>2020-02-01T10:41:41.000Z</time>
      </trkpt>
      <trkpt lat="42.84372" lon="0.50338">
        <ele>1666</ele>
        <time>2020-02-01T10:41:42.000Z</time>
      </trkpt>
      <trkpt lat="42.84372" lon="0.50337">
        <ele>1666</ele>
        <time>2020-02-01T10:41:43.000Z</time>
      </trkpt>
      <trkpt lat="42.84372" lon="0.50336">
        <ele>1666</ele>
        <time>2020-02-01T10:41:44.000Z</time>
      </trkpt>
      <trkpt lat="42.84372" lon="0.50336">
        <ele>1666</ele>
        <time>2020-02-01T10:41:45.000Z</time>
      </trkpt>
      <trkpt lat="42.84372" lon="0.50335">
        <ele>1666</ele>
        <time>2020-02-01T10:41:46.000Z</time>
      </trkpt>
      <trkpt lat="42.84372" lon="0.50335">
        <ele>1666</ele>
        <time>2020-02-01T10:41:47.000Z</time>
      </trkpt>
      <trkpt lat="42.84372" lon="0.50335">
        <ele>1666</ele>
        <time>2020-02-01T10:41:48.000Z</time>
      </trkpt>
      <trkpt lat="42.84372" lon="0.50335">
        <ele>1666</ele>
        <time>2020-02-01T10:41:49.000Z</time>
      </trkpt>
      <trkpt lat="42.84372" lon="0.50335">
        <ele>1666</ele>
        <time>2020-02-01T10:41:50.000Z</time>
      </trkpt>
      <trkpt lat="42.84372" lon="0.50336">
        <ele>1666</ele>
        <time>2020-02-01T10:41:51.000Z</time>
      </trkpt>
      <trkpt lat="42.84372" lon="0.50337">
        <ele>1666</ele>
        <time>2020-02-01T10:41:52.000Z</time>
      </trkpt>
      <trkpt lat="42.84372" lon="0.50338">
        <ele>1666</ele>
        <time>2020-02-01T10:41:53.000Z</time>
      </trkpt>
      <trkpt lat="42.84372" lon="0.50338">
        <ele>1666</ele>
        <time>2020-02-01T10:41:54.000Z</time>
      </trkpt>
      <trkpt lat="42.84372" lon="0.50339">
        <ele>1666</ele>
        <time>2020-02-01T10:41:55.000Z</time>
      </trkpt>
      <trkpt lat="42.84372" lon="0.50341">
        <ele>1666</ele>
        <time>2020-02-01T10:41:56.000Z</time>
      </trkpt>
      <trkpt lat="42.84372" lon="0.50342">
        <ele>1665</ele>
        <time>2020-02-01T10:41:57.000Z</time>
      </trkpt>
      <trkpt lat="42.84373" lon="0.50343">
        <ele>1665</ele>
        <time>2020-02-01T10:41:58.000Z</time>
      </trkpt>
      <trkpt lat="42.84373" lon="0.50344">
        <ele>1665</ele>
        <time>2020-02-01T10:41:59.000Z</time>
      </trkpt>
      <trkpt lat="42.84373" lon="0.50345">
        <ele>1666</ele>
        <time>2020-02-01T10:42:00.000Z</time>
      </trkpt>
      <trkpt lat="42.84374" lon="0.50346">
        <ele>1666</ele>
        <time>2020-02-01T10:42:01.000Z</time>
      </trkpt>
      <trkpt lat="42.84374" lon="0.50346">
        <ele>1666</ele>
        <time>2020-02-01T10:42:02.000Z</time>
      </trkpt>
      <trkpt lat="42.84374" lon="0.50347">
        <ele>1665</ele>
        <time>2020-02-01T10:42:03.000Z</time>
      </trkpt>
      <trkpt lat="42.84374" lon="0.50347">
        <ele>1666</ele>
        <time>2020-02-01T10:42:04.000Z</time>
      </trkpt>
      <trkpt lat="42.84374" lon="0.50347">
        <ele>1666</ele>
        <time>2020-02-01T10:42:05.000Z</time>
      </trkpt>
      <trkpt lat="42.84374" lon="0.50347">
        <ele>1666</ele>
        <time>2020-02-01T10:42:06.000Z</time>
      </trkpt>
      <trkpt lat="42.84374" lon="0.50347">
        <ele>1666</ele>
        <time>2020-02-01T10:42:07.000Z</time>
      </trkpt>
      <trkpt lat="42.84374" lon="0.50347">
        <ele>1666</ele>
        <time>2020-02-01T10:42:08.000Z</time>
      </trkpt>
      <trkpt lat="42.84374" lon="0.50347">
        <ele>1666</ele>
        <time>2020-02-01T10:42:09.000Z</time>
      </trkpt>
      <trkpt lat="42.84374" lon="0.50347">
        <ele>1666</ele>
        <time>2020-02-01T10:42:10.000Z</time>
      </trkpt>
      <trkpt lat="42.84374" lon="0.50347">
        <ele>1666</ele>
        <time>2020-02-01T10:42:11.000Z</time>
      </trkpt>
      <trkpt lat="42.84375" lon="0.50346">
        <ele>1666</ele>
        <time>2020-02-01T10:42:12.000Z</time>
      </trkpt>
      <trkpt lat="42.84375" lon="0.50346">
        <ele>1666</ele>
        <time>2020-02-01T10:42:13.000Z</time>
      </trkpt>
      <trkpt lat="42.84375" lon="0.50345">
        <ele>1666</ele>
        <time>2020-02-01T10:42:14.000Z</time>
      </trkpt>
      <trkpt lat="42.84375" lon="0.50344">
        <ele>1666</ele>
        <time>2020-02-01T10:42:15.000Z</time>
      </trkpt>
      <trkpt lat="42.84375" lon="0.50344">
        <ele>1666</ele>
        <time>2020-02-01T10:42:16.000Z</time>
      </trkpt>
      <trkpt lat="42.84376" lon="0.50343">
        <ele>1666</ele>
        <time>2020-02-01T10:42:17.000Z</time>
      </trkpt>
      <trkpt lat="42.84376" lon="0.50343">
        <ele>1666</ele>
        <time>2020-02-01T10:42:18.000Z</time>
      </trkpt>
      <trkpt lat="42.84376" lon="0.50343">
        <ele>1666</ele>
        <time>2020-02-01T10:42:19.000Z</time>
      </trkpt>
      <trkpt lat="42.84377" lon="0.50343">
        <ele>1666</ele>
        <time>2020-02-01T10:42:20.000Z</time>
      </trkpt>
      <trkpt lat="42.84377" lon="0.50343">
        <ele>1666</ele>
        <time>2020-02-01T10:42:21.000Z</time>
      </trkpt>
      <trkpt lat="42.84377" lon="0.50343">
        <ele>1665</ele>
        <time>2020-02-01T10:42:22.000Z</time>
      </trkpt>
      <trkpt lat="42.84377" lon="0.50343">
        <ele>1665</ele>
        <time>2020-02-01T10:42:23.000Z</time>
      </trkpt>
      <trkpt lat="42.84378" lon="0.50343">
        <ele>1665</ele>
        <time>2020-02-01T10:42:24.000Z</time>
      </trkpt>
      <trkpt lat="42.84378" lon="0.50343">
        <ele>1665</ele>
        <time>2020-02-01T10:42:25.000Z</time>
      </trkpt>
      <trkpt lat="42.84378" lon="0.50343">
        <ele>1666</ele>
        <time>2020-02-01T10:42:26.000Z</time>
      </trkpt>
      <trkpt lat="42.84378" lon="0.50344">
        <ele>1665</ele>
        <time>2020-02-01T10:42:27.000Z</time>
      </trkpt>
      <trkpt lat="42.84377" lon="0.50344">
        <ele>1665</ele>
        <time>2020-02-01T10:42:28.000Z</time>
      </trkpt>
      <trkpt lat="42.84377" lon="0.50344">
        <ele>1665</ele>
        <time>2020-02-01T10:42:29.000Z</time>
      </trkpt>
      <trkpt lat="42.84377" lon="0.50344">
        <ele>1665</ele>
        <time>2020-02-01T10:42:30.000Z</time>
      </trkpt>
      <trkpt lat="42.84376" lon="0.50345">
        <ele>1665</ele>
        <time>2020-02-01T10:42:31.000Z</time>
      </trkpt>
      <trkpt lat="42.84376" lon="0.50345">
        <ele>1665</ele>
        <time>2020-02-01T10:42:32.000Z</time>
      </trkpt>
      <trkpt lat="42.84376" lon="0.50346">
        <ele>1665</ele>
        <time>2020-02-01T10:42:33.000Z</time>
      </trkpt>
      <trkpt lat="42.84375" lon="0.50346">
        <ele>1665</ele>
        <time>2020-02-01T10:42:34.000Z</time>
      </trkpt>
      <trkpt lat="42.84375" lon="0.50347">
        <ele>1665</ele>
        <time>2020-02-01T10:42:35.000Z</time>
      </trkpt>
      <trkpt lat="42.84374" lon="0.50347">
        <ele>1665</ele>
        <time>2020-02-01T10:42:36.000Z</time>
      </trkpt>
      <trkpt lat="42.84374" lon="0.50348">
        <ele>1665</ele>
        <time>2020-02-01T10:42:37.000Z</time>
      </trkpt>
      <trkpt lat="42.84373" lon="0.50349">
        <ele>1665</ele>
        <time>2020-02-01T10:42:38.000Z</time>
      </trkpt>
      <trkpt lat="42.84373" lon="0.5035">
        <ele>1666</ele>
        <time>2020-02-01T10:42:39.000Z</time>
      </trkpt>
      <trkpt lat="42.84373" lon="0.50351">
        <ele>1665</ele>
        <time>2020-02-01T10:42:40.000Z</time>
      </trkpt>
      <trkpt lat="42.84372" lon="0.50351">
        <ele>1665</ele>
        <time>2020-02-01T10:42:41.000Z</time>
      </trkpt>
      <trkpt lat="42.84372" lon="0.50352">
        <ele>1666</ele>
        <time>2020-02-01T10:42:42.000Z</time>
      </trkpt>
      <trkpt lat="42.84372" lon="0.50353">
        <ele>1666</ele>
        <time>2020-02-01T10:42:43.000Z</time>
      </trkpt>
      <trkpt lat="42.84371" lon="0.50353">
        <ele>1666</ele>
        <time>2020-02-01T10:42:44.000Z</time>
      </trkpt>
      <trkpt lat="42.84371" lon="0.50354">
        <ele>1665.5</ele>
        <time>2020-02-01T10:42:45.000Z</time>
      </trkpt>
      <trkpt lat="42.84371" lon="0.50354">
        <ele>1665</ele>
        <time>2020-02-01T10:42:46.000Z</time>
      </trkpt>
      <trkpt lat="42.84371" lon="0.50354">
        <ele>1665.5</ele>
        <time>2020-02-01T10:42:47.000Z</time>
      </trkpt>
      <trkpt lat="42.84371" lon="0.50354">
        <ele>1666</ele>
        <time>2020-02-01T10:42:48.000Z</time>
      </trkpt>
      <trkpt lat="42.84371" lon="0.50354">
        <ele>1666</ele>
        <time>2020-02-01T10:42:49.000Z</time>
      </trkpt>
      <trkpt lat="42.84371" lon="0.50354">
        <ele>1666</ele>
        <time>2020-02-01T10:42:50.000Z</time>
      </trkpt>
      <trkpt lat="42.84371" lon="0.50354">
        <ele>1666</ele>
        <time>2020-02-01T10:42:51.000Z</time>
      </trkpt>
      <trkpt lat="42.84371" lon="0.50354">
        <ele>1666</ele>
        <time>2020-02-01T10:42:52.000Z</time>
      </trkpt>
      <trkpt lat="42.84371" lon="0.50354">
        <ele>1666</ele>
        <time>2020-02-01T10:42:53.000Z</time>
      </trkpt>
      <trkpt lat="42.84371" lon="0.50353">
        <ele>1666</ele>
        <time>2020-02-01T10:42:54.000Z</time>
      </trkpt>
      <trkpt lat="42.84371" lon="0.50353">
        <ele>1666</ele>
        <time>2020-02-01T10:42:55.000Z</time>
      </trkpt>
      <trkpt lat="42.84371" lon="0.50353">
        <ele>1666</ele>
        <time>2020-02-01T10:42:56.000Z</time>
      </trkpt>
      <trkpt lat="42.84372" lon="0.50353">
        <ele>1666</ele>
        <time>2020-02-01T10:42:57.000Z</time>
      </trkpt>
      <trkpt lat="42.84372" lon="0.50352">
        <ele>1666</ele>
        <time>2020-02-01T10:42:58.000Z</time>
      </trkpt>
      <trkpt lat="42.84372" lon="0.50352">
        <ele>1666</ele>
        <time>2020-02-01T10:42:59.000Z</time>
      </trkpt>
      <trkpt lat="42.84373" lon="0.50352">
        <ele>1666</ele>
        <time>2020-02-01T10:43:00.000Z</time>
      </trkpt>
      <trkpt lat="42.84374" lon="0.50352">
        <ele>1666</ele>
        <time>2020-02-01T10:43:01.000Z</time>
      </trkpt>
      <trkpt lat="42.84374" lon="0.50351">
        <ele>1666</ele>
        <time>2020-02-01T10:43:02.000Z</time>
      </trkpt>
      <trkpt lat="42.84374" lon="0.5035">
        <ele>1666</ele>
        <time>2020-02-01T10:43:03.000Z</time>
      </trkpt>
      <trkpt lat="42.84374" lon="0.50349">
        <ele>1666</ele>
        <time>2020-02-01T10:43:04.000Z</time>
      </trkpt>
      <trkpt lat="42.84374" lon="0.50348">
        <ele>1666</ele>
        <time>2020-02-01T10:43:05.000Z</time>
      </trkpt>
      <trkpt lat="42.84373" lon="0.50347">
        <ele>1667</ele>
        <time>2020-02-01T10:43:06.000Z</time>
      </trkpt>
      <trkpt lat="42.84373" lon="0.50347">
        <ele>1666</ele>
        <time>2020-02-01T10:43:07.000Z</time>
      </trkpt>
      <trkpt lat="42.84373" lon="0.50347">
        <ele>1666</ele>
        <time>2020-02-01T10:43:08.000Z</time>
      </trkpt>
      <trkpt lat="42.84373" lon="0.50347">
        <ele>1666</ele>
        <time>2020-02-01T10:43:09.000Z</time>
      </trkpt>
      <trkpt lat="42.84373" lon="0.50347">
        <ele>1667</ele>
        <time>2020-02-01T10:43:10.000Z</time>
      </trkpt>
      <trkpt lat="42.84373" lon="0.50347">
        <ele>1667</ele>
        <time>2020-02-01T10:43:11.000Z</time>
      </trkpt>
      <trkpt lat="42.84373" lon="0.50348">
        <ele>1667</ele>
        <time>2020-02-01T10:43:12.000Z</time>
      </trkpt>
      <trkpt lat="42.84373" lon="0.50348">
        <ele>1666</ele>
        <time>2020-02-01T10:43:13.000Z</time>
      </trkpt>
      <trkpt lat="42.84373" lon="0.50348">
        <ele>1666</ele>
        <time>2020-02-01T10:43:14.000Z</time>
      </trkpt>
      <trkpt lat="42.84373" lon="0.50348">
        <ele>1666</ele>
        <time>2020-02-01T10:43:15.000Z</time>
      </trkpt>
      <trkpt lat="42.84373" lon="0.50348">
        <ele>1666</ele>
        <time>2020-02-01T10:43:16.000Z</time>
      </trkpt>
      <trkpt lat="42.84373" lon="0.50348">
        <ele>1666</ele>
        <time>2020-02-01T10:43:17.000Z</time>
      </trkpt>
      <trkpt lat="42.84374" lon="0.50348">
        <ele>1666</ele>
        <time>2020-02-01T10:43:18.000Z</time>
      </trkpt>
      <trkpt lat="42.84375" lon="0.50347">
        <ele>1666</ele>
        <time>2020-02-01T10:43:19.000Z</time>
      </trkpt>
      <trkpt lat="42.84376" lon="0.50347">
        <ele>1666</ele>
        <time>2020-02-01T10:43:20.000Z</time>
      </trkpt>
      <trkpt lat="42.84377" lon="0.50346">
        <ele>1666</ele>
        <time>2020-02-01T10:43:21.000Z</time>
      </trkpt>
      <trkpt lat="42.84377" lon="0.50345">
        <ele>1666</ele>
        <time>2020-02-01T10:43:22.000Z</time>
      </trkpt>
      <trkpt lat="42.84378" lon="0.50343">
        <ele>1666</ele>
        <time>2020-02-01T10:43:23.000Z</time>
      </trkpt>
      <trkpt lat="42.84378" lon="0.50342">
        <ele>1666</ele>
        <time>2020-02-01T10:43:24.000Z</time>
      </trkpt>
      <trkpt lat="42.84378" lon="0.50341">
        <ele>1666</ele>
        <time>2020-02-01T10:43:25.000Z</time>
      </trkpt>
      <trkpt lat="42.84379" lon="0.5034">
        <ele>1666</ele>
        <time>2020-02-01T10:43:26.000Z</time>
      </trkpt>
      <trkpt lat="42.84379" lon="0.50339">
        <ele>1666</ele>
        <time>2020-02-01T10:43:27.000Z</time>
      </trkpt>
      <trkpt lat="42.84379" lon="0.50338">
        <ele>1666</ele>
        <time>2020-02-01T10:43:28.000Z</time>
      </trkpt>
      <trkpt lat="42.84378" lon="0.50338">
        <ele>1666</ele>
        <time>2020-02-01T10:43:29.000Z</time>
      </trkpt>
      <trkpt lat="42.84378" lon="0.50337">
        <ele>1666</ele>
        <time>2020-02-01T10:43:30.000Z</time>
      </trkpt>
      <trkpt lat="42.84378" lon="0.50337">
        <ele>1666</ele>
        <time>2020-02-01T10:43:31.000Z</time>
      </trkpt>
      <trkpt lat="42.84378" lon="0.50336">
        <ele>1666</ele>
        <time>2020-02-01T10:43:32.000Z</time>
      </trkpt>
      <trkpt lat="42.84378" lon="0.50336">
        <ele>1666</ele>
        <time>2020-02-01T10:43:33.000Z</time>
      </trkpt>
      <trkpt lat="42.84377" lon="0.50335">
        <ele>1666</ele>
        <time>2020-02-01T10:43:34.000Z</time>
      </trkpt>
      <trkpt lat="42.84377" lon="0.50335">
        <ele>1666</ele>
        <time>2020-02-01T10:43:35.000Z</time>
      </trkpt>
      <trkpt lat="42.84377" lon="0.50335">
        <ele>1666</ele>
        <time>2020-02-01T10:43:36.000Z</time>
      </trkpt>
      <trkpt lat="42.84377" lon="0.50336">
        <ele>1666</ele>
        <time>2020-02-01T10:43:37.000Z</time>
      </trkpt>
      <trkpt lat="42.84377" lon="0.50336">
        <ele>1666</ele>
        <time>2020-02-01T10:43:38.000Z</time>
      </trkpt>
      <trkpt lat="42.84376" lon="0.50336">
        <ele>1667</ele>
        <time>2020-02-01T10:43:39.000Z</time>
      </trkpt>
      <trkpt lat="42.84376" lon="0.50337">
        <ele>1667</ele>
        <time>2020-02-01T10:43:40.000Z</time>
      </trkpt>
      <trkpt lat="42.84376" lon="0.50337">
        <ele>1667</ele>
        <time>2020-02-01T10:43:41.000Z</time>
      </trkpt>
      <trkpt lat="42.84376" lon="0.50338">
        <ele>1667</ele>
        <time>2020-02-01T10:43:42.000Z</time>
      </trkpt>
      <trkpt lat="42.84376" lon="0.50338">
        <ele>1666</ele>
        <time>2020-02-01T10:43:43.000Z</time>
      </trkpt>
      <trkpt lat="42.84376" lon="0.50338">
        <ele>1666</ele>
        <time>2020-02-01T10:43:44.000Z</time>
      </trkpt>
      <trkpt lat="42.84376" lon="0.50338">
        <ele>1666</ele>
        <time>2020-02-01T10:43:45.000Z</time>
      </trkpt>
      <trkpt lat="42.84376" lon="0.50338">
        <ele>1666</ele>
        <time>2020-02-01T10:43:46.000Z</time>
      </trkpt>
      <trkpt lat="42.84376" lon="0.50338">
        <ele>1666</ele>
        <time>2020-02-01T10:43:47.000Z</time>
      </trkpt>
      <trkpt lat="42.84376" lon="0.50338">
        <ele>1666</ele>
        <time>2020-02-01T10:43:48.000Z</time>
      </trkpt>
      <trkpt lat="42.84376" lon="0.50338">
        <ele>1666</ele>
        <time>2020-02-01T10:43:49.000Z</time>
      </trkpt>
      <trkpt lat="42.84376" lon="0.50338">
        <ele>1666</ele>
        <time>2020-02-01T10:43:50.000Z</time>
      </trkpt>
      <trkpt lat="42.84376" lon="0.50338">
        <ele>1666</ele>
        <time>2020-02-01T10:43:51.000Z</time>
      </trkpt>
      <trkpt lat="42.84376" lon="0.50338">
        <ele>1666</ele>
        <time>2020-02-01T10:43:52.000Z</time>
      </trkpt>
      <trkpt lat="42.84376" lon="0.50338">
        <ele>1666</ele>
        <time>2020-02-01T10:43:53.000Z</time>
      </trkpt>
      <trkpt lat="42.84376" lon="0.50338">
        <ele>1666</ele>
        <time>2020-02-01T10:43:54.000Z</time>
      </trkpt>
      <trkpt lat="42.84376" lon="0.50337">
        <ele>1666</ele>
        <time>2020-02-01T10:43:55.000Z</time>
      </trkpt>
      <trkpt lat="42.84376" lon="0.50337">
        <ele>1666</ele>
        <time>2020-02-01T10:43:56.000Z</time>
      </trkpt>
      <trkpt lat="42.84376" lon="0.50337">
        <ele>1666</ele>
        <time>2020-02-01T10:43:57.000Z</time>
      </trkpt>
      <trkpt lat="42.84376" lon="0.50336">
        <ele>1666</ele>
        <time>2020-02-01T10:43:58.000Z</time>
      </trkpt>
      <trkpt lat="42.84376" lon="0.50336">
        <ele>1666</ele>
        <time>2020-02-01T10:43:59.000Z</time>
      </trkpt>
      <trkpt lat="42.84376" lon="0.50336">
        <ele>1666</ele>
        <time>2020-02-01T10:44:00.000Z</time>
      </trkpt>
      <trkpt lat="42.84376" lon="0.50335">
        <ele>1666</ele>
        <time>2020-02-01T10:44:01.000Z</time>
      </trkpt>
      <trkpt lat="42.84376" lon="0.50335">
        <ele>1666</ele>
        <time>2020-02-01T10:44:02.000Z</time>
      </trkpt>
      <trkpt lat="42.84375" lon="0.50335">
        <ele>1666</ele>
        <time>2020-02-01T10:44:03.000Z</time>
      </trkpt>
      <trkpt lat="42.84375" lon="0.50335">
        <ele>1666</ele>
        <time>2020-02-01T10:44:04.000Z</time>
      </trkpt>
      <trkpt lat="42.84375" lon="0.50335">
        <ele>1666</ele>
        <time>2020-02-01T10:44:05.000Z</time>
      </trkpt>
      <trkpt lat="42.84374" lon="0.50335">
        <ele>1666</ele>
        <time>2020-02-01T10:44:06.000Z</time>
      </trkpt>
      <trkpt lat="42.84374" lon="0.50335">
        <ele>1666</ele>
        <time>2020-02-01T10:44:07.000Z</time>
      </trkpt>
      <trkpt lat="42.84373" lon="0.50336">
        <ele>1666</ele>
        <time>2020-02-01T10:44:08.000Z</time>
      </trkpt>
      <trkpt lat="42.84373" lon="0.50336">
        <ele>1666</ele>
        <time>2020-02-01T10:44:09.000Z</time>
      </trkpt>
      <trkpt lat="42.84373" lon="0.50336">
        <ele>1666</ele>
        <time>2020-02-01T10:44:10.000Z</time>
      </trkpt>
      <trkpt lat="42.84372" lon="0.50336">
        <ele>1666</ele>
        <time>2020-02-01T10:44:11.000Z</time>
      </trkpt>
      <trkpt lat="42.84372" lon="0.50336">
        <ele>1666</ele>
        <time>2020-02-01T10:44:12.000Z</time>
      </trkpt>
      <trkpt lat="42.84371" lon="0.50336">
        <ele>1666</ele>
        <time>2020-02-01T10:44:13.000Z</time>
      </trkpt>
      <trkpt lat="42.84371" lon="0.50336">
        <ele>1666</ele>
        <time>2020-02-01T10:44:14.000Z</time>
      </trkpt>
      <trkpt lat="42.84371" lon="0.50336">
        <ele>1666</ele>
        <time>2020-02-01T10:44:15.000Z</time>
      </trkpt>
      <trkpt lat="42.84371" lon="0.50336">
        <ele>1666</ele>
        <time>2020-02-01T10:44:16.000Z</time>
      </trkpt>
      <trkpt lat="42.8437" lon="0.50336">
        <ele>1666</ele>
        <time>2020-02-01T10:44:17.000Z</time>
      </trkpt>
      <trkpt lat="42.8437" lon="0.50337">
        <ele>1666</ele>
        <time>2020-02-01T10:44:18.000Z</time>
      </trkpt>
      <trkpt lat="42.8437" lon="0.50337">
        <ele>1666</ele>
        <time>2020-02-01T10:44:19.000Z</time>
      </trkpt>
      <trkpt lat="42.84369" lon="0.50337">
        <ele>1666</ele>
        <time>2020-02-01T10:44:20.000Z</time>
      </trkpt>
      <trkpt lat="42.84369" lon="0.50337">
        <ele>1666</ele>
        <time>2020-02-01T10:44:21.000Z</time>
      </trkpt>
      <trkpt lat="42.84369" lon="0.50337">
        <ele>1666</ele>
        <time>2020-02-01T10:44:22.000Z</time>
      </trkpt>
      <trkpt lat="42.84369" lon="0.50337">
        <ele>1666</ele>
        <time>2020-02-01T10:44:23.000Z</time>
      </trkpt>
      <trkpt lat="42.84369" lon="0.50338">
        <ele>1666</ele>
        <time>2020-02-01T10:44:24.000Z</time>
      </trkpt>
      <trkpt lat="42.84369" lon="0.50338">
        <ele>1666</ele>
        <time>2020-02-01T10:44:25.000Z</time>
      </trkpt>
      <trkpt lat="42.84368" lon="0.50338">
        <ele>1666</ele>
        <time>2020-02-01T10:44:26.000Z</time>
      </trkpt>
      <trkpt lat="42.84368" lon="0.50338">
        <ele>1666</ele>
        <time>2020-02-01T10:44:27.000Z</time>
      </trkpt>
      <trkpt lat="42.84368" lon="0.50338">
        <ele>1666</ele>
        <time>2020-02-01T10:44:28.000Z</time>
      </trkpt>
      <trkpt lat="42.84368" lon="0.50338">
        <ele>1666</ele>
        <time>2020-02-01T10:44:29.000Z</time>
      </trkpt>
      <trkpt lat="42.84368" lon="0.50338">
        <ele>1666</ele>
        <time>2020-02-01T10:44:30.000Z</time>
      </trkpt>
      <trkpt lat="42.84368" lon="0.50338">
        <ele>1666</ele>
        <time>2020-02-01T10:44:31.000Z</time>
      </trkpt>
      <trkpt lat="42.84368" lon="0.50338">
        <ele>1666</ele>
        <time>2020-02-01T10:44:32.000Z</time>
      </trkpt>
      <trkpt lat="42.84368" lon="0.50338">
        <ele>1666</ele>
        <time>2020-02-01T10:44:33.000Z</time>
      </trkpt>
      <trkpt lat="42.84368" lon="0.50338">
        <ele>1666</ele>
        <time>2020-02-01T10:44:34.000Z</time>
      </trkpt>
      <trkpt lat="42.84368" lon="0.50338">
        <ele>1666</ele>
        <time>2020-02-01T10:44:35.000Z</time>
      </trkpt>
      <trkpt lat="42.84368" lon="0.50338">
        <ele>1666</ele>
        <time>2020-02-01T10:44:36.000Z</time>
      </trkpt>
      <trkpt lat="42.84368" lon="0.50338">
        <ele>1666</ele>
        <time>2020-02-01T10:44:37.000Z</time>
      </trkpt>
      <trkpt lat="42.84368" lon="0.50338">
        <ele>1666</ele>
        <time>2020-02-01T10:44:38.000Z</time>
      </trkpt>
      <trkpt lat="42.84368" lon="0.50338">
        <ele>1666</ele>
        <time>2020-02-01T10:44:39.000Z</time>
      </trkpt>
      <trkpt lat="42.84368" lon="0.50338">
        <ele>1666</ele>
        <time>2020-02-01T10:44:40.000Z</time>
      </trkpt>
      <trkpt lat="42.84368" lon="0.50338">
        <ele>1666</ele>
        <time>2020-02-01T10:44:41.000Z</time>
      </trkpt>
      <trkpt lat="42.84368" lon="0.50338">
        <ele>1666</ele>
        <time>2020-02-01T10:44:42.000Z</time>
      </trkpt>
      <trkpt lat="42.84368" lon="0.50338">
        <ele>1666</ele>
        <time>2020-02-01T10:44:43.000Z</time>
      </trkpt>
      <trkpt lat="42.84368" lon="0.50338">
        <ele>1666</ele>
        <time>2020-02-01T10:44:44.000Z</time>
      </trkpt>
      <trkpt lat="42.84368" lon="0.50338">
        <ele>1666</ele>
        <time>2020-02-01T10:44:45.000Z</time>
      </trkpt>
      <trkpt lat="42.84368" lon="0.50338">
        <ele>1666</ele>
        <time>2020-02-01T10:44:46.000Z</time>
      </trkpt>
      <trkpt lat="42.84368" lon="0.50338">
        <ele>1666</ele>
        <time>2020-02-01T10:44:47.000Z</time>
      </trkpt>
      <trkpt lat="42.84368" lon="0.50338">
        <ele>1666</ele>
        <time>2020-02-01T10:44:48.000Z</time>
      </trkpt>
      <trkpt lat="42.84368" lon="0.50338">
        <ele>1666</ele>
        <time>2020-02-01T10:44:49.000Z</time>
      </trkpt>
      <trkpt lat="42.84368" lon="0.50338">
        <ele>1666</ele>
        <time>2020-02-01T10:44:50.000Z</time>
      </trkpt>
      <trkpt lat="42.84369" lon="0.50339">
        <ele>1666</ele>
        <time>2020-02-01T10:44:51.000Z</time>
      </trkpt>
      <trkpt lat="42.8437" lon="0.50339">
        <ele>1666</ele>
        <time>2020-02-01T10:44:52.000Z</time>
      </trkpt>
      <trkpt lat="42.84372" lon="0.5034">
        <ele>1666</ele>
        <time>2020-02-01T10:44:53.000Z</time>
      </trkpt>
      <trkpt lat="42.84374" lon="0.50341">
        <ele>1666</ele>
        <time>2020-02-01T10:44:54.000Z</time>
      </trkpt>
      <trkpt lat="42.84376" lon="0.50341">
        <ele>1666</ele>
        <time>2020-02-01T10:44:55.000Z</time>
      </trkpt>
      <trkpt lat="42.84377" lon="0.50341">
        <ele>1666</ele>
        <time>2020-02-01T10:44:56.000Z</time>
      </trkpt>
      <trkpt lat="42.84377" lon="0.50341">
        <ele>1666</ele>
        <time>2020-02-01T10:44:57.000Z</time>
      </trkpt>
      <trkpt lat="42.84378" lon="0.5034">
        <ele>1666</ele>
        <time>2020-02-01T10:44:58.000Z</time>
      </trkpt>
      <trkpt lat="42.84378" lon="0.50339">
        <ele>1666</ele>
        <time>2020-02-01T10:44:59.000Z</time>
      </trkpt>
      <trkpt lat="42.84378" lon="0.50338">
        <ele>1666</ele>
        <time>2020-02-01T10:45:00.000Z</time>
      </trkpt>
      <trkpt lat="42.84378" lon="0.50337">
        <ele>1666</ele>
        <time>2020-02-01T10:45:01.000Z</time>
      </trkpt>
      <trkpt lat="42.84378" lon="0.50336">
        <ele>1666</ele>
        <time>2020-02-01T10:45:02.000Z</time>
      </trkpt>
      <trkpt lat="42.84378" lon="0.50336">
        <ele>1666</ele>
        <time>2020-02-01T10:45:03.000Z</time>
      </trkpt>
      <trkpt lat="42.84378" lon="0.50336">
        <ele>1666</ele>
        <time>2020-02-01T10:45:04.000Z</time>
      </trkpt>
      <trkpt lat="42.84377" lon="0.50336">
        <ele>1666</ele>
        <time>2020-02-01T10:45:05.000Z</time>
      </trkpt>
      <trkpt lat="42.84376" lon="0.50336">
        <ele>1666</ele>
        <time>2020-02-01T10:45:06.000Z</time>
      </trkpt>
      <trkpt lat="42.84375" lon="0.50337">
        <ele>1666</ele>
        <time>2020-02-01T10:45:07.000Z</time>
      </trkpt>
      <trkpt lat="42.84374" lon="0.50338">
        <ele>1666</ele>
        <time>2020-02-01T10:45:08.000Z</time>
      </trkpt>
      <trkpt lat="42.84373" lon="0.50339">
        <ele>1666</ele>
        <time>2020-02-01T10:45:09.000Z</time>
      </trkpt>
      <trkpt lat="42.84372" lon="0.5034">
        <ele>1666</ele>
        <time>2020-02-01T10:45:10.000Z</time>
      </trkpt>
      <trkpt lat="42.84372" lon="0.50341">
        <ele>1666</ele>
        <time>2020-02-01T10:45:11.000Z</time>
      </trkpt>
      <trkpt lat="42.84371" lon="0.50342">
        <ele>1666</ele>
        <time>2020-02-01T10:45:12.000Z</time>
      </trkpt>
      <trkpt lat="42.84371" lon="0.50343">
        <ele>1666</ele>
        <time>2020-02-01T10:45:13.000Z</time>
      </trkpt>
      <trkpt lat="42.8437" lon="0.50344">
        <ele>1666</ele>
        <time>2020-02-01T10:45:14.000Z</time>
      </trkpt>
      <trkpt lat="42.8437" lon="0.50345">
        <ele>1666</ele>
        <time>2020-02-01T10:45:15.000Z</time>
      </trkpt>
      <trkpt lat="42.8437" lon="0.50346">
        <ele>1666</ele>
        <time>2020-02-01T10:45:16.000Z</time>
      </trkpt>
      <trkpt lat="42.8437" lon="0.50346">
        <ele>1666</ele>
        <time>2020-02-01T10:45:17.000Z</time>
      </trkpt>
      <trkpt lat="42.8437" lon="0.50347">
        <ele>1666</ele>
        <time>2020-02-01T10:45:18.000Z</time>
      </trkpt>
      <trkpt lat="42.8437" lon="0.50347">
        <ele>1666</ele>
        <time>2020-02-01T10:45:19.000Z</time>
      </trkpt>
      <trkpt lat="42.8437" lon="0.50347">
        <ele>1666</ele>
        <time>2020-02-01T10:45:20.000Z</time>
      </trkpt>
      <trkpt lat="42.84371" lon="0.50347">
        <ele>1666</ele>
        <time>2020-02-01T10:45:21.000Z</time>
      </trkpt>
      <trkpt lat="42.84371" lon="0.50346">
        <ele>1666</ele>
        <time>2020-02-01T10:45:22.000Z</time>
      </trkpt>
      <trkpt lat="42.84371" lon="0.50346">
        <ele>1666</ele>
        <time>2020-02-01T10:45:23.000Z</time>
      </trkpt>
      <trkpt lat="42.84371" lon="0.50346">
        <ele>1666</ele>
        <time>2020-02-01T10:45:24.000Z</time>
      </trkpt>
      <trkpt lat="42.84371" lon="0.50346">
        <ele>1666</ele>
        <time>2020-02-01T10:45:25.000Z</time>
      </trkpt>
      <trkpt lat="42.84371" lon="0.50346">
        <ele>1666</ele>
        <time>2020-02-01T10:45:26.000Z</time>
      </trkpt>
      <trkpt lat="42.84371" lon="0.50346">
        <ele>1666</ele>
        <time>2020-02-01T10:45:27.000Z</time>
      </trkpt>
      <trkpt lat="42.84371" lon="0.50346">
        <ele>1666</ele>
        <time>2020-02-01T10:45:28.000Z</time>
      </trkpt>
      <trkpt lat="42.84371" lon="0.50346">
        <ele>1666</ele>
        <time>2020-02-01T10:45:29.000Z</time>
      </trkpt>
      <trkpt lat="42.84371" lon="0.50347">
        <ele>1666</ele>
        <time>2020-02-01T10:45:30.000Z</time>
      </trkpt>
      <trkpt lat="42.84371" lon="0.50347">
        <ele>1666</ele>
        <time>2020-02-01T10:45:31.000Z</time>
      </trkpt>
      <trkpt lat="42.84371" lon="0.50347">
        <ele>1667</ele>
        <time>2020-02-01T10:45:32.000Z</time>
      </trkpt>
      <trkpt lat="42.84372" lon="0.50347">
        <ele>1667</ele>
        <time>2020-02-01T10:45:33.000Z</time>
      </trkpt>
      <trkpt lat="42.84372" lon="0.50347">
        <ele>1667</ele>
        <time>2020-02-01T10:45:34.000Z</time>
      </trkpt>
      <trkpt lat="42.84372" lon="0.50347">
        <ele>1666</ele>
        <time>2020-02-01T10:45:35.000Z</time>
      </trkpt>
      <trkpt lat="42.84372" lon="0.50347">
        <ele>1666</ele>
        <time>2020-02-01T10:45:36.000Z</time>
      </trkpt>
      <trkpt lat="42.84372" lon="0.50346">
        <ele>1666</ele>
        <time>2020-02-01T10:45:37.000Z</time>
      </trkpt>
      <trkpt lat="42.84372" lon="0.50346">
        <ele>1666</ele>
        <time>2020-02-01T10:45:38.000Z</time>
      </trkpt>
      <trkpt lat="42.84372" lon="0.50346">
        <ele>1666</ele>
        <time>2020-02-01T10:45:39.000Z</time>
      </trkpt>
      <trkpt lat="42.84372" lon="0.50346">
        <ele>1666</ele>
        <time>2020-02-01T10:45:40.000Z</time>
      </trkpt>
      <trkpt lat="42.84371" lon="0.50346">
        <ele>1666</ele>
        <time>2020-02-01T10:45:41.000Z</time>
      </trkpt>
      <trkpt lat="42.84371" lon="0.50346">
        <ele>1666</ele>
        <time>2020-02-01T10:45:42.000Z</time>
      </trkpt>
      <trkpt lat="42.84371" lon="0.50346">
        <ele>1666</ele>
        <time>2020-02-01T10:45:43.000Z</time>
      </trkpt>
      <trkpt lat="42.8437" lon="0.50346">
        <ele>1666</ele>
        <time>2020-02-01T10:45:44.000Z</time>
      </trkpt>
      <trkpt lat="42.8437" lon="0.50346">
        <ele>1666</ele>
        <time>2020-02-01T10:45:45.000Z</time>
      </trkpt>
      <trkpt lat="42.8437" lon="0.50346">
        <ele>1667</ele>
        <time>2020-02-01T10:45:46.000Z</time>
      </trkpt>
      <trkpt lat="42.84369" lon="0.50347">
        <ele>1667</ele>
        <time>2020-02-01T10:45:47.000Z</time>
      </trkpt>
      <trkpt lat="42.84369" lon="0.50348">
        <ele>1667</ele>
        <time>2020-02-01T10:45:48.000Z</time>
      </trkpt>
      <trkpt lat="42.84369" lon="0.50349">
        <ele>1667</ele>
        <time>2020-02-01T10:45:49.000Z</time>
      </trkpt>
      <trkpt lat="42.84368" lon="0.5035">
        <ele>1667</ele>
        <time>2020-02-01T10:45:50.000Z</time>
      </trkpt>
      <trkpt lat="42.84368" lon="0.50351">
        <ele>1667</ele>
        <time>2020-02-01T10:45:51.000Z</time>
      </trkpt>
      <trkpt lat="42.84367" lon="0.50352">
        <ele>1667</ele>
        <time>2020-02-01T10:45:52.000Z</time>
      </trkpt>
      <trkpt lat="42.84367" lon="0.50353">
        <ele>1667</ele>
        <time>2020-02-01T10:45:53.000Z</time>
      </trkpt>
      <trkpt lat="42.84367" lon="0.50354">
        <ele>1667</ele>
        <time>2020-02-01T10:45:54.000Z</time>
      </trkpt>
      <trkpt lat="42.84366" lon="0.50354">
        <ele>1667</ele>
        <time>2020-02-01T10:45:55.000Z</time>
      </trkpt>
      <trkpt lat="42.84366" lon="0.50355">
        <ele>1667</ele>
        <time>2020-02-01T10:45:56.000Z</time>
      </trkpt>
      <trkpt lat="42.84366" lon="0.50356">
        <ele>1666</ele>
        <time>2020-02-01T10:45:57.000Z</time>
      </trkpt>
      <trkpt lat="42.84366" lon="0.50356">
        <ele>1666</ele>
        <time>2020-02-01T10:45:58.000Z</time>
      </trkpt>
      <trkpt lat="42.84366" lon="0.50356">
        <ele>1666</ele>
        <time>2020-02-01T10:45:59.000Z</time>
      </trkpt>
      <trkpt lat="42.84366" lon="0.50356">
        <ele>1666</ele>
        <time>2020-02-01T10:46:00.000Z</time>
      </trkpt>
      <trkpt lat="42.84366" lon="0.50356">
        <ele>1666</ele>
        <time>2020-02-01T10:46:01.000Z</time>
      </trkpt>
      <trkpt lat="42.84366" lon="0.50356">
        <ele>1666</ele>
        <time>2020-02-01T10:46:02.000Z</time>
      </trkpt>
      <trkpt lat="42.84366" lon="0.50356">
        <ele>1666</ele>
        <time>2020-02-01T10:46:03.000Z</time>
      </trkpt>
      <trkpt lat="42.84366" lon="0.50355">
        <ele>1666</ele>
        <time>2020-02-01T10:46:04.000Z</time>
      </trkpt>
      <trkpt lat="42.84366" lon="0.50355">
        <ele>1666</ele>
        <time>2020-02-01T10:46:05.000Z</time>
      </trkpt>
      <trkpt lat="42.84366" lon="0.50355">
        <ele>1666</ele>
        <time>2020-02-01T10:46:06.000Z</time>
      </trkpt>
      <trkpt lat="42.84366" lon="0.50355">
        <ele>1666</ele>
        <time>2020-02-01T10:46:07.000Z</time>
      </trkpt>
      <trkpt lat="42.84366" lon="0.50355">
        <ele>1666</ele>
        <time>2020-02-01T10:46:08.000Z</time>
      </trkpt>
      <trkpt lat="42.84366" lon="0.50355">
        <ele>1666</ele>
        <time>2020-02-01T10:46:09.000Z</time>
      </trkpt>
      <trkpt lat="42.84367" lon="0.50355">
        <ele>1666</ele>
        <time>2020-02-01T10:46:10.000Z</time>
      </trkpt>
      <trkpt lat="42.84367" lon="0.50355">
        <ele>1666</ele>
        <time>2020-02-01T10:46:11.000Z</time>
      </trkpt>
      <trkpt lat="42.84368" lon="0.50355">
        <ele>1666</ele>
        <time>2020-02-01T10:46:12.000Z</time>
      </trkpt>
      <trkpt lat="42.84369" lon="0.50354">
        <ele>1666</ele>
        <time>2020-02-01T10:46:13.000Z</time>
      </trkpt>
      <trkpt lat="42.8437" lon="0.50354">
        <ele>1666</ele>
        <time>2020-02-01T10:46:14.000Z</time>
      </trkpt>
      <trkpt lat="42.84371" lon="0.50353">
        <ele>1666</ele>
        <time>2020-02-01T10:46:22.000Z</time>
      </trkpt>
      <trkpt lat="42.84372" lon="0.50352">
        <ele>1666</ele>
        <time>2020-02-01T10:46:23.000Z</time>
      </trkpt>
      <trkpt lat="42.84374" lon="0.50351">
        <ele>1666</ele>
        <time>2020-02-01T10:46:24.000Z</time>
      </trkpt>
      <trkpt lat="42.84375" lon="0.5035">
        <ele>1666</ele>
        <time>2020-02-01T10:46:25.000Z</time>
      </trkpt>
      <trkpt lat="42.84376" lon="0.50349">
        <ele>1666</ele>
        <time>2020-02-01T10:46:26.000Z</time>
      </trkpt>
      <trkpt lat="42.84377" lon="0.50347">
        <ele>1666</ele>
        <time>2020-02-01T10:46:48.000Z</time>
      </trkpt>
      <trkpt lat="42.84377" lon="0.50346">
        <ele>1666</ele>
        <time>2020-02-01T10:46:49.000Z</time>
      </trkpt>
      <trkpt lat="42.84378" lon="0.50345">
        <ele>1666</ele>
        <time>2020-02-01T10:46:50.000Z</time>
      </trkpt>
      <trkpt lat="42.84378" lon="0.50345">
        <ele>1666</ele>
        <time>2020-02-01T10:46:51.000Z</time>
      </trkpt>
      <trkpt lat="42.84379" lon="0.50345">
        <ele>1666</ele>
        <time>2020-02-01T10:46:52.000Z</time>
      </trkpt>
      <trkpt lat="42.84379" lon="0.50345">
        <ele>1666</ele>
        <time>2020-02-01T10:46:53.000Z</time>
      </trkpt>
      <trkpt lat="42.84378" lon="0.50345">
        <ele>1666</ele>
        <time>2020-02-01T10:46:54.000Z</time>
      </trkpt>
      <trkpt lat="42.84379" lon="0.50345">
        <ele>1666</ele>
        <time>2020-02-01T10:46:55.000Z</time>
      </trkpt>
      <trkpt lat="42.84379" lon="0.50345">
        <ele>1666</ele>
        <time>2020-02-01T10:46:56.000Z</time>
      </trkpt>
      <trkpt lat="42.84379" lon="0.50344">
        <ele>1666</ele>
        <time>2020-02-01T10:46:57.000Z</time>
      </trkpt>
      <trkpt lat="42.8438" lon="0.50344">
        <ele>1666</ele>
        <time>2020-02-01T10:46:58.000Z</time>
      </trkpt>
      <trkpt lat="42.8438" lon="0.50344">
        <ele>1666</ele>
        <time>2020-02-01T10:46:59.000Z</time>
      </trkpt>
      <trkpt lat="42.8438" lon="0.50344">
        <ele>1666</ele>
        <time>2020-02-01T10:47:00.000Z</time>
      </trkpt>
      <trkpt lat="42.84381" lon="0.50344">
        <ele>1666</ele>
        <time>2020-02-01T10:47:01.000Z</time>
      </trkpt>
      <trkpt lat="42.84381" lon="0.50344">
        <ele>1666</ele>
        <time>2020-02-01T10:47:02.000Z</time>
      </trkpt>
      <trkpt lat="42.84381" lon="0.50344">
        <ele>1666</ele>
        <time>2020-02-01T10:47:03.000Z</time>
      </trkpt>
      <trkpt lat="42.84382" lon="0.50344">
        <ele>1666</ele>
        <time>2020-02-01T10:47:04.000Z</time>
      </trkpt>
      <trkpt lat="42.84382" lon="0.50344">
        <ele>1666</ele>
        <time>2020-02-01T10:47:05.000Z</time>
      </trkpt>
      <trkpt lat="42.84382" lon="0.50344">
        <ele>1666</ele>
        <time>2020-02-01T10:47:06.000Z</time>
      </trkpt>
      <trkpt lat="42.84382" lon="0.50344">
        <ele>1666</ele>
        <time>2020-02-01T10:47:07.000Z</time>
      </trkpt>
      <trkpt lat="42.84383" lon="0.50344">
        <ele>1666</ele>
        <time>2020-02-01T10:47:08.000Z</time>
      </trkpt>
      <trkpt lat="42.84383" lon="0.50344">
        <ele>1666</ele>
        <time>2020-02-01T10:47:09.000Z</time>
      </trkpt>
      <trkpt lat="42.84383" lon="0.50344">
        <ele>1666</ele>
        <time>2020-02-01T10:47:10.000Z</time>
      </trkpt>
      <trkpt lat="42.84383" lon="0.50344">
        <ele>1666</ele>
        <time>2020-02-01T10:47:11.000Z</time>
      </trkpt>
      <trkpt lat="42.84383" lon="0.50344">
        <ele>1666</ele>
        <time>2020-02-01T10:47:12.000Z</time>
      </trkpt>
      <trkpt lat="42.84384" lon="0.50344">
        <ele>1666</ele>
        <time>2020-02-01T10:47:13.000Z</time>
      </trkpt>
      <trkpt lat="42.84384" lon="0.50344">
        <ele>1666</ele>
        <time>2020-02-01T10:47:14.000Z</time>
      </trkpt>
      <trkpt lat="42.84384" lon="0.50344">
        <ele>1666</ele>
        <time>2020-02-01T10:47:15.000Z</time>
      </trkpt>
      <trkpt lat="42.84384" lon="0.50344">
        <ele>1666</ele>
        <time>2020-02-01T10:47:16.000Z</time>
      </trkpt>
      <trkpt lat="42.84384" lon="0.50344">
        <ele>1665.5</ele>
        <time>2020-02-01T10:47:17.000Z</time>
      </trkpt>
      <trkpt lat="42.84385" lon="0.50344">
        <ele>1665</ele>
        <time>2020-02-01T10:47:18.000Z</time>
      </trkpt>
      <trkpt lat="42.84385" lon="0.50344">
        <ele>1665</ele>
        <time>2020-02-01T10:47:19.000Z</time>
      </trkpt>
      <trkpt lat="42.84384" lon="0.50344">
        <ele>1665.3</ele>
        <time>2020-02-01T10:47:20.000Z</time>
      </trkpt>
      <trkpt lat="42.84384" lon="0.50344">
        <ele>1665.7</ele>
        <time>2020-02-01T10:47:21.000Z</time>
      </trkpt>
      <trkpt lat="42.84384" lon="0.50344">
        <ele>1666</ele>
        <time>2020-02-01T10:47:22.000Z</time>
      </trkpt>
      <trkpt lat="42.84384" lon="0.50344">
        <ele>1665</ele>
        <time>2020-02-01T10:47:23.000Z</time>
      </trkpt>
      <trkpt lat="42.84383" lon="0.50344">
        <ele>1665</ele>
        <time>2020-02-01T10:47:24.000Z</time>
      </trkpt>
      <trkpt lat="42.84383" lon="0.50344">
        <ele>1665</ele>
        <time>2020-02-01T10:47:25.000Z</time>
      </trkpt>
      <trkpt lat="42.84383" lon="0.50344">
        <ele>1665</ele>
        <time>2020-02-01T10:47:26.000Z</time>
      </trkpt>
      <trkpt lat="42.84383" lon="0.50344">
        <ele>1665</ele>
        <time>2020-02-01T10:47:27.000Z</time>
      </trkpt>
      <trkpt lat="42.84383" lon="0.50344">
        <ele>1665</ele>
        <time>2020-02-01T10:47:28.000Z</time>
      </trkpt>
      <trkpt lat="42.84383" lon="0.50344">
        <ele>1665</ele>
        <time>2020-02-01T10:47:29.000Z</time>
      </trkpt>
      <trkpt lat="42.84383" lon="0.50344">
        <ele>1665</ele>
        <time>2020-02-01T10:47:30.000Z</time>
      </trkpt>
      <trkpt lat="42.84383" lon="0.50344">
        <ele>1665</ele>
        <time>2020-02-01T10:47:31.000Z</time>
      </trkpt>
      <trkpt lat="42.84383" lon="0.50344">
        <ele>1665</ele>
        <time>2020-02-01T10:47:32.000Z</time>
      </trkpt>
      <trkpt lat="42.84383" lon="0.50344">
        <ele>1665</ele>
        <time>2020-02-01T10:47:33.000Z</time>
      </trkpt>
      <trkpt lat="42.84383" lon="0.50344">
        <ele>1665</ele>
        <time>2020-02-01T10:47:34.000Z</time>
      </trkpt>
      <trkpt lat="42.84383" lon="0.50344">
        <ele>1665</ele>
        <time>2020-02-01T10:47:35.000Z</time>
      </trkpt>
      <trkpt lat="42.84383" lon="0.50344">
        <ele>1665</ele>
        <time>2020-02-01T10:47:36.000Z</time>
      </trkpt>
      <trkpt lat="42.84383" lon="0.50344">
        <ele>1665</ele>
        <time>2020-02-01T10:47:37.000Z</time>
      </trkpt>
      <trkpt lat="42.84383" lon="0.50344">
        <ele>1665</ele>
        <time>2020-02-01T10:47:38.000Z</time>
      </trkpt>
      <trkpt lat="42.84383" lon="0.50344">
        <ele>1665</ele>
        <time>2020-02-01T10:47:39.000Z</time>
      </trkpt>
      <trkpt lat="42.84383" lon="0.50344">
        <ele>1665</ele>
        <time>2020-02-01T10:47:40.000Z</time>
      </trkpt>
      <trkpt lat="42.84383" lon="0.50344">
        <ele>1665</ele>
        <time>2020-02-01T10:47:41.000Z</time>
      </trkpt>
      <trkpt lat="42.84382" lon="0.50344">
        <ele>1665</ele>
        <time>2020-02-01T10:47:42.000Z</time>
      </trkpt>
      <trkpt lat="42.84382" lon="0.50344">
        <ele>1665</ele>
        <time>2020-02-01T10:47:43.000Z</time>
      </trkpt>
      <trkpt lat="42.84382" lon="0.50344">
        <ele>1665</ele>
        <time>2020-02-01T10:47:44.000Z</time>
      </trkpt>
      <trkpt lat="42.84382" lon="0.50344">
        <ele>1665</ele>
        <time>2020-02-01T10:47:45.000Z</time>
      </trkpt>
      <trkpt lat="42.84382" lon="0.50344">
        <ele>1665</ele>
        <time>2020-02-01T10:47:46.000Z</time>
      </trkpt>
      <trkpt lat="42.84382" lon="0.50344">
        <ele>1665</ele>
        <time>2020-02-01T10:47:47.000Z</time>
      </trkpt>
      <trkpt lat="42.84382" lon="0.50344">
        <ele>1665</ele>
        <time>2020-02-01T10:47:48.000Z</time>
      </trkpt>
      <trkpt lat="42.84382" lon="0.50344">
        <ele>1665</ele>
        <time>2020-02-01T10:47:49.000Z</time>
      </trkpt>
      <trkpt lat="42.84382" lon="0.50344">
        <ele>1665</ele>
        <time>2020-02-01T10:47:50.000Z</time>
      </trkpt>
      <trkpt lat="42.84382" lon="0.50344">
        <ele>1665</ele>
        <time>2020-02-01T10:47:51.000Z</time>
      </trkpt>
      <trkpt lat="42.84382" lon="0.50344">
        <ele>1665</ele>
        <time>2020-02-01T10:47:52.000Z</time>
      </trkpt>
      <trkpt lat="42.84381" lon="0.50344">
        <ele>1665</ele>
        <time>2020-02-01T10:47:53.000Z</time>
      </trkpt>
      <trkpt lat="42.84381" lon="0.50344">
        <ele>1665</ele>
        <time>2020-02-01T10:47:54.000Z</time>
      </trkpt>
      <trkpt lat="42.84381" lon="0.50344">
        <ele>1665</ele>
        <time>2020-02-01T10:47:55.000Z</time>
      </trkpt>
      <trkpt lat="42.84381" lon="0.50344">
        <ele>1665</ele>
        <time>2020-02-01T10:47:56.000Z</time>
      </trkpt>
      <trkpt lat="42.8438" lon="0.50344">
        <ele>1665</ele>
        <time>2020-02-01T10:47:57.000Z</time>
      </trkpt>
      <trkpt lat="42.8438" lon="0.50344">
        <ele>1665</ele>
        <time>2020-02-01T10:47:58.000Z</time>
      </trkpt>
      <trkpt lat="42.84379" lon="0.50344">
        <ele>1665</ele>
        <time>2020-02-01T10:47:59.000Z</time>
      </trkpt>
      <trkpt lat="42.84379" lon="0.50344">
        <ele>1665</ele>
        <time>2020-02-01T10:48:00.000Z</time>
      </trkpt>
      <trkpt lat="42.84379" lon="0.50343">
        <ele>1665</ele>
        <time>2020-02-01T10:48:01.000Z</time>
      </trkpt>
      <trkpt lat="42.84378" lon="0.50342">
        <ele>1665</ele>
        <time>2020-02-01T10:48:02.000Z</time>
      </trkpt>
      <trkpt lat="42.84378" lon="0.50342">
        <ele>1665</ele>
        <time>2020-02-01T10:48:03.000Z</time>
      </trkpt>
      <trkpt lat="42.84378" lon="0.50341">
        <ele>1665</ele>
        <time>2020-02-01T10:48:04.000Z</time>
      </trkpt>
      <trkpt lat="42.84378" lon="0.5034">
        <ele>1665</ele>
        <time>2020-02-01T10:48:05.000Z</time>
      </trkpt>
      <trkpt lat="42.84378" lon="0.50338">
        <ele>1665</ele>
        <time>2020-02-01T10:48:06.000Z</time>
      </trkpt>
      <trkpt lat="42.84379" lon="0.50337">
        <ele>1665</ele>
        <time>2020-02-01T10:48:07.000Z</time>
      </trkpt>
      <trkpt lat="42.84379" lon="0.50336">
        <ele>1665</ele>
        <time>2020-02-01T10:48:08.000Z</time>
      </trkpt>
      <trkpt lat="42.84379" lon="0.50336">
        <ele>1666</ele>
        <time>2020-02-01T10:48:09.000Z</time>
      </trkpt>
      <trkpt lat="42.84379" lon="0.50335">
        <ele>1666</ele>
        <time>2020-02-01T10:48:10.000Z</time>
      </trkpt>
      <trkpt lat="42.84379" lon="0.50335">
        <ele>1666</ele>
        <time>2020-02-01T10:48:11.000Z</time>
      </trkpt>
      <trkpt lat="42.84379" lon="0.50334">
        <ele>1666</ele>
        <time>2020-02-01T10:48:12.000Z</time>
      </trkpt>
      <trkpt lat="42.84378" lon="0.50334">
        <ele>1666</ele>
        <time>2020-02-01T10:48:13.000Z</time>
      </trkpt>
      <trkpt lat="42.84377" lon="0.50333">
        <ele>1666</ele>
        <time>2020-02-01T10:48:14.000Z</time>
      </trkpt>
      <trkpt lat="42.84376" lon="0.50332">
        <ele>1666</ele>
        <time>2020-02-01T10:48:15.000Z</time>
      </trkpt>
      <trkpt lat="42.84375" lon="0.50332">
        <ele>1666</ele>
        <time>2020-02-01T10:48:16.000Z</time>
      </trkpt>
      <trkpt lat="42.84374" lon="0.50331">
        <ele>1665</ele>
        <time>2020-02-01T10:48:17.000Z</time>
      </trkpt>
      <trkpt lat="42.84374" lon="0.50331">
        <ele>1665</ele>
        <time>2020-02-01T10:48:18.000Z</time>
      </trkpt>
      <trkpt lat="42.84373" lon="0.50331">
        <ele>1666</ele>
        <time>2020-02-01T10:48:19.000Z</time>
      </trkpt>
      <trkpt lat="42.84373" lon="0.50332">
        <ele>1666</ele>
        <time>2020-02-01T10:48:20.000Z</time>
      </trkpt>
      <trkpt lat="42.84373" lon="0.50333">
        <ele>1666</ele>
        <time>2020-02-01T10:48:21.000Z</time>
      </trkpt>
      <trkpt lat="42.84373" lon="0.50334">
        <ele>1666</ele>
        <time>2020-02-01T10:48:22.000Z</time>
      </trkpt>
      <trkpt lat="42.84374" lon="0.50336">
        <ele>1666</ele>
        <time>2020-02-01T10:48:23.000Z</time>
      </trkpt>
      <trkpt lat="42.84374" lon="0.50337">
        <ele>1666</ele>
        <time>2020-02-01T10:48:24.000Z</time>
      </trkpt>
      <trkpt lat="42.84375" lon="0.50338">
        <ele>1666</ele>
        <time>2020-02-01T10:48:25.000Z</time>
      </trkpt>
      <trkpt lat="42.84376" lon="0.5034">
        <ele>1666</ele>
        <time>2020-02-01T10:48:26.000Z</time>
      </trkpt>
      <trkpt lat="42.84376" lon="0.50341">
        <ele>1666</ele>
        <time>2020-02-01T10:48:27.000Z</time>
      </trkpt>
      <trkpt lat="42.84377" lon="0.50342">
        <ele>1666</ele>
        <time>2020-02-01T10:48:28.000Z</time>
      </trkpt>
      <trkpt lat="42.84377" lon="0.50343">
        <ele>1666</ele>
        <time>2020-02-01T10:48:29.000Z</time>
      </trkpt>
      <trkpt lat="42.84377" lon="0.50344">
        <ele>1666</ele>
        <time>2020-02-01T10:48:30.000Z</time>
      </trkpt>
      <trkpt lat="42.84378" lon="0.50344">
        <ele>1666</ele>
        <time>2020-02-01T10:48:31.000Z</time>
      </trkpt>
      <trkpt lat="42.84378" lon="0.50345">
        <ele>1666</ele>
        <time>2020-02-01T10:48:32.000Z</time>
      </trkpt>
      <trkpt lat="42.84378" lon="0.50345">
        <ele>1666</ele>
        <time>2020-02-01T10:48:33.000Z</time>
      </trkpt>
      <trkpt lat="42.84378" lon="0.50345">
        <ele>1666</ele>
        <time>2020-02-01T10:48:34.000Z</time>
      </trkpt>
      <trkpt lat="42.84378" lon="0.50345">
        <ele>1665</ele>
        <time>2020-02-01T10:48:35.000Z</time>
      </trkpt>
      <trkpt lat="42.84378" lon="0.50345">
        <ele>1665</ele>
        <time>2020-02-01T10:48:36.000Z</time>
      </trkpt>
      <trkpt lat="42.84378" lon="0.50345">
        <ele>1665</ele>
        <time>2020-02-01T10:48:37.000Z</time>
      </trkpt>
      <trkpt lat="42.84378" lon="0.50345">
        <ele>1665</ele>
        <time>2020-02-01T10:48:38.000Z</time>
      </trkpt>
      <trkpt lat="42.84378" lon="0.50345">
        <ele>1665</ele>
        <time>2020-02-01T10:48:39.000Z</time>
      </trkpt>
      <trkpt lat="42.84378" lon="0.50345">
        <ele>1665</ele>
        <time>2020-02-01T10:48:40.000Z</time>
      </trkpt>
      <trkpt lat="42.84378" lon="0.50345">
        <ele>1665</ele>
        <time>2020-02-01T10:48:41.000Z</time>
      </trkpt>
      <trkpt lat="42.84378" lon="0.50345">
        <ele>1665</ele>
        <time>2020-02-01T10:48:42.000Z</time>
      </trkpt>
      <trkpt lat="42.84378" lon="0.50345">
        <ele>1665</ele>
        <time>2020-02-01T10:48:43.000Z</time>
      </trkpt>
      <trkpt lat="42.84378" lon="0.50345">
        <ele>1665</ele>
        <time>2020-02-01T10:48:44.000Z</time>
      </trkpt>
      <trkpt lat="42.84378" lon="0.50345">
        <ele>1665</ele>
        <time>2020-02-01T10:48:45.000Z</time>
      </trkpt>
      <trkpt lat="42.84378" lon="0.50346">
        <ele>1665</ele>
        <time>2020-02-01T10:48:47.000Z</time>
      </trkpt>
      <trkpt lat="42.84378" lon="0.50346">
        <ele>1665</ele>
        <time>2020-02-01T10:48:48.000Z</time>
      </trkpt>
      <trkpt lat="42.84379" lon="0.50347">
        <ele>1665</ele>
        <time>2020-02-01T10:48:49.000Z</time>
      </trkpt>
      <trkpt lat="42.84379" lon="0.50347">
        <ele>1665</ele>
        <time>2020-02-01T10:48:50.000Z</time>
      </trkpt>
      <trkpt lat="42.84379" lon="0.50348">
        <ele>1665</ele>
        <time>2020-02-01T10:48:51.000Z</time>
      </trkpt>
      <trkpt lat="42.8438" lon="0.50348">
        <ele>1666</ele>
        <time>2020-02-01T10:48:52.000Z</time>
      </trkpt>
      <trkpt lat="42.8438" lon="0.50349">
        <ele>1666</ele>
        <time>2020-02-01T10:48:53.000Z</time>
      </trkpt>
      <trkpt lat="42.8438" lon="0.50349">
        <ele>1666</ele>
        <time>2020-02-01T10:48:54.000Z</time>
      </trkpt>
      <trkpt lat="42.84381" lon="0.5035">
        <ele>1666</ele>
        <time>2020-02-01T10:48:55.000Z</time>
      </trkpt>
      <trkpt lat="42.84381" lon="0.50351">
        <ele>1666</ele>
        <time>2020-02-01T10:48:56.000Z</time>
      </trkpt>
      <trkpt lat="42.84381" lon="0.50351">
        <ele>1665</ele>
        <time>2020-02-01T10:48:57.000Z</time>
      </trkpt>
      <trkpt lat="42.84381" lon="0.50352">
        <ele>1665</ele>
        <time>2020-02-01T10:48:58.000Z</time>
      </trkpt>
      <trkpt lat="42.84381" lon="0.50352">
        <ele>1665</ele>
        <time>2020-02-01T10:48:59.000Z</time>
      </trkpt>
      <trkpt lat="42.84381" lon="0.50353">
        <ele>1665</ele>
        <time>2020-02-01T10:49:00.000Z</time>
      </trkpt>
      <trkpt lat="42.84381" lon="0.50353">
        <ele>1665</ele>
        <time>2020-02-01T10:49:01.000Z</time>
      </trkpt>
      <trkpt lat="42.84381" lon="0.50353">
        <ele>1665</ele>
        <time>2020-02-01T10:49:02.000Z</time>
      </trkpt>
      <trkpt lat="42.84381" lon="0.50354">
        <ele>1666</ele>
        <time>2020-02-01T10:49:03.000Z</time>
      </trkpt>
      <trkpt lat="42.84381" lon="0.50354">
        <ele>1666</ele>
        <time>2020-02-01T10:49:04.000Z</time>
      </trkpt>
      <trkpt lat="42.84381" lon="0.50354">
        <ele>1666</ele>
        <time>2020-02-01T10:49:05.000Z</time>
      </trkpt>
      <trkpt lat="42.8438" lon="0.50354">
        <ele>1666</ele>
        <time>2020-02-01T10:49:06.000Z</time>
      </trkpt>
      <trkpt lat="42.8438" lon="0.50355">
        <ele>1666</ele>
        <time>2020-02-01T10:49:07.000Z</time>
      </trkpt>
      <trkpt lat="42.8438" lon="0.50355">
        <ele>1665</ele>
        <time>2020-02-01T10:49:08.000Z</time>
      </trkpt>
      <trkpt lat="42.84379" lon="0.50355">
        <ele>1665</ele>
        <time>2020-02-01T10:49:09.000Z</time>
      </trkpt>
      <trkpt lat="42.84379" lon="0.50356">
        <ele>1665</ele>
        <time>2020-02-01T10:49:10.000Z</time>
      </trkpt>
      <trkpt lat="42.84378" lon="0.50356">
        <ele>1665</ele>
        <time>2020-02-01T10:49:11.000Z</time>
      </trkpt>
      <trkpt lat="42.84378" lon="0.50356">
        <ele>1665</ele>
        <time>2020-02-01T10:49:12.000Z</time>
      </trkpt>
      <trkpt lat="42.84377" lon="0.50356">
        <ele>1665</ele>
        <time>2020-02-01T10:49:13.000Z</time>
      </trkpt>
      <trkpt lat="42.84377" lon="0.50356">
        <ele>1665</ele>
        <time>2020-02-01T10:49:14.000Z</time>
      </trkpt>
      <trkpt lat="42.84376" lon="0.50357">
        <ele>1665</ele>
        <time>2020-02-01T10:49:15.000Z</time>
      </trkpt>
      <trkpt lat="42.84376" lon="0.50357">
        <ele>1665</ele>
        <time>2020-02-01T10:49:16.000Z</time>
      </trkpt>
      <trkpt lat="42.84376" lon="0.50357">
        <ele>1665</ele>
        <time>2020-02-01T10:49:17.000Z</time>
      </trkpt>
      <trkpt lat="42.84376" lon="0.50357">
        <ele>1665</ele>
        <time>2020-02-01T10:49:18.000Z</time>
      </trkpt>
      <trkpt lat="42.84376" lon="0.50357">
        <ele>1665</ele>
        <time>2020-02-01T10:49:19.000Z</time>
      </trkpt>
      <trkpt lat="42.84376" lon="0.50357">
        <ele>1665</ele>
        <time>2020-02-01T10:49:20.000Z</time>
      </trkpt>
      <trkpt lat="42.84376" lon="0.50357">
        <ele>1665</ele>
        <time>2020-02-01T10:49:21.000Z</time>
      </trkpt>
      <trkpt lat="42.84376" lon="0.50358">
        <ele>1665</ele>
        <time>2020-02-01T10:49:22.000Z</time>
      </trkpt>
      <trkpt lat="42.84376" lon="0.50358">
        <ele>1665</ele>
        <time>2020-02-01T10:49:23.000Z</time>
      </trkpt>
      <trkpt lat="42.84377" lon="0.50359">
        <ele>1665</ele>
        <time>2020-02-01T10:49:24.000Z</time>
      </trkpt>
      <trkpt lat="42.84377" lon="0.50359">
        <ele>1665</ele>
        <time>2020-02-01T10:49:25.000Z</time>
      </trkpt>
      <trkpt lat="42.84377" lon="0.5036">
        <ele>1665</ele>
        <time>2020-02-01T10:49:26.000Z</time>
      </trkpt>
      <trkpt lat="42.84377" lon="0.50361">
        <ele>1665</ele>
        <time>2020-02-01T10:49:27.000Z</time>
      </trkpt>
      <trkpt lat="42.84377" lon="0.50362">
        <ele>1665</ele>
        <time>2020-02-01T10:49:28.000Z</time>
      </trkpt>
      <trkpt lat="42.84378" lon="0.50363">
        <ele>1665</ele>
        <time>2020-02-01T10:49:29.000Z</time>
      </trkpt>
      <trkpt lat="42.84378" lon="0.50364">
        <ele>1665</ele>
        <time>2020-02-01T10:49:30.000Z</time>
      </trkpt>
      <trkpt lat="42.84378" lon="0.50365">
        <ele>1665</ele>
        <time>2020-02-01T10:49:31.000Z</time>
      </trkpt>
      <trkpt lat="42.84378" lon="0.50366">
        <ele>1665</ele>
        <time>2020-02-01T10:49:32.000Z</time>
      </trkpt>
      <trkpt lat="42.84378" lon="0.50367">
        <ele>1665</ele>
        <time>2020-02-01T10:49:33.000Z</time>
      </trkpt>
      <trkpt lat="42.84378" lon="0.50368">
        <ele>1665</ele>
        <time>2020-02-01T10:49:34.000Z</time>
      </trkpt>
      <trkpt lat="42.84378" lon="0.50368">
        <ele>1665</ele>
        <time>2020-02-01T10:49:35.000Z</time>
      </trkpt>
      <trkpt lat="42.84378" lon="0.50369">
        <ele>1665</ele>
        <time>2020-02-01T10:49:36.000Z</time>
      </trkpt>
      <trkpt lat="42.84378" lon="0.50369">
        <ele>1665</ele>
        <time>2020-02-01T10:49:37.000Z</time>
      </trkpt>
      <trkpt lat="42.84378" lon="0.50369">
        <ele>1665</ele>
        <time>2020-02-01T10:49:38.000Z</time>
      </trkpt>
      <trkpt lat="42.84378" lon="0.50368">
        <ele>1665</ele>
        <time>2020-02-01T10:49:39.000Z</time>
      </trkpt>
      <trkpt lat="42.84379" lon="0.50362">
        <ele>1665</ele>
        <time>2020-02-01T10:49:40.000Z</time>
      </trkpt>
      <trkpt lat="42.84379" lon="0.50361">
        <ele>1666</ele>
        <time>2020-02-01T10:50:08.000Z</time>
      </trkpt>
      <trkpt lat="42.84379" lon="0.5036">
        <ele>1666</ele>
        <time>2020-02-01T10:50:09.000Z</time>
      </trkpt>
      <trkpt lat="42.84379" lon="0.50357">
        <ele>1666</ele>
        <time>2020-02-01T10:50:10.000Z</time>
      </trkpt>
      <trkpt lat="42.84379" lon="0.50353">
        <ele>1666</ele>
        <time>2020-02-01T10:50:11.000Z</time>
      </trkpt>
      <trkpt lat="42.84379" lon="0.5035">
        <ele>1666</ele>
        <time>2020-02-01T10:50:12.000Z</time>
      </trkpt>
      <trkpt lat="42.84379" lon="0.50347">
        <ele>1666</ele>
        <time>2020-02-01T10:50:13.000Z</time>
      </trkpt>
      <trkpt lat="42.84379" lon="0.50345">
        <ele>1666</ele>
        <time>2020-02-01T10:50:14.000Z</time>
      </trkpt>
      <trkpt lat="42.84379" lon="0.50343">
        <ele>1666</ele>
        <time>2020-02-01T10:50:15.000Z</time>
      </trkpt>
      <trkpt lat="42.84379" lon="0.50341">
        <ele>1666</ele>
        <time>2020-02-01T10:50:16.000Z</time>
      </trkpt>
      <trkpt lat="42.84379" lon="0.5034">
        <ele>1666</ele>
        <time>2020-02-01T10:50:17.000Z</time>
      </trkpt>
      <trkpt lat="42.84379" lon="0.50339">
        <ele>1666</ele>
        <time>2020-02-01T10:50:18.000Z</time>
      </trkpt>
      <trkpt lat="42.84379" lon="0.50338">
        <ele>1666</ele>
        <time>2020-02-01T10:50:19.000Z</time>
      </trkpt>
      <trkpt lat="42.84379" lon="0.50338">
        <ele>1666</ele>
        <time>2020-02-01T10:50:20.000Z</time>
      </trkpt>
      <trkpt lat="42.84379" lon="0.50337">
        <ele>1666</ele>
        <time>2020-02-01T10:50:21.000Z</time>
      </trkpt>
      <trkpt lat="42.84379" lon="0.50337">
        <ele>1666</ele>
        <time>2020-02-01T10:50:22.000Z</time>
      </trkpt>
      <trkpt lat="42.8438" lon="0.50336">
        <ele>1666</ele>
        <time>2020-02-01T10:50:23.000Z</time>
      </trkpt>
      <trkpt lat="42.8438" lon="0.50336">
        <ele>1666</ele>
        <time>2020-02-01T10:50:24.000Z</time>
      </trkpt>
      <trkpt lat="42.8438" lon="0.50336">
        <ele>1666</ele>
        <time>2020-02-01T10:50:25.000Z</time>
      </trkpt>
      <trkpt lat="42.8438" lon="0.50336">
        <ele>1666</ele>
        <time>2020-02-01T10:50:26.000Z</time>
      </trkpt>
      <trkpt lat="42.8438" lon="0.50336">
        <ele>1665</ele>
        <time>2020-02-01T10:50:27.000Z</time>
      </trkpt>
      <trkpt lat="42.84379" lon="0.50336">
        <ele>1666</ele>
        <time>2020-02-01T10:50:28.000Z</time>
      </trkpt>
      <trkpt lat="42.84379" lon="0.50336">
        <ele>1666</ele>
        <time>2020-02-01T10:50:29.000Z</time>
      </trkpt>
      <trkpt lat="42.84379" lon="0.50337">
        <ele>1666</ele>
        <time>2020-02-01T10:50:30.000Z</time>
      </trkpt>
      <trkpt lat="42.84379" lon="0.50337">
        <ele>1666</ele>
        <time>2020-02-01T10:50:31.000Z</time>
      </trkpt>
      <trkpt lat="42.84379" lon="0.50338">
        <ele>1666</ele>
        <time>2020-02-01T10:50:32.000Z</time>
      </trkpt>
      <trkpt lat="42.84378" lon="0.50339">
        <ele>1666</ele>
        <time>2020-02-01T10:50:33.000Z</time>
      </trkpt>
      <trkpt lat="42.84378" lon="0.5034">
        <ele>1666</ele>
        <time>2020-02-01T10:50:34.000Z</time>
      </trkpt>
      <trkpt lat="42.84377" lon="0.50341">
        <ele>1666</ele>
        <time>2020-02-01T10:50:35.000Z</time>
      </trkpt>
      <trkpt lat="42.84377" lon="0.50342">
        <ele>1666</ele>
        <time>2020-02-01T10:50:36.000Z</time>
      </trkpt>
      <trkpt lat="42.84377" lon="0.50343">
        <ele>1666</ele>
        <time>2020-02-01T10:50:37.000Z</time>
      </trkpt>
      <trkpt lat="42.84376" lon="0.50344">
        <ele>1666</ele>
        <time>2020-02-01T10:50:38.000Z</time>
      </trkpt>
      <trkpt lat="42.84376" lon="0.50345">
        <ele>1666</ele>
        <time>2020-02-01T10:50:39.000Z</time>
      </trkpt>
      <trkpt lat="42.84375" lon="0.50347">
        <ele>1666</ele>
        <time>2020-02-01T10:50:40.000Z</time>
      </trkpt>
      <trkpt lat="42.84375" lon="0.50348">
        <ele>1665</ele>
        <time>2020-02-01T10:50:41.000Z</time>
      </trkpt>
      <trkpt lat="42.84375" lon="0.5035">
        <ele>1665</ele>
        <time>2020-02-01T10:50:42.000Z</time>
      </trkpt>
      <trkpt lat="42.84375" lon="0.50351">
        <ele>1665</ele>
        <time>2020-02-01T10:50:43.000Z</time>
      </trkpt>
      <trkpt lat="42.84374" lon="0.50352">
        <ele>1665</ele>
        <time>2020-02-01T10:50:44.000Z</time>
      </trkpt>
      <trkpt lat="42.84374" lon="0.50354">
        <ele>1665</ele>
        <time>2020-02-01T10:50:45.000Z</time>
      </trkpt>
      <trkpt lat="42.84374" lon="0.50355">
        <ele>1666</ele>
        <time>2020-02-01T10:51:06.000Z</time>
      </trkpt>
      <trkpt lat="42.84373" lon="0.50356">
        <ele>1666</ele>
        <time>2020-02-01T10:51:07.000Z</time>
      </trkpt>
      <trkpt lat="42.84373" lon="0.50357">
        <ele>1666</ele>
        <time>2020-02-01T10:51:08.000Z</time>
      </trkpt>
      <trkpt lat="42.84373" lon="0.50358">
        <ele>1666</ele>
        <time>2020-02-01T10:51:09.000Z</time>
      </trkpt>
      <trkpt lat="42.84373" lon="0.50359">
        <ele>1665</ele>
        <time>2020-02-01T10:51:10.000Z</time>
      </trkpt>
      <trkpt lat="42.84372" lon="0.50359">
        <ele>1665</ele>
        <time>2020-02-01T10:51:11.000Z</time>
      </trkpt>
      <trkpt lat="42.84372" lon="0.5036">
        <ele>1665</ele>
        <time>2020-02-01T10:51:12.000Z</time>
      </trkpt>
      <trkpt lat="42.84372" lon="0.5036">
        <ele>1665</ele>
        <time>2020-02-01T10:51:13.000Z</time>
      </trkpt>
      <trkpt lat="42.84371" lon="0.5036">
        <ele>1665</ele>
        <time>2020-02-01T10:51:14.000Z</time>
      </trkpt>
      <trkpt lat="42.84371" lon="0.50361">
        <ele>1665</ele>
        <time>2020-02-01T10:51:15.000Z</time>
      </trkpt>
      <trkpt lat="42.84371" lon="0.50361">
        <ele>1665</ele>
        <time>2020-02-01T10:51:16.000Z</time>
      </trkpt>
      <trkpt lat="42.84371" lon="0.50361">
        <ele>1665</ele>
        <time>2020-02-01T10:51:17.000Z</time>
      </trkpt>
      <trkpt lat="42.84371" lon="0.50361">
        <ele>1665</ele>
        <time>2020-02-01T10:51:18.000Z</time>
      </trkpt>
      <trkpt lat="42.84371" lon="0.50361">
        <ele>1665</ele>
        <time>2020-02-01T10:51:19.000Z</time>
      </trkpt>
      <trkpt lat="42.84371" lon="0.50361">
        <ele>1665</ele>
        <time>2020-02-01T10:51:20.000Z</time>
      </trkpt>
      <trkpt lat="42.84371" lon="0.50361">
        <ele>1665</ele>
        <time>2020-02-01T10:51:21.000Z</time>
      </trkpt>
      <trkpt lat="42.84371" lon="0.50361">
        <ele>1665</ele>
        <time>2020-02-01T10:51:22.000Z</time>
      </trkpt>
      <trkpt lat="42.84371" lon="0.50361">
        <ele>1665</ele>
        <time>2020-02-01T10:51:23.000Z</time>
      </trkpt>
      <trkpt lat="42.84371" lon="0.50361">
        <ele>1665</ele>
        <time>2020-02-01T10:51:24.000Z</time>
      </trkpt>
      <trkpt lat="42.84372" lon="0.5036">
        <ele>1665</ele>
        <time>2020-02-01T10:51:25.000Z</time>
      </trkpt>
      <trkpt lat="42.84373" lon="0.50355">
        <ele>1665</ele>
        <time>2020-02-01T10:51:26.000Z</time>
      </trkpt>
      <trkpt lat="42.84374" lon="0.50352">
        <ele>1665</ele>
        <time>2020-02-01T10:51:27.000Z</time>
      </trkpt>
      <trkpt lat="42.84375" lon="0.5035">
        <ele>1665</ele>
        <time>2020-02-01T10:51:28.000Z</time>
      </trkpt>
      <trkpt lat="42.84375" lon="0.5035">
        <ele>1665</ele>
        <time>2020-02-01T10:51:44.000Z</time>
      </trkpt>
      <trkpt lat="42.84375" lon="0.50351">
        <ele>1665</ele>
        <time>2020-02-01T10:51:45.000Z</time>
      </trkpt>
      <trkpt lat="42.84375" lon="0.50352">
        <ele>1665</ele>
        <time>2020-02-01T10:51:46.000Z</time>
      </trkpt>
      <trkpt lat="42.84375" lon="0.50353">
        <ele>1665</ele>
        <time>2020-02-01T10:51:47.000Z</time>
      </trkpt>
      <trkpt lat="42.84374" lon="0.50354">
        <ele>1665</ele>
        <time>2020-02-01T10:51:48.000Z</time>
      </trkpt>
      <trkpt lat="42.84374" lon="0.50354">
        <ele>1665</ele>
        <time>2020-02-01T10:51:49.000Z</time>
      </trkpt>
      <trkpt lat="42.84374" lon="0.50354">
        <ele>1665</ele>
        <time>2020-02-01T10:51:50.000Z</time>
      </trkpt>
      <trkpt lat="42.84373" lon="0.50354">
        <ele>1665</ele>
        <time>2020-02-01T10:51:51.000Z</time>
      </trkpt>
      <trkpt lat="42.84373" lon="0.50354">
        <ele>1665</ele>
        <time>2020-02-01T10:51:52.000Z</time>
      </trkpt>
      <trkpt lat="42.84373" lon="0.50354">
        <ele>1665</ele>
        <time>2020-02-01T10:51:53.000Z</time>
      </trkpt>
      <trkpt lat="42.84373" lon="0.50354">
        <ele>1665</ele>
        <time>2020-02-01T10:51:54.000Z</time>
      </trkpt>
      <trkpt lat="42.84373" lon="0.50354">
        <ele>1664</ele>
        <time>2020-02-01T10:51:55.000Z</time>
      </trkpt>
      <trkpt lat="42.84373" lon="0.50354">
        <ele>1665</ele>
        <time>2020-02-01T10:51:56.000Z</time>
      </trkpt>
      <trkpt lat="42.84373" lon="0.50354">
        <ele>1665</ele>
        <time>2020-02-01T10:51:57.000Z</time>
      </trkpt>
      <trkpt lat="42.84373" lon="0.50354">
        <ele>1665</ele>
        <time>2020-02-01T10:51:58.000Z</time>
      </trkpt>
      <trkpt lat="42.84373" lon="0.50354">
        <ele>1664</ele>
        <time>2020-02-01T10:51:59.000Z</time>
      </trkpt>
      <trkpt lat="42.84373" lon="0.50354">
        <ele>1664</ele>
        <time>2020-02-01T10:52:00.000Z</time>
      </trkpt>
      <trkpt lat="42.84373" lon="0.50354">
        <ele>1665</ele>
        <time>2020-02-01T10:52:01.000Z</time>
      </trkpt>
      <trkpt lat="42.84373" lon="0.50354">
        <ele>1665</ele>
        <time>2020-02-01T10:52:02.000Z</time>
      </trkpt>
      <trkpt lat="42.84373" lon="0.50354">
        <ele>1665</ele>
        <time>2020-02-01T10:52:03.000Z</time>
      </trkpt>
      <trkpt lat="42.84373" lon="0.50354">
        <ele>1665</ele>
        <time>2020-02-01T10:52:04.000Z</time>
      </trkpt>
      <trkpt lat="42.84373" lon="0.50353">
        <ele>1665</ele>
        <time>2020-02-01T10:52:05.000Z</time>
      </trkpt>
      <trkpt lat="42.84374" lon="0.50353">
        <ele>1665</ele>
        <time>2020-02-01T10:52:06.000Z</time>
      </trkpt>
      <trkpt lat="42.84374" lon="0.50352">
        <ele>1665</ele>
        <time>2020-02-01T10:52:07.000Z</time>
      </trkpt>
      <trkpt lat="42.84374" lon="0.50352">
        <ele>1665</ele>
        <time>2020-02-01T10:52:08.000Z</time>
      </trkpt>
      <trkpt lat="42.84374" lon="0.50351">
        <ele>1665</ele>
        <time>2020-02-01T10:52:09.000Z</time>
      </trkpt>
      <trkpt lat="42.84374" lon="0.50351">
        <ele>1665</ele>
        <time>2020-02-01T10:52:10.000Z</time>
      </trkpt>
      <trkpt lat="42.84374" lon="0.5035">
        <ele>1664</ele>
        <time>2020-02-01T10:52:11.000Z</time>
      </trkpt>
      <trkpt lat="42.84375" lon="0.5035">
        <ele>1664</ele>
        <time>2020-02-01T10:52:12.000Z</time>
      </trkpt>
      <trkpt lat="42.84375" lon="0.5035">
        <ele>1664</ele>
        <time>2020-02-01T10:52:13.000Z</time>
      </trkpt>
      <trkpt lat="42.84375" lon="0.50349">
        <ele>1664</ele>
        <time>2020-02-01T10:52:14.000Z</time>
      </trkpt>
      <trkpt lat="42.84375" lon="0.50349">
        <ele>1664</ele>
        <time>2020-02-01T10:52:15.000Z</time>
      </trkpt>
      <trkpt lat="42.84376" lon="0.50349">
        <ele>1664</ele>
        <time>2020-02-01T10:52:16.000Z</time>
      </trkpt>
      <trkpt lat="42.84376" lon="0.50348">
        <ele>1664</ele>
        <time>2020-02-01T10:52:17.000Z</time>
      </trkpt>
      <trkpt lat="42.84376" lon="0.50348">
        <ele>1664</ele>
        <time>2020-02-01T10:52:18.000Z</time>
      </trkpt>
      <trkpt lat="42.84376" lon="0.50348">
        <ele>1664</ele>
        <time>2020-02-01T10:52:19.000Z</time>
      </trkpt>
      <trkpt lat="42.84376" lon="0.50348">
        <ele>1665</ele>
        <time>2020-02-01T10:52:20.000Z</time>
      </trkpt>
      <trkpt lat="42.84376" lon="0.50348">
        <ele>1665</ele>
        <time>2020-02-01T10:52:21.000Z</time>
      </trkpt>
      <trkpt lat="42.84376" lon="0.50348">
        <ele>1665</ele>
        <time>2020-02-01T10:52:22.000Z</time>
      </trkpt>
      <trkpt lat="42.84376" lon="0.50348">
        <ele>1665</ele>
        <time>2020-02-01T10:52:23.000Z</time>
      </trkpt>
      <trkpt lat="42.84376" lon="0.50348">
        <ele>1665</ele>
        <time>2020-02-01T10:52:24.000Z</time>
      </trkpt>
      <trkpt lat="42.84376" lon="0.50348">
        <ele>1665</ele>
        <time>2020-02-01T10:52:25.000Z</time>
      </trkpt>
      <trkpt lat="42.84376" lon="0.50348">
        <ele>1665</ele>
        <time>2020-02-01T10:52:26.000Z</time>
      </trkpt>
      <trkpt lat="42.84376" lon="0.50348">
        <ele>1665</ele>
        <time>2020-02-01T10:52:27.000Z</time>
      </trkpt>
      <trkpt lat="42.84376" lon="0.50348">
        <ele>1665</ele>
        <time>2020-02-01T10:52:28.000Z</time>
      </trkpt>
      <trkpt lat="42.84376" lon="0.50348">
        <ele>1665</ele>
        <time>2020-02-01T10:52:29.000Z</time>
      </trkpt>
      <trkpt lat="42.84376" lon="0.50348">
        <ele>1665</ele>
        <time>2020-02-01T10:52:30.000Z</time>
      </trkpt>
      <trkpt lat="42.84375" lon="0.50348">
        <ele>1665</ele>
        <time>2020-02-01T10:52:31.000Z</time>
      </trkpt>
      <trkpt lat="42.84375" lon="0.50348">
        <ele>1665</ele>
        <time>2020-02-01T10:52:32.000Z</time>
      </trkpt>
      <trkpt lat="42.84375" lon="0.50348">
        <ele>1665</ele>
        <time>2020-02-01T10:52:33.000Z</time>
      </trkpt>
      <trkpt lat="42.84375" lon="0.50348">
        <ele>1665</ele>
        <time>2020-02-01T10:52:34.000Z</time>
      </trkpt>
      <trkpt lat="42.84375" lon="0.50348">
        <ele>1665</ele>
        <time>2020-02-01T10:52:35.000Z</time>
      </trkpt>
      <trkpt lat="42.84375" lon="0.50348">
        <ele>1664</ele>
        <time>2020-02-01T10:52:36.000Z</time>
      </trkpt>
      <trkpt lat="42.84375" lon="0.50348">
        <ele>1664</ele>
        <time>2020-02-01T10:52:37.000Z</time>
      </trkpt>
      <trkpt lat="42.84375" lon="0.50348">
        <ele>1664</ele>
        <time>2020-02-01T10:52:38.000Z</time>
      </trkpt>
      <trkpt lat="42.84375" lon="0.50348">
        <ele>1664</ele>
        <time>2020-02-01T10:52:39.000Z</time>
      </trkpt>
      <trkpt lat="42.84375" lon="0.50348">
        <ele>1664</ele>
        <time>2020-02-01T10:52:40.000Z</time>
      </trkpt>
      <trkpt lat="42.84375" lon="0.50348">
        <ele>1664</ele>
        <time>2020-02-01T10:52:41.000Z</time>
      </trkpt>
      <trkpt lat="42.84375" lon="0.50348">
        <ele>1664</ele>
        <time>2020-02-01T10:52:42.000Z</time>
      </trkpt>
      <trkpt lat="42.84375" lon="0.50348">
        <ele>1664</ele>
        <time>2020-02-01T10:52:43.000Z</time>
      </trkpt>
      <trkpt lat="42.84375" lon="0.50348">
        <ele>1664</ele>
        <time>2020-02-01T10:52:44.000Z</time>
      </trkpt>
      <trkpt lat="42.84375" lon="0.50348">
        <ele>1664</ele>
        <time>2020-02-01T10:52:45.000Z</time>
      </trkpt>
      <trkpt lat="42.84375" lon="0.50348">
        <ele>1664</ele>
        <time>2020-02-01T10:52:46.000Z</time>
      </trkpt>
      <trkpt lat="42.84375" lon="0.50348">
        <ele>1664</ele>
        <time>2020-02-01T10:52:47.000Z</time>
      </trkpt>
      <trkpt lat="42.84375" lon="0.50348">
        <ele>1664</ele>
        <time>2020-02-01T10:52:48.000Z</time>
      </trkpt>
      <trkpt lat="42.84375" lon="0.50348">
        <ele>1664</ele>
        <time>2020-02-01T10:52:49.000Z</time>
      </trkpt>
      <trkpt lat="42.84375" lon="0.50348">
        <ele>1664</ele>
        <time>2020-02-01T10:52:50.000Z</time>
      </trkpt>
      <trkpt lat="42.84375" lon="0.50348">
        <ele>1664</ele>
        <time>2020-02-01T10:52:51.000Z</time>
      </trkpt>
      <trkpt lat="42.84375" lon="0.50348">
        <ele>1664</ele>
        <time>2020-02-01T10:52:52.000Z</time>
      </trkpt>
      <trkpt lat="42.84375" lon="0.50348">
        <ele>1664</ele>
        <time>2020-02-01T10:52:53.000Z</time>
      </trkpt>
      <trkpt lat="42.84374" lon="0.50349">
        <ele>1664</ele>
        <time>2020-02-01T10:52:54.000Z</time>
      </trkpt>
      <trkpt lat="42.84374" lon="0.50349">
        <ele>1664</ele>
        <time>2020-02-01T10:52:55.000Z</time>
      </trkpt>
      <trkpt lat="42.84373" lon="0.50349">
        <ele>1664</ele>
        <time>2020-02-01T10:52:56.000Z</time>
      </trkpt>
      <trkpt lat="42.84373" lon="0.50349">
        <ele>1664</ele>
        <time>2020-02-01T10:52:57.000Z</time>
      </trkpt>
      <trkpt lat="42.84372" lon="0.50349">
        <ele>1664</ele>
        <time>2020-02-01T10:52:58.000Z</time>
      </trkpt>
      <trkpt lat="42.84371" lon="0.5035">
        <ele>1664</ele>
        <time>2020-02-01T10:52:59.000Z</time>
      </trkpt>
      <trkpt lat="42.84371" lon="0.5035">
        <ele>1664</ele>
        <time>2020-02-01T10:53:00.000Z</time>
      </trkpt>
      <trkpt lat="42.8437" lon="0.5035">
        <ele>1664</ele>
        <time>2020-02-01T10:53:01.000Z</time>
      </trkpt>
      <trkpt lat="42.84369" lon="0.50351">
        <ele>1664</ele>
        <time>2020-02-01T10:53:02.000Z</time>
      </trkpt>
      <trkpt lat="42.84368" lon="0.50351">
        <ele>1664</ele>
        <time>2020-02-01T10:53:03.000Z</time>
      </trkpt>
      <trkpt lat="42.84367" lon="0.50351">
        <ele>1664</ele>
        <time>2020-02-01T10:53:04.000Z</time>
      </trkpt>
      <trkpt lat="42.84366" lon="0.50352">
        <ele>1664</ele>
        <time>2020-02-01T10:53:05.000Z</time>
      </trkpt>
      <trkpt lat="42.84366" lon="0.50352">
        <ele>1664</ele>
        <time>2020-02-01T10:53:06.000Z</time>
      </trkpt>
      <trkpt lat="42.84366" lon="0.50352">
        <ele>1664</ele>
        <time>2020-02-01T10:53:07.000Z</time>
      </trkpt>
      <trkpt lat="42.84365" lon="0.50353">
        <ele>1664</ele>
        <time>2020-02-01T10:53:08.000Z</time>
      </trkpt>
      <trkpt lat="42.84365" lon="0.50354">
        <ele>1664</ele>
        <time>2020-02-01T10:53:09.000Z</time>
      </trkpt>
      <trkpt lat="42.84365" lon="0.50355">
        <ele>1664</ele>
        <time>2020-02-01T10:53:16.000Z</time>
      </trkpt>
      <trkpt lat="42.84364" lon="0.50356">
        <ele>1664</ele>
        <time>2020-02-01T10:53:17.000Z</time>
      </trkpt>
      <trkpt lat="42.84364" lon="0.50357">
        <ele>1664</ele>
        <time>2020-02-01T10:53:18.000Z</time>
      </trkpt>
      <trkpt lat="42.84364" lon="0.50357">
        <ele>1664</ele>
        <time>2020-02-01T10:53:19.000Z</time>
      </trkpt>
      <trkpt lat="42.84363" lon="0.50356">
        <ele>1664</ele>
        <time>2020-02-01T10:53:20.000Z</time>
      </trkpt>
      <trkpt lat="42.84363" lon="0.50356">
        <ele>1664</ele>
        <time>2020-02-01T10:53:21.000Z</time>
      </trkpt>
      <trkpt lat="42.84363" lon="0.50357">
        <ele>1664</ele>
        <time>2020-02-01T10:53:22.000Z</time>
      </trkpt>
      <trkpt lat="42.84362" lon="0.50358">
        <ele>1664</ele>
        <time>2020-02-01T10:53:23.000Z</time>
      </trkpt>
      <trkpt lat="42.84362" lon="0.50359">
        <ele>1664</ele>
        <time>2020-02-01T10:53:24.000Z</time>
      </trkpt>
      <trkpt lat="42.84362" lon="0.5036">
        <ele>1664</ele>
        <time>2020-02-01T10:53:25.000Z</time>
      </trkpt>
      <trkpt lat="42.84361" lon="0.5036">
        <ele>1664</ele>
        <time>2020-02-01T10:53:26.000Z</time>
      </trkpt>
      <trkpt lat="42.84361" lon="0.50361">
        <ele>1664</ele>
        <time>2020-02-01T10:53:27.000Z</time>
      </trkpt>
      <trkpt lat="42.84361" lon="0.50362">
        <ele>1664</ele>
        <time>2020-02-01T10:53:28.000Z</time>
      </trkpt>
      <trkpt lat="42.84361" lon="0.50362">
        <ele>1664</ele>
        <time>2020-02-01T10:53:29.000Z</time>
      </trkpt>
      <trkpt lat="42.84361" lon="0.50362">
        <ele>1664</ele>
        <time>2020-02-01T10:53:30.000Z</time>
      </trkpt>
      <trkpt lat="42.84361" lon="0.50363">
        <ele>1664</ele>
        <time>2020-02-01T10:53:31.000Z</time>
      </trkpt>
      <trkpt lat="42.84361" lon="0.50363">
        <ele>1664</ele>
        <time>2020-02-01T10:53:32.000Z</time>
      </trkpt>
      <trkpt lat="42.84361" lon="0.50363">
        <ele>1664</ele>
        <time>2020-02-01T10:53:33.000Z</time>
      </trkpt>
      <trkpt lat="42.84361" lon="0.50363">
        <ele>1664</ele>
        <time>2020-02-01T10:53:34.000Z</time>
      </trkpt>
      <trkpt lat="42.84361" lon="0.50363">
        <ele>1664</ele>
        <time>2020-02-01T10:53:35.000Z</time>
      </trkpt>
      <trkpt lat="42.84361" lon="0.50363">
        <ele>1664</ele>
        <time>2020-02-01T10:53:36.000Z</time>
      </trkpt>
      <trkpt lat="42.84361" lon="0.50363">
        <ele>1664</ele>
        <time>2020-02-01T10:53:37.000Z</time>
      </trkpt>
      <trkpt lat="42.84361" lon="0.50363">
        <ele>1664</ele>
        <time>2020-02-01T10:53:38.000Z</time>
      </trkpt>
      <trkpt lat="42.84362" lon="0.50363">
        <ele>1664</ele>
        <time>2020-02-01T10:53:39.000Z</time>
      </trkpt>
      <trkpt lat="42.84362" lon="0.50363">
        <ele>1665</ele>
        <time>2020-02-01T10:53:40.000Z</time>
      </trkpt>
      <trkpt lat="42.84362" lon="0.50363">
        <ele>1665</ele>
        <time>2020-02-01T10:53:41.000Z</time>
      </trkpt>
      <trkpt lat="42.84362" lon="0.50363">
        <ele>1665</ele>
        <time>2020-02-01T10:53:42.000Z</time>
      </trkpt>
      <trkpt lat="42.84362" lon="0.50363">
        <ele>1664</ele>
        <time>2020-02-01T10:53:43.000Z</time>
      </trkpt>
      <trkpt lat="42.84362" lon="0.50363">
        <ele>1664</ele>
        <time>2020-02-01T10:53:44.000Z</time>
      </trkpt>
      <trkpt lat="42.84362" lon="0.50363">
        <ele>1664</ele>
        <time>2020-02-01T10:53:45.000Z</time>
      </trkpt>
      <trkpt lat="42.84362" lon="0.50362">
        <ele>1664</ele>
        <time>2020-02-01T10:53:46.000Z</time>
      </trkpt>
      <trkpt lat="42.84362" lon="0.50362">
        <ele>1664</ele>
        <time>2020-02-01T10:53:47.000Z</time>
      </trkpt>
      <trkpt lat="42.84362" lon="0.50362">
        <ele>1664</ele>
        <time>2020-02-01T10:53:48.000Z</time>
      </trkpt>
      <trkpt lat="42.84362" lon="0.50362">
        <ele>1664</ele>
        <time>2020-02-01T10:53:49.000Z</time>
      </trkpt>
      <trkpt lat="42.84362" lon="0.50362">
        <ele>1664</ele>
        <time>2020-02-01T10:53:50.000Z</time>
      </trkpt>
      <trkpt lat="42.84362" lon="0.50361">
        <ele>1664</ele>
        <time>2020-02-01T10:53:51.000Z</time>
      </trkpt>
      <trkpt lat="42.84363" lon="0.50361">
        <ele>1664</ele>
        <time>2020-02-01T10:53:52.000Z</time>
      </trkpt>
      <trkpt lat="42.84363" lon="0.50361">
        <ele>1665</ele>
        <time>2020-02-01T10:53:53.000Z</time>
      </trkpt>
      <trkpt lat="42.84363" lon="0.50361">
        <ele>1665</ele>
        <time>2020-02-01T10:53:54.000Z</time>
      </trkpt>
      <trkpt lat="42.84364" lon="0.5036">
        <ele>1665</ele>
        <time>2020-02-01T10:53:55.000Z</time>
      </trkpt>
      <trkpt lat="42.84364" lon="0.5036">
        <ele>1665</ele>
        <time>2020-02-01T10:53:56.000Z</time>
      </trkpt>
      <trkpt lat="42.84365" lon="0.5036">
        <ele>1665</ele>
        <time>2020-02-01T10:53:57.000Z</time>
      </trkpt>
      <trkpt lat="42.84366" lon="0.50359">
        <ele>1665</ele>
        <time>2020-02-01T10:53:58.000Z</time>
      </trkpt>
      <trkpt lat="42.84366" lon="0.50359">
        <ele>1665</ele>
        <time>2020-02-01T10:53:59.000Z</time>
      </trkpt>
      <trkpt lat="42.84367" lon="0.50358">
        <ele>1665</ele>
        <time>2020-02-01T10:54:00.000Z</time>
      </trkpt>
      <trkpt lat="42.84368" lon="0.50357">
        <ele>1665</ele>
        <time>2020-02-01T10:54:01.000Z</time>
      </trkpt>
      <trkpt lat="42.84368" lon="0.50356">
        <ele>1665</ele>
        <time>2020-02-01T10:54:02.000Z</time>
      </trkpt>
      <trkpt lat="42.84369" lon="0.50356">
        <ele>1665</ele>
        <time>2020-02-01T10:54:03.000Z</time>
      </trkpt>
      <trkpt lat="42.8437" lon="0.50355">
        <ele>1665</ele>
        <time>2020-02-01T10:54:04.000Z</time>
      </trkpt>
      <trkpt lat="42.84371" lon="0.50354">
        <ele>1665</ele>
        <time>2020-02-01T10:54:05.000Z</time>
      </trkpt>
      <trkpt lat="42.84371" lon="0.50353">
        <ele>1665</ele>
        <time>2020-02-01T10:54:06.000Z</time>
      </trkpt>
      <trkpt lat="42.84372" lon="0.50352">
        <ele>1665</ele>
        <time>2020-02-01T10:54:07.000Z</time>
      </trkpt>
      <trkpt lat="42.84372" lon="0.50351">
        <ele>1665</ele>
        <time>2020-02-01T10:54:08.000Z</time>
      </trkpt>
      <trkpt lat="42.84373" lon="0.5035">
        <ele>1665</ele>
        <time>2020-02-01T10:54:09.000Z</time>
      </trkpt>
      <trkpt lat="42.84373" lon="0.50349">
        <ele>1665</ele>
        <time>2020-02-01T10:54:10.000Z</time>
      </trkpt>
      <trkpt lat="42.84373" lon="0.50349">
        <ele>1665</ele>
        <time>2020-02-01T10:54:11.000Z</time>
      </trkpt>
      <trkpt lat="42.84373" lon="0.50348">
        <ele>1665</ele>
        <time>2020-02-01T10:54:12.000Z</time>
      </trkpt>
      <trkpt lat="42.84373" lon="0.50348">
        <ele>1665</ele>
        <time>2020-02-01T10:54:13.000Z</time>
      </trkpt>
      <trkpt lat="42.84373" lon="0.50348">
        <ele>1665</ele>
        <time>2020-02-01T10:54:14.000Z</time>
      </trkpt>
      <trkpt lat="42.84373" lon="0.50348">
        <ele>1665</ele>
        <time>2020-02-01T10:54:15.000Z</time>
      </trkpt>
      <trkpt lat="42.84373" lon="0.50348">
        <ele>1664</ele>
        <time>2020-02-01T10:54:16.000Z</time>
      </trkpt>
      <trkpt lat="42.84373" lon="0.50348">
        <ele>1664</ele>
        <time>2020-02-01T10:54:17.000Z</time>
      </trkpt>
      <trkpt lat="42.84373" lon="0.50348">
        <ele>1664</ele>
        <time>2020-02-01T10:54:18.000Z</time>
      </trkpt>
      <trkpt lat="42.84372" lon="0.50348">
        <ele>1665</ele>
        <time>2020-02-01T10:54:19.000Z</time>
      </trkpt>
      <trkpt lat="42.84372" lon="0.50348">
        <ele>1665</ele>
        <time>2020-02-01T10:54:20.000Z</time>
      </trkpt>
      <trkpt lat="42.84372" lon="0.50348">
        <ele>1665</ele>
        <time>2020-02-01T10:54:21.000Z</time>
      </trkpt>
      <trkpt lat="42.84372" lon="0.50348">
        <ele>1665</ele>
        <time>2020-02-01T10:54:22.000Z</time>
      </trkpt>
      <trkpt lat="42.84372" lon="0.50348">
        <ele>1665</ele>
        <time>2020-02-01T10:54:23.000Z</time>
      </trkpt>
      <trkpt lat="42.84372" lon="0.50348">
        <ele>1665</ele>
        <time>2020-02-01T10:54:24.000Z</time>
      </trkpt>
      <trkpt lat="42.84372" lon="0.50348">
        <ele>1664</ele>
        <time>2020-02-01T10:54:25.000Z</time>
      </trkpt>
      <trkpt lat="42.84372" lon="0.50349">
        <ele>1664</ele>
        <time>2020-02-01T10:54:26.000Z</time>
      </trkpt>
      <trkpt lat="42.84372" lon="0.50349">
        <ele>1664</ele>
        <time>2020-02-01T10:54:27.000Z</time>
      </trkpt>
      <trkpt lat="42.84372" lon="0.50349">
        <ele>1664</ele>
        <time>2020-02-01T10:54:28.000Z</time>
      </trkpt>
      <trkpt lat="42.84372" lon="0.50349">
        <ele>1664</ele>
        <time>2020-02-01T10:54:29.000Z</time>
      </trkpt>
      <trkpt lat="42.84372" lon="0.50349">
        <ele>1664</ele>
        <time>2020-02-01T10:54:30.000Z</time>
      </trkpt>
      <trkpt lat="42.84372" lon="0.50349">
        <ele>1664</ele>
        <time>2020-02-01T10:54:31.000Z</time>
      </trkpt>
      <trkpt lat="42.84372" lon="0.50349">
        <ele>1664</ele>
        <time>2020-02-01T10:54:32.000Z</time>
      </trkpt>
      <trkpt lat="42.84372" lon="0.50349">
        <ele>1664</ele>
        <time>2020-02-01T10:54:33.000Z</time>
      </trkpt>
      <trkpt lat="42.84372" lon="0.50349">
        <ele>1664</ele>
        <time>2020-02-01T10:54:34.000Z</time>
      </trkpt>
      <trkpt lat="42.84372" lon="0.50349">
        <ele>1664</ele>
        <time>2020-02-01T10:54:35.000Z</time>
      </trkpt>
      <trkpt lat="42.84372" lon="0.50349">
        <ele>1664</ele>
        <time>2020-02-01T10:54:36.000Z</time>
      </trkpt>
      <trkpt lat="42.84372" lon="0.50349">
        <ele>1664</ele>
        <time>2020-02-01T10:54:37.000Z</time>
      </trkpt>
      <trkpt lat="42.84372" lon="0.50349">
        <ele>1664</ele>
        <time>2020-02-01T10:54:38.000Z</time>
      </trkpt>
      <trkpt lat="42.84372" lon="0.50349">
        <ele>1664</ele>
        <time>2020-02-01T10:54:39.000Z</time>
      </trkpt>
      <trkpt lat="42.84372" lon="0.50349">
        <ele>1664</ele>
        <time>2020-02-01T10:54:40.000Z</time>
      </trkpt>
      <trkpt lat="42.84372" lon="0.5035">
        <ele>1664</ele>
        <time>2020-02-01T10:54:41.000Z</time>
      </trkpt>
      <trkpt lat="42.84372" lon="0.5035">
        <ele>1664</ele>
        <time>2020-02-01T10:54:42.000Z</time>
      </trkpt>
      <trkpt lat="42.84372" lon="0.50351">
        <ele>1664</ele>
        <time>2020-02-01T10:54:43.000Z</time>
      </trkpt>
      <trkpt lat="42.84372" lon="0.50351">
        <ele>1664</ele>
        <time>2020-02-01T10:54:44.000Z</time>
      </trkpt>
      <trkpt lat="42.84372" lon="0.50351">
        <ele>1664</ele>
        <time>2020-02-01T10:54:45.000Z</time>
      </trkpt>
      <trkpt lat="42.84372" lon="0.50352">
        <ele>1664</ele>
        <time>2020-02-01T10:54:46.000Z</time>
      </trkpt>
      <trkpt lat="42.84372" lon="0.50352">
        <ele>1664</ele>
        <time>2020-02-01T10:54:47.000Z</time>
      </trkpt>
      <trkpt lat="42.84372" lon="0.50352">
        <ele>1664</ele>
        <time>2020-02-01T10:54:48.000Z</time>
      </trkpt>
      <trkpt lat="42.84371" lon="0.50352">
        <ele>1664</ele>
        <time>2020-02-01T10:54:49.000Z</time>
      </trkpt>
      <trkpt lat="42.84371" lon="0.50352">
        <ele>1664</ele>
        <time>2020-02-01T10:54:50.000Z</time>
      </trkpt>
      <trkpt lat="42.84371" lon="0.50353">
        <ele>1664</ele>
        <time>2020-02-01T10:55:23.000Z</time>
      </trkpt>
      <trkpt lat="42.84371" lon="0.50353">
        <ele>1664</ele>
        <time>2020-02-01T10:55:24.000Z</time>
      </trkpt>
      <trkpt lat="42.84371" lon="0.50354">
        <ele>1664</ele>
        <time>2020-02-01T10:55:25.000Z</time>
      </trkpt>
      <trkpt lat="42.8437" lon="0.50354">
        <ele>1664</ele>
        <time>2020-02-01T10:55:26.000Z</time>
      </trkpt>
      <trkpt lat="42.8437" lon="0.50354">
        <ele>1664</ele>
        <time>2020-02-01T10:55:27.000Z</time>
      </trkpt>
      <trkpt lat="42.8437" lon="0.50354">
        <ele>1664</ele>
        <time>2020-02-01T10:55:28.000Z</time>
      </trkpt>
      <trkpt lat="42.8437" lon="0.50354">
        <ele>1664</ele>
        <time>2020-02-01T10:55:29.000Z</time>
      </trkpt>
      <trkpt lat="42.8437" lon="0.50354">
        <ele>1664</ele>
        <time>2020-02-01T10:55:30.000Z</time>
      </trkpt>
      <trkpt lat="42.8437" lon="0.50354">
        <ele>1664</ele>
        <time>2020-02-01T10:55:31.000Z</time>
      </trkpt>
      <trkpt lat="42.8437" lon="0.50354">
        <ele>1664</ele>
        <time>2020-02-01T10:55:32.000Z</time>
      </trkpt>
      <trkpt lat="42.8437" lon="0.50354">
        <ele>1664</ele>
        <time>2020-02-01T10:55:33.000Z</time>
      </trkpt>
      <trkpt lat="42.8437" lon="0.50354">
        <ele>1664</ele>
        <time>2020-02-01T10:55:34.000Z</time>
      </trkpt>
      <trkpt lat="42.8437" lon="0.50354">
        <ele>1664</ele>
        <time>2020-02-01T10:55:35.000Z</time>
      </trkpt>
      <trkpt lat="42.8437" lon="0.50354">
        <ele>1664</ele>
        <time>2020-02-01T10:55:36.000Z</time>
      </trkpt>
      <trkpt lat="42.8437" lon="0.50354">
        <ele>1664</ele>
        <time>2020-02-01T10:55:37.000Z</time>
      </trkpt>
      <trkpt lat="42.8437" lon="0.50354">
        <ele>1664</ele>
        <time>2020-02-01T10:55:38.000Z</time>
      </trkpt>
      <trkpt lat="42.8437" lon="0.50354">
        <ele>1664</ele>
        <time>2020-02-01T10:55:39.000Z</time>
      </trkpt>
      <trkpt lat="42.8437" lon="0.50354">
        <ele>1664</ele>
        <time>2020-02-01T10:55:40.000Z</time>
      </trkpt>
      <trkpt lat="42.8437" lon="0.50353">
        <ele>1664</ele>
        <time>2020-02-01T10:55:41.000Z</time>
      </trkpt>
      <trkpt lat="42.8437" lon="0.50353">
        <ele>1664</ele>
        <time>2020-02-01T10:55:42.000Z</time>
      </trkpt>
      <trkpt lat="42.8437" lon="0.50353">
        <ele>1664</ele>
        <time>2020-02-01T10:55:43.000Z</time>
      </trkpt>
      <trkpt lat="42.84369" lon="0.50352">
        <ele>1664</ele>
        <time>2020-02-01T10:55:44.000Z</time>
      </trkpt>
      <trkpt lat="42.84369" lon="0.50352">
        <ele>1664</ele>
        <time>2020-02-01T10:55:45.000Z</time>
      </trkpt>
      <trkpt lat="42.84369" lon="0.50351">
        <ele>1664</ele>
        <time>2020-02-01T10:55:46.000Z</time>
      </trkpt>
      <trkpt lat="42.84369" lon="0.50351">
        <ele>1664</ele>
        <time>2020-02-01T10:55:47.000Z</time>
      </trkpt>
      <trkpt lat="42.84368" lon="0.50352">
        <ele>1664</ele>
        <time>2020-02-01T10:55:48.000Z</time>
      </trkpt>
      <trkpt lat="42.84368" lon="0.50352">
        <ele>1664</ele>
        <time>2020-02-01T10:55:49.000Z</time>
      </trkpt>
      <trkpt lat="42.84367" lon="0.50353">
        <ele>1664</ele>
        <time>2020-02-01T10:55:50.000Z</time>
      </trkpt>
      <trkpt lat="42.84367" lon="0.50353">
        <ele>1664</ele>
        <time>2020-02-01T10:55:51.000Z</time>
      </trkpt>
      <trkpt lat="42.84366" lon="0.50354">
        <ele>1664</ele>
        <time>2020-02-01T10:55:52.000Z</time>
      </trkpt>
      <trkpt lat="42.84366" lon="0.50355">
        <ele>1664</ele>
        <time>2020-02-01T10:55:53.000Z</time>
      </trkpt>
      <trkpt lat="42.84366" lon="0.50356">
        <ele>1663</ele>
        <time>2020-02-01T10:55:54.000Z</time>
      </trkpt>
      <trkpt lat="42.84366" lon="0.50356">
        <ele>1663</ele>
        <time>2020-02-01T10:55:55.000Z</time>
      </trkpt>
      <trkpt lat="42.84366" lon="0.50356">
        <ele>1663</ele>
        <time>2020-02-01T10:55:56.000Z</time>
      </trkpt>
      <trkpt lat="42.84366" lon="0.50355">
        <ele>1663</ele>
        <time>2020-02-01T10:55:57.000Z</time>
      </trkpt>
      <trkpt lat="42.84367" lon="0.50355">
        <ele>1664</ele>
        <time>2020-02-01T10:56:24.000Z</time>
      </trkpt>
      <trkpt lat="42.84367" lon="0.50354">
        <ele>1664</ele>
        <time>2020-02-01T10:56:25.000Z</time>
      </trkpt>
      <trkpt lat="42.84368" lon="0.50353">
        <ele>1664</ele>
        <time>2020-02-01T10:56:26.000Z</time>
      </trkpt>
      <trkpt lat="42.84369" lon="0.50352">
        <ele>1664</ele>
        <time>2020-02-01T10:56:27.000Z</time>
      </trkpt>
      <trkpt lat="42.84369" lon="0.50352">
        <ele>1664</ele>
        <time>2020-02-01T10:56:28.000Z</time>
      </trkpt>
      <trkpt lat="42.84369" lon="0.50352">
        <ele>1664</ele>
        <time>2020-02-01T10:56:29.000Z</time>
      </trkpt>
      <trkpt lat="42.84369" lon="0.50351">
        <ele>1664</ele>
        <time>2020-02-01T10:56:30.000Z</time>
      </trkpt>
      <trkpt lat="42.8437" lon="0.50351">
        <ele>1664</ele>
        <time>2020-02-01T10:56:31.000Z</time>
      </trkpt>
      <trkpt lat="42.8437" lon="0.50352">
        <ele>1664</ele>
        <time>2020-02-01T10:56:32.000Z</time>
      </trkpt>
      <trkpt lat="42.8437" lon="0.50352">
        <ele>1664</ele>
        <time>2020-02-01T10:56:33.000Z</time>
      </trkpt>
      <trkpt lat="42.8437" lon="0.50352">
        <ele>1664</ele>
        <time>2020-02-01T10:56:34.000Z</time>
      </trkpt>
      <trkpt lat="42.84371" lon="0.50353">
        <ele>1663</ele>
        <time>2020-02-01T10:56:35.000Z</time>
      </trkpt>
      <trkpt lat="42.84371" lon="0.50354">
        <ele>1663</ele>
        <time>2020-02-01T10:56:36.000Z</time>
      </trkpt>
      <trkpt lat="42.84371" lon="0.50355">
        <ele>1663</ele>
        <time>2020-02-01T10:56:37.000Z</time>
      </trkpt>
      <trkpt lat="42.84372" lon="0.50356">
        <ele>1663</ele>
        <time>2020-02-01T10:56:38.000Z</time>
      </trkpt>
      <trkpt lat="42.84373" lon="0.50357">
        <ele>1664</ele>
        <time>2020-02-01T10:56:39.000Z</time>
      </trkpt>
      <trkpt lat="42.84373" lon="0.50358">
        <ele>1664</ele>
        <time>2020-02-01T10:56:40.000Z</time>
      </trkpt>
      <trkpt lat="42.84374" lon="0.50359">
        <ele>1664</ele>
        <time>2020-02-01T10:56:41.000Z</time>
      </trkpt>
      <trkpt lat="42.84374" lon="0.5036">
        <ele>1664</ele>
        <time>2020-02-01T10:56:42.000Z</time>
      </trkpt>
      <trkpt lat="42.84375" lon="0.50361">
        <ele>1664</ele>
        <time>2020-02-01T10:56:43.000Z</time>
      </trkpt>
      <trkpt lat="42.84375" lon="0.50361">
        <ele>1664</ele>
        <time>2020-02-01T10:56:44.000Z</time>
      </trkpt>
      <trkpt lat="42.84376" lon="0.50362">
        <ele>1664</ele>
        <time>2020-02-01T10:56:45.000Z</time>
      </trkpt>
      <trkpt lat="42.84376" lon="0.50362">
        <ele>1664</ele>
        <time>2020-02-01T10:56:46.000Z</time>
      </trkpt>
      <trkpt lat="42.84376" lon="0.50362">
        <ele>1664</ele>
        <time>2020-02-01T10:56:47.000Z</time>
      </trkpt>
      <trkpt lat="42.84376" lon="0.50362">
        <ele>1664</ele>
        <time>2020-02-01T10:56:48.000Z</time>
      </trkpt>
      <trkpt lat="42.84377" lon="0.50361">
        <ele>1664</ele>
        <time>2020-02-01T10:56:49.000Z</time>
      </trkpt>
      <trkpt lat="42.84377" lon="0.50361">
        <ele>1664</ele>
        <time>2020-02-01T10:56:50.000Z</time>
      </trkpt>
      <trkpt lat="42.84377" lon="0.5036">
        <ele>1664</ele>
        <time>2020-02-01T10:56:51.000Z</time>
      </trkpt>
      <trkpt lat="42.84377" lon="0.50359">
        <ele>1664</ele>
        <time>2020-02-01T10:56:52.000Z</time>
      </trkpt>
      <trkpt lat="42.84378" lon="0.50359">
        <ele>1664</ele>
        <time>2020-02-01T10:56:53.000Z</time>
      </trkpt>
      <trkpt lat="42.84378" lon="0.50358">
        <ele>1664</ele>
        <time>2020-02-01T10:56:54.000Z</time>
      </trkpt>
      <trkpt lat="42.84379" lon="0.50358">
        <ele>1664</ele>
        <time>2020-02-01T10:56:55.000Z</time>
      </trkpt>
      <trkpt lat="42.84379" lon="0.50357">
        <ele>1663</ele>
        <time>2020-02-01T10:56:56.000Z</time>
      </trkpt>
      <trkpt lat="42.8438" lon="0.50357">
        <ele>1663</ele>
        <time>2020-02-01T10:56:57.000Z</time>
      </trkpt>
      <trkpt lat="42.8438" lon="0.50357">
        <ele>1663</ele>
        <time>2020-02-01T10:56:58.000Z</time>
      </trkpt>
      <trkpt lat="42.84381" lon="0.50356">
        <ele>1663</ele>
        <time>2020-02-01T10:56:59.000Z</time>
      </trkpt>
      <trkpt lat="42.84381" lon="0.50356">
        <ele>1663</ele>
        <time>2020-02-01T10:57:00.000Z</time>
      </trkpt>
      <trkpt lat="42.84382" lon="0.50356">
        <ele>1663</ele>
        <time>2020-02-01T10:57:01.000Z</time>
      </trkpt>
      <trkpt lat="42.84382" lon="0.50356">
        <ele>1663</ele>
        <time>2020-02-01T10:57:02.000Z</time>
      </trkpt>
      <trkpt lat="42.84382" lon="0.50355">
        <ele>1663</ele>
        <time>2020-02-01T10:57:03.000Z</time>
      </trkpt>
      <trkpt lat="42.84381" lon="0.50355">
        <ele>1663</ele>
        <time>2020-02-01T10:57:04.000Z</time>
      </trkpt>
      <trkpt lat="42.84381" lon="0.50355">
        <ele>1663</ele>
        <time>2020-02-01T10:57:05.000Z</time>
      </trkpt>
      <trkpt lat="42.8438" lon="0.50354">
        <ele>1663</ele>
        <time>2020-02-01T10:57:06.000Z</time>
      </trkpt>
      <trkpt lat="42.84379" lon="0.50354">
        <ele>1663</ele>
        <time>2020-02-01T10:57:07.000Z</time>
      </trkpt>
      <trkpt lat="42.84379" lon="0.50354">
        <ele>1664</ele>
        <time>2020-02-01T10:57:08.000Z</time>
      </trkpt>
      <trkpt lat="42.84378" lon="0.50354">
        <ele>1664</ele>
        <time>2020-02-01T10:57:09.000Z</time>
      </trkpt>
      <trkpt lat="42.84377" lon="0.50354">
        <ele>1664</ele>
        <time>2020-02-01T10:57:10.000Z</time>
      </trkpt>
      <trkpt lat="42.84377" lon="0.50354">
        <ele>1664</ele>
        <time>2020-02-01T10:57:11.000Z</time>
      </trkpt>
      <trkpt lat="42.84376" lon="0.50355">
        <ele>1664</ele>
        <time>2020-02-01T10:57:12.000Z</time>
      </trkpt>
      <trkpt lat="42.84376" lon="0.50355">
        <ele>1664</ele>
        <time>2020-02-01T10:57:13.000Z</time>
      </trkpt>
      <trkpt lat="42.84375" lon="0.50355">
        <ele>1664</ele>
        <time>2020-02-01T10:57:14.000Z</time>
      </trkpt>
      <trkpt lat="42.84375" lon="0.50355">
        <ele>1663</ele>
        <time>2020-02-01T10:57:15.000Z</time>
      </trkpt>
      <trkpt lat="42.84375" lon="0.50355">
        <ele>1663</ele>
        <time>2020-02-01T10:57:16.000Z</time>
      </trkpt>
      <trkpt lat="42.84375" lon="0.50354">
        <ele>1663</ele>
        <time>2020-02-01T10:57:17.000Z</time>
      </trkpt>
      <trkpt lat="42.84375" lon="0.50354">
        <ele>1663</ele>
        <time>2020-02-01T10:57:18.000Z</time>
      </trkpt>
      <trkpt lat="42.84375" lon="0.50353">
        <ele>1663</ele>
        <time>2020-02-01T10:57:19.000Z</time>
      </trkpt>
      <trkpt lat="42.84375" lon="0.50352">
        <ele>1663</ele>
        <time>2020-02-01T10:57:20.000Z</time>
      </trkpt>
      <trkpt lat="42.84375" lon="0.50351">
        <ele>1663</ele>
        <time>2020-02-01T10:57:21.000Z</time>
      </trkpt>
      <trkpt lat="42.84375" lon="0.5035">
        <ele>1663</ele>
        <time>2020-02-01T10:57:22.000Z</time>
      </trkpt>
      <trkpt lat="42.84375" lon="0.50349">
        <ele>1663</ele>
        <time>2020-02-01T10:57:23.000Z</time>
      </trkpt>
      <trkpt lat="42.84375" lon="0.50348">
        <ele>1663</ele>
        <time>2020-02-01T10:57:24.000Z</time>
      </trkpt>
      <trkpt lat="42.84375" lon="0.50348">
        <ele>1663</ele>
        <time>2020-02-01T10:57:25.000Z</time>
      </trkpt>
      <trkpt lat="42.84375" lon="0.50347">
        <ele>1663</ele>
        <time>2020-02-01T10:57:26.000Z</time>
      </trkpt>
      <trkpt lat="42.84375" lon="0.50346">
        <ele>1663</ele>
        <time>2020-02-01T10:57:27.000Z</time>
      </trkpt>
      <trkpt lat="42.84375" lon="0.50346">
        <ele>1663</ele>
        <time>2020-02-01T10:57:28.000Z</time>
      </trkpt>
      <trkpt lat="42.84375" lon="0.50346">
        <ele>1663</ele>
        <time>2020-02-01T10:57:29.000Z</time>
      </trkpt>
      <trkpt lat="42.84375" lon="0.50346">
        <ele>1663</ele>
        <time>2020-02-01T10:57:30.000Z</time>
      </trkpt>
      <trkpt lat="42.84375" lon="0.50346">
        <ele>1664</ele>
        <time>2020-02-01T10:57:31.000Z</time>
      </trkpt>
      <trkpt lat="42.84375" lon="0.50346">
        <ele>1663</ele>
        <time>2020-02-01T10:57:32.000Z</time>
      </trkpt>
      <trkpt lat="42.84375" lon="0.50346">
        <ele>1663</ele>
        <time>2020-02-01T10:57:33.000Z</time>
      </trkpt>
      <trkpt lat="42.84376" lon="0.50347">
        <ele>1663</ele>
        <time>2020-02-01T10:57:34.000Z</time>
      </trkpt>
      <trkpt lat="42.84376" lon="0.50348">
        <ele>1664</ele>
        <time>2020-02-01T10:57:35.000Z</time>
      </trkpt>
      <trkpt lat="42.84376" lon="0.50348">
        <ele>1663</ele>
        <time>2020-02-01T10:57:36.000Z</time>
      </trkpt>
      <trkpt lat="42.84376" lon="0.50349">
        <ele>1663</ele>
        <time>2020-02-01T10:57:37.000Z</time>
      </trkpt>
      <trkpt lat="42.84376" lon="0.5035">
        <ele>1663</ele>
        <time>2020-02-01T10:57:38.000Z</time>
      </trkpt>
      <trkpt lat="42.84376" lon="0.5035">
        <ele>1663</ele>
        <time>2020-02-01T10:57:39.000Z</time>
      </trkpt>
      <trkpt lat="42.84376" lon="0.5035">
        <ele>1663</ele>
        <time>2020-02-01T10:57:40.000Z</time>
      </trkpt>
      <trkpt lat="42.84376" lon="0.5035">
        <ele>1663</ele>
        <time>2020-02-01T10:57:41.000Z</time>
      </trkpt>
      <trkpt lat="42.84376" lon="0.5035">
        <ele>1663</ele>
        <time>2020-02-01T10:57:42.000Z</time>
      </trkpt>
      <trkpt lat="42.84376" lon="0.5035">
        <ele>1663</ele>
        <time>2020-02-01T10:57:43.000Z</time>
      </trkpt>
      <trkpt lat="42.84376" lon="0.5035">
        <ele>1663</ele>
        <time>2020-02-01T10:57:44.000Z</time>
      </trkpt>
      <trkpt lat="42.84376" lon="0.5035">
        <ele>1663</ele>
        <time>2020-02-01T10:57:45.000Z</time>
      </trkpt>
      <trkpt lat="42.84375" lon="0.5035">
        <ele>1664</ele>
        <time>2020-02-01T10:57:46.000Z</time>
      </trkpt>
      <trkpt lat="42.84375" lon="0.5035">
        <ele>1664</ele>
        <time>2020-02-01T10:57:47.000Z</time>
      </trkpt>
      <trkpt lat="42.84375" lon="0.5035">
        <ele>1663</ele>
        <time>2020-02-01T10:57:48.000Z</time>
      </trkpt>
      <trkpt lat="42.84375" lon="0.50351">
        <ele>1663</ele>
        <time>2020-02-01T10:57:49.000Z</time>
      </trkpt>
      <trkpt lat="42.84374" lon="0.50351">
        <ele>1663</ele>
        <time>2020-02-01T10:57:50.000Z</time>
      </trkpt>
      <trkpt lat="42.84374" lon="0.50351">
        <ele>1663</ele>
        <time>2020-02-01T10:57:51.000Z</time>
      </trkpt>
      <trkpt lat="42.84373" lon="0.50351">
        <ele>1663</ele>
        <time>2020-02-01T10:57:52.000Z</time>
      </trkpt>
      <trkpt lat="42.84373" lon="0.50351">
        <ele>1663</ele>
        <time>2020-02-01T10:57:53.000Z</time>
      </trkpt>
      <trkpt lat="42.84373" lon="0.50351">
        <ele>1663</ele>
        <time>2020-02-01T10:57:54.000Z</time>
      </trkpt>
      <trkpt lat="42.84373" lon="0.5035">
        <ele>1663</ele>
        <time>2020-02-01T10:57:55.000Z</time>
      </trkpt>
      <trkpt lat="42.84373" lon="0.5035">
        <ele>1663</ele>
        <time>2020-02-01T10:57:56.000Z</time>
      </trkpt>
      <trkpt lat="42.84373" lon="0.5035">
        <ele>1663</ele>
        <time>2020-02-01T10:57:57.000Z</time>
      </trkpt>
      <trkpt lat="42.84373" lon="0.50349">
        <ele>1663</ele>
        <time>2020-02-01T10:57:58.000Z</time>
      </trkpt>
      <trkpt lat="42.84373" lon="0.50349">
        <ele>1663</ele>
        <time>2020-02-01T10:57:59.000Z</time>
      </trkpt>
      <trkpt lat="42.84374" lon="0.50348">
        <ele>1663</ele>
        <time>2020-02-01T10:58:00.000Z</time>
      </trkpt>
      <trkpt lat="42.84374" lon="0.50347">
        <ele>1663</ele>
        <time>2020-02-01T10:58:01.000Z</time>
      </trkpt>
      <trkpt lat="42.84374" lon="0.50347">
        <ele>1664</ele>
        <time>2020-02-01T10:58:02.000Z</time>
      </trkpt>
      <trkpt lat="42.84374" lon="0.50346">
        <ele>1664</ele>
        <time>2020-02-01T10:58:03.000Z</time>
      </trkpt>
      <trkpt lat="42.84375" lon="0.50346">
        <ele>1664</ele>
        <time>2020-02-01T10:58:04.000Z</time>
      </trkpt>
      <trkpt lat="42.84375" lon="0.50345">
        <ele>1663</ele>
        <time>2020-02-01T10:58:05.000Z</time>
      </trkpt>
      <trkpt lat="42.84375" lon="0.50345">
        <ele>1663</ele>
        <time>2020-02-01T10:58:06.000Z</time>
      </trkpt>
      <trkpt lat="42.84375" lon="0.50344">
        <ele>1663</ele>
        <time>2020-02-01T10:58:07.000Z</time>
      </trkpt>
      <trkpt lat="42.84375" lon="0.50344">
        <ele>1664</ele>
        <time>2020-02-01T10:58:08.000Z</time>
      </trkpt>
      <trkpt lat="42.84375" lon="0.50343">
        <ele>1664</ele>
        <time>2020-02-01T10:58:09.000Z</time>
      </trkpt>
      <trkpt lat="42.84375" lon="0.50343">
        <ele>1664</ele>
        <time>2020-02-01T10:58:10.000Z</time>
      </trkpt>
      <trkpt lat="42.84375" lon="0.50343">
        <ele>1664</ele>
        <time>2020-02-01T10:58:11.000Z</time>
      </trkpt>
      <trkpt lat="42.84374" lon="0.50343">
        <ele>1664</ele>
        <time>2020-02-01T10:58:12.000Z</time>
      </trkpt>
      <trkpt lat="42.84374" lon="0.50343">
        <ele>1664</ele>
        <time>2020-02-01T10:58:13.000Z</time>
      </trkpt>
      <trkpt lat="42.84374" lon="0.50343">
        <ele>1663</ele>
        <time>2020-02-01T10:58:14.000Z</time>
      </trkpt>
      <trkpt lat="42.84373" lon="0.50343">
        <ele>1663</ele>
        <time>2020-02-01T10:58:15.000Z</time>
      </trkpt>
      <trkpt lat="42.84373" lon="0.50343">
        <ele>1663</ele>
        <time>2020-02-01T10:58:16.000Z</time>
      </trkpt>
      <trkpt lat="42.84373" lon="0.50343">
        <ele>1663</ele>
        <time>2020-02-01T10:58:17.000Z</time>
      </trkpt>
      <trkpt lat="42.84373" lon="0.50343">
        <ele>1663</ele>
        <time>2020-02-01T10:58:18.000Z</time>
      </trkpt>
      <trkpt lat="42.84373" lon="0.50343">
        <ele>1663</ele>
        <time>2020-02-01T10:58:19.000Z</time>
      </trkpt>
      <trkpt lat="42.84373" lon="0.50342">
        <ele>1663</ele>
        <time>2020-02-01T10:58:20.000Z</time>
      </trkpt>
      <trkpt lat="42.84373" lon="0.50342">
        <ele>1663</ele>
        <time>2020-02-01T10:58:21.000Z</time>
      </trkpt>
      <trkpt lat="42.84373" lon="0.50342">
        <ele>1663</ele>
        <time>2020-02-01T10:58:22.000Z</time>
      </trkpt>
      <trkpt lat="42.84373" lon="0.50342">
        <ele>1663</ele>
        <time>2020-02-01T10:58:23.000Z</time>
      </trkpt>
      <trkpt lat="42.84372" lon="0.50342">
        <ele>1663</ele>
        <time>2020-02-01T10:58:24.000Z</time>
      </trkpt>
      <trkpt lat="42.84372" lon="0.50342">
        <ele>1663</ele>
        <time>2020-02-01T10:58:25.000Z</time>
      </trkpt>
      <trkpt lat="42.84372" lon="0.50342">
        <ele>1663</ele>
        <time>2020-02-01T10:58:26.000Z</time>
      </trkpt>
      <trkpt lat="42.84371" lon="0.50343">
        <ele>1663</ele>
        <time>2020-02-01T10:58:27.000Z</time>
      </trkpt>
      <trkpt lat="42.84371" lon="0.50343">
        <ele>1663</ele>
        <time>2020-02-01T10:58:28.000Z</time>
      </trkpt>
      <trkpt lat="42.8437" lon="0.50343">
        <ele>1663</ele>
        <time>2020-02-01T10:58:29.000Z</time>
      </trkpt>
      <trkpt lat="42.8437" lon="0.50344">
        <ele>1663</ele>
        <time>2020-02-01T10:58:30.000Z</time>
      </trkpt>
      <trkpt lat="42.84369" lon="0.50344">
        <ele>1663</ele>
        <time>2020-02-01T10:58:31.000Z</time>
      </trkpt>
      <trkpt lat="42.84369" lon="0.50345">
        <ele>1663</ele>
        <time>2020-02-01T10:58:32.000Z</time>
      </trkpt>
      <trkpt lat="42.84369" lon="0.50346">
        <ele>1663</ele>
        <time>2020-02-01T10:58:33.000Z</time>
      </trkpt>
      <trkpt lat="42.84368" lon="0.50346">
        <ele>1663</ele>
        <time>2020-02-01T10:58:34.000Z</time>
      </trkpt>
      <trkpt lat="42.84368" lon="0.50347">
        <ele>1663</ele>
        <time>2020-02-01T10:58:35.000Z</time>
      </trkpt>
      <trkpt lat="42.84368" lon="0.50347">
        <ele>1663</ele>
        <time>2020-02-01T10:58:36.000Z</time>
      </trkpt>
      <trkpt lat="42.84367" lon="0.50348">
        <ele>1663</ele>
        <time>2020-02-01T10:58:37.000Z</time>
      </trkpt>
      <trkpt lat="42.84367" lon="0.50349">
        <ele>1664</ele>
        <time>2020-02-01T10:58:38.000Z</time>
      </trkpt>
      <trkpt lat="42.84367" lon="0.50349">
        <ele>1664</ele>
        <time>2020-02-01T10:58:39.000Z</time>
      </trkpt>
      <trkpt lat="42.84367" lon="0.5035">
        <ele>1664</ele>
        <time>2020-02-01T10:58:40.000Z</time>
      </trkpt>
      <trkpt lat="42.84367" lon="0.5035">
        <ele>1664</ele>
        <time>2020-02-01T10:58:41.000Z</time>
      </trkpt>
      <trkpt lat="42.84367" lon="0.50351">
        <ele>1664</ele>
        <time>2020-02-01T10:58:42.000Z</time>
      </trkpt>
      <trkpt lat="42.84367" lon="0.50351">
        <ele>1664</ele>
        <time>2020-02-01T10:58:43.000Z</time>
      </trkpt>
      <trkpt lat="42.84367" lon="0.50351">
        <ele>1664</ele>
        <time>2020-02-01T10:58:44.000Z</time>
      </trkpt>
      <trkpt lat="42.84367" lon="0.50352">
        <ele>1663</ele>
        <time>2020-02-01T10:58:45.000Z</time>
      </trkpt>
      <trkpt lat="42.84367" lon="0.50352">
        <ele>1663</ele>
        <time>2020-02-01T10:58:46.000Z</time>
      </trkpt>
      <trkpt lat="42.84367" lon="0.50352">
        <ele>1663</ele>
        <time>2020-02-01T10:58:47.000Z</time>
      </trkpt>
      <trkpt lat="42.84367" lon="0.50352">
        <ele>1663</ele>
        <time>2020-02-01T10:58:48.000Z</time>
      </trkpt>
      <trkpt lat="42.84367" lon="0.50352">
        <ele>1663</ele>
        <time>2020-02-01T10:58:49.000Z</time>
      </trkpt>
      <trkpt lat="42.84368" lon="0.50353">
        <ele>1663</ele>
        <time>2020-02-01T10:58:50.000Z</time>
      </trkpt>
      <trkpt lat="42.84368" lon="0.50353">
        <ele>1664</ele>
        <time>2020-02-01T10:58:51.000Z</time>
      </trkpt>
      <trkpt lat="42.84368" lon="0.50353">
        <ele>1664</ele>
        <time>2020-02-01T10:58:52.000Z</time>
      </trkpt>
      <trkpt lat="42.84369" lon="0.50353">
        <ele>1664</ele>
        <time>2020-02-01T10:58:53.000Z</time>
      </trkpt>
      <trkpt lat="42.84369" lon="0.50353">
        <ele>1664</ele>
        <time>2020-02-01T10:58:54.000Z</time>
      </trkpt>
      <trkpt lat="42.84369" lon="0.50353">
        <ele>1664</ele>
        <time>2020-02-01T10:58:55.000Z</time>
      </trkpt>
      <trkpt lat="42.84369" lon="0.50353">
        <ele>1664</ele>
        <time>2020-02-01T10:58:56.000Z</time>
      </trkpt>
      <trkpt lat="42.8437" lon="0.50353">
        <ele>1664</ele>
        <time>2020-02-01T10:58:57.000Z</time>
      </trkpt>
      <trkpt lat="42.8437" lon="0.50353">
        <ele>1664</ele>
        <time>2020-02-01T10:58:58.000Z</time>
      </trkpt>
      <trkpt lat="42.8437" lon="0.50353">
        <ele>1664</ele>
        <time>2020-02-01T10:58:59.000Z</time>
      </trkpt>
      <trkpt lat="42.84371" lon="0.50353">
        <ele>1664</ele>
        <time>2020-02-01T10:59:00.000Z</time>
      </trkpt>
      <trkpt lat="42.84371" lon="0.50352">
        <ele>1664</ele>
        <time>2020-02-01T10:59:01.000Z</time>
      </trkpt>
      <trkpt lat="42.84372" lon="0.50351">
        <ele>1663</ele>
        <time>2020-02-01T10:59:02.000Z</time>
      </trkpt>
      <trkpt lat="42.84372" lon="0.50351">
        <ele>1663</ele>
        <time>2020-02-01T10:59:03.000Z</time>
      </trkpt>
      <trkpt lat="42.84373" lon="0.5035">
        <ele>1664</ele>
        <time>2020-02-01T10:59:04.000Z</time>
      </trkpt>
      <trkpt lat="42.84373" lon="0.5035">
        <ele>1664</ele>
        <time>2020-02-01T10:59:05.000Z</time>
      </trkpt>
      <trkpt lat="42.84374" lon="0.5035">
        <ele>1663.5</ele>
        <time>2020-02-01T10:59:06.000Z</time>
      </trkpt>
      <trkpt lat="42.84374" lon="0.5035">
        <ele>1663</ele>
        <time>2020-02-01T10:59:07.000Z</time>
      </trkpt>
      <trkpt lat="42.84374" lon="0.50349">
        <ele>1663</ele>
        <time>2020-02-01T10:59:08.000Z</time>
      </trkpt>
      <trkpt lat="42.84375" lon="0.50349">
        <ele>1663</ele>
        <time>2020-02-01T10:59:09.000Z</time>
      </trkpt>
      <trkpt lat="42.84375" lon="0.50348">
        <ele>1663</ele>
        <time>2020-02-01T10:59:10.000Z</time>
      </trkpt>
      <trkpt lat="42.84375" lon="0.50348">
        <ele>1663.3</ele>
        <time>2020-02-01T10:59:11.000Z</time>
      </trkpt>
      <trkpt lat="42.84375" lon="0.50347">
        <ele>1663.7</ele>
        <time>2020-02-01T10:59:12.000Z</time>
      </trkpt>
      <trkpt lat="42.84374" lon="0.50347">
        <ele>1664</ele>
        <time>2020-02-01T10:59:13.000Z</time>
      </trkpt>
      <trkpt lat="42.84374" lon="0.50346">
        <ele>1664</ele>
        <time>2020-02-01T10:59:14.000Z</time>
      </trkpt>
      <trkpt lat="42.84374" lon="0.50346">
        <ele>1664</ele>
        <time>2020-02-01T10:59:15.000Z</time>
      </trkpt>
      <trkpt lat="42.84374" lon="0.50345">
        <ele>1664</ele>
        <time>2020-02-01T10:59:16.000Z</time>
      </trkpt>
      <trkpt lat="42.84374" lon="0.50345">
        <ele>1664</ele>
        <time>2020-02-01T10:59:17.000Z</time>
      </trkpt>
      <trkpt lat="42.84374" lon="0.50344">
        <ele>1664</ele>
        <time>2020-02-01T10:59:18.000Z</time>
      </trkpt>
      <trkpt lat="42.84374" lon="0.50344">
        <ele>1664</ele>
        <time>2020-02-01T10:59:19.000Z</time>
      </trkpt>
      <trkpt lat="42.84373" lon="0.50344">
        <ele>1664</ele>
        <time>2020-02-01T10:59:20.000Z</time>
      </trkpt>
      <trkpt lat="42.84373" lon="0.50344">
        <ele>1664</ele>
        <time>2020-02-01T10:59:21.000Z</time>
      </trkpt>
      <trkpt lat="42.84373" lon="0.50344">
        <ele>1664</ele>
        <time>2020-02-01T10:59:22.000Z</time>
      </trkpt>
      <trkpt lat="42.84373" lon="0.50344">
        <ele>1664</ele>
        <time>2020-02-01T10:59:23.000Z</time>
      </trkpt>
      <trkpt lat="42.84373" lon="0.50344">
        <ele>1664</ele>
        <time>2020-02-01T10:59:24.000Z</time>
      </trkpt>
      <trkpt lat="42.84373" lon="0.50344">
        <ele>1664</ele>
        <time>2020-02-01T10:59:25.000Z</time>
      </trkpt>
      <trkpt lat="42.84373" lon="0.50344">
        <ele>1664</ele>
        <time>2020-02-01T10:59:26.000Z</time>
      </trkpt>
      <trkpt lat="42.84373" lon="0.50344">
        <ele>1664</ele>
        <time>2020-02-01T10:59:27.000Z</time>
      </trkpt>
      <trkpt lat="42.84373" lon="0.50344">
        <ele>1664</ele>
        <time>2020-02-01T10:59:28.000Z</time>
      </trkpt>
      <trkpt lat="42.84373" lon="0.50344">
        <ele>1664</ele>
        <time>2020-02-01T10:59:29.000Z</time>
      </trkpt>
      <trkpt lat="42.84373" lon="0.50344">
        <ele>1663.5</ele>
        <time>2020-02-01T10:59:30.000Z</time>
      </trkpt>
      <trkpt lat="42.84373" lon="0.50343">
        <ele>1663</ele>
        <time>2020-02-01T10:59:31.000Z</time>
      </trkpt>
      <trkpt lat="42.84373" lon="0.50343">
        <ele>1663</ele>
        <time>2020-02-01T10:59:32.000Z</time>
      </trkpt>
      <trkpt lat="42.84373" lon="0.50343">
        <ele>1663</ele>
        <time>2020-02-01T10:59:33.000Z</time>
      </trkpt>
      <trkpt lat="42.84374" lon="0.50343">
        <ele>1663</ele>
        <time>2020-02-01T10:59:35.000Z</time>
      </trkpt>
      <trkpt lat="42.84374" lon="0.50342">
        <ele>1663</ele>
        <time>2020-02-01T10:59:36.000Z</time>
      </trkpt>
      <trkpt lat="42.84375" lon="0.50342">
        <ele>1663</ele>
        <time>2020-02-01T10:59:37.000Z</time>
      </trkpt>
      <trkpt lat="42.84375" lon="0.50342">
        <ele>1663</ele>
        <time>2020-02-01T10:59:38.000Z</time>
      </trkpt>
      <trkpt lat="42.84375" lon="0.50342">
        <ele>1663</ele>
        <time>2020-02-01T10:59:39.000Z</time>
      </trkpt>
      <trkpt lat="42.84375" lon="0.50342">
        <ele>1663</ele>
        <time>2020-02-01T10:59:40.000Z</time>
      </trkpt>
      <trkpt lat="42.84375" lon="0.50342">
        <ele>1663</ele>
        <time>2020-02-01T10:59:41.000Z</time>
      </trkpt>
      <trkpt lat="42.84375" lon="0.50342">
        <ele>1662.5</ele>
        <time>2020-02-01T10:59:42.000Z</time>
      </trkpt>
      <trkpt lat="42.84375" lon="0.50342">
        <ele>1662</ele>
        <time>2020-02-01T10:59:43.000Z</time>
      </trkpt>
      <trkpt lat="42.84375" lon="0.50342">
        <ele>1662</ele>
        <time>2020-02-01T10:59:44.000Z</time>
      </trkpt>
      <trkpt lat="42.84375" lon="0.50342">
        <ele>1662</ele>
        <time>2020-02-01T10:59:45.000Z</time>
      </trkpt>
      <trkpt lat="42.84376" lon="0.50341">
        <ele>1663</ele>
        <time>2020-02-01T10:59:46.000Z</time>
      </trkpt>
      <trkpt lat="42.84376" lon="0.50341">
        <ele>1663</ele>
        <time>2020-02-01T10:59:47.000Z</time>
      </trkpt>
      <trkpt lat="42.84376" lon="0.5034">
        <ele>1663</ele>
        <time>2020-02-01T10:59:48.000Z</time>
      </trkpt>
      <trkpt lat="42.84376" lon="0.5034">
        <ele>1663</ele>
        <time>2020-02-01T10:59:49.000Z</time>
      </trkpt>
      <trkpt lat="42.84376" lon="0.5034">
        <ele>1663</ele>
        <time>2020-02-01T10:59:50.000Z</time>
      </trkpt>
      <trkpt lat="42.84376" lon="0.5034">
        <ele>1663</ele>
        <time>2020-02-01T10:59:51.000Z</time>
      </trkpt>
      <trkpt lat="42.84376" lon="0.5034">
        <ele>1663</ele>
        <time>2020-02-01T10:59:52.000Z</time>
      </trkpt>
      <trkpt lat="42.84376" lon="0.5034">
        <ele>1663</ele>
        <time>2020-02-01T10:59:53.000Z</time>
      </trkpt>
      <trkpt lat="42.84376" lon="0.5034">
        <ele>1663</ele>
        <time>2020-02-01T10:59:54.000Z</time>
      </trkpt>
      <trkpt lat="42.84376" lon="0.5034">
        <ele>1663</ele>
        <time>2020-02-01T10:59:55.000Z</time>
      </trkpt>
      <trkpt lat="42.84376" lon="0.5034">
        <ele>1663</ele>
        <time>2020-02-01T10:59:56.000Z</time>
      </trkpt>
      <trkpt lat="42.84376" lon="0.5034">
        <ele>1663</ele>
        <time>2020-02-01T10:59:57.000Z</time>
      </trkpt>
      <trkpt lat="42.84376" lon="0.5034">
        <ele>1663</ele>
        <time>2020-02-01T10:59:58.000Z</time>
      </trkpt>
      <trkpt lat="42.84376" lon="0.50339">
        <ele>1663</ele>
        <time>2020-02-01T10:59:59.000Z</time>
      </trkpt>
      <trkpt lat="42.84376" lon="0.50339">
        <ele>1663</ele>
        <time>2020-02-01T11:00:00.000Z</time>
      </trkpt>
      <trkpt lat="42.84376" lon="0.50339">
        <ele>1663</ele>
        <time>2020-02-01T11:00:01.000Z</time>
      </trkpt>
      <trkpt lat="42.84377" lon="0.50338">
        <ele>1663</ele>
        <time>2020-02-01T11:00:02.000Z</time>
      </trkpt>
      <trkpt lat="42.84377" lon="0.50338">
        <ele>1663</ele>
        <time>2020-02-01T11:00:03.000Z</time>
      </trkpt>
      <trkpt lat="42.84377" lon="0.50338">
        <ele>1663</ele>
        <time>2020-02-01T11:00:04.000Z</time>
      </trkpt>
      <trkpt lat="42.84378" lon="0.50338">
        <ele>1663</ele>
        <time>2020-02-01T11:00:05.000Z</time>
      </trkpt>
      <trkpt lat="42.84378" lon="0.50338">
        <ele>1663</ele>
        <time>2020-02-01T11:00:06.000Z</time>
      </trkpt>
      <trkpt lat="42.84379" lon="0.50338">
        <ele>1663</ele>
        <time>2020-02-01T11:00:07.000Z</time>
      </trkpt>
      <trkpt lat="42.84379" lon="0.50338">
        <ele>1663</ele>
        <time>2020-02-01T11:00:08.000Z</time>
      </trkpt>
      <trkpt lat="42.84379" lon="0.50338">
        <ele>1663</ele>
        <time>2020-02-01T11:00:09.000Z</time>
      </trkpt>
      <trkpt lat="42.8438" lon="0.50338">
        <ele>1663</ele>
        <time>2020-02-01T11:00:10.000Z</time>
      </trkpt>
      <trkpt lat="42.8438" lon="0.50339">
        <ele>1663</ele>
        <time>2020-02-01T11:00:11.000Z</time>
      </trkpt>
      <trkpt lat="42.84381" lon="0.50339">
        <ele>1663</ele>
        <time>2020-02-01T11:00:12.000Z</time>
      </trkpt>
      <trkpt lat="42.84381" lon="0.5034">
        <ele>1663</ele>
        <time>2020-02-01T11:00:13.000Z</time>
      </trkpt>
      <trkpt lat="42.84382" lon="0.5034">
        <ele>1663</ele>
        <time>2020-02-01T11:00:14.000Z</time>
      </trkpt>
      <trkpt lat="42.84382" lon="0.50341">
        <ele>1663</ele>
        <time>2020-02-01T11:00:15.000Z</time>
      </trkpt>
      <trkpt lat="42.84382" lon="0.50341">
        <ele>1663</ele>
        <time>2020-02-01T11:00:16.000Z</time>
      </trkpt>
      <trkpt lat="42.84382" lon="0.50342">
        <ele>1663</ele>
        <time>2020-02-01T11:00:17.000Z</time>
      </trkpt>
      <trkpt lat="42.84383" lon="0.50342">
        <ele>1663</ele>
        <time>2020-02-01T11:00:18.000Z</time>
      </trkpt>
      <trkpt lat="42.84383" lon="0.50343">
        <ele>1663</ele>
        <time>2020-02-01T11:00:19.000Z</time>
      </trkpt>
      <trkpt lat="42.84383" lon="0.50343">
        <ele>1663</ele>
        <time>2020-02-01T11:00:20.000Z</time>
      </trkpt>
      <trkpt lat="42.84384" lon="0.50343">
        <ele>1663</ele>
        <time>2020-02-01T11:00:21.000Z</time>
      </trkpt>
      <trkpt lat="42.84384" lon="0.50343">
        <ele>1663</ele>
        <time>2020-02-01T11:00:22.000Z</time>
      </trkpt>
      <trkpt lat="42.84385" lon="0.50343">
        <ele>1663</ele>
        <time>2020-02-01T11:00:23.000Z</time>
      </trkpt>
      <trkpt lat="42.84385" lon="0.50343">
        <ele>1663</ele>
        <time>2020-02-01T11:00:24.000Z</time>
      </trkpt>
      <trkpt lat="42.84385" lon="0.50343">
        <ele>1663</ele>
        <time>2020-02-01T11:00:25.000Z</time>
      </trkpt>
      <trkpt lat="42.84384" lon="0.50343">
        <ele>1663</ele>
        <time>2020-02-01T11:00:26.000Z</time>
      </trkpt>
      <trkpt lat="42.84383" lon="0.50343">
        <ele>1663</ele>
        <time>2020-02-01T11:00:27.000Z</time>
      </trkpt>
      <trkpt lat="42.84381" lon="0.50344">
        <ele>1663</ele>
        <time>2020-02-01T11:00:28.000Z</time>
      </trkpt>
      <trkpt lat="42.84379" lon="0.50344">
        <ele>1663</ele>
        <time>2020-02-01T11:00:29.000Z</time>
      </trkpt>
      <trkpt lat="42.84378" lon="0.50345">
        <ele>1663</ele>
        <time>2020-02-01T11:00:30.000Z</time>
      </trkpt>
      <trkpt lat="42.84376" lon="0.50345">
        <ele>1662</ele>
        <time>2020-02-01T11:00:57.000Z</time>
      </trkpt>
      <trkpt lat="42.84376" lon="0.50345">
        <ele>1662</ele>
        <time>2020-02-01T11:00:58.000Z</time>
      </trkpt>
      <trkpt lat="42.84376" lon="0.50345">
        <ele>1662</ele>
        <time>2020-02-01T11:00:59.000Z</time>
      </trkpt>
      <trkpt lat="42.84376" lon="0.50345">
        <ele>1662</ele>
        <time>2020-02-01T11:01:00.000Z</time>
      </trkpt>
      <trkpt lat="42.84376" lon="0.50345">
        <ele>1662</ele>
        <time>2020-02-01T11:01:01.000Z</time>
      </trkpt>
      <trkpt lat="42.84376" lon="0.50345">
        <ele>1662</ele>
        <time>2020-02-01T11:01:02.000Z</time>
      </trkpt>
      <trkpt lat="42.84376" lon="0.50345">
        <ele>1662</ele>
        <time>2020-02-01T11:01:03.000Z</time>
      </trkpt>
      <trkpt lat="42.84376" lon="0.50345">
        <ele>1662</ele>
        <time>2020-02-01T11:01:04.000Z</time>
      </trkpt>
      <trkpt lat="42.84376" lon="0.50345">
        <ele>1662</ele>
        <time>2020-02-01T11:01:05.000Z</time>
      </trkpt>
      <trkpt lat="42.84376" lon="0.50345">
        <ele>1662</ele>
        <time>2020-02-01T11:01:06.000Z</time>
      </trkpt>
      <trkpt lat="42.84376" lon="0.50345">
        <ele>1662</ele>
        <time>2020-02-01T11:01:07.000Z</time>
      </trkpt>
      <trkpt lat="42.84376" lon="0.50345">
        <ele>1662</ele>
        <time>2020-02-01T11:01:08.000Z</time>
      </trkpt>
      <trkpt lat="42.84376" lon="0.50345">
        <ele>1662</ele>
        <time>2020-02-01T11:01:09.000Z</time>
      </trkpt>
      <trkpt lat="42.84376" lon="0.50345">
        <ele>1663</ele>
        <time>2020-02-01T11:01:10.000Z</time>
      </trkpt>
      <trkpt lat="42.84376" lon="0.50345">
        <ele>1663</ele>
        <time>2020-02-01T11:01:11.000Z</time>
      </trkpt>
      <trkpt lat="42.84376" lon="0.50345">
        <ele>1663</ele>
        <time>2020-02-01T11:01:12.000Z</time>
      </trkpt>
      <trkpt lat="42.84376" lon="0.50345">
        <ele>1663</ele>
        <time>2020-02-01T11:01:13.000Z</time>
      </trkpt>
      <trkpt lat="42.84376" lon="0.50345">
        <ele>1663</ele>
        <time>2020-02-01T11:01:14.000Z</time>
      </trkpt>
      <trkpt lat="42.84376" lon="0.50344">
        <ele>1663</ele>
        <time>2020-02-01T11:01:15.000Z</time>
      </trkpt>
      <trkpt lat="42.84376" lon="0.50343">
        <ele>1663</ele>
        <time>2020-02-01T11:01:16.000Z</time>
      </trkpt>
      <trkpt lat="42.84376" lon="0.50342">
        <ele>1663</ele>
        <time>2020-02-01T11:01:17.000Z</time>
      </trkpt>
      <trkpt lat="42.84376" lon="0.50341">
        <ele>1663</ele>
        <time>2020-02-01T11:01:18.000Z</time>
      </trkpt>
      <trkpt lat="42.84376" lon="0.50339">
        <ele>1663</ele>
        <time>2020-02-01T11:01:19.000Z</time>
      </trkpt>
      <trkpt lat="42.84376" lon="0.50339">
        <ele>1663</ele>
        <time>2020-02-01T11:01:20.000Z</time>
      </trkpt>
      <trkpt lat="42.84376" lon="0.50338">
        <ele>1663</ele>
        <time>2020-02-01T11:01:21.000Z</time>
      </trkpt>
      <trkpt lat="42.84376" lon="0.50338">
        <ele>1663</ele>
        <time>2020-02-01T11:01:22.000Z</time>
      </trkpt>
      <trkpt lat="42.84376" lon="0.50338">
        <ele>1663</ele>
        <time>2020-02-01T11:01:23.000Z</time>
      </trkpt>
      <trkpt lat="42.84376" lon="0.50338">
        <ele>1663</ele>
        <time>2020-02-01T11:01:24.000Z</time>
      </trkpt>
      <trkpt lat="42.84376" lon="0.50338">
        <ele>1663</ele>
        <time>2020-02-01T11:01:25.000Z</time>
      </trkpt>
      <trkpt lat="42.84377" lon="0.50338">
        <ele>1662</ele>
        <time>2020-02-01T11:01:26.000Z</time>
      </trkpt>
      <trkpt lat="42.84377" lon="0.50338">
        <ele>1662</ele>
        <time>2020-02-01T11:01:27.000Z</time>
      </trkpt>
      <trkpt lat="42.84378" lon="0.50338">
        <ele>1662</ele>
        <time>2020-02-01T11:01:28.000Z</time>
      </trkpt>
      <trkpt lat="42.84378" lon="0.50337">
        <ele>1662</ele>
        <time>2020-02-01T11:01:29.000Z</time>
      </trkpt>
      <trkpt lat="42.84378" lon="0.50337">
        <ele>1663</ele>
        <time>2020-02-01T11:01:30.000Z</time>
      </trkpt>
      <trkpt lat="42.84379" lon="0.50337">
        <ele>1663</ele>
        <time>2020-02-01T11:01:31.000Z</time>
      </trkpt>
      <trkpt lat="42.84379" lon="0.50337">
        <ele>1662</ele>
        <time>2020-02-01T11:01:32.000Z</time>
      </trkpt>
      <trkpt lat="42.84379" lon="0.50337">
        <ele>1662</ele>
        <time>2020-02-01T11:01:33.000Z</time>
      </trkpt>
      <trkpt lat="42.84379" lon="0.50338">
        <ele>1662</ele>
        <time>2020-02-01T11:01:34.000Z</time>
      </trkpt>
      <trkpt lat="42.84379" lon="0.50338">
        <ele>1662</ele>
        <time>2020-02-01T11:01:35.000Z</time>
      </trkpt>
      <trkpt lat="42.84379" lon="0.50339">
        <ele>1662</ele>
        <time>2020-02-01T11:01:36.000Z</time>
      </trkpt>
      <trkpt lat="42.84379" lon="0.5034">
        <ele>1662</ele>
        <time>2020-02-01T11:01:37.000Z</time>
      </trkpt>
      <trkpt lat="42.84379" lon="0.50341">
        <ele>1662</ele>
        <time>2020-02-01T11:01:38.000Z</time>
      </trkpt>
      <trkpt lat="42.84379" lon="0.50342">
        <ele>1662</ele>
        <time>2020-02-01T11:01:39.000Z</time>
      </trkpt>
      <trkpt lat="42.84379" lon="0.50342">
        <ele>1663</ele>
        <time>2020-02-01T11:01:40.000Z</time>
      </trkpt>
      <trkpt lat="42.84378" lon="0.50343">
        <ele>1663</ele>
        <time>2020-02-01T11:01:41.000Z</time>
      </trkpt>
      <trkpt lat="42.84378" lon="0.50344">
        <ele>1663</ele>
        <time>2020-02-01T11:01:42.000Z</time>
      </trkpt>
      <trkpt lat="42.84377" lon="0.50344">
        <ele>1663</ele>
        <time>2020-02-01T11:01:43.000Z</time>
      </trkpt>
      <trkpt lat="42.84377" lon="0.50344">
        <ele>1663</ele>
        <time>2020-02-01T11:01:44.000Z</time>
      </trkpt>
      <trkpt lat="42.84376" lon="0.50344">
        <ele>1663</ele>
        <time>2020-02-01T11:01:45.000Z</time>
      </trkpt>
      <trkpt lat="42.84376" lon="0.50344">
        <ele>1662</ele>
        <time>2020-02-01T11:01:46.000Z</time>
      </trkpt>
      <trkpt lat="42.84376" lon="0.50344">
        <ele>1662</ele>
        <time>2020-02-01T11:01:47.000Z</time>
      </trkpt>
      <trkpt lat="42.84376" lon="0.50344">
        <ele>1662</ele>
        <time>2020-02-01T11:01:48.000Z</time>
      </trkpt>
      <trkpt lat="42.84376" lon="0.50344">
        <ele>1662</ele>
        <time>2020-02-01T11:01:49.000Z</time>
      </trkpt>
      <trkpt lat="42.84376" lon="0.50344">
        <ele>1662</ele>
        <time>2020-02-01T11:01:50.000Z</time>
      </trkpt>
      <trkpt lat="42.84376" lon="0.50344">
        <ele>1662</ele>
        <time>2020-02-01T11:01:51.000Z</time>
      </trkpt>
      <trkpt lat="42.84377" lon="0.50345">
        <ele>1662</ele>
        <time>2020-02-01T11:01:52.000Z</time>
      </trkpt>
      <trkpt lat="42.84377" lon="0.50345">
        <ele>1662</ele>
        <time>2020-02-01T11:01:53.000Z</time>
      </trkpt>
      <trkpt lat="42.84378" lon="0.50345">
        <ele>1662</ele>
        <time>2020-02-01T11:01:54.000Z</time>
      </trkpt>
      <trkpt lat="42.84378" lon="0.50346">
        <ele>1662</ele>
        <time>2020-02-01T11:01:55.000Z</time>
      </trkpt>
      <trkpt lat="42.84379" lon="0.50347">
        <ele>1662</ele>
        <time>2020-02-01T11:01:56.000Z</time>
      </trkpt>
      <trkpt lat="42.8438" lon="0.50347">
        <ele>1662</ele>
        <time>2020-02-01T11:01:57.000Z</time>
      </trkpt>
      <trkpt lat="42.8438" lon="0.50348">
        <ele>1662</ele>
        <time>2020-02-01T11:01:58.000Z</time>
      </trkpt>
      <trkpt lat="42.84381" lon="0.50348">
        <ele>1662</ele>
        <time>2020-02-01T11:01:59.000Z</time>
      </trkpt>
      <trkpt lat="42.84381" lon="0.50348">
        <ele>1662</ele>
        <time>2020-02-01T11:02:00.000Z</time>
      </trkpt>
      <trkpt lat="42.84381" lon="0.50349">
        <ele>1662</ele>
        <time>2020-02-01T11:02:01.000Z</time>
      </trkpt>
      <trkpt lat="42.84381" lon="0.50349">
        <ele>1662</ele>
        <time>2020-02-01T11:02:02.000Z</time>
      </trkpt>
      <trkpt lat="42.84381" lon="0.50349">
        <ele>1662</ele>
        <time>2020-02-01T11:02:03.000Z</time>
      </trkpt>
      <trkpt lat="42.84381" lon="0.50349">
        <ele>1662</ele>
        <time>2020-02-01T11:02:04.000Z</time>
      </trkpt>
      <trkpt lat="42.84381" lon="0.50349">
        <ele>1662</ele>
        <time>2020-02-01T11:02:05.000Z</time>
      </trkpt>
      <trkpt lat="42.84381" lon="0.50349">
        <ele>1662</ele>
        <time>2020-02-01T11:02:06.000Z</time>
      </trkpt>
      <trkpt lat="42.84381" lon="0.50348">
        <ele>1662</ele>
        <time>2020-02-01T11:02:07.000Z</time>
      </trkpt>
      <trkpt lat="42.84381" lon="0.50348">
        <ele>1662</ele>
        <time>2020-02-01T11:02:08.000Z</time>
      </trkpt>
      <trkpt lat="42.84382" lon="0.50348">
        <ele>1662</ele>
        <time>2020-02-01T11:02:09.000Z</time>
      </trkpt>
      <trkpt lat="42.84382" lon="0.50348">
        <ele>1662</ele>
        <time>2020-02-01T11:02:10.000Z</time>
      </trkpt>
      <trkpt lat="42.84382" lon="0.50348">
        <ele>1662</ele>
        <time>2020-02-01T11:02:11.000Z</time>
      </trkpt>
      <trkpt lat="42.84382" lon="0.50348">
        <ele>1662</ele>
        <time>2020-02-01T11:02:12.000Z</time>
      </trkpt>
      <trkpt lat="42.84383" lon="0.50347">
        <ele>1662</ele>
        <time>2020-02-01T11:02:13.000Z</time>
      </trkpt>
      <trkpt lat="42.84383" lon="0.50347">
        <ele>1662</ele>
        <time>2020-02-01T11:02:14.000Z</time>
      </trkpt>
      <trkpt lat="42.84383" lon="0.50347">
        <ele>1662</ele>
        <time>2020-02-01T11:02:15.000Z</time>
      </trkpt>
      <trkpt lat="42.84384" lon="0.50347">
        <ele>1662</ele>
        <time>2020-02-01T11:02:16.000Z</time>
      </trkpt>
      <trkpt lat="42.84384" lon="0.50346">
        <ele>1662</ele>
        <time>2020-02-01T11:02:17.000Z</time>
      </trkpt>
      <trkpt lat="42.84385" lon="0.50346">
        <ele>1662</ele>
        <time>2020-02-01T11:02:18.000Z</time>
      </trkpt>
      <trkpt lat="42.84385" lon="0.50345">
        <ele>1662</ele>
        <time>2020-02-01T11:02:19.000Z</time>
      </trkpt>
      <trkpt lat="42.84386" lon="0.50345">
        <ele>1662</ele>
        <time>2020-02-01T11:02:20.000Z</time>
      </trkpt>
      <trkpt lat="42.84386" lon="0.50344">
        <ele>1662</ele>
        <time>2020-02-01T11:02:21.000Z</time>
      </trkpt>
      <trkpt lat="42.84387" lon="0.50342">
        <ele>1662</ele>
        <time>2020-02-01T11:02:22.000Z</time>
      </trkpt>
      <trkpt lat="42.84389" lon="0.5034">
        <ele>1662</ele>
        <time>2020-02-01T11:02:23.000Z</time>
      </trkpt>
      <trkpt lat="42.8439" lon="0.50339">
        <ele>1663</ele>
        <time>2020-02-01T11:02:24.000Z</time>
      </trkpt>
      <trkpt lat="42.8439" lon="0.50339">
        <ele>1662</ele>
        <time>2020-02-01T11:03:29.000Z</time>
      </trkpt>
      <trkpt lat="42.8439" lon="0.5034">
        <ele>1662</ele>
        <time>2020-02-01T11:03:30.000Z</time>
      </trkpt>
      <trkpt lat="42.8439" lon="0.50341">
        <ele>1662</ele>
        <time>2020-02-01T11:03:31.000Z</time>
      </trkpt>
      <trkpt lat="42.84391" lon="0.50342">
        <ele>1662</ele>
        <time>2020-02-01T11:03:32.000Z</time>
      </trkpt>
      <trkpt lat="42.84391" lon="0.50342">
        <ele>1662</ele>
        <time>2020-02-01T11:03:33.000Z</time>
      </trkpt>
      <trkpt lat="42.84392" lon="0.50343">
        <ele>1662</ele>
        <time>2020-02-01T11:03:34.000Z</time>
      </trkpt>
      <trkpt lat="42.84392" lon="0.50344">
        <ele>1662</ele>
        <time>2020-02-01T11:03:35.000Z</time>
      </trkpt>
      <trkpt lat="42.84392" lon="0.50344">
        <ele>1662</ele>
        <time>2020-02-01T11:03:36.000Z</time>
      </trkpt>
      <trkpt lat="42.84391" lon="0.50345">
        <ele>1662</ele>
        <time>2020-02-01T11:03:37.000Z</time>
      </trkpt>
      <trkpt lat="42.84391" lon="0.50345">
        <ele>1662</ele>
        <time>2020-02-01T11:03:38.000Z</time>
      </trkpt>
      <trkpt lat="42.84391" lon="0.50345">
        <ele>1661</ele>
        <time>2020-02-01T11:03:39.000Z</time>
      </trkpt>
      <trkpt lat="42.8439" lon="0.50345">
        <ele>1661</ele>
        <time>2020-02-01T11:03:40.000Z</time>
      </trkpt>
      <trkpt lat="42.8439" lon="0.50345">
        <ele>1662</ele>
        <time>2020-02-01T11:03:41.000Z</time>
      </trkpt>
      <trkpt lat="42.8439" lon="0.50345">
        <ele>1661</ele>
        <time>2020-02-01T11:03:42.000Z</time>
      </trkpt>
      <trkpt lat="42.84389" lon="0.50344">
        <ele>1661</ele>
        <time>2020-02-01T11:03:43.000Z</time>
      </trkpt>
      <trkpt lat="42.84389" lon="0.50344">
        <ele>1662</ele>
        <time>2020-02-01T11:03:44.000Z</time>
      </trkpt>
      <trkpt lat="42.84389" lon="0.50343">
        <ele>1662</ele>
        <time>2020-02-01T11:03:45.000Z</time>
      </trkpt>
      <trkpt lat="42.84389" lon="0.50343">
        <ele>1662</ele>
        <time>2020-02-01T11:03:46.000Z</time>
      </trkpt>
      <trkpt lat="42.84389" lon="0.50342">
        <ele>1662</ele>
        <time>2020-02-01T11:03:47.000Z</time>
      </trkpt>
      <trkpt lat="42.84389" lon="0.50341">
        <ele>1662</ele>
        <time>2020-02-01T11:03:48.000Z</time>
      </trkpt>
      <trkpt lat="42.84388" lon="0.50341">
        <ele>1662</ele>
        <time>2020-02-01T11:03:49.000Z</time>
      </trkpt>
      <trkpt lat="42.84388" lon="0.50341">
        <ele>1662</ele>
        <time>2020-02-01T11:03:50.000Z</time>
      </trkpt>
      <trkpt lat="42.84387" lon="0.5034">
        <ele>1662</ele>
        <time>2020-02-01T11:03:51.000Z</time>
      </trkpt>
      <trkpt lat="42.84387" lon="0.5034">
        <ele>1662</ele>
        <time>2020-02-01T11:03:52.000Z</time>
      </trkpt>
      <trkpt lat="42.84386" lon="0.5034">
        <ele>1662</ele>
        <time>2020-02-01T11:03:53.000Z</time>
      </trkpt>
      <trkpt lat="42.84386" lon="0.5034">
        <ele>1662</ele>
        <time>2020-02-01T11:03:54.000Z</time>
      </trkpt>
      <trkpt lat="42.84386" lon="0.5034">
        <ele>1662</ele>
        <time>2020-02-01T11:03:55.000Z</time>
      </trkpt>
      <trkpt lat="42.84385" lon="0.5034">
        <ele>1662</ele>
        <time>2020-02-01T11:03:56.000Z</time>
      </trkpt>
      <trkpt lat="42.84385" lon="0.5034">
        <ele>1662</ele>
        <time>2020-02-01T11:03:57.000Z</time>
      </trkpt>
      <trkpt lat="42.84385" lon="0.5034">
        <ele>1662</ele>
        <time>2020-02-01T11:03:58.000Z</time>
      </trkpt>
      <trkpt lat="42.84386" lon="0.50339">
        <ele>1662</ele>
        <time>2020-02-01T11:03:59.000Z</time>
      </trkpt>
      <trkpt lat="42.84386" lon="0.50339">
        <ele>1661</ele>
        <time>2020-02-01T11:04:16.000Z</time>
      </trkpt>
      <trkpt lat="42.84387" lon="0.50338">
        <ele>1661</ele>
        <time>2020-02-01T11:04:17.000Z</time>
      </trkpt>
      <trkpt lat="42.84388" lon="0.50337">
        <ele>1661</ele>
        <time>2020-02-01T11:04:18.000Z</time>
      </trkpt>
      <trkpt lat="42.84389" lon="0.50335">
        <ele>1662</ele>
        <time>2020-02-01T11:04:19.000Z</time>
      </trkpt>
      <trkpt lat="42.8439" lon="0.50334">
        <ele>1662</ele>
        <time>2020-02-01T11:04:20.000Z</time>
      </trkpt>
      <trkpt lat="42.84391" lon="0.50332">
        <ele>1662</ele>
        <time>2020-02-01T11:04:21.000Z</time>
      </trkpt>
      <trkpt lat="42.84392" lon="0.5033">
        <ele>1662</ele>
        <time>2020-02-01T11:04:22.000Z</time>
      </trkpt>
      <trkpt lat="42.84393" lon="0.50328">
        <ele>1662</ele>
        <time>2020-02-01T11:04:23.000Z</time>
      </trkpt>
      <trkpt lat="42.84394" lon="0.50326">
        <ele>1662</ele>
        <time>2020-02-01T11:04:24.000Z</time>
      </trkpt>
      <trkpt lat="42.84395" lon="0.50324">
        <ele>1662</ele>
        <time>2020-02-01T11:04:25.000Z</time>
      </trkpt>
      <trkpt lat="42.84396" lon="0.50322">
        <ele>1662</ele>
        <time>2020-02-01T11:04:26.000Z</time>
      </trkpt>
      <trkpt lat="42.84397" lon="0.5032">
        <ele>1662</ele>
        <time>2020-02-01T11:04:27.000Z</time>
      </trkpt>
      <trkpt lat="42.84398" lon="0.50319">
        <ele>1662</ele>
        <time>2020-02-01T11:04:28.000Z</time>
      </trkpt>
      <trkpt lat="42.84399" lon="0.50318">
        <ele>1662</ele>
        <time>2020-02-01T11:04:29.000Z</time>
      </trkpt>
      <trkpt lat="42.84399" lon="0.50317">
        <ele>1662</ele>
        <time>2020-02-01T11:04:30.000Z</time>
      </trkpt>
      <trkpt lat="42.844" lon="0.50317">
        <ele>1662</ele>
        <time>2020-02-01T11:04:31.000Z</time>
      </trkpt>
      <trkpt lat="42.844" lon="0.50318">
        <ele>1662</ele>
        <time>2020-02-01T11:04:32.000Z</time>
      </trkpt>
      <trkpt lat="42.844" lon="0.5032">
        <ele>1662</ele>
        <time>2020-02-01T11:04:33.000Z</time>
      </trkpt>
      <trkpt lat="42.84399" lon="0.50324">
        <ele>1662</ele>
        <time>2020-02-01T11:04:34.000Z</time>
      </trkpt>
      <trkpt lat="42.84398" lon="0.50327">
        <ele>1662</ele>
        <time>2020-02-01T11:04:35.000Z</time>
      </trkpt>
      <trkpt lat="42.84398" lon="0.50326">
        <ele>1662</ele>
        <time>2020-02-01T11:04:48.000Z</time>
      </trkpt>
      <trkpt lat="42.84399" lon="0.50326">
        <ele>1662</ele>
        <time>2020-02-01T11:04:49.000Z</time>
      </trkpt>
      <trkpt lat="42.84399" lon="0.50326">
        <ele>1662</ele>
        <time>2020-02-01T11:04:50.000Z</time>
      </trkpt>
      <trkpt lat="42.84399" lon="0.50325">
        <ele>1661</ele>
        <time>2020-02-01T11:04:51.000Z</time>
      </trkpt>
      <trkpt lat="42.84399" lon="0.50326">
        <ele>1662</ele>
        <time>2020-02-01T11:04:52.000Z</time>
      </trkpt>
      <trkpt lat="42.84398" lon="0.50326">
        <ele>1662</ele>
        <time>2020-02-01T11:04:53.000Z</time>
      </trkpt>
      <trkpt lat="42.84397" lon="0.50328">
        <ele>1662</ele>
        <time>2020-02-01T11:04:54.000Z</time>
      </trkpt>
      <trkpt lat="42.84396" lon="0.50329">
        <ele>1662</ele>
        <time>2020-02-01T11:04:55.000Z</time>
      </trkpt>
      <trkpt lat="42.84395" lon="0.50331">
        <ele>1662</ele>
        <time>2020-02-01T11:04:56.000Z</time>
      </trkpt>
      <trkpt lat="42.84394" lon="0.50333">
        <ele>1662</ele>
        <time>2020-02-01T11:04:57.000Z</time>
      </trkpt>
      <trkpt lat="42.84392" lon="0.50335">
        <ele>1662</ele>
        <time>2020-02-01T11:04:58.000Z</time>
      </trkpt>
      <trkpt lat="42.84391" lon="0.50337">
        <ele>1662</ele>
        <time>2020-02-01T11:04:59.000Z</time>
      </trkpt>
      <trkpt lat="42.8439" lon="0.50339">
        <ele>1662</ele>
        <time>2020-02-01T11:05:00.000Z</time>
      </trkpt>
      <trkpt lat="42.84389" lon="0.50341">
        <ele>1662</ele>
        <time>2020-02-01T11:05:01.000Z</time>
      </trkpt>
      <trkpt lat="42.84388" lon="0.50342">
        <ele>1662</ele>
        <time>2020-02-01T11:05:02.000Z</time>
      </trkpt>
      <trkpt lat="42.84388" lon="0.50343">
        <ele>1662</ele>
        <time>2020-02-01T11:05:03.000Z</time>
      </trkpt>
      <trkpt lat="42.84387" lon="0.50343">
        <ele>1662</ele>
        <time>2020-02-01T11:05:04.000Z</time>
      </trkpt>
      <trkpt lat="42.84387" lon="0.50343">
        <ele>1662</ele>
        <time>2020-02-01T11:05:05.000Z</time>
      </trkpt>
      <trkpt lat="42.84387" lon="0.50343">
        <ele>1662</ele>
        <time>2020-02-01T11:05:06.000Z</time>
      </trkpt>
      <trkpt lat="42.84386" lon="0.50343">
        <ele>1662</ele>
        <time>2020-02-01T11:05:07.000Z</time>
      </trkpt>
      <trkpt lat="42.84386" lon="0.50343">
        <ele>1662</ele>
        <time>2020-02-01T11:05:08.000Z</time>
      </trkpt>
      <trkpt lat="42.84385" lon="0.50343">
        <ele>1662</ele>
        <time>2020-02-01T11:05:09.000Z</time>
      </trkpt>
      <trkpt lat="42.84385" lon="0.50344">
        <ele>1662</ele>
        <time>2020-02-01T11:05:10.000Z</time>
      </trkpt>
      <trkpt lat="42.84385" lon="0.50344">
        <ele>1662</ele>
        <time>2020-02-01T11:05:11.000Z</time>
      </trkpt>
      <trkpt lat="42.84386" lon="0.50344">
        <ele>1662</ele>
        <time>2020-02-01T11:05:12.000Z</time>
      </trkpt>
      <trkpt lat="42.84386" lon="0.50345">
        <ele>1662</ele>
        <time>2020-02-01T11:05:13.000Z</time>
      </trkpt>
      <trkpt lat="42.84386" lon="0.50345">
        <ele>1662</ele>
        <time>2020-02-01T11:05:14.000Z</time>
      </trkpt>
      <trkpt lat="42.84385" lon="0.50346">
        <ele>1662</ele>
        <time>2020-02-01T11:05:15.000Z</time>
      </trkpt>
      <trkpt lat="42.84385" lon="0.50346">
        <ele>1661</ele>
        <time>2020-02-01T11:05:16.000Z</time>
      </trkpt>
      <trkpt lat="42.84385" lon="0.50345">
        <ele>1661</ele>
        <time>2020-02-01T11:05:55.000Z</time>
      </trkpt>
      <trkpt lat="42.84384" lon="0.50344">
        <ele>1661</ele>
        <time>2020-02-01T11:05:56.000Z</time>
      </trkpt>
      <trkpt lat="42.84384" lon="0.50344">
        <ele>1661</ele>
        <time>2020-02-01T11:05:57.000Z</time>
      </trkpt>
      <trkpt lat="42.84384" lon="0.50343">
        <ele>1661</ele>
        <time>2020-02-01T11:05:58.000Z</time>
      </trkpt>
      <trkpt lat="42.84384" lon="0.50343">
        <ele>1661</ele>
        <time>2020-02-01T11:05:59.000Z</time>
      </trkpt>
      <trkpt lat="42.84384" lon="0.50343">
        <ele>1661</ele>
        <time>2020-02-01T11:06:00.000Z</time>
      </trkpt>
      <trkpt lat="42.84384" lon="0.50342">
        <ele>1661</ele>
        <time>2020-02-01T11:06:01.000Z</time>
      </trkpt>
      <trkpt lat="42.84384" lon="0.50342">
        <ele>1661</ele>
        <time>2020-02-01T11:06:02.000Z</time>
      </trkpt>
      <trkpt lat="42.84383" lon="0.50343">
        <ele>1661</ele>
        <time>2020-02-01T11:06:03.000Z</time>
      </trkpt>
      <trkpt lat="42.84383" lon="0.50343">
        <ele>1661</ele>
        <time>2020-02-01T11:06:04.000Z</time>
      </trkpt>
      <trkpt lat="42.84383" lon="0.50343">
        <ele>1661</ele>
        <time>2020-02-01T11:06:05.000Z</time>
      </trkpt>
      <trkpt lat="42.84383" lon="0.50344">
        <ele>1661</ele>
        <time>2020-02-01T11:06:06.000Z</time>
      </trkpt>
      <trkpt lat="42.84382" lon="0.50344">
        <ele>1661</ele>
        <time>2020-02-01T11:06:07.000Z</time>
      </trkpt>
      <trkpt lat="42.84382" lon="0.50345">
        <ele>1661</ele>
        <time>2020-02-01T11:06:08.000Z</time>
      </trkpt>
      <trkpt lat="42.84381" lon="0.50346">
        <ele>1661</ele>
        <time>2020-02-01T11:06:09.000Z</time>
      </trkpt>
      <trkpt lat="42.84381" lon="0.50347">
        <ele>1661</ele>
        <time>2020-02-01T11:06:10.000Z</time>
      </trkpt>
      <trkpt lat="42.84381" lon="0.50348">
        <ele>1661</ele>
        <time>2020-02-01T11:06:11.000Z</time>
      </trkpt>
      <trkpt lat="42.8438" lon="0.5035">
        <ele>1661</ele>
        <time>2020-02-01T11:06:12.000Z</time>
      </trkpt>
      <trkpt lat="42.8438" lon="0.50351">
        <ele>1661</ele>
        <time>2020-02-01T11:06:13.000Z</time>
      </trkpt>
      <trkpt lat="42.84379" lon="0.50353">
        <ele>1661</ele>
        <time>2020-02-01T11:06:14.000Z</time>
      </trkpt>
      <trkpt lat="42.84379" lon="0.50354">
        <ele>1661</ele>
        <time>2020-02-01T11:06:15.000Z</time>
      </trkpt>
      <trkpt lat="42.84379" lon="0.50356">
        <ele>1661</ele>
        <time>2020-02-01T11:06:16.000Z</time>
      </trkpt>
      <trkpt lat="42.84378" lon="0.50357">
        <ele>1661</ele>
        <time>2020-02-01T11:06:17.000Z</time>
      </trkpt>
      <trkpt lat="42.84378" lon="0.50359">
        <ele>1661</ele>
        <time>2020-02-01T11:06:18.000Z</time>
      </trkpt>
      <trkpt lat="42.84378" lon="0.50359">
        <ele>1661</ele>
        <time>2020-02-01T11:06:19.000Z</time>
      </trkpt>
      <trkpt lat="42.84377" lon="0.5036">
        <ele>1661</ele>
        <time>2020-02-01T11:06:20.000Z</time>
      </trkpt>
      <trkpt lat="42.84377" lon="0.50361">
        <ele>1661</ele>
        <time>2020-02-01T11:06:21.000Z</time>
      </trkpt>
      <trkpt lat="42.84377" lon="0.50361">
        <ele>1661</ele>
        <time>2020-02-01T11:06:22.000Z</time>
      </trkpt>
      <trkpt lat="42.84377" lon="0.5036">
        <ele>1661</ele>
        <time>2020-02-01T11:06:23.000Z</time>
      </trkpt>
      <trkpt lat="42.84376" lon="0.5036">
        <ele>1661</ele>
        <time>2020-02-01T11:06:24.000Z</time>
      </trkpt>
      <trkpt lat="42.84376" lon="0.50359">
        <ele>1661</ele>
        <time>2020-02-01T11:06:25.000Z</time>
      </trkpt>
      <trkpt lat="42.84376" lon="0.50358">
        <ele>1661</ele>
        <time>2020-02-01T11:06:26.000Z</time>
      </trkpt>
      <trkpt lat="42.84376" lon="0.50358">
        <ele>1661</ele>
        <time>2020-02-01T11:06:27.000Z</time>
      </trkpt>
      <trkpt lat="42.84376" lon="0.50357">
        <ele>1661</ele>
        <time>2020-02-01T11:06:28.000Z</time>
      </trkpt>
      <trkpt lat="42.84375" lon="0.50356">
        <ele>1661</ele>
        <time>2020-02-01T11:06:29.000Z</time>
      </trkpt>
      <trkpt lat="42.84375" lon="0.50355">
        <ele>1661</ele>
        <time>2020-02-01T11:06:30.000Z</time>
      </trkpt>
      <trkpt lat="42.84375" lon="0.50354">
        <ele>1661</ele>
        <time>2020-02-01T11:06:31.000Z</time>
      </trkpt>
      <trkpt lat="42.84375" lon="0.50354">
        <ele>1661</ele>
        <time>2020-02-01T11:06:48.000Z</time>
      </trkpt>
      <trkpt lat="42.84375" lon="0.50353">
        <ele>1661</ele>
        <time>2020-02-01T11:06:49.000Z</time>
      </trkpt>
      <trkpt lat="42.84375" lon="0.50353">
        <ele>1661</ele>
        <time>2020-02-01T11:06:50.000Z</time>
      </trkpt>
      <trkpt lat="42.84375" lon="0.50353">
        <ele>1661</ele>
        <time>2020-02-01T11:06:51.000Z</time>
      </trkpt>
      <trkpt lat="42.84374" lon="0.50353">
        <ele>1661</ele>
        <time>2020-02-01T11:06:52.000Z</time>
      </trkpt>
      <trkpt lat="42.84374" lon="0.50353">
        <ele>1661</ele>
        <time>2020-02-01T11:06:53.000Z</time>
      </trkpt>
      <trkpt lat="42.84374" lon="0.50353">
        <ele>1661</ele>
        <time>2020-02-01T11:06:54.000Z</time>
      </trkpt>
      <trkpt lat="42.84374" lon="0.50353">
        <ele>1661</ele>
        <time>2020-02-01T11:06:55.000Z</time>
      </trkpt>
      <trkpt lat="42.84374" lon="0.50352">
        <ele>1661</ele>
        <time>2020-02-01T11:06:56.000Z</time>
      </trkpt>
      <trkpt lat="42.84374" lon="0.50352">
        <ele>1661</ele>
        <time>2020-02-01T11:06:57.000Z</time>
      </trkpt>
      <trkpt lat="42.84375" lon="0.50352">
        <ele>1661</ele>
        <time>2020-02-01T11:06:58.000Z</time>
      </trkpt>
      <trkpt lat="42.84375" lon="0.50352">
        <ele>1661</ele>
        <time>2020-02-01T11:06:59.000Z</time>
      </trkpt>
      <trkpt lat="42.84375" lon="0.50352">
        <ele>1661</ele>
        <time>2020-02-01T11:07:00.000Z</time>
      </trkpt>
      <trkpt lat="42.84375" lon="0.50352">
        <ele>1661</ele>
        <time>2020-02-01T11:07:01.000Z</time>
      </trkpt>
      <trkpt lat="42.84375" lon="0.50351">
        <ele>1661</ele>
        <time>2020-02-01T11:07:02.000Z</time>
      </trkpt>
      <trkpt lat="42.84375" lon="0.50351">
        <ele>1662</ele>
        <time>2020-02-01T11:07:03.000Z</time>
      </trkpt>
      <trkpt lat="42.84376" lon="0.50351">
        <ele>1661</ele>
        <time>2020-02-01T11:07:04.000Z</time>
      </trkpt>
      <trkpt lat="42.84376" lon="0.50351">
        <ele>1661</ele>
        <time>2020-02-01T11:07:05.000Z</time>
      </trkpt>
      <trkpt lat="42.84376" lon="0.50351">
        <ele>1661</ele>
        <time>2020-02-01T11:07:06.000Z</time>
      </trkpt>
      <trkpt lat="42.84377" lon="0.50351">
        <ele>1661</ele>
        <time>2020-02-01T11:07:07.000Z</time>
      </trkpt>
      <trkpt lat="42.84377" lon="0.50351">
        <ele>1661</ele>
        <time>2020-02-01T11:07:08.000Z</time>
      </trkpt>
      <trkpt lat="42.84377" lon="0.50351">
        <ele>1661</ele>
        <time>2020-02-01T11:07:09.000Z</time>
      </trkpt>
      <trkpt lat="42.84378" lon="0.50351">
        <ele>1661</ele>
        <time>2020-02-01T11:07:10.000Z</time>
      </trkpt>
      <trkpt lat="42.84378" lon="0.50352">
        <ele>1661</ele>
        <time>2020-02-01T11:07:11.000Z</time>
      </trkpt>
      <trkpt lat="42.84378" lon="0.50352">
        <ele>1661</ele>
        <time>2020-02-01T11:07:12.000Z</time>
      </trkpt>
      <trkpt lat="42.84379" lon="0.50352">
        <ele>1661</ele>
        <time>2020-02-01T11:07:13.000Z</time>
      </trkpt>
      <trkpt lat="42.84379" lon="0.50352">
        <ele>1661</ele>
        <time>2020-02-01T11:07:14.000Z</time>
      </trkpt>
      <trkpt lat="42.84379" lon="0.50352">
        <ele>1661</ele>
        <time>2020-02-01T11:07:15.000Z</time>
      </trkpt>
      <trkpt lat="42.8438" lon="0.50352">
        <ele>1661</ele>
        <time>2020-02-01T11:07:16.000Z</time>
      </trkpt>
      <trkpt lat="42.8438" lon="0.50353">
        <ele>1661</ele>
        <time>2020-02-01T11:07:17.000Z</time>
      </trkpt>
      <trkpt lat="42.8438" lon="0.50353">
        <ele>1661</ele>
        <time>2020-02-01T11:07:18.000Z</time>
      </trkpt>
      <trkpt lat="42.8438" lon="0.50353">
        <ele>1661</ele>
        <time>2020-02-01T11:07:19.000Z</time>
      </trkpt>
      <trkpt lat="42.8438" lon="0.50353">
        <ele>1660</ele>
        <time>2020-02-01T11:07:20.000Z</time>
      </trkpt>
      <trkpt lat="42.84381" lon="0.50353">
        <ele>1660</ele>
        <time>2020-02-01T11:07:21.000Z</time>
      </trkpt>
      <trkpt lat="42.84381" lon="0.50353">
        <ele>1660</ele>
        <time>2020-02-01T11:07:22.000Z</time>
      </trkpt>
      <trkpt lat="42.84381" lon="0.50353">
        <ele>1661</ele>
        <time>2020-02-01T11:07:23.000Z</time>
      </trkpt>
      <trkpt lat="42.84381" lon="0.50353">
        <ele>1661</ele>
        <time>2020-02-01T11:07:24.000Z</time>
      </trkpt>
      <trkpt lat="42.84381" lon="0.50354">
        <ele>1661</ele>
        <time>2020-02-01T11:07:25.000Z</time>
      </trkpt>
      <trkpt lat="42.84381" lon="0.50354">
        <ele>1661</ele>
        <time>2020-02-01T11:07:26.000Z</time>
      </trkpt>
      <trkpt lat="42.84381" lon="0.50354">
        <ele>1660</ele>
        <time>2020-02-01T11:07:27.000Z</time>
      </trkpt>
      <trkpt lat="42.84381" lon="0.50354">
        <ele>1660</ele>
        <time>2020-02-01T11:07:28.000Z</time>
      </trkpt>
      <trkpt lat="42.84381" lon="0.50354">
        <ele>1660</ele>
        <time>2020-02-01T11:07:29.000Z</time>
      </trkpt>
      <trkpt lat="42.84381" lon="0.50354">
        <ele>1660</ele>
        <time>2020-02-01T11:07:30.000Z</time>
      </trkpt>
      <trkpt lat="42.84381" lon="0.50354">
        <ele>1660</ele>
        <time>2020-02-01T11:07:31.000Z</time>
      </trkpt>
      <trkpt lat="42.84381" lon="0.50354">
        <ele>1660</ele>
        <time>2020-02-01T11:07:32.000Z</time>
      </trkpt>
      <trkpt lat="42.84381" lon="0.50354">
        <ele>1660</ele>
        <time>2020-02-01T11:07:33.000Z</time>
      </trkpt>
      <trkpt lat="42.84381" lon="0.50354">
        <ele>1660</ele>
        <time>2020-02-01T11:07:34.000Z</time>
      </trkpt>
      <trkpt lat="42.84381" lon="0.50354">
        <ele>1660</ele>
        <time>2020-02-01T11:07:35.000Z</time>
      </trkpt>
      <trkpt lat="42.84381" lon="0.50354">
        <ele>1660</ele>
        <time>2020-02-01T11:07:36.000Z</time>
      </trkpt>
      <trkpt lat="42.84381" lon="0.50354">
        <ele>1661</ele>
        <time>2020-02-01T11:07:37.000Z</time>
      </trkpt>
      <trkpt lat="42.84381" lon="0.50354">
        <ele>1661</ele>
        <time>2020-02-01T11:07:38.000Z</time>
      </trkpt>
      <trkpt lat="42.84381" lon="0.50354">
        <ele>1661</ele>
        <time>2020-02-01T11:07:39.000Z</time>
      </trkpt>
      <trkpt lat="42.84381" lon="0.50354">
        <ele>1661</ele>
        <time>2020-02-01T11:07:40.000Z</time>
      </trkpt>
      <trkpt lat="42.84381" lon="0.50354">
        <ele>1661</ele>
        <time>2020-02-01T11:07:41.000Z</time>
      </trkpt>
      <trkpt lat="42.84381" lon="0.50354">
        <ele>1661</ele>
        <time>2020-02-01T11:07:42.000Z</time>
      </trkpt>
      <trkpt lat="42.84381" lon="0.50353">
        <ele>1661</ele>
        <time>2020-02-01T11:07:43.000Z</time>
      </trkpt>
      <trkpt lat="42.84381" lon="0.50353">
        <ele>1661</ele>
        <time>2020-02-01T11:07:44.000Z</time>
      </trkpt>
      <trkpt lat="42.84381" lon="0.50353">
        <ele>1661</ele>
        <time>2020-02-01T11:07:45.000Z</time>
      </trkpt>
      <trkpt lat="42.84381" lon="0.50353">
        <ele>1661</ele>
        <time>2020-02-01T11:07:46.000Z</time>
      </trkpt>
      <trkpt lat="42.84381" lon="0.50353">
        <ele>1661</ele>
        <time>2020-02-01T11:07:47.000Z</time>
      </trkpt>
      <trkpt lat="42.84381" lon="0.50352">
        <ele>1661</ele>
        <time>2020-02-01T11:07:48.000Z</time>
      </trkpt>
      <trkpt lat="42.84381" lon="0.50352">
        <ele>1661</ele>
        <time>2020-02-01T11:07:49.000Z</time>
      </trkpt>
      <trkpt lat="42.84381" lon="0.50352">
        <ele>1661</ele>
        <time>2020-02-01T11:07:50.000Z</time>
      </trkpt>
      <trkpt lat="42.8438" lon="0.50351">
        <ele>1661</ele>
        <time>2020-02-01T11:07:51.000Z</time>
      </trkpt>
      <trkpt lat="42.8438" lon="0.50351">
        <ele>1661</ele>
        <time>2020-02-01T11:07:52.000Z</time>
      </trkpt>
      <trkpt lat="42.8438" lon="0.50351">
        <ele>1661</ele>
        <time>2020-02-01T11:07:53.000Z</time>
      </trkpt>
      <trkpt lat="42.8438" lon="0.50351">
        <ele>1661</ele>
        <time>2020-02-01T11:07:54.000Z</time>
      </trkpt>
      <trkpt lat="42.8438" lon="0.5035">
        <ele>1661</ele>
        <time>2020-02-01T11:07:55.000Z</time>
      </trkpt>
      <trkpt lat="42.8438" lon="0.5035">
        <ele>1661</ele>
        <time>2020-02-01T11:07:56.000Z</time>
      </trkpt>
      <trkpt lat="42.84379" lon="0.5035">
        <ele>1661</ele>
        <time>2020-02-01T11:07:57.000Z</time>
      </trkpt>
      <trkpt lat="42.84379" lon="0.5035">
        <ele>1661</ele>
        <time>2020-02-01T11:07:58.000Z</time>
      </trkpt>
      <trkpt lat="42.84379" lon="0.5035">
        <ele>1661</ele>
        <time>2020-02-01T11:07:59.000Z</time>
      </trkpt>
      <trkpt lat="42.84379" lon="0.5035">
        <ele>1661</ele>
        <time>2020-02-01T11:08:00.000Z</time>
      </trkpt>
      <trkpt lat="42.8438" lon="0.5035">
        <ele>1661</ele>
        <time>2020-02-01T11:08:01.000Z</time>
      </trkpt>
      <trkpt lat="42.8438" lon="0.5035">
        <ele>1661</ele>
        <time>2020-02-01T11:08:02.000Z</time>
      </trkpt>
      <trkpt lat="42.8438" lon="0.5035">
        <ele>1661</ele>
        <time>2020-02-01T11:08:03.000Z</time>
      </trkpt>
      <trkpt lat="42.84379" lon="0.5035">
        <ele>1661</ele>
        <time>2020-02-01T11:08:04.000Z</time>
      </trkpt>
      <trkpt lat="42.84379" lon="0.5035">
        <ele>1661</ele>
        <time>2020-02-01T11:08:05.000Z</time>
      </trkpt>
      <trkpt lat="42.84379" lon="0.5035">
        <ele>1661</ele>
        <time>2020-02-01T11:08:06.000Z</time>
      </trkpt>
      <trkpt lat="42.84379" lon="0.50349">
        <ele>1661</ele>
        <time>2020-02-01T11:08:07.000Z</time>
      </trkpt>
      <trkpt lat="42.84379" lon="0.50349">
        <ele>1661</ele>
        <time>2020-02-01T11:08:08.000Z</time>
      </trkpt>
      <trkpt lat="42.84378" lon="0.50349">
        <ele>1661</ele>
        <time>2020-02-01T11:08:09.000Z</time>
      </trkpt>
      <trkpt lat="42.84378" lon="0.50348">
        <ele>1661</ele>
        <time>2020-02-01T11:08:10.000Z</time>
      </trkpt>
      <trkpt lat="42.84378" lon="0.50348">
        <ele>1661</ele>
        <time>2020-02-01T11:08:11.000Z</time>
      </trkpt>
      <trkpt lat="42.84377" lon="0.50348">
        <ele>1661</ele>
        <time>2020-02-01T11:08:12.000Z</time>
      </trkpt>
      <trkpt lat="42.84377" lon="0.50347">
        <ele>1661</ele>
        <time>2020-02-01T11:08:13.000Z</time>
      </trkpt>
      <trkpt lat="42.84377" lon="0.50347">
        <ele>1661</ele>
        <time>2020-02-01T11:08:14.000Z</time>
      </trkpt>
      <trkpt lat="42.84377" lon="0.50347">
        <ele>1661</ele>
        <time>2020-02-01T11:08:15.000Z</time>
      </trkpt>
      <trkpt lat="42.84377" lon="0.50347">
        <ele>1661</ele>
        <time>2020-02-01T11:08:16.000Z</time>
      </trkpt>
      <trkpt lat="42.84376" lon="0.50347">
        <ele>1661</ele>
        <time>2020-02-01T11:08:17.000Z</time>
      </trkpt>
      <trkpt lat="42.84376" lon="0.50347">
        <ele>1661</ele>
        <time>2020-02-01T11:08:18.000Z</time>
      </trkpt>
      <trkpt lat="42.84376" lon="0.50346">
        <ele>1661</ele>
        <time>2020-02-01T11:08:19.000Z</time>
      </trkpt>
      <trkpt lat="42.84376" lon="0.50346">
        <ele>1661</ele>
        <time>2020-02-01T11:08:20.000Z</time>
      </trkpt>
      <trkpt lat="42.84376" lon="0.50346">
        <ele>1661</ele>
        <time>2020-02-01T11:08:21.000Z</time>
      </trkpt>
      <trkpt lat="42.84376" lon="0.50346">
        <ele>1661</ele>
        <time>2020-02-01T11:08:22.000Z</time>
      </trkpt>
      <trkpt lat="42.84376" lon="0.50346">
        <ele>1661</ele>
        <time>2020-02-01T11:08:23.000Z</time>
      </trkpt>
      <trkpt lat="42.84376" lon="0.50346">
        <ele>1661</ele>
        <time>2020-02-01T11:08:24.000Z</time>
      </trkpt>
      <trkpt lat="42.84376" lon="0.50346">
        <ele>1661</ele>
        <time>2020-02-01T11:08:25.000Z</time>
      </trkpt>
      <trkpt lat="42.84376" lon="0.50346">
        <ele>1661</ele>
        <time>2020-02-01T11:08:26.000Z</time>
      </trkpt>
      <trkpt lat="42.84376" lon="0.50346">
        <ele>1661</ele>
        <time>2020-02-01T11:08:27.000Z</time>
      </trkpt>
      <trkpt lat="42.84376" lon="0.50346">
        <ele>1661</ele>
        <time>2020-02-01T11:08:28.000Z</time>
      </trkpt>
      <trkpt lat="42.84376" lon="0.50346">
        <ele>1661</ele>
        <time>2020-02-01T11:08:29.000Z</time>
      </trkpt>
      <trkpt lat="42.84376" lon="0.50346">
        <ele>1661</ele>
        <time>2020-02-01T11:08:30.000Z</time>
      </trkpt>
      <trkpt lat="42.84376" lon="0.50346">
        <ele>1661</ele>
        <time>2020-02-01T11:08:31.000Z</time>
      </trkpt>
      <trkpt lat="42.84376" lon="0.50346">
        <ele>1661</ele>
        <time>2020-02-01T11:08:32.000Z</time>
      </trkpt>
      <trkpt lat="42.84376" lon="0.50346">
        <ele>1661</ele>
        <time>2020-02-01T11:08:33.000Z</time>
      </trkpt>
      <trkpt lat="42.84377" lon="0.50346">
        <ele>1661</ele>
        <time>2020-02-01T11:08:34.000Z</time>
      </trkpt>
      <trkpt lat="42.84376" lon="0.50346">
        <ele>1661</ele>
        <time>2020-02-01T11:08:35.000Z</time>
      </trkpt>
      <trkpt lat="42.84376" lon="0.50346">
        <ele>1661</ele>
        <time>2020-02-01T11:08:36.000Z</time>
      </trkpt>
      <trkpt lat="42.84376" lon="0.50346">
        <ele>1661</ele>
        <time>2020-02-01T11:08:37.000Z</time>
      </trkpt>
      <trkpt lat="42.84376" lon="0.50346">
        <ele>1661</ele>
        <time>2020-02-01T11:08:38.000Z</time>
      </trkpt>
      <trkpt lat="42.84376" lon="0.50347">
        <ele>1661</ele>
        <time>2020-02-01T11:08:39.000Z</time>
      </trkpt>
      <trkpt lat="42.84376" lon="0.50347">
        <ele>1661</ele>
        <time>2020-02-01T11:08:40.000Z</time>
      </trkpt>
      <trkpt lat="42.84376" lon="0.50347">
        <ele>1661</ele>
        <time>2020-02-01T11:08:41.000Z</time>
      </trkpt>
      <trkpt lat="42.84375" lon="0.50348">
        <ele>1661</ele>
        <time>2020-02-01T11:08:42.000Z</time>
      </trkpt>
      <trkpt lat="42.84375" lon="0.50348">
        <ele>1661</ele>
        <time>2020-02-01T11:08:43.000Z</time>
      </trkpt>
      <trkpt lat="42.84375" lon="0.50348">
        <ele>1661</ele>
        <time>2020-02-01T11:08:44.000Z</time>
      </trkpt>
      <trkpt lat="42.84375" lon="0.50349">
        <ele>1661</ele>
        <time>2020-02-01T11:08:45.000Z</time>
      </trkpt>
      <trkpt lat="42.84375" lon="0.50349">
        <ele>1661</ele>
        <time>2020-02-01T11:08:46.000Z</time>
      </trkpt>
      <trkpt lat="42.84375" lon="0.5035">
        <ele>1661</ele>
        <time>2020-02-01T11:08:47.000Z</time>
      </trkpt>
      <trkpt lat="42.84375" lon="0.50351">
        <ele>1662</ele>
        <time>2020-02-01T11:08:48.000Z</time>
      </trkpt>
      <trkpt lat="42.84375" lon="0.50352">
        <ele>1662</ele>
        <time>2020-02-01T11:08:49.000Z</time>
      </trkpt>
      <trkpt lat="42.84375" lon="0.50352">
        <ele>1662</ele>
        <time>2020-02-01T11:08:50.000Z</time>
      </trkpt>
      <trkpt lat="42.84375" lon="0.50353">
        <ele>1661.7</ele>
        <time>2020-02-01T11:08:51.000Z</time>
      </trkpt>
      <trkpt lat="42.84376" lon="0.50353">
        <ele>1661.3</ele>
        <time>2020-02-01T11:08:52.000Z</time>
      </trkpt>
      <trkpt lat="42.84376" lon="0.50353">
        <ele>1661</ele>
        <time>2020-02-01T11:08:53.000Z</time>
      </trkpt>
      <trkpt lat="42.84377" lon="0.50353">
        <ele>1661</ele>
        <time>2020-02-01T11:08:54.000Z</time>
      </trkpt>
      <trkpt lat="42.84378" lon="0.50352">
        <ele>1661</ele>
        <time>2020-02-01T11:08:55.000Z</time>
      </trkpt>
      <trkpt lat="42.84378" lon="0.50351">
        <ele>1661</ele>
        <time>2020-02-01T11:08:56.000Z</time>
      </trkpt>
      <trkpt lat="42.84378" lon="0.50351">
        <ele>1661</ele>
        <time>2020-02-01T11:08:57.000Z</time>
      </trkpt>
      <trkpt lat="42.84378" lon="0.5035">
        <ele>1661</ele>
        <time>2020-02-01T11:08:58.000Z</time>
      </trkpt>
      <trkpt lat="42.84378" lon="0.5035">
        <ele>1661.5</ele>
        <time>2020-02-01T11:08:59.000Z</time>
      </trkpt>
      <trkpt lat="42.84378" lon="0.5035">
        <ele>1662</ele>
        <time>2020-02-01T11:09:00.000Z</time>
      </trkpt>
      <trkpt lat="42.84377" lon="0.5035">
        <ele>1662</ele>
        <time>2020-02-01T11:09:01.000Z</time>
      </trkpt>
      <trkpt lat="42.84377" lon="0.50349">
        <ele>1662</ele>
        <time>2020-02-01T11:09:02.000Z</time>
      </trkpt>
      <trkpt lat="42.84377" lon="0.50349">
        <ele>1662</ele>
        <time>2020-02-01T11:09:03.000Z</time>
      </trkpt>
      <trkpt lat="42.84377" lon="0.50349">
        <ele>1662</ele>
        <time>2020-02-01T11:09:04.000Z</time>
      </trkpt>
      <trkpt lat="42.84377" lon="0.50349">
        <ele>1662</ele>
        <time>2020-02-01T11:09:05.000Z</time>
      </trkpt>
      <trkpt lat="42.84377" lon="0.50349">
        <ele>1662</ele>
        <time>2020-02-01T11:09:06.000Z</time>
      </trkpt>
      <trkpt lat="42.84377" lon="0.50349">
        <ele>1662</ele>
        <time>2020-02-01T11:09:07.000Z</time>
      </trkpt>
      <trkpt lat="42.84377" lon="0.50349">
        <ele>1662</ele>
        <time>2020-02-01T11:09:08.000Z</time>
      </trkpt>
      <trkpt lat="42.84377" lon="0.50349">
        <ele>1662</ele>
        <time>2020-02-01T11:09:09.000Z</time>
      </trkpt>
      <trkpt lat="42.84377" lon="0.50349">
        <ele>1662</ele>
        <time>2020-02-01T11:09:10.000Z</time>
      </trkpt>
      <trkpt lat="42.84377" lon="0.50349">
        <ele>1662</ele>
        <time>2020-02-01T11:09:11.000Z</time>
      </trkpt>
      <trkpt lat="42.84377" lon="0.50349">
        <ele>1662</ele>
        <time>2020-02-01T11:09:12.000Z</time>
      </trkpt>
      <trkpt lat="42.84377" lon="0.50349">
        <ele>1662</ele>
        <time>2020-02-01T11:09:13.000Z</time>
      </trkpt>
      <trkpt lat="42.84378" lon="0.50349">
        <ele>1662</ele>
        <time>2020-02-01T11:09:14.000Z</time>
      </trkpt>
      <trkpt lat="42.84378" lon="0.5035">
        <ele>1661.7</ele>
        <time>2020-02-01T11:09:15.000Z</time>
      </trkpt>
      <trkpt lat="42.84379" lon="0.5035">
        <ele>1661.3</ele>
        <time>2020-02-01T11:09:16.000Z</time>
      </trkpt>
      <trkpt lat="42.84379" lon="0.5035">
        <ele>1661</ele>
        <time>2020-02-01T11:09:17.000Z</time>
      </trkpt>
      <trkpt lat="42.84379" lon="0.5035">
        <ele>1661</ele>
        <time>2020-02-01T11:09:18.000Z</time>
      </trkpt>
      <trkpt lat="42.8438" lon="0.50349">
        <ele>1661</ele>
        <time>2020-02-01T11:09:19.000Z</time>
      </trkpt>
      <trkpt lat="42.8438" lon="0.50349">
        <ele>1661</ele>
        <time>2020-02-01T11:09:20.000Z</time>
      </trkpt>
      <trkpt lat="42.8438" lon="0.50349">
        <ele>1661</ele>
        <time>2020-02-01T11:09:21.000Z</time>
      </trkpt>
      <trkpt lat="42.8438" lon="0.50349">
        <ele>1662</ele>
        <time>2020-02-01T11:09:22.000Z</time>
      </trkpt>
      <trkpt lat="42.8438" lon="0.50349">
        <ele>1662</ele>
        <time>2020-02-01T11:09:23.000Z</time>
      </trkpt>
      <trkpt lat="42.8438" lon="0.50349">
        <ele>1662</ele>
        <time>2020-02-01T11:09:24.000Z</time>
      </trkpt>
      <trkpt lat="42.8438" lon="0.50348">
        <ele>1662</ele>
        <time>2020-02-01T11:09:25.000Z</time>
      </trkpt>
      <trkpt lat="42.8438" lon="0.50348">
        <ele>1662</ele>
        <time>2020-02-01T11:09:26.000Z</time>
      </trkpt>
      <trkpt lat="42.8438" lon="0.50348">
        <ele>1662</ele>
        <time>2020-02-01T11:09:27.000Z</time>
      </trkpt>
      <trkpt lat="42.8438" lon="0.50348">
        <ele>1662</ele>
        <time>2020-02-01T11:09:28.000Z</time>
      </trkpt>
      <trkpt lat="42.8438" lon="0.50348">
        <ele>1662</ele>
        <time>2020-02-01T11:09:29.000Z</time>
      </trkpt>
      <trkpt lat="42.84379" lon="0.50348">
        <ele>1661.5</ele>
        <time>2020-02-01T11:09:30.000Z</time>
      </trkpt>
      <trkpt lat="42.84379" lon="0.50348">
        <ele>1661</ele>
        <time>2020-02-01T11:09:31.000Z</time>
      </trkpt>
      <trkpt lat="42.84379" lon="0.50348">
        <ele>1661</ele>
        <time>2020-02-01T11:09:32.000Z</time>
      </trkpt>
      <trkpt lat="42.84379" lon="0.50348">
        <ele>1661</ele>
        <time>2020-02-01T11:09:33.000Z</time>
      </trkpt>
      <trkpt lat="42.84379" lon="0.50348">
        <ele>1661</ele>
        <time>2020-02-01T11:09:34.000Z</time>
      </trkpt>
      <trkpt lat="42.84379" lon="0.50348">
        <ele>1661</ele>
        <time>2020-02-01T11:09:35.000Z</time>
      </trkpt>
      <trkpt lat="42.84379" lon="0.50348">
        <ele>1661</ele>
        <time>2020-02-01T11:09:36.000Z</time>
      </trkpt>
      <trkpt lat="42.84379" lon="0.50348">
        <ele>1661</ele>
        <time>2020-02-01T11:09:37.000Z</time>
      </trkpt>
      <trkpt lat="42.84379" lon="0.50348">
        <ele>1661</ele>
        <time>2020-02-01T11:09:38.000Z</time>
      </trkpt>
      <trkpt lat="42.84379" lon="0.50348">
        <ele>1661</ele>
        <time>2020-02-01T11:09:39.000Z</time>
      </trkpt>
      <trkpt lat="42.84379" lon="0.50348">
        <ele>1661</ele>
        <time>2020-02-01T11:09:40.000Z</time>
      </trkpt>
      <trkpt lat="42.84379" lon="0.50348">
        <ele>1661</ele>
        <time>2020-02-01T11:09:41.000Z</time>
      </trkpt>
      <trkpt lat="42.84379" lon="0.50348">
        <ele>1661</ele>
        <time>2020-02-01T11:09:42.000Z</time>
      </trkpt>
      <trkpt lat="42.84379" lon="0.50348">
        <ele>1661</ele>
        <time>2020-02-01T11:09:43.000Z</time>
      </trkpt>
      <trkpt lat="42.84379" lon="0.50348">
        <ele>1661</ele>
        <time>2020-02-01T11:09:44.000Z</time>
      </trkpt>
      <trkpt lat="42.84379" lon="0.50348">
        <ele>1661</ele>
        <time>2020-02-01T11:09:45.000Z</time>
      </trkpt>
      <trkpt lat="42.84379" lon="0.50348">
        <ele>1661</ele>
        <time>2020-02-01T11:09:46.000Z</time>
      </trkpt>
      <trkpt lat="42.84379" lon="0.50349">
        <ele>1661</ele>
        <time>2020-02-01T11:09:47.000Z</time>
      </trkpt>
      <trkpt lat="42.8438" lon="0.50349">
        <ele>1661</ele>
        <time>2020-02-01T11:09:48.000Z</time>
      </trkpt>
      <trkpt lat="42.8438" lon="0.50349">
        <ele>1661</ele>
        <time>2020-02-01T11:09:49.000Z</time>
      </trkpt>
      <trkpt lat="42.8438" lon="0.50349">
        <ele>1661</ele>
        <time>2020-02-01T11:09:50.000Z</time>
      </trkpt>
      <trkpt lat="42.8438" lon="0.50349">
        <ele>1661</ele>
        <time>2020-02-01T11:09:51.000Z</time>
      </trkpt>
      <trkpt lat="42.84381" lon="0.50349">
        <ele>1661</ele>
        <time>2020-02-01T11:09:52.000Z</time>
      </trkpt>
      <trkpt lat="42.84381" lon="0.50349">
        <ele>1661</ele>
        <time>2020-02-01T11:09:53.000Z</time>
      </trkpt>
      <trkpt lat="42.84381" lon="0.50349">
        <ele>1661</ele>
        <time>2020-02-01T11:09:54.000Z</time>
      </trkpt>
      <trkpt lat="42.84381" lon="0.50348">
        <ele>1661</ele>
        <time>2020-02-01T11:09:55.000Z</time>
      </trkpt>
      <trkpt lat="42.84381" lon="0.50348">
        <ele>1661</ele>
        <time>2020-02-01T11:09:56.000Z</time>
      </trkpt>
      <trkpt lat="42.84381" lon="0.50348">
        <ele>1661</ele>
        <time>2020-02-01T11:09:57.000Z</time>
      </trkpt>
      <trkpt lat="42.84381" lon="0.50348">
        <ele>1661</ele>
        <time>2020-02-01T11:09:58.000Z</time>
      </trkpt>
      <trkpt lat="42.84382" lon="0.50348">
        <ele>1661</ele>
        <time>2020-02-01T11:09:59.000Z</time>
      </trkpt>
      <trkpt lat="42.84382" lon="0.50348">
        <ele>1661</ele>
        <time>2020-02-01T11:10:00.000Z</time>
      </trkpt>
      <trkpt lat="42.84382" lon="0.50347">
        <ele>1661</ele>
        <time>2020-02-01T11:10:01.000Z</time>
      </trkpt>
      <trkpt lat="42.84382" lon="0.50347">
        <ele>1661</ele>
        <time>2020-02-01T11:10:02.000Z</time>
      </trkpt>
      <trkpt lat="42.84382" lon="0.50347">
        <ele>1661</ele>
        <time>2020-02-01T11:10:03.000Z</time>
      </trkpt>
      <trkpt lat="42.84381" lon="0.50347">
        <ele>1661</ele>
        <time>2020-02-01T11:10:04.000Z</time>
      </trkpt>
      <trkpt lat="42.84381" lon="0.50347">
        <ele>1661</ele>
        <time>2020-02-01T11:10:05.000Z</time>
      </trkpt>
      <trkpt lat="42.84381" lon="0.50347">
        <ele>1661</ele>
        <time>2020-02-01T11:10:06.000Z</time>
      </trkpt>
      <trkpt lat="42.84381" lon="0.50347">
        <ele>1661</ele>
        <time>2020-02-01T11:10:07.000Z</time>
      </trkpt>
      <trkpt lat="42.84381" lon="0.50348">
        <ele>1661</ele>
        <time>2020-02-01T11:10:08.000Z</time>
      </trkpt>
      <trkpt lat="42.84381" lon="0.50348">
        <ele>1661</ele>
        <time>2020-02-01T11:10:09.000Z</time>
      </trkpt>
      <trkpt lat="42.84381" lon="0.50348">
        <ele>1661</ele>
        <time>2020-02-01T11:10:10.000Z</time>
      </trkpt>
      <trkpt lat="42.84381" lon="0.50348">
        <ele>1661</ele>
        <time>2020-02-01T11:10:11.000Z</time>
      </trkpt>
      <trkpt lat="42.84381" lon="0.50348">
        <ele>1661</ele>
        <time>2020-02-01T11:10:12.000Z</time>
      </trkpt>
      <trkpt lat="42.84381" lon="0.50348">
        <ele>1661</ele>
        <time>2020-02-01T11:10:13.000Z</time>
      </trkpt>
      <trkpt lat="42.84381" lon="0.50348">
        <ele>1661</ele>
        <time>2020-02-01T11:10:14.000Z</time>
      </trkpt>
      <trkpt lat="42.84381" lon="0.50348">
        <ele>1661</ele>
        <time>2020-02-01T11:10:15.000Z</time>
      </trkpt>
      <trkpt lat="42.84381" lon="0.50348">
        <ele>1661</ele>
        <time>2020-02-01T11:10:16.000Z</time>
      </trkpt>
      <trkpt lat="42.84381" lon="0.50348">
        <ele>1661</ele>
        <time>2020-02-01T11:10:17.000Z</time>
      </trkpt>
      <trkpt lat="42.84381" lon="0.50348">
        <ele>1661</ele>
        <time>2020-02-01T11:10:18.000Z</time>
      </trkpt>
      <trkpt lat="42.84381" lon="0.50348">
        <ele>1661</ele>
        <time>2020-02-01T11:10:19.000Z</time>
      </trkpt>
      <trkpt lat="42.8438" lon="0.50347">
        <ele>1661</ele>
        <time>2020-02-01T11:10:20.000Z</time>
      </trkpt>
      <trkpt lat="42.8438" lon="0.50347">
        <ele>1661</ele>
        <time>2020-02-01T11:10:21.000Z</time>
      </trkpt>
      <trkpt lat="42.8438" lon="0.50347">
        <ele>1661</ele>
        <time>2020-02-01T11:10:22.000Z</time>
      </trkpt>
      <trkpt lat="42.84379" lon="0.50346">
        <ele>1661</ele>
        <time>2020-02-01T11:10:23.000Z</time>
      </trkpt>
      <trkpt lat="42.84379" lon="0.50346">
        <ele>1661</ele>
        <time>2020-02-01T11:10:24.000Z</time>
      </trkpt>
      <trkpt lat="42.84378" lon="0.50345">
        <ele>1661</ele>
        <time>2020-02-01T11:10:25.000Z</time>
      </trkpt>
      <trkpt lat="42.84378" lon="0.50345">
        <ele>1661</ele>
        <time>2020-02-01T11:10:26.000Z</time>
      </trkpt>
      <trkpt lat="42.84378" lon="0.50345">
        <ele>1661</ele>
        <time>2020-02-01T11:10:27.000Z</time>
      </trkpt>
      <trkpt lat="42.84377" lon="0.50344">
        <ele>1661.5</ele>
        <time>2020-02-01T11:10:28.000Z</time>
      </trkpt>
      <trkpt lat="42.84377" lon="0.50344">
        <ele>1662</ele>
        <time>2020-02-01T11:10:29.000Z</time>
      </trkpt>
      <trkpt lat="42.84377" lon="0.50344">
        <ele>1662</ele>
        <time>2020-02-01T11:10:30.000Z</time>
      </trkpt>
      <trkpt lat="42.84377" lon="0.50344">
        <ele>1662</ele>
        <time>2020-02-01T11:10:31.000Z</time>
      </trkpt>
      <trkpt lat="42.84377" lon="0.50344">
        <ele>1661.5</ele>
        <time>2020-02-01T11:10:32.000Z</time>
      </trkpt>
      <trkpt lat="42.84377" lon="0.50344">
        <ele>1661</ele>
        <time>2020-02-01T11:10:33.000Z</time>
      </trkpt>
      <trkpt lat="42.84377" lon="0.50344">
        <ele>1661</ele>
        <time>2020-02-01T11:10:34.000Z</time>
      </trkpt>
      <trkpt lat="42.84377" lon="0.50344">
        <ele>1661</ele>
        <time>2020-02-01T11:10:35.000Z</time>
      </trkpt>
      <trkpt lat="42.84377" lon="0.50344">
        <ele>1661</ele>
        <time>2020-02-01T11:10:36.000Z</time>
      </trkpt>
      <trkpt lat="42.84377" lon="0.50344">
        <ele>1661</ele>
        <time>2020-02-01T11:10:37.000Z</time>
      </trkpt>
      <trkpt lat="42.84377" lon="0.50344">
        <ele>1661</ele>
        <time>2020-02-01T11:10:38.000Z</time>
      </trkpt>
      <trkpt lat="42.84377" lon="0.50344">
        <ele>1661</ele>
        <time>2020-02-01T11:10:39.000Z</time>
      </trkpt>
      <trkpt lat="42.84377" lon="0.50344">
        <ele>1661</ele>
        <time>2020-02-01T11:10:40.000Z</time>
      </trkpt>
      <trkpt lat="42.84377" lon="0.50344">
        <ele>1661</ele>
        <time>2020-02-01T11:10:41.000Z</time>
      </trkpt>
      <trkpt lat="42.84377" lon="0.50344">
        <ele>1662</ele>
        <time>2020-02-01T11:10:42.000Z</time>
      </trkpt>
      <trkpt lat="42.84377" lon="0.50344">
        <ele>1662</ele>
        <time>2020-02-01T11:10:43.000Z</time>
      </trkpt>
      <trkpt lat="42.84377" lon="0.50344">
        <ele>1662</ele>
        <time>2020-02-01T11:10:44.000Z</time>
      </trkpt>
      <trkpt lat="42.84377" lon="0.50344">
        <ele>1662</ele>
        <time>2020-02-01T11:10:45.000Z</time>
      </trkpt>
      <trkpt lat="42.84376" lon="0.50344">
        <ele>1661.5</ele>
        <time>2020-02-01T11:10:46.000Z</time>
      </trkpt>
      <trkpt lat="42.84376" lon="0.50344">
        <ele>1661</ele>
        <time>2020-02-01T11:10:47.000Z</time>
      </trkpt>
      <trkpt lat="42.84376" lon="0.50344">
        <ele>1661</ele>
        <time>2020-02-01T11:10:48.000Z</time>
      </trkpt>
      <trkpt lat="42.84376" lon="0.50344">
        <ele>1661</ele>
        <time>2020-02-01T11:10:49.000Z</time>
      </trkpt>
      <trkpt lat="42.84376" lon="0.50344">
        <ele>1661</ele>
        <time>2020-02-01T11:10:50.000Z</time>
      </trkpt>
      <trkpt lat="42.84375" lon="0.50344">
        <ele>1661</ele>
        <time>2020-02-01T11:10:51.000Z</time>
      </trkpt>
      <trkpt lat="42.84375" lon="0.50344">
        <ele>1661</ele>
        <time>2020-02-01T11:10:52.000Z</time>
      </trkpt>
      <trkpt lat="42.84375" lon="0.50344">
        <ele>1661</ele>
        <time>2020-02-01T11:10:53.000Z</time>
      </trkpt>
      <trkpt lat="42.84376" lon="0.50344">
        <ele>1661</ele>
        <time>2020-02-01T11:10:54.000Z</time>
      </trkpt>
      <trkpt lat="42.84375" lon="0.50344">
        <ele>1661</ele>
        <time>2020-02-01T11:10:55.000Z</time>
      </trkpt>
      <trkpt lat="42.84375" lon="0.50344">
        <ele>1661</ele>
        <time>2020-02-01T11:10:56.000Z</time>
      </trkpt>
      <trkpt lat="42.84375" lon="0.50344">
        <ele>1661</ele>
        <time>2020-02-01T11:10:57.000Z</time>
      </trkpt>
      <trkpt lat="42.84375" lon="0.50344">
        <ele>1661</ele>
        <time>2020-02-01T11:10:58.000Z</time>
      </trkpt>
      <trkpt lat="42.84375" lon="0.50344">
        <ele>1661</ele>
        <time>2020-02-01T11:10:59.000Z</time>
      </trkpt>
      <trkpt lat="42.84375" lon="0.50344">
        <ele>1662</ele>
        <time>2020-02-01T11:11:00.000Z</time>
      </trkpt>
      <trkpt lat="42.84375" lon="0.50345">
        <ele>1661</ele>
        <time>2020-02-01T11:11:01.000Z</time>
      </trkpt>
      <trkpt lat="42.84375" lon="0.50345">
        <ele>1661</ele>
        <time>2020-02-01T11:11:02.000Z</time>
      </trkpt>
      <trkpt lat="42.84375" lon="0.50345">
        <ele>1661</ele>
        <time>2020-02-01T11:11:03.000Z</time>
      </trkpt>
      <trkpt lat="42.84376" lon="0.50346">
        <ele>1661</ele>
        <time>2020-02-01T11:11:04.000Z</time>
      </trkpt>
      <trkpt lat="42.84376" lon="0.50346">
        <ele>1661</ele>
        <time>2020-02-01T11:11:05.000Z</time>
      </trkpt>
      <trkpt lat="42.84376" lon="0.50345">
        <ele>1661</ele>
        <time>2020-02-01T11:11:06.000Z</time>
      </trkpt>
      <trkpt lat="42.84376" lon="0.50345">
        <ele>1661</ele>
        <time>2020-02-01T11:11:07.000Z</time>
      </trkpt>
      <trkpt lat="42.84376" lon="0.50345">
        <ele>1661</ele>
        <time>2020-02-01T11:11:08.000Z</time>
      </trkpt>
      <trkpt lat="42.84376" lon="0.50345">
        <ele>1661</ele>
        <time>2020-02-01T11:11:09.000Z</time>
      </trkpt>
      <trkpt lat="42.84376" lon="0.50345">
        <ele>1661</ele>
        <time>2020-02-01T11:11:10.000Z</time>
      </trkpt>
      <trkpt lat="42.84376" lon="0.50345">
        <ele>1661</ele>
        <time>2020-02-01T11:11:11.000Z</time>
      </trkpt>
      <trkpt lat="42.84376" lon="0.50345">
        <ele>1661</ele>
        <time>2020-02-01T11:11:12.000Z</time>
      </trkpt>
      <trkpt lat="42.84376" lon="0.50346">
        <ele>1661</ele>
        <time>2020-02-01T11:11:13.000Z</time>
      </trkpt>
      <trkpt lat="42.84376" lon="0.50346">
        <ele>1661</ele>
        <time>2020-02-01T11:11:14.000Z</time>
      </trkpt>
      <trkpt lat="42.84376" lon="0.50347">
        <ele>1661</ele>
        <time>2020-02-01T11:11:15.000Z</time>
      </trkpt>
      <trkpt lat="42.84376" lon="0.50347">
        <ele>1661</ele>
        <time>2020-02-01T11:11:16.000Z</time>
      </trkpt>
      <trkpt lat="42.84376" lon="0.50347">
        <ele>1661</ele>
        <time>2020-02-01T11:11:17.000Z</time>
      </trkpt>
      <trkpt lat="42.84376" lon="0.50347">
        <ele>1661</ele>
        <time>2020-02-01T11:11:18.000Z</time>
      </trkpt>
      <trkpt lat="42.84376" lon="0.50348">
        <ele>1661</ele>
        <time>2020-02-01T11:11:19.000Z</time>
      </trkpt>
      <trkpt lat="42.84376" lon="0.50348">
        <ele>1661</ele>
        <time>2020-02-01T11:11:20.000Z</time>
      </trkpt>
      <trkpt lat="42.84376" lon="0.50349">
        <ele>1661</ele>
        <time>2020-02-01T11:11:21.000Z</time>
      </trkpt>
      <trkpt lat="42.84375" lon="0.5035">
        <ele>1661</ele>
        <time>2020-02-01T11:11:22.000Z</time>
      </trkpt>
      <trkpt lat="42.84375" lon="0.5035">
        <ele>1661</ele>
        <time>2020-02-01T11:11:23.000Z</time>
      </trkpt>
      <trkpt lat="42.84374" lon="0.50351">
        <ele>1661</ele>
        <time>2020-02-01T11:11:24.000Z</time>
      </trkpt>
      <trkpt lat="42.84374" lon="0.50351">
        <ele>1661</ele>
        <time>2020-02-01T11:11:25.000Z</time>
      </trkpt>
      <trkpt lat="42.84374" lon="0.50351">
        <ele>1661</ele>
        <time>2020-02-01T11:11:26.000Z</time>
      </trkpt>
      <trkpt lat="42.84374" lon="0.50351">
        <ele>1661</ele>
        <time>2020-02-01T11:11:27.000Z</time>
      </trkpt>
      <trkpt lat="42.84374" lon="0.50351">
        <ele>1661</ele>
        <time>2020-02-01T11:11:28.000Z</time>
      </trkpt>
      <trkpt lat="42.84374" lon="0.5035">
        <ele>1661</ele>
        <time>2020-02-01T11:11:29.000Z</time>
      </trkpt>
      <trkpt lat="42.84374" lon="0.5035">
        <ele>1661</ele>
        <time>2020-02-01T11:11:30.000Z</time>
      </trkpt>
      <trkpt lat="42.84374" lon="0.5035">
        <ele>1661</ele>
        <time>2020-02-01T11:11:31.000Z</time>
      </trkpt>
      <trkpt lat="42.84374" lon="0.50349">
        <ele>1661</ele>
        <time>2020-02-01T11:11:32.000Z</time>
      </trkpt>
      <trkpt lat="42.84374" lon="0.50349">
        <ele>1661</ele>
        <time>2020-02-01T11:11:33.000Z</time>
      </trkpt>
      <trkpt lat="42.84374" lon="0.50349">
        <ele>1661</ele>
        <time>2020-02-01T11:11:34.000Z</time>
      </trkpt>
      <trkpt lat="42.84374" lon="0.50349">
        <ele>1661</ele>
        <time>2020-02-01T11:11:35.000Z</time>
      </trkpt>
      <trkpt lat="42.84374" lon="0.50349">
        <ele>1661</ele>
        <time>2020-02-01T11:11:36.000Z</time>
      </trkpt>
      <trkpt lat="42.84374" lon="0.50349">
        <ele>1661</ele>
        <time>2020-02-01T11:11:37.000Z</time>
      </trkpt>
      <trkpt lat="42.84374" lon="0.50349">
        <ele>1661</ele>
        <time>2020-02-01T11:11:38.000Z</time>
      </trkpt>
      <trkpt lat="42.84374" lon="0.50349">
        <ele>1661</ele>
        <time>2020-02-01T11:11:39.000Z</time>
      </trkpt>
      <trkpt lat="42.84374" lon="0.50349">
        <ele>1661</ele>
        <time>2020-02-01T11:11:40.000Z</time>
      </trkpt>
      <trkpt lat="42.84374" lon="0.50349">
        <ele>1661</ele>
        <time>2020-02-01T11:11:41.000Z</time>
      </trkpt>
      <trkpt lat="42.84374" lon="0.50349">
        <ele>1661</ele>
        <time>2020-02-01T11:11:42.000Z</time>
      </trkpt>
      <trkpt lat="42.84374" lon="0.50349">
        <ele>1661</ele>
        <time>2020-02-01T11:11:43.000Z</time>
      </trkpt>
      <trkpt lat="42.84374" lon="0.50349">
        <ele>1661</ele>
        <time>2020-02-01T11:11:44.000Z</time>
      </trkpt>
      <trkpt lat="42.84374" lon="0.50349">
        <ele>1661</ele>
        <time>2020-02-01T11:11:45.000Z</time>
      </trkpt>
      <trkpt lat="42.84374" lon="0.50349">
        <ele>1661</ele>
        <time>2020-02-01T11:11:46.000Z</time>
      </trkpt>
      <trkpt lat="42.84374" lon="0.50349">
        <ele>1661</ele>
        <time>2020-02-01T11:11:47.000Z</time>
      </trkpt>
      <trkpt lat="42.84374" lon="0.50349">
        <ele>1661</ele>
        <time>2020-02-01T11:11:48.000Z</time>
      </trkpt>
      <trkpt lat="42.84374" lon="0.50349">
        <ele>1661</ele>
        <time>2020-02-01T11:11:49.000Z</time>
      </trkpt>
      <trkpt lat="42.84374" lon="0.50349">
        <ele>1661</ele>
        <time>2020-02-01T11:11:50.000Z</time>
      </trkpt>
      <trkpt lat="42.84374" lon="0.50349">
        <ele>1661</ele>
        <time>2020-02-01T11:11:51.000Z</time>
      </trkpt>
      <trkpt lat="42.84374" lon="0.50349">
        <ele>1661</ele>
        <time>2020-02-01T11:11:52.000Z</time>
      </trkpt>
      <trkpt lat="42.84374" lon="0.5035">
        <ele>1661</ele>
        <time>2020-02-01T11:11:53.000Z</time>
      </trkpt>
      <trkpt lat="42.84374" lon="0.5035">
        <ele>1661</ele>
        <time>2020-02-01T11:11:54.000Z</time>
      </trkpt>
      <trkpt lat="42.84374" lon="0.5035">
        <ele>1661</ele>
        <time>2020-02-01T11:11:55.000Z</time>
      </trkpt>
      <trkpt lat="42.84374" lon="0.5035">
        <ele>1661</ele>
        <time>2020-02-01T11:11:56.000Z</time>
      </trkpt>
      <trkpt lat="42.84374" lon="0.5035">
        <ele>1661</ele>
        <time>2020-02-01T11:11:57.000Z</time>
      </trkpt>
      <trkpt lat="42.84374" lon="0.5035">
        <ele>1661</ele>
        <time>2020-02-01T11:11:58.000Z</time>
      </trkpt>
      <trkpt lat="42.84374" lon="0.5035">
        <ele>1661</ele>
        <time>2020-02-01T11:11:59.000Z</time>
      </trkpt>
      <trkpt lat="42.84374" lon="0.5035">
        <ele>1661</ele>
        <time>2020-02-01T11:12:00.000Z</time>
      </trkpt>
      <trkpt lat="42.84374" lon="0.5035">
        <ele>1661</ele>
        <time>2020-02-01T11:12:01.000Z</time>
      </trkpt>
      <trkpt lat="42.84374" lon="0.5035">
        <ele>1661</ele>
        <time>2020-02-01T11:12:02.000Z</time>
      </trkpt>
      <trkpt lat="42.84374" lon="0.5035">
        <ele>1661</ele>
        <time>2020-02-01T11:12:03.000Z</time>
      </trkpt>
      <trkpt lat="42.84374" lon="0.5035">
        <ele>1661</ele>
        <time>2020-02-01T11:12:04.000Z</time>
      </trkpt>
      <trkpt lat="42.84374" lon="0.50351">
        <ele>1661</ele>
        <time>2020-02-01T11:12:05.000Z</time>
      </trkpt>
      <trkpt lat="42.84374" lon="0.50351">
        <ele>1661</ele>
        <time>2020-02-01T11:12:06.000Z</time>
      </trkpt>
      <trkpt lat="42.84375" lon="0.50351">
        <ele>1661</ele>
        <time>2020-02-01T11:12:07.000Z</time>
      </trkpt>
      <trkpt lat="42.84375" lon="0.50351">
        <ele>1661</ele>
        <time>2020-02-01T11:12:08.000Z</time>
      </trkpt>
      <trkpt lat="42.84375" lon="0.50352">
        <ele>1661</ele>
        <time>2020-02-01T11:12:09.000Z</time>
      </trkpt>
      <trkpt lat="42.84375" lon="0.50352">
        <ele>1661</ele>
        <time>2020-02-01T11:12:10.000Z</time>
      </trkpt>
      <trkpt lat="42.84375" lon="0.50351">
        <ele>1661</ele>
        <time>2020-02-01T11:12:11.000Z</time>
      </trkpt>
      <trkpt lat="42.84374" lon="0.50351">
        <ele>1661</ele>
        <time>2020-02-01T11:12:12.000Z</time>
      </trkpt>
      <trkpt lat="42.84374" lon="0.50352">
        <ele>1661</ele>
        <time>2020-02-01T11:12:13.000Z</time>
      </trkpt>
      <trkpt lat="42.84374" lon="0.50352">
        <ele>1661</ele>
        <time>2020-02-01T11:12:14.000Z</time>
      </trkpt>
      <trkpt lat="42.84373" lon="0.50352">
        <ele>1661</ele>
        <time>2020-02-01T11:12:15.000Z</time>
      </trkpt>
      <trkpt lat="42.84373" lon="0.50352">
        <ele>1661</ele>
        <time>2020-02-01T11:12:16.000Z</time>
      </trkpt>
      <trkpt lat="42.84373" lon="0.50352">
        <ele>1661</ele>
        <time>2020-02-01T11:12:17.000Z</time>
      </trkpt>
      <trkpt lat="42.84373" lon="0.50352">
        <ele>1661</ele>
        <time>2020-02-01T11:12:18.000Z</time>
      </trkpt>
      <trkpt lat="42.84373" lon="0.50352">
        <ele>1661</ele>
        <time>2020-02-01T11:12:19.000Z</time>
      </trkpt>
      <trkpt lat="42.84373" lon="0.50352">
        <ele>1661</ele>
        <time>2020-02-01T11:12:20.000Z</time>
      </trkpt>
      <trkpt lat="42.84373" lon="0.50352">
        <ele>1661</ele>
        <time>2020-02-01T11:12:21.000Z</time>
      </trkpt>
      <trkpt lat="42.84373" lon="0.50352">
        <ele>1661</ele>
        <time>2020-02-01T11:12:22.000Z</time>
      </trkpt>
      <trkpt lat="42.84373" lon="0.50352">
        <ele>1661</ele>
        <time>2020-02-01T11:12:23.000Z</time>
      </trkpt>
      <trkpt lat="42.84373" lon="0.50353">
        <ele>1661</ele>
        <time>2020-02-01T11:12:24.000Z</time>
      </trkpt>
      <trkpt lat="42.84373" lon="0.50353">
        <ele>1661</ele>
        <time>2020-02-01T11:12:25.000Z</time>
      </trkpt>
      <trkpt lat="42.84373" lon="0.50353">
        <ele>1661</ele>
        <time>2020-02-01T11:12:26.000Z</time>
      </trkpt>
      <trkpt lat="42.84372" lon="0.50353">
        <ele>1661</ele>
        <time>2020-02-01T11:12:27.000Z</time>
      </trkpt>
      <trkpt lat="42.84372" lon="0.50354">
        <ele>1661</ele>
        <time>2020-02-01T11:12:28.000Z</time>
      </trkpt>
      <trkpt lat="42.84372" lon="0.50354">
        <ele>1661</ele>
        <time>2020-02-01T11:12:29.000Z</time>
      </trkpt>
      <trkpt lat="42.84372" lon="0.50354">
        <ele>1661</ele>
        <time>2020-02-01T11:12:30.000Z</time>
      </trkpt>
      <trkpt lat="42.84372" lon="0.50354">
        <ele>1661</ele>
        <time>2020-02-01T11:12:31.000Z</time>
      </trkpt>
      <trkpt lat="42.84372" lon="0.50354">
        <ele>1661</ele>
        <time>2020-02-01T11:12:32.000Z</time>
      </trkpt>
      <trkpt lat="42.84372" lon="0.50354">
        <ele>1661</ele>
        <time>2020-02-01T11:12:33.000Z</time>
      </trkpt>
      <trkpt lat="42.84372" lon="0.50354">
        <ele>1661</ele>
        <time>2020-02-01T11:12:34.000Z</time>
      </trkpt>
      <trkpt lat="42.84372" lon="0.50355">
        <ele>1661</ele>
        <time>2020-02-01T11:12:35.000Z</time>
      </trkpt>
      <trkpt lat="42.84372" lon="0.50355">
        <ele>1661</ele>
        <time>2020-02-01T11:12:36.000Z</time>
      </trkpt>
      <trkpt lat="42.84372" lon="0.50355">
        <ele>1661</ele>
        <time>2020-02-01T11:12:37.000Z</time>
      </trkpt>
      <trkpt lat="42.84372" lon="0.50355">
        <ele>1661</ele>
        <time>2020-02-01T11:12:38.000Z</time>
      </trkpt>
      <trkpt lat="42.84372" lon="0.50355">
        <ele>1661</ele>
        <time>2020-02-01T11:12:39.000Z</time>
      </trkpt>
      <trkpt lat="42.84372" lon="0.50355">
        <ele>1661</ele>
        <time>2020-02-01T11:12:40.000Z</time>
      </trkpt>
      <trkpt lat="42.84372" lon="0.50354">
        <ele>1661</ele>
        <time>2020-02-01T11:12:41.000Z</time>
      </trkpt>
      <trkpt lat="42.84372" lon="0.50354">
        <ele>1661</ele>
        <time>2020-02-01T11:12:42.000Z</time>
      </trkpt>
      <trkpt lat="42.84372" lon="0.50354">
        <ele>1661</ele>
        <time>2020-02-01T11:12:43.000Z</time>
      </trkpt>
      <trkpt lat="42.84372" lon="0.50354">
        <ele>1661</ele>
        <time>2020-02-01T11:12:44.000Z</time>
      </trkpt>
      <trkpt lat="42.84372" lon="0.50354">
        <ele>1661</ele>
        <time>2020-02-01T11:12:45.000Z</time>
      </trkpt>
      <trkpt lat="42.84372" lon="0.50354">
        <ele>1661</ele>
        <time>2020-02-01T11:12:46.000Z</time>
      </trkpt>
      <trkpt lat="42.84372" lon="0.50354">
        <ele>1661</ele>
        <time>2020-02-01T11:12:47.000Z</time>
      </trkpt>
      <trkpt lat="42.84372" lon="0.50354">
        <ele>1661</ele>
        <time>2020-02-01T11:12:48.000Z</time>
      </trkpt>
      <trkpt lat="42.84372" lon="0.50354">
        <ele>1661</ele>
        <time>2020-02-01T11:12:49.000Z</time>
      </trkpt>
      <trkpt lat="42.84372" lon="0.50354">
        <ele>1661</ele>
        <time>2020-02-01T11:12:50.000Z</time>
      </trkpt>
      <trkpt lat="42.84372" lon="0.50353">
        <ele>1661</ele>
        <time>2020-02-01T11:12:51.000Z</time>
      </trkpt>
      <trkpt lat="42.84372" lon="0.50353">
        <ele>1661</ele>
        <time>2020-02-01T11:12:52.000Z</time>
      </trkpt>
      <trkpt lat="42.84372" lon="0.50353">
        <ele>1661</ele>
        <time>2020-02-01T11:12:53.000Z</time>
      </trkpt>
      <trkpt lat="42.84372" lon="0.50353">
        <ele>1661</ele>
        <time>2020-02-01T11:12:54.000Z</time>
      </trkpt>
      <trkpt lat="42.84372" lon="0.50353">
        <ele>1661</ele>
        <time>2020-02-01T11:12:55.000Z</time>
      </trkpt>
      <trkpt lat="42.84372" lon="0.50353">
        <ele>1661</ele>
        <time>2020-02-01T11:12:56.000Z</time>
      </trkpt>
      <trkpt lat="42.84372" lon="0.50353">
        <ele>1661</ele>
        <time>2020-02-01T11:12:57.000Z</time>
      </trkpt>
      <trkpt lat="42.84372" lon="0.50353">
        <ele>1661</ele>
        <time>2020-02-01T11:12:58.000Z</time>
      </trkpt>
      <trkpt lat="42.84372" lon="0.50353">
        <ele>1661</ele>
        <time>2020-02-01T11:12:59.000Z</time>
      </trkpt>
      <trkpt lat="42.84372" lon="0.50353">
        <ele>1661</ele>
        <time>2020-02-01T11:13:00.000Z</time>
      </trkpt>
      <trkpt lat="42.84372" lon="0.50353">
        <ele>1661</ele>
        <time>2020-02-01T11:13:01.000Z</time>
      </trkpt>
      <trkpt lat="42.84372" lon="0.50353">
        <ele>1661</ele>
        <time>2020-02-01T11:13:02.000Z</time>
      </trkpt>
      <trkpt lat="42.84372" lon="0.50353">
        <ele>1661</ele>
        <time>2020-02-01T11:13:03.000Z</time>
      </trkpt>
      <trkpt lat="42.84372" lon="0.50353">
        <ele>1661</ele>
        <time>2020-02-01T11:13:04.000Z</time>
      </trkpt>
      <trkpt lat="42.84372" lon="0.50353">
        <ele>1661</ele>
        <time>2020-02-01T11:13:05.000Z</time>
      </trkpt>
      <trkpt lat="42.84372" lon="0.50353">
        <ele>1661</ele>
        <time>2020-02-01T11:13:06.000Z</time>
      </trkpt>
      <trkpt lat="42.84372" lon="0.50353">
        <ele>1661</ele>
        <time>2020-02-01T11:13:07.000Z</time>
      </trkpt>
      <trkpt lat="42.84372" lon="0.50353">
        <ele>1661</ele>
        <time>2020-02-01T11:13:08.000Z</time>
      </trkpt>
      <trkpt lat="42.84372" lon="0.50353">
        <ele>1661</ele>
        <time>2020-02-01T11:13:09.000Z</time>
      </trkpt>
      <trkpt lat="42.84372" lon="0.50353">
        <ele>1661</ele>
        <time>2020-02-01T11:13:10.000Z</time>
      </trkpt>
      <trkpt lat="42.84372" lon="0.50353">
        <ele>1661</ele>
        <time>2020-02-01T11:13:11.000Z</time>
      </trkpt>
      <trkpt lat="42.84371" lon="0.50353">
        <ele>1661</ele>
        <time>2020-02-01T11:13:12.000Z</time>
      </trkpt>
      <trkpt lat="42.8437" lon="0.50353">
        <ele>1661</ele>
        <time>2020-02-01T11:13:13.000Z</time>
      </trkpt>
      <trkpt lat="42.8437" lon="0.50352">
        <ele>1661</ele>
        <time>2020-02-01T11:13:14.000Z</time>
      </trkpt>
      <trkpt lat="42.8437" lon="0.50352">
        <ele>1661</ele>
        <time>2020-02-01T11:13:15.000Z</time>
      </trkpt>
      <trkpt lat="42.8437" lon="0.50352">
        <ele>1661</ele>
        <time>2020-02-01T11:13:16.000Z</time>
      </trkpt>
      <trkpt lat="42.8437" lon="0.50352">
        <ele>1661</ele>
        <time>2020-02-01T11:13:17.000Z</time>
      </trkpt>
      <trkpt lat="42.8437" lon="0.50352">
        <ele>1661</ele>
        <time>2020-02-01T11:13:18.000Z</time>
      </trkpt>
      <trkpt lat="42.8437" lon="0.50352">
        <ele>1661</ele>
        <time>2020-02-01T11:13:19.000Z</time>
      </trkpt>
      <trkpt lat="42.8437" lon="0.50352">
        <ele>1661</ele>
        <time>2020-02-01T11:13:20.000Z</time>
      </trkpt>
      <trkpt lat="42.8437" lon="0.50352">
        <ele>1661</ele>
        <time>2020-02-01T11:13:21.000Z</time>
      </trkpt>
      <trkpt lat="42.8437" lon="0.50352">
        <ele>1661</ele>
        <time>2020-02-01T11:13:22.000Z</time>
      </trkpt>
      <trkpt lat="42.8437" lon="0.50352">
        <ele>1661</ele>
        <time>2020-02-01T11:13:23.000Z</time>
      </trkpt>
      <trkpt lat="42.8437" lon="0.50352">
        <ele>1661</ele>
        <time>2020-02-01T11:13:24.000Z</time>
      </trkpt>
      <trkpt lat="42.8437" lon="0.50352">
        <ele>1661</ele>
        <time>2020-02-01T11:13:25.000Z</time>
      </trkpt>
      <trkpt lat="42.8437" lon="0.50352">
        <ele>1661</ele>
        <time>2020-02-01T11:13:26.000Z</time>
      </trkpt>
      <trkpt lat="42.8437" lon="0.50352">
        <ele>1661</ele>
        <time>2020-02-01T11:13:27.000Z</time>
      </trkpt>
      <trkpt lat="42.8437" lon="0.50352">
        <ele>1661</ele>
        <time>2020-02-01T11:13:28.000Z</time>
      </trkpt>
      <trkpt lat="42.8437" lon="0.50352">
        <ele>1660.5</ele>
        <time>2020-02-01T11:13:29.000Z</time>
      </trkpt>
      <trkpt lat="42.8437" lon="0.50352">
        <ele>1660</ele>
        <time>2020-02-01T11:13:30.000Z</time>
      </trkpt>
      <trkpt lat="42.8437" lon="0.50352">
        <ele>1660.3</ele>
        <time>2020-02-01T11:13:31.000Z</time>
      </trkpt>
      <trkpt lat="42.8437" lon="0.50352">
        <ele>1660.7</ele>
        <time>2020-02-01T11:13:32.000Z</time>
      </trkpt>
      <trkpt lat="42.8437" lon="0.50352">
        <ele>1661</ele>
        <time>2020-02-01T11:13:33.000Z</time>
      </trkpt>
      <trkpt lat="42.8437" lon="0.50352">
        <ele>1661</ele>
        <time>2020-02-01T11:13:34.000Z</time>
      </trkpt>
      <trkpt lat="42.8437" lon="0.50352">
        <ele>1661</ele>
        <time>2020-02-01T11:13:35.000Z</time>
      </trkpt>
      <trkpt lat="42.8437" lon="0.50352">
        <ele>1661</ele>
        <time>2020-02-01T11:13:36.000Z</time>
      </trkpt>
      <trkpt lat="42.84371" lon="0.50352">
        <ele>1661</ele>
        <time>2020-02-01T11:13:37.000Z</time>
      </trkpt>
      <trkpt lat="42.84371" lon="0.50352">
        <ele>1661</ele>
        <time>2020-02-01T11:13:38.000Z</time>
      </trkpt>
      <trkpt lat="42.84371" lon="0.50352">
        <ele>1661</ele>
        <time>2020-02-01T11:13:39.000Z</time>
      </trkpt>
      <trkpt lat="42.84371" lon="0.50352">
        <ele>1661</ele>
        <time>2020-02-01T11:13:40.000Z</time>
      </trkpt>
      <trkpt lat="42.84371" lon="0.50352">
        <ele>1661</ele>
        <time>2020-02-01T11:13:41.000Z</time>
      </trkpt>
      <trkpt lat="42.84371" lon="0.50352">
        <ele>1661</ele>
        <time>2020-02-01T11:13:42.000Z</time>
      </trkpt>
      <trkpt lat="42.84371" lon="0.50352">
        <ele>1661</ele>
        <time>2020-02-01T11:13:43.000Z</time>
      </trkpt>
      <trkpt lat="42.84371" lon="0.50352">
        <ele>1661</ele>
        <time>2020-02-01T11:13:44.000Z</time>
      </trkpt>
      <trkpt lat="42.84371" lon="0.50352">
        <ele>1661</ele>
        <time>2020-02-01T11:13:45.000Z</time>
      </trkpt>
      <trkpt lat="42.84371" lon="0.50352">
        <ele>1661</ele>
        <time>2020-02-01T11:13:46.000Z</time>
      </trkpt>
      <trkpt lat="42.84371" lon="0.50352">
        <ele>1661</ele>
        <time>2020-02-01T11:13:47.000Z</time>
      </trkpt>
      <trkpt lat="42.84371" lon="0.50352">
        <ele>1661</ele>
        <time>2020-02-01T11:13:48.000Z</time>
      </trkpt>
      <trkpt lat="42.84371" lon="0.50352">
        <ele>1661</ele>
        <time>2020-02-01T11:13:49.000Z</time>
      </trkpt>
      <trkpt lat="42.84371" lon="0.50352">
        <ele>1660</ele>
        <time>2020-02-01T11:13:50.000Z</time>
      </trkpt>
      <trkpt lat="42.84371" lon="0.50352">
        <ele>1660</ele>
        <time>2020-02-01T11:13:51.000Z</time>
      </trkpt>
      <trkpt lat="42.84371" lon="0.50352">
        <ele>1660</ele>
        <time>2020-02-01T11:13:52.000Z</time>
      </trkpt>
      <trkpt lat="42.84371" lon="0.50352">
        <ele>1660</ele>
        <time>2020-02-01T11:13:53.000Z</time>
      </trkpt>
      <trkpt lat="42.84371" lon="0.50352">
        <ele>1660</ele>
        <time>2020-02-01T11:13:54.000Z</time>
      </trkpt>
      <trkpt lat="42.84371" lon="0.50352">
        <ele>1660</ele>
        <time>2020-02-01T11:13:55.000Z</time>
      </trkpt>
      <trkpt lat="42.84371" lon="0.50352">
        <ele>1660.5</ele>
        <time>2020-02-01T11:13:56.000Z</time>
      </trkpt>
      <trkpt lat="42.84371" lon="0.50353">
        <ele>1661</ele>
        <time>2020-02-01T11:13:57.000Z</time>
      </trkpt>
      <trkpt lat="42.84371" lon="0.50353">
        <ele>1661</ele>
        <time>2020-02-01T11:13:58.000Z</time>
      </trkpt>
      <trkpt lat="42.84371" lon="0.50353">
        <ele>1661</ele>
        <time>2020-02-01T11:13:59.000Z</time>
      </trkpt>
      <trkpt lat="42.84371" lon="0.50353">
        <ele>1661</ele>
        <time>2020-02-01T11:14:00.000Z</time>
      </trkpt>
      <trkpt lat="42.84371" lon="0.50354">
        <ele>1661</ele>
        <time>2020-02-01T11:14:01.000Z</time>
      </trkpt>
      <trkpt lat="42.8437" lon="0.50354">
        <ele>1661</ele>
        <time>2020-02-01T11:14:02.000Z</time>
      </trkpt>
      <trkpt lat="42.8437" lon="0.50355">
        <ele>1661</ele>
        <time>2020-02-01T11:14:03.000Z</time>
      </trkpt>
      <trkpt lat="42.8437" lon="0.50355">
        <ele>1661</ele>
        <time>2020-02-01T11:14:04.000Z</time>
      </trkpt>
      <trkpt lat="42.8437" lon="0.50356">
        <ele>1661</ele>
        <time>2020-02-01T11:14:05.000Z</time>
      </trkpt>
      <trkpt lat="42.8437" lon="0.50356">
        <ele>1661</ele>
        <time>2020-02-01T11:14:06.000Z</time>
      </trkpt>
      <trkpt lat="42.84369" lon="0.50356">
        <ele>1661</ele>
        <time>2020-02-01T11:14:07.000Z</time>
      </trkpt>
      <trkpt lat="42.84369" lon="0.50357">
        <ele>1661</ele>
        <time>2020-02-01T11:14:08.000Z</time>
      </trkpt>
      <trkpt lat="42.84369" lon="0.50357">
        <ele>1661</ele>
        <time>2020-02-01T11:14:09.000Z</time>
      </trkpt>
      <trkpt lat="42.84369" lon="0.50357">
        <ele>1661</ele>
        <time>2020-02-01T11:14:10.000Z</time>
      </trkpt>
      <trkpt lat="42.84369" lon="0.50358">
        <ele>1661</ele>
        <time>2020-02-01T11:14:11.000Z</time>
      </trkpt>
      <trkpt lat="42.84369" lon="0.50358">
        <ele>1661</ele>
        <time>2020-02-01T11:14:12.000Z</time>
      </trkpt>
      <trkpt lat="42.84369" lon="0.50359">
        <ele>1661</ele>
        <time>2020-02-01T11:14:13.000Z</time>
      </trkpt>
      <trkpt lat="42.84369" lon="0.50359">
        <ele>1661</ele>
        <time>2020-02-01T11:14:14.000Z</time>
      </trkpt>
      <trkpt lat="42.84369" lon="0.5036">
        <ele>1661</ele>
        <time>2020-02-01T11:14:15.000Z</time>
      </trkpt>
      <trkpt lat="42.84368" lon="0.5036">
        <ele>1661</ele>
        <time>2020-02-01T11:14:16.000Z</time>
      </trkpt>
      <trkpt lat="42.84368" lon="0.50361">
        <ele>1661</ele>
        <time>2020-02-01T11:14:17.000Z</time>
      </trkpt>
      <trkpt lat="42.84368" lon="0.50362">
        <ele>1661</ele>
        <time>2020-02-01T11:14:18.000Z</time>
      </trkpt>
      <trkpt lat="42.84369" lon="0.50363">
        <ele>1661</ele>
        <time>2020-02-01T11:14:19.000Z</time>
      </trkpt>
      <trkpt lat="42.84369" lon="0.50364">
        <ele>1661</ele>
        <time>2020-02-01T11:14:20.000Z</time>
      </trkpt>
      <trkpt lat="42.84369" lon="0.50365">
        <ele>1661</ele>
        <time>2020-02-01T11:14:21.000Z</time>
      </trkpt>
      <trkpt lat="42.84369" lon="0.50365">
        <ele>1662</ele>
        <time>2020-02-01T11:14:22.000Z</time>
      </trkpt>
      <trkpt lat="42.8437" lon="0.50366">
        <ele>1662</ele>
        <time>2020-02-01T11:14:23.000Z</time>
      </trkpt>
      <trkpt lat="42.8437" lon="0.50367">
        <ele>1662</ele>
        <time>2020-02-01T11:14:24.000Z</time>
      </trkpt>
      <trkpt lat="42.8437" lon="0.50368">
        <ele>1662</ele>
        <time>2020-02-01T11:14:25.000Z</time>
      </trkpt>
      <trkpt lat="42.8437" lon="0.50369">
        <ele>1662</ele>
        <time>2020-02-01T11:14:26.000Z</time>
      </trkpt>
      <trkpt lat="42.8437" lon="0.5037">
        <ele>1662</ele>
        <time>2020-02-01T11:14:27.000Z</time>
      </trkpt>
      <trkpt lat="42.84371" lon="0.50371">
        <ele>1662</ele>
        <time>2020-02-01T11:14:28.000Z</time>
      </trkpt>
      <trkpt lat="42.84371" lon="0.50372">
        <ele>1662.3</ele>
        <time>2020-02-01T11:14:29.000Z</time>
      </trkpt>
      <trkpt lat="42.84371" lon="0.50372">
        <ele>1662.7</ele>
        <time>2020-02-01T11:14:30.000Z</time>
      </trkpt>
      <trkpt lat="42.84371" lon="0.50373">
        <ele>1663</ele>
        <time>2020-02-01T11:14:31.000Z</time>
      </trkpt>
      <trkpt lat="42.84371" lon="0.50373">
        <ele>1663</ele>
        <time>2020-02-01T11:14:32.000Z</time>
      </trkpt>
      <trkpt lat="42.84371" lon="0.50374">
        <ele>1663</ele>
        <time>2020-02-01T11:14:33.000Z</time>
      </trkpt>
      <trkpt lat="42.84371" lon="0.50374">
        <ele>1663</ele>
        <time>2020-02-01T11:14:34.000Z</time>
      </trkpt>
      <trkpt lat="42.84372" lon="0.50374">
        <ele>1663</ele>
        <time>2020-02-01T11:14:35.000Z</time>
      </trkpt>
      <trkpt lat="42.84372" lon="0.50375">
        <ele>1664</ele>
        <time>2020-02-01T11:14:36.000Z</time>
      </trkpt>
      <trkpt lat="42.84372" lon="0.50375">
        <ele>1664</ele>
        <time>2020-02-01T11:14:37.000Z</time>
      </trkpt>
      <trkpt lat="42.84372" lon="0.50376">
        <ele>1664</ele>
        <time>2020-02-01T11:14:38.000Z</time>
      </trkpt>
      <trkpt lat="42.84372" lon="0.50376">
        <ele>1664</ele>
        <time>2020-02-01T11:14:39.000Z</time>
      </trkpt>
      <trkpt lat="42.84373" lon="0.50376">
        <ele>1664</ele>
        <time>2020-02-01T11:14:40.000Z</time>
      </trkpt>
      <trkpt lat="42.84373" lon="0.50377">
        <ele>1664</ele>
        <time>2020-02-01T11:14:41.000Z</time>
      </trkpt>
      <trkpt lat="42.84373" lon="0.50377">
        <ele>1664.5</ele>
        <time>2020-02-01T11:14:42.000Z</time>
      </trkpt>
      <trkpt lat="42.84374" lon="0.50377">
        <ele>1665</ele>
        <time>2020-02-01T11:14:43.000Z</time>
      </trkpt>
      <trkpt lat="42.84374" lon="0.50378">
        <ele>1665</ele>
        <time>2020-02-01T11:14:44.000Z</time>
      </trkpt>
      <trkpt lat="42.84375" lon="0.50378">
        <ele>1665</ele>
        <time>2020-02-01T11:14:45.000Z</time>
      </trkpt>
      <trkpt lat="42.84375" lon="0.50378">
        <ele>1665</ele>
        <time>2020-02-01T11:14:46.000Z</time>
      </trkpt>
      <trkpt lat="42.84376" lon="0.50379">
        <ele>1665</ele>
        <time>2020-02-01T11:14:47.000Z</time>
      </trkpt>
      <trkpt lat="42.84376" lon="0.50379">
        <ele>1665</ele>
        <time>2020-02-01T11:14:48.000Z</time>
      </trkpt>
      <trkpt lat="42.84377" lon="0.50379">
        <ele>1665</ele>
        <time>2020-02-01T11:14:49.000Z</time>
      </trkpt>
      <trkpt lat="42.84377" lon="0.5038">
        <ele>1665</ele>
        <time>2020-02-01T11:14:50.000Z</time>
      </trkpt>
      <trkpt lat="42.84378" lon="0.5038">
        <ele>1665</ele>
        <time>2020-02-01T11:14:51.000Z</time>
      </trkpt>
      <trkpt lat="42.84378" lon="0.5038">
        <ele>1665</ele>
        <time>2020-02-01T11:14:52.000Z</time>
      </trkpt>
      <trkpt lat="42.84379" lon="0.50381">
        <ele>1665</ele>
        <time>2020-02-01T11:14:53.000Z</time>
      </trkpt>
      <trkpt lat="42.8438" lon="0.50381">
        <ele>1666</ele>
        <time>2020-02-01T11:14:54.000Z</time>
      </trkpt>
      <trkpt lat="42.8438" lon="0.50381">
        <ele>1666</ele>
        <time>2020-02-01T11:14:55.000Z</time>
      </trkpt>
      <trkpt lat="42.84381" lon="0.50382">
        <ele>1666</ele>
        <time>2020-02-01T11:14:56.000Z</time>
      </trkpt>
      <trkpt lat="42.84381" lon="0.50382">
        <ele>1666</ele>
        <time>2020-02-01T11:14:57.000Z</time>
      </trkpt>
      <trkpt lat="42.84382" lon="0.50383">
        <ele>1666</ele>
        <time>2020-02-01T11:14:58.000Z</time>
      </trkpt>
      <trkpt lat="42.84382" lon="0.50384">
        <ele>1666</ele>
        <time>2020-02-01T11:14:59.000Z</time>
      </trkpt>
      <trkpt lat="42.84383" lon="0.50385">
        <ele>1666</ele>
        <time>2020-02-01T11:15:00.000Z</time>
      </trkpt>
      <trkpt lat="42.84383" lon="0.50385">
        <ele>1666</ele>
        <time>2020-02-01T11:15:01.000Z</time>
      </trkpt>
      <trkpt lat="42.84383" lon="0.50387">
        <ele>1667</ele>
        <time>2020-02-01T11:15:02.000Z</time>
      </trkpt>
      <trkpt lat="42.84384" lon="0.50388">
        <ele>1667</ele>
        <time>2020-02-01T11:15:03.000Z</time>
      </trkpt>
      <trkpt lat="42.84384" lon="0.50389">
        <ele>1667</ele>
        <time>2020-02-01T11:15:04.000Z</time>
      </trkpt>
      <trkpt lat="42.84384" lon="0.5039">
        <ele>1667</ele>
        <time>2020-02-01T11:15:05.000Z</time>
      </trkpt>
      <trkpt lat="42.84384" lon="0.50391">
        <ele>1667</ele>
        <time>2020-02-01T11:15:06.000Z</time>
      </trkpt>
      <trkpt lat="42.84384" lon="0.50391">
        <ele>1667</ele>
        <time>2020-02-01T11:15:07.000Z</time>
      </trkpt>
      <trkpt lat="42.84383" lon="0.50392">
        <ele>1667</ele>
        <time>2020-02-01T11:15:08.000Z</time>
      </trkpt>
      <trkpt lat="42.84383" lon="0.50392">
        <ele>1667</ele>
        <time>2020-02-01T11:15:09.000Z</time>
      </trkpt>
      <trkpt lat="42.84383" lon="0.50392">
        <ele>1668</ele>
        <time>2020-02-01T11:15:10.000Z</time>
      </trkpt>
      <trkpt lat="42.84382" lon="0.50392">
        <ele>1668</ele>
        <time>2020-02-01T11:15:11.000Z</time>
      </trkpt>
      <trkpt lat="42.84382" lon="0.50392">
        <ele>1668</ele>
        <time>2020-02-01T11:15:12.000Z</time>
      </trkpt>
      <trkpt lat="42.84382" lon="0.50392">
        <ele>1668</ele>
        <time>2020-02-01T11:15:13.000Z</time>
      </trkpt>
      <trkpt lat="42.84381" lon="0.50392">
        <ele>1668</ele>
        <time>2020-02-01T11:15:14.000Z</time>
      </trkpt>
      <trkpt lat="42.84381" lon="0.50393">
        <ele>1668</ele>
        <time>2020-02-01T11:15:15.000Z</time>
      </trkpt>
      <trkpt lat="42.84381" lon="0.50393">
        <ele>1669</ele>
        <time>2020-02-01T11:15:16.000Z</time>
      </trkpt>
      <trkpt lat="42.8438" lon="0.50393">
        <ele>1669</ele>
        <time>2020-02-01T11:15:17.000Z</time>
      </trkpt>
      <trkpt lat="42.8438" lon="0.50393">
        <ele>1669</ele>
        <time>2020-02-01T11:15:18.000Z</time>
      </trkpt>
      <trkpt lat="42.8438" lon="0.50393">
        <ele>1669</ele>
        <time>2020-02-01T11:15:19.000Z</time>
      </trkpt>
      <trkpt lat="42.84379" lon="0.50393">
        <ele>1669</ele>
        <time>2020-02-01T11:15:20.000Z</time>
      </trkpt>
      <trkpt lat="42.84379" lon="0.50393">
        <ele>1669</ele>
        <time>2020-02-01T11:15:21.000Z</time>
      </trkpt>
      <trkpt lat="42.84379" lon="0.50393">
        <ele>1669</ele>
        <time>2020-02-01T11:15:22.000Z</time>
      </trkpt>
      <trkpt lat="42.84378" lon="0.50394">
        <ele>1669</ele>
        <time>2020-02-01T11:15:23.000Z</time>
      </trkpt>
      <trkpt lat="42.84378" lon="0.50394">
        <ele>1670</ele>
        <time>2020-02-01T11:15:24.000Z</time>
      </trkpt>
      <trkpt lat="42.84377" lon="0.50394">
        <ele>1670</ele>
        <time>2020-02-01T11:15:25.000Z</time>
      </trkpt>
      <trkpt lat="42.84377" lon="0.50394">
        <ele>1670</ele>
        <time>2020-02-01T11:15:26.000Z</time>
      </trkpt>
      <trkpt lat="42.84376" lon="0.50394">
        <ele>1670</ele>
        <time>2020-02-01T11:15:27.000Z</time>
      </trkpt>
      <trkpt lat="42.84376" lon="0.50394">
        <ele>1670</ele>
        <time>2020-02-01T11:15:28.000Z</time>
      </trkpt>
      <trkpt lat="42.84375" lon="0.50395">
        <ele>1670</ele>
        <time>2020-02-01T11:15:29.000Z</time>
      </trkpt>
      <trkpt lat="42.84375" lon="0.50395">
        <ele>1670.5</ele>
        <time>2020-02-01T11:15:30.000Z</time>
      </trkpt>
      <trkpt lat="42.84374" lon="0.50395">
        <ele>1671</ele>
        <time>2020-02-01T11:15:31.000Z</time>
      </trkpt>
      <trkpt lat="42.84374" lon="0.50396">
        <ele>1671</ele>
        <time>2020-02-01T11:15:32.000Z</time>
      </trkpt>
      <trkpt lat="42.84373" lon="0.50396">
        <ele>1671</ele>
        <time>2020-02-01T11:15:33.000Z</time>
      </trkpt>
      <trkpt lat="42.84373" lon="0.50396">
        <ele>1671</ele>
        <time>2020-02-01T11:15:34.000Z</time>
      </trkpt>
      <trkpt lat="42.84372" lon="0.50397">
        <ele>1671.3</ele>
        <time>2020-02-01T11:15:35.000Z</time>
      </trkpt>
      <trkpt lat="42.84372" lon="0.50397">
        <ele>1671.7</ele>
        <time>2020-02-01T11:15:36.000Z</time>
      </trkpt>
      <trkpt lat="42.84372" lon="0.50398">
        <ele>1672</ele>
        <time>2020-02-01T11:15:37.000Z</time>
      </trkpt>
      <trkpt lat="42.84371" lon="0.50398">
        <ele>1672</ele>
        <time>2020-02-01T11:15:38.000Z</time>
      </trkpt>
      <trkpt lat="42.84371" lon="0.50398">
        <ele>1672</ele>
        <time>2020-02-01T11:15:39.000Z</time>
      </trkpt>
      <trkpt lat="42.84371" lon="0.50399">
        <ele>1672</ele>
        <time>2020-02-01T11:15:40.000Z</time>
      </trkpt>
      <trkpt lat="42.84371" lon="0.50399">
        <ele>1672</ele>
        <time>2020-02-01T11:15:41.000Z</time>
      </trkpt>
      <trkpt lat="42.8437" lon="0.50399">
        <ele>1673</ele>
        <time>2020-02-01T11:15:42.000Z</time>
      </trkpt>
      <trkpt lat="42.84369" lon="0.504">
        <ele>1673</ele>
        <time>2020-02-01T11:15:43.000Z</time>
      </trkpt>
      <trkpt lat="42.84368" lon="0.504">
        <ele>1673</ele>
        <time>2020-02-01T11:15:44.000Z</time>
      </trkpt>
      <trkpt lat="42.84367" lon="0.50401">
        <ele>1673</ele>
        <time>2020-02-01T11:15:45.000Z</time>
      </trkpt>
      <trkpt lat="42.84367" lon="0.50401">
        <ele>1673</ele>
        <time>2020-02-01T11:15:46.000Z</time>
      </trkpt>
      <trkpt lat="42.84366" lon="0.50402">
        <ele>1673</ele>
        <time>2020-02-01T11:15:47.000Z</time>
      </trkpt>
      <trkpt lat="42.84366" lon="0.50402">
        <ele>1673</ele>
        <time>2020-02-01T11:15:48.000Z</time>
      </trkpt>
      <trkpt lat="42.84365" lon="0.50403">
        <ele>1673</ele>
        <time>2020-02-01T11:15:49.000Z</time>
      </trkpt>
      <trkpt lat="42.84365" lon="0.50403">
        <ele>1674</ele>
        <time>2020-02-01T11:15:50.000Z</time>
      </trkpt>
      <trkpt lat="42.84364" lon="0.50404">
        <ele>1674</ele>
        <time>2020-02-01T11:15:51.000Z</time>
      </trkpt>
      <trkpt lat="42.84364" lon="0.50404">
        <ele>1674</ele>
        <time>2020-02-01T11:15:52.000Z</time>
      </trkpt>
      <trkpt lat="42.84363" lon="0.50405">
        <ele>1674</ele>
        <time>2020-02-01T11:15:53.000Z</time>
      </trkpt>
      <trkpt lat="42.84362" lon="0.50405">
        <ele>1674</ele>
        <time>2020-02-01T11:15:54.000Z</time>
      </trkpt>
      <trkpt lat="42.84362" lon="0.50406">
        <ele>1674</ele>
        <time>2020-02-01T11:15:55.000Z</time>
      </trkpt>
      <trkpt lat="42.84361" lon="0.50407">
        <ele>1674.5</ele>
        <time>2020-02-01T11:15:56.000Z</time>
      </trkpt>
      <trkpt lat="42.8436" lon="0.50407">
        <ele>1675</ele>
        <time>2020-02-01T11:15:57.000Z</time>
      </trkpt>
      <trkpt lat="42.8436" lon="0.50408">
        <ele>1675</ele>
        <time>2020-02-01T11:15:58.000Z</time>
      </trkpt>
      <trkpt lat="42.84359" lon="0.50408">
        <ele>1675</ele>
        <time>2020-02-01T11:15:59.000Z</time>
      </trkpt>
      <trkpt lat="42.84359" lon="0.50409">
        <ele>1675</ele>
        <time>2020-02-01T11:16:00.000Z</time>
      </trkpt>
      <trkpt lat="42.84358" lon="0.5041">
        <ele>1675</ele>
        <time>2020-02-01T11:16:01.000Z</time>
      </trkpt>
      <trkpt lat="42.84358" lon="0.5041">
        <ele>1675.5</ele>
        <time>2020-02-01T11:16:02.000Z</time>
      </trkpt>
      <trkpt lat="42.84357" lon="0.50411">
        <ele>1676</ele>
        <time>2020-02-01T11:16:03.000Z</time>
      </trkpt>
      <trkpt lat="42.84357" lon="0.50412">
        <ele>1676</ele>
        <time>2020-02-01T11:16:04.000Z</time>
      </trkpt>
      <trkpt lat="42.84357" lon="0.50412">
        <ele>1676</ele>
        <time>2020-02-01T11:16:05.000Z</time>
      </trkpt>
      <trkpt lat="42.84356" lon="0.50413">
        <ele>1676</ele>
        <time>2020-02-01T11:16:06.000Z</time>
      </trkpt>
      <trkpt lat="42.84356" lon="0.50413">
        <ele>1676</ele>
        <time>2020-02-01T11:16:07.000Z</time>
      </trkpt>
      <trkpt lat="42.84355" lon="0.50414">
        <ele>1676.5</ele>
        <time>2020-02-01T11:16:08.000Z</time>
      </trkpt>
      <trkpt lat="42.84355" lon="0.50415">
        <ele>1677</ele>
        <time>2020-02-01T11:16:09.000Z</time>
      </trkpt>
      <trkpt lat="42.84354" lon="0.50415">
        <ele>1677</ele>
        <time>2020-02-01T11:16:10.000Z</time>
      </trkpt>
      <trkpt lat="42.84354" lon="0.50416">
        <ele>1677</ele>
        <time>2020-02-01T11:16:11.000Z</time>
      </trkpt>
      <trkpt lat="42.84354" lon="0.50416">
        <ele>1677</ele>
        <time>2020-02-01T11:16:12.000Z</time>
      </trkpt>
      <trkpt lat="42.84353" lon="0.50417">
        <ele>1677</ele>
        <time>2020-02-01T11:16:13.000Z</time>
      </trkpt>
      <trkpt lat="42.84353" lon="0.50417">
        <ele>1677</ele>
        <time>2020-02-01T11:16:14.000Z</time>
      </trkpt>
      <trkpt lat="42.84352" lon="0.50418">
        <ele>1677</ele>
        <time>2020-02-01T11:16:15.000Z</time>
      </trkpt>
      <trkpt lat="42.84352" lon="0.50418">
        <ele>1677</ele>
        <time>2020-02-01T11:16:16.000Z</time>
      </trkpt>
      <trkpt lat="42.84352" lon="0.50418">
        <ele>1677</ele>
        <time>2020-02-01T11:16:17.000Z</time>
      </trkpt>
      <trkpt lat="42.84352" lon="0.50419">
        <ele>1677.5</ele>
        <time>2020-02-01T11:16:18.000Z</time>
      </trkpt>
      <trkpt lat="42.84352" lon="0.50419">
        <ele>1678</ele>
        <time>2020-02-01T11:16:19.000Z</time>
      </trkpt>
      <trkpt lat="42.84352" lon="0.50419">
        <ele>1677.5</ele>
        <time>2020-02-01T11:16:20.000Z</time>
      </trkpt>
      <trkpt lat="42.84352" lon="0.50419">
        <ele>1677</ele>
        <time>2020-02-01T11:16:21.000Z</time>
      </trkpt>
      <trkpt lat="42.84352" lon="0.50419">
        <ele>1677</ele>
        <time>2020-02-01T11:16:22.000Z</time>
      </trkpt>
      <trkpt lat="42.84352" lon="0.5042">
        <ele>1677</ele>
        <time>2020-02-01T11:16:23.000Z</time>
      </trkpt>
      <trkpt lat="42.84352" lon="0.50421">
        <ele>1678</ele>
        <time>2020-02-01T11:16:24.000Z</time>
      </trkpt>
      <trkpt lat="42.84352" lon="0.50422">
        <ele>1678</ele>
        <time>2020-02-01T11:16:25.000Z</time>
      </trkpt>
      <trkpt lat="42.84352" lon="0.50422">
        <ele>1678</ele>
        <time>2020-02-01T11:16:26.000Z</time>
      </trkpt>
      <trkpt lat="42.84353" lon="0.50423">
        <ele>1678</ele>
        <time>2020-02-01T11:16:27.000Z</time>
      </trkpt>
      <trkpt lat="42.84353" lon="0.50423">
        <ele>1678</ele>
        <time>2020-02-01T11:16:28.000Z</time>
      </trkpt>
      <trkpt lat="42.84353" lon="0.50424">
        <ele>1678</ele>
        <time>2020-02-01T11:16:29.000Z</time>
      </trkpt>
      <trkpt lat="42.84354" lon="0.50424">
        <ele>1678</ele>
        <time>2020-02-01T11:16:30.000Z</time>
      </trkpt>
      <trkpt lat="42.84354" lon="0.50424">
        <ele>1678</ele>
        <time>2020-02-01T11:16:31.000Z</time>
      </trkpt>
      <trkpt lat="42.84354" lon="0.50425">
        <ele>1678</ele>
        <time>2020-02-01T11:16:32.000Z</time>
      </trkpt>
      <trkpt lat="42.84355" lon="0.50426">
        <ele>1678.5</ele>
        <time>2020-02-01T11:16:33.000Z</time>
      </trkpt>
      <trkpt lat="42.84355" lon="0.50426">
        <ele>1679</ele>
        <time>2020-02-01T11:16:34.000Z</time>
      </trkpt>
      <trkpt lat="42.84355" lon="0.50427">
        <ele>1679</ele>
        <time>2020-02-01T11:16:35.000Z</time>
      </trkpt>
      <trkpt lat="42.84356" lon="0.50428">
        <ele>1679</ele>
        <time>2020-02-01T11:16:36.000Z</time>
      </trkpt>
      <trkpt lat="42.84356" lon="0.50429">
        <ele>1679</ele>
        <time>2020-02-01T11:16:37.000Z</time>
      </trkpt>
      <trkpt lat="42.84356" lon="0.5043">
        <ele>1680</ele>
        <time>2020-02-01T11:16:38.000Z</time>
      </trkpt>
      <trkpt lat="42.84356" lon="0.50431">
        <ele>1680</ele>
        <time>2020-02-01T11:16:39.000Z</time>
      </trkpt>
      <trkpt lat="42.84357" lon="0.50432">
        <ele>1680</ele>
        <time>2020-02-01T11:16:40.000Z</time>
      </trkpt>
      <trkpt lat="42.84357" lon="0.50433">
        <ele>1680</ele>
        <time>2020-02-01T11:16:41.000Z</time>
      </trkpt>
      <trkpt lat="42.84357" lon="0.50434">
        <ele>1680</ele>
        <time>2020-02-01T11:16:42.000Z</time>
      </trkpt>
      <trkpt lat="42.84357" lon="0.50435">
        <ele>1680</ele>
        <time>2020-02-01T11:16:43.000Z</time>
      </trkpt>
      <trkpt lat="42.84357" lon="0.50436">
        <ele>1681</ele>
        <time>2020-02-01T11:16:44.000Z</time>
      </trkpt>
      <trkpt lat="42.84357" lon="0.50437">
        <ele>1681</ele>
        <time>2020-02-01T11:16:45.000Z</time>
      </trkpt>
      <trkpt lat="42.84357" lon="0.50438">
        <ele>1681</ele>
        <time>2020-02-01T11:16:46.000Z</time>
      </trkpt>
      <trkpt lat="42.84356" lon="0.50439">
        <ele>1681</ele>
        <time>2020-02-01T11:16:47.000Z</time>
      </trkpt>
      <trkpt lat="42.84356" lon="0.5044">
        <ele>1681</ele>
        <time>2020-02-01T11:16:48.000Z</time>
      </trkpt>
      <trkpt lat="42.84356" lon="0.50441">
        <ele>1681</ele>
        <time>2020-02-01T11:16:49.000Z</time>
      </trkpt>
      <trkpt lat="42.84356" lon="0.50442">
        <ele>1682</ele>
        <time>2020-02-01T11:16:50.000Z</time>
      </trkpt>
      <trkpt lat="42.84355" lon="0.50443">
        <ele>1682</ele>
        <time>2020-02-01T11:16:51.000Z</time>
      </trkpt>
      <trkpt lat="42.84355" lon="0.50444">
        <ele>1682</ele>
        <time>2020-02-01T11:16:52.000Z</time>
      </trkpt>
      <trkpt lat="42.84355" lon="0.50445">
        <ele>1682</ele>
        <time>2020-02-01T11:16:53.000Z</time>
      </trkpt>
      <trkpt lat="42.84355" lon="0.50445">
        <ele>1682</ele>
        <time>2020-02-01T11:16:54.000Z</time>
      </trkpt>
      <trkpt lat="42.84355" lon="0.50446">
        <ele>1682</ele>
        <time>2020-02-01T11:16:55.000Z</time>
      </trkpt>
      <trkpt lat="42.84355" lon="0.50447">
        <ele>1682</ele>
        <time>2020-02-01T11:16:56.000Z</time>
      </trkpt>
      <trkpt lat="42.84355" lon="0.50448">
        <ele>1682</ele>
        <time>2020-02-01T11:16:57.000Z</time>
      </trkpt>
      <trkpt lat="42.84355" lon="0.5045">
        <ele>1683</ele>
        <time>2020-02-01T11:16:58.000Z</time>
      </trkpt>
      <trkpt lat="42.84355" lon="0.50451">
        <ele>1683</ele>
        <time>2020-02-01T11:16:59.000Z</time>
      </trkpt>
      <trkpt lat="42.84354" lon="0.50452">
        <ele>1683</ele>
        <time>2020-02-01T11:17:00.000Z</time>
      </trkpt>
      <trkpt lat="42.84354" lon="0.50453">
        <ele>1683</ele>
        <time>2020-02-01T11:17:01.000Z</time>
      </trkpt>
      <trkpt lat="42.84354" lon="0.50454">
        <ele>1683</ele>
        <time>2020-02-01T11:17:02.000Z</time>
      </trkpt>
      <trkpt lat="42.84353" lon="0.50455">
        <ele>1683</ele>
        <time>2020-02-01T11:17:03.000Z</time>
      </trkpt>
      <trkpt lat="42.84353" lon="0.50456">
        <ele>1684</ele>
        <time>2020-02-01T11:17:04.000Z</time>
      </trkpt>
      <trkpt lat="42.84353" lon="0.50457">
        <ele>1684</ele>
        <time>2020-02-01T11:17:05.000Z</time>
      </trkpt>
      <trkpt lat="42.84353" lon="0.50458">
        <ele>1684</ele>
        <time>2020-02-01T11:17:06.000Z</time>
      </trkpt>
      <trkpt lat="42.84353" lon="0.50459">
        <ele>1684</ele>
        <time>2020-02-01T11:17:07.000Z</time>
      </trkpt>
      <trkpt lat="42.84353" lon="0.5046">
        <ele>1684.5</ele>
        <time>2020-02-01T11:17:08.000Z</time>
      </trkpt>
      <trkpt lat="42.84353" lon="0.5046">
        <ele>1685</ele>
        <time>2020-02-01T11:17:09.000Z</time>
      </trkpt>
      <trkpt lat="42.84353" lon="0.50461">
        <ele>1685</ele>
        <time>2020-02-01T11:17:10.000Z</time>
      </trkpt>
      <trkpt lat="42.84353" lon="0.50462">
        <ele>1685</ele>
        <time>2020-02-01T11:17:11.000Z</time>
      </trkpt>
      <trkpt lat="42.84353" lon="0.50462">
        <ele>1686</ele>
        <time>2020-02-01T11:17:12.000Z</time>
      </trkpt>
      <trkpt lat="42.84354" lon="0.50463">
        <ele>1686</ele>
        <time>2020-02-01T11:17:13.000Z</time>
      </trkpt>
      <trkpt lat="42.84354" lon="0.50463">
        <ele>1686</ele>
        <time>2020-02-01T11:17:14.000Z</time>
      </trkpt>
      <trkpt lat="42.84354" lon="0.50463">
        <ele>1686</ele>
        <time>2020-02-01T11:17:15.000Z</time>
      </trkpt>
      <trkpt lat="42.84354" lon="0.50464">
        <ele>1686</ele>
        <time>2020-02-01T11:17:16.000Z</time>
      </trkpt>
      <trkpt lat="42.84354" lon="0.50464">
        <ele>1686</ele>
        <time>2020-02-01T11:17:17.000Z</time>
      </trkpt>
      <trkpt lat="42.84354" lon="0.50464">
        <ele>1687</ele>
        <time>2020-02-01T11:17:18.000Z</time>
      </trkpt>
      <trkpt lat="42.84355" lon="0.50465">
        <ele>1687</ele>
        <time>2020-02-01T11:17:19.000Z</time>
      </trkpt>
      <trkpt lat="42.84355" lon="0.50465">
        <ele>1687</ele>
        <time>2020-02-01T11:17:20.000Z</time>
      </trkpt>
      <trkpt lat="42.84355" lon="0.50465">
        <ele>1687</ele>
        <time>2020-02-01T11:17:21.000Z</time>
      </trkpt>
      <trkpt lat="42.84355" lon="0.50465">
        <ele>1687</ele>
        <time>2020-02-01T11:17:22.000Z</time>
      </trkpt>
      <trkpt lat="42.84355" lon="0.50466">
        <ele>1687</ele>
        <time>2020-02-01T11:17:23.000Z</time>
      </trkpt>
      <trkpt lat="42.84355" lon="0.50466">
        <ele>1687</ele>
        <time>2020-02-01T11:17:24.000Z</time>
      </trkpt>
      <trkpt lat="42.84355" lon="0.50466">
        <ele>1687</ele>
        <time>2020-02-01T11:17:25.000Z</time>
      </trkpt>
      <trkpt lat="42.84355" lon="0.50467">
        <ele>1687</ele>
        <time>2020-02-01T11:17:26.000Z</time>
      </trkpt>
      <trkpt lat="42.84356" lon="0.50468">
        <ele>1687</ele>
        <time>2020-02-01T11:17:27.000Z</time>
      </trkpt>
      <trkpt lat="42.84356" lon="0.50468">
        <ele>1687</ele>
        <time>2020-02-01T11:17:28.000Z</time>
      </trkpt>
      <trkpt lat="42.84356" lon="0.50469">
        <ele>1687</ele>
        <time>2020-02-01T11:17:29.000Z</time>
      </trkpt>
      <trkpt lat="42.84356" lon="0.50469">
        <ele>1687</ele>
        <time>2020-02-01T11:17:30.000Z</time>
      </trkpt>
      <trkpt lat="42.84356" lon="0.5047">
        <ele>1687.5</ele>
        <time>2020-02-01T11:17:31.000Z</time>
      </trkpt>
      <trkpt lat="42.84356" lon="0.5047">
        <ele>1688</ele>
        <time>2020-02-01T11:17:32.000Z</time>
      </trkpt>
      <trkpt lat="42.84356" lon="0.5047">
        <ele>1688</ele>
        <time>2020-02-01T11:17:33.000Z</time>
      </trkpt>
      <trkpt lat="42.84356" lon="0.5047">
        <ele>1688</ele>
        <time>2020-02-01T11:17:34.000Z</time>
      </trkpt>
      <trkpt lat="42.84356" lon="0.5047">
        <ele>1688</ele>
        <time>2020-02-01T11:17:35.000Z</time>
      </trkpt>
      <trkpt lat="42.84356" lon="0.5047">
        <ele>1688</ele>
        <time>2020-02-01T11:17:36.000Z</time>
      </trkpt>
      <trkpt lat="42.84357" lon="0.5047">
        <ele>1688</ele>
        <time>2020-02-01T11:17:37.000Z</time>
      </trkpt>
      <trkpt lat="42.84357" lon="0.5047">
        <ele>1688</ele>
        <time>2020-02-01T11:17:38.000Z</time>
      </trkpt>
      <trkpt lat="42.84357" lon="0.5047">
        <ele>1688.3</ele>
        <time>2020-02-01T11:17:39.000Z</time>
      </trkpt>
      <trkpt lat="42.84357" lon="0.5047">
        <ele>1688.7</ele>
        <time>2020-02-01T11:17:40.000Z</time>
      </trkpt>
      <trkpt lat="42.84357" lon="0.5047">
        <ele>1689</ele>
        <time>2020-02-01T11:17:41.000Z</time>
      </trkpt>
      <trkpt lat="42.84356" lon="0.5047">
        <ele>1689</ele>
        <time>2020-02-01T11:17:42.000Z</time>
      </trkpt>
      <trkpt lat="42.84356" lon="0.50471">
        <ele>1689</ele>
        <time>2020-02-01T11:17:43.000Z</time>
      </trkpt>
      <trkpt lat="42.84356" lon="0.50471">
        <ele>1689</ele>
        <time>2020-02-01T11:17:44.000Z</time>
      </trkpt>
      <trkpt lat="42.84356" lon="0.50472">
        <ele>1689.3</ele>
        <time>2020-02-01T11:17:45.000Z</time>
      </trkpt>
      <trkpt lat="42.84356" lon="0.50473">
        <ele>1689.7</ele>
        <time>2020-02-01T11:17:46.000Z</time>
      </trkpt>
      <trkpt lat="42.84355" lon="0.50473">
        <ele>1690</ele>
        <time>2020-02-01T11:17:47.000Z</time>
      </trkpt>
      <trkpt lat="42.84355" lon="0.50474">
        <ele>1690.5</ele>
        <time>2020-02-01T11:17:48.000Z</time>
      </trkpt>
      <trkpt lat="42.84355" lon="0.50474">
        <ele>1691</ele>
        <time>2020-02-01T11:17:49.000Z</time>
      </trkpt>
      <trkpt lat="42.84355" lon="0.50475">
        <ele>1691</ele>
        <time>2020-02-01T11:17:50.000Z</time>
      </trkpt>
      <trkpt lat="42.84354" lon="0.50475">
        <ele>1691</ele>
        <time>2020-02-01T11:17:51.000Z</time>
      </trkpt>
      <trkpt lat="42.84354" lon="0.50475">
        <ele>1691</ele>
        <time>2020-02-01T11:17:52.000Z</time>
      </trkpt>
      <trkpt lat="42.84354" lon="0.50476">
        <ele>1691</ele>
        <time>2020-02-01T11:17:53.000Z</time>
      </trkpt>
      <trkpt lat="42.84355" lon="0.50477">
        <ele>1691</ele>
        <time>2020-02-01T11:17:54.000Z</time>
      </trkpt>
      <trkpt lat="42.84355" lon="0.50478">
        <ele>1691</ele>
        <time>2020-02-01T11:17:55.000Z</time>
      </trkpt>
      <trkpt lat="42.84355" lon="0.50478">
        <ele>1691</ele>
        <time>2020-02-01T11:17:56.000Z</time>
      </trkpt>
      <trkpt lat="42.84355" lon="0.50477">
        <ele>1691</ele>
        <time>2020-02-01T11:17:57.000Z</time>
      </trkpt>
      <trkpt lat="42.84355" lon="0.50477">
        <ele>1691</ele>
        <time>2020-02-01T11:17:58.000Z</time>
      </trkpt>
      <trkpt lat="42.84355" lon="0.50477">
        <ele>1691</ele>
        <time>2020-02-01T11:17:59.000Z</time>
      </trkpt>
      <trkpt lat="42.84355" lon="0.50478">
        <ele>1691</ele>
        <time>2020-02-01T11:18:00.000Z</time>
      </trkpt>
      <trkpt lat="42.84355" lon="0.50478">
        <ele>1691</ele>
        <time>2020-02-01T11:18:01.000Z</time>
      </trkpt>
      <trkpt lat="42.84355" lon="0.50479">
        <ele>1691</ele>
        <time>2020-02-01T11:18:02.000Z</time>
      </trkpt>
      <trkpt lat="42.84355" lon="0.50479">
        <ele>1691.5</ele>
        <time>2020-02-01T11:18:03.000Z</time>
      </trkpt>
      <trkpt lat="42.84355" lon="0.5048">
        <ele>1692</ele>
        <time>2020-02-01T11:18:04.000Z</time>
      </trkpt>
      <trkpt lat="42.84355" lon="0.5048">
        <ele>1691.5</ele>
        <time>2020-02-01T11:18:05.000Z</time>
      </trkpt>
      <trkpt lat="42.84355" lon="0.5048">
        <ele>1691</ele>
        <time>2020-02-01T11:18:06.000Z</time>
      </trkpt>
      <trkpt lat="42.84355" lon="0.50481">
        <ele>1691.3</ele>
        <time>2020-02-01T11:18:07.000Z</time>
      </trkpt>
      <trkpt lat="42.84355" lon="0.50481">
        <ele>1691.7</ele>
        <time>2020-02-01T11:18:08.000Z</time>
      </trkpt>
      <trkpt lat="42.84355" lon="0.50481">
        <ele>1692</ele>
        <time>2020-02-01T11:18:09.000Z</time>
      </trkpt>
      <trkpt lat="42.84355" lon="0.50481">
        <ele>1692</ele>
        <time>2020-02-01T11:18:10.000Z</time>
      </trkpt>
      <trkpt lat="42.84355" lon="0.50481">
        <ele>1692</ele>
        <time>2020-02-01T11:18:11.000Z</time>
      </trkpt>
      <trkpt lat="42.84354" lon="0.5048">
        <ele>1692</ele>
        <time>2020-02-01T11:18:12.000Z</time>
      </trkpt>
      <trkpt lat="42.84354" lon="0.5048">
        <ele>1692</ele>
        <time>2020-02-01T11:18:13.000Z</time>
      </trkpt>
      <trkpt lat="42.84354" lon="0.50481">
        <ele>1692</ele>
        <time>2020-02-01T11:18:14.000Z</time>
      </trkpt>
      <trkpt lat="42.84353" lon="0.50481">
        <ele>1692.3</ele>
        <time>2020-02-01T11:18:15.000Z</time>
      </trkpt>
      <trkpt lat="42.84353" lon="0.50481">
        <ele>1692.7</ele>
        <time>2020-02-01T11:18:16.000Z</time>
      </trkpt>
      <trkpt lat="42.84353" lon="0.50482">
        <ele>1693</ele>
        <time>2020-02-01T11:18:17.000Z</time>
      </trkpt>
      <trkpt lat="42.84353" lon="0.50483">
        <ele>1693</ele>
        <time>2020-02-01T11:18:18.000Z</time>
      </trkpt>
      <trkpt lat="42.84352" lon="0.50484">
        <ele>1693</ele>
        <time>2020-02-01T11:18:19.000Z</time>
      </trkpt>
      <trkpt lat="42.84352" lon="0.50484">
        <ele>1693</ele>
        <time>2020-02-01T11:18:20.000Z</time>
      </trkpt>
      <trkpt lat="42.84352" lon="0.50485">
        <ele>1693.3</ele>
        <time>2020-02-01T11:18:21.000Z</time>
      </trkpt>
      <trkpt lat="42.84352" lon="0.50486">
        <ele>1693.7</ele>
        <time>2020-02-01T11:18:22.000Z</time>
      </trkpt>
      <trkpt lat="42.84352" lon="0.50486">
        <ele>1694</ele>
        <time>2020-02-01T11:18:23.000Z</time>
      </trkpt>
      <trkpt lat="42.84352" lon="0.50487">
        <ele>1694</ele>
        <time>2020-02-01T11:18:24.000Z</time>
      </trkpt>
      <trkpt lat="42.84352" lon="0.50487">
        <ele>1694</ele>
        <time>2020-02-01T11:18:25.000Z</time>
      </trkpt>
      <trkpt lat="42.84352" lon="0.50487">
        <ele>1694</ele>
        <time>2020-02-01T11:18:26.000Z</time>
      </trkpt>
      <trkpt lat="42.84352" lon="0.50488">
        <ele>1694</ele>
        <time>2020-02-01T11:18:27.000Z</time>
      </trkpt>
      <trkpt lat="42.84351" lon="0.50488">
        <ele>1694</ele>
        <time>2020-02-01T11:18:28.000Z</time>
      </trkpt>
      <trkpt lat="42.84351" lon="0.50488">
        <ele>1694</ele>
        <time>2020-02-01T11:18:29.000Z</time>
      </trkpt>
      <trkpt lat="42.8435" lon="0.50489">
        <ele>1695</ele>
        <time>2020-02-01T11:18:30.000Z</time>
      </trkpt>
      <trkpt lat="42.8435" lon="0.50489">
        <ele>1695.5</ele>
        <time>2020-02-01T11:18:31.000Z</time>
      </trkpt>
      <trkpt lat="42.84349" lon="0.5049">
        <ele>1696</ele>
        <time>2020-02-01T11:18:32.000Z</time>
      </trkpt>
      <trkpt lat="42.84349" lon="0.5049">
        <ele>1696</ele>
        <time>2020-02-01T11:18:33.000Z</time>
      </trkpt>
      <trkpt lat="42.84349" lon="0.50491">
        <ele>1696</ele>
        <time>2020-02-01T11:18:34.000Z</time>
      </trkpt>
      <trkpt lat="42.84349" lon="0.50491">
        <ele>1696</ele>
        <time>2020-02-01T11:18:35.000Z</time>
      </trkpt>
      <trkpt lat="42.84349" lon="0.50491">
        <ele>1697</ele>
        <time>2020-02-01T11:18:36.000Z</time>
      </trkpt>
      <trkpt lat="42.84349" lon="0.50492">
        <ele>1697</ele>
        <time>2020-02-01T11:18:37.000Z</time>
      </trkpt>
      <trkpt lat="42.84349" lon="0.50492">
        <ele>1697</ele>
        <time>2020-02-01T11:18:38.000Z</time>
      </trkpt>
      <trkpt lat="42.84349" lon="0.50493">
        <ele>1697</ele>
        <time>2020-02-01T11:18:39.000Z</time>
      </trkpt>
      <trkpt lat="42.84349" lon="0.50493">
        <ele>1697</ele>
        <time>2020-02-01T11:18:40.000Z</time>
      </trkpt>
      <trkpt lat="42.84349" lon="0.50493">
        <ele>1697</ele>
        <time>2020-02-01T11:18:41.000Z</time>
      </trkpt>
      <trkpt lat="42.84349" lon="0.50493">
        <ele>1697</ele>
        <time>2020-02-01T11:18:42.000Z</time>
      </trkpt>
      <trkpt lat="42.84349" lon="0.50493">
        <ele>1697</ele>
        <time>2020-02-01T11:18:43.000Z</time>
      </trkpt>
      <trkpt lat="42.84349" lon="0.50493">
        <ele>1697</ele>
        <time>2020-02-01T11:18:44.000Z</time>
      </trkpt>
      <trkpt lat="42.84349" lon="0.50493">
        <ele>1697</ele>
        <time>2020-02-01T11:18:45.000Z</time>
      </trkpt>
      <trkpt lat="42.84349" lon="0.50493">
        <ele>1697</ele>
        <time>2020-02-01T11:18:46.000Z</time>
      </trkpt>
      <trkpt lat="42.84349" lon="0.50493">
        <ele>1697</ele>
        <time>2020-02-01T11:18:47.000Z</time>
      </trkpt>
      <trkpt lat="42.84349" lon="0.50494">
        <ele>1697</ele>
        <time>2020-02-01T11:18:48.000Z</time>
      </trkpt>
      <trkpt lat="42.84349" lon="0.50494">
        <ele>1697</ele>
        <time>2020-02-01T11:18:49.000Z</time>
      </trkpt>
      <trkpt lat="42.84349" lon="0.50494">
        <ele>1697</ele>
        <time>2020-02-01T11:18:50.000Z</time>
      </trkpt>
      <trkpt lat="42.84349" lon="0.50494">
        <ele>1697.5</ele>
        <time>2020-02-01T11:18:51.000Z</time>
      </trkpt>
      <trkpt lat="42.84349" lon="0.50495">
        <ele>1698</ele>
        <time>2020-02-01T11:18:52.000Z</time>
      </trkpt>
      <trkpt lat="42.84349" lon="0.50495">
        <ele>1698</ele>
        <time>2020-02-01T11:18:53.000Z</time>
      </trkpt>
      <trkpt lat="42.84349" lon="0.50496">
        <ele>1698</ele>
        <time>2020-02-01T11:18:54.000Z</time>
      </trkpt>
      <trkpt lat="42.84349" lon="0.50496">
        <ele>1698</ele>
        <time>2020-02-01T11:18:55.000Z</time>
      </trkpt>
      <trkpt lat="42.84349" lon="0.50497">
        <ele>1698</ele>
        <time>2020-02-01T11:18:56.000Z</time>
      </trkpt>
      <trkpt lat="42.84349" lon="0.50497">
        <ele>1698</ele>
        <time>2020-02-01T11:18:57.000Z</time>
      </trkpt>
      <trkpt lat="42.84349" lon="0.50498">
        <ele>1698</ele>
        <time>2020-02-01T11:18:58.000Z</time>
      </trkpt>
      <trkpt lat="42.84349" lon="0.50499">
        <ele>1698.5</ele>
        <time>2020-02-01T11:18:59.000Z</time>
      </trkpt>
      <trkpt lat="42.84348" lon="0.50499">
        <ele>1699</ele>
        <time>2020-02-01T11:19:00.000Z</time>
      </trkpt>
      <trkpt lat="42.84348" lon="0.505">
        <ele>1699</ele>
        <time>2020-02-01T11:19:01.000Z</time>
      </trkpt>
      <trkpt lat="42.84348" lon="0.505">
        <ele>1699</ele>
        <time>2020-02-01T11:19:02.000Z</time>
      </trkpt>
      <trkpt lat="42.84348" lon="0.505">
        <ele>1699</ele>
        <time>2020-02-01T11:19:03.000Z</time>
      </trkpt>
      <trkpt lat="42.84348" lon="0.50501">
        <ele>1699</ele>
        <time>2020-02-01T11:19:04.000Z</time>
      </trkpt>
      <trkpt lat="42.84348" lon="0.50502">
        <ele>1699</ele>
        <time>2020-02-01T11:19:05.000Z</time>
      </trkpt>
      <trkpt lat="42.84348" lon="0.50502">
        <ele>1700</ele>
        <time>2020-02-01T11:19:06.000Z</time>
      </trkpt>
      <trkpt lat="42.84347" lon="0.50503">
        <ele>1700</ele>
        <time>2020-02-01T11:19:07.000Z</time>
      </trkpt>
      <trkpt lat="42.84347" lon="0.50503">
        <ele>1700</ele>
        <time>2020-02-01T11:19:08.000Z</time>
      </trkpt>
      <trkpt lat="42.84347" lon="0.50504">
        <ele>1700</ele>
        <time>2020-02-01T11:19:09.000Z</time>
      </trkpt>
      <trkpt lat="42.84347" lon="0.50505">
        <ele>1701</ele>
        <time>2020-02-01T11:19:10.000Z</time>
      </trkpt>
      <trkpt lat="42.84346" lon="0.50506">
        <ele>1701</ele>
        <time>2020-02-01T11:19:11.000Z</time>
      </trkpt>
      <trkpt lat="42.84346" lon="0.50506">
        <ele>1701</ele>
        <time>2020-02-01T11:19:12.000Z</time>
      </trkpt>
      <trkpt lat="42.84346" lon="0.50507">
        <ele>1701</ele>
        <time>2020-02-01T11:19:13.000Z</time>
      </trkpt>
      <trkpt lat="42.84345" lon="0.50508">
        <ele>1701</ele>
        <time>2020-02-01T11:19:14.000Z</time>
      </trkpt>
      <trkpt lat="42.84345" lon="0.50508">
        <ele>1701.5</ele>
        <time>2020-02-01T11:19:15.000Z</time>
      </trkpt>
      <trkpt lat="42.84345" lon="0.50508">
        <ele>1702</ele>
        <time>2020-02-01T11:19:16.000Z</time>
      </trkpt>
      <trkpt lat="42.84345" lon="0.50509">
        <ele>1702</ele>
        <time>2020-02-01T11:19:17.000Z</time>
      </trkpt>
      <trkpt lat="42.84345" lon="0.50509">
        <ele>1702</ele>
        <time>2020-02-01T11:19:18.000Z</time>
      </trkpt>
      <trkpt lat="42.84345" lon="0.5051">
        <ele>1702</ele>
        <time>2020-02-01T11:19:19.000Z</time>
      </trkpt>
      <trkpt lat="42.84344" lon="0.5051">
        <ele>1702</ele>
        <time>2020-02-01T11:19:20.000Z</time>
      </trkpt>
      <trkpt lat="42.84344" lon="0.50511">
        <ele>1702.5</ele>
        <time>2020-02-01T11:19:21.000Z</time>
      </trkpt>
      <trkpt lat="42.84344" lon="0.50511">
        <ele>1703</ele>
        <time>2020-02-01T11:19:22.000Z</time>
      </trkpt>
      <trkpt lat="42.84343" lon="0.50512">
        <ele>1703</ele>
        <time>2020-02-01T11:19:23.000Z</time>
      </trkpt>
      <trkpt lat="42.84343" lon="0.50512">
        <ele>1703</ele>
        <time>2020-02-01T11:19:24.000Z</time>
      </trkpt>
      <trkpt lat="42.84342" lon="0.50513">
        <ele>1703</ele>
        <time>2020-02-01T11:19:25.000Z</time>
      </trkpt>
      <trkpt lat="42.84342" lon="0.50513">
        <ele>1704</ele>
        <time>2020-02-01T11:19:26.000Z</time>
      </trkpt>
      <trkpt lat="42.84342" lon="0.50513">
        <ele>1704</ele>
        <time>2020-02-01T11:19:27.000Z</time>
      </trkpt>
      <trkpt lat="42.84342" lon="0.50514">
        <ele>1704</ele>
        <time>2020-02-01T11:19:28.000Z</time>
      </trkpt>
      <trkpt lat="42.84342" lon="0.50514">
        <ele>1704</ele>
        <time>2020-02-01T11:19:29.000Z</time>
      </trkpt>
      <trkpt lat="42.84342" lon="0.50514">
        <ele>1704</ele>
        <time>2020-02-01T11:19:30.000Z</time>
      </trkpt>
      <trkpt lat="42.84342" lon="0.50514">
        <ele>1704</ele>
        <time>2020-02-01T11:19:31.000Z</time>
      </trkpt>
      <trkpt lat="42.84342" lon="0.50513">
        <ele>1705</ele>
        <time>2020-02-01T11:19:32.000Z</time>
      </trkpt>
      <trkpt lat="42.84342" lon="0.50513">
        <ele>1705</ele>
        <time>2020-02-01T11:19:33.000Z</time>
      </trkpt>
      <trkpt lat="42.84342" lon="0.50514">
        <ele>1705</ele>
        <time>2020-02-01T11:19:34.000Z</time>
      </trkpt>
      <trkpt lat="42.84342" lon="0.50514">
        <ele>1705</ele>
        <time>2020-02-01T11:19:35.000Z</time>
      </trkpt>
      <trkpt lat="42.84341" lon="0.50514">
        <ele>1705</ele>
        <time>2020-02-01T11:19:36.000Z</time>
      </trkpt>
      <trkpt lat="42.84341" lon="0.50514">
        <ele>1705.5</ele>
        <time>2020-02-01T11:19:37.000Z</time>
      </trkpt>
      <trkpt lat="42.84341" lon="0.50515">
        <ele>1706</ele>
        <time>2020-02-01T11:19:38.000Z</time>
      </trkpt>
      <trkpt lat="42.84341" lon="0.50515">
        <ele>1706</ele>
        <time>2020-02-01T11:19:39.000Z</time>
      </trkpt>
      <trkpt lat="42.84341" lon="0.50515">
        <ele>1706</ele>
        <time>2020-02-01T11:19:40.000Z</time>
      </trkpt>
      <trkpt lat="42.84341" lon="0.50516">
        <ele>1706</ele>
        <time>2020-02-01T11:19:41.000Z</time>
      </trkpt>
      <trkpt lat="42.84341" lon="0.50516">
        <ele>1706</ele>
        <time>2020-02-01T11:19:42.000Z</time>
      </trkpt>
      <trkpt lat="42.84341" lon="0.50517">
        <ele>1706.5</ele>
        <time>2020-02-01T11:19:43.000Z</time>
      </trkpt>
      <trkpt lat="42.8434" lon="0.50517">
        <ele>1707</ele>
        <time>2020-02-01T11:19:44.000Z</time>
      </trkpt>
      <trkpt lat="42.8434" lon="0.50518">
        <ele>1707</ele>
        <time>2020-02-01T11:19:45.000Z</time>
      </trkpt>
      <trkpt lat="42.84339" lon="0.50518">
        <ele>1707</ele>
        <time>2020-02-01T11:19:46.000Z</time>
      </trkpt>
      <trkpt lat="42.84338" lon="0.50519">
        <ele>1707</ele>
        <time>2020-02-01T11:19:47.000Z</time>
      </trkpt>
      <trkpt lat="42.84337" lon="0.5052">
        <ele>1707</ele>
        <time>2020-02-01T11:19:48.000Z</time>
      </trkpt>
      <trkpt lat="42.84337" lon="0.50521">
        <ele>1707.5</ele>
        <time>2020-02-01T11:19:49.000Z</time>
      </trkpt>
      <trkpt lat="42.84336" lon="0.50521">
        <ele>1708</ele>
        <time>2020-02-01T11:19:50.000Z</time>
      </trkpt>
      <trkpt lat="42.84335" lon="0.50522">
        <ele>1708</ele>
        <time>2020-02-01T11:19:51.000Z</time>
      </trkpt>
      <trkpt lat="42.84334" lon="0.50523">
        <ele>1708</ele>
        <time>2020-02-01T11:19:52.000Z</time>
      </trkpt>
      <trkpt lat="42.84334" lon="0.50524">
        <ele>1708</ele>
        <time>2020-02-01T11:19:53.000Z</time>
      </trkpt>
      <trkpt lat="42.84333" lon="0.50525">
        <ele>1708</ele>
        <time>2020-02-01T11:19:54.000Z</time>
      </trkpt>
      <trkpt lat="42.84333" lon="0.50525">
        <ele>1708.5</ele>
        <time>2020-02-01T11:19:55.000Z</time>
      </trkpt>
      <trkpt lat="42.84333" lon="0.50526">
        <ele>1709</ele>
        <time>2020-02-01T11:19:56.000Z</time>
      </trkpt>
      <trkpt lat="42.84333" lon="0.50526">
        <ele>1709</ele>
        <time>2020-02-01T11:19:57.000Z</time>
      </trkpt>
      <trkpt lat="42.84333" lon="0.50526">
        <ele>1709</ele>
        <time>2020-02-01T11:19:58.000Z</time>
      </trkpt>
      <trkpt lat="42.84333" lon="0.50526">
        <ele>1709</ele>
        <time>2020-02-01T11:19:59.000Z</time>
      </trkpt>
      <trkpt lat="42.84332" lon="0.50526">
        <ele>1709</ele>
        <time>2020-02-01T11:20:00.000Z</time>
      </trkpt>
      <trkpt lat="42.84332" lon="0.50526">
        <ele>1709</ele>
        <time>2020-02-01T11:20:01.000Z</time>
      </trkpt>
      <trkpt lat="42.84332" lon="0.50526">
        <ele>1709</ele>
        <time>2020-02-01T11:20:02.000Z</time>
      </trkpt>
      <trkpt lat="42.84332" lon="0.50527">
        <ele>1709</ele>
        <time>2020-02-01T11:20:03.000Z</time>
      </trkpt>
      <trkpt lat="42.84332" lon="0.50527">
        <ele>1710</ele>
        <time>2020-02-01T11:20:04.000Z</time>
      </trkpt>
      <trkpt lat="42.84332" lon="0.50527">
        <ele>1710</ele>
        <time>2020-02-01T11:20:05.000Z</time>
      </trkpt>
      <trkpt lat="42.84332" lon="0.50527">
        <ele>1710</ele>
        <time>2020-02-01T11:20:06.000Z</time>
      </trkpt>
      <trkpt lat="42.84331" lon="0.50527">
        <ele>1710</ele>
        <time>2020-02-01T11:20:07.000Z</time>
      </trkpt>
      <trkpt lat="42.84331" lon="0.50527">
        <ele>1710</ele>
        <time>2020-02-01T11:20:08.000Z</time>
      </trkpt>
      <trkpt lat="42.84331" lon="0.50527">
        <ele>1710</ele>
        <time>2020-02-01T11:20:09.000Z</time>
      </trkpt>
      <trkpt lat="42.84331" lon="0.50527">
        <ele>1710</ele>
        <time>2020-02-01T11:20:10.000Z</time>
      </trkpt>
      <trkpt lat="42.84331" lon="0.50527">
        <ele>1710</ele>
        <time>2020-02-01T11:20:11.000Z</time>
      </trkpt>
      <trkpt lat="42.84331" lon="0.50527">
        <ele>1710</ele>
        <time>2020-02-01T11:20:12.000Z</time>
      </trkpt>
      <trkpt lat="42.84331" lon="0.50527">
        <ele>1710</ele>
        <time>2020-02-01T11:20:13.000Z</time>
      </trkpt>
      <trkpt lat="42.84331" lon="0.50528">
        <ele>1710</ele>
        <time>2020-02-01T11:20:14.000Z</time>
      </trkpt>
      <trkpt lat="42.84331" lon="0.50528">
        <ele>1710.3</ele>
        <time>2020-02-01T11:20:15.000Z</time>
      </trkpt>
      <trkpt lat="42.84331" lon="0.50528">
        <ele>1710.7</ele>
        <time>2020-02-01T11:20:16.000Z</time>
      </trkpt>
      <trkpt lat="42.84331" lon="0.50528">
        <ele>1711</ele>
        <time>2020-02-01T11:20:17.000Z</time>
      </trkpt>
      <trkpt lat="42.8433" lon="0.50529">
        <ele>1711</ele>
        <time>2020-02-01T11:20:18.000Z</time>
      </trkpt>
      <trkpt lat="42.8433" lon="0.50529">
        <ele>1711</ele>
        <time>2020-02-01T11:20:19.000Z</time>
      </trkpt>
      <trkpt lat="42.84329" lon="0.50529">
        <ele>1711</ele>
        <time>2020-02-01T11:20:20.000Z</time>
      </trkpt>
      <trkpt lat="42.84329" lon="0.5053">
        <ele>1711</ele>
        <time>2020-02-01T11:20:21.000Z</time>
      </trkpt>
      <trkpt lat="42.84328" lon="0.5053">
        <ele>1711</ele>
        <time>2020-02-01T11:20:22.000Z</time>
      </trkpt>
      <trkpt lat="42.84328" lon="0.50531">
        <ele>1711</ele>
        <time>2020-02-01T11:20:23.000Z</time>
      </trkpt>
      <trkpt lat="42.84327" lon="0.50531">
        <ele>1711</ele>
        <time>2020-02-01T11:20:24.000Z</time>
      </trkpt>
      <trkpt lat="42.84327" lon="0.50532">
        <ele>1711.3</ele>
        <time>2020-02-01T11:20:25.000Z</time>
      </trkpt>
      <trkpt lat="42.84326" lon="0.50532">
        <ele>1711.7</ele>
        <time>2020-02-01T11:20:26.000Z</time>
      </trkpt>
      <trkpt lat="42.84326" lon="0.50532">
        <ele>1712</ele>
        <time>2020-02-01T11:20:27.000Z</time>
      </trkpt>
      <trkpt lat="42.84326" lon="0.50532">
        <ele>1712</ele>
        <time>2020-02-01T11:20:28.000Z</time>
      </trkpt>
      <trkpt lat="42.84325" lon="0.50533">
        <ele>1712</ele>
        <time>2020-02-01T11:20:29.000Z</time>
      </trkpt>
      <trkpt lat="42.84325" lon="0.50533">
        <ele>1712</ele>
        <time>2020-02-01T11:20:30.000Z</time>
      </trkpt>
      <trkpt lat="42.84325" lon="0.50533">
        <ele>1712</ele>
        <time>2020-02-01T11:20:31.000Z</time>
      </trkpt>
      <trkpt lat="42.84325" lon="0.50533">
        <ele>1713</ele>
        <time>2020-02-01T11:20:32.000Z</time>
      </trkpt>
      <trkpt lat="42.84325" lon="0.50533">
        <ele>1713</ele>
        <time>2020-02-01T11:20:33.000Z</time>
      </trkpt>
      <trkpt lat="42.84325" lon="0.50534">
        <ele>1713</ele>
        <time>2020-02-01T11:20:34.000Z</time>
      </trkpt>
      <trkpt lat="42.84324" lon="0.50534">
        <ele>1713.3</ele>
        <time>2020-02-01T11:20:35.000Z</time>
      </trkpt>
      <trkpt lat="42.84323" lon="0.50535">
        <ele>1713.7</ele>
        <time>2020-02-01T11:20:36.000Z</time>
      </trkpt>
      <trkpt lat="42.84323" lon="0.50536">
        <ele>1714</ele>
        <time>2020-02-01T11:20:37.000Z</time>
      </trkpt>
      <trkpt lat="42.84323" lon="0.50537">
        <ele>1714</ele>
        <time>2020-02-01T11:20:38.000Z</time>
      </trkpt>
      <trkpt lat="42.84323" lon="0.50537">
        <ele>1714</ele>
        <time>2020-02-01T11:20:39.000Z</time>
      </trkpt>
      <trkpt lat="42.84323" lon="0.50538">
        <ele>1714</ele>
        <time>2020-02-01T11:20:40.000Z</time>
      </trkpt>
      <trkpt lat="42.84323" lon="0.50539">
        <ele>1714</ele>
        <time>2020-02-01T11:20:41.000Z</time>
      </trkpt>
      <trkpt lat="42.84322" lon="0.50539">
        <ele>1714</ele>
        <time>2020-02-01T11:20:42.000Z</time>
      </trkpt>
      <trkpt lat="42.84322" lon="0.5054">
        <ele>1714.3</ele>
        <time>2020-02-01T11:20:43.000Z</time>
      </trkpt>
      <trkpt lat="42.84322" lon="0.50541">
        <ele>1714.7</ele>
        <time>2020-02-01T11:20:44.000Z</time>
      </trkpt>
      <trkpt lat="42.84322" lon="0.50541">
        <ele>1715</ele>
        <time>2020-02-01T11:20:45.000Z</time>
      </trkpt>
      <trkpt lat="42.84322" lon="0.50541">
        <ele>1715</ele>
        <time>2020-02-01T11:20:46.000Z</time>
      </trkpt>
      <trkpt lat="42.84322" lon="0.50542">
        <ele>1715</ele>
        <time>2020-02-01T11:20:47.000Z</time>
      </trkpt>
      <trkpt lat="42.84321" lon="0.50542">
        <ele>1715</ele>
        <time>2020-02-01T11:20:48.000Z</time>
      </trkpt>
      <trkpt lat="42.84321" lon="0.50542">
        <ele>1715</ele>
        <time>2020-02-01T11:20:49.000Z</time>
      </trkpt>
      <trkpt lat="42.84321" lon="0.50542">
        <ele>1716</ele>
        <time>2020-02-01T11:20:50.000Z</time>
      </trkpt>
      <trkpt lat="42.84321" lon="0.50542">
        <ele>1716</ele>
        <time>2020-02-01T11:20:51.000Z</time>
      </trkpt>
      <trkpt lat="42.84321" lon="0.50542">
        <ele>1716</ele>
        <time>2020-02-01T11:20:52.000Z</time>
      </trkpt>
      <trkpt lat="42.84321" lon="0.50542">
        <ele>1716</ele>
        <time>2020-02-01T11:20:53.000Z</time>
      </trkpt>
      <trkpt lat="42.84321" lon="0.50542">
        <ele>1716</ele>
        <time>2020-02-01T11:20:54.000Z</time>
      </trkpt>
      <trkpt lat="42.84321" lon="0.50542">
        <ele>1716.3</ele>
        <time>2020-02-01T11:20:55.000Z</time>
      </trkpt>
      <trkpt lat="42.84321" lon="0.50542">
        <ele>1716.7</ele>
        <time>2020-02-01T11:20:56.000Z</time>
      </trkpt>
      <trkpt lat="42.84321" lon="0.50542">
        <ele>1717</ele>
        <time>2020-02-01T11:20:57.000Z</time>
      </trkpt>
      <trkpt lat="42.84321" lon="0.50542">
        <ele>1717</ele>
        <time>2020-02-01T11:20:58.000Z</time>
      </trkpt>
      <trkpt lat="42.84321" lon="0.50542">
        <ele>1717</ele>
        <time>2020-02-01T11:20:59.000Z</time>
      </trkpt>
      <trkpt lat="42.84321" lon="0.50542">
        <ele>1717</ele>
        <time>2020-02-01T11:21:00.000Z</time>
      </trkpt>
      <trkpt lat="42.84321" lon="0.50542">
        <ele>1717</ele>
        <time>2020-02-01T11:21:01.000Z</time>
      </trkpt>
      <trkpt lat="42.84321" lon="0.50542">
        <ele>1718</ele>
        <time>2020-02-01T11:21:02.000Z</time>
      </trkpt>
      <trkpt lat="42.84321" lon="0.50543">
        <ele>1718</ele>
        <time>2020-02-01T11:21:03.000Z</time>
      </trkpt>
      <trkpt lat="42.8432" lon="0.50544">
        <ele>1718</ele>
        <time>2020-02-01T11:21:04.000Z</time>
      </trkpt>
      <trkpt lat="42.8432" lon="0.50544">
        <ele>1718</ele>
        <time>2020-02-01T11:21:05.000Z</time>
      </trkpt>
      <trkpt lat="42.84319" lon="0.50545">
        <ele>1718</ele>
        <time>2020-02-01T11:21:06.000Z</time>
      </trkpt>
      <trkpt lat="42.84319" lon="0.50545">
        <ele>1718</ele>
        <time>2020-02-01T11:21:07.000Z</time>
      </trkpt>
      <trkpt lat="42.84319" lon="0.50545">
        <ele>1718</ele>
        <time>2020-02-01T11:21:08.000Z</time>
      </trkpt>
      <trkpt lat="42.84319" lon="0.50545">
        <ele>1718</ele>
        <time>2020-02-01T11:21:09.000Z</time>
      </trkpt>
      <trkpt lat="42.84318" lon="0.50546">
        <ele>1719</ele>
        <time>2020-02-01T11:21:10.000Z</time>
      </trkpt>
      <trkpt lat="42.84318" lon="0.50547">
        <ele>1719</ele>
        <time>2020-02-01T11:21:11.000Z</time>
      </trkpt>
      <trkpt lat="42.84317" lon="0.50547">
        <ele>1719</ele>
        <time>2020-02-01T11:21:12.000Z</time>
      </trkpt>
      <trkpt lat="42.84317" lon="0.50548">
        <ele>1719</ele>
        <time>2020-02-01T11:21:13.000Z</time>
      </trkpt>
      <trkpt lat="42.84316" lon="0.50548">
        <ele>1719</ele>
        <time>2020-02-01T11:21:14.000Z</time>
      </trkpt>
      <trkpt lat="42.84316" lon="0.50548">
        <ele>1719</ele>
        <time>2020-02-01T11:21:15.000Z</time>
      </trkpt>
      <trkpt lat="42.84316" lon="0.50548">
        <ele>1719</ele>
        <time>2020-02-01T11:21:16.000Z</time>
      </trkpt>
      <trkpt lat="42.84316" lon="0.50548">
        <ele>1719.3</ele>
        <time>2020-02-01T11:21:17.000Z</time>
      </trkpt>
      <trkpt lat="42.84316" lon="0.50548">
        <ele>1719.7</ele>
        <time>2020-02-01T11:21:18.000Z</time>
      </trkpt>
      <trkpt lat="42.84316" lon="0.50549">
        <ele>1720</ele>
        <time>2020-02-01T11:21:19.000Z</time>
      </trkpt>
      <trkpt lat="42.84316" lon="0.50549">
        <ele>1720</ele>
        <time>2020-02-01T11:21:20.000Z</time>
      </trkpt>
      <trkpt lat="42.84316" lon="0.5055">
        <ele>1720</ele>
        <time>2020-02-01T11:21:21.000Z</time>
      </trkpt>
      <trkpt lat="42.84316" lon="0.5055">
        <ele>1720</ele>
        <time>2020-02-01T11:21:22.000Z</time>
      </trkpt>
      <trkpt lat="42.84316" lon="0.50551">
        <ele>1720.5</ele>
        <time>2020-02-01T11:21:23.000Z</time>
      </trkpt>
      <trkpt lat="42.84316" lon="0.50551">
        <ele>1721</ele>
        <time>2020-02-01T11:21:24.000Z</time>
      </trkpt>
      <trkpt lat="42.84315" lon="0.50552">
        <ele>1721</ele>
        <time>2020-02-01T11:21:25.000Z</time>
      </trkpt>
      <trkpt lat="42.84315" lon="0.50552">
        <ele>1721</ele>
        <time>2020-02-01T11:21:26.000Z</time>
      </trkpt>
      <trkpt lat="42.84315" lon="0.50552">
        <ele>1721</ele>
        <time>2020-02-01T11:21:27.000Z</time>
      </trkpt>
      <trkpt lat="42.84315" lon="0.50552">
        <ele>1721</ele>
        <time>2020-02-01T11:21:28.000Z</time>
      </trkpt>
      <trkpt lat="42.84315" lon="0.50553">
        <ele>1721.5</ele>
        <time>2020-02-01T11:21:29.000Z</time>
      </trkpt>
      <trkpt lat="42.84315" lon="0.50553">
        <ele>1722</ele>
        <time>2020-02-01T11:21:30.000Z</time>
      </trkpt>
      <trkpt lat="42.84315" lon="0.50553">
        <ele>1722</ele>
        <time>2020-02-01T11:21:31.000Z</time>
      </trkpt>
      <trkpt lat="42.84315" lon="0.50553">
        <ele>1722</ele>
        <time>2020-02-01T11:21:32.000Z</time>
      </trkpt>
      <trkpt lat="42.84316" lon="0.50554">
        <ele>1722</ele>
        <time>2020-02-01T11:21:33.000Z</time>
      </trkpt>
      <trkpt lat="42.84316" lon="0.50554">
        <ele>1722</ele>
        <time>2020-02-01T11:21:34.000Z</time>
      </trkpt>
      <trkpt lat="42.84316" lon="0.50554">
        <ele>1722</ele>
        <time>2020-02-01T11:21:35.000Z</time>
      </trkpt>
      <trkpt lat="42.84316" lon="0.50555">
        <ele>1723</ele>
        <time>2020-02-01T11:21:36.000Z</time>
      </trkpt>
      <trkpt lat="42.84316" lon="0.50555">
        <ele>1723</ele>
        <time>2020-02-01T11:21:37.000Z</time>
      </trkpt>
      <trkpt lat="42.84316" lon="0.50555">
        <ele>1723</ele>
        <time>2020-02-01T11:21:38.000Z</time>
      </trkpt>
      <trkpt lat="42.84317" lon="0.50556">
        <ele>1723</ele>
        <time>2020-02-01T11:21:39.000Z</time>
      </trkpt>
      <trkpt lat="42.84317" lon="0.50556">
        <ele>1723</ele>
        <time>2020-02-01T11:21:40.000Z</time>
      </trkpt>
      <trkpt lat="42.84317" lon="0.50557">
        <ele>1723</ele>
        <time>2020-02-01T11:21:41.000Z</time>
      </trkpt>
      <trkpt lat="42.84317" lon="0.50557">
        <ele>1724</ele>
        <time>2020-02-01T11:21:42.000Z</time>
      </trkpt>
      <trkpt lat="42.84317" lon="0.50557">
        <ele>1724</ele>
        <time>2020-02-01T11:21:43.000Z</time>
      </trkpt>
      <trkpt lat="42.84318" lon="0.50558">
        <ele>1724</ele>
        <time>2020-02-01T11:21:44.000Z</time>
      </trkpt>
      <trkpt lat="42.84318" lon="0.50558">
        <ele>1724</ele>
        <time>2020-02-01T11:21:45.000Z</time>
      </trkpt>
      <trkpt lat="42.84318" lon="0.50559">
        <ele>1724</ele>
        <time>2020-02-01T11:21:46.000Z</time>
      </trkpt>
      <trkpt lat="42.84318" lon="0.50559">
        <ele>1724.3</ele>
        <time>2020-02-01T11:21:47.000Z</time>
      </trkpt>
      <trkpt lat="42.84318" lon="0.5056">
        <ele>1724.7</ele>
        <time>2020-02-01T11:21:48.000Z</time>
      </trkpt>
      <trkpt lat="42.84318" lon="0.5056">
        <ele>1725</ele>
        <time>2020-02-01T11:21:49.000Z</time>
      </trkpt>
      <trkpt lat="42.84318" lon="0.50561">
        <ele>1725</ele>
        <time>2020-02-01T11:21:50.000Z</time>
      </trkpt>
      <trkpt lat="42.84318" lon="0.50562">
        <ele>1725</ele>
        <time>2020-02-01T11:21:51.000Z</time>
      </trkpt>
      <trkpt lat="42.84318" lon="0.50562">
        <ele>1725</ele>
        <time>2020-02-01T11:21:52.000Z</time>
      </trkpt>
      <trkpt lat="42.84318" lon="0.50563">
        <ele>1725.3</ele>
        <time>2020-02-01T11:21:53.000Z</time>
      </trkpt>
      <trkpt lat="42.84318" lon="0.50564">
        <ele>1725.7</ele>
        <time>2020-02-01T11:21:54.000Z</time>
      </trkpt>
      <trkpt lat="42.84318" lon="0.50564">
        <ele>1726</ele>
        <time>2020-02-01T11:21:55.000Z</time>
      </trkpt>
      <trkpt lat="42.84317" lon="0.50565">
        <ele>1726</ele>
        <time>2020-02-01T11:21:56.000Z</time>
      </trkpt>
      <trkpt lat="42.84317" lon="0.50566">
        <ele>1726.5</ele>
        <time>2020-02-01T11:21:57.000Z</time>
      </trkpt>
      <trkpt lat="42.84316" lon="0.50567">
        <ele>1727</ele>
        <time>2020-02-01T11:21:58.000Z</time>
      </trkpt>
      <trkpt lat="42.84315" lon="0.50567">
        <ele>1727</ele>
        <time>2020-02-01T11:21:59.000Z</time>
      </trkpt>
      <trkpt lat="42.84315" lon="0.50568">
        <ele>1727</ele>
        <time>2020-02-01T11:22:00.000Z</time>
      </trkpt>
      <trkpt lat="42.84314" lon="0.50568">
        <ele>1727</ele>
        <time>2020-02-01T11:22:01.000Z</time>
      </trkpt>
      <trkpt lat="42.84314" lon="0.50567">
        <ele>1727</ele>
        <time>2020-02-01T11:22:02.000Z</time>
      </trkpt>
      <trkpt lat="42.84314" lon="0.50567">
        <ele>1727</ele>
        <time>2020-02-01T11:22:03.000Z</time>
      </trkpt>
      <trkpt lat="42.84314" lon="0.50567">
        <ele>1727</ele>
        <time>2020-02-01T11:22:04.000Z</time>
      </trkpt>
      <trkpt lat="42.84314" lon="0.50567">
        <ele>1727</ele>
        <time>2020-02-01T11:22:05.000Z</time>
      </trkpt>
      <trkpt lat="42.84313" lon="0.50567">
        <ele>1728</ele>
        <time>2020-02-01T11:22:06.000Z</time>
      </trkpt>
      <trkpt lat="42.84313" lon="0.50568">
        <ele>1728</ele>
        <time>2020-02-01T11:22:07.000Z</time>
      </trkpt>
      <trkpt lat="42.84313" lon="0.50568">
        <ele>1728</ele>
        <time>2020-02-01T11:22:08.000Z</time>
      </trkpt>
      <trkpt lat="42.84313" lon="0.50569">
        <ele>1728</ele>
        <time>2020-02-01T11:22:09.000Z</time>
      </trkpt>
      <trkpt lat="42.84312" lon="0.5057">
        <ele>1728</ele>
        <time>2020-02-01T11:22:10.000Z</time>
      </trkpt>
      <trkpt lat="42.84312" lon="0.5057">
        <ele>1728</ele>
        <time>2020-02-01T11:22:11.000Z</time>
      </trkpt>
      <trkpt lat="42.84312" lon="0.50571">
        <ele>1728</ele>
        <time>2020-02-01T11:22:12.000Z</time>
      </trkpt>
      <trkpt lat="42.84311" lon="0.50571">
        <ele>1728</ele>
        <time>2020-02-01T11:22:13.000Z</time>
      </trkpt>
      <trkpt lat="42.84311" lon="0.50571">
        <ele>1728</ele>
        <time>2020-02-01T11:22:14.000Z</time>
      </trkpt>
      <trkpt lat="42.84311" lon="0.50572">
        <ele>1728.3</ele>
        <time>2020-02-01T11:22:15.000Z</time>
      </trkpt>
      <trkpt lat="42.84311" lon="0.50572">
        <ele>1728.7</ele>
        <time>2020-02-01T11:22:16.000Z</time>
      </trkpt>
      <trkpt lat="42.8431" lon="0.50572">
        <ele>1729</ele>
        <time>2020-02-01T11:22:17.000Z</time>
      </trkpt>
      <trkpt lat="42.8431" lon="0.50572">
        <ele>1729</ele>
        <time>2020-02-01T11:22:18.000Z</time>
      </trkpt>
      <trkpt lat="42.8431" lon="0.50573">
        <ele>1729</ele>
        <time>2020-02-01T11:22:19.000Z</time>
      </trkpt>
      <trkpt lat="42.8431" lon="0.50573">
        <ele>1729</ele>
        <time>2020-02-01T11:22:20.000Z</time>
      </trkpt>
      <trkpt lat="42.8431" lon="0.50573">
        <ele>1729</ele>
        <time>2020-02-01T11:22:21.000Z</time>
      </trkpt>
      <trkpt lat="42.8431" lon="0.50573">
        <ele>1729</ele>
        <time>2020-02-01T11:22:22.000Z</time>
      </trkpt>
      <trkpt lat="42.84309" lon="0.50574">
        <ele>1729.3</ele>
        <time>2020-02-01T11:22:23.000Z</time>
      </trkpt>
      <trkpt lat="42.84309" lon="0.50574">
        <ele>1729.7</ele>
        <time>2020-02-01T11:22:24.000Z</time>
      </trkpt>
      <trkpt lat="42.84309" lon="0.50575">
        <ele>1730</ele>
        <time>2020-02-01T11:22:25.000Z</time>
      </trkpt>
      <trkpt lat="42.84309" lon="0.50575">
        <ele>1730</ele>
        <time>2020-02-01T11:22:26.000Z</time>
      </trkpt>
      <trkpt lat="42.84309" lon="0.50576">
        <ele>1730</ele>
        <time>2020-02-01T11:22:27.000Z</time>
      </trkpt>
      <trkpt lat="42.84308" lon="0.50577">
        <ele>1730</ele>
        <time>2020-02-01T11:22:28.000Z</time>
      </trkpt>
      <trkpt lat="42.84308" lon="0.50578">
        <ele>1730.3</ele>
        <time>2020-02-01T11:22:29.000Z</time>
      </trkpt>
      <trkpt lat="42.84308" lon="0.50578">
        <ele>1730.7</ele>
        <time>2020-02-01T11:22:30.000Z</time>
      </trkpt>
      <trkpt lat="42.84308" lon="0.50579">
        <ele>1731</ele>
        <time>2020-02-01T11:22:31.000Z</time>
      </trkpt>
      <trkpt lat="42.84308" lon="0.50579">
        <ele>1731</ele>
        <time>2020-02-01T11:22:32.000Z</time>
      </trkpt>
      <trkpt lat="42.84308" lon="0.50579">
        <ele>1731</ele>
        <time>2020-02-01T11:22:33.000Z</time>
      </trkpt>
      <trkpt lat="42.84308" lon="0.50579">
        <ele>1731</ele>
        <time>2020-02-01T11:22:34.000Z</time>
      </trkpt>
      <trkpt lat="42.84308" lon="0.5058">
        <ele>1731</ele>
        <time>2020-02-01T11:22:35.000Z</time>
      </trkpt>
      <trkpt lat="42.84308" lon="0.5058">
        <ele>1732</ele>
        <time>2020-02-01T11:22:36.000Z</time>
      </trkpt>
      <trkpt lat="42.84308" lon="0.5058">
        <ele>1732</ele>
        <time>2020-02-01T11:22:37.000Z</time>
      </trkpt>
      <trkpt lat="42.84308" lon="0.5058">
        <ele>1732</ele>
        <time>2020-02-01T11:22:38.000Z</time>
      </trkpt>
      <trkpt lat="42.84308" lon="0.5058">
        <ele>1732</ele>
        <time>2020-02-01T11:22:39.000Z</time>
      </trkpt>
      <trkpt lat="42.84307" lon="0.5058">
        <ele>1732</ele>
        <time>2020-02-01T11:22:40.000Z</time>
      </trkpt>
      <trkpt lat="42.84307" lon="0.5058">
        <ele>1732</ele>
        <time>2020-02-01T11:22:41.000Z</time>
      </trkpt>
      <trkpt lat="42.84307" lon="0.50581">
        <ele>1733</ele>
        <time>2020-02-01T11:22:42.000Z</time>
      </trkpt>
      <trkpt lat="42.84307" lon="0.50581">
        <ele>1733</ele>
        <time>2020-02-01T11:22:43.000Z</time>
      </trkpt>
      <trkpt lat="42.84307" lon="0.50581">
        <ele>1733</ele>
        <time>2020-02-01T11:22:44.000Z</time>
      </trkpt>
      <trkpt lat="42.84306" lon="0.50582">
        <ele>1733</ele>
        <time>2020-02-01T11:22:45.000Z</time>
      </trkpt>
      <trkpt lat="42.84306" lon="0.50582">
        <ele>1733</ele>
        <time>2020-02-01T11:22:46.000Z</time>
      </trkpt>
      <trkpt lat="42.84306" lon="0.50582">
        <ele>1733</ele>
        <time>2020-02-01T11:22:47.000Z</time>
      </trkpt>
      <trkpt lat="42.84306" lon="0.50583">
        <ele>1733</ele>
        <time>2020-02-01T11:22:48.000Z</time>
      </trkpt>
      <trkpt lat="42.84306" lon="0.50583">
        <ele>1733.3</ele>
        <time>2020-02-01T11:22:49.000Z</time>
      </trkpt>
      <trkpt lat="42.84306" lon="0.50584">
        <ele>1733.7</ele>
        <time>2020-02-01T11:22:50.000Z</time>
      </trkpt>
      <trkpt lat="42.84306" lon="0.50584">
        <ele>1734</ele>
        <time>2020-02-01T11:22:51.000Z</time>
      </trkpt>
      <trkpt lat="42.84306" lon="0.50585">
        <ele>1734</ele>
        <time>2020-02-01T11:22:52.000Z</time>
      </trkpt>
      <trkpt lat="42.84306" lon="0.50585">
        <ele>1734</ele>
        <time>2020-02-01T11:22:53.000Z</time>
      </trkpt>
      <trkpt lat="42.84306" lon="0.50586">
        <ele>1734</ele>
        <time>2020-02-01T11:22:54.000Z</time>
      </trkpt>
      <trkpt lat="42.84306" lon="0.50586">
        <ele>1734</ele>
        <time>2020-02-01T11:22:55.000Z</time>
      </trkpt>
      <trkpt lat="42.84306" lon="0.50586">
        <ele>1735</ele>
        <time>2020-02-01T11:22:56.000Z</time>
      </trkpt>
      <trkpt lat="42.84306" lon="0.50586">
        <ele>1735</ele>
        <time>2020-02-01T11:22:57.000Z</time>
      </trkpt>
      <trkpt lat="42.84306" lon="0.50586">
        <ele>1735</ele>
        <time>2020-02-01T11:22:58.000Z</time>
      </trkpt>
      <trkpt lat="42.84306" lon="0.50586">
        <ele>1735</ele>
        <time>2020-02-01T11:22:59.000Z</time>
      </trkpt>
      <trkpt lat="42.84306" lon="0.50587">
        <ele>1735</ele>
        <time>2020-02-01T11:23:00.000Z</time>
      </trkpt>
      <trkpt lat="42.84306" lon="0.50588">
        <ele>1735.5</ele>
        <time>2020-02-01T11:23:01.000Z</time>
      </trkpt>
      <trkpt lat="42.84306" lon="0.50588">
        <ele>1736</ele>
        <time>2020-02-01T11:23:02.000Z</time>
      </trkpt>
      <trkpt lat="42.84307" lon="0.50589">
        <ele>1736</ele>
        <time>2020-02-01T11:23:03.000Z</time>
      </trkpt>
      <trkpt lat="42.84307" lon="0.50589">
        <ele>1736</ele>
        <time>2020-02-01T11:23:04.000Z</time>
      </trkpt>
      <trkpt lat="42.84307" lon="0.50589">
        <ele>1736</ele>
        <time>2020-02-01T11:23:05.000Z</time>
      </trkpt>
      <trkpt lat="42.84307" lon="0.50589">
        <ele>1736</ele>
        <time>2020-02-01T11:23:06.000Z</time>
      </trkpt>
      <trkpt lat="42.84307" lon="0.50589">
        <ele>1736.3</ele>
        <time>2020-02-01T11:23:07.000Z</time>
      </trkpt>
      <trkpt lat="42.84307" lon="0.50589">
        <ele>1736.7</ele>
        <time>2020-02-01T11:23:08.000Z</time>
      </trkpt>
      <trkpt lat="42.84306" lon="0.5059">
        <ele>1737</ele>
        <time>2020-02-01T11:23:09.000Z</time>
      </trkpt>
      <trkpt lat="42.84306" lon="0.5059">
        <ele>1737</ele>
        <time>2020-02-01T11:23:10.000Z</time>
      </trkpt>
      <trkpt lat="42.84306" lon="0.50591">
        <ele>1737</ele>
        <time>2020-02-01T11:23:11.000Z</time>
      </trkpt>
      <trkpt lat="42.84306" lon="0.50592">
        <ele>1737</ele>
        <time>2020-02-01T11:23:12.000Z</time>
      </trkpt>
      <trkpt lat="42.84306" lon="0.50592">
        <ele>1737.3</ele>
        <time>2020-02-01T11:23:13.000Z</time>
      </trkpt>
      <trkpt lat="42.84306" lon="0.50593">
        <ele>1737.7</ele>
        <time>2020-02-01T11:23:14.000Z</time>
      </trkpt>
      <trkpt lat="42.84305" lon="0.50594">
        <ele>1738</ele>
        <time>2020-02-01T11:23:15.000Z</time>
      </trkpt>
      <trkpt lat="42.84305" lon="0.50594">
        <ele>1738</ele>
        <time>2020-02-01T11:23:16.000Z</time>
      </trkpt>
      <trkpt lat="42.84305" lon="0.50595">
        <ele>1738</ele>
        <time>2020-02-01T11:23:17.000Z</time>
      </trkpt>
      <trkpt lat="42.84305" lon="0.50596">
        <ele>1738</ele>
        <time>2020-02-01T11:23:18.000Z</time>
      </trkpt>
      <trkpt lat="42.84304" lon="0.50596">
        <ele>1738</ele>
        <time>2020-02-01T11:23:19.000Z</time>
      </trkpt>
      <trkpt lat="42.84304" lon="0.50597">
        <ele>1738</ele>
        <time>2020-02-01T11:23:20.000Z</time>
      </trkpt>
      <trkpt lat="42.84304" lon="0.50597">
        <ele>1738</ele>
        <time>2020-02-01T11:23:21.000Z</time>
      </trkpt>
      <trkpt lat="42.84304" lon="0.50597">
        <ele>1739</ele>
        <time>2020-02-01T11:23:22.000Z</time>
      </trkpt>
      <trkpt lat="42.84304" lon="0.50598">
        <ele>1739</ele>
        <time>2020-02-01T11:23:23.000Z</time>
      </trkpt>
      <trkpt lat="42.84304" lon="0.50598">
        <ele>1739</ele>
        <time>2020-02-01T11:23:24.000Z</time>
      </trkpt>
      <trkpt lat="42.84304" lon="0.50598">
        <ele>1739</ele>
        <time>2020-02-01T11:23:25.000Z</time>
      </trkpt>
      <trkpt lat="42.84304" lon="0.50598">
        <ele>1739</ele>
        <time>2020-02-01T11:23:26.000Z</time>
      </trkpt>
      <trkpt lat="42.84304" lon="0.50598">
        <ele>1739.3</ele>
        <time>2020-02-01T11:23:27.000Z</time>
      </trkpt>
      <trkpt lat="42.84304" lon="0.50599">
        <ele>1739.7</ele>
        <time>2020-02-01T11:23:28.000Z</time>
      </trkpt>
      <trkpt lat="42.84304" lon="0.50599">
        <ele>1740</ele>
        <time>2020-02-01T11:23:29.000Z</time>
      </trkpt>
      <trkpt lat="42.84303" lon="0.50599">
        <ele>1740</ele>
        <time>2020-02-01T11:23:30.000Z</time>
      </trkpt>
      <trkpt lat="42.84303" lon="0.50599">
        <ele>1740</ele>
        <time>2020-02-01T11:23:31.000Z</time>
      </trkpt>
      <trkpt lat="42.84303" lon="0.506">
        <ele>1740</ele>
        <time>2020-02-01T11:23:32.000Z</time>
      </trkpt>
      <trkpt lat="42.84303" lon="0.506">
        <ele>1740.3</ele>
        <time>2020-02-01T11:23:33.000Z</time>
      </trkpt>
      <trkpt lat="42.84303" lon="0.50601">
        <ele>1740.7</ele>
        <time>2020-02-01T11:23:34.000Z</time>
      </trkpt>
      <trkpt lat="42.84302" lon="0.50602">
        <ele>1741</ele>
        <time>2020-02-01T11:23:35.000Z</time>
      </trkpt>
      <trkpt lat="42.84302" lon="0.50603">
        <ele>1741</ele>
        <time>2020-02-01T11:23:36.000Z</time>
      </trkpt>
      <trkpt lat="42.84301" lon="0.50604">
        <ele>1741.3</ele>
        <time>2020-02-01T11:23:37.000Z</time>
      </trkpt>
      <trkpt lat="42.84301" lon="0.50604">
        <ele>1741.7</ele>
        <time>2020-02-01T11:23:38.000Z</time>
      </trkpt>
      <trkpt lat="42.84301" lon="0.50605">
        <ele>1742</ele>
        <time>2020-02-01T11:23:39.000Z</time>
      </trkpt>
      <trkpt lat="42.843" lon="0.50606">
        <ele>1742</ele>
        <time>2020-02-01T11:23:40.000Z</time>
      </trkpt>
      <trkpt lat="42.843" lon="0.50607">
        <ele>1742</ele>
        <time>2020-02-01T11:23:41.000Z</time>
      </trkpt>
      <trkpt lat="42.843" lon="0.50607">
        <ele>1742</ele>
        <time>2020-02-01T11:23:42.000Z</time>
      </trkpt>
      <trkpt lat="42.843" lon="0.50608">
        <ele>1742</ele>
        <time>2020-02-01T11:23:43.000Z</time>
      </trkpt>
      <trkpt lat="42.84299" lon="0.50608">
        <ele>1742</ele>
        <time>2020-02-01T11:23:44.000Z</time>
      </trkpt>
      <trkpt lat="42.84299" lon="0.50609">
        <ele>1742</ele>
        <time>2020-02-01T11:23:45.000Z</time>
      </trkpt>
      <trkpt lat="42.84299" lon="0.50609">
        <ele>1743</ele>
        <time>2020-02-01T11:23:46.000Z</time>
      </trkpt>
      <trkpt lat="42.84299" lon="0.50609">
        <ele>1743</ele>
        <time>2020-02-01T11:23:47.000Z</time>
      </trkpt>
      <trkpt lat="42.84299" lon="0.50609">
        <ele>1743</ele>
        <time>2020-02-01T11:23:48.000Z</time>
      </trkpt>
      <trkpt lat="42.84299" lon="0.50609">
        <ele>1743</ele>
        <time>2020-02-01T11:23:49.000Z</time>
      </trkpt>
      <trkpt lat="42.84299" lon="0.50609">
        <ele>1743</ele>
        <time>2020-02-01T11:23:50.000Z</time>
      </trkpt>
      <trkpt lat="42.84299" lon="0.50609">
        <ele>1743</ele>
        <time>2020-02-01T11:23:51.000Z</time>
      </trkpt>
      <trkpt lat="42.84299" lon="0.50609">
        <ele>1743</ele>
        <time>2020-02-01T11:23:52.000Z</time>
      </trkpt>
      <trkpt lat="42.84299" lon="0.50609">
        <ele>1743</ele>
        <time>2020-02-01T11:23:53.000Z</time>
      </trkpt>
      <trkpt lat="42.84299" lon="0.50609">
        <ele>1743</ele>
        <time>2020-02-01T11:23:54.000Z</time>
      </trkpt>
      <trkpt lat="42.84299" lon="0.5061">
        <ele>1743</ele>
        <time>2020-02-01T11:23:55.000Z</time>
      </trkpt>
      <trkpt lat="42.84299" lon="0.5061">
        <ele>1743</ele>
        <time>2020-02-01T11:23:56.000Z</time>
      </trkpt>
      <trkpt lat="42.84299" lon="0.5061">
        <ele>1743</ele>
        <time>2020-02-01T11:23:57.000Z</time>
      </trkpt>
      <trkpt lat="42.84298" lon="0.50611">
        <ele>1743</ele>
        <time>2020-02-01T11:23:58.000Z</time>
      </trkpt>
      <trkpt lat="42.84298" lon="0.50611">
        <ele>1743</ele>
        <time>2020-02-01T11:23:59.000Z</time>
      </trkpt>
      <trkpt lat="42.84298" lon="0.50612">
        <ele>1743</ele>
        <time>2020-02-01T11:24:00.000Z</time>
      </trkpt>
      <trkpt lat="42.84298" lon="0.50612">
        <ele>1743.5</ele>
        <time>2020-02-01T11:24:01.000Z</time>
      </trkpt>
      <trkpt lat="42.84298" lon="0.50613">
        <ele>1744</ele>
        <time>2020-02-01T11:24:02.000Z</time>
      </trkpt>
      <trkpt lat="42.84298" lon="0.50613">
        <ele>1744</ele>
        <time>2020-02-01T11:24:03.000Z</time>
      </trkpt>
      <trkpt lat="42.84298" lon="0.50614">
        <ele>1744</ele>
        <time>2020-02-01T11:24:04.000Z</time>
      </trkpt>
      <trkpt lat="42.84298" lon="0.50614">
        <ele>1744</ele>
        <time>2020-02-01T11:24:05.000Z</time>
      </trkpt>
      <trkpt lat="42.84298" lon="0.50615">
        <ele>1744</ele>
        <time>2020-02-01T11:24:06.000Z</time>
      </trkpt>
      <trkpt lat="42.84297" lon="0.50616">
        <ele>1744.5</ele>
        <time>2020-02-01T11:24:07.000Z</time>
      </trkpt>
      <trkpt lat="42.84297" lon="0.50616">
        <ele>1745</ele>
        <time>2020-02-01T11:24:08.000Z</time>
      </trkpt>
      <trkpt lat="42.84297" lon="0.50617">
        <ele>1745</ele>
        <time>2020-02-01T11:24:09.000Z</time>
      </trkpt>
      <trkpt lat="42.84297" lon="0.50617">
        <ele>1745</ele>
        <time>2020-02-01T11:24:10.000Z</time>
      </trkpt>
      <trkpt lat="42.84296" lon="0.50618">
        <ele>1745</ele>
        <time>2020-02-01T11:24:11.000Z</time>
      </trkpt>
      <trkpt lat="42.84296" lon="0.50618">
        <ele>1745</ele>
        <time>2020-02-01T11:24:12.000Z</time>
      </trkpt>
      <trkpt lat="42.84296" lon="0.50619">
        <ele>1745</ele>
        <time>2020-02-01T11:24:13.000Z</time>
      </trkpt>
      <trkpt lat="42.84295" lon="0.50619">
        <ele>1745</ele>
        <time>2020-02-01T11:24:14.000Z</time>
      </trkpt>
      <trkpt lat="42.84295" lon="0.50619">
        <ele>1745.3</ele>
        <time>2020-02-01T11:24:15.000Z</time>
      </trkpt>
      <trkpt lat="42.84295" lon="0.50619">
        <ele>1745.7</ele>
        <time>2020-02-01T11:24:16.000Z</time>
      </trkpt>
      <trkpt lat="42.84295" lon="0.50619">
        <ele>1746</ele>
        <time>2020-02-01T11:24:17.000Z</time>
      </trkpt>
      <trkpt lat="42.84295" lon="0.50619">
        <ele>1746</ele>
        <time>2020-02-01T11:24:18.000Z</time>
      </trkpt>
      <trkpt lat="42.84295" lon="0.50619">
        <ele>1746</ele>
        <time>2020-02-01T11:24:19.000Z</time>
      </trkpt>
      <trkpt lat="42.84295" lon="0.5062">
        <ele>1746</ele>
        <time>2020-02-01T11:24:20.000Z</time>
      </trkpt>
      <trkpt lat="42.84294" lon="0.5062">
        <ele>1746</ele>
        <time>2020-02-01T11:24:21.000Z</time>
      </trkpt>
      <trkpt lat="42.84294" lon="0.50621">
        <ele>1746</ele>
        <time>2020-02-01T11:24:22.000Z</time>
      </trkpt>
      <trkpt lat="42.84294" lon="0.50622">
        <ele>1746</ele>
        <time>2020-02-01T11:24:23.000Z</time>
      </trkpt>
      <trkpt lat="42.84293" lon="0.50622">
        <ele>1746</ele>
        <time>2020-02-01T11:24:24.000Z</time>
      </trkpt>
      <trkpt lat="42.84293" lon="0.50622">
        <ele>1746</ele>
        <time>2020-02-01T11:24:25.000Z</time>
      </trkpt>
      <trkpt lat="42.84293" lon="0.50623">
        <ele>1747</ele>
        <time>2020-02-01T11:24:26.000Z</time>
      </trkpt>
      <trkpt lat="42.84293" lon="0.50623">
        <ele>1747</ele>
        <time>2020-02-01T11:24:27.000Z</time>
      </trkpt>
      <trkpt lat="42.84293" lon="0.50624">
        <ele>1747</ele>
        <time>2020-02-01T11:24:28.000Z</time>
      </trkpt>
      <trkpt lat="42.84293" lon="0.50624">
        <ele>1747</ele>
        <time>2020-02-01T11:24:29.000Z</time>
      </trkpt>
      <trkpt lat="42.84293" lon="0.50624">
        <ele>1747</ele>
        <time>2020-02-01T11:24:30.000Z</time>
      </trkpt>
      <trkpt lat="42.84293" lon="0.50624">
        <ele>1747</ele>
        <time>2020-02-01T11:24:31.000Z</time>
      </trkpt>
      <trkpt lat="42.84293" lon="0.50625">
        <ele>1748</ele>
        <time>2020-02-01T11:24:32.000Z</time>
      </trkpt>
      <trkpt lat="42.84293" lon="0.50625">
        <ele>1748</ele>
        <time>2020-02-01T11:24:33.000Z</time>
      </trkpt>
      <trkpt lat="42.84292" lon="0.50625">
        <ele>1748</ele>
        <time>2020-02-01T11:24:34.000Z</time>
      </trkpt>
      <trkpt lat="42.84292" lon="0.50626">
        <ele>1748</ele>
        <time>2020-02-01T11:24:35.000Z</time>
      </trkpt>
      <trkpt lat="42.84292" lon="0.50626">
        <ele>1748</ele>
        <time>2020-02-01T11:24:36.000Z</time>
      </trkpt>
      <trkpt lat="42.84292" lon="0.50626">
        <ele>1748</ele>
        <time>2020-02-01T11:24:37.000Z</time>
      </trkpt>
      <trkpt lat="42.84292" lon="0.50626">
        <ele>1748</ele>
        <time>2020-02-01T11:24:38.000Z</time>
      </trkpt>
      <trkpt lat="42.84291" lon="0.50627">
        <ele>1748.3</ele>
        <time>2020-02-01T11:24:39.000Z</time>
      </trkpt>
      <trkpt lat="42.84291" lon="0.50627">
        <ele>1748.7</ele>
        <time>2020-02-01T11:24:40.000Z</time>
      </trkpt>
      <trkpt lat="42.84291" lon="0.50628">
        <ele>1749</ele>
        <time>2020-02-01T11:24:41.000Z</time>
      </trkpt>
      <trkpt lat="42.84291" lon="0.50628">
        <ele>1749</ele>
        <time>2020-02-01T11:24:42.000Z</time>
      </trkpt>
      <trkpt lat="42.84291" lon="0.50629">
        <ele>1749</ele>
        <time>2020-02-01T11:24:43.000Z</time>
      </trkpt>
      <trkpt lat="42.84291" lon="0.5063">
        <ele>1749</ele>
        <time>2020-02-01T11:24:44.000Z</time>
      </trkpt>
      <trkpt lat="42.8429" lon="0.5063">
        <ele>1749</ele>
        <time>2020-02-01T11:24:45.000Z</time>
      </trkpt>
      <trkpt lat="42.8429" lon="0.50631">
        <ele>1749</ele>
        <time>2020-02-01T11:24:46.000Z</time>
      </trkpt>
      <trkpt lat="42.8429" lon="0.50631">
        <ele>1749</ele>
        <time>2020-02-01T11:24:47.000Z</time>
      </trkpt>
      <trkpt lat="42.8429" lon="0.50632">
        <ele>1750</ele>
        <time>2020-02-01T11:24:48.000Z</time>
      </trkpt>
      <trkpt lat="42.84291" lon="0.50633">
        <ele>1750</ele>
        <time>2020-02-01T11:24:49.000Z</time>
      </trkpt>
      <trkpt lat="42.84291" lon="0.50633">
        <ele>1750</ele>
        <time>2020-02-01T11:24:50.000Z</time>
      </trkpt>
      <trkpt lat="42.84291" lon="0.50634">
        <ele>1750</ele>
        <time>2020-02-01T11:24:51.000Z</time>
      </trkpt>
      <trkpt lat="42.84291" lon="0.50634">
        <ele>1750</ele>
        <time>2020-02-01T11:24:52.000Z</time>
      </trkpt>
      <trkpt lat="42.84291" lon="0.50634">
        <ele>1750</ele>
        <time>2020-02-01T11:24:53.000Z</time>
      </trkpt>
      <trkpt lat="42.84291" lon="0.50635">
        <ele>1750</ele>
        <time>2020-02-01T11:24:54.000Z</time>
      </trkpt>
      <trkpt lat="42.84291" lon="0.50635">
        <ele>1750</ele>
        <time>2020-02-01T11:24:55.000Z</time>
      </trkpt>
      <trkpt lat="42.84291" lon="0.50635">
        <ele>1751</ele>
        <time>2020-02-01T11:24:56.000Z</time>
      </trkpt>
      <trkpt lat="42.84292" lon="0.50635">
        <ele>1751</ele>
        <time>2020-02-01T11:24:57.000Z</time>
      </trkpt>
      <trkpt lat="42.84292" lon="0.50636">
        <ele>1751</ele>
        <time>2020-02-01T11:24:58.000Z</time>
      </trkpt>
      <trkpt lat="42.84292" lon="0.50636">
        <ele>1751</ele>
        <time>2020-02-01T11:24:59.000Z</time>
      </trkpt>
      <trkpt lat="42.84292" lon="0.50636">
        <ele>1751</ele>
        <time>2020-02-01T11:25:00.000Z</time>
      </trkpt>
      <trkpt lat="42.84292" lon="0.50637">
        <ele>1751.5</ele>
        <time>2020-02-01T11:25:01.000Z</time>
      </trkpt>
      <trkpt lat="42.84292" lon="0.50638">
        <ele>1752</ele>
        <time>2020-02-01T11:25:02.000Z</time>
      </trkpt>
      <trkpt lat="42.84292" lon="0.50639">
        <ele>1752</ele>
        <time>2020-02-01T11:25:03.000Z</time>
      </trkpt>
      <trkpt lat="42.84292" lon="0.50639">
        <ele>1752</ele>
        <time>2020-02-01T11:25:04.000Z</time>
      </trkpt>
      <trkpt lat="42.84292" lon="0.5064">
        <ele>1752</ele>
        <time>2020-02-01T11:25:05.000Z</time>
      </trkpt>
      <trkpt lat="42.84291" lon="0.50641">
        <ele>1752</ele>
        <time>2020-02-01T11:25:06.000Z</time>
      </trkpt>
      <trkpt lat="42.84291" lon="0.50642">
        <ele>1752</ele>
        <time>2020-02-01T11:25:07.000Z</time>
      </trkpt>
      <trkpt lat="42.84291" lon="0.50642">
        <ele>1753</ele>
        <time>2020-02-01T11:25:08.000Z</time>
      </trkpt>
      <trkpt lat="42.84291" lon="0.50642">
        <ele>1753</ele>
        <time>2020-02-01T11:25:09.000Z</time>
      </trkpt>
      <trkpt lat="42.84291" lon="0.50643">
        <ele>1753</ele>
        <time>2020-02-01T11:25:10.000Z</time>
      </trkpt>
      <trkpt lat="42.84291" lon="0.50643">
        <ele>1753.3</ele>
        <time>2020-02-01T11:25:11.000Z</time>
      </trkpt>
      <trkpt lat="42.84291" lon="0.50643">
        <ele>1753.7</ele>
        <time>2020-02-01T11:25:12.000Z</time>
      </trkpt>
      <trkpt lat="42.84291" lon="0.50643">
        <ele>1754</ele>
        <time>2020-02-01T11:25:13.000Z</time>
      </trkpt>
      <trkpt lat="42.84291" lon="0.50644">
        <ele>1754</ele>
        <time>2020-02-01T11:25:14.000Z</time>
      </trkpt>
      <trkpt lat="42.84291" lon="0.50644">
        <ele>1754</ele>
        <time>2020-02-01T11:25:15.000Z</time>
      </trkpt>
      <trkpt lat="42.84291" lon="0.50644">
        <ele>1754</ele>
        <time>2020-02-01T11:25:16.000Z</time>
      </trkpt>
      <trkpt lat="42.84291" lon="0.50644">
        <ele>1754</ele>
        <time>2020-02-01T11:25:17.000Z</time>
      </trkpt>
      <trkpt lat="42.84291" lon="0.50645">
        <ele>1754</ele>
        <time>2020-02-01T11:25:18.000Z</time>
      </trkpt>
      <trkpt lat="42.84291" lon="0.50645">
        <ele>1754</ele>
        <time>2020-02-01T11:25:19.000Z</time>
      </trkpt>
      <trkpt lat="42.84291" lon="0.50646">
        <ele>1754</ele>
        <time>2020-02-01T11:25:20.000Z</time>
      </trkpt>
      <trkpt lat="42.84291" lon="0.50646">
        <ele>1754.3</ele>
        <time>2020-02-01T11:25:21.000Z</time>
      </trkpt>
      <trkpt lat="42.84291" lon="0.50647">
        <ele>1754.7</ele>
        <time>2020-02-01T11:25:22.000Z</time>
      </trkpt>
      <trkpt lat="42.84291" lon="0.50647">
        <ele>1755</ele>
        <time>2020-02-01T11:25:23.000Z</time>
      </trkpt>
      <trkpt lat="42.84291" lon="0.50648">
        <ele>1755</ele>
        <time>2020-02-01T11:25:24.000Z</time>
      </trkpt>
      <trkpt lat="42.84291" lon="0.50649">
        <ele>1755</ele>
        <time>2020-02-01T11:25:25.000Z</time>
      </trkpt>
      <trkpt lat="42.84291" lon="0.50649">
        <ele>1755</ele>
        <time>2020-02-01T11:25:26.000Z</time>
      </trkpt>
      <trkpt lat="42.84291" lon="0.5065">
        <ele>1755</ele>
        <time>2020-02-01T11:25:27.000Z</time>
      </trkpt>
      <trkpt lat="42.84291" lon="0.5065">
        <ele>1755</ele>
        <time>2020-02-01T11:25:28.000Z</time>
      </trkpt>
      <trkpt lat="42.84291" lon="0.50651">
        <ele>1755</ele>
        <time>2020-02-01T11:25:29.000Z</time>
      </trkpt>
      <trkpt lat="42.84291" lon="0.50651">
        <ele>1755</ele>
        <time>2020-02-01T11:25:30.000Z</time>
      </trkpt>
      <trkpt lat="42.84291" lon="0.50652">
        <ele>1755</ele>
        <time>2020-02-01T11:25:31.000Z</time>
      </trkpt>
      <trkpt lat="42.84291" lon="0.50652">
        <ele>1755</ele>
        <time>2020-02-01T11:25:32.000Z</time>
      </trkpt>
      <trkpt lat="42.84291" lon="0.50652">
        <ele>1755.3</ele>
        <time>2020-02-01T11:25:33.000Z</time>
      </trkpt>
      <trkpt lat="42.84291" lon="0.50652">
        <ele>1755.7</ele>
        <time>2020-02-01T11:25:34.000Z</time>
      </trkpt>
      <trkpt lat="42.84291" lon="0.50653">
        <ele>1756</ele>
        <time>2020-02-01T11:25:35.000Z</time>
      </trkpt>
      <trkpt lat="42.84291" lon="0.50653">
        <ele>1756</ele>
        <time>2020-02-01T11:25:36.000Z</time>
      </trkpt>
      <trkpt lat="42.84291" lon="0.50653">
        <ele>1756</ele>
        <time>2020-02-01T11:25:37.000Z</time>
      </trkpt>
      <trkpt lat="42.84291" lon="0.50653">
        <ele>1756</ele>
        <time>2020-02-01T11:25:38.000Z</time>
      </trkpt>
      <trkpt lat="42.84291" lon="0.50654">
        <ele>1756</ele>
        <time>2020-02-01T11:25:39.000Z</time>
      </trkpt>
      <trkpt lat="42.8429" lon="0.50654">
        <ele>1756</ele>
        <time>2020-02-01T11:25:40.000Z</time>
      </trkpt>
      <trkpt lat="42.8429" lon="0.50654">
        <ele>1756</ele>
        <time>2020-02-01T11:25:41.000Z</time>
      </trkpt>
      <trkpt lat="42.84289" lon="0.50655">
        <ele>1757</ele>
        <time>2020-02-01T11:25:42.000Z</time>
      </trkpt>
      <trkpt lat="42.84289" lon="0.50655">
        <ele>1757</ele>
        <time>2020-02-01T11:25:43.000Z</time>
      </trkpt>
      <trkpt lat="42.84289" lon="0.50656">
        <ele>1757</ele>
        <time>2020-02-01T11:25:44.000Z</time>
      </trkpt>
      <trkpt lat="42.84288" lon="0.50656">
        <ele>1757</ele>
        <time>2020-02-01T11:25:45.000Z</time>
      </trkpt>
      <trkpt lat="42.84287" lon="0.50657">
        <ele>1757</ele>
        <time>2020-02-01T11:25:46.000Z</time>
      </trkpt>
      <trkpt lat="42.84287" lon="0.50657">
        <ele>1757</ele>
        <time>2020-02-01T11:25:47.000Z</time>
      </trkpt>
      <trkpt lat="42.84286" lon="0.50658">
        <ele>1757</ele>
        <time>2020-02-01T11:25:48.000Z</time>
      </trkpt>
      <trkpt lat="42.84286" lon="0.50658">
        <ele>1757</ele>
        <time>2020-02-01T11:25:49.000Z</time>
      </trkpt>
      <trkpt lat="42.84285" lon="0.50658">
        <ele>1757</ele>
        <time>2020-02-01T11:25:50.000Z</time>
      </trkpt>
      <trkpt lat="42.84284" lon="0.50659">
        <ele>1757.5</ele>
        <time>2020-02-01T11:25:51.000Z</time>
      </trkpt>
      <trkpt lat="42.84283" lon="0.50659">
        <ele>1758</ele>
        <time>2020-02-01T11:25:52.000Z</time>
      </trkpt>
      <trkpt lat="42.84283" lon="0.50659">
        <ele>1758</ele>
        <time>2020-02-01T11:25:53.000Z</time>
      </trkpt>
      <trkpt lat="42.84282" lon="0.5066">
        <ele>1758</ele>
        <time>2020-02-01T11:25:54.000Z</time>
      </trkpt>
      <trkpt lat="42.84282" lon="0.5066">
        <ele>1758</ele>
        <time>2020-02-01T11:25:55.000Z</time>
      </trkpt>
      <trkpt lat="42.84281" lon="0.50661">
        <ele>1758</ele>
        <time>2020-02-01T11:25:56.000Z</time>
      </trkpt>
      <trkpt lat="42.84281" lon="0.50661">
        <ele>1758</ele>
        <time>2020-02-01T11:25:57.000Z</time>
      </trkpt>
      <trkpt lat="42.8428" lon="0.50661">
        <ele>1758</ele>
        <time>2020-02-01T11:25:58.000Z</time>
      </trkpt>
      <trkpt lat="42.8428" lon="0.50661">
        <ele>1758</ele>
        <time>2020-02-01T11:25:59.000Z</time>
      </trkpt>
      <trkpt lat="42.84279" lon="0.50662">
        <ele>1758</ele>
        <time>2020-02-01T11:26:00.000Z</time>
      </trkpt>
      <trkpt lat="42.84279" lon="0.50662">
        <ele>1758</ele>
        <time>2020-02-01T11:26:01.000Z</time>
      </trkpt>
      <trkpt lat="42.84278" lon="0.50662">
        <ele>1759</ele>
        <time>2020-02-01T11:26:02.000Z</time>
      </trkpt>
      <trkpt lat="42.84278" lon="0.50663">
        <ele>1759</ele>
        <time>2020-02-01T11:26:03.000Z</time>
      </trkpt>
      <trkpt lat="42.84277" lon="0.50663">
        <ele>1759</ele>
        <time>2020-02-01T11:26:04.000Z</time>
      </trkpt>
      <trkpt lat="42.84277" lon="0.50663">
        <ele>1759</ele>
        <time>2020-02-01T11:26:05.000Z</time>
      </trkpt>
      <trkpt lat="42.84277" lon="0.50663">
        <ele>1759</ele>
        <time>2020-02-01T11:26:06.000Z</time>
      </trkpt>
      <trkpt lat="42.84276" lon="0.50663">
        <ele>1759</ele>
        <time>2020-02-01T11:26:07.000Z</time>
      </trkpt>
      <trkpt lat="42.84276" lon="0.50663">
        <ele>1759.5</ele>
        <time>2020-02-01T11:26:08.000Z</time>
      </trkpt>
      <trkpt lat="42.84276" lon="0.50663">
        <ele>1760</ele>
        <time>2020-02-01T11:26:09.000Z</time>
      </trkpt>
      <trkpt lat="42.84275" lon="0.50663">
        <ele>1760</ele>
        <time>2020-02-01T11:26:10.000Z</time>
      </trkpt>
      <trkpt lat="42.84275" lon="0.50663">
        <ele>1760</ele>
        <time>2020-02-01T11:26:11.000Z</time>
      </trkpt>
      <trkpt lat="42.84275" lon="0.50663">
        <ele>1760</ele>
        <time>2020-02-01T11:26:12.000Z</time>
      </trkpt>
      <trkpt lat="42.84275" lon="0.50663">
        <ele>1760</ele>
        <time>2020-02-01T11:26:13.000Z</time>
      </trkpt>
      <trkpt lat="42.84275" lon="0.50663">
        <ele>1760</ele>
        <time>2020-02-01T11:26:14.000Z</time>
      </trkpt>
      <trkpt lat="42.84275" lon="0.50663">
        <ele>1760</ele>
        <time>2020-02-01T11:26:15.000Z</time>
      </trkpt>
      <trkpt lat="42.84275" lon="0.50664">
        <ele>1761</ele>
        <time>2020-02-01T11:26:16.000Z</time>
      </trkpt>
      <trkpt lat="42.84275" lon="0.50664">
        <ele>1761</ele>
        <time>2020-02-01T11:26:17.000Z</time>
      </trkpt>
      <trkpt lat="42.84275" lon="0.50664">
        <ele>1761</ele>
        <time>2020-02-01T11:26:18.000Z</time>
      </trkpt>
      <trkpt lat="42.84275" lon="0.50664">
        <ele>1761</ele>
        <time>2020-02-01T11:26:19.000Z</time>
      </trkpt>
      <trkpt lat="42.84274" lon="0.50665">
        <ele>1761</ele>
        <time>2020-02-01T11:26:20.000Z</time>
      </trkpt>
      <trkpt lat="42.84274" lon="0.50665">
        <ele>1760.7</ele>
        <time>2020-02-01T11:26:21.000Z</time>
      </trkpt>
      <trkpt lat="42.84274" lon="0.50665">
        <ele>1760.3</ele>
        <time>2020-02-01T11:26:22.000Z</time>
      </trkpt>
      <trkpt lat="42.84274" lon="0.50665">
        <ele>1760</ele>
        <time>2020-02-01T11:26:23.000Z</time>
      </trkpt>
      <trkpt lat="42.84273" lon="0.50665">
        <ele>1760</ele>
        <time>2020-02-01T11:26:24.000Z</time>
      </trkpt>
      <trkpt lat="42.84273" lon="0.50665">
        <ele>1760</ele>
        <time>2020-02-01T11:26:25.000Z</time>
      </trkpt>
      <trkpt lat="42.84273" lon="0.50665">
        <ele>1760</ele>
        <time>2020-02-01T11:26:26.000Z</time>
      </trkpt>
      <trkpt lat="42.84273" lon="0.50665">
        <ele>1760</ele>
        <time>2020-02-01T11:26:27.000Z</time>
      </trkpt>
      <trkpt lat="42.84273" lon="0.50665">
        <ele>1760</ele>
        <time>2020-02-01T11:26:28.000Z</time>
      </trkpt>
      <trkpt lat="42.84273" lon="0.50665">
        <ele>1760</ele>
        <time>2020-02-01T11:26:29.000Z</time>
      </trkpt>
      <trkpt lat="42.84273" lon="0.50665">
        <ele>1760</ele>
        <time>2020-02-01T11:26:30.000Z</time>
      </trkpt>
      <trkpt lat="42.84273" lon="0.50665">
        <ele>1760</ele>
        <time>2020-02-01T11:26:31.000Z</time>
      </trkpt>
      <trkpt lat="42.84273" lon="0.50665">
        <ele>1760</ele>
        <time>2020-02-01T11:26:32.000Z</time>
      </trkpt>
      <trkpt lat="42.84273" lon="0.50666">
        <ele>1760</ele>
        <time>2020-02-01T11:26:33.000Z</time>
      </trkpt>
      <trkpt lat="42.84273" lon="0.50666">
        <ele>1760</ele>
        <time>2020-02-01T11:26:34.000Z</time>
      </trkpt>
      <trkpt lat="42.84273" lon="0.50666">
        <ele>1760</ele>
        <time>2020-02-01T11:26:35.000Z</time>
      </trkpt>
      <trkpt lat="42.84273" lon="0.50666">
        <ele>1759.5</ele>
        <time>2020-02-01T11:26:36.000Z</time>
      </trkpt>
      <trkpt lat="42.84273" lon="0.50666">
        <ele>1759</ele>
        <time>2020-02-01T11:26:37.000Z</time>
      </trkpt>
      <trkpt lat="42.84273" lon="0.50666">
        <ele>1759.5</ele>
        <time>2020-02-01T11:26:38.000Z</time>
      </trkpt>
      <trkpt lat="42.84273" lon="0.50666">
        <ele>1760</ele>
        <time>2020-02-01T11:26:39.000Z</time>
      </trkpt>
      <trkpt lat="42.84273" lon="0.50666">
        <ele>1760</ele>
        <time>2020-02-01T11:26:40.000Z</time>
      </trkpt>
      <trkpt lat="42.84273" lon="0.50666">
        <ele>1760</ele>
        <time>2020-02-01T11:26:41.000Z</time>
      </trkpt>
      <trkpt lat="42.84272" lon="0.50666">
        <ele>1760</ele>
        <time>2020-02-01T11:26:42.000Z</time>
      </trkpt>
      <trkpt lat="42.84272" lon="0.50666">
        <ele>1759.7</ele>
        <time>2020-02-01T11:26:43.000Z</time>
      </trkpt>
      <trkpt lat="42.84272" lon="0.50666">
        <ele>1759.3</ele>
        <time>2020-02-01T11:26:44.000Z</time>
      </trkpt>
      <trkpt lat="42.84272" lon="0.50666">
        <ele>1759</ele>
        <time>2020-02-01T11:26:45.000Z</time>
      </trkpt>
      <trkpt lat="42.84272" lon="0.50666">
        <ele>1759</ele>
        <time>2020-02-01T11:26:46.000Z</time>
      </trkpt>
      <trkpt lat="42.84272" lon="0.50665">
        <ele>1759.3</ele>
        <time>2020-02-01T11:26:47.000Z</time>
      </trkpt>
      <trkpt lat="42.84272" lon="0.50665">
        <ele>1759.7</ele>
        <time>2020-02-01T11:26:48.000Z</time>
      </trkpt>
      <trkpt lat="42.84272" lon="0.50665">
        <ele>1760</ele>
        <time>2020-02-01T11:26:49.000Z</time>
      </trkpt>
      <trkpt lat="42.84273" lon="0.50665">
        <ele>1760</ele>
        <time>2020-02-01T11:26:50.000Z</time>
      </trkpt>
      <trkpt lat="42.84273" lon="0.50665">
        <ele>1760</ele>
        <time>2020-02-01T11:26:51.000Z</time>
      </trkpt>
      <trkpt lat="42.84273" lon="0.50665">
        <ele>1760</ele>
        <time>2020-02-01T11:26:52.000Z</time>
      </trkpt>
      <trkpt lat="42.84273" lon="0.50665">
        <ele>1760</ele>
        <time>2020-02-01T11:26:53.000Z</time>
      </trkpt>
      <trkpt lat="42.84274" lon="0.50665">
        <ele>1760</ele>
        <time>2020-02-01T11:26:54.000Z</time>
      </trkpt>
      <trkpt lat="42.84274" lon="0.50664">
        <ele>1760</ele>
        <time>2020-02-01T11:26:55.000Z</time>
      </trkpt>
      <trkpt lat="42.84274" lon="0.50664">
        <ele>1760</ele>
        <time>2020-02-01T11:26:56.000Z</time>
      </trkpt>
      <trkpt lat="42.84274" lon="0.50664">
        <ele>1760</ele>
        <time>2020-02-01T11:26:57.000Z</time>
      </trkpt>
      <trkpt lat="42.84274" lon="0.50664">
        <ele>1760</ele>
        <time>2020-02-01T11:26:58.000Z</time>
      </trkpt>
      <trkpt lat="42.84274" lon="0.50663">
        <ele>1760</ele>
        <time>2020-02-01T11:26:59.000Z</time>
      </trkpt>
      <trkpt lat="42.84273" lon="0.50663">
        <ele>1760</ele>
        <time>2020-02-01T11:27:00.000Z</time>
      </trkpt>
      <trkpt lat="42.84273" lon="0.50663">
        <ele>1760</ele>
        <time>2020-02-01T11:27:01.000Z</time>
      </trkpt>
      <trkpt lat="42.84273" lon="0.50663">
        <ele>1760</ele>
        <time>2020-02-01T11:27:02.000Z</time>
      </trkpt>
      <trkpt lat="42.84273" lon="0.50663">
        <ele>1760</ele>
        <time>2020-02-01T11:27:03.000Z</time>
      </trkpt>
      <trkpt lat="42.84272" lon="0.50662">
        <ele>1760</ele>
        <time>2020-02-01T11:27:04.000Z</time>
      </trkpt>
      <trkpt lat="42.84272" lon="0.50662">
        <ele>1760</ele>
        <time>2020-02-01T11:27:05.000Z</time>
      </trkpt>
      <trkpt lat="42.84272" lon="0.50662">
        <ele>1760</ele>
        <time>2020-02-01T11:27:06.000Z</time>
      </trkpt>
      <trkpt lat="42.84272" lon="0.50662">
        <ele>1760</ele>
        <time>2020-02-01T11:27:07.000Z</time>
      </trkpt>
      <trkpt lat="42.84272" lon="0.50663">
        <ele>1760</ele>
        <time>2020-02-01T11:27:08.000Z</time>
      </trkpt>
      <trkpt lat="42.84272" lon="0.50663">
        <ele>1760</ele>
        <time>2020-02-01T11:27:09.000Z</time>
      </trkpt>
      <trkpt lat="42.84272" lon="0.50663">
        <ele>1760</ele>
        <time>2020-02-01T11:27:10.000Z</time>
      </trkpt>
      <trkpt lat="42.84272" lon="0.50663">
        <ele>1760</ele>
        <time>2020-02-01T11:27:11.000Z</time>
      </trkpt>
      <trkpt lat="42.84272" lon="0.50663">
        <ele>1760</ele>
        <time>2020-02-01T11:27:12.000Z</time>
      </trkpt>
      <trkpt lat="42.84272" lon="0.50663">
        <ele>1759.7</ele>
        <time>2020-02-01T11:27:13.000Z</time>
      </trkpt>
      <trkpt lat="42.84273" lon="0.50663">
        <ele>1759.3</ele>
        <time>2020-02-01T11:27:14.000Z</time>
      </trkpt>
      <trkpt lat="42.84273" lon="0.50663">
        <ele>1759</ele>
        <time>2020-02-01T11:27:15.000Z</time>
      </trkpt>
      <trkpt lat="42.84273" lon="0.50663">
        <ele>1760</ele>
        <time>2020-02-01T11:27:16.000Z</time>
      </trkpt>
      <trkpt lat="42.84273" lon="0.50663">
        <ele>1760</ele>
        <time>2020-02-01T11:27:17.000Z</time>
      </trkpt>
      <trkpt lat="42.84273" lon="0.50663">
        <ele>1760</ele>
        <time>2020-02-01T11:27:18.000Z</time>
      </trkpt>
      <trkpt lat="42.84273" lon="0.50663">
        <ele>1760</ele>
        <time>2020-02-01T11:27:19.000Z</time>
      </trkpt>
      <trkpt lat="42.84273" lon="0.50663">
        <ele>1760</ele>
        <time>2020-02-01T11:27:20.000Z</time>
      </trkpt>
      <trkpt lat="42.84273" lon="0.50663">
        <ele>1760</ele>
        <time>2020-02-01T11:27:21.000Z</time>
      </trkpt>
      <trkpt lat="42.84273" lon="0.50663">
        <ele>1760</ele>
        <time>2020-02-01T11:27:22.000Z</time>
      </trkpt>
      <trkpt lat="42.84273" lon="0.50663">
        <ele>1760</ele>
        <time>2020-02-01T11:27:23.000Z</time>
      </trkpt>
      <trkpt lat="42.84273" lon="0.50663">
        <ele>1760</ele>
        <time>2020-02-01T11:27:24.000Z</time>
      </trkpt>
      <trkpt lat="42.84273" lon="0.50663">
        <ele>1759.5</ele>
        <time>2020-02-01T11:27:25.000Z</time>
      </trkpt>
      <trkpt lat="42.84273" lon="0.50663">
        <ele>1759</ele>
        <time>2020-02-01T11:27:26.000Z</time>
      </trkpt>
      <trkpt lat="42.84273" lon="0.50663">
        <ele>1759</ele>
        <time>2020-02-01T11:27:27.000Z</time>
      </trkpt>
      <trkpt lat="42.84273" lon="0.50663">
        <ele>1759</ele>
        <time>2020-02-01T11:27:28.000Z</time>
      </trkpt>
      <trkpt lat="42.84273" lon="0.50663">
        <ele>1759</ele>
        <time>2020-02-01T11:27:29.000Z</time>
      </trkpt>
      <trkpt lat="42.84274" lon="0.50664">
        <ele>1759</ele>
        <time>2020-02-01T11:27:30.000Z</time>
      </trkpt>
      <trkpt lat="42.84274" lon="0.50664">
        <ele>1759</ele>
        <time>2020-02-01T11:27:31.000Z</time>
      </trkpt>
      <trkpt lat="42.84274" lon="0.50664">
        <ele>1759</ele>
        <time>2020-02-01T11:27:32.000Z</time>
      </trkpt>
      <trkpt lat="42.84274" lon="0.50664">
        <ele>1759</ele>
        <time>2020-02-01T11:27:33.000Z</time>
      </trkpt>
      <trkpt lat="42.84274" lon="0.50664">
        <ele>1759</ele>
        <time>2020-02-01T11:27:34.000Z</time>
      </trkpt>
      <trkpt lat="42.84274" lon="0.50664">
        <ele>1759</ele>
        <time>2020-02-01T11:27:35.000Z</time>
      </trkpt>
      <trkpt lat="42.84274" lon="0.50664">
        <ele>1759</ele>
        <time>2020-02-01T11:27:36.000Z</time>
      </trkpt>
      <trkpt lat="42.84274" lon="0.50664">
        <ele>1759</ele>
        <time>2020-02-01T11:27:37.000Z</time>
      </trkpt>
      <trkpt lat="42.84274" lon="0.50664">
        <ele>1759</ele>
        <time>2020-02-01T11:27:38.000Z</time>
      </trkpt>
      <trkpt lat="42.84274" lon="0.50664">
        <ele>1759</ele>
        <time>2020-02-01T11:27:39.000Z</time>
      </trkpt>
      <trkpt lat="42.84274" lon="0.50664">
        <ele>1759</ele>
        <time>2020-02-01T11:27:40.000Z</time>
      </trkpt>
      <trkpt lat="42.84274" lon="0.50664">
        <ele>1759</ele>
        <time>2020-02-01T11:27:41.000Z</time>
      </trkpt>
      <trkpt lat="42.84274" lon="0.50664">
        <ele>1759</ele>
        <time>2020-02-01T11:27:42.000Z</time>
      </trkpt>
      <trkpt lat="42.84274" lon="0.50664">
        <ele>1759</ele>
        <time>2020-02-01T11:27:43.000Z</time>
      </trkpt>
      <trkpt lat="42.84274" lon="0.50664">
        <ele>1759</ele>
        <time>2020-02-01T11:27:44.000Z</time>
      </trkpt>
      <trkpt lat="42.84274" lon="0.50664">
        <ele>1759</ele>
        <time>2020-02-01T11:27:45.000Z</time>
      </trkpt>
      <trkpt lat="42.84274" lon="0.50664">
        <ele>1760</ele>
        <time>2020-02-01T11:27:46.000Z</time>
      </trkpt>
      <trkpt lat="42.84274" lon="0.50664">
        <ele>1760</ele>
        <time>2020-02-01T11:27:47.000Z</time>
      </trkpt>
      <trkpt lat="42.84274" lon="0.50664">
        <ele>1760</ele>
        <time>2020-02-01T11:27:48.000Z</time>
      </trkpt>
      <trkpt lat="42.84274" lon="0.50664">
        <ele>1760</ele>
        <time>2020-02-01T11:27:49.000Z</time>
      </trkpt>
      <trkpt lat="42.84274" lon="0.50664">
        <ele>1760</ele>
        <time>2020-02-01T11:27:50.000Z</time>
      </trkpt>
      <trkpt lat="42.84274" lon="0.50664">
        <ele>1760</ele>
        <time>2020-02-01T11:27:51.000Z</time>
      </trkpt>
      <trkpt lat="42.84274" lon="0.50664">
        <ele>1760</ele>
        <time>2020-02-01T11:27:52.000Z</time>
      </trkpt>
      <trkpt lat="42.84274" lon="0.50664">
        <ele>1760</ele>
        <time>2020-02-01T11:27:53.000Z</time>
      </trkpt>
      <trkpt lat="42.84274" lon="0.50664">
        <ele>1760</ele>
        <time>2020-02-01T11:27:54.000Z</time>
      </trkpt>
      <trkpt lat="42.84274" lon="0.50664">
        <ele>1760</ele>
        <time>2020-02-01T11:27:55.000Z</time>
      </trkpt>
      <trkpt lat="42.84274" lon="0.50664">
        <ele>1760</ele>
        <time>2020-02-01T11:27:56.000Z</time>
      </trkpt>
      <trkpt lat="42.84274" lon="0.50664">
        <ele>1759.7</ele>
        <time>2020-02-01T11:27:57.000Z</time>
      </trkpt>
      <trkpt lat="42.84274" lon="0.50664">
        <ele>1759.3</ele>
        <time>2020-02-01T11:27:58.000Z</time>
      </trkpt>
      <trkpt lat="42.84274" lon="0.50664">
        <ele>1759</ele>
        <time>2020-02-01T11:27:59.000Z</time>
      </trkpt>
      <trkpt lat="42.84274" lon="0.50664">
        <ele>1759</ele>
        <time>2020-02-01T11:28:00.000Z</time>
      </trkpt>
      <trkpt lat="42.84274" lon="0.50664">
        <ele>1759</ele>
        <time>2020-02-01T11:28:01.000Z</time>
      </trkpt>
      <trkpt lat="42.84274" lon="0.50664">
        <ele>1759</ele>
        <time>2020-02-01T11:28:02.000Z</time>
      </trkpt>
      <trkpt lat="42.84274" lon="0.50664">
        <ele>1759</ele>
        <time>2020-02-01T11:28:03.000Z</time>
      </trkpt>
      <trkpt lat="42.84274" lon="0.50664">
        <ele>1759</ele>
        <time>2020-02-01T11:28:04.000Z</time>
      </trkpt>
      <trkpt lat="42.84274" lon="0.50664">
        <ele>1759.3</ele>
        <time>2020-02-01T11:28:05.000Z</time>
      </trkpt>
      <trkpt lat="42.84275" lon="0.50664">
        <ele>1759.7</ele>
        <time>2020-02-01T11:28:06.000Z</time>
      </trkpt>
      <trkpt lat="42.84275" lon="0.50664">
        <ele>1760</ele>
        <time>2020-02-01T11:28:07.000Z</time>
      </trkpt>
      <trkpt lat="42.84275" lon="0.50664">
        <ele>1760</ele>
        <time>2020-02-01T11:28:08.000Z</time>
      </trkpt>
      <trkpt lat="42.84274" lon="0.50664">
        <ele>1760.3</ele>
        <time>2020-02-01T11:28:09.000Z</time>
      </trkpt>
      <trkpt lat="42.84274" lon="0.50664">
        <ele>1760.7</ele>
        <time>2020-02-01T11:28:10.000Z</time>
      </trkpt>
      <trkpt lat="42.84274" lon="0.50664">
        <ele>1761</ele>
        <time>2020-02-01T11:28:11.000Z</time>
      </trkpt>
      <trkpt lat="42.84273" lon="0.50664">
        <ele>1761</ele>
        <time>2020-02-01T11:28:12.000Z</time>
      </trkpt>
      <trkpt lat="42.84273" lon="0.50664">
        <ele>1761</ele>
        <time>2020-02-01T11:28:13.000Z</time>
      </trkpt>
      <trkpt lat="42.84273" lon="0.50664">
        <ele>1761</ele>
        <time>2020-02-01T11:28:14.000Z</time>
      </trkpt>
      <trkpt lat="42.84273" lon="0.50664">
        <ele>1761</ele>
        <time>2020-02-01T11:28:15.000Z</time>
      </trkpt>
      <trkpt lat="42.84273" lon="0.50664">
        <ele>1761</ele>
        <time>2020-02-01T11:28:16.000Z</time>
      </trkpt>
      <trkpt lat="42.84273" lon="0.50664">
        <ele>1761</ele>
        <time>2020-02-01T11:28:17.000Z</time>
      </trkpt>
      <trkpt lat="42.84273" lon="0.50664">
        <ele>1761</ele>
        <time>2020-02-01T11:28:18.000Z</time>
      </trkpt>
      <trkpt lat="42.84273" lon="0.50664">
        <ele>1761</ele>
        <time>2020-02-01T11:28:19.000Z</time>
      </trkpt>
      <trkpt lat="42.84272" lon="0.50664">
        <ele>1761</ele>
        <time>2020-02-01T11:28:20.000Z</time>
      </trkpt>
      <trkpt lat="42.84272" lon="0.50665">
        <ele>1761</ele>
        <time>2020-02-01T11:28:21.000Z</time>
      </trkpt>
      <trkpt lat="42.84271" lon="0.50665">
        <ele>1761</ele>
        <time>2020-02-01T11:28:22.000Z</time>
      </trkpt>
      <trkpt lat="42.84271" lon="0.50665">
        <ele>1761.3</ele>
        <time>2020-02-01T11:28:23.000Z</time>
      </trkpt>
      <trkpt lat="42.8427" lon="0.50665">
        <ele>1761.7</ele>
        <time>2020-02-01T11:28:24.000Z</time>
      </trkpt>
      <trkpt lat="42.84269" lon="0.50666">
        <ele>1762</ele>
        <time>2020-02-01T11:28:25.000Z</time>
      </trkpt>
      <trkpt lat="42.84268" lon="0.50666">
        <ele>1762</ele>
        <time>2020-02-01T11:28:26.000Z</time>
      </trkpt>
      <trkpt lat="42.84267" lon="0.50667">
        <ele>1762</ele>
        <time>2020-02-01T11:28:27.000Z</time>
      </trkpt>
      <trkpt lat="42.84266" lon="0.50667">
        <ele>1762</ele>
        <time>2020-02-01T11:28:28.000Z</time>
      </trkpt>
      <trkpt lat="42.84266" lon="0.50667">
        <ele>1762</ele>
        <time>2020-02-01T11:28:29.000Z</time>
      </trkpt>
      <trkpt lat="42.84265" lon="0.50668">
        <ele>1762.5</ele>
        <time>2020-02-01T11:28:30.000Z</time>
      </trkpt>
      <trkpt lat="42.84265" lon="0.50668">
        <ele>1763</ele>
        <time>2020-02-01T11:28:31.000Z</time>
      </trkpt>
      <trkpt lat="42.84264" lon="0.50668">
        <ele>1763</ele>
        <time>2020-02-01T11:28:32.000Z</time>
      </trkpt>
      <trkpt lat="42.84264" lon="0.50668">
        <ele>1763</ele>
        <time>2020-02-01T11:28:33.000Z</time>
      </trkpt>
      <trkpt lat="42.84264" lon="0.50668">
        <ele>1763</ele>
        <time>2020-02-01T11:28:34.000Z</time>
      </trkpt>
      <trkpt lat="42.84264" lon="0.50668">
        <ele>1763.3</ele>
        <time>2020-02-01T11:28:35.000Z</time>
      </trkpt>
      <trkpt lat="42.84264" lon="0.50668">
        <ele>1763.7</ele>
        <time>2020-02-01T11:28:36.000Z</time>
      </trkpt>
      <trkpt lat="42.84264" lon="0.50668">
        <ele>1764</ele>
        <time>2020-02-01T11:28:37.000Z</time>
      </trkpt>
      <trkpt lat="42.84264" lon="0.50668">
        <ele>1764</ele>
        <time>2020-02-01T11:28:38.000Z</time>
      </trkpt>
      <trkpt lat="42.84264" lon="0.50669">
        <ele>1764</ele>
        <time>2020-02-01T11:28:39.000Z</time>
      </trkpt>
      <trkpt lat="42.84263" lon="0.50669">
        <ele>1764</ele>
        <time>2020-02-01T11:28:40.000Z</time>
      </trkpt>
      <trkpt lat="42.84262" lon="0.50669">
        <ele>1764.3</ele>
        <time>2020-02-01T11:28:41.000Z</time>
      </trkpt>
      <trkpt lat="42.84262" lon="0.5067">
        <ele>1764.7</ele>
        <time>2020-02-01T11:28:42.000Z</time>
      </trkpt>
      <trkpt lat="42.84261" lon="0.5067">
        <ele>1765</ele>
        <time>2020-02-01T11:28:43.000Z</time>
      </trkpt>
      <trkpt lat="42.8426" lon="0.5067">
        <ele>1765</ele>
        <time>2020-02-01T11:28:44.000Z</time>
      </trkpt>
      <trkpt lat="42.84259" lon="0.50671">
        <ele>1765</ele>
        <time>2020-02-01T11:28:45.000Z</time>
      </trkpt>
      <trkpt lat="42.84259" lon="0.50671">
        <ele>1765</ele>
        <time>2020-02-01T11:28:46.000Z</time>
      </trkpt>
      <trkpt lat="42.84259" lon="0.50671">
        <ele>1765.3</ele>
        <time>2020-02-01T11:28:47.000Z</time>
      </trkpt>
      <trkpt lat="42.84258" lon="0.50671">
        <ele>1765.7</ele>
        <time>2020-02-01T11:28:48.000Z</time>
      </trkpt>
      <trkpt lat="42.84258" lon="0.50671">
        <ele>1766</ele>
        <time>2020-02-01T11:28:49.000Z</time>
      </trkpt>
      <trkpt lat="42.84258" lon="0.50671">
        <ele>1766</ele>
        <time>2020-02-01T11:28:50.000Z</time>
      </trkpt>
      <trkpt lat="42.84258" lon="0.50671">
        <ele>1766</ele>
        <time>2020-02-01T11:28:51.000Z</time>
      </trkpt>
      <trkpt lat="42.84258" lon="0.50671">
        <ele>1766.5</ele>
        <time>2020-02-01T11:28:52.000Z</time>
      </trkpt>
      <trkpt lat="42.84258" lon="0.50671">
        <ele>1767</ele>
        <time>2020-02-01T11:28:53.000Z</time>
      </trkpt>
      <trkpt lat="42.84258" lon="0.50671">
        <ele>1767</ele>
        <time>2020-02-01T11:28:54.000Z</time>
      </trkpt>
      <trkpt lat="42.84258" lon="0.50671">
        <ele>1767</ele>
        <time>2020-02-01T11:28:55.000Z</time>
      </trkpt>
      <trkpt lat="42.84258" lon="0.50671">
        <ele>1767</ele>
        <time>2020-02-01T11:28:56.000Z</time>
      </trkpt>
      <trkpt lat="42.84258" lon="0.50671">
        <ele>1767</ele>
        <time>2020-02-01T11:28:57.000Z</time>
      </trkpt>
      <trkpt lat="42.84258" lon="0.50671">
        <ele>1767</ele>
        <time>2020-02-01T11:28:58.000Z</time>
      </trkpt>
      <trkpt lat="42.84258" lon="0.50671">
        <ele>1767</ele>
        <time>2020-02-01T11:28:59.000Z</time>
      </trkpt>
      <trkpt lat="42.84257" lon="0.50671">
        <ele>1767</ele>
        <time>2020-02-01T11:29:00.000Z</time>
      </trkpt>
      <trkpt lat="42.84257" lon="0.50672">
        <ele>1767</ele>
        <time>2020-02-01T11:29:01.000Z</time>
      </trkpt>
      <trkpt lat="42.84256" lon="0.50672">
        <ele>1767</ele>
        <time>2020-02-01T11:29:02.000Z</time>
      </trkpt>
      <trkpt lat="42.84255" lon="0.50672">
        <ele>1767</ele>
        <time>2020-02-01T11:29:03.000Z</time>
      </trkpt>
      <trkpt lat="42.84254" lon="0.50672">
        <ele>1767</ele>
        <time>2020-02-01T11:29:04.000Z</time>
      </trkpt>
      <trkpt lat="42.84254" lon="0.50672">
        <ele>1767</ele>
        <time>2020-02-01T11:29:05.000Z</time>
      </trkpt>
      <trkpt lat="42.84253" lon="0.50672">
        <ele>1767</ele>
        <time>2020-02-01T11:29:06.000Z</time>
      </trkpt>
      <trkpt lat="42.84253" lon="0.50672">
        <ele>1767</ele>
        <time>2020-02-01T11:29:07.000Z</time>
      </trkpt>
      <trkpt lat="42.84253" lon="0.50672">
        <ele>1767</ele>
        <time>2020-02-01T11:29:08.000Z</time>
      </trkpt>
      <trkpt lat="42.84252" lon="0.50673">
        <ele>1767</ele>
        <time>2020-02-01T11:29:09.000Z</time>
      </trkpt>
      <trkpt lat="42.84252" lon="0.50673">
        <ele>1767</ele>
        <time>2020-02-01T11:29:10.000Z</time>
      </trkpt>
      <trkpt lat="42.84251" lon="0.50674">
        <ele>1767</ele>
        <time>2020-02-01T11:29:11.000Z</time>
      </trkpt>
      <trkpt lat="42.84251" lon="0.50674">
        <ele>1767</ele>
        <time>2020-02-01T11:29:12.000Z</time>
      </trkpt>
      <trkpt lat="42.8425" lon="0.50675">
        <ele>1767</ele>
        <time>2020-02-01T11:29:13.000Z</time>
      </trkpt>
      <trkpt lat="42.84249" lon="0.50676">
        <ele>1767.5</ele>
        <time>2020-02-01T11:29:14.000Z</time>
      </trkpt>
      <trkpt lat="42.84249" lon="0.50677">
        <ele>1768</ele>
        <time>2020-02-01T11:29:15.000Z</time>
      </trkpt>
      <trkpt lat="42.84248" lon="0.50677">
        <ele>1768</ele>
        <time>2020-02-01T11:29:16.000Z</time>
      </trkpt>
      <trkpt lat="42.84248" lon="0.50678">
        <ele>1768</ele>
        <time>2020-02-01T11:29:17.000Z</time>
      </trkpt>
      <trkpt lat="42.84247" lon="0.50679">
        <ele>1768.5</ele>
        <time>2020-02-01T11:29:18.000Z</time>
      </trkpt>
      <trkpt lat="42.84247" lon="0.50679">
        <ele>1769</ele>
        <time>2020-02-01T11:29:19.000Z</time>
      </trkpt>
      <trkpt lat="42.84246" lon="0.5068">
        <ele>1769</ele>
        <time>2020-02-01T11:29:20.000Z</time>
      </trkpt>
      <trkpt lat="42.84246" lon="0.5068">
        <ele>1769</ele>
        <time>2020-02-01T11:29:21.000Z</time>
      </trkpt>
      <trkpt lat="42.84246" lon="0.5068">
        <ele>1769.5</ele>
        <time>2020-02-01T11:29:22.000Z</time>
      </trkpt>
      <trkpt lat="42.84246" lon="0.50681">
        <ele>1770</ele>
        <time>2020-02-01T11:29:23.000Z</time>
      </trkpt>
      <trkpt lat="42.84246" lon="0.50681">
        <ele>1770</ele>
        <time>2020-02-01T11:29:24.000Z</time>
      </trkpt>
      <trkpt lat="42.84246" lon="0.50681">
        <ele>1770</ele>
        <time>2020-02-01T11:29:25.000Z</time>
      </trkpt>
      <trkpt lat="42.84245" lon="0.50681">
        <ele>1770</ele>
        <time>2020-02-01T11:29:26.000Z</time>
      </trkpt>
      <trkpt lat="42.84245" lon="0.50682">
        <ele>1770</ele>
        <time>2020-02-01T11:29:27.000Z</time>
      </trkpt>
      <trkpt lat="42.84245" lon="0.50682">
        <ele>1770</ele>
        <time>2020-02-01T11:29:28.000Z</time>
      </trkpt>
      <trkpt lat="42.84244" lon="0.50682">
        <ele>1770</ele>
        <time>2020-02-01T11:29:29.000Z</time>
      </trkpt>
      <trkpt lat="42.84244" lon="0.50682">
        <ele>1770</ele>
        <time>2020-02-01T11:29:30.000Z</time>
      </trkpt>
      <trkpt lat="42.84244" lon="0.50682">
        <ele>1770</ele>
        <time>2020-02-01T11:29:31.000Z</time>
      </trkpt>
      <trkpt lat="42.84243" lon="0.50683">
        <ele>1770</ele>
        <time>2020-02-01T11:29:32.000Z</time>
      </trkpt>
      <trkpt lat="42.84243" lon="0.50683">
        <ele>1770</ele>
        <time>2020-02-01T11:29:33.000Z</time>
      </trkpt>
      <trkpt lat="42.84242" lon="0.50683">
        <ele>1770</ele>
        <time>2020-02-01T11:29:34.000Z</time>
      </trkpt>
      <trkpt lat="42.84242" lon="0.50683">
        <ele>1770</ele>
        <time>2020-02-01T11:29:35.000Z</time>
      </trkpt>
      <trkpt lat="42.84242" lon="0.50684">
        <ele>1770.5</ele>
        <time>2020-02-01T11:29:36.000Z</time>
      </trkpt>
      <trkpt lat="42.84241" lon="0.50684">
        <ele>1771</ele>
        <time>2020-02-01T11:29:37.000Z</time>
      </trkpt>
      <trkpt lat="42.84241" lon="0.50684">
        <ele>1771</ele>
        <time>2020-02-01T11:29:38.000Z</time>
      </trkpt>
      <trkpt lat="42.84241" lon="0.50684">
        <ele>1771</ele>
        <time>2020-02-01T11:29:39.000Z</time>
      </trkpt>
      <trkpt lat="42.8424" lon="0.50684">
        <ele>1771</ele>
        <time>2020-02-01T11:29:40.000Z</time>
      </trkpt>
      <trkpt lat="42.8424" lon="0.50684">
        <ele>1771.3</ele>
        <time>2020-02-01T11:29:41.000Z</time>
      </trkpt>
      <trkpt lat="42.8424" lon="0.50684">
        <ele>1771.7</ele>
        <time>2020-02-01T11:29:42.000Z</time>
      </trkpt>
      <trkpt lat="42.8424" lon="0.50684">
        <ele>1772</ele>
        <time>2020-02-01T11:29:43.000Z</time>
      </trkpt>
      <trkpt lat="42.84239" lon="0.50685">
        <ele>1772</ele>
        <time>2020-02-01T11:29:44.000Z</time>
      </trkpt>
      <trkpt lat="42.84239" lon="0.50685">
        <ele>1772</ele>
        <time>2020-02-01T11:29:45.000Z</time>
      </trkpt>
      <trkpt lat="42.84239" lon="0.50685">
        <ele>1772</ele>
        <time>2020-02-01T11:29:46.000Z</time>
      </trkpt>
      <trkpt lat="42.84238" lon="0.50685">
        <ele>1772</ele>
        <time>2020-02-01T11:29:47.000Z</time>
      </trkpt>
      <trkpt lat="42.84238" lon="0.50686">
        <ele>1773</ele>
        <time>2020-02-01T11:29:48.000Z</time>
      </trkpt>
      <trkpt lat="42.84238" lon="0.50686">
        <ele>1773</ele>
        <time>2020-02-01T11:29:49.000Z</time>
      </trkpt>
      <trkpt lat="42.84237" lon="0.50686">
        <ele>1773</ele>
        <time>2020-02-01T11:29:50.000Z</time>
      </trkpt>
      <trkpt lat="42.84237" lon="0.50687">
        <ele>1773</ele>
        <time>2020-02-01T11:29:51.000Z</time>
      </trkpt>
      <trkpt lat="42.84237" lon="0.50687">
        <ele>1773</ele>
        <time>2020-02-01T11:29:52.000Z</time>
      </trkpt>
      <trkpt lat="42.84237" lon="0.50687">
        <ele>1773</ele>
        <time>2020-02-01T11:29:53.000Z</time>
      </trkpt>
      <trkpt lat="42.84237" lon="0.50687">
        <ele>1773</ele>
        <time>2020-02-01T11:29:54.000Z</time>
      </trkpt>
      <trkpt lat="42.84237" lon="0.50687">
        <ele>1773</ele>
        <time>2020-02-01T11:29:55.000Z</time>
      </trkpt>
      <trkpt lat="42.84237" lon="0.50687">
        <ele>1773</ele>
        <time>2020-02-01T11:29:56.000Z</time>
      </trkpt>
      <trkpt lat="42.84237" lon="0.50687">
        <ele>1773</ele>
        <time>2020-02-01T11:29:57.000Z</time>
      </trkpt>
      <trkpt lat="42.84237" lon="0.50687">
        <ele>1773</ele>
        <time>2020-02-01T11:29:58.000Z</time>
      </trkpt>
      <trkpt lat="42.84237" lon="0.50687">
        <ele>1773</ele>
        <time>2020-02-01T11:29:59.000Z</time>
      </trkpt>
      <trkpt lat="42.84236" lon="0.50687">
        <ele>1773</ele>
        <time>2020-02-01T11:30:00.000Z</time>
      </trkpt>
      <trkpt lat="42.84236" lon="0.50688">
        <ele>1773</ele>
        <time>2020-02-01T11:30:01.000Z</time>
      </trkpt>
      <trkpt lat="42.84235" lon="0.50688">
        <ele>1773</ele>
        <time>2020-02-01T11:30:02.000Z</time>
      </trkpt>
      <trkpt lat="42.84235" lon="0.50688">
        <ele>1773.5</ele>
        <time>2020-02-01T11:30:03.000Z</time>
      </trkpt>
      <trkpt lat="42.84234" lon="0.50689">
        <ele>1774</ele>
        <time>2020-02-01T11:30:04.000Z</time>
      </trkpt>
      <trkpt lat="42.84234" lon="0.50689">
        <ele>1774</ele>
        <time>2020-02-01T11:30:05.000Z</time>
      </trkpt>
      <trkpt lat="42.84233" lon="0.50689">
        <ele>1774</ele>
        <time>2020-02-01T11:30:06.000Z</time>
      </trkpt>
      <trkpt lat="42.84233" lon="0.50689">
        <ele>1774</ele>
        <time>2020-02-01T11:30:07.000Z</time>
      </trkpt>
      <trkpt lat="42.84233" lon="0.50689">
        <ele>1774</ele>
        <time>2020-02-01T11:30:08.000Z</time>
      </trkpt>
      <trkpt lat="42.84232" lon="0.5069">
        <ele>1774</ele>
        <time>2020-02-01T11:30:09.000Z</time>
      </trkpt>
      <trkpt lat="42.84232" lon="0.5069">
        <ele>1774.5</ele>
        <time>2020-02-01T11:30:10.000Z</time>
      </trkpt>
      <trkpt lat="42.84232" lon="0.5069">
        <ele>1775</ele>
        <time>2020-02-01T11:30:11.000Z</time>
      </trkpt>
      <trkpt lat="42.84232" lon="0.5069">
        <ele>1775</ele>
        <time>2020-02-01T11:30:12.000Z</time>
      </trkpt>
      <trkpt lat="42.84231" lon="0.5069">
        <ele>1775</ele>
        <time>2020-02-01T11:30:13.000Z</time>
      </trkpt>
      <trkpt lat="42.84231" lon="0.5069">
        <ele>1775</ele>
        <time>2020-02-01T11:30:14.000Z</time>
      </trkpt>
      <trkpt lat="42.84231" lon="0.5069">
        <ele>1775</ele>
        <time>2020-02-01T11:30:15.000Z</time>
      </trkpt>
      <trkpt lat="42.84231" lon="0.5069">
        <ele>1776</ele>
        <time>2020-02-01T11:30:16.000Z</time>
      </trkpt>
      <trkpt lat="42.84231" lon="0.5069">
        <ele>1776</ele>
        <time>2020-02-01T11:30:17.000Z</time>
      </trkpt>
      <trkpt lat="42.84231" lon="0.5069">
        <ele>1776</ele>
        <time>2020-02-01T11:30:18.000Z</time>
      </trkpt>
      <trkpt lat="42.84231" lon="0.5069">
        <ele>1776</ele>
        <time>2020-02-01T11:30:19.000Z</time>
      </trkpt>
      <trkpt lat="42.84231" lon="0.5069">
        <ele>1776</ele>
        <time>2020-02-01T11:30:20.000Z</time>
      </trkpt>
      <trkpt lat="42.84231" lon="0.5069">
        <ele>1776</ele>
        <time>2020-02-01T11:30:21.000Z</time>
      </trkpt>
      <trkpt lat="42.84231" lon="0.5069">
        <ele>1776</ele>
        <time>2020-02-01T11:30:22.000Z</time>
      </trkpt>
      <trkpt lat="42.84231" lon="0.5069">
        <ele>1776</ele>
        <time>2020-02-01T11:30:23.000Z</time>
      </trkpt>
      <trkpt lat="42.84231" lon="0.5069">
        <ele>1776</ele>
        <time>2020-02-01T11:30:24.000Z</time>
      </trkpt>
      <trkpt lat="42.84231" lon="0.5069">
        <ele>1776</ele>
        <time>2020-02-01T11:30:25.000Z</time>
      </trkpt>
      <trkpt lat="42.84231" lon="0.5069">
        <ele>1776</ele>
        <time>2020-02-01T11:30:26.000Z</time>
      </trkpt>
      <trkpt lat="42.84231" lon="0.5069">
        <ele>1776</ele>
        <time>2020-02-01T11:30:27.000Z</time>
      </trkpt>
      <trkpt lat="42.8423" lon="0.50691">
        <ele>1776</ele>
        <time>2020-02-01T11:30:28.000Z</time>
      </trkpt>
      <trkpt lat="42.8423" lon="0.50691">
        <ele>1776</ele>
        <time>2020-02-01T11:30:29.000Z</time>
      </trkpt>
      <trkpt lat="42.84229" lon="0.50692">
        <ele>1776</ele>
        <time>2020-02-01T11:30:30.000Z</time>
      </trkpt>
      <trkpt lat="42.84229" lon="0.50692">
        <ele>1776</ele>
        <time>2020-02-01T11:30:31.000Z</time>
      </trkpt>
      <trkpt lat="42.84228" lon="0.50693">
        <ele>1776</ele>
        <time>2020-02-01T11:30:32.000Z</time>
      </trkpt>
      <trkpt lat="42.84228" lon="0.50693">
        <ele>1776.5</ele>
        <time>2020-02-01T11:30:33.000Z</time>
      </trkpt>
      <trkpt lat="42.84228" lon="0.50694">
        <ele>1777</ele>
        <time>2020-02-01T11:30:34.000Z</time>
      </trkpt>
      <trkpt lat="42.84227" lon="0.50694">
        <ele>1777</ele>
        <time>2020-02-01T11:30:35.000Z</time>
      </trkpt>
      <trkpt lat="42.84227" lon="0.50695">
        <ele>1777</ele>
        <time>2020-02-01T11:30:36.000Z</time>
      </trkpt>
      <trkpt lat="42.84226" lon="0.50695">
        <ele>1777</ele>
        <time>2020-02-01T11:30:37.000Z</time>
      </trkpt>
      <trkpt lat="42.84226" lon="0.50695">
        <ele>1777</ele>
        <time>2020-02-01T11:30:38.000Z</time>
      </trkpt>
      <trkpt lat="42.84225" lon="0.50696">
        <ele>1777</ele>
        <time>2020-02-01T11:30:39.000Z</time>
      </trkpt>
      <trkpt lat="42.84225" lon="0.50696">
        <ele>1777.5</ele>
        <time>2020-02-01T11:30:40.000Z</time>
      </trkpt>
      <trkpt lat="42.84224" lon="0.50696">
        <ele>1778</ele>
        <time>2020-02-01T11:30:41.000Z</time>
      </trkpt>
      <trkpt lat="42.84224" lon="0.50696">
        <ele>1778</ele>
        <time>2020-02-01T11:30:42.000Z</time>
      </trkpt>
      <trkpt lat="42.84224" lon="0.50697">
        <ele>1778.5</ele>
        <time>2020-02-01T11:30:43.000Z</time>
      </trkpt>
      <trkpt lat="42.84224" lon="0.50697">
        <ele>1779</ele>
        <time>2020-02-01T11:30:44.000Z</time>
      </trkpt>
      <trkpt lat="42.84223" lon="0.50697">
        <ele>1779</ele>
        <time>2020-02-01T11:30:45.000Z</time>
      </trkpt>
      <trkpt lat="42.84223" lon="0.50697">
        <ele>1779</ele>
        <time>2020-02-01T11:30:46.000Z</time>
      </trkpt>
      <trkpt lat="42.84223" lon="0.50697">
        <ele>1779</ele>
        <time>2020-02-01T11:30:47.000Z</time>
      </trkpt>
      <trkpt lat="42.84223" lon="0.50698">
        <ele>1779</ele>
        <time>2020-02-01T11:30:48.000Z</time>
      </trkpt>
      <trkpt lat="42.84223" lon="0.50698">
        <ele>1779</ele>
        <time>2020-02-01T11:30:49.000Z</time>
      </trkpt>
      <trkpt lat="42.84223" lon="0.50698">
        <ele>1779</ele>
        <time>2020-02-01T11:30:50.000Z</time>
      </trkpt>
      <trkpt lat="42.84223" lon="0.50698">
        <ele>1779</ele>
        <time>2020-02-01T11:30:51.000Z</time>
      </trkpt>
      <trkpt lat="42.84223" lon="0.50698">
        <ele>1779</ele>
        <time>2020-02-01T11:30:52.000Z</time>
      </trkpt>
      <trkpt lat="42.84223" lon="0.50698">
        <ele>1779</ele>
        <time>2020-02-01T11:30:53.000Z</time>
      </trkpt>
      <trkpt lat="42.84223" lon="0.50698">
        <ele>1779</ele>
        <time>2020-02-01T11:30:54.000Z</time>
      </trkpt>
      <trkpt lat="42.84223" lon="0.50698">
        <ele>1779</ele>
        <time>2020-02-01T11:30:55.000Z</time>
      </trkpt>
      <trkpt lat="42.84222" lon="0.50699">
        <ele>1779</ele>
        <time>2020-02-01T11:30:56.000Z</time>
      </trkpt>
      <trkpt lat="42.84222" lon="0.507">
        <ele>1779</ele>
        <time>2020-02-01T11:30:57.000Z</time>
      </trkpt>
      <trkpt lat="42.84221" lon="0.507">
        <ele>1779</ele>
        <time>2020-02-01T11:30:58.000Z</time>
      </trkpt>
      <trkpt lat="42.8422" lon="0.50701">
        <ele>1779</ele>
        <time>2020-02-01T11:30:59.000Z</time>
      </trkpt>
      <trkpt lat="42.8422" lon="0.50701">
        <ele>1779</ele>
        <time>2020-02-01T11:31:00.000Z</time>
      </trkpt>
      <trkpt lat="42.84219" lon="0.50702">
        <ele>1779</ele>
        <time>2020-02-01T11:31:01.000Z</time>
      </trkpt>
      <trkpt lat="42.84219" lon="0.50702">
        <ele>1779.5</ele>
        <time>2020-02-01T11:31:02.000Z</time>
      </trkpt>
      <trkpt lat="42.84219" lon="0.50702">
        <ele>1780</ele>
        <time>2020-02-01T11:31:03.000Z</time>
      </trkpt>
      <trkpt lat="42.84219" lon="0.50702">
        <ele>1780</ele>
        <time>2020-02-01T11:31:04.000Z</time>
      </trkpt>
      <trkpt lat="42.84219" lon="0.50702">
        <ele>1780</ele>
        <time>2020-02-01T11:31:05.000Z</time>
      </trkpt>
      <trkpt lat="42.84219" lon="0.50702">
        <ele>1780</ele>
        <time>2020-02-01T11:31:06.000Z</time>
      </trkpt>
      <trkpt lat="42.84219" lon="0.50702">
        <ele>1780</ele>
        <time>2020-02-01T11:31:07.000Z</time>
      </trkpt>
      <trkpt lat="42.84218" lon="0.50702">
        <ele>1781</ele>
        <time>2020-02-01T11:31:08.000Z</time>
      </trkpt>
      <trkpt lat="42.84218" lon="0.50702">
        <ele>1781</ele>
        <time>2020-02-01T11:31:09.000Z</time>
      </trkpt>
      <trkpt lat="42.84218" lon="0.50703">
        <ele>1781</ele>
        <time>2020-02-01T11:31:10.000Z</time>
      </trkpt>
      <trkpt lat="42.84217" lon="0.50703">
        <ele>1781</ele>
        <time>2020-02-01T11:31:11.000Z</time>
      </trkpt>
      <trkpt lat="42.84217" lon="0.50703">
        <ele>1781</ele>
        <time>2020-02-01T11:31:12.000Z</time>
      </trkpt>
      <trkpt lat="42.84216" lon="0.50703">
        <ele>1781</ele>
        <time>2020-02-01T11:31:13.000Z</time>
      </trkpt>
      <trkpt lat="42.84216" lon="0.50703">
        <ele>1781</ele>
        <time>2020-02-01T11:31:14.000Z</time>
      </trkpt>
      <trkpt lat="42.84215" lon="0.50703">
        <ele>1781</ele>
        <time>2020-02-01T11:31:15.000Z</time>
      </trkpt>
      <trkpt lat="42.84215" lon="0.50703">
        <ele>1782</ele>
        <time>2020-02-01T11:31:16.000Z</time>
      </trkpt>
      <trkpt lat="42.84214" lon="0.50704">
        <ele>1782</ele>
        <time>2020-02-01T11:31:17.000Z</time>
      </trkpt>
      <trkpt lat="42.84214" lon="0.50704">
        <ele>1782</ele>
        <time>2020-02-01T11:31:18.000Z</time>
      </trkpt>
      <trkpt lat="42.84214" lon="0.50704">
        <ele>1782</ele>
        <time>2020-02-01T11:31:19.000Z</time>
      </trkpt>
      <trkpt lat="42.84213" lon="0.50704">
        <ele>1783</ele>
        <time>2020-02-01T11:31:20.000Z</time>
      </trkpt>
      <trkpt lat="42.84213" lon="0.50704">
        <ele>1783</ele>
        <time>2020-02-01T11:31:21.000Z</time>
      </trkpt>
      <trkpt lat="42.84213" lon="0.50704">
        <ele>1783</ele>
        <time>2020-02-01T11:31:22.000Z</time>
      </trkpt>
      <trkpt lat="42.84213" lon="0.50704">
        <ele>1783</ele>
        <time>2020-02-01T11:31:23.000Z</time>
      </trkpt>
      <trkpt lat="42.84213" lon="0.50704">
        <ele>1783</ele>
        <time>2020-02-01T11:31:24.000Z</time>
      </trkpt>
      <trkpt lat="42.84213" lon="0.50704">
        <ele>1783</ele>
        <time>2020-02-01T11:31:25.000Z</time>
      </trkpt>
      <trkpt lat="42.84213" lon="0.50704">
        <ele>1783</ele>
        <time>2020-02-01T11:31:26.000Z</time>
      </trkpt>
      <trkpt lat="42.84213" lon="0.50704">
        <ele>1783</ele>
        <time>2020-02-01T11:31:27.000Z</time>
      </trkpt>
      <trkpt lat="42.84213" lon="0.50704">
        <ele>1783</ele>
        <time>2020-02-01T11:31:28.000Z</time>
      </trkpt>
      <trkpt lat="42.84213" lon="0.50704">
        <ele>1783</ele>
        <time>2020-02-01T11:31:29.000Z</time>
      </trkpt>
      <trkpt lat="42.84213" lon="0.50704">
        <ele>1783</ele>
        <time>2020-02-01T11:31:30.000Z</time>
      </trkpt>
      <trkpt lat="42.84213" lon="0.50704">
        <ele>1783</ele>
        <time>2020-02-01T11:31:31.000Z</time>
      </trkpt>
      <trkpt lat="42.84212" lon="0.50705">
        <ele>1783</ele>
        <time>2020-02-01T11:31:32.000Z</time>
      </trkpt>
      <trkpt lat="42.84212" lon="0.50705">
        <ele>1783</ele>
        <time>2020-02-01T11:31:33.000Z</time>
      </trkpt>
      <trkpt lat="42.84212" lon="0.50705">
        <ele>1783</ele>
        <time>2020-02-01T11:31:34.000Z</time>
      </trkpt>
      <trkpt lat="42.84212" lon="0.50705">
        <ele>1783</ele>
        <time>2020-02-01T11:31:35.000Z</time>
      </trkpt>
      <trkpt lat="42.84211" lon="0.50705">
        <ele>1783</ele>
        <time>2020-02-01T11:31:36.000Z</time>
      </trkpt>
      <trkpt lat="42.84211" lon="0.50705">
        <ele>1783.3</ele>
        <time>2020-02-01T11:31:37.000Z</time>
      </trkpt>
      <trkpt lat="42.84211" lon="0.50705">
        <ele>1783.7</ele>
        <time>2020-02-01T11:31:38.000Z</time>
      </trkpt>
      <trkpt lat="42.84211" lon="0.50705">
        <ele>1784</ele>
        <time>2020-02-01T11:31:39.000Z</time>
      </trkpt>
      <trkpt lat="42.84211" lon="0.50705">
        <ele>1784</ele>
        <time>2020-02-01T11:31:40.000Z</time>
      </trkpt>
      <trkpt lat="42.84211" lon="0.50705">
        <ele>1784</ele>
        <time>2020-02-01T11:31:41.000Z</time>
      </trkpt>
      <trkpt lat="42.84211" lon="0.50706">
        <ele>1784</ele>
        <time>2020-02-01T11:31:42.000Z</time>
      </trkpt>
      <trkpt lat="42.84211" lon="0.50706">
        <ele>1784</ele>
        <time>2020-02-01T11:31:43.000Z</time>
      </trkpt>
      <trkpt lat="42.8421" lon="0.50706">
        <ele>1785</ele>
        <time>2020-02-01T11:31:44.000Z</time>
      </trkpt>
      <trkpt lat="42.84209" lon="0.50707">
        <ele>1785</ele>
        <time>2020-02-01T11:31:45.000Z</time>
      </trkpt>
      <trkpt lat="42.84208" lon="0.50707">
        <ele>1785</ele>
        <time>2020-02-01T11:31:46.000Z</time>
      </trkpt>
      <trkpt lat="42.84208" lon="0.50707">
        <ele>1785</ele>
        <time>2020-02-01T11:31:47.000Z</time>
      </trkpt>
      <trkpt lat="42.84208" lon="0.50708">
        <ele>1785</ele>
        <time>2020-02-01T11:31:48.000Z</time>
      </trkpt>
      <trkpt lat="42.84208" lon="0.50708">
        <ele>1785</ele>
        <time>2020-02-01T11:31:49.000Z</time>
      </trkpt>
      <trkpt lat="42.84207" lon="0.50708">
        <ele>1785</ele>
        <time>2020-02-01T11:31:50.000Z</time>
      </trkpt>
      <trkpt lat="42.84207" lon="0.50709">
        <ele>1785</ele>
        <time>2020-02-01T11:31:51.000Z</time>
      </trkpt>
      <trkpt lat="42.84207" lon="0.50709">
        <ele>1785</ele>
        <time>2020-02-01T11:31:52.000Z</time>
      </trkpt>
      <trkpt lat="42.84206" lon="0.50709">
        <ele>1785.3</ele>
        <time>2020-02-01T11:31:53.000Z</time>
      </trkpt>
      <trkpt lat="42.84206" lon="0.5071">
        <ele>1785.7</ele>
        <time>2020-02-01T11:31:54.000Z</time>
      </trkpt>
      <trkpt lat="42.84206" lon="0.5071">
        <ele>1786</ele>
        <time>2020-02-01T11:31:55.000Z</time>
      </trkpt>
      <trkpt lat="42.84205" lon="0.5071">
        <ele>1786</ele>
        <time>2020-02-01T11:31:56.000Z</time>
      </trkpt>
      <trkpt lat="42.84205" lon="0.5071">
        <ele>1786</ele>
        <time>2020-02-01T11:31:57.000Z</time>
      </trkpt>
      <trkpt lat="42.84204" lon="0.50711">
        <ele>1786.5</ele>
        <time>2020-02-01T11:31:58.000Z</time>
      </trkpt>
      <trkpt lat="42.84204" lon="0.50711">
        <ele>1787</ele>
        <time>2020-02-01T11:31:59.000Z</time>
      </trkpt>
      <trkpt lat="42.84204" lon="0.50711">
        <ele>1787</ele>
        <time>2020-02-01T11:32:00.000Z</time>
      </trkpt>
      <trkpt lat="42.84204" lon="0.50711">
        <ele>1787</ele>
        <time>2020-02-01T11:32:01.000Z</time>
      </trkpt>
      <trkpt lat="42.84204" lon="0.50711">
        <ele>1787</ele>
        <time>2020-02-01T11:32:02.000Z</time>
      </trkpt>
      <trkpt lat="42.84204" lon="0.50711">
        <ele>1787.5</ele>
        <time>2020-02-01T11:32:03.000Z</time>
      </trkpt>
      <trkpt lat="42.84204" lon="0.50711">
        <ele>1788</ele>
        <time>2020-02-01T11:32:04.000Z</time>
      </trkpt>
      <trkpt lat="42.84204" lon="0.50711">
        <ele>1788</ele>
        <time>2020-02-01T11:32:05.000Z</time>
      </trkpt>
      <trkpt lat="42.84204" lon="0.50711">
        <ele>1788</ele>
        <time>2020-02-01T11:32:06.000Z</time>
      </trkpt>
      <trkpt lat="42.84204" lon="0.50711">
        <ele>1788</ele>
        <time>2020-02-01T11:32:07.000Z</time>
      </trkpt>
      <trkpt lat="42.84204" lon="0.50711">
        <ele>1788</ele>
        <time>2020-02-01T11:32:08.000Z</time>
      </trkpt>
      <trkpt lat="42.84204" lon="0.50711">
        <ele>1788</ele>
        <time>2020-02-01T11:32:09.000Z</time>
      </trkpt>
      <trkpt lat="42.84204" lon="0.50711">
        <ele>1788</ele>
        <time>2020-02-01T11:32:10.000Z</time>
      </trkpt>
      <trkpt lat="42.84204" lon="0.50711">
        <ele>1788</ele>
        <time>2020-02-01T11:32:11.000Z</time>
      </trkpt>
      <trkpt lat="42.84204" lon="0.50711">
        <ele>1788</ele>
        <time>2020-02-01T11:32:12.000Z</time>
      </trkpt>
      <trkpt lat="42.84204" lon="0.50711">
        <ele>1788</ele>
        <time>2020-02-01T11:32:13.000Z</time>
      </trkpt>
      <trkpt lat="42.84204" lon="0.50711">
        <ele>1788</ele>
        <time>2020-02-01T11:32:14.000Z</time>
      </trkpt>
      <trkpt lat="42.84204" lon="0.50711">
        <ele>1788</ele>
        <time>2020-02-01T11:32:15.000Z</time>
      </trkpt>
      <trkpt lat="42.84204" lon="0.50711">
        <ele>1788</ele>
        <time>2020-02-01T11:32:16.000Z</time>
      </trkpt>
      <trkpt lat="42.84203" lon="0.50711">
        <ele>1788</ele>
        <time>2020-02-01T11:32:17.000Z</time>
      </trkpt>
      <trkpt lat="42.84203" lon="0.50711">
        <ele>1788</ele>
        <time>2020-02-01T11:32:18.000Z</time>
      </trkpt>
      <trkpt lat="42.84203" lon="0.50711">
        <ele>1788</ele>
        <time>2020-02-01T11:32:19.000Z</time>
      </trkpt>
      <trkpt lat="42.84203" lon="0.50711">
        <ele>1788</ele>
        <time>2020-02-01T11:32:20.000Z</time>
      </trkpt>
      <trkpt lat="42.84203" lon="0.50711">
        <ele>1788</ele>
        <time>2020-02-01T11:32:21.000Z</time>
      </trkpt>
      <trkpt lat="42.84202" lon="0.50712">
        <ele>1788</ele>
        <time>2020-02-01T11:32:22.000Z</time>
      </trkpt>
      <trkpt lat="42.84202" lon="0.50712">
        <ele>1788</ele>
        <time>2020-02-01T11:32:23.000Z</time>
      </trkpt>
      <trkpt lat="42.84201" lon="0.50712">
        <ele>1789</ele>
        <time>2020-02-01T11:32:24.000Z</time>
      </trkpt>
      <trkpt lat="42.842" lon="0.50713">
        <ele>1789</ele>
        <time>2020-02-01T11:32:25.000Z</time>
      </trkpt>
      <trkpt lat="42.84199" lon="0.50713">
        <ele>1789</ele>
        <time>2020-02-01T11:32:26.000Z</time>
      </trkpt>
      <trkpt lat="42.84199" lon="0.50714">
        <ele>1789</ele>
        <time>2020-02-01T11:32:27.000Z</time>
      </trkpt>
      <trkpt lat="42.84198" lon="0.50714">
        <ele>1789.5</ele>
        <time>2020-02-01T11:32:28.000Z</time>
      </trkpt>
      <trkpt lat="42.84198" lon="0.50714">
        <ele>1790</ele>
        <time>2020-02-01T11:32:29.000Z</time>
      </trkpt>
      <trkpt lat="42.84197" lon="0.50714">
        <ele>1790</ele>
        <time>2020-02-01T11:32:30.000Z</time>
      </trkpt>
      <trkpt lat="42.84197" lon="0.50714">
        <ele>1790</ele>
        <time>2020-02-01T11:32:31.000Z</time>
      </trkpt>
      <trkpt lat="42.84197" lon="0.50714">
        <ele>1790</ele>
        <time>2020-02-01T11:32:32.000Z</time>
      </trkpt>
      <trkpt lat="42.84197" lon="0.50714">
        <ele>1790</ele>
        <time>2020-02-01T11:32:33.000Z</time>
      </trkpt>
      <trkpt lat="42.84197" lon="0.50714">
        <ele>1790</ele>
        <time>2020-02-01T11:32:34.000Z</time>
      </trkpt>
      <trkpt lat="42.84197" lon="0.50714">
        <ele>1790</ele>
        <time>2020-02-01T11:32:35.000Z</time>
      </trkpt>
      <trkpt lat="42.84197" lon="0.50714">
        <ele>1791</ele>
        <time>2020-02-01T11:32:36.000Z</time>
      </trkpt>
      <trkpt lat="42.84197" lon="0.50714">
        <ele>1791</ele>
        <time>2020-02-01T11:32:37.000Z</time>
      </trkpt>
      <trkpt lat="42.84197" lon="0.50714">
        <ele>1791</ele>
        <time>2020-02-01T11:32:38.000Z</time>
      </trkpt>
      <trkpt lat="42.84197" lon="0.50714">
        <ele>1791</ele>
        <time>2020-02-01T11:32:39.000Z</time>
      </trkpt>
      <trkpt lat="42.84197" lon="0.50714">
        <ele>1791</ele>
        <time>2020-02-01T11:32:40.000Z</time>
      </trkpt>
      <trkpt lat="42.84197" lon="0.50714">
        <ele>1791</ele>
        <time>2020-02-01T11:32:41.000Z</time>
      </trkpt>
      <trkpt lat="42.84197" lon="0.50714">
        <ele>1791</ele>
        <time>2020-02-01T11:32:42.000Z</time>
      </trkpt>
      <trkpt lat="42.84197" lon="0.50714">
        <ele>1791</ele>
        <time>2020-02-01T11:32:43.000Z</time>
      </trkpt>
      <trkpt lat="42.84197" lon="0.50714">
        <ele>1791</ele>
        <time>2020-02-01T11:32:44.000Z</time>
      </trkpt>
      <trkpt lat="42.84197" lon="0.50714">
        <ele>1791</ele>
        <time>2020-02-01T11:32:45.000Z</time>
      </trkpt>
      <trkpt lat="42.84197" lon="0.50714">
        <ele>1791</ele>
        <time>2020-02-01T11:32:46.000Z</time>
      </trkpt>
      <trkpt lat="42.84197" lon="0.50714">
        <ele>1791</ele>
        <time>2020-02-01T11:32:47.000Z</time>
      </trkpt>
      <trkpt lat="42.84197" lon="0.50714">
        <ele>1791</ele>
        <time>2020-02-01T11:32:48.000Z</time>
      </trkpt>
      <trkpt lat="42.84197" lon="0.50714">
        <ele>1791</ele>
        <time>2020-02-01T11:32:49.000Z</time>
      </trkpt>
      <trkpt lat="42.84197" lon="0.50714">
        <ele>1791</ele>
        <time>2020-02-01T11:32:50.000Z</time>
      </trkpt>
      <trkpt lat="42.84197" lon="0.50714">
        <ele>1791</ele>
        <time>2020-02-01T11:32:51.000Z</time>
      </trkpt>
      <trkpt lat="42.84197" lon="0.50714">
        <ele>1791</ele>
        <time>2020-02-01T11:32:52.000Z</time>
      </trkpt>
      <trkpt lat="42.84197" lon="0.50714">
        <ele>1791</ele>
        <time>2020-02-01T11:32:53.000Z</time>
      </trkpt>
      <trkpt lat="42.84197" lon="0.50714">
        <ele>1791</ele>
        <time>2020-02-01T11:32:54.000Z</time>
      </trkpt>
      <trkpt lat="42.84197" lon="0.50714">
        <ele>1791</ele>
        <time>2020-02-01T11:32:55.000Z</time>
      </trkpt>
      <trkpt lat="42.84196" lon="0.50713">
        <ele>1791</ele>
        <time>2020-02-01T11:32:56.000Z</time>
      </trkpt>
      <trkpt lat="42.84196" lon="0.50713">
        <ele>1791</ele>
        <time>2020-02-01T11:32:57.000Z</time>
      </trkpt>
      <trkpt lat="42.84195" lon="0.50713">
        <ele>1791</ele>
        <time>2020-02-01T11:32:58.000Z</time>
      </trkpt>
      <trkpt lat="42.84195" lon="0.50713">
        <ele>1791</ele>
        <time>2020-02-01T11:32:59.000Z</time>
      </trkpt>
      <trkpt lat="42.84195" lon="0.50712">
        <ele>1791</ele>
        <time>2020-02-01T11:33:00.000Z</time>
      </trkpt>
      <trkpt lat="42.84194" lon="0.50712">
        <ele>1791.3</ele>
        <time>2020-02-01T11:33:01.000Z</time>
      </trkpt>
      <trkpt lat="42.84194" lon="0.50712">
        <ele>1791.7</ele>
        <time>2020-02-01T11:33:02.000Z</time>
      </trkpt>
      <trkpt lat="42.84193" lon="0.50711">
        <ele>1792</ele>
        <time>2020-02-01T11:33:03.000Z</time>
      </trkpt>
      <trkpt lat="42.84193" lon="0.50711">
        <ele>1792</ele>
        <time>2020-02-01T11:33:04.000Z</time>
      </trkpt>
      <trkpt lat="42.84192" lon="0.50711">
        <ele>1792</ele>
        <time>2020-02-01T11:33:05.000Z</time>
      </trkpt>
      <trkpt lat="42.84192" lon="0.5071">
        <ele>1792</ele>
        <time>2020-02-01T11:33:06.000Z</time>
      </trkpt>
      <trkpt lat="42.84191" lon="0.5071">
        <ele>1792.3</ele>
        <time>2020-02-01T11:33:07.000Z</time>
      </trkpt>
      <trkpt lat="42.8419" lon="0.5071">
        <ele>1792.7</ele>
        <time>2020-02-01T11:33:08.000Z</time>
      </trkpt>
      <trkpt lat="42.8419" lon="0.50709">
        <ele>1793</ele>
        <time>2020-02-01T11:33:09.000Z</time>
      </trkpt>
      <trkpt lat="42.84189" lon="0.50709">
        <ele>1793</ele>
        <time>2020-02-01T11:33:10.000Z</time>
      </trkpt>
      <trkpt lat="42.84189" lon="0.50709">
        <ele>1793</ele>
        <time>2020-02-01T11:33:11.000Z</time>
      </trkpt>
      <trkpt lat="42.84188" lon="0.50708">
        <ele>1793</ele>
        <time>2020-02-01T11:33:12.000Z</time>
      </trkpt>
      <trkpt lat="42.84188" lon="0.50708">
        <ele>1793.3</ele>
        <time>2020-02-01T11:33:13.000Z</time>
      </trkpt>
      <trkpt lat="42.84187" lon="0.50708">
        <ele>1793.7</ele>
        <time>2020-02-01T11:33:14.000Z</time>
      </trkpt>
      <trkpt lat="42.84187" lon="0.50707">
        <ele>1794</ele>
        <time>2020-02-01T11:33:15.000Z</time>
      </trkpt>
      <trkpt lat="42.84186" lon="0.50707">
        <ele>1794</ele>
        <time>2020-02-01T11:33:16.000Z</time>
      </trkpt>
      <trkpt lat="42.84186" lon="0.50707">
        <ele>1794</ele>
        <time>2020-02-01T11:33:17.000Z</time>
      </trkpt>
      <trkpt lat="42.84185" lon="0.50706">
        <ele>1794</ele>
        <time>2020-02-01T11:33:18.000Z</time>
      </trkpt>
      <trkpt lat="42.84185" lon="0.50706">
        <ele>1794</ele>
        <time>2020-02-01T11:33:19.000Z</time>
      </trkpt>
      <trkpt lat="42.84184" lon="0.50706">
        <ele>1794</ele>
        <time>2020-02-01T11:33:20.000Z</time>
      </trkpt>
      <trkpt lat="42.84184" lon="0.50706">
        <ele>1794</ele>
        <time>2020-02-01T11:33:21.000Z</time>
      </trkpt>
      <trkpt lat="42.84184" lon="0.50705">
        <ele>1795</ele>
        <time>2020-02-01T11:33:22.000Z</time>
      </trkpt>
      <trkpt lat="42.84183" lon="0.50705">
        <ele>1795</ele>
        <time>2020-02-01T11:33:23.000Z</time>
      </trkpt>
      <trkpt lat="42.84183" lon="0.50705">
        <ele>1795</ele>
        <time>2020-02-01T11:33:24.000Z</time>
      </trkpt>
      <trkpt lat="42.84183" lon="0.50705">
        <ele>1795</ele>
        <time>2020-02-01T11:33:25.000Z</time>
      </trkpt>
      <trkpt lat="42.84183" lon="0.50705">
        <ele>1795</ele>
        <time>2020-02-01T11:33:26.000Z</time>
      </trkpt>
      <trkpt lat="42.84183" lon="0.50705">
        <ele>1795</ele>
        <time>2020-02-01T11:33:27.000Z</time>
      </trkpt>
      <trkpt lat="42.84183" lon="0.50705">
        <ele>1795</ele>
        <time>2020-02-01T11:33:28.000Z</time>
      </trkpt>
      <trkpt lat="42.84183" lon="0.50705">
        <ele>1795</ele>
        <time>2020-02-01T11:33:29.000Z</time>
      </trkpt>
      <trkpt lat="42.84183" lon="0.50705">
        <ele>1795</ele>
        <time>2020-02-01T11:33:30.000Z</time>
      </trkpt>
      <trkpt lat="42.84183" lon="0.50705">
        <ele>1795</ele>
        <time>2020-02-01T11:33:31.000Z</time>
      </trkpt>
      <trkpt lat="42.84183" lon="0.50706">
        <ele>1795</ele>
        <time>2020-02-01T11:33:32.000Z</time>
      </trkpt>
      <trkpt lat="42.84183" lon="0.50706">
        <ele>1795</ele>
        <time>2020-02-01T11:33:33.000Z</time>
      </trkpt>
      <trkpt lat="42.84182" lon="0.50706">
        <ele>1795</ele>
        <time>2020-02-01T11:33:34.000Z</time>
      </trkpt>
      <trkpt lat="42.84182" lon="0.50706">
        <ele>1795</ele>
        <time>2020-02-01T11:33:35.000Z</time>
      </trkpt>
      <trkpt lat="42.84182" lon="0.50706">
        <ele>1795</ele>
        <time>2020-02-01T11:33:36.000Z</time>
      </trkpt>
      <trkpt lat="42.84181" lon="0.50706">
        <ele>1795.3</ele>
        <time>2020-02-01T11:33:37.000Z</time>
      </trkpt>
      <trkpt lat="42.8418" lon="0.50706">
        <ele>1795.7</ele>
        <time>2020-02-01T11:33:38.000Z</time>
      </trkpt>
      <trkpt lat="42.8418" lon="0.50706">
        <ele>1796</ele>
        <time>2020-02-01T11:33:39.000Z</time>
      </trkpt>
      <trkpt lat="42.84179" lon="0.50706">
        <ele>1796</ele>
        <time>2020-02-01T11:33:40.000Z</time>
      </trkpt>
      <trkpt lat="42.84178" lon="0.50706">
        <ele>1796</ele>
        <time>2020-02-01T11:33:41.000Z</time>
      </trkpt>
      <trkpt lat="42.84178" lon="0.50705">
        <ele>1796</ele>
        <time>2020-02-01T11:33:42.000Z</time>
      </trkpt>
      <trkpt lat="42.84177" lon="0.50705">
        <ele>1796</ele>
        <time>2020-02-01T11:33:43.000Z</time>
      </trkpt>
      <trkpt lat="42.84177" lon="0.50705">
        <ele>1796</ele>
        <time>2020-02-01T11:33:44.000Z</time>
      </trkpt>
      <trkpt lat="42.84177" lon="0.50705">
        <ele>1796</ele>
        <time>2020-02-01T11:33:45.000Z</time>
      </trkpt>
      <trkpt lat="42.84176" lon="0.50704">
        <ele>1797</ele>
        <time>2020-02-01T11:33:46.000Z</time>
      </trkpt>
      <trkpt lat="42.84176" lon="0.50704">
        <ele>1797</ele>
        <time>2020-02-01T11:33:47.000Z</time>
      </trkpt>
      <trkpt lat="42.84176" lon="0.50704">
        <ele>1797</ele>
        <time>2020-02-01T11:33:48.000Z</time>
      </trkpt>
      <trkpt lat="42.84175" lon="0.50703">
        <ele>1797</ele>
        <time>2020-02-01T11:33:49.000Z</time>
      </trkpt>
      <trkpt lat="42.84175" lon="0.50703">
        <ele>1797</ele>
        <time>2020-02-01T11:33:50.000Z</time>
      </trkpt>
      <trkpt lat="42.84175" lon="0.50702">
        <ele>1797</ele>
        <time>2020-02-01T11:33:51.000Z</time>
      </trkpt>
      <trkpt lat="42.84174" lon="0.50702">
        <ele>1798</ele>
        <time>2020-02-01T11:33:52.000Z</time>
      </trkpt>
      <trkpt lat="42.84174" lon="0.50702">
        <ele>1798</ele>
        <time>2020-02-01T11:33:53.000Z</time>
      </trkpt>
      <trkpt lat="42.84173" lon="0.50702">
        <ele>1798</ele>
        <time>2020-02-01T11:33:54.000Z</time>
      </trkpt>
      <trkpt lat="42.84172" lon="0.50701">
        <ele>1798</ele>
        <time>2020-02-01T11:33:55.000Z</time>
      </trkpt>
      <trkpt lat="42.84172" lon="0.50701">
        <ele>1798</ele>
        <time>2020-02-01T11:33:56.000Z</time>
      </trkpt>
      <trkpt lat="42.84171" lon="0.50701">
        <ele>1798</ele>
        <time>2020-02-01T11:33:57.000Z</time>
      </trkpt>
      <trkpt lat="42.84171" lon="0.50701">
        <ele>1798</ele>
        <time>2020-02-01T11:33:58.000Z</time>
      </trkpt>
      <trkpt lat="42.8417" lon="0.50701">
        <ele>1798.3</ele>
        <time>2020-02-01T11:33:59.000Z</time>
      </trkpt>
      <trkpt lat="42.8417" lon="0.50702">
        <ele>1798.7</ele>
        <time>2020-02-01T11:34:00.000Z</time>
      </trkpt>
      <trkpt lat="42.8417" lon="0.50702">
        <ele>1799</ele>
        <time>2020-02-01T11:34:01.000Z</time>
      </trkpt>
      <trkpt lat="42.8417" lon="0.50702">
        <ele>1799</ele>
        <time>2020-02-01T11:34:02.000Z</time>
      </trkpt>
      <trkpt lat="42.8417" lon="0.50702">
        <ele>1799</ele>
        <time>2020-02-01T11:34:03.000Z</time>
      </trkpt>
      <trkpt lat="42.8417" lon="0.50702">
        <ele>1799</ele>
        <time>2020-02-01T11:34:04.000Z</time>
      </trkpt>
      <trkpt lat="42.8417" lon="0.50702">
        <ele>1799</ele>
        <time>2020-02-01T11:34:05.000Z</time>
      </trkpt>
      <trkpt lat="42.8417" lon="0.50702">
        <ele>1799</ele>
        <time>2020-02-01T11:34:06.000Z</time>
      </trkpt>
      <trkpt lat="42.8417" lon="0.50702">
        <ele>1799</ele>
        <time>2020-02-01T11:34:07.000Z</time>
      </trkpt>
      <trkpt lat="42.8417" lon="0.50702">
        <ele>1799</ele>
        <time>2020-02-01T11:34:08.000Z</time>
      </trkpt>
      <trkpt lat="42.8417" lon="0.50702">
        <ele>1799</ele>
        <time>2020-02-01T11:34:09.000Z</time>
      </trkpt>
      <trkpt lat="42.8417" lon="0.50702">
        <ele>1799</ele>
        <time>2020-02-01T11:34:10.000Z</time>
      </trkpt>
      <trkpt lat="42.8417" lon="0.50702">
        <ele>1799</ele>
        <time>2020-02-01T11:34:11.000Z</time>
      </trkpt>
      <trkpt lat="42.8417" lon="0.50702">
        <ele>1799</ele>
        <time>2020-02-01T11:34:12.000Z</time>
      </trkpt>
      <trkpt lat="42.8417" lon="0.50702">
        <ele>1799</ele>
        <time>2020-02-01T11:34:13.000Z</time>
      </trkpt>
      <trkpt lat="42.84169" lon="0.50702">
        <ele>1799</ele>
        <time>2020-02-01T11:34:14.000Z</time>
      </trkpt>
      <trkpt lat="42.84169" lon="0.50702">
        <ele>1799</ele>
        <time>2020-02-01T11:34:15.000Z</time>
      </trkpt>
      <trkpt lat="42.84168" lon="0.50702">
        <ele>1799</ele>
        <time>2020-02-01T11:34:16.000Z</time>
      </trkpt>
      <trkpt lat="42.84168" lon="0.50702">
        <ele>1799</ele>
        <time>2020-02-01T11:34:17.000Z</time>
      </trkpt>
      <trkpt lat="42.84167" lon="0.50702">
        <ele>1799</ele>
        <time>2020-02-01T11:34:18.000Z</time>
      </trkpt>
      <trkpt lat="42.84167" lon="0.50702">
        <ele>1799</ele>
        <time>2020-02-01T11:34:19.000Z</time>
      </trkpt>
      <trkpt lat="42.84166" lon="0.50702">
        <ele>1800</ele>
        <time>2020-02-01T11:34:20.000Z</time>
      </trkpt>
      <trkpt lat="42.84165" lon="0.50701">
        <ele>1800</ele>
        <time>2020-02-01T11:34:21.000Z</time>
      </trkpt>
      <trkpt lat="42.84165" lon="0.50701">
        <ele>1800</ele>
        <time>2020-02-01T11:34:22.000Z</time>
      </trkpt>
      <trkpt lat="42.84164" lon="0.50701">
        <ele>1800</ele>
        <time>2020-02-01T11:34:23.000Z</time>
      </trkpt>
      <trkpt lat="42.84164" lon="0.50701">
        <ele>1800</ele>
        <time>2020-02-01T11:34:24.000Z</time>
      </trkpt>
      <trkpt lat="42.84163" lon="0.50701">
        <ele>1800.5</ele>
        <time>2020-02-01T11:34:25.000Z</time>
      </trkpt>
      <trkpt lat="42.84163" lon="0.50701">
        <ele>1801</ele>
        <time>2020-02-01T11:34:26.000Z</time>
      </trkpt>
      <trkpt lat="42.84162" lon="0.50701">
        <ele>1801</ele>
        <time>2020-02-01T11:34:27.000Z</time>
      </trkpt>
      <trkpt lat="42.84162" lon="0.507">
        <ele>1801</ele>
        <time>2020-02-01T11:34:28.000Z</time>
      </trkpt>
      <trkpt lat="42.84162" lon="0.507">
        <ele>1801</ele>
        <time>2020-02-01T11:34:29.000Z</time>
      </trkpt>
      <trkpt lat="42.84162" lon="0.507">
        <ele>1801</ele>
        <time>2020-02-01T11:34:30.000Z</time>
      </trkpt>
      <trkpt lat="42.84161" lon="0.507">
        <ele>1801</ele>
        <time>2020-02-01T11:34:31.000Z</time>
      </trkpt>
      <trkpt lat="42.84161" lon="0.507">
        <ele>1802</ele>
        <time>2020-02-01T11:34:32.000Z</time>
      </trkpt>
      <trkpt lat="42.84161" lon="0.507">
        <ele>1802</ele>
        <time>2020-02-01T11:34:33.000Z</time>
      </trkpt>
      <trkpt lat="42.84161" lon="0.507">
        <ele>1802</ele>
        <time>2020-02-01T11:34:34.000Z</time>
      </trkpt>
      <trkpt lat="42.84161" lon="0.507">
        <ele>1802</ele>
        <time>2020-02-01T11:34:35.000Z</time>
      </trkpt>
      <trkpt lat="42.84161" lon="0.507">
        <ele>1802</ele>
        <time>2020-02-01T11:34:36.000Z</time>
      </trkpt>
      <trkpt lat="42.84161" lon="0.507">
        <ele>1802</ele>
        <time>2020-02-01T11:34:37.000Z</time>
      </trkpt>
      <trkpt lat="42.84161" lon="0.507">
        <ele>1802</ele>
        <time>2020-02-01T11:34:38.000Z</time>
      </trkpt>
      <trkpt lat="42.84161" lon="0.507">
        <ele>1802</ele>
        <time>2020-02-01T11:34:39.000Z</time>
      </trkpt>
      <trkpt lat="42.84161" lon="0.507">
        <ele>1802</ele>
        <time>2020-02-01T11:34:40.000Z</time>
      </trkpt>
      <trkpt lat="42.84161" lon="0.507">
        <ele>1802</ele>
        <time>2020-02-01T11:34:41.000Z</time>
      </trkpt>
      <trkpt lat="42.84161" lon="0.507">
        <ele>1802</ele>
        <time>2020-02-01T11:34:42.000Z</time>
      </trkpt>
      <trkpt lat="42.8416" lon="0.507">
        <ele>1802</ele>
        <time>2020-02-01T11:34:43.000Z</time>
      </trkpt>
      <trkpt lat="42.8416" lon="0.507">
        <ele>1802</ele>
        <time>2020-02-01T11:34:44.000Z</time>
      </trkpt>
      <trkpt lat="42.84159" lon="0.50699">
        <ele>1802</ele>
        <time>2020-02-01T11:34:45.000Z</time>
      </trkpt>
      <trkpt lat="42.84159" lon="0.50699">
        <ele>1802</ele>
        <time>2020-02-01T11:34:46.000Z</time>
      </trkpt>
      <trkpt lat="42.84158" lon="0.50699">
        <ele>1802.5</ele>
        <time>2020-02-01T11:34:47.000Z</time>
      </trkpt>
      <trkpt lat="42.84157" lon="0.50699">
        <ele>1803</ele>
        <time>2020-02-01T11:34:48.000Z</time>
      </trkpt>
      <trkpt lat="42.84156" lon="0.50699">
        <ele>1803</ele>
        <time>2020-02-01T11:34:49.000Z</time>
      </trkpt>
      <trkpt lat="42.84156" lon="0.50699">
        <ele>1803</ele>
        <time>2020-02-01T11:34:50.000Z</time>
      </trkpt>
      <trkpt lat="42.84156" lon="0.50699">
        <ele>1803</ele>
        <time>2020-02-01T11:34:51.000Z</time>
      </trkpt>
      <trkpt lat="42.84155" lon="0.50698">
        <ele>1803</ele>
        <time>2020-02-01T11:34:52.000Z</time>
      </trkpt>
      <trkpt lat="42.84154" lon="0.50697">
        <ele>1803.3</ele>
        <time>2020-02-01T11:34:53.000Z</time>
      </trkpt>
      <trkpt lat="42.84154" lon="0.50696">
        <ele>1803.7</ele>
        <time>2020-02-01T11:34:54.000Z</time>
      </trkpt>
      <trkpt lat="42.84153" lon="0.50696">
        <ele>1804</ele>
        <time>2020-02-01T11:34:55.000Z</time>
      </trkpt>
      <trkpt lat="42.84153" lon="0.50695">
        <ele>1804</ele>
        <time>2020-02-01T11:34:56.000Z</time>
      </trkpt>
      <trkpt lat="42.84152" lon="0.50695">
        <ele>1804</ele>
        <time>2020-02-01T11:34:57.000Z</time>
      </trkpt>
      <trkpt lat="42.84152" lon="0.50695">
        <ele>1804</ele>
        <time>2020-02-01T11:34:58.000Z</time>
      </trkpt>
      <trkpt lat="42.84152" lon="0.50695">
        <ele>1804</ele>
        <time>2020-02-01T11:34:59.000Z</time>
      </trkpt>
      <trkpt lat="42.84152" lon="0.50695">
        <ele>1804</ele>
        <time>2020-02-01T11:35:00.000Z</time>
      </trkpt>
      <trkpt lat="42.84152" lon="0.50694">
        <ele>1804</ele>
        <time>2020-02-01T11:35:01.000Z</time>
      </trkpt>
      <trkpt lat="42.84152" lon="0.50694">
        <ele>1804</ele>
        <time>2020-02-01T11:35:02.000Z</time>
      </trkpt>
      <trkpt lat="42.84152" lon="0.50695">
        <ele>1804</ele>
        <time>2020-02-01T11:35:03.000Z</time>
      </trkpt>
      <trkpt lat="42.84152" lon="0.50695">
        <ele>1804</ele>
        <time>2020-02-01T11:35:04.000Z</time>
      </trkpt>
      <trkpt lat="42.84152" lon="0.50695">
        <ele>1804</ele>
        <time>2020-02-01T11:35:05.000Z</time>
      </trkpt>
      <trkpt lat="42.84152" lon="0.50694">
        <ele>1804</ele>
        <time>2020-02-01T11:35:06.000Z</time>
      </trkpt>
      <trkpt lat="42.84152" lon="0.50694">
        <ele>1804</ele>
        <time>2020-02-01T11:35:07.000Z</time>
      </trkpt>
      <trkpt lat="42.84151" lon="0.50694">
        <ele>1804</ele>
        <time>2020-02-01T11:35:08.000Z</time>
      </trkpt>
      <trkpt lat="42.8415" lon="0.50694">
        <ele>1804</ele>
        <time>2020-02-01T11:35:09.000Z</time>
      </trkpt>
      <trkpt lat="42.84149" lon="0.50694">
        <ele>1804</ele>
        <time>2020-02-01T11:35:10.000Z</time>
      </trkpt>
      <trkpt lat="42.84149" lon="0.50693">
        <ele>1804</ele>
        <time>2020-02-01T11:35:11.000Z</time>
      </trkpt>
      <trkpt lat="42.84148" lon="0.50693">
        <ele>1804</ele>
        <time>2020-02-01T11:35:12.000Z</time>
      </trkpt>
      <trkpt lat="42.84147" lon="0.50693">
        <ele>1804</ele>
        <time>2020-02-01T11:35:13.000Z</time>
      </trkpt>
      <trkpt lat="42.84147" lon="0.50692">
        <ele>1804</ele>
        <time>2020-02-01T11:35:14.000Z</time>
      </trkpt>
      <trkpt lat="42.84146" lon="0.50692">
        <ele>1804</ele>
        <time>2020-02-01T11:35:15.000Z</time>
      </trkpt>
      <trkpt lat="42.84146" lon="0.50692">
        <ele>1804</ele>
        <time>2020-02-01T11:35:16.000Z</time>
      </trkpt>
      <trkpt lat="42.84146" lon="0.50692">
        <ele>1804</ele>
        <time>2020-02-01T11:35:17.000Z</time>
      </trkpt>
      <trkpt lat="42.84146" lon="0.50692">
        <ele>1805</ele>
        <time>2020-02-01T11:35:18.000Z</time>
      </trkpt>
      <trkpt lat="42.84146" lon="0.50692">
        <ele>1805</ele>
        <time>2020-02-01T11:35:19.000Z</time>
      </trkpt>
      <trkpt lat="42.84146" lon="0.50692">
        <ele>1805</ele>
        <time>2020-02-01T11:35:20.000Z</time>
      </trkpt>
      <trkpt lat="42.84146" lon="0.50692">
        <ele>1805</ele>
        <time>2020-02-01T11:35:21.000Z</time>
      </trkpt>
      <trkpt lat="42.84146" lon="0.50692">
        <ele>1805</ele>
        <time>2020-02-01T11:35:22.000Z</time>
      </trkpt>
      <trkpt lat="42.84145" lon="0.50692">
        <ele>1805</ele>
        <time>2020-02-01T11:35:23.000Z</time>
      </trkpt>
      <trkpt lat="42.84144" lon="0.50691">
        <ele>1805</ele>
        <time>2020-02-01T11:35:24.000Z</time>
      </trkpt>
      <trkpt lat="42.84143" lon="0.50691">
        <ele>1805</ele>
        <time>2020-02-01T11:35:25.000Z</time>
      </trkpt>
      <trkpt lat="42.84142" lon="0.50691">
        <ele>1805</ele>
        <time>2020-02-01T11:35:26.000Z</time>
      </trkpt>
      <trkpt lat="42.84142" lon="0.5069">
        <ele>1805</ele>
        <time>2020-02-01T11:35:27.000Z</time>
      </trkpt>
      <trkpt lat="42.84141" lon="0.5069">
        <ele>1805</ele>
        <time>2020-02-01T11:35:28.000Z</time>
      </trkpt>
      <trkpt lat="42.84141" lon="0.5069">
        <ele>1805.3</ele>
        <time>2020-02-01T11:35:29.000Z</time>
      </trkpt>
      <trkpt lat="42.84141" lon="0.5069">
        <ele>1805.7</ele>
        <time>2020-02-01T11:35:30.000Z</time>
      </trkpt>
      <trkpt lat="42.84141" lon="0.5069">
        <ele>1806</ele>
        <time>2020-02-01T11:35:31.000Z</time>
      </trkpt>
      <trkpt lat="42.84141" lon="0.5069">
        <ele>1806</ele>
        <time>2020-02-01T11:35:32.000Z</time>
      </trkpt>
      <trkpt lat="42.84141" lon="0.5069">
        <ele>1806</ele>
        <time>2020-02-01T11:35:33.000Z</time>
      </trkpt>
      <trkpt lat="42.84141" lon="0.5069">
        <ele>1806</ele>
        <time>2020-02-01T11:35:34.000Z</time>
      </trkpt>
      <trkpt lat="42.8414" lon="0.5069">
        <ele>1806</ele>
        <time>2020-02-01T11:35:35.000Z</time>
      </trkpt>
      <trkpt lat="42.8414" lon="0.5069">
        <ele>1806</ele>
        <time>2020-02-01T11:35:36.000Z</time>
      </trkpt>
      <trkpt lat="42.8414" lon="0.5069">
        <ele>1806</ele>
        <time>2020-02-01T11:35:37.000Z</time>
      </trkpt>
      <trkpt lat="42.8414" lon="0.5069">
        <ele>1806</ele>
        <time>2020-02-01T11:35:38.000Z</time>
      </trkpt>
      <trkpt lat="42.8414" lon="0.50689">
        <ele>1806</ele>
        <time>2020-02-01T11:35:39.000Z</time>
      </trkpt>
      <trkpt lat="42.84139" lon="0.50689">
        <ele>1806</ele>
        <time>2020-02-01T11:35:40.000Z</time>
      </trkpt>
      <trkpt lat="42.84139" lon="0.50689">
        <ele>1806</ele>
        <time>2020-02-01T11:35:41.000Z</time>
      </trkpt>
      <trkpt lat="42.84138" lon="0.50689">
        <ele>1806.5</ele>
        <time>2020-02-01T11:35:42.000Z</time>
      </trkpt>
      <trkpt lat="42.84138" lon="0.50689">
        <ele>1807</ele>
        <time>2020-02-01T11:35:43.000Z</time>
      </trkpt>
      <trkpt lat="42.84137" lon="0.50688">
        <ele>1807</ele>
        <time>2020-02-01T11:35:44.000Z</time>
      </trkpt>
      <trkpt lat="42.84137" lon="0.50688">
        <ele>1807</ele>
        <time>2020-02-01T11:35:45.000Z</time>
      </trkpt>
      <trkpt lat="42.84136" lon="0.50688">
        <ele>1807</ele>
        <time>2020-02-01T11:35:46.000Z</time>
      </trkpt>
      <trkpt lat="42.84136" lon="0.50688">
        <ele>1807</ele>
        <time>2020-02-01T11:35:47.000Z</time>
      </trkpt>
      <trkpt lat="42.84135" lon="0.50687">
        <ele>1807</ele>
        <time>2020-02-01T11:35:48.000Z</time>
      </trkpt>
      <trkpt lat="42.84134" lon="0.50687">
        <ele>1807</ele>
        <time>2020-02-01T11:35:49.000Z</time>
      </trkpt>
      <trkpt lat="42.84133" lon="0.50687">
        <ele>1808</ele>
        <time>2020-02-01T11:35:50.000Z</time>
      </trkpt>
      <trkpt lat="42.84133" lon="0.50687">
        <ele>1808</ele>
        <time>2020-02-01T11:35:51.000Z</time>
      </trkpt>
      <trkpt lat="42.84132" lon="0.50687">
        <ele>1808</ele>
        <time>2020-02-01T11:35:52.000Z</time>
      </trkpt>
      <trkpt lat="42.84132" lon="0.50687">
        <ele>1808</ele>
        <time>2020-02-01T11:35:53.000Z</time>
      </trkpt>
      <trkpt lat="42.84131" lon="0.50686">
        <ele>1808</ele>
        <time>2020-02-01T11:35:54.000Z</time>
      </trkpt>
      <trkpt lat="42.8413" lon="0.50686">
        <ele>1808</ele>
        <time>2020-02-01T11:35:55.000Z</time>
      </trkpt>
      <trkpt lat="42.8413" lon="0.50685">
        <ele>1808</ele>
        <time>2020-02-01T11:35:56.000Z</time>
      </trkpt>
      <trkpt lat="42.84129" lon="0.50684">
        <ele>1808.5</ele>
        <time>2020-02-01T11:35:57.000Z</time>
      </trkpt>
      <trkpt lat="42.84129" lon="0.50684">
        <ele>1809</ele>
        <time>2020-02-01T11:35:58.000Z</time>
      </trkpt>
      <trkpt lat="42.84128" lon="0.50683">
        <ele>1809</ele>
        <time>2020-02-01T11:35:59.000Z</time>
      </trkpt>
      <trkpt lat="42.84127" lon="0.50682">
        <ele>1809</ele>
        <time>2020-02-01T11:36:00.000Z</time>
      </trkpt>
      <trkpt lat="42.84127" lon="0.50682">
        <ele>1809</ele>
        <time>2020-02-01T11:36:01.000Z</time>
      </trkpt>
      <trkpt lat="42.84127" lon="0.50681">
        <ele>1809</ele>
        <time>2020-02-01T11:36:02.000Z</time>
      </trkpt>
      <trkpt lat="42.84126" lon="0.50681">
        <ele>1809</ele>
        <time>2020-02-01T11:36:03.000Z</time>
      </trkpt>
      <trkpt lat="42.84126" lon="0.5068">
        <ele>1809</ele>
        <time>2020-02-01T11:36:04.000Z</time>
      </trkpt>
      <trkpt lat="42.84126" lon="0.5068">
        <ele>1809</ele>
        <time>2020-02-01T11:36:05.000Z</time>
      </trkpt>
      <trkpt lat="42.84126" lon="0.5068">
        <ele>1809</ele>
        <time>2020-02-01T11:36:06.000Z</time>
      </trkpt>
      <trkpt lat="42.84125" lon="0.50679">
        <ele>1809</ele>
        <time>2020-02-01T11:36:07.000Z</time>
      </trkpt>
      <trkpt lat="42.84125" lon="0.50679">
        <ele>1809</ele>
        <time>2020-02-01T11:36:08.000Z</time>
      </trkpt>
      <trkpt lat="42.84125" lon="0.50679">
        <ele>1809</ele>
        <time>2020-02-01T11:36:09.000Z</time>
      </trkpt>
      <trkpt lat="42.84125" lon="0.50679">
        <ele>1809</ele>
        <time>2020-02-01T11:36:10.000Z</time>
      </trkpt>
      <trkpt lat="42.84125" lon="0.50679">
        <ele>1809</ele>
        <time>2020-02-01T11:36:11.000Z</time>
      </trkpt>
      <trkpt lat="42.84125" lon="0.50679">
        <ele>1809</ele>
        <time>2020-02-01T11:36:12.000Z</time>
      </trkpt>
      <trkpt lat="42.84125" lon="0.50678">
        <ele>1809</ele>
        <time>2020-02-01T11:36:13.000Z</time>
      </trkpt>
      <trkpt lat="42.84124" lon="0.50678">
        <ele>1809</ele>
        <time>2020-02-01T11:36:14.000Z</time>
      </trkpt>
      <trkpt lat="42.84124" lon="0.50678">
        <ele>1809.5</ele>
        <time>2020-02-01T11:36:15.000Z</time>
      </trkpt>
      <trkpt lat="42.84124" lon="0.50678">
        <ele>1810</ele>
        <time>2020-02-01T11:36:16.000Z</time>
      </trkpt>
      <trkpt lat="42.84124" lon="0.50678">
        <ele>1809.7</ele>
        <time>2020-02-01T11:36:17.000Z</time>
      </trkpt>
      <trkpt lat="42.84124" lon="0.50677">
        <ele>1809.3</ele>
        <time>2020-02-01T11:36:18.000Z</time>
      </trkpt>
      <trkpt lat="42.84124" lon="0.50677">
        <ele>1809</ele>
        <time>2020-02-01T11:36:19.000Z</time>
      </trkpt>
      <trkpt lat="42.84124" lon="0.50677">
        <ele>1810</ele>
        <time>2020-02-01T11:36:20.000Z</time>
      </trkpt>
      <trkpt lat="42.84124" lon="0.50676">
        <ele>1810</ele>
        <time>2020-02-01T11:36:21.000Z</time>
      </trkpt>
      <trkpt lat="42.84124" lon="0.50675">
        <ele>1810</ele>
        <time>2020-02-01T11:36:22.000Z</time>
      </trkpt>
      <trkpt lat="42.84123" lon="0.50674">
        <ele>1810</ele>
        <time>2020-02-01T11:36:23.000Z</time>
      </trkpt>
      <trkpt lat="42.84123" lon="0.50674">
        <ele>1810</ele>
        <time>2020-02-01T11:36:24.000Z</time>
      </trkpt>
      <trkpt lat="42.84123" lon="0.50673">
        <ele>1810</ele>
        <time>2020-02-01T11:36:25.000Z</time>
      </trkpt>
      <trkpt lat="42.84122" lon="0.50673">
        <ele>1810</ele>
        <time>2020-02-01T11:36:26.000Z</time>
      </trkpt>
      <trkpt lat="42.84122" lon="0.50672">
        <ele>1810</ele>
        <time>2020-02-01T11:36:27.000Z</time>
      </trkpt>
      <trkpt lat="42.84122" lon="0.50672">
        <ele>1810</ele>
        <time>2020-02-01T11:36:28.000Z</time>
      </trkpt>
      <trkpt lat="42.84121" lon="0.50671">
        <ele>1810</ele>
        <time>2020-02-01T11:36:29.000Z</time>
      </trkpt>
      <trkpt lat="42.8412" lon="0.50671">
        <ele>1810</ele>
        <time>2020-02-01T11:36:30.000Z</time>
      </trkpt>
      <trkpt lat="42.84119" lon="0.50671">
        <ele>1810.5</ele>
        <time>2020-02-01T11:36:31.000Z</time>
      </trkpt>
      <trkpt lat="42.84119" lon="0.5067">
        <ele>1811</ele>
        <time>2020-02-01T11:36:32.000Z</time>
      </trkpt>
      <trkpt lat="42.84119" lon="0.5067">
        <ele>1811</ele>
        <time>2020-02-01T11:36:33.000Z</time>
      </trkpt>
      <trkpt lat="42.84119" lon="0.5067">
        <ele>1811</ele>
        <time>2020-02-01T11:36:34.000Z</time>
      </trkpt>
      <trkpt lat="42.84118" lon="0.5067">
        <ele>1811</ele>
        <time>2020-02-01T11:36:35.000Z</time>
      </trkpt>
      <trkpt lat="42.84118" lon="0.5067">
        <ele>1811</ele>
        <time>2020-02-01T11:36:36.000Z</time>
      </trkpt>
      <trkpt lat="42.84117" lon="0.5067">
        <ele>1811</ele>
        <time>2020-02-01T11:36:37.000Z</time>
      </trkpt>
      <trkpt lat="42.84117" lon="0.50669">
        <ele>1811</ele>
        <time>2020-02-01T11:36:38.000Z</time>
      </trkpt>
      <trkpt lat="42.84116" lon="0.50669">
        <ele>1811</ele>
        <time>2020-02-01T11:36:39.000Z</time>
      </trkpt>
      <trkpt lat="42.84116" lon="0.50669">
        <ele>1811</ele>
        <time>2020-02-01T11:36:40.000Z</time>
      </trkpt>
      <trkpt lat="42.84115" lon="0.50669">
        <ele>1811</ele>
        <time>2020-02-01T11:36:41.000Z</time>
      </trkpt>
      <trkpt lat="42.84115" lon="0.50669">
        <ele>1811</ele>
        <time>2020-02-01T11:36:42.000Z</time>
      </trkpt>
      <trkpt lat="42.84114" lon="0.50669">
        <ele>1811</ele>
        <time>2020-02-01T11:36:43.000Z</time>
      </trkpt>
      <trkpt lat="42.84114" lon="0.50668">
        <ele>1811</ele>
        <time>2020-02-01T11:36:44.000Z</time>
      </trkpt>
      <trkpt lat="42.84114" lon="0.50668">
        <ele>1811.3</ele>
        <time>2020-02-01T11:36:45.000Z</time>
      </trkpt>
      <trkpt lat="42.84114" lon="0.50668">
        <ele>1811.7</ele>
        <time>2020-02-01T11:36:46.000Z</time>
      </trkpt>
      <trkpt lat="42.84114" lon="0.50668">
        <ele>1812</ele>
        <time>2020-02-01T11:36:47.000Z</time>
      </trkpt>
      <trkpt lat="42.84114" lon="0.50668">
        <ele>1812</ele>
        <time>2020-02-01T11:36:48.000Z</time>
      </trkpt>
      <trkpt lat="42.84114" lon="0.50668">
        <ele>1812</ele>
        <time>2020-02-01T11:36:49.000Z</time>
      </trkpt>
      <trkpt lat="42.84114" lon="0.50668">
        <ele>1812</ele>
        <time>2020-02-01T11:36:50.000Z</time>
      </trkpt>
      <trkpt lat="42.84114" lon="0.50668">
        <ele>1812</ele>
        <time>2020-02-01T11:36:51.000Z</time>
      </trkpt>
      <trkpt lat="42.84114" lon="0.50668">
        <ele>1812</ele>
        <time>2020-02-01T11:36:52.000Z</time>
      </trkpt>
      <trkpt lat="42.84113" lon="0.50668">
        <ele>1812</ele>
        <time>2020-02-01T11:36:53.000Z</time>
      </trkpt>
      <trkpt lat="42.84113" lon="0.50668">
        <ele>1812</ele>
        <time>2020-02-01T11:36:54.000Z</time>
      </trkpt>
      <trkpt lat="42.84112" lon="0.50667">
        <ele>1812.5</ele>
        <time>2020-02-01T11:36:55.000Z</time>
      </trkpt>
      <trkpt lat="42.84111" lon="0.50667">
        <ele>1813</ele>
        <time>2020-02-01T11:36:56.000Z</time>
      </trkpt>
      <trkpt lat="42.84111" lon="0.50666">
        <ele>1813</ele>
        <time>2020-02-01T11:36:57.000Z</time>
      </trkpt>
      <trkpt lat="42.8411" lon="0.50666">
        <ele>1813</ele>
        <time>2020-02-01T11:36:58.000Z</time>
      </trkpt>
      <trkpt lat="42.8411" lon="0.50666">
        <ele>1813</ele>
        <time>2020-02-01T11:36:59.000Z</time>
      </trkpt>
      <trkpt lat="42.8411" lon="0.50666">
        <ele>1813</ele>
        <time>2020-02-01T11:37:00.000Z</time>
      </trkpt>
      <trkpt lat="42.8411" lon="0.50665">
        <ele>1813</ele>
        <time>2020-02-01T11:37:01.000Z</time>
      </trkpt>
      <trkpt lat="42.84109" lon="0.50665">
        <ele>1813</ele>
        <time>2020-02-01T11:37:02.000Z</time>
      </trkpt>
      <trkpt lat="42.84109" lon="0.50665">
        <ele>1813</ele>
        <time>2020-02-01T11:37:03.000Z</time>
      </trkpt>
      <trkpt lat="42.84109" lon="0.50665">
        <ele>1813</ele>
        <time>2020-02-01T11:37:04.000Z</time>
      </trkpt>
      <trkpt lat="42.84108" lon="0.50665">
        <ele>1813</ele>
        <time>2020-02-01T11:37:05.000Z</time>
      </trkpt>
      <trkpt lat="42.84108" lon="0.50664">
        <ele>1813</ele>
        <time>2020-02-01T11:37:06.000Z</time>
      </trkpt>
      <trkpt lat="42.84107" lon="0.50664">
        <ele>1813</ele>
        <time>2020-02-01T11:37:07.000Z</time>
      </trkpt>
      <trkpt lat="42.84106" lon="0.50663">
        <ele>1814</ele>
        <time>2020-02-01T11:37:08.000Z</time>
      </trkpt>
      <trkpt lat="42.84106" lon="0.50663">
        <ele>1814</ele>
        <time>2020-02-01T11:37:09.000Z</time>
      </trkpt>
      <trkpt lat="42.84105" lon="0.50662">
        <ele>1814</ele>
        <time>2020-02-01T11:37:10.000Z</time>
      </trkpt>
      <trkpt lat="42.84104" lon="0.50661">
        <ele>1814</ele>
        <time>2020-02-01T11:37:11.000Z</time>
      </trkpt>
      <trkpt lat="42.84104" lon="0.5066">
        <ele>1814</ele>
        <time>2020-02-01T11:37:12.000Z</time>
      </trkpt>
      <trkpt lat="42.84103" lon="0.5066">
        <ele>1814</ele>
        <time>2020-02-01T11:37:13.000Z</time>
      </trkpt>
      <trkpt lat="42.84103" lon="0.50659">
        <ele>1814</ele>
        <time>2020-02-01T11:37:14.000Z</time>
      </trkpt>
      <trkpt lat="42.84102" lon="0.50659">
        <ele>1814</ele>
        <time>2020-02-01T11:37:15.000Z</time>
      </trkpt>
      <trkpt lat="42.84102" lon="0.50658">
        <ele>1814</ele>
        <time>2020-02-01T11:37:16.000Z</time>
      </trkpt>
      <trkpt lat="42.84101" lon="0.50658">
        <ele>1814</ele>
        <time>2020-02-01T11:37:17.000Z</time>
      </trkpt>
      <trkpt lat="42.841" lon="0.50657">
        <ele>1813</ele>
        <time>2020-02-01T11:37:18.000Z</time>
      </trkpt>
      <trkpt lat="42.841" lon="0.50657">
        <ele>1813.5</ele>
        <time>2020-02-01T11:37:19.000Z</time>
      </trkpt>
      <trkpt lat="42.84099" lon="0.50656">
        <ele>1814</ele>
        <time>2020-02-01T11:37:20.000Z</time>
      </trkpt>
      <trkpt lat="42.84099" lon="0.50656">
        <ele>1814</ele>
        <time>2020-02-01T11:37:21.000Z</time>
      </trkpt>
      <trkpt lat="42.84098" lon="0.50655">
        <ele>1814</ele>
        <time>2020-02-01T11:37:22.000Z</time>
      </trkpt>
      <trkpt lat="42.84098" lon="0.50655">
        <ele>1814</ele>
        <time>2020-02-01T11:37:23.000Z</time>
      </trkpt>
      <trkpt lat="42.84097" lon="0.50655">
        <ele>1814</ele>
        <time>2020-02-01T11:37:24.000Z</time>
      </trkpt>
      <trkpt lat="42.84096" lon="0.50655">
        <ele>1814</ele>
        <time>2020-02-01T11:37:25.000Z</time>
      </trkpt>
      <trkpt lat="42.84096" lon="0.50655">
        <ele>1814</ele>
        <time>2020-02-01T11:37:26.000Z</time>
      </trkpt>
      <trkpt lat="42.84096" lon="0.50655">
        <ele>1814</ele>
        <time>2020-02-01T11:37:27.000Z</time>
      </trkpt>
      <trkpt lat="42.84095" lon="0.50655">
        <ele>1814</ele>
        <time>2020-02-01T11:37:28.000Z</time>
      </trkpt>
      <trkpt lat="42.84095" lon="0.50655">
        <ele>1814</ele>
        <time>2020-02-01T11:37:29.000Z</time>
      </trkpt>
      <trkpt lat="42.84095" lon="0.50655">
        <ele>1814</ele>
        <time>2020-02-01T11:37:30.000Z</time>
      </trkpt>
      <trkpt lat="42.84095" lon="0.50655">
        <ele>1814</ele>
        <time>2020-02-01T11:37:31.000Z</time>
      </trkpt>
      <trkpt lat="42.84095" lon="0.50655">
        <ele>1814</ele>
        <time>2020-02-01T11:37:32.000Z</time>
      </trkpt>
      <trkpt lat="42.84095" lon="0.50655">
        <ele>1814</ele>
        <time>2020-02-01T11:37:33.000Z</time>
      </trkpt>
      <trkpt lat="42.84094" lon="0.50655">
        <ele>1814</ele>
        <time>2020-02-01T11:37:34.000Z</time>
      </trkpt>
      <trkpt lat="42.84094" lon="0.50654">
        <ele>1814</ele>
        <time>2020-02-01T11:37:35.000Z</time>
      </trkpt>
      <trkpt lat="42.84093" lon="0.50654">
        <ele>1814</ele>
        <time>2020-02-01T11:37:36.000Z</time>
      </trkpt>
      <trkpt lat="42.84092" lon="0.50653">
        <ele>1814</ele>
        <time>2020-02-01T11:37:37.000Z</time>
      </trkpt>
      <trkpt lat="42.84092" lon="0.50653">
        <ele>1814</ele>
        <time>2020-02-01T11:37:38.000Z</time>
      </trkpt>
      <trkpt lat="42.84091" lon="0.50652">
        <ele>1814</ele>
        <time>2020-02-01T11:37:39.000Z</time>
      </trkpt>
      <trkpt lat="42.8409" lon="0.50651">
        <ele>1814</ele>
        <time>2020-02-01T11:37:40.000Z</time>
      </trkpt>
      <trkpt lat="42.84089" lon="0.50651">
        <ele>1814</ele>
        <time>2020-02-01T11:37:41.000Z</time>
      </trkpt>
      <trkpt lat="42.84088" lon="0.5065">
        <ele>1814</ele>
        <time>2020-02-01T11:37:42.000Z</time>
      </trkpt>
      <trkpt lat="42.84087" lon="0.5065">
        <ele>1814</ele>
        <time>2020-02-01T11:37:43.000Z</time>
      </trkpt>
      <trkpt lat="42.84086" lon="0.50649">
        <ele>1814</ele>
        <time>2020-02-01T11:37:44.000Z</time>
      </trkpt>
      <trkpt lat="42.84086" lon="0.50649">
        <ele>1814</ele>
        <time>2020-02-01T11:37:45.000Z</time>
      </trkpt>
      <trkpt lat="42.84085" lon="0.50649">
        <ele>1814</ele>
        <time>2020-02-01T11:37:46.000Z</time>
      </trkpt>
      <trkpt lat="42.84084" lon="0.50648">
        <ele>1814</ele>
        <time>2020-02-01T11:37:47.000Z</time>
      </trkpt>
      <trkpt lat="42.84084" lon="0.50648">
        <ele>1814</ele>
        <time>2020-02-01T11:37:48.000Z</time>
      </trkpt>
      <trkpt lat="42.84083" lon="0.50648">
        <ele>1814</ele>
        <time>2020-02-01T11:37:49.000Z</time>
      </trkpt>
      <trkpt lat="42.84083" lon="0.50648">
        <ele>1814</ele>
        <time>2020-02-01T11:37:50.000Z</time>
      </trkpt>
      <trkpt lat="42.84082" lon="0.50648">
        <ele>1814</ele>
        <time>2020-02-01T11:37:51.000Z</time>
      </trkpt>
      <trkpt lat="42.84081" lon="0.50648">
        <ele>1814</ele>
        <time>2020-02-01T11:37:52.000Z</time>
      </trkpt>
      <trkpt lat="42.84081" lon="0.50648">
        <ele>1814</ele>
        <time>2020-02-01T11:37:53.000Z</time>
      </trkpt>
      <trkpt lat="42.8408" lon="0.50648">
        <ele>1814</ele>
        <time>2020-02-01T11:37:54.000Z</time>
      </trkpt>
      <trkpt lat="42.8408" lon="0.50648">
        <ele>1814</ele>
        <time>2020-02-01T11:37:55.000Z</time>
      </trkpt>
      <trkpt lat="42.84079" lon="0.50648">
        <ele>1814</ele>
        <time>2020-02-01T11:37:56.000Z</time>
      </trkpt>
      <trkpt lat="42.84078" lon="0.50648">
        <ele>1814</ele>
        <time>2020-02-01T11:37:57.000Z</time>
      </trkpt>
      <trkpt lat="42.84078" lon="0.50647">
        <ele>1814</ele>
        <time>2020-02-01T11:37:58.000Z</time>
      </trkpt>
      <trkpt lat="42.84077" lon="0.50647">
        <ele>1814</ele>
        <time>2020-02-01T11:37:59.000Z</time>
      </trkpt>
      <trkpt lat="42.84076" lon="0.50647">
        <ele>1815</ele>
        <time>2020-02-01T11:38:00.000Z</time>
      </trkpt>
      <trkpt lat="42.84075" lon="0.50647">
        <ele>1815</ele>
        <time>2020-02-01T11:38:01.000Z</time>
      </trkpt>
      <trkpt lat="42.84074" lon="0.50647">
        <ele>1815</ele>
        <time>2020-02-01T11:38:02.000Z</time>
      </trkpt>
      <trkpt lat="42.84074" lon="0.50646">
        <ele>1815</ele>
        <time>2020-02-01T11:38:03.000Z</time>
      </trkpt>
      <trkpt lat="42.84073" lon="0.50646">
        <ele>1815</ele>
        <time>2020-02-01T11:38:04.000Z</time>
      </trkpt>
      <trkpt lat="42.84072" lon="0.50645">
        <ele>1815</ele>
        <time>2020-02-01T11:38:05.000Z</time>
      </trkpt>
      <trkpt lat="42.84071" lon="0.50645">
        <ele>1815</ele>
        <time>2020-02-01T11:38:06.000Z</time>
      </trkpt>
      <trkpt lat="42.8407" lon="0.50645">
        <ele>1815</ele>
        <time>2020-02-01T11:38:07.000Z</time>
      </trkpt>
      <trkpt lat="42.84069" lon="0.50644">
        <ele>1815</ele>
        <time>2020-02-01T11:38:08.000Z</time>
      </trkpt>
      <trkpt lat="42.84069" lon="0.50644">
        <ele>1815</ele>
        <time>2020-02-01T11:38:09.000Z</time>
      </trkpt>
      <trkpt lat="42.84068" lon="0.50643">
        <ele>1815</ele>
        <time>2020-02-01T11:38:10.000Z</time>
      </trkpt>
      <trkpt lat="42.84067" lon="0.50643">
        <ele>1815</ele>
        <time>2020-02-01T11:38:11.000Z</time>
      </trkpt>
      <trkpt lat="42.84066" lon="0.50642">
        <ele>1815</ele>
        <time>2020-02-01T11:38:12.000Z</time>
      </trkpt>
      <trkpt lat="42.84065" lon="0.50642">
        <ele>1815</ele>
        <time>2020-02-01T11:38:13.000Z</time>
      </trkpt>
      <trkpt lat="42.84065" lon="0.50642">
        <ele>1815</ele>
        <time>2020-02-01T11:38:14.000Z</time>
      </trkpt>
      <trkpt lat="42.84064" lon="0.50641">
        <ele>1815</ele>
        <time>2020-02-01T11:38:15.000Z</time>
      </trkpt>
      <trkpt lat="42.84063" lon="0.50641">
        <ele>1815</ele>
        <time>2020-02-01T11:38:16.000Z</time>
      </trkpt>
      <trkpt lat="42.84063" lon="0.5064">
        <ele>1815</ele>
        <time>2020-02-01T11:38:17.000Z</time>
      </trkpt>
      <trkpt lat="42.84062" lon="0.5064">
        <ele>1815</ele>
        <time>2020-02-01T11:38:18.000Z</time>
      </trkpt>
      <trkpt lat="42.84061" lon="0.50639">
        <ele>1815</ele>
        <time>2020-02-01T11:38:19.000Z</time>
      </trkpt>
      <trkpt lat="42.84061" lon="0.50639">
        <ele>1815</ele>
        <time>2020-02-01T11:38:20.000Z</time>
      </trkpt>
      <trkpt lat="42.8406" lon="0.50638">
        <ele>1815</ele>
        <time>2020-02-01T11:38:21.000Z</time>
      </trkpt>
      <trkpt lat="42.8406" lon="0.50638">
        <ele>1815</ele>
        <time>2020-02-01T11:38:22.000Z</time>
      </trkpt>
      <trkpt lat="42.84059" lon="0.50637">
        <ele>1815</ele>
        <time>2020-02-01T11:38:23.000Z</time>
      </trkpt>
      <trkpt lat="42.84059" lon="0.50637">
        <ele>1815</ele>
        <time>2020-02-01T11:38:24.000Z</time>
      </trkpt>
      <trkpt lat="42.84058" lon="0.50636">
        <ele>1815</ele>
        <time>2020-02-01T11:38:25.000Z</time>
      </trkpt>
      <trkpt lat="42.84058" lon="0.50635">
        <ele>1815</ele>
        <time>2020-02-01T11:38:26.000Z</time>
      </trkpt>
      <trkpt lat="42.84058" lon="0.50635">
        <ele>1815</ele>
        <time>2020-02-01T11:38:27.000Z</time>
      </trkpt>
      <trkpt lat="42.84057" lon="0.50634">
        <ele>1815</ele>
        <time>2020-02-01T11:38:28.000Z</time>
      </trkpt>
      <trkpt lat="42.84057" lon="0.50633">
        <ele>1815</ele>
        <time>2020-02-01T11:38:29.000Z</time>
      </trkpt>
      <trkpt lat="42.84057" lon="0.50632">
        <ele>1815</ele>
        <time>2020-02-01T11:38:30.000Z</time>
      </trkpt>
      <trkpt lat="42.84057" lon="0.50631">
        <ele>1815</ele>
        <time>2020-02-01T11:38:31.000Z</time>
      </trkpt>
      <trkpt lat="42.84057" lon="0.50631">
        <ele>1815</ele>
        <time>2020-02-01T11:38:32.000Z</time>
      </trkpt>
      <trkpt lat="42.84056" lon="0.5063">
        <ele>1815</ele>
        <time>2020-02-01T11:38:33.000Z</time>
      </trkpt>
      <trkpt lat="42.84056" lon="0.50629">
        <ele>1815</ele>
        <time>2020-02-01T11:38:34.000Z</time>
      </trkpt>
      <trkpt lat="42.84056" lon="0.50628">
        <ele>1815</ele>
        <time>2020-02-01T11:38:35.000Z</time>
      </trkpt>
      <trkpt lat="42.84055" lon="0.50628">
        <ele>1815</ele>
        <time>2020-02-01T11:38:36.000Z</time>
      </trkpt>
      <trkpt lat="42.84055" lon="0.50627">
        <ele>1815</ele>
        <time>2020-02-01T11:38:37.000Z</time>
      </trkpt>
      <trkpt lat="42.84054" lon="0.50626">
        <ele>1815</ele>
        <time>2020-02-01T11:38:38.000Z</time>
      </trkpt>
      <trkpt lat="42.84054" lon="0.50626">
        <ele>1815</ele>
        <time>2020-02-01T11:38:39.000Z</time>
      </trkpt>
      <trkpt lat="42.84054" lon="0.50626">
        <ele>1815</ele>
        <time>2020-02-01T11:38:40.000Z</time>
      </trkpt>
      <trkpt lat="42.84053" lon="0.50625">
        <ele>1815</ele>
        <time>2020-02-01T11:38:41.000Z</time>
      </trkpt>
      <trkpt lat="42.84053" lon="0.50625">
        <ele>1814</ele>
        <time>2020-02-01T11:38:42.000Z</time>
      </trkpt>
      <trkpt lat="42.84053" lon="0.50625">
        <ele>1814</ele>
        <time>2020-02-01T11:38:43.000Z</time>
      </trkpt>
      <trkpt lat="42.84053" lon="0.50625">
        <ele>1814</ele>
        <time>2020-02-01T11:38:44.000Z</time>
      </trkpt>
      <trkpt lat="42.84053" lon="0.50625">
        <ele>1814</ele>
        <time>2020-02-01T11:38:45.000Z</time>
      </trkpt>
      <trkpt lat="42.84053" lon="0.50625">
        <ele>1814</ele>
        <time>2020-02-01T11:38:46.000Z</time>
      </trkpt>
      <trkpt lat="42.84053" lon="0.50625">
        <ele>1814</ele>
        <time>2020-02-01T11:38:47.000Z</time>
      </trkpt>
      <trkpt lat="42.84053" lon="0.50625">
        <ele>1814</ele>
        <time>2020-02-01T11:38:48.000Z</time>
      </trkpt>
      <trkpt lat="42.84053" lon="0.50625">
        <ele>1814</ele>
        <time>2020-02-01T11:38:49.000Z</time>
      </trkpt>
      <trkpt lat="42.84053" lon="0.50625">
        <ele>1814</ele>
        <time>2020-02-01T11:38:50.000Z</time>
      </trkpt>
      <trkpt lat="42.84053" lon="0.50625">
        <ele>1814</ele>
        <time>2020-02-01T11:38:51.000Z</time>
      </trkpt>
      <trkpt lat="42.84053" lon="0.50625">
        <ele>1814.5</ele>
        <time>2020-02-01T11:38:52.000Z</time>
      </trkpt>
      <trkpt lat="42.84053" lon="0.50625">
        <ele>1815</ele>
        <time>2020-02-01T11:38:53.000Z</time>
      </trkpt>
      <trkpt lat="42.84053" lon="0.50625">
        <ele>1815</ele>
        <time>2020-02-01T11:38:54.000Z</time>
      </trkpt>
      <trkpt lat="42.84053" lon="0.50625">
        <ele>1815</ele>
        <time>2020-02-01T11:38:55.000Z</time>
      </trkpt>
      <trkpt lat="42.84053" lon="0.50625">
        <ele>1815</ele>
        <time>2020-02-01T11:38:56.000Z</time>
      </trkpt>
      <trkpt lat="42.84053" lon="0.50625">
        <ele>1815</ele>
        <time>2020-02-01T11:38:57.000Z</time>
      </trkpt>
      <trkpt lat="42.84053" lon="0.50625">
        <ele>1815</ele>
        <time>2020-02-01T11:38:58.000Z</time>
      </trkpt>
      <trkpt lat="42.84053" lon="0.50625">
        <ele>1815</ele>
        <time>2020-02-01T11:38:59.000Z</time>
      </trkpt>
      <trkpt lat="42.84052" lon="0.50625">
        <ele>1815</ele>
        <time>2020-02-01T11:39:00.000Z</time>
      </trkpt>
      <trkpt lat="42.84052" lon="0.50625">
        <ele>1815</ele>
        <time>2020-02-01T11:39:01.000Z</time>
      </trkpt>
      <trkpt lat="42.84052" lon="0.50625">
        <ele>1815</ele>
        <time>2020-02-01T11:39:02.000Z</time>
      </trkpt>
      <trkpt lat="42.84052" lon="0.50625">
        <ele>1815</ele>
        <time>2020-02-01T11:39:03.000Z</time>
      </trkpt>
      <trkpt lat="42.84052" lon="0.50625">
        <ele>1816</ele>
        <time>2020-02-01T11:39:04.000Z</time>
      </trkpt>
      <trkpt lat="42.84052" lon="0.50625">
        <ele>1816</ele>
        <time>2020-02-01T11:39:05.000Z</time>
      </trkpt>
      <trkpt lat="42.84052" lon="0.50625">
        <ele>1816</ele>
        <time>2020-02-01T11:39:06.000Z</time>
      </trkpt>
      <trkpt lat="42.84052" lon="0.50625">
        <ele>1816</ele>
        <time>2020-02-01T11:39:07.000Z</time>
      </trkpt>
      <trkpt lat="42.84052" lon="0.50625">
        <ele>1816</ele>
        <time>2020-02-01T11:39:08.000Z</time>
      </trkpt>
      <trkpt lat="42.84052" lon="0.50625">
        <ele>1816</ele>
        <time>2020-02-01T11:39:09.000Z</time>
      </trkpt>
      <trkpt lat="42.84052" lon="0.50625">
        <ele>1815</ele>
        <time>2020-02-01T11:39:10.000Z</time>
      </trkpt>
      <trkpt lat="42.84052" lon="0.50625">
        <ele>1815</ele>
        <time>2020-02-01T11:39:11.000Z</time>
      </trkpt>
      <trkpt lat="42.84052" lon="0.50625">
        <ele>1815</ele>
        <time>2020-02-01T11:39:12.000Z</time>
      </trkpt>
      <trkpt lat="42.84052" lon="0.50625">
        <ele>1815</ele>
        <time>2020-02-01T11:39:13.000Z</time>
      </trkpt>
      <trkpt lat="42.84052" lon="0.50624">
        <ele>1815</ele>
        <time>2020-02-01T11:39:14.000Z</time>
      </trkpt>
      <trkpt lat="42.84052" lon="0.50624">
        <ele>1815</ele>
        <time>2020-02-01T11:39:15.000Z</time>
      </trkpt>
      <trkpt lat="42.84052" lon="0.50624">
        <ele>1815</ele>
        <time>2020-02-01T11:39:16.000Z</time>
      </trkpt>
      <trkpt lat="42.84052" lon="0.50624">
        <ele>1815</ele>
        <time>2020-02-01T11:39:17.000Z</time>
      </trkpt>
      <trkpt lat="42.84052" lon="0.50624">
        <ele>1815</ele>
        <time>2020-02-01T11:39:18.000Z</time>
      </trkpt>
      <trkpt lat="42.84052" lon="0.50624">
        <ele>1815</ele>
        <time>2020-02-01T11:39:19.000Z</time>
      </trkpt>
      <trkpt lat="42.84052" lon="0.50624">
        <ele>1815</ele>
        <time>2020-02-01T11:39:20.000Z</time>
      </trkpt>
      <trkpt lat="42.84052" lon="0.50624">
        <ele>1815</ele>
        <time>2020-02-01T11:39:21.000Z</time>
      </trkpt>
      <trkpt lat="42.84052" lon="0.50624">
        <ele>1815</ele>
        <time>2020-02-01T11:39:22.000Z</time>
      </trkpt>
      <trkpt lat="42.84052" lon="0.50624">
        <ele>1815</ele>
        <time>2020-02-01T11:39:23.000Z</time>
      </trkpt>
      <trkpt lat="42.84052" lon="0.50624">
        <ele>1815</ele>
        <time>2020-02-01T11:39:24.000Z</time>
      </trkpt>
      <trkpt lat="42.84052" lon="0.50624">
        <ele>1815</ele>
        <time>2020-02-01T11:39:25.000Z</time>
      </trkpt>
      <trkpt lat="42.84052" lon="0.50624">
        <ele>1815</ele>
        <time>2020-02-01T11:39:26.000Z</time>
      </trkpt>
      <trkpt lat="42.84052" lon="0.50624">
        <ele>1815</ele>
        <time>2020-02-01T11:39:27.000Z</time>
      </trkpt>
      <trkpt lat="42.84052" lon="0.50624">
        <ele>1815</ele>
        <time>2020-02-01T11:39:28.000Z</time>
      </trkpt>
      <trkpt lat="42.84052" lon="0.50624">
        <ele>1815</ele>
        <time>2020-02-01T11:39:29.000Z</time>
      </trkpt>
      <trkpt lat="42.84052" lon="0.50624">
        <ele>1815</ele>
        <time>2020-02-01T11:39:30.000Z</time>
      </trkpt>
      <trkpt lat="42.84052" lon="0.50624">
        <ele>1815</ele>
        <time>2020-02-01T11:39:31.000Z</time>
      </trkpt>
      <trkpt lat="42.84052" lon="0.50624">
        <ele>1815</ele>
        <time>2020-02-01T11:39:32.000Z</time>
      </trkpt>
      <trkpt lat="42.84052" lon="0.50624">
        <ele>1815</ele>
        <time>2020-02-01T11:39:33.000Z</time>
      </trkpt>
      <trkpt lat="42.84052" lon="0.50624">
        <ele>1815</ele>
        <time>2020-02-01T11:39:34.000Z</time>
      </trkpt>
      <trkpt lat="42.84052" lon="0.50624">
        <ele>1815</ele>
        <time>2020-02-01T11:39:35.000Z</time>
      </trkpt>
      <trkpt lat="42.84052" lon="0.50624">
        <ele>1816</ele>
        <time>2020-02-01T11:39:36.000Z</time>
      </trkpt>
      <trkpt lat="42.84052" lon="0.50624">
        <ele>1816</ele>
        <time>2020-02-01T11:39:37.000Z</time>
      </trkpt>
      <trkpt lat="42.84051" lon="0.50624">
        <ele>1816</ele>
        <time>2020-02-01T11:39:38.000Z</time>
      </trkpt>
      <trkpt lat="42.84051" lon="0.50624">
        <ele>1816</ele>
        <time>2020-02-01T11:39:39.000Z</time>
      </trkpt>
      <trkpt lat="42.84051" lon="0.50624">
        <ele>1816</ele>
        <time>2020-02-01T11:39:40.000Z</time>
      </trkpt>
      <trkpt lat="42.84051" lon="0.50624">
        <ele>1816</ele>
        <time>2020-02-01T11:39:41.000Z</time>
      </trkpt>
      <trkpt lat="42.8405" lon="0.50624">
        <ele>1816</ele>
        <time>2020-02-01T11:39:42.000Z</time>
      </trkpt>
      <trkpt lat="42.8405" lon="0.50624">
        <ele>1816</ele>
        <time>2020-02-01T11:39:43.000Z</time>
      </trkpt>
      <trkpt lat="42.8405" lon="0.50625">
        <ele>1816</ele>
        <time>2020-02-01T11:39:44.000Z</time>
      </trkpt>
      <trkpt lat="42.8405" lon="0.50625">
        <ele>1816</ele>
        <time>2020-02-01T11:39:45.000Z</time>
      </trkpt>
      <trkpt lat="42.8405" lon="0.50625">
        <ele>1816</ele>
        <time>2020-02-01T11:39:46.000Z</time>
      </trkpt>
      <trkpt lat="42.8405" lon="0.50624">
        <ele>1816</ele>
        <time>2020-02-01T11:39:47.000Z</time>
      </trkpt>
      <trkpt lat="42.84049" lon="0.50624">
        <ele>1816</ele>
        <time>2020-02-01T11:39:48.000Z</time>
      </trkpt>
      <trkpt lat="42.84048" lon="0.50623">
        <ele>1816</ele>
        <time>2020-02-01T11:39:49.000Z</time>
      </trkpt>
      <trkpt lat="42.84047" lon="0.50622">
        <ele>1816</ele>
        <time>2020-02-01T11:39:50.000Z</time>
      </trkpt>
      <trkpt lat="42.84047" lon="0.50622">
        <ele>1816</ele>
        <time>2020-02-01T11:39:51.000Z</time>
      </trkpt>
      <trkpt lat="42.84047" lon="0.50622">
        <ele>1816</ele>
        <time>2020-02-01T11:39:52.000Z</time>
      </trkpt>
      <trkpt lat="42.84047" lon="0.50622">
        <ele>1816</ele>
        <time>2020-02-01T11:39:53.000Z</time>
      </trkpt>
      <trkpt lat="42.84047" lon="0.50622">
        <ele>1816</ele>
        <time>2020-02-01T11:39:54.000Z</time>
      </trkpt>
      <trkpt lat="42.84046" lon="0.50622">
        <ele>1816</ele>
        <time>2020-02-01T11:39:55.000Z</time>
      </trkpt>
      <trkpt lat="42.84046" lon="0.50622">
        <ele>1816</ele>
        <time>2020-02-01T11:39:56.000Z</time>
      </trkpt>
      <trkpt lat="42.84046" lon="0.50622">
        <ele>1816</ele>
        <time>2020-02-01T11:39:57.000Z</time>
      </trkpt>
      <trkpt lat="42.84045" lon="0.50622">
        <ele>1816</ele>
        <time>2020-02-01T11:39:58.000Z</time>
      </trkpt>
      <trkpt lat="42.84045" lon="0.50622">
        <ele>1816</ele>
        <time>2020-02-01T11:39:59.000Z</time>
      </trkpt>
      <trkpt lat="42.84045" lon="0.50622">
        <ele>1816</ele>
        <time>2020-02-01T11:40:00.000Z</time>
      </trkpt>
      <trkpt lat="42.84045" lon="0.50622">
        <ele>1816</ele>
        <time>2020-02-01T11:40:01.000Z</time>
      </trkpt>
      <trkpt lat="42.84045" lon="0.50622">
        <ele>1816</ele>
        <time>2020-02-01T11:40:02.000Z</time>
      </trkpt>
      <trkpt lat="42.84045" lon="0.50622">
        <ele>1816</ele>
        <time>2020-02-01T11:40:03.000Z</time>
      </trkpt>
      <trkpt lat="42.84045" lon="0.50622">
        <ele>1816</ele>
        <time>2020-02-01T11:40:04.000Z</time>
      </trkpt>
      <trkpt lat="42.84045" lon="0.50622">
        <ele>1816</ele>
        <time>2020-02-01T11:40:05.000Z</time>
      </trkpt>
      <trkpt lat="42.84045" lon="0.50622">
        <ele>1816</ele>
        <time>2020-02-01T11:40:06.000Z</time>
      </trkpt>
      <trkpt lat="42.84045" lon="0.50622">
        <ele>1816</ele>
        <time>2020-02-01T11:40:07.000Z</time>
      </trkpt>
      <trkpt lat="42.84045" lon="0.50622">
        <ele>1816</ele>
        <time>2020-02-01T11:40:08.000Z</time>
      </trkpt>
      <trkpt lat="42.84044" lon="0.50622">
        <ele>1816</ele>
        <time>2020-02-01T11:40:09.000Z</time>
      </trkpt>
      <trkpt lat="42.84044" lon="0.50622">
        <ele>1816</ele>
        <time>2020-02-01T11:40:10.000Z</time>
      </trkpt>
      <trkpt lat="42.84044" lon="0.50621">
        <ele>1816</ele>
        <time>2020-02-01T11:40:11.000Z</time>
      </trkpt>
      <trkpt lat="42.84044" lon="0.50621">
        <ele>1816</ele>
        <time>2020-02-01T11:40:12.000Z</time>
      </trkpt>
      <trkpt lat="42.84044" lon="0.50621">
        <ele>1816</ele>
        <time>2020-02-01T11:40:13.000Z</time>
      </trkpt>
      <trkpt lat="42.84043" lon="0.5062">
        <ele>1816</ele>
        <time>2020-02-01T11:40:14.000Z</time>
      </trkpt>
      <trkpt lat="42.84043" lon="0.5062">
        <ele>1816</ele>
        <time>2020-02-01T11:40:15.000Z</time>
      </trkpt>
      <trkpt lat="42.84043" lon="0.50619">
        <ele>1816</ele>
        <time>2020-02-01T11:40:16.000Z</time>
      </trkpt>
      <trkpt lat="42.84042" lon="0.50619">
        <ele>1816</ele>
        <time>2020-02-01T11:40:17.000Z</time>
      </trkpt>
      <trkpt lat="42.84042" lon="0.50618">
        <ele>1816</ele>
        <time>2020-02-01T11:40:18.000Z</time>
      </trkpt>
      <trkpt lat="42.84041" lon="0.50617">
        <ele>1816</ele>
        <time>2020-02-01T11:40:19.000Z</time>
      </trkpt>
      <trkpt lat="42.84041" lon="0.50616">
        <ele>1816</ele>
        <time>2020-02-01T11:40:20.000Z</time>
      </trkpt>
      <trkpt lat="42.8404" lon="0.50615">
        <ele>1816</ele>
        <time>2020-02-01T11:40:21.000Z</time>
      </trkpt>
      <trkpt lat="42.8404" lon="0.50614">
        <ele>1816</ele>
        <time>2020-02-01T11:40:22.000Z</time>
      </trkpt>
      <trkpt lat="42.84039" lon="0.50613">
        <ele>1816</ele>
        <time>2020-02-01T11:40:23.000Z</time>
      </trkpt>
      <trkpt lat="42.84039" lon="0.50612">
        <ele>1816</ele>
        <time>2020-02-01T11:40:24.000Z</time>
      </trkpt>
      <trkpt lat="42.84038" lon="0.50612">
        <ele>1816</ele>
        <time>2020-02-01T11:40:25.000Z</time>
      </trkpt>
      <trkpt lat="42.84038" lon="0.50611">
        <ele>1816</ele>
        <time>2020-02-01T11:40:26.000Z</time>
      </trkpt>
      <trkpt lat="42.84038" lon="0.5061">
        <ele>1816</ele>
        <time>2020-02-01T11:40:27.000Z</time>
      </trkpt>
      <trkpt lat="42.84038" lon="0.50609">
        <ele>1816</ele>
        <time>2020-02-01T11:40:28.000Z</time>
      </trkpt>
      <trkpt lat="42.84038" lon="0.50608">
        <ele>1816</ele>
        <time>2020-02-01T11:40:29.000Z</time>
      </trkpt>
      <trkpt lat="42.84038" lon="0.50607">
        <ele>1816</ele>
        <time>2020-02-01T11:40:30.000Z</time>
      </trkpt>
      <trkpt lat="42.84037" lon="0.50607">
        <ele>1816</ele>
        <time>2020-02-01T11:40:31.000Z</time>
      </trkpt>
      <trkpt lat="42.84037" lon="0.50606">
        <ele>1816</ele>
        <time>2020-02-01T11:40:32.000Z</time>
      </trkpt>
      <trkpt lat="42.84036" lon="0.50605">
        <ele>1816</ele>
        <time>2020-02-01T11:40:33.000Z</time>
      </trkpt>
      <trkpt lat="42.84036" lon="0.50604">
        <ele>1816</ele>
        <time>2020-02-01T11:40:34.000Z</time>
      </trkpt>
      <trkpt lat="42.84035" lon="0.50604">
        <ele>1816</ele>
        <time>2020-02-01T11:40:35.000Z</time>
      </trkpt>
      <trkpt lat="42.84035" lon="0.50604">
        <ele>1816</ele>
        <time>2020-02-01T11:40:36.000Z</time>
      </trkpt>
      <trkpt lat="42.84035" lon="0.50604">
        <ele>1816</ele>
        <time>2020-02-01T11:40:37.000Z</time>
      </trkpt>
      <trkpt lat="42.84035" lon="0.50604">
        <ele>1816</ele>
        <time>2020-02-01T11:40:38.000Z</time>
      </trkpt>
      <trkpt lat="42.84035" lon="0.50603">
        <ele>1816.5</ele>
        <time>2020-02-01T11:40:39.000Z</time>
      </trkpt>
      <trkpt lat="42.84034" lon="0.50603">
        <ele>1817</ele>
        <time>2020-02-01T11:40:40.000Z</time>
      </trkpt>
      <trkpt lat="42.84034" lon="0.50602">
        <ele>1817</ele>
        <time>2020-02-01T11:40:41.000Z</time>
      </trkpt>
      <trkpt lat="42.84034" lon="0.50602">
        <ele>1817</ele>
        <time>2020-02-01T11:40:42.000Z</time>
      </trkpt>
      <trkpt lat="42.84034" lon="0.50601">
        <ele>1817</ele>
        <time>2020-02-01T11:40:43.000Z</time>
      </trkpt>
      <trkpt lat="42.84033" lon="0.50601">
        <ele>1817</ele>
        <time>2020-02-01T11:40:44.000Z</time>
      </trkpt>
      <trkpt lat="42.84033" lon="0.50601">
        <ele>1817</ele>
        <time>2020-02-01T11:40:45.000Z</time>
      </trkpt>
      <trkpt lat="42.84032" lon="0.506">
        <ele>1817</ele>
        <time>2020-02-01T11:40:46.000Z</time>
      </trkpt>
      <trkpt lat="42.84032" lon="0.506">
        <ele>1817</ele>
        <time>2020-02-01T11:40:47.000Z</time>
      </trkpt>
      <trkpt lat="42.84031" lon="0.50599">
        <ele>1817</ele>
        <time>2020-02-01T11:40:48.000Z</time>
      </trkpt>
      <trkpt lat="42.84031" lon="0.50598">
        <ele>1817</ele>
        <time>2020-02-01T11:40:49.000Z</time>
      </trkpt>
      <trkpt lat="42.8403" lon="0.50598">
        <ele>1817</ele>
        <time>2020-02-01T11:40:50.000Z</time>
      </trkpt>
      <trkpt lat="42.8403" lon="0.50597">
        <ele>1817.3</ele>
        <time>2020-02-01T11:40:51.000Z</time>
      </trkpt>
      <trkpt lat="42.8403" lon="0.50597">
        <ele>1817.7</ele>
        <time>2020-02-01T11:40:52.000Z</time>
      </trkpt>
      <trkpt lat="42.8403" lon="0.50596">
        <ele>1818</ele>
        <time>2020-02-01T11:40:53.000Z</time>
      </trkpt>
      <trkpt lat="42.84029" lon="0.50596">
        <ele>1818</ele>
        <time>2020-02-01T11:40:54.000Z</time>
      </trkpt>
      <trkpt lat="42.84029" lon="0.50596">
        <ele>1818</ele>
        <time>2020-02-01T11:40:55.000Z</time>
      </trkpt>
      <trkpt lat="42.84029" lon="0.50595">
        <ele>1818</ele>
        <time>2020-02-01T11:40:56.000Z</time>
      </trkpt>
      <trkpt lat="42.84029" lon="0.50595">
        <ele>1818</ele>
        <time>2020-02-01T11:40:57.000Z</time>
      </trkpt>
      <trkpt lat="42.84029" lon="0.50595">
        <ele>1818</ele>
        <time>2020-02-01T11:40:58.000Z</time>
      </trkpt>
      <trkpt lat="42.84029" lon="0.50594">
        <ele>1818.3</ele>
        <time>2020-02-01T11:40:59.000Z</time>
      </trkpt>
      <trkpt lat="42.84029" lon="0.50594">
        <ele>1818.7</ele>
        <time>2020-02-01T11:41:00.000Z</time>
      </trkpt>
      <trkpt lat="42.84028" lon="0.50593">
        <ele>1819</ele>
        <time>2020-02-01T11:41:01.000Z</time>
      </trkpt>
      <trkpt lat="42.84028" lon="0.50593">
        <ele>1819</ele>
        <time>2020-02-01T11:41:02.000Z</time>
      </trkpt>
      <trkpt lat="42.84028" lon="0.50593">
        <ele>1819</ele>
        <time>2020-02-01T11:41:03.000Z</time>
      </trkpt>
      <trkpt lat="42.84028" lon="0.50592">
        <ele>1819</ele>
        <time>2020-02-01T11:41:04.000Z</time>
      </trkpt>
      <trkpt lat="42.84028" lon="0.50592">
        <ele>1819</ele>
        <time>2020-02-01T11:41:05.000Z</time>
      </trkpt>
      <trkpt lat="42.84027" lon="0.50592">
        <ele>1819</ele>
        <time>2020-02-01T11:41:06.000Z</time>
      </trkpt>
      <trkpt lat="42.84027" lon="0.50592">
        <ele>1819</ele>
        <time>2020-02-01T11:41:07.000Z</time>
      </trkpt>
      <trkpt lat="42.84027" lon="0.50592">
        <ele>1819</ele>
        <time>2020-02-01T11:41:08.000Z</time>
      </trkpt>
      <trkpt lat="42.84027" lon="0.50591">
        <ele>1819</ele>
        <time>2020-02-01T11:41:09.000Z</time>
      </trkpt>
      <trkpt lat="42.84027" lon="0.50591">
        <ele>1819</ele>
        <time>2020-02-01T11:41:10.000Z</time>
      </trkpt>
      <trkpt lat="42.84027" lon="0.50591">
        <ele>1819</ele>
        <time>2020-02-01T11:41:11.000Z</time>
      </trkpt>
      <trkpt lat="42.84027" lon="0.50591">
        <ele>1819</ele>
        <time>2020-02-01T11:41:12.000Z</time>
      </trkpt>
      <trkpt lat="42.84027" lon="0.50591">
        <ele>1819</ele>
        <time>2020-02-01T11:41:13.000Z</time>
      </trkpt>
      <trkpt lat="42.84027" lon="0.50591">
        <ele>1819</ele>
        <time>2020-02-01T11:41:14.000Z</time>
      </trkpt>
      <trkpt lat="42.84027" lon="0.50591">
        <ele>1819</ele>
        <time>2020-02-01T11:41:15.000Z</time>
      </trkpt>
      <trkpt lat="42.84027" lon="0.50591">
        <ele>1819</ele>
        <time>2020-02-01T11:41:16.000Z</time>
      </trkpt>
      <trkpt lat="42.84027" lon="0.50591">
        <ele>1819</ele>
        <time>2020-02-01T11:41:17.000Z</time>
      </trkpt>
      <trkpt lat="42.84027" lon="0.50591">
        <ele>1819</ele>
        <time>2020-02-01T11:41:18.000Z</time>
      </trkpt>
      <trkpt lat="42.84026" lon="0.50591">
        <ele>1819</ele>
        <time>2020-02-01T11:41:19.000Z</time>
      </trkpt>
      <trkpt lat="42.84026" lon="0.5059">
        <ele>1819</ele>
        <time>2020-02-01T11:41:20.000Z</time>
      </trkpt>
      <trkpt lat="42.84026" lon="0.5059">
        <ele>1819</ele>
        <time>2020-02-01T11:41:21.000Z</time>
      </trkpt>
      <trkpt lat="42.84026" lon="0.50589">
        <ele>1819</ele>
        <time>2020-02-01T11:41:22.000Z</time>
      </trkpt>
      <trkpt lat="42.84026" lon="0.50588">
        <ele>1819.3</ele>
        <time>2020-02-01T11:41:23.000Z</time>
      </trkpt>
      <trkpt lat="42.84026" lon="0.50588">
        <ele>1819.7</ele>
        <time>2020-02-01T11:41:24.000Z</time>
      </trkpt>
      <trkpt lat="42.84025" lon="0.50587">
        <ele>1820</ele>
        <time>2020-02-01T11:41:25.000Z</time>
      </trkpt>
      <trkpt lat="42.84025" lon="0.50586">
        <ele>1820</ele>
        <time>2020-02-01T11:41:26.000Z</time>
      </trkpt>
      <trkpt lat="42.84025" lon="0.50585">
        <ele>1820</ele>
        <time>2020-02-01T11:41:27.000Z</time>
      </trkpt>
      <trkpt lat="42.84025" lon="0.50585">
        <ele>1820</ele>
        <time>2020-02-01T11:41:28.000Z</time>
      </trkpt>
      <trkpt lat="42.84024" lon="0.50584">
        <ele>1820</ele>
        <time>2020-02-01T11:41:29.000Z</time>
      </trkpt>
      <trkpt lat="42.84024" lon="0.50583">
        <ele>1820.5</ele>
        <time>2020-02-01T11:41:30.000Z</time>
      </trkpt>
      <trkpt lat="42.84024" lon="0.50582">
        <ele>1821</ele>
        <time>2020-02-01T11:41:31.000Z</time>
      </trkpt>
      <trkpt lat="42.84023" lon="0.50582">
        <ele>1821</ele>
        <time>2020-02-01T11:41:32.000Z</time>
      </trkpt>
      <trkpt lat="42.84023" lon="0.50581">
        <ele>1821</ele>
        <time>2020-02-01T11:41:33.000Z</time>
      </trkpt>
      <trkpt lat="42.84022" lon="0.50581">
        <ele>1821</ele>
        <time>2020-02-01T11:41:34.000Z</time>
      </trkpt>
      <trkpt lat="42.84022" lon="0.5058">
        <ele>1821</ele>
        <time>2020-02-01T11:41:35.000Z</time>
      </trkpt>
      <trkpt lat="42.84022" lon="0.5058">
        <ele>1821</ele>
        <time>2020-02-01T11:41:36.000Z</time>
      </trkpt>
      <trkpt lat="42.84021" lon="0.50579">
        <ele>1821</ele>
        <time>2020-02-01T11:41:37.000Z</time>
      </trkpt>
      <trkpt lat="42.84021" lon="0.50579">
        <ele>1821</ele>
        <time>2020-02-01T11:41:38.000Z</time>
      </trkpt>
      <trkpt lat="42.8402" lon="0.50578">
        <ele>1821</ele>
        <time>2020-02-01T11:41:39.000Z</time>
      </trkpt>
      <trkpt lat="42.8402" lon="0.50578">
        <ele>1821.5</ele>
        <time>2020-02-01T11:41:40.000Z</time>
      </trkpt>
      <trkpt lat="42.84019" lon="0.50577">
        <ele>1822</ele>
        <time>2020-02-01T11:41:41.000Z</time>
      </trkpt>
      <trkpt lat="42.84019" lon="0.50577">
        <ele>1822</ele>
        <time>2020-02-01T11:41:42.000Z</time>
      </trkpt>
      <trkpt lat="42.84019" lon="0.50576">
        <ele>1822</ele>
        <time>2020-02-01T11:41:43.000Z</time>
      </trkpt>
      <trkpt lat="42.84018" lon="0.50575">
        <ele>1822.5</ele>
        <time>2020-02-01T11:41:44.000Z</time>
      </trkpt>
      <trkpt lat="42.84018" lon="0.50575">
        <ele>1823</ele>
        <time>2020-02-01T11:41:45.000Z</time>
      </trkpt>
      <trkpt lat="42.84018" lon="0.50574">
        <ele>1823</ele>
        <time>2020-02-01T11:41:46.000Z</time>
      </trkpt>
      <trkpt lat="42.84018" lon="0.50574">
        <ele>1823</ele>
        <time>2020-02-01T11:41:47.000Z</time>
      </trkpt>
      <trkpt lat="42.84017" lon="0.50573">
        <ele>1823</ele>
        <time>2020-02-01T11:41:48.000Z</time>
      </trkpt>
      <trkpt lat="42.84017" lon="0.50573">
        <ele>1823</ele>
        <time>2020-02-01T11:41:49.000Z</time>
      </trkpt>
      <trkpt lat="42.84017" lon="0.50573">
        <ele>1823</ele>
        <time>2020-02-01T11:41:50.000Z</time>
      </trkpt>
      <trkpt lat="42.84017" lon="0.50573">
        <ele>1823</ele>
        <time>2020-02-01T11:41:51.000Z</time>
      </trkpt>
      <trkpt lat="42.84017" lon="0.50572">
        <ele>1823</ele>
        <time>2020-02-01T11:41:52.000Z</time>
      </trkpt>
      <trkpt lat="42.84017" lon="0.50572">
        <ele>1823</ele>
        <time>2020-02-01T11:41:53.000Z</time>
      </trkpt>
      <trkpt lat="42.84017" lon="0.50572">
        <ele>1823</ele>
        <time>2020-02-01T11:41:54.000Z</time>
      </trkpt>
      <trkpt lat="42.84017" lon="0.50572">
        <ele>1823</ele>
        <time>2020-02-01T11:41:55.000Z</time>
      </trkpt>
      <trkpt lat="42.84017" lon="0.50572">
        <ele>1823</ele>
        <time>2020-02-01T11:41:56.000Z</time>
      </trkpt>
      <trkpt lat="42.84017" lon="0.50572">
        <ele>1823</ele>
        <time>2020-02-01T11:41:57.000Z</time>
      </trkpt>
      <trkpt lat="42.84016" lon="0.50571">
        <ele>1823.5</ele>
        <time>2020-02-01T11:41:58.000Z</time>
      </trkpt>
      <trkpt lat="42.84016" lon="0.5057">
        <ele>1824</ele>
        <time>2020-02-01T11:41:59.000Z</time>
      </trkpt>
      <trkpt lat="42.84015" lon="0.5057">
        <ele>1824</ele>
        <time>2020-02-01T11:42:00.000Z</time>
      </trkpt>
      <trkpt lat="42.84015" lon="0.50569">
        <ele>1824</ele>
        <time>2020-02-01T11:42:01.000Z</time>
      </trkpt>
      <trkpt lat="42.84015" lon="0.50569">
        <ele>1824</ele>
        <time>2020-02-01T11:42:02.000Z</time>
      </trkpt>
      <trkpt lat="42.84015" lon="0.50568">
        <ele>1824</ele>
        <time>2020-02-01T11:42:03.000Z</time>
      </trkpt>
      <trkpt lat="42.84015" lon="0.50568">
        <ele>1824</ele>
        <time>2020-02-01T11:42:04.000Z</time>
      </trkpt>
      <trkpt lat="42.84015" lon="0.50568">
        <ele>1824</ele>
        <time>2020-02-01T11:42:05.000Z</time>
      </trkpt>
      <trkpt lat="42.84014" lon="0.50567">
        <ele>1824.5</ele>
        <time>2020-02-01T11:42:06.000Z</time>
      </trkpt>
      <trkpt lat="42.84014" lon="0.50567">
        <ele>1825</ele>
        <time>2020-02-01T11:42:07.000Z</time>
      </trkpt>
      <trkpt lat="42.84014" lon="0.50566">
        <ele>1825</ele>
        <time>2020-02-01T11:42:08.000Z</time>
      </trkpt>
      <trkpt lat="42.84014" lon="0.50566">
        <ele>1825</ele>
        <time>2020-02-01T11:42:09.000Z</time>
      </trkpt>
      <trkpt lat="42.84013" lon="0.50565">
        <ele>1825</ele>
        <time>2020-02-01T11:42:10.000Z</time>
      </trkpt>
      <trkpt lat="42.84013" lon="0.50564">
        <ele>1825</ele>
        <time>2020-02-01T11:42:11.000Z</time>
      </trkpt>
      <trkpt lat="42.84012" lon="0.50564">
        <ele>1825</ele>
        <time>2020-02-01T11:42:12.000Z</time>
      </trkpt>
      <trkpt lat="42.84012" lon="0.50563">
        <ele>1825</ele>
        <time>2020-02-01T11:42:13.000Z</time>
      </trkpt>
      <trkpt lat="42.84011" lon="0.50563">
        <ele>1825.5</ele>
        <time>2020-02-01T11:42:14.000Z</time>
      </trkpt>
      <trkpt lat="42.84011" lon="0.50562">
        <ele>1826</ele>
        <time>2020-02-01T11:42:15.000Z</time>
      </trkpt>
      <trkpt lat="42.8401" lon="0.50562">
        <ele>1826</ele>
        <time>2020-02-01T11:42:16.000Z</time>
      </trkpt>
      <trkpt lat="42.8401" lon="0.50561">
        <ele>1826</ele>
        <time>2020-02-01T11:42:17.000Z</time>
      </trkpt>
      <trkpt lat="42.8401" lon="0.50561">
        <ele>1826</ele>
        <time>2020-02-01T11:42:18.000Z</time>
      </trkpt>
      <trkpt lat="42.8401" lon="0.50561">
        <ele>1826</ele>
        <time>2020-02-01T11:42:19.000Z</time>
      </trkpt>
      <trkpt lat="42.8401" lon="0.50561">
        <ele>1826.5</ele>
        <time>2020-02-01T11:42:20.000Z</time>
      </trkpt>
      <trkpt lat="42.8401" lon="0.50561">
        <ele>1827</ele>
        <time>2020-02-01T11:42:21.000Z</time>
      </trkpt>
      <trkpt lat="42.8401" lon="0.50561">
        <ele>1827</ele>
        <time>2020-02-01T11:42:22.000Z</time>
      </trkpt>
      <trkpt lat="42.84009" lon="0.50561">
        <ele>1827</ele>
        <time>2020-02-01T11:42:23.000Z</time>
      </trkpt>
      <trkpt lat="42.84009" lon="0.50561">
        <ele>1827</ele>
        <time>2020-02-01T11:42:24.000Z</time>
      </trkpt>
      <trkpt lat="42.84009" lon="0.5056">
        <ele>1827</ele>
        <time>2020-02-01T11:42:25.000Z</time>
      </trkpt>
      <trkpt lat="42.84008" lon="0.5056">
        <ele>1827.5</ele>
        <time>2020-02-01T11:42:26.000Z</time>
      </trkpt>
      <trkpt lat="42.84008" lon="0.50559">
        <ele>1828</ele>
        <time>2020-02-01T11:42:27.000Z</time>
      </trkpt>
      <trkpt lat="42.84007" lon="0.50558">
        <ele>1828</ele>
        <time>2020-02-01T11:42:28.000Z</time>
      </trkpt>
      <trkpt lat="42.84007" lon="0.50557">
        <ele>1828</ele>
        <time>2020-02-01T11:42:29.000Z</time>
      </trkpt>
      <trkpt lat="42.84007" lon="0.50556">
        <ele>1828</ele>
        <time>2020-02-01T11:42:30.000Z</time>
      </trkpt>
      <trkpt lat="42.84006" lon="0.50556">
        <ele>1828</ele>
        <time>2020-02-01T11:42:31.000Z</time>
      </trkpt>
      <trkpt lat="42.84006" lon="0.50555">
        <ele>1828</ele>
        <time>2020-02-01T11:42:32.000Z</time>
      </trkpt>
      <trkpt lat="42.84006" lon="0.50554">
        <ele>1828</ele>
        <time>2020-02-01T11:42:33.000Z</time>
      </trkpt>
      <trkpt lat="42.84006" lon="0.50553">
        <ele>1828.5</ele>
        <time>2020-02-01T11:42:34.000Z</time>
      </trkpt>
      <trkpt lat="42.84007" lon="0.50553">
        <ele>1829</ele>
        <time>2020-02-01T11:42:35.000Z</time>
      </trkpt>
      <trkpt lat="42.84007" lon="0.50552">
        <ele>1829</ele>
        <time>2020-02-01T11:42:36.000Z</time>
      </trkpt>
      <trkpt lat="42.84007" lon="0.50552">
        <ele>1829</ele>
        <time>2020-02-01T11:42:37.000Z</time>
      </trkpt>
      <trkpt lat="42.84007" lon="0.50551">
        <ele>1829</ele>
        <time>2020-02-01T11:42:38.000Z</time>
      </trkpt>
      <trkpt lat="42.84007" lon="0.50551">
        <ele>1829</ele>
        <time>2020-02-01T11:42:39.000Z</time>
      </trkpt>
      <trkpt lat="42.84006" lon="0.50551">
        <ele>1829</ele>
        <time>2020-02-01T11:42:40.000Z</time>
      </trkpt>
      <trkpt lat="42.84006" lon="0.50551">
        <ele>1829</ele>
        <time>2020-02-01T11:42:41.000Z</time>
      </trkpt>
      <trkpt lat="42.84006" lon="0.50551">
        <ele>1829.5</ele>
        <time>2020-02-01T11:42:42.000Z</time>
      </trkpt>
      <trkpt lat="42.84006" lon="0.50551">
        <ele>1830</ele>
        <time>2020-02-01T11:42:43.000Z</time>
      </trkpt>
      <trkpt lat="42.84006" lon="0.50551">
        <ele>1830</ele>
        <time>2020-02-01T11:42:44.000Z</time>
      </trkpt>
      <trkpt lat="42.84006" lon="0.50551">
        <ele>1830</ele>
        <time>2020-02-01T11:42:45.000Z</time>
      </trkpt>
      <trkpt lat="42.84006" lon="0.5055">
        <ele>1830</ele>
        <time>2020-02-01T11:42:46.000Z</time>
      </trkpt>
      <trkpt lat="42.84005" lon="0.5055">
        <ele>1830</ele>
        <time>2020-02-01T11:42:47.000Z</time>
      </trkpt>
      <trkpt lat="42.84005" lon="0.5055">
        <ele>1830</ele>
        <time>2020-02-01T11:42:48.000Z</time>
      </trkpt>
      <trkpt lat="42.84004" lon="0.5055">
        <ele>1830</ele>
        <time>2020-02-01T11:42:49.000Z</time>
      </trkpt>
      <trkpt lat="42.84003" lon="0.50549">
        <ele>1830.5</ele>
        <time>2020-02-01T11:42:50.000Z</time>
      </trkpt>
      <trkpt lat="42.84002" lon="0.50549">
        <ele>1831</ele>
        <time>2020-02-01T11:42:51.000Z</time>
      </trkpt>
      <trkpt lat="42.84002" lon="0.50549">
        <ele>1831</ele>
        <time>2020-02-01T11:42:52.000Z</time>
      </trkpt>
      <trkpt lat="42.84001" lon="0.50549">
        <ele>1831</ele>
        <time>2020-02-01T11:42:53.000Z</time>
      </trkpt>
      <trkpt lat="42.84001" lon="0.50549">
        <ele>1831</ele>
        <time>2020-02-01T11:42:54.000Z</time>
      </trkpt>
      <trkpt lat="42.84" lon="0.50549">
        <ele>1831</ele>
        <time>2020-02-01T11:42:55.000Z</time>
      </trkpt>
      <trkpt lat="42.84" lon="0.50548">
        <ele>1831</ele>
        <time>2020-02-01T11:42:56.000Z</time>
      </trkpt>
      <trkpt lat="42.83999" lon="0.50548">
        <ele>1831.3</ele>
        <time>2020-02-01T11:42:57.000Z</time>
      </trkpt>
      <trkpt lat="42.83999" lon="0.50548">
        <ele>1831.7</ele>
        <time>2020-02-01T11:42:58.000Z</time>
      </trkpt>
      <trkpt lat="42.83999" lon="0.50548">
        <ele>1832</ele>
        <time>2020-02-01T11:42:59.000Z</time>
      </trkpt>
      <trkpt lat="42.83998" lon="0.50547">
        <ele>1832</ele>
        <time>2020-02-01T11:43:00.000Z</time>
      </trkpt>
      <trkpt lat="42.83998" lon="0.50547">
        <ele>1832</ele>
        <time>2020-02-01T11:43:01.000Z</time>
      </trkpt>
      <trkpt lat="42.83998" lon="0.50547">
        <ele>1832</ele>
        <time>2020-02-01T11:43:02.000Z</time>
      </trkpt>
      <trkpt lat="42.83997" lon="0.50546">
        <ele>1832</ele>
        <time>2020-02-01T11:43:03.000Z</time>
      </trkpt>
      <trkpt lat="42.83997" lon="0.50546">
        <ele>1832.5</ele>
        <time>2020-02-01T11:43:04.000Z</time>
      </trkpt>
      <trkpt lat="42.83997" lon="0.50546">
        <ele>1833</ele>
        <time>2020-02-01T11:43:05.000Z</time>
      </trkpt>
      <trkpt lat="42.83997" lon="0.50546">
        <ele>1833</ele>
        <time>2020-02-01T11:43:06.000Z</time>
      </trkpt>
      <trkpt lat="42.83997" lon="0.50546">
        <ele>1833</ele>
        <time>2020-02-01T11:43:07.000Z</time>
      </trkpt>
      <trkpt lat="42.83997" lon="0.50546">
        <ele>1833</ele>
        <time>2020-02-01T11:43:08.000Z</time>
      </trkpt>
      <trkpt lat="42.83997" lon="0.50546">
        <ele>1833</ele>
        <time>2020-02-01T11:43:09.000Z</time>
      </trkpt>
      <trkpt lat="42.83997" lon="0.50546">
        <ele>1833</ele>
        <time>2020-02-01T11:43:10.000Z</time>
      </trkpt>
      <trkpt lat="42.83997" lon="0.50546">
        <ele>1833</ele>
        <time>2020-02-01T11:43:11.000Z</time>
      </trkpt>
      <trkpt lat="42.83996" lon="0.50546">
        <ele>1833.5</ele>
        <time>2020-02-01T11:43:12.000Z</time>
      </trkpt>
      <trkpt lat="42.83995" lon="0.50546">
        <ele>1834</ele>
        <time>2020-02-01T11:43:13.000Z</time>
      </trkpt>
      <trkpt lat="42.83995" lon="0.50545">
        <ele>1834</ele>
        <time>2020-02-01T11:43:14.000Z</time>
      </trkpt>
      <trkpt lat="42.83994" lon="0.50545">
        <ele>1834</ele>
        <time>2020-02-01T11:43:15.000Z</time>
      </trkpt>
      <trkpt lat="42.83993" lon="0.50545">
        <ele>1834</ele>
        <time>2020-02-01T11:43:16.000Z</time>
      </trkpt>
      <trkpt lat="42.83993" lon="0.50545">
        <ele>1834.5</ele>
        <time>2020-02-01T11:43:17.000Z</time>
      </trkpt>
      <trkpt lat="42.83992" lon="0.50544">
        <ele>1835</ele>
        <time>2020-02-01T11:43:18.000Z</time>
      </trkpt>
      <trkpt lat="42.83991" lon="0.50544">
        <ele>1835</ele>
        <time>2020-02-01T11:43:19.000Z</time>
      </trkpt>
      <trkpt lat="42.8399" lon="0.50544">
        <ele>1835</ele>
        <time>2020-02-01T11:43:20.000Z</time>
      </trkpt>
      <trkpt lat="42.8399" lon="0.50543">
        <ele>1835</ele>
        <time>2020-02-01T11:43:21.000Z</time>
      </trkpt>
      <trkpt lat="42.83989" lon="0.50543">
        <ele>1835</ele>
        <time>2020-02-01T11:43:22.000Z</time>
      </trkpt>
      <trkpt lat="42.83989" lon="0.50543">
        <ele>1835.3</ele>
        <time>2020-02-01T11:43:23.000Z</time>
      </trkpt>
      <trkpt lat="42.83988" lon="0.50542">
        <ele>1835.7</ele>
        <time>2020-02-01T11:43:24.000Z</time>
      </trkpt>
      <trkpt lat="42.83988" lon="0.50542">
        <ele>1836</ele>
        <time>2020-02-01T11:43:25.000Z</time>
      </trkpt>
      <trkpt lat="42.83987" lon="0.50542">
        <ele>1836</ele>
        <time>2020-02-01T11:43:26.000Z</time>
      </trkpt>
      <trkpt lat="42.83987" lon="0.50541">
        <ele>1836</ele>
        <time>2020-02-01T11:43:27.000Z</time>
      </trkpt>
      <trkpt lat="42.83986" lon="0.50541">
        <ele>1836</ele>
        <time>2020-02-01T11:43:28.000Z</time>
      </trkpt>
      <trkpt lat="42.83986" lon="0.50541">
        <ele>1836</ele>
        <time>2020-02-01T11:43:29.000Z</time>
      </trkpt>
      <trkpt lat="42.83986" lon="0.5054">
        <ele>1836</ele>
        <time>2020-02-01T11:43:30.000Z</time>
      </trkpt>
      <trkpt lat="42.83985" lon="0.5054">
        <ele>1836</ele>
        <time>2020-02-01T11:43:31.000Z</time>
      </trkpt>
      <trkpt lat="42.83985" lon="0.5054">
        <ele>1836.5</ele>
        <time>2020-02-01T11:43:32.000Z</time>
      </trkpt>
      <trkpt lat="42.83985" lon="0.5054">
        <ele>1837</ele>
        <time>2020-02-01T11:43:33.000Z</time>
      </trkpt>
      <trkpt lat="42.83985" lon="0.5054">
        <ele>1837</ele>
        <time>2020-02-01T11:43:34.000Z</time>
      </trkpt>
      <trkpt lat="42.83985" lon="0.5054">
        <ele>1837</ele>
        <time>2020-02-01T11:43:35.000Z</time>
      </trkpt>
      <trkpt lat="42.83985" lon="0.5054">
        <ele>1837</ele>
        <time>2020-02-01T11:43:36.000Z</time>
      </trkpt>
      <trkpt lat="42.83985" lon="0.5054">
        <ele>1837</ele>
        <time>2020-02-01T11:43:37.000Z</time>
      </trkpt>
      <trkpt lat="42.83985" lon="0.50539">
        <ele>1837.5</ele>
        <time>2020-02-01T11:43:38.000Z</time>
      </trkpt>
      <trkpt lat="42.83985" lon="0.50539">
        <ele>1838</ele>
        <time>2020-02-01T11:43:39.000Z</time>
      </trkpt>
      <trkpt lat="42.83984" lon="0.50538">
        <ele>1838</ele>
        <time>2020-02-01T11:43:40.000Z</time>
      </trkpt>
      <trkpt lat="42.83984" lon="0.50537">
        <ele>1838</ele>
        <time>2020-02-01T11:43:41.000Z</time>
      </trkpt>
      <trkpt lat="42.83984" lon="0.50537">
        <ele>1838</ele>
        <time>2020-02-01T11:43:42.000Z</time>
      </trkpt>
      <trkpt lat="42.83984" lon="0.50536">
        <ele>1838</ele>
        <time>2020-02-01T11:43:43.000Z</time>
      </trkpt>
      <trkpt lat="42.83984" lon="0.50536">
        <ele>1838</ele>
        <time>2020-02-01T11:43:44.000Z</time>
      </trkpt>
      <trkpt lat="42.83984" lon="0.50535">
        <ele>1838</ele>
        <time>2020-02-01T11:43:45.000Z</time>
      </trkpt>
      <trkpt lat="42.83984" lon="0.50535">
        <ele>1839</ele>
        <time>2020-02-01T11:43:46.000Z</time>
      </trkpt>
      <trkpt lat="42.83984" lon="0.50534">
        <ele>1839</ele>
        <time>2020-02-01T11:43:47.000Z</time>
      </trkpt>
      <trkpt lat="42.83984" lon="0.50534">
        <ele>1839</ele>
        <time>2020-02-01T11:43:48.000Z</time>
      </trkpt>
      <trkpt lat="42.83984" lon="0.50533">
        <ele>1839</ele>
        <time>2020-02-01T11:43:49.000Z</time>
      </trkpt>
      <trkpt lat="42.83983" lon="0.50533">
        <ele>1839</ele>
        <time>2020-02-01T11:43:50.000Z</time>
      </trkpt>
      <trkpt lat="42.83983" lon="0.50533">
        <ele>1839</ele>
        <time>2020-02-01T11:43:51.000Z</time>
      </trkpt>
      <trkpt lat="42.83983" lon="0.50533">
        <ele>1839.5</ele>
        <time>2020-02-01T11:43:52.000Z</time>
      </trkpt>
      <trkpt lat="42.83983" lon="0.50532">
        <ele>1840</ele>
        <time>2020-02-01T11:43:53.000Z</time>
      </trkpt>
      <trkpt lat="42.83983" lon="0.50532">
        <ele>1840</ele>
        <time>2020-02-01T11:43:54.000Z</time>
      </trkpt>
      <trkpt lat="42.83983" lon="0.50532">
        <ele>1840</ele>
        <time>2020-02-01T11:43:55.000Z</time>
      </trkpt>
      <trkpt lat="42.83983" lon="0.50532">
        <ele>1840</ele>
        <time>2020-02-01T11:43:56.000Z</time>
      </trkpt>
      <trkpt lat="42.83983" lon="0.50532">
        <ele>1840</ele>
        <time>2020-02-01T11:43:57.000Z</time>
      </trkpt>
      <trkpt lat="42.83983" lon="0.50532">
        <ele>1840.5</ele>
        <time>2020-02-01T11:43:58.000Z</time>
      </trkpt>
      <trkpt lat="42.83983" lon="0.50532">
        <ele>1841</ele>
        <time>2020-02-01T11:43:59.000Z</time>
      </trkpt>
      <trkpt lat="42.83983" lon="0.50532">
        <ele>1841</ele>
        <time>2020-02-01T11:44:00.000Z</time>
      </trkpt>
      <trkpt lat="42.83983" lon="0.50532">
        <ele>1841</ele>
        <time>2020-02-01T11:44:01.000Z</time>
      </trkpt>
      <trkpt lat="42.83983" lon="0.50532">
        <ele>1841</ele>
        <time>2020-02-01T11:44:02.000Z</time>
      </trkpt>
      <trkpt lat="42.83982" lon="0.50531">
        <ele>1841</ele>
        <time>2020-02-01T11:44:03.000Z</time>
      </trkpt>
      <trkpt lat="42.83982" lon="0.50531">
        <ele>1841</ele>
        <time>2020-02-01T11:44:04.000Z</time>
      </trkpt>
      <trkpt lat="42.83981" lon="0.50531">
        <ele>1841</ele>
        <time>2020-02-01T11:44:05.000Z</time>
      </trkpt>
      <trkpt lat="42.83981" lon="0.5053">
        <ele>1841.5</ele>
        <time>2020-02-01T11:44:06.000Z</time>
      </trkpt>
      <trkpt lat="42.8398" lon="0.5053">
        <ele>1842</ele>
        <time>2020-02-01T11:44:07.000Z</time>
      </trkpt>
      <trkpt lat="42.8398" lon="0.5053">
        <ele>1842</ele>
        <time>2020-02-01T11:44:08.000Z</time>
      </trkpt>
      <trkpt lat="42.83979" lon="0.50529">
        <ele>1842</ele>
        <time>2020-02-01T11:44:09.000Z</time>
      </trkpt>
      <trkpt lat="42.83979" lon="0.50529">
        <ele>1842</ele>
        <time>2020-02-01T11:44:10.000Z</time>
      </trkpt>
      <trkpt lat="42.83978" lon="0.50528">
        <ele>1842</ele>
        <time>2020-02-01T11:44:11.000Z</time>
      </trkpt>
      <trkpt lat="42.83978" lon="0.50528">
        <ele>1842.5</ele>
        <time>2020-02-01T11:44:12.000Z</time>
      </trkpt>
      <trkpt lat="42.83978" lon="0.50527">
        <ele>1843</ele>
        <time>2020-02-01T11:44:13.000Z</time>
      </trkpt>
      <trkpt lat="42.83978" lon="0.50526">
        <ele>1843</ele>
        <time>2020-02-01T11:44:14.000Z</time>
      </trkpt>
      <trkpt lat="42.83978" lon="0.50526">
        <ele>1843</ele>
        <time>2020-02-01T11:44:15.000Z</time>
      </trkpt>
      <trkpt lat="42.83978" lon="0.50525">
        <ele>1843</ele>
        <time>2020-02-01T11:44:16.000Z</time>
      </trkpt>
      <trkpt lat="42.83978" lon="0.50525">
        <ele>1843</ele>
        <time>2020-02-01T11:44:17.000Z</time>
      </trkpt>
      <trkpt lat="42.83978" lon="0.50524">
        <ele>1843</ele>
        <time>2020-02-01T11:44:18.000Z</time>
      </trkpt>
      <trkpt lat="42.83978" lon="0.50523">
        <ele>1843</ele>
        <time>2020-02-01T11:44:19.000Z</time>
      </trkpt>
      <trkpt lat="42.83977" lon="0.50523">
        <ele>1843.5</ele>
        <time>2020-02-01T11:44:20.000Z</time>
      </trkpt>
      <trkpt lat="42.83977" lon="0.50522">
        <ele>1844</ele>
        <time>2020-02-01T11:44:21.000Z</time>
      </trkpt>
      <trkpt lat="42.83977" lon="0.50522">
        <ele>1844</ele>
        <time>2020-02-01T11:44:22.000Z</time>
      </trkpt>
      <trkpt lat="42.83977" lon="0.50521">
        <ele>1844</ele>
        <time>2020-02-01T11:44:23.000Z</time>
      </trkpt>
      <trkpt lat="42.83977" lon="0.50521">
        <ele>1844</ele>
        <time>2020-02-01T11:44:24.000Z</time>
      </trkpt>
      <trkpt lat="42.83976" lon="0.5052">
        <ele>1844</ele>
        <time>2020-02-01T11:44:25.000Z</time>
      </trkpt>
      <trkpt lat="42.83976" lon="0.5052">
        <ele>1845</ele>
        <time>2020-02-01T11:44:26.000Z</time>
      </trkpt>
      <trkpt lat="42.83976" lon="0.50519">
        <ele>1845</ele>
        <time>2020-02-01T11:44:27.000Z</time>
      </trkpt>
      <trkpt lat="42.83976" lon="0.50519">
        <ele>1845</ele>
        <time>2020-02-01T11:44:28.000Z</time>
      </trkpt>
      <trkpt lat="42.83975" lon="0.50518">
        <ele>1845</ele>
        <time>2020-02-01T11:44:29.000Z</time>
      </trkpt>
      <trkpt lat="42.83975" lon="0.50518">
        <ele>1845</ele>
        <time>2020-02-01T11:44:30.000Z</time>
      </trkpt>
      <trkpt lat="42.83975" lon="0.50518">
        <ele>1845</ele>
        <time>2020-02-01T11:44:31.000Z</time>
      </trkpt>
      <trkpt lat="42.83975" lon="0.50518">
        <ele>1845.5</ele>
        <time>2020-02-01T11:44:32.000Z</time>
      </trkpt>
      <trkpt lat="42.83975" lon="0.50518">
        <ele>1846</ele>
        <time>2020-02-01T11:44:33.000Z</time>
      </trkpt>
      <trkpt lat="42.83975" lon="0.50518">
        <ele>1846</ele>
        <time>2020-02-01T11:44:34.000Z</time>
      </trkpt>
      <trkpt lat="42.83975" lon="0.50518">
        <ele>1846</ele>
        <time>2020-02-01T11:44:35.000Z</time>
      </trkpt>
      <trkpt lat="42.83975" lon="0.50518">
        <ele>1846</ele>
        <time>2020-02-01T11:44:36.000Z</time>
      </trkpt>
      <trkpt lat="42.83975" lon="0.50518">
        <ele>1846</ele>
        <time>2020-02-01T11:44:37.000Z</time>
      </trkpt>
      <trkpt lat="42.83975" lon="0.50518">
        <ele>1846</ele>
        <time>2020-02-01T11:44:38.000Z</time>
      </trkpt>
      <trkpt lat="42.83975" lon="0.50518">
        <ele>1846</ele>
        <time>2020-02-01T11:44:39.000Z</time>
      </trkpt>
      <trkpt lat="42.83974" lon="0.50517">
        <ele>1846.5</ele>
        <time>2020-02-01T11:44:40.000Z</time>
      </trkpt>
      <trkpt lat="42.83974" lon="0.50517">
        <ele>1847</ele>
        <time>2020-02-01T11:44:41.000Z</time>
      </trkpt>
      <trkpt lat="42.83974" lon="0.50517">
        <ele>1847</ele>
        <time>2020-02-01T11:44:42.000Z</time>
      </trkpt>
      <trkpt lat="42.83973" lon="0.50517">
        <ele>1847</ele>
        <time>2020-02-01T11:44:43.000Z</time>
      </trkpt>
      <trkpt lat="42.83973" lon="0.50516">
        <ele>1847</ele>
        <time>2020-02-01T11:44:44.000Z</time>
      </trkpt>
      <trkpt lat="42.83972" lon="0.50516">
        <ele>1847</ele>
        <time>2020-02-01T11:44:45.000Z</time>
      </trkpt>
      <trkpt lat="42.83972" lon="0.50516">
        <ele>1847</ele>
        <time>2020-02-01T11:44:46.000Z</time>
      </trkpt>
      <trkpt lat="42.83971" lon="0.50516">
        <ele>1847</ele>
        <time>2020-02-01T11:44:47.000Z</time>
      </trkpt>
      <trkpt lat="42.83971" lon="0.50515">
        <ele>1847</ele>
        <time>2020-02-01T11:44:48.000Z</time>
      </trkpt>
      <trkpt lat="42.8397" lon="0.50515">
        <ele>1847</ele>
        <time>2020-02-01T11:44:49.000Z</time>
      </trkpt>
      <trkpt lat="42.8397" lon="0.50515">
        <ele>1847.5</ele>
        <time>2020-02-01T11:44:50.000Z</time>
      </trkpt>
      <trkpt lat="42.8397" lon="0.50514">
        <ele>1848</ele>
        <time>2020-02-01T11:44:51.000Z</time>
      </trkpt>
      <trkpt lat="42.83969" lon="0.50514">
        <ele>1848</ele>
        <time>2020-02-01T11:44:52.000Z</time>
      </trkpt>
      <trkpt lat="42.83969" lon="0.50514">
        <ele>1848</ele>
        <time>2020-02-01T11:44:53.000Z</time>
      </trkpt>
      <trkpt lat="42.83969" lon="0.50513">
        <ele>1848</ele>
        <time>2020-02-01T11:44:54.000Z</time>
      </trkpt>
      <trkpt lat="42.83969" lon="0.50513">
        <ele>1848</ele>
        <time>2020-02-01T11:44:55.000Z</time>
      </trkpt>
      <trkpt lat="42.83969" lon="0.50513">
        <ele>1848.5</ele>
        <time>2020-02-01T11:44:56.000Z</time>
      </trkpt>
      <trkpt lat="42.83969" lon="0.50512">
        <ele>1849</ele>
        <time>2020-02-01T11:44:57.000Z</time>
      </trkpt>
      <trkpt lat="42.83968" lon="0.50512">
        <ele>1849</ele>
        <time>2020-02-01T11:44:58.000Z</time>
      </trkpt>
      <trkpt lat="42.83968" lon="0.50512">
        <ele>1849</ele>
        <time>2020-02-01T11:44:59.000Z</time>
      </trkpt>
      <trkpt lat="42.83968" lon="0.50512">
        <ele>1849</ele>
        <time>2020-02-01T11:45:00.000Z</time>
      </trkpt>
      <trkpt lat="42.83968" lon="0.50511">
        <ele>1849</ele>
        <time>2020-02-01T11:45:01.000Z</time>
      </trkpt>
      <trkpt lat="42.83968" lon="0.50511">
        <ele>1849</ele>
        <time>2020-02-01T11:45:02.000Z</time>
      </trkpt>
      <trkpt lat="42.83967" lon="0.50511">
        <ele>1849</ele>
        <time>2020-02-01T11:45:03.000Z</time>
      </trkpt>
      <trkpt lat="42.83967" lon="0.5051">
        <ele>1849</ele>
        <time>2020-02-01T11:45:04.000Z</time>
      </trkpt>
      <trkpt lat="42.83967" lon="0.5051">
        <ele>1849</ele>
        <time>2020-02-01T11:45:05.000Z</time>
      </trkpt>
      <trkpt lat="42.83966" lon="0.5051">
        <ele>1850</ele>
        <time>2020-02-01T11:45:06.000Z</time>
      </trkpt>
      <trkpt lat="42.83966" lon="0.50509">
        <ele>1850</ele>
        <time>2020-02-01T11:45:07.000Z</time>
      </trkpt>
      <trkpt lat="42.83966" lon="0.50508">
        <ele>1850</ele>
        <time>2020-02-01T11:45:08.000Z</time>
      </trkpt>
      <trkpt lat="42.83966" lon="0.50508">
        <ele>1850</ele>
        <time>2020-02-01T11:45:09.000Z</time>
      </trkpt>
      <trkpt lat="42.83966" lon="0.50507">
        <ele>1850</ele>
        <time>2020-02-01T11:45:10.000Z</time>
      </trkpt>
      <trkpt lat="42.83965" lon="0.50506">
        <ele>1850</ele>
        <time>2020-02-01T11:45:11.000Z</time>
      </trkpt>
      <trkpt lat="42.83965" lon="0.50506">
        <ele>1851</ele>
        <time>2020-02-01T11:45:12.000Z</time>
      </trkpt>
      <trkpt lat="42.83965" lon="0.50505">
        <ele>1851</ele>
        <time>2020-02-01T11:45:13.000Z</time>
      </trkpt>
      <trkpt lat="42.83965" lon="0.50505">
        <ele>1851</ele>
        <time>2020-02-01T11:45:14.000Z</time>
      </trkpt>
      <trkpt lat="42.83965" lon="0.50505">
        <ele>1851</ele>
        <time>2020-02-01T11:45:15.000Z</time>
      </trkpt>
      <trkpt lat="42.83965" lon="0.50505">
        <ele>1851</ele>
        <time>2020-02-01T11:45:16.000Z</time>
      </trkpt>
      <trkpt lat="42.83965" lon="0.50505">
        <ele>1851</ele>
        <time>2020-02-01T11:45:17.000Z</time>
      </trkpt>
      <trkpt lat="42.83965" lon="0.50505">
        <ele>1851</ele>
        <time>2020-02-01T11:45:18.000Z</time>
      </trkpt>
      <trkpt lat="42.83965" lon="0.50505">
        <ele>1851</ele>
        <time>2020-02-01T11:45:19.000Z</time>
      </trkpt>
      <trkpt lat="42.83965" lon="0.50505">
        <ele>1851</ele>
        <time>2020-02-01T11:45:20.000Z</time>
      </trkpt>
      <trkpt lat="42.83965" lon="0.50505">
        <ele>1851</ele>
        <time>2020-02-01T11:45:21.000Z</time>
      </trkpt>
      <trkpt lat="42.83965" lon="0.50505">
        <ele>1851</ele>
        <time>2020-02-01T11:45:22.000Z</time>
      </trkpt>
      <trkpt lat="42.83965" lon="0.50505">
        <ele>1851</ele>
        <time>2020-02-01T11:45:23.000Z</time>
      </trkpt>
      <trkpt lat="42.83965" lon="0.50504">
        <ele>1851.5</ele>
        <time>2020-02-01T11:45:24.000Z</time>
      </trkpt>
      <trkpt lat="42.83965" lon="0.50504">
        <ele>1852</ele>
        <time>2020-02-01T11:45:25.000Z</time>
      </trkpt>
      <trkpt lat="42.83964" lon="0.50504">
        <ele>1852</ele>
        <time>2020-02-01T11:45:26.000Z</time>
      </trkpt>
      <trkpt lat="42.83964" lon="0.50503">
        <ele>1852</ele>
        <time>2020-02-01T11:45:27.000Z</time>
      </trkpt>
      <trkpt lat="42.83963" lon="0.50503">
        <ele>1852</ele>
        <time>2020-02-01T11:45:28.000Z</time>
      </trkpt>
      <trkpt lat="42.83962" lon="0.50502">
        <ele>1852</ele>
        <time>2020-02-01T11:45:29.000Z</time>
      </trkpt>
      <trkpt lat="42.83962" lon="0.50502">
        <ele>1852</ele>
        <time>2020-02-01T11:45:30.000Z</time>
      </trkpt>
      <trkpt lat="42.83961" lon="0.50501">
        <ele>1852</ele>
        <time>2020-02-01T11:45:31.000Z</time>
      </trkpt>
      <trkpt lat="42.8396" lon="0.50501">
        <ele>1852.5</ele>
        <time>2020-02-01T11:45:32.000Z</time>
      </trkpt>
      <trkpt lat="42.8396" lon="0.50501">
        <ele>1853</ele>
        <time>2020-02-01T11:45:33.000Z</time>
      </trkpt>
      <trkpt lat="42.83959" lon="0.505">
        <ele>1853</ele>
        <time>2020-02-01T11:45:34.000Z</time>
      </trkpt>
      <trkpt lat="42.83959" lon="0.505">
        <ele>1853</ele>
        <time>2020-02-01T11:45:35.000Z</time>
      </trkpt>
      <trkpt lat="42.83959" lon="0.505">
        <ele>1853</ele>
        <time>2020-02-01T11:45:36.000Z</time>
      </trkpt>
      <trkpt lat="42.83958" lon="0.505">
        <ele>1853</ele>
        <time>2020-02-01T11:45:37.000Z</time>
      </trkpt>
      <trkpt lat="42.83958" lon="0.505">
        <ele>1853.5</ele>
        <time>2020-02-01T11:45:38.000Z</time>
      </trkpt>
      <trkpt lat="42.83958" lon="0.505">
        <ele>1854</ele>
        <time>2020-02-01T11:45:39.000Z</time>
      </trkpt>
      <trkpt lat="42.83958" lon="0.505">
        <ele>1854</ele>
        <time>2020-02-01T11:45:40.000Z</time>
      </trkpt>
      <trkpt lat="42.83957" lon="0.505">
        <ele>1854</ele>
        <time>2020-02-01T11:45:41.000Z</time>
      </trkpt>
      <trkpt lat="42.83957" lon="0.505">
        <ele>1854</ele>
        <time>2020-02-01T11:45:42.000Z</time>
      </trkpt>
      <trkpt lat="42.83957" lon="0.505">
        <ele>1854</ele>
        <time>2020-02-01T11:45:43.000Z</time>
      </trkpt>
      <trkpt lat="42.83957" lon="0.505">
        <ele>1854</ele>
        <time>2020-02-01T11:45:44.000Z</time>
      </trkpt>
      <trkpt lat="42.83957" lon="0.505">
        <ele>1854</ele>
        <time>2020-02-01T11:45:45.000Z</time>
      </trkpt>
      <trkpt lat="42.83957" lon="0.505">
        <ele>1854</ele>
        <time>2020-02-01T11:45:46.000Z</time>
      </trkpt>
      <trkpt lat="42.83957" lon="0.505">
        <ele>1854.3</ele>
        <time>2020-02-01T11:45:47.000Z</time>
      </trkpt>
      <trkpt lat="42.83957" lon="0.505">
        <ele>1854.7</ele>
        <time>2020-02-01T11:45:48.000Z</time>
      </trkpt>
      <trkpt lat="42.83957" lon="0.505">
        <ele>1855</ele>
        <time>2020-02-01T11:45:49.000Z</time>
      </trkpt>
      <trkpt lat="42.83957" lon="0.505">
        <ele>1855</ele>
        <time>2020-02-01T11:45:50.000Z</time>
      </trkpt>
      <trkpt lat="42.83957" lon="0.505">
        <ele>1855</ele>
        <time>2020-02-01T11:45:51.000Z</time>
      </trkpt>
      <trkpt lat="42.83957" lon="0.505">
        <ele>1855</ele>
        <time>2020-02-01T11:45:52.000Z</time>
      </trkpt>
      <trkpt lat="42.83957" lon="0.505">
        <ele>1855</ele>
        <time>2020-02-01T11:45:53.000Z</time>
      </trkpt>
      <trkpt lat="42.83957" lon="0.505">
        <ele>1855.5</ele>
        <time>2020-02-01T11:45:54.000Z</time>
      </trkpt>
      <trkpt lat="42.83957" lon="0.505">
        <ele>1856</ele>
        <time>2020-02-01T11:45:55.000Z</time>
      </trkpt>
      <trkpt lat="42.83957" lon="0.505">
        <ele>1856</ele>
        <time>2020-02-01T11:45:56.000Z</time>
      </trkpt>
      <trkpt lat="42.83957" lon="0.505">
        <ele>1856</ele>
        <time>2020-02-01T11:45:57.000Z</time>
      </trkpt>
      <trkpt lat="42.83957" lon="0.505">
        <ele>1856</ele>
        <time>2020-02-01T11:45:58.000Z</time>
      </trkpt>
      <trkpt lat="42.83956" lon="0.505">
        <ele>1856</ele>
        <time>2020-02-01T11:45:59.000Z</time>
      </trkpt>
      <trkpt lat="42.83956" lon="0.505">
        <ele>1856</ele>
        <time>2020-02-01T11:46:00.000Z</time>
      </trkpt>
      <trkpt lat="42.83955" lon="0.505">
        <ele>1856</ele>
        <time>2020-02-01T11:46:01.000Z</time>
      </trkpt>
      <trkpt lat="42.83955" lon="0.505">
        <ele>1857</ele>
        <time>2020-02-01T11:46:02.000Z</time>
      </trkpt>
      <trkpt lat="42.83954" lon="0.505">
        <ele>1857</ele>
        <time>2020-02-01T11:46:03.000Z</time>
      </trkpt>
      <trkpt lat="42.83954" lon="0.505">
        <ele>1857</ele>
        <time>2020-02-01T11:46:04.000Z</time>
      </trkpt>
      <trkpt lat="42.83953" lon="0.50501">
        <ele>1857</ele>
        <time>2020-02-01T11:46:05.000Z</time>
      </trkpt>
      <trkpt lat="42.83953" lon="0.50501">
        <ele>1857</ele>
        <time>2020-02-01T11:46:06.000Z</time>
      </trkpt>
      <trkpt lat="42.83952" lon="0.50501">
        <ele>1857</ele>
        <time>2020-02-01T11:46:07.000Z</time>
      </trkpt>
      <trkpt lat="42.83952" lon="0.50501">
        <ele>1857.5</ele>
        <time>2020-02-01T11:46:08.000Z</time>
      </trkpt>
      <trkpt lat="42.83951" lon="0.50501">
        <ele>1858</ele>
        <time>2020-02-01T11:46:09.000Z</time>
      </trkpt>
      <trkpt lat="42.8395" lon="0.50501">
        <ele>1858</ele>
        <time>2020-02-01T11:46:10.000Z</time>
      </trkpt>
      <trkpt lat="42.8395" lon="0.50501">
        <ele>1858</ele>
        <time>2020-02-01T11:46:11.000Z</time>
      </trkpt>
      <trkpt lat="42.83949" lon="0.50501">
        <ele>1858</ele>
        <time>2020-02-01T11:46:12.000Z</time>
      </trkpt>
      <trkpt lat="42.83949" lon="0.505">
        <ele>1858</ele>
        <time>2020-02-01T11:46:13.000Z</time>
      </trkpt>
      <trkpt lat="42.83948" lon="0.505">
        <ele>1858</ele>
        <time>2020-02-01T11:46:14.000Z</time>
      </trkpt>
      <trkpt lat="42.83948" lon="0.505">
        <ele>1858.3</ele>
        <time>2020-02-01T11:46:15.000Z</time>
      </trkpt>
      <trkpt lat="42.83948" lon="0.505">
        <ele>1858.7</ele>
        <time>2020-02-01T11:46:16.000Z</time>
      </trkpt>
      <trkpt lat="42.83948" lon="0.505">
        <ele>1859</ele>
        <time>2020-02-01T11:46:17.000Z</time>
      </trkpt>
      <trkpt lat="42.83948" lon="0.505">
        <ele>1859</ele>
        <time>2020-02-01T11:46:18.000Z</time>
      </trkpt>
      <trkpt lat="42.83948" lon="0.505">
        <ele>1859</ele>
        <time>2020-02-01T11:46:19.000Z</time>
      </trkpt>
      <trkpt lat="42.83948" lon="0.505">
        <ele>1859</ele>
        <time>2020-02-01T11:46:20.000Z</time>
      </trkpt>
      <trkpt lat="42.83947" lon="0.505">
        <ele>1859</ele>
        <time>2020-02-01T11:46:21.000Z</time>
      </trkpt>
      <trkpt lat="42.83947" lon="0.50499">
        <ele>1859</ele>
        <time>2020-02-01T11:46:22.000Z</time>
      </trkpt>
      <trkpt lat="42.83946" lon="0.50499">
        <ele>1859.3</ele>
        <time>2020-02-01T11:46:23.000Z</time>
      </trkpt>
      <trkpt lat="42.83946" lon="0.50498">
        <ele>1859.7</ele>
        <time>2020-02-01T11:46:24.000Z</time>
      </trkpt>
      <trkpt lat="42.83945" lon="0.50498">
        <ele>1860</ele>
        <time>2020-02-01T11:46:25.000Z</time>
      </trkpt>
      <trkpt lat="42.83945" lon="0.50497">
        <ele>1860</ele>
        <time>2020-02-01T11:46:26.000Z</time>
      </trkpt>
      <trkpt lat="42.83945" lon="0.50497">
        <ele>1860</ele>
        <time>2020-02-01T11:46:27.000Z</time>
      </trkpt>
      <trkpt lat="42.83945" lon="0.50497">
        <ele>1860</ele>
        <time>2020-02-01T11:46:28.000Z</time>
      </trkpt>
      <trkpt lat="42.83945" lon="0.50497">
        <ele>1860</ele>
        <time>2020-02-01T11:46:29.000Z</time>
      </trkpt>
      <trkpt lat="42.83944" lon="0.50497">
        <ele>1860</ele>
        <time>2020-02-01T11:46:30.000Z</time>
      </trkpt>
      <trkpt lat="42.83944" lon="0.50497">
        <ele>1860</ele>
        <time>2020-02-01T11:46:31.000Z</time>
      </trkpt>
      <trkpt lat="42.83944" lon="0.50497">
        <ele>1860</ele>
        <time>2020-02-01T11:46:32.000Z</time>
      </trkpt>
      <trkpt lat="42.83944" lon="0.50497">
        <ele>1860</ele>
        <time>2020-02-01T11:46:33.000Z</time>
      </trkpt>
      <trkpt lat="42.83944" lon="0.50497">
        <ele>1860.5</ele>
        <time>2020-02-01T11:46:34.000Z</time>
      </trkpt>
      <trkpt lat="42.83944" lon="0.50497">
        <ele>1861</ele>
        <time>2020-02-01T11:46:35.000Z</time>
      </trkpt>
      <trkpt lat="42.83944" lon="0.50497">
        <ele>1861</ele>
        <time>2020-02-01T11:46:36.000Z</time>
      </trkpt>
      <trkpt lat="42.83944" lon="0.50496">
        <ele>1861</ele>
        <time>2020-02-01T11:46:37.000Z</time>
      </trkpt>
      <trkpt lat="42.83944" lon="0.50496">
        <ele>1861</ele>
        <time>2020-02-01T11:46:38.000Z</time>
      </trkpt>
      <trkpt lat="42.83944" lon="0.50496">
        <ele>1861</ele>
        <time>2020-02-01T11:46:39.000Z</time>
      </trkpt>
      <trkpt lat="42.83944" lon="0.50496">
        <ele>1861</ele>
        <time>2020-02-01T11:46:40.000Z</time>
      </trkpt>
      <trkpt lat="42.83943" lon="0.50495">
        <ele>1861</ele>
        <time>2020-02-01T11:46:41.000Z</time>
      </trkpt>
      <trkpt lat="42.83943" lon="0.50495">
        <ele>1861.5</ele>
        <time>2020-02-01T11:46:42.000Z</time>
      </trkpt>
      <trkpt lat="42.83942" lon="0.50495">
        <ele>1862</ele>
        <time>2020-02-01T11:46:43.000Z</time>
      </trkpt>
      <trkpt lat="42.83942" lon="0.50494">
        <ele>1862</ele>
        <time>2020-02-01T11:46:44.000Z</time>
      </trkpt>
      <trkpt lat="42.83941" lon="0.50494">
        <ele>1862</ele>
        <time>2020-02-01T11:46:45.000Z</time>
      </trkpt>
      <trkpt lat="42.83941" lon="0.50493">
        <ele>1862</ele>
        <time>2020-02-01T11:46:46.000Z</time>
      </trkpt>
      <trkpt lat="42.83941" lon="0.50493">
        <ele>1862</ele>
        <time>2020-02-01T11:46:47.000Z</time>
      </trkpt>
      <trkpt lat="42.83941" lon="0.50493">
        <ele>1862.5</ele>
        <time>2020-02-01T11:46:48.000Z</time>
      </trkpt>
      <trkpt lat="42.83941" lon="0.50493">
        <ele>1863</ele>
        <time>2020-02-01T11:46:49.000Z</time>
      </trkpt>
      <trkpt lat="42.83941" lon="0.50493">
        <ele>1863</ele>
        <time>2020-02-01T11:46:50.000Z</time>
      </trkpt>
      <trkpt lat="42.83941" lon="0.50492">
        <ele>1863</ele>
        <time>2020-02-01T11:46:51.000Z</time>
      </trkpt>
      <trkpt lat="42.8394" lon="0.50492">
        <ele>1863</ele>
        <time>2020-02-01T11:46:52.000Z</time>
      </trkpt>
      <trkpt lat="42.8394" lon="0.50493">
        <ele>1863</ele>
        <time>2020-02-01T11:46:53.000Z</time>
      </trkpt>
      <trkpt lat="42.8394" lon="0.50493">
        <ele>1863</ele>
        <time>2020-02-01T11:46:54.000Z</time>
      </trkpt>
      <trkpt lat="42.83939" lon="0.50493">
        <ele>1863</ele>
        <time>2020-02-01T11:46:55.000Z</time>
      </trkpt>
      <trkpt lat="42.83938" lon="0.50493">
        <ele>1863</ele>
        <time>2020-02-01T11:46:56.000Z</time>
      </trkpt>
      <trkpt lat="42.83937" lon="0.50492">
        <ele>1863</ele>
        <time>2020-02-01T11:46:57.000Z</time>
      </trkpt>
      <trkpt lat="42.83937" lon="0.50492">
        <ele>1863.5</ele>
        <time>2020-02-01T11:46:58.000Z</time>
      </trkpt>
      <trkpt lat="42.83937" lon="0.50492">
        <ele>1864</ele>
        <time>2020-02-01T11:46:59.000Z</time>
      </trkpt>
      <trkpt lat="42.83936" lon="0.50492">
        <ele>1864</ele>
        <time>2020-02-01T11:47:00.000Z</time>
      </trkpt>
      <trkpt lat="42.83936" lon="0.50491">
        <ele>1864</ele>
        <time>2020-02-01T11:47:01.000Z</time>
      </trkpt>
      <trkpt lat="42.83937" lon="0.50491">
        <ele>1864</ele>
        <time>2020-02-01T11:47:02.000Z</time>
      </trkpt>
      <trkpt lat="42.83936" lon="0.50491">
        <ele>1864</ele>
        <time>2020-02-01T11:47:03.000Z</time>
      </trkpt>
      <trkpt lat="42.83936" lon="0.50491">
        <ele>1864</ele>
        <time>2020-02-01T11:47:04.000Z</time>
      </trkpt>
      <trkpt lat="42.83936" lon="0.5049">
        <ele>1864</ele>
        <time>2020-02-01T11:47:05.000Z</time>
      </trkpt>
      <trkpt lat="42.83936" lon="0.5049">
        <ele>1865</ele>
        <time>2020-02-01T11:47:06.000Z</time>
      </trkpt>
      <trkpt lat="42.83935" lon="0.50489">
        <ele>1865</ele>
        <time>2020-02-01T11:47:07.000Z</time>
      </trkpt>
      <trkpt lat="42.83935" lon="0.50489">
        <ele>1865</ele>
        <time>2020-02-01T11:47:08.000Z</time>
      </trkpt>
      <trkpt lat="42.83934" lon="0.50488">
        <ele>1865</ele>
        <time>2020-02-01T11:47:09.000Z</time>
      </trkpt>
      <trkpt lat="42.83934" lon="0.50488">
        <ele>1865</ele>
        <time>2020-02-01T11:47:10.000Z</time>
      </trkpt>
      <trkpt lat="42.83934" lon="0.50487">
        <ele>1865</ele>
        <time>2020-02-01T11:47:11.000Z</time>
      </trkpt>
      <trkpt lat="42.83933" lon="0.50486">
        <ele>1865</ele>
        <time>2020-02-01T11:47:12.000Z</time>
      </trkpt>
      <trkpt lat="42.83933" lon="0.50485">
        <ele>1865</ele>
        <time>2020-02-01T11:47:13.000Z</time>
      </trkpt>
      <trkpt lat="42.83933" lon="0.50485">
        <ele>1865</ele>
        <time>2020-02-01T11:47:14.000Z</time>
      </trkpt>
      <trkpt lat="42.83932" lon="0.50484">
        <ele>1865.3</ele>
        <time>2020-02-01T11:47:15.000Z</time>
      </trkpt>
      <trkpt lat="42.83932" lon="0.50483">
        <ele>1865.7</ele>
        <time>2020-02-01T11:47:16.000Z</time>
      </trkpt>
      <trkpt lat="42.83932" lon="0.50483">
        <ele>1866</ele>
        <time>2020-02-01T11:47:17.000Z</time>
      </trkpt>
      <trkpt lat="42.83932" lon="0.50482">
        <ele>1866</ele>
        <time>2020-02-01T11:47:18.000Z</time>
      </trkpt>
      <trkpt lat="42.83931" lon="0.50482">
        <ele>1866</ele>
        <time>2020-02-01T11:47:19.000Z</time>
      </trkpt>
      <trkpt lat="42.83931" lon="0.50481">
        <ele>1866</ele>
        <time>2020-02-01T11:47:20.000Z</time>
      </trkpt>
      <trkpt lat="42.83931" lon="0.5048">
        <ele>1866</ele>
        <time>2020-02-01T11:47:21.000Z</time>
      </trkpt>
      <trkpt lat="42.83931" lon="0.5048">
        <ele>1866</ele>
        <time>2020-02-01T11:47:22.000Z</time>
      </trkpt>
      <trkpt lat="42.83931" lon="0.50479">
        <ele>1866</ele>
        <time>2020-02-01T11:47:23.000Z</time>
      </trkpt>
      <trkpt lat="42.83931" lon="0.50478">
        <ele>1866.5</ele>
        <time>2020-02-01T11:47:24.000Z</time>
      </trkpt>
      <trkpt lat="42.83931" lon="0.50478">
        <ele>1867</ele>
        <time>2020-02-01T11:47:25.000Z</time>
      </trkpt>
      <trkpt lat="42.8393" lon="0.50477">
        <ele>1867</ele>
        <time>2020-02-01T11:47:26.000Z</time>
      </trkpt>
      <trkpt lat="42.8393" lon="0.50477">
        <ele>1867</ele>
        <time>2020-02-01T11:47:27.000Z</time>
      </trkpt>
      <trkpt lat="42.8393" lon="0.50476">
        <ele>1867</ele>
        <time>2020-02-01T11:47:28.000Z</time>
      </trkpt>
      <trkpt lat="42.8393" lon="0.50476">
        <ele>1867</ele>
        <time>2020-02-01T11:47:29.000Z</time>
      </trkpt>
      <trkpt lat="42.8393" lon="0.50475">
        <ele>1867</ele>
        <time>2020-02-01T11:47:30.000Z</time>
      </trkpt>
      <trkpt lat="42.83929" lon="0.50475">
        <ele>1867</ele>
        <time>2020-02-01T11:47:31.000Z</time>
      </trkpt>
      <trkpt lat="42.83929" lon="0.50474">
        <ele>1868</ele>
        <time>2020-02-01T11:47:32.000Z</time>
      </trkpt>
      <trkpt lat="42.83928" lon="0.50474">
        <ele>1868</ele>
        <time>2020-02-01T11:47:33.000Z</time>
      </trkpt>
      <trkpt lat="42.83928" lon="0.50473">
        <ele>1868</ele>
        <time>2020-02-01T11:47:34.000Z</time>
      </trkpt>
      <trkpt lat="42.83927" lon="0.50473">
        <ele>1868</ele>
        <time>2020-02-01T11:47:35.000Z</time>
      </trkpt>
      <trkpt lat="42.83927" lon="0.50472">
        <ele>1868</ele>
        <time>2020-02-01T11:47:36.000Z</time>
      </trkpt>
      <trkpt lat="42.83926" lon="0.50472">
        <ele>1868</ele>
        <time>2020-02-01T11:47:37.000Z</time>
      </trkpt>
      <trkpt lat="42.83926" lon="0.50472">
        <ele>1868</ele>
        <time>2020-02-01T11:47:38.000Z</time>
      </trkpt>
      <trkpt lat="42.83926" lon="0.50471">
        <ele>1868</ele>
        <time>2020-02-01T11:47:39.000Z</time>
      </trkpt>
      <trkpt lat="42.83925" lon="0.50471">
        <ele>1868</ele>
        <time>2020-02-01T11:47:40.000Z</time>
      </trkpt>
      <trkpt lat="42.83925" lon="0.50471">
        <ele>1868</ele>
        <time>2020-02-01T11:47:41.000Z</time>
      </trkpt>
      <trkpt lat="42.83925" lon="0.50471">
        <ele>1868.5</ele>
        <time>2020-02-01T11:47:42.000Z</time>
      </trkpt>
      <trkpt lat="42.83925" lon="0.50471">
        <ele>1869</ele>
        <time>2020-02-01T11:47:43.000Z</time>
      </trkpt>
      <trkpt lat="42.83925" lon="0.50471">
        <ele>1869</ele>
        <time>2020-02-01T11:47:44.000Z</time>
      </trkpt>
      <trkpt lat="42.83925" lon="0.50471">
        <ele>1869</ele>
        <time>2020-02-01T11:47:45.000Z</time>
      </trkpt>
      <trkpt lat="42.83925" lon="0.50471">
        <ele>1869</ele>
        <time>2020-02-01T11:47:46.000Z</time>
      </trkpt>
      <trkpt lat="42.83925" lon="0.50471">
        <ele>1869</ele>
        <time>2020-02-01T11:47:47.000Z</time>
      </trkpt>
      <trkpt lat="42.83924" lon="0.50471">
        <ele>1869</ele>
        <time>2020-02-01T11:47:48.000Z</time>
      </trkpt>
      <trkpt lat="42.83924" lon="0.50471">
        <ele>1869</ele>
        <time>2020-02-01T11:47:49.000Z</time>
      </trkpt>
      <trkpt lat="42.83924" lon="0.50471">
        <ele>1869</ele>
        <time>2020-02-01T11:47:50.000Z</time>
      </trkpt>
      <trkpt lat="42.83924" lon="0.50471">
        <ele>1869</ele>
        <time>2020-02-01T11:47:51.000Z</time>
      </trkpt>
      <trkpt lat="42.83924" lon="0.50471">
        <ele>1869.5</ele>
        <time>2020-02-01T11:47:52.000Z</time>
      </trkpt>
      <trkpt lat="42.83924" lon="0.5047">
        <ele>1870</ele>
        <time>2020-02-01T11:47:53.000Z</time>
      </trkpt>
      <trkpt lat="42.83923" lon="0.5047">
        <ele>1870</ele>
        <time>2020-02-01T11:47:54.000Z</time>
      </trkpt>
      <trkpt lat="42.83923" lon="0.5047">
        <ele>1870</ele>
        <time>2020-02-01T11:47:55.000Z</time>
      </trkpt>
      <trkpt lat="42.83923" lon="0.50469">
        <ele>1870.5</ele>
        <time>2020-02-01T11:47:56.000Z</time>
      </trkpt>
      <trkpt lat="42.83922" lon="0.50469">
        <ele>1871</ele>
        <time>2020-02-01T11:47:57.000Z</time>
      </trkpt>
      <trkpt lat="42.83921" lon="0.50469">
        <ele>1871</ele>
        <time>2020-02-01T11:47:58.000Z</time>
      </trkpt>
      <trkpt lat="42.83921" lon="0.50469">
        <ele>1871</ele>
        <time>2020-02-01T11:47:59.000Z</time>
      </trkpt>
      <trkpt lat="42.8392" lon="0.50468">
        <ele>1871</ele>
        <time>2020-02-01T11:48:00.000Z</time>
      </trkpt>
      <trkpt lat="42.8392" lon="0.50468">
        <ele>1871</ele>
        <time>2020-02-01T11:48:01.000Z</time>
      </trkpt>
      <trkpt lat="42.83919" lon="0.50468">
        <ele>1871</ele>
        <time>2020-02-01T11:48:02.000Z</time>
      </trkpt>
      <trkpt lat="42.83919" lon="0.50468">
        <ele>1871</ele>
        <time>2020-02-01T11:48:03.000Z</time>
      </trkpt>
      <trkpt lat="42.83918" lon="0.50467">
        <ele>1871</ele>
        <time>2020-02-01T11:48:04.000Z</time>
      </trkpt>
      <trkpt lat="42.83918" lon="0.50467">
        <ele>1871</ele>
        <time>2020-02-01T11:48:05.000Z</time>
      </trkpt>
      <trkpt lat="42.83918" lon="0.50467">
        <ele>1871.5</ele>
        <time>2020-02-01T11:48:06.000Z</time>
      </trkpt>
      <trkpt lat="42.83918" lon="0.50467">
        <ele>1872</ele>
        <time>2020-02-01T11:48:07.000Z</time>
      </trkpt>
      <trkpt lat="42.83918" lon="0.50467">
        <ele>1872</ele>
        <time>2020-02-01T11:48:08.000Z</time>
      </trkpt>
      <trkpt lat="42.83917" lon="0.50467">
        <ele>1872</ele>
        <time>2020-02-01T11:48:09.000Z</time>
      </trkpt>
      <trkpt lat="42.83918" lon="0.50467">
        <ele>1872</ele>
        <time>2020-02-01T11:48:10.000Z</time>
      </trkpt>
      <trkpt lat="42.83918" lon="0.50467">
        <ele>1872</ele>
        <time>2020-02-01T11:48:11.000Z</time>
      </trkpt>
      <trkpt lat="42.83917" lon="0.50467">
        <ele>1872</ele>
        <time>2020-02-01T11:48:12.000Z</time>
      </trkpt>
      <trkpt lat="42.83917" lon="0.50467">
        <ele>1872.5</ele>
        <time>2020-02-01T11:48:13.000Z</time>
      </trkpt>
      <trkpt lat="42.83916" lon="0.50467">
        <ele>1873</ele>
        <time>2020-02-01T11:48:14.000Z</time>
      </trkpt>
      <trkpt lat="42.83915" lon="0.50467">
        <ele>1873</ele>
        <time>2020-02-01T11:48:15.000Z</time>
      </trkpt>
      <trkpt lat="42.83914" lon="0.50466">
        <ele>1873</ele>
        <time>2020-02-01T11:48:16.000Z</time>
      </trkpt>
      <trkpt lat="42.83914" lon="0.50466">
        <ele>1873</ele>
        <time>2020-02-01T11:48:17.000Z</time>
      </trkpt>
      <trkpt lat="42.83913" lon="0.50466">
        <ele>1873</ele>
        <time>2020-02-01T11:48:18.000Z</time>
      </trkpt>
      <trkpt lat="42.83913" lon="0.50465">
        <ele>1873</ele>
        <time>2020-02-01T11:48:19.000Z</time>
      </trkpt>
      <trkpt lat="42.83913" lon="0.50465">
        <ele>1873.5</ele>
        <time>2020-02-01T11:48:20.000Z</time>
      </trkpt>
      <trkpt lat="42.83912" lon="0.50465">
        <ele>1874</ele>
        <time>2020-02-01T11:48:21.000Z</time>
      </trkpt>
      <trkpt lat="42.83912" lon="0.50465">
        <ele>1874</ele>
        <time>2020-02-01T11:48:22.000Z</time>
      </trkpt>
      <trkpt lat="42.83912" lon="0.50465">
        <ele>1874</ele>
        <time>2020-02-01T11:48:23.000Z</time>
      </trkpt>
      <trkpt lat="42.83912" lon="0.50465">
        <ele>1874</ele>
        <time>2020-02-01T11:48:24.000Z</time>
      </trkpt>
      <trkpt lat="42.83912" lon="0.50465">
        <ele>1874</ele>
        <time>2020-02-01T11:48:25.000Z</time>
      </trkpt>
      <trkpt lat="42.83912" lon="0.50465">
        <ele>1874.5</ele>
        <time>2020-02-01T11:48:26.000Z</time>
      </trkpt>
      <trkpt lat="42.83912" lon="0.50465">
        <ele>1875</ele>
        <time>2020-02-01T11:48:27.000Z</time>
      </trkpt>
      <trkpt lat="42.83912" lon="0.50465">
        <ele>1875</ele>
        <time>2020-02-01T11:48:28.000Z</time>
      </trkpt>
      <trkpt lat="42.83912" lon="0.50464">
        <ele>1875</ele>
        <time>2020-02-01T11:48:29.000Z</time>
      </trkpt>
      <trkpt lat="42.83911" lon="0.50464">
        <ele>1875</ele>
        <time>2020-02-01T11:48:30.000Z</time>
      </trkpt>
      <trkpt lat="42.83911" lon="0.50464">
        <ele>1875</ele>
        <time>2020-02-01T11:48:31.000Z</time>
      </trkpt>
      <trkpt lat="42.83911" lon="0.50464">
        <ele>1875</ele>
        <time>2020-02-01T11:48:32.000Z</time>
      </trkpt>
      <trkpt lat="42.83911" lon="0.50464">
        <ele>1875</ele>
        <time>2020-02-01T11:48:33.000Z</time>
      </trkpt>
      <trkpt lat="42.8391" lon="0.50463">
        <ele>1875</ele>
        <time>2020-02-01T11:48:34.000Z</time>
      </trkpt>
      <trkpt lat="42.8391" lon="0.50463">
        <ele>1875</ele>
        <time>2020-02-01T11:48:35.000Z</time>
      </trkpt>
      <trkpt lat="42.8391" lon="0.50463">
        <ele>1875</ele>
        <time>2020-02-01T11:48:36.000Z</time>
      </trkpt>
      <trkpt lat="42.8391" lon="0.50463">
        <ele>1875</ele>
        <time>2020-02-01T11:48:37.000Z</time>
      </trkpt>
      <trkpt lat="42.8391" lon="0.50463">
        <ele>1875</ele>
        <time>2020-02-01T11:48:38.000Z</time>
      </trkpt>
      <trkpt lat="42.83909" lon="0.50463">
        <ele>1875</ele>
        <time>2020-02-01T11:48:39.000Z</time>
      </trkpt>
      <trkpt lat="42.83909" lon="0.50462">
        <ele>1875.5</ele>
        <time>2020-02-01T11:48:40.000Z</time>
      </trkpt>
      <trkpt lat="42.83908" lon="0.50462">
        <ele>1876</ele>
        <time>2020-02-01T11:48:41.000Z</time>
      </trkpt>
      <trkpt lat="42.83908" lon="0.50462">
        <ele>1876</ele>
        <time>2020-02-01T11:48:42.000Z</time>
      </trkpt>
      <trkpt lat="42.83907" lon="0.50462">
        <ele>1876</ele>
        <time>2020-02-01T11:48:43.000Z</time>
      </trkpt>
      <trkpt lat="42.83907" lon="0.50461">
        <ele>1876</ele>
        <time>2020-02-01T11:48:44.000Z</time>
      </trkpt>
      <trkpt lat="42.83906" lon="0.50461">
        <ele>1876.3</ele>
        <time>2020-02-01T11:48:45.000Z</time>
      </trkpt>
      <trkpt lat="42.83906" lon="0.50461">
        <ele>1876.7</ele>
        <time>2020-02-01T11:48:46.000Z</time>
      </trkpt>
      <trkpt lat="42.83905" lon="0.50461">
        <ele>1877</ele>
        <time>2020-02-01T11:48:47.000Z</time>
      </trkpt>
      <trkpt lat="42.83905" lon="0.50461">
        <ele>1877</ele>
        <time>2020-02-01T11:48:48.000Z</time>
      </trkpt>
      <trkpt lat="42.83905" lon="0.50461">
        <ele>1877</ele>
        <time>2020-02-01T11:48:49.000Z</time>
      </trkpt>
      <trkpt lat="42.83905" lon="0.50461">
        <ele>1877</ele>
        <time>2020-02-01T11:48:50.000Z</time>
      </trkpt>
      <trkpt lat="42.83905" lon="0.50461">
        <ele>1877.3</ele>
        <time>2020-02-01T11:48:51.000Z</time>
      </trkpt>
      <trkpt lat="42.83905" lon="0.50461">
        <ele>1877.7</ele>
        <time>2020-02-01T11:48:52.000Z</time>
      </trkpt>
      <trkpt lat="42.83905" lon="0.50461">
        <ele>1878</ele>
        <time>2020-02-01T11:48:53.000Z</time>
      </trkpt>
      <trkpt lat="42.83904" lon="0.5046">
        <ele>1878</ele>
        <time>2020-02-01T11:48:54.000Z</time>
      </trkpt>
      <trkpt lat="42.83904" lon="0.5046">
        <ele>1878</ele>
        <time>2020-02-01T11:48:55.000Z</time>
      </trkpt>
      <trkpt lat="42.83904" lon="0.5046">
        <ele>1878</ele>
        <time>2020-02-01T11:48:56.000Z</time>
      </trkpt>
      <trkpt lat="42.83904" lon="0.50459">
        <ele>1878</ele>
        <time>2020-02-01T11:48:57.000Z</time>
      </trkpt>
      <trkpt lat="42.83903" lon="0.50459">
        <ele>1878</ele>
        <time>2020-02-01T11:48:58.000Z</time>
      </trkpt>
      <trkpt lat="42.83903" lon="0.50459">
        <ele>1878</ele>
        <time>2020-02-01T11:48:59.000Z</time>
      </trkpt>
      <trkpt lat="42.83902" lon="0.50458">
        <ele>1878.5</ele>
        <time>2020-02-01T11:49:00.000Z</time>
      </trkpt>
      <trkpt lat="42.83902" lon="0.50458">
        <ele>1879</ele>
        <time>2020-02-01T11:49:01.000Z</time>
      </trkpt>
      <trkpt lat="42.83901" lon="0.50458">
        <ele>1879</ele>
        <time>2020-02-01T11:49:02.000Z</time>
      </trkpt>
      <trkpt lat="42.83901" lon="0.50458">
        <ele>1879</ele>
        <time>2020-02-01T11:49:03.000Z</time>
      </trkpt>
      <trkpt lat="42.839" lon="0.50459">
        <ele>1879</ele>
        <time>2020-02-01T11:49:04.000Z</time>
      </trkpt>
      <trkpt lat="42.839" lon="0.50459">
        <ele>1879</ele>
        <time>2020-02-01T11:49:05.000Z</time>
      </trkpt>
      <trkpt lat="42.83899" lon="0.50459">
        <ele>1879</ele>
        <time>2020-02-01T11:49:06.000Z</time>
      </trkpt>
      <trkpt lat="42.83899" lon="0.50459">
        <ele>1879</ele>
        <time>2020-02-01T11:49:07.000Z</time>
      </trkpt>
      <trkpt lat="42.83899" lon="0.50459">
        <ele>1879</ele>
        <time>2020-02-01T11:49:08.000Z</time>
      </trkpt>
      <trkpt lat="42.83898" lon="0.50459">
        <ele>1879</ele>
        <time>2020-02-01T11:49:09.000Z</time>
      </trkpt>
      <trkpt lat="42.83898" lon="0.50459">
        <ele>1880</ele>
        <time>2020-02-01T11:49:10.000Z</time>
      </trkpt>
      <trkpt lat="42.83897" lon="0.50459">
        <ele>1880</ele>
        <time>2020-02-01T11:49:11.000Z</time>
      </trkpt>
      <trkpt lat="42.83897" lon="0.50458">
        <ele>1880</ele>
        <time>2020-02-01T11:49:12.000Z</time>
      </trkpt>
      <trkpt lat="42.83897" lon="0.50458">
        <ele>1880</ele>
        <time>2020-02-01T11:49:13.000Z</time>
      </trkpt>
      <trkpt lat="42.83896" lon="0.50458">
        <ele>1880</ele>
        <time>2020-02-01T11:49:14.000Z</time>
      </trkpt>
      <trkpt lat="42.83896" lon="0.50457">
        <ele>1880</ele>
        <time>2020-02-01T11:49:15.000Z</time>
      </trkpt>
      <trkpt lat="42.83895" lon="0.50457">
        <ele>1880.5</ele>
        <time>2020-02-01T11:49:16.000Z</time>
      </trkpt>
      <trkpt lat="42.83895" lon="0.50457">
        <ele>1881</ele>
        <time>2020-02-01T11:49:17.000Z</time>
      </trkpt>
      <trkpt lat="42.83894" lon="0.50456">
        <ele>1881</ele>
        <time>2020-02-01T11:49:18.000Z</time>
      </trkpt>
      <trkpt lat="42.83894" lon="0.50456">
        <ele>1881</ele>
        <time>2020-02-01T11:49:19.000Z</time>
      </trkpt>
      <trkpt lat="42.83894" lon="0.50456">
        <ele>1881</ele>
        <time>2020-02-01T11:49:20.000Z</time>
      </trkpt>
      <trkpt lat="42.83893" lon="0.50456">
        <ele>1881</ele>
        <time>2020-02-01T11:49:21.000Z</time>
      </trkpt>
      <trkpt lat="42.83893" lon="0.50455">
        <ele>1882</ele>
        <time>2020-02-01T11:49:22.000Z</time>
      </trkpt>
      <trkpt lat="42.83892" lon="0.50455">
        <ele>1882</ele>
        <time>2020-02-01T11:49:23.000Z</time>
      </trkpt>
      <trkpt lat="42.83892" lon="0.50455">
        <ele>1882</ele>
        <time>2020-02-01T11:49:24.000Z</time>
      </trkpt>
      <trkpt lat="42.83892" lon="0.50455">
        <ele>1882</ele>
        <time>2020-02-01T11:49:25.000Z</time>
      </trkpt>
      <trkpt lat="42.83891" lon="0.50455">
        <ele>1882</ele>
        <time>2020-02-01T11:49:26.000Z</time>
      </trkpt>
      <trkpt lat="42.83891" lon="0.50455">
        <ele>1882</ele>
        <time>2020-02-01T11:49:27.000Z</time>
      </trkpt>
      <trkpt lat="42.83891" lon="0.50455">
        <ele>1882</ele>
        <time>2020-02-01T11:49:28.000Z</time>
      </trkpt>
      <trkpt lat="42.8389" lon="0.50455">
        <ele>1882</ele>
        <time>2020-02-01T11:49:29.000Z</time>
      </trkpt>
      <trkpt lat="42.8389" lon="0.50455">
        <ele>1883</ele>
        <time>2020-02-01T11:49:30.000Z</time>
      </trkpt>
      <trkpt lat="42.8389" lon="0.50455">
        <ele>1883</ele>
        <time>2020-02-01T11:49:31.000Z</time>
      </trkpt>
      <trkpt lat="42.83889" lon="0.50454">
        <ele>1883</ele>
        <time>2020-02-01T11:49:32.000Z</time>
      </trkpt>
      <trkpt lat="42.83889" lon="0.50454">
        <ele>1883</ele>
        <time>2020-02-01T11:49:33.000Z</time>
      </trkpt>
      <trkpt lat="42.83889" lon="0.50454">
        <ele>1884</ele>
        <time>2020-02-01T11:49:34.000Z</time>
      </trkpt>
      <trkpt lat="42.83888" lon="0.50454">
        <ele>1884</ele>
        <time>2020-02-01T11:49:35.000Z</time>
      </trkpt>
      <trkpt lat="42.83888" lon="0.50453">
        <ele>1884</ele>
        <time>2020-02-01T11:49:36.000Z</time>
      </trkpt>
      <trkpt lat="42.83888" lon="0.50453">
        <ele>1884</ele>
        <time>2020-02-01T11:49:37.000Z</time>
      </trkpt>
      <trkpt lat="42.83888" lon="0.50452">
        <ele>1884</ele>
        <time>2020-02-01T11:49:38.000Z</time>
      </trkpt>
      <trkpt lat="42.83887" lon="0.50452">
        <ele>1884</ele>
        <time>2020-02-01T11:49:39.000Z</time>
      </trkpt>
      <trkpt lat="42.83887" lon="0.50452">
        <ele>1884</ele>
        <time>2020-02-01T11:49:40.000Z</time>
      </trkpt>
      <trkpt lat="42.83887" lon="0.50451">
        <ele>1884</ele>
        <time>2020-02-01T11:49:41.000Z</time>
      </trkpt>
      <trkpt lat="42.83886" lon="0.50451">
        <ele>1885</ele>
        <time>2020-02-01T11:49:42.000Z</time>
      </trkpt>
      <trkpt lat="42.83886" lon="0.5045">
        <ele>1885</ele>
        <time>2020-02-01T11:49:43.000Z</time>
      </trkpt>
      <trkpt lat="42.83886" lon="0.5045">
        <ele>1885</ele>
        <time>2020-02-01T11:49:44.000Z</time>
      </trkpt>
      <trkpt lat="42.83886" lon="0.5045">
        <ele>1885</ele>
        <time>2020-02-01T11:49:45.000Z</time>
      </trkpt>
      <trkpt lat="42.83885" lon="0.5045">
        <ele>1885</ele>
        <time>2020-02-01T11:49:46.000Z</time>
      </trkpt>
      <trkpt lat="42.83885" lon="0.5045">
        <ele>1885</ele>
        <time>2020-02-01T11:49:47.000Z</time>
      </trkpt>
      <trkpt lat="42.83885" lon="0.50449">
        <ele>1885.5</ele>
        <time>2020-02-01T11:49:48.000Z</time>
      </trkpt>
      <trkpt lat="42.83884" lon="0.50449">
        <ele>1886</ele>
        <time>2020-02-01T11:49:49.000Z</time>
      </trkpt>
      <trkpt lat="42.83884" lon="0.50449">
        <ele>1886</ele>
        <time>2020-02-01T11:49:50.000Z</time>
      </trkpt>
      <trkpt lat="42.83883" lon="0.50449">
        <ele>1886</ele>
        <time>2020-02-01T11:49:51.000Z</time>
      </trkpt>
      <trkpt lat="42.83883" lon="0.50449">
        <ele>1886</ele>
        <time>2020-02-01T11:49:52.000Z</time>
      </trkpt>
      <trkpt lat="42.83882" lon="0.50449">
        <ele>1886</ele>
        <time>2020-02-01T11:49:53.000Z</time>
      </trkpt>
      <trkpt lat="42.83881" lon="0.50449">
        <ele>1886</ele>
        <time>2020-02-01T11:49:54.000Z</time>
      </trkpt>
      <trkpt lat="42.83881" lon="0.50448">
        <ele>1886.3</ele>
        <time>2020-02-01T11:49:55.000Z</time>
      </trkpt>
      <trkpt lat="42.8388" lon="0.50448">
        <ele>1886.7</ele>
        <time>2020-02-01T11:49:56.000Z</time>
      </trkpt>
      <trkpt lat="42.83879" lon="0.50448">
        <ele>1887</ele>
        <time>2020-02-01T11:49:57.000Z</time>
      </trkpt>
      <trkpt lat="42.83879" lon="0.50447">
        <ele>1887</ele>
        <time>2020-02-01T11:49:58.000Z</time>
      </trkpt>
      <trkpt lat="42.83878" lon="0.50447">
        <ele>1887</ele>
        <time>2020-02-01T11:49:59.000Z</time>
      </trkpt>
      <trkpt lat="42.83878" lon="0.50447">
        <ele>1887</ele>
        <time>2020-02-01T11:50:00.000Z</time>
      </trkpt>
      <trkpt lat="42.83877" lon="0.50447">
        <ele>1887</ele>
        <time>2020-02-01T11:50:01.000Z</time>
      </trkpt>
      <trkpt lat="42.83877" lon="0.50447">
        <ele>1887</ele>
        <time>2020-02-01T11:50:02.000Z</time>
      </trkpt>
      <trkpt lat="42.83877" lon="0.50447">
        <ele>1887</ele>
        <time>2020-02-01T11:50:03.000Z</time>
      </trkpt>
      <trkpt lat="42.83876" lon="0.50447">
        <ele>1887.5</ele>
        <time>2020-02-01T11:50:04.000Z</time>
      </trkpt>
      <trkpt lat="42.83876" lon="0.50447">
        <ele>1888</ele>
        <time>2020-02-01T11:50:05.000Z</time>
      </trkpt>
      <trkpt lat="42.83876" lon="0.50447">
        <ele>1888</ele>
        <time>2020-02-01T11:50:06.000Z</time>
      </trkpt>
      <trkpt lat="42.83876" lon="0.50447">
        <ele>1888</ele>
        <time>2020-02-01T11:50:07.000Z</time>
      </trkpt>
      <trkpt lat="42.83875" lon="0.50447">
        <ele>1888</ele>
        <time>2020-02-01T11:50:08.000Z</time>
      </trkpt>
      <trkpt lat="42.83875" lon="0.50447">
        <ele>1888</ele>
        <time>2020-02-01T11:50:09.000Z</time>
      </trkpt>
      <trkpt lat="42.83875" lon="0.50447">
        <ele>1888</ele>
        <time>2020-02-01T11:50:10.000Z</time>
      </trkpt>
      <trkpt lat="42.83875" lon="0.50447">
        <ele>1888.3</ele>
        <time>2020-02-01T11:50:11.000Z</time>
      </trkpt>
      <trkpt lat="42.83874" lon="0.50446">
        <ele>1888.7</ele>
        <time>2020-02-01T11:50:12.000Z</time>
      </trkpt>
      <trkpt lat="42.83874" lon="0.50446">
        <ele>1889</ele>
        <time>2020-02-01T11:50:13.000Z</time>
      </trkpt>
      <trkpt lat="42.83874" lon="0.50446">
        <ele>1889</ele>
        <time>2020-02-01T11:50:14.000Z</time>
      </trkpt>
      <trkpt lat="42.83873" lon="0.50446">
        <ele>1889</ele>
        <time>2020-02-01T11:50:15.000Z</time>
      </trkpt>
      <trkpt lat="42.83873" lon="0.50446">
        <ele>1889</ele>
        <time>2020-02-01T11:50:16.000Z</time>
      </trkpt>
      <trkpt lat="42.83873" lon="0.50446">
        <ele>1889.3</ele>
        <time>2020-02-01T11:50:17.000Z</time>
      </trkpt>
      <trkpt lat="42.83872" lon="0.50446">
        <ele>1889.7</ele>
        <time>2020-02-01T11:50:18.000Z</time>
      </trkpt>
      <trkpt lat="42.83872" lon="0.50445">
        <ele>1890</ele>
        <time>2020-02-01T11:50:19.000Z</time>
      </trkpt>
      <trkpt lat="42.83871" lon="0.50445">
        <ele>1890</ele>
        <time>2020-02-01T11:50:20.000Z</time>
      </trkpt>
      <trkpt lat="42.83871" lon="0.50445">
        <ele>1890</ele>
        <time>2020-02-01T11:50:21.000Z</time>
      </trkpt>
      <trkpt lat="42.83871" lon="0.50444">
        <ele>1890.5</ele>
        <time>2020-02-01T11:50:22.000Z</time>
      </trkpt>
      <trkpt lat="42.83871" lon="0.50444">
        <ele>1891</ele>
        <time>2020-02-01T11:50:23.000Z</time>
      </trkpt>
      <trkpt lat="42.8387" lon="0.50444">
        <ele>1891</ele>
        <time>2020-02-01T11:50:24.000Z</time>
      </trkpt>
      <trkpt lat="42.8387" lon="0.50443">
        <ele>1891</ele>
        <time>2020-02-01T11:50:25.000Z</time>
      </trkpt>
      <trkpt lat="42.8387" lon="0.50443">
        <ele>1891</ele>
        <time>2020-02-01T11:50:26.000Z</time>
      </trkpt>
      <trkpt lat="42.83869" lon="0.50443">
        <ele>1891</ele>
        <time>2020-02-01T11:50:27.000Z</time>
      </trkpt>
      <trkpt lat="42.83869" lon="0.50442">
        <ele>1891</ele>
        <time>2020-02-01T11:50:28.000Z</time>
      </trkpt>
      <trkpt lat="42.83868" lon="0.50442">
        <ele>1891</ele>
        <time>2020-02-01T11:50:29.000Z</time>
      </trkpt>
      <trkpt lat="42.83868" lon="0.50442">
        <ele>1891</ele>
        <time>2020-02-01T11:50:30.000Z</time>
      </trkpt>
      <trkpt lat="42.83867" lon="0.50441">
        <ele>1891</ele>
        <time>2020-02-01T11:50:31.000Z</time>
      </trkpt>
      <trkpt lat="42.83867" lon="0.50441">
        <ele>1892</ele>
        <time>2020-02-01T11:50:32.000Z</time>
      </trkpt>
      <trkpt lat="42.83866" lon="0.50441">
        <ele>1892</ele>
        <time>2020-02-01T11:50:33.000Z</time>
      </trkpt>
      <trkpt lat="42.83866" lon="0.50441">
        <ele>1892</ele>
        <time>2020-02-01T11:50:34.000Z</time>
      </trkpt>
      <trkpt lat="42.83866" lon="0.5044">
        <ele>1892</ele>
        <time>2020-02-01T11:50:35.000Z</time>
      </trkpt>
      <trkpt lat="42.83865" lon="0.5044">
        <ele>1892</ele>
        <time>2020-02-01T11:50:36.000Z</time>
      </trkpt>
      <trkpt lat="42.83865" lon="0.5044">
        <ele>1892</ele>
        <time>2020-02-01T11:50:37.000Z</time>
      </trkpt>
      <trkpt lat="42.83865" lon="0.5044">
        <ele>1893</ele>
        <time>2020-02-01T11:50:38.000Z</time>
      </trkpt>
      <trkpt lat="42.83865" lon="0.5044">
        <ele>1893</ele>
        <time>2020-02-01T11:50:39.000Z</time>
      </trkpt>
      <trkpt lat="42.83865" lon="0.5044">
        <ele>1893</ele>
        <time>2020-02-01T11:50:40.000Z</time>
      </trkpt>
      <trkpt lat="42.83865" lon="0.5044">
        <ele>1893</ele>
        <time>2020-02-01T11:50:41.000Z</time>
      </trkpt>
      <trkpt lat="42.83865" lon="0.5044">
        <ele>1893</ele>
        <time>2020-02-01T11:50:42.000Z</time>
      </trkpt>
      <trkpt lat="42.83865" lon="0.5044">
        <ele>1893</ele>
        <time>2020-02-01T11:50:43.000Z</time>
      </trkpt>
      <trkpt lat="42.83865" lon="0.5044">
        <ele>1893</ele>
        <time>2020-02-01T11:50:44.000Z</time>
      </trkpt>
      <trkpt lat="42.83865" lon="0.5044">
        <ele>1893</ele>
        <time>2020-02-01T11:50:45.000Z</time>
      </trkpt>
      <trkpt lat="42.83865" lon="0.5044">
        <ele>1893</ele>
        <time>2020-02-01T11:50:46.000Z</time>
      </trkpt>
      <trkpt lat="42.83865" lon="0.5044">
        <ele>1893</ele>
        <time>2020-02-01T11:50:47.000Z</time>
      </trkpt>
      <trkpt lat="42.83865" lon="0.5044">
        <ele>1893</ele>
        <time>2020-02-01T11:50:48.000Z</time>
      </trkpt>
      <trkpt lat="42.83865" lon="0.5044">
        <ele>1893</ele>
        <time>2020-02-01T11:50:49.000Z</time>
      </trkpt>
      <trkpt lat="42.83865" lon="0.5044">
        <ele>1893</ele>
        <time>2020-02-01T11:50:50.000Z</time>
      </trkpt>
      <trkpt lat="42.83865" lon="0.5044">
        <ele>1893</ele>
        <time>2020-02-01T11:50:51.000Z</time>
      </trkpt>
      <trkpt lat="42.83865" lon="0.5044">
        <ele>1893</ele>
        <time>2020-02-01T11:50:52.000Z</time>
      </trkpt>
      <trkpt lat="42.83865" lon="0.5044">
        <ele>1893</ele>
        <time>2020-02-01T11:50:53.000Z</time>
      </trkpt>
      <trkpt lat="42.83865" lon="0.5044">
        <ele>1893</ele>
        <time>2020-02-01T11:50:54.000Z</time>
      </trkpt>
      <trkpt lat="42.83865" lon="0.5044">
        <ele>1893</ele>
        <time>2020-02-01T11:50:55.000Z</time>
      </trkpt>
      <trkpt lat="42.83865" lon="0.5044">
        <ele>1893</ele>
        <time>2020-02-01T11:50:56.000Z</time>
      </trkpt>
      <trkpt lat="42.83865" lon="0.5044">
        <ele>1893</ele>
        <time>2020-02-01T11:50:57.000Z</time>
      </trkpt>
      <trkpt lat="42.83865" lon="0.5044">
        <ele>1893</ele>
        <time>2020-02-01T11:50:58.000Z</time>
      </trkpt>
      <trkpt lat="42.83865" lon="0.5044">
        <ele>1893</ele>
        <time>2020-02-01T11:50:59.000Z</time>
      </trkpt>
      <trkpt lat="42.83865" lon="0.5044">
        <ele>1893</ele>
        <time>2020-02-01T11:51:00.000Z</time>
      </trkpt>
      <trkpt lat="42.83865" lon="0.5044">
        <ele>1893</ele>
        <time>2020-02-01T11:51:01.000Z</time>
      </trkpt>
      <trkpt lat="42.83865" lon="0.5044">
        <ele>1893</ele>
        <time>2020-02-01T11:51:02.000Z</time>
      </trkpt>
      <trkpt lat="42.83865" lon="0.5044">
        <ele>1893</ele>
        <time>2020-02-01T11:51:03.000Z</time>
      </trkpt>
      <trkpt lat="42.83864" lon="0.5044">
        <ele>1893</ele>
        <time>2020-02-01T11:51:04.000Z</time>
      </trkpt>
      <trkpt lat="42.83864" lon="0.5044">
        <ele>1893</ele>
        <time>2020-02-01T11:51:05.000Z</time>
      </trkpt>
      <trkpt lat="42.83864" lon="0.5044">
        <ele>1893</ele>
        <time>2020-02-01T11:51:06.000Z</time>
      </trkpt>
      <trkpt lat="42.83864" lon="0.50439">
        <ele>1893</ele>
        <time>2020-02-01T11:51:07.000Z</time>
      </trkpt>
      <trkpt lat="42.83864" lon="0.50439">
        <ele>1893</ele>
        <time>2020-02-01T11:51:08.000Z</time>
      </trkpt>
      <trkpt lat="42.83863" lon="0.50439">
        <ele>1893</ele>
        <time>2020-02-01T11:51:09.000Z</time>
      </trkpt>
      <trkpt lat="42.83863" lon="0.50439">
        <ele>1893</ele>
        <time>2020-02-01T11:51:10.000Z</time>
      </trkpt>
      <trkpt lat="42.83863" lon="0.50439">
        <ele>1893</ele>
        <time>2020-02-01T11:51:11.000Z</time>
      </trkpt>
      <trkpt lat="42.83862" lon="0.50439">
        <ele>1893</ele>
        <time>2020-02-01T11:51:12.000Z</time>
      </trkpt>
      <trkpt lat="42.83862" lon="0.50438">
        <ele>1893</ele>
        <time>2020-02-01T11:51:13.000Z</time>
      </trkpt>
      <trkpt lat="42.83861" lon="0.50438">
        <ele>1893</ele>
        <time>2020-02-01T11:51:14.000Z</time>
      </trkpt>
      <trkpt lat="42.83861" lon="0.50438">
        <ele>1893.3</ele>
        <time>2020-02-01T11:51:15.000Z</time>
      </trkpt>
      <trkpt lat="42.8386" lon="0.50438">
        <ele>1893.7</ele>
        <time>2020-02-01T11:51:16.000Z</time>
      </trkpt>
      <trkpt lat="42.8386" lon="0.50437">
        <ele>1894</ele>
        <time>2020-02-01T11:51:17.000Z</time>
      </trkpt>
      <trkpt lat="42.83859" lon="0.50437">
        <ele>1894</ele>
        <time>2020-02-01T11:51:18.000Z</time>
      </trkpt>
      <trkpt lat="42.83859" lon="0.50437">
        <ele>1894</ele>
        <time>2020-02-01T11:51:19.000Z</time>
      </trkpt>
      <trkpt lat="42.83858" lon="0.50437">
        <ele>1894</ele>
        <time>2020-02-01T11:51:20.000Z</time>
      </trkpt>
      <trkpt lat="42.83858" lon="0.50436">
        <ele>1894</ele>
        <time>2020-02-01T11:51:21.000Z</time>
      </trkpt>
      <trkpt lat="42.83857" lon="0.50436">
        <ele>1895</ele>
        <time>2020-02-01T11:51:22.000Z</time>
      </trkpt>
      <trkpt lat="42.83857" lon="0.50436">
        <ele>1895</ele>
        <time>2020-02-01T11:51:23.000Z</time>
      </trkpt>
      <trkpt lat="42.83857" lon="0.50436">
        <ele>1895</ele>
        <time>2020-02-01T11:51:24.000Z</time>
      </trkpt>
      <trkpt lat="42.83856" lon="0.50435">
        <ele>1895</ele>
        <time>2020-02-01T11:51:25.000Z</time>
      </trkpt>
      <trkpt lat="42.83856" lon="0.50435">
        <ele>1895.5</ele>
        <time>2020-02-01T11:51:26.000Z</time>
      </trkpt>
      <trkpt lat="42.83855" lon="0.50435">
        <ele>1896</ele>
        <time>2020-02-01T11:51:27.000Z</time>
      </trkpt>
      <trkpt lat="42.83855" lon="0.50434">
        <ele>1896</ele>
        <time>2020-02-01T11:51:28.000Z</time>
      </trkpt>
      <trkpt lat="42.83855" lon="0.50434">
        <ele>1896</ele>
        <time>2020-02-01T11:51:29.000Z</time>
      </trkpt>
      <trkpt lat="42.83854" lon="0.50434">
        <ele>1896</ele>
        <time>2020-02-01T11:51:30.000Z</time>
      </trkpt>
      <trkpt lat="42.83854" lon="0.50433">
        <ele>1896</ele>
        <time>2020-02-01T11:51:31.000Z</time>
      </trkpt>
      <trkpt lat="42.83853" lon="0.50433">
        <ele>1896</ele>
        <time>2020-02-01T11:51:32.000Z</time>
      </trkpt>
      <trkpt lat="42.83853" lon="0.50432">
        <ele>1896</ele>
        <time>2020-02-01T11:51:33.000Z</time>
      </trkpt>
      <trkpt lat="42.83852" lon="0.50432">
        <ele>1896</ele>
        <time>2020-02-01T11:51:34.000Z</time>
      </trkpt>
      <trkpt lat="42.83851" lon="0.50432">
        <ele>1896</ele>
        <time>2020-02-01T11:51:35.000Z</time>
      </trkpt>
      <trkpt lat="42.8385" lon="0.50431">
        <ele>1896.5</ele>
        <time>2020-02-01T11:51:36.000Z</time>
      </trkpt>
      <trkpt lat="42.8385" lon="0.50431">
        <ele>1897</ele>
        <time>2020-02-01T11:51:37.000Z</time>
      </trkpt>
      <trkpt lat="42.83849" lon="0.50431">
        <ele>1897</ele>
        <time>2020-02-01T11:51:38.000Z</time>
      </trkpt>
      <trkpt lat="42.83848" lon="0.50431">
        <ele>1897</ele>
        <time>2020-02-01T11:51:39.000Z</time>
      </trkpt>
      <trkpt lat="42.83848" lon="0.50431">
        <ele>1897</ele>
        <time>2020-02-01T11:51:40.000Z</time>
      </trkpt>
      <trkpt lat="42.83848" lon="0.50431">
        <ele>1897</ele>
        <time>2020-02-01T11:51:41.000Z</time>
      </trkpt>
      <trkpt lat="42.83848" lon="0.50431">
        <ele>1897</ele>
        <time>2020-02-01T11:51:42.000Z</time>
      </trkpt>
      <trkpt lat="42.83847" lon="0.50431">
        <ele>1897</ele>
        <time>2020-02-01T11:51:43.000Z</time>
      </trkpt>
      <trkpt lat="42.83847" lon="0.50431">
        <ele>1898</ele>
        <time>2020-02-01T11:51:44.000Z</time>
      </trkpt>
      <trkpt lat="42.83847" lon="0.50431">
        <ele>1898</ele>
        <time>2020-02-01T11:51:45.000Z</time>
      </trkpt>
      <trkpt lat="42.83847" lon="0.50431">
        <ele>1898</ele>
        <time>2020-02-01T11:51:46.000Z</time>
      </trkpt>
      <trkpt lat="42.83847" lon="0.50431">
        <ele>1898</ele>
        <time>2020-02-01T11:51:47.000Z</time>
      </trkpt>
      <trkpt lat="42.83847" lon="0.50431">
        <ele>1898</ele>
        <time>2020-02-01T11:51:48.000Z</time>
      </trkpt>
      <trkpt lat="42.83847" lon="0.5043">
        <ele>1898</ele>
        <time>2020-02-01T11:51:49.000Z</time>
      </trkpt>
      <trkpt lat="42.83847" lon="0.5043">
        <ele>1898</ele>
        <time>2020-02-01T11:51:50.000Z</time>
      </trkpt>
      <trkpt lat="42.83847" lon="0.5043">
        <ele>1898.3</ele>
        <time>2020-02-01T11:51:51.000Z</time>
      </trkpt>
      <trkpt lat="42.83847" lon="0.5043">
        <ele>1898.7</ele>
        <time>2020-02-01T11:51:52.000Z</time>
      </trkpt>
      <trkpt lat="42.83846" lon="0.5043">
        <ele>1899</ele>
        <time>2020-02-01T11:51:53.000Z</time>
      </trkpt>
      <trkpt lat="42.83846" lon="0.5043">
        <ele>1899</ele>
        <time>2020-02-01T11:51:54.000Z</time>
      </trkpt>
      <trkpt lat="42.83845" lon="0.50429">
        <ele>1899</ele>
        <time>2020-02-01T11:51:55.000Z</time>
      </trkpt>
      <trkpt lat="42.83845" lon="0.50429">
        <ele>1899</ele>
        <time>2020-02-01T11:51:56.000Z</time>
      </trkpt>
      <trkpt lat="42.83845" lon="0.50429">
        <ele>1899</ele>
        <time>2020-02-01T11:51:57.000Z</time>
      </trkpt>
      <trkpt lat="42.83844" lon="0.50429">
        <ele>1899</ele>
        <time>2020-02-01T11:51:58.000Z</time>
      </trkpt>
      <trkpt lat="42.83844" lon="0.50429">
        <ele>1899</ele>
        <time>2020-02-01T11:51:59.000Z</time>
      </trkpt>
      <trkpt lat="42.83844" lon="0.50429">
        <ele>1899</ele>
        <time>2020-02-01T11:52:00.000Z</time>
      </trkpt>
      <trkpt lat="42.83844" lon="0.50429">
        <ele>1899</ele>
        <time>2020-02-01T11:52:01.000Z</time>
      </trkpt>
      <trkpt lat="42.83844" lon="0.50429">
        <ele>1899</ele>
        <time>2020-02-01T11:52:02.000Z</time>
      </trkpt>
      <trkpt lat="42.83844" lon="0.50429">
        <ele>1899</ele>
        <time>2020-02-01T11:52:03.000Z</time>
      </trkpt>
      <trkpt lat="42.83844" lon="0.50429">
        <ele>1899</ele>
        <time>2020-02-01T11:52:04.000Z</time>
      </trkpt>
      <trkpt lat="42.83844" lon="0.50429">
        <ele>1899</ele>
        <time>2020-02-01T11:52:05.000Z</time>
      </trkpt>
      <trkpt lat="42.83844" lon="0.50429">
        <ele>1899</ele>
        <time>2020-02-01T11:52:06.000Z</time>
      </trkpt>
      <trkpt lat="42.83844" lon="0.50429">
        <ele>1899</ele>
        <time>2020-02-01T11:52:07.000Z</time>
      </trkpt>
      <trkpt lat="42.83844" lon="0.50429">
        <ele>1899</ele>
        <time>2020-02-01T11:52:08.000Z</time>
      </trkpt>
      <trkpt lat="42.83844" lon="0.50429">
        <ele>1899</ele>
        <time>2020-02-01T11:52:09.000Z</time>
      </trkpt>
      <trkpt lat="42.83844" lon="0.50429">
        <ele>1899</ele>
        <time>2020-02-01T11:52:10.000Z</time>
      </trkpt>
      <trkpt lat="42.83844" lon="0.50429">
        <ele>1899</ele>
        <time>2020-02-01T11:52:11.000Z</time>
      </trkpt>
      <trkpt lat="42.83844" lon="0.50429">
        <ele>1899</ele>
        <time>2020-02-01T11:52:12.000Z</time>
      </trkpt>
      <trkpt lat="42.83844" lon="0.50429">
        <ele>1899</ele>
        <time>2020-02-01T11:52:13.000Z</time>
      </trkpt>
      <trkpt lat="42.83844" lon="0.50429">
        <ele>1899</ele>
        <time>2020-02-01T11:52:14.000Z</time>
      </trkpt>
      <trkpt lat="42.83844" lon="0.50429">
        <ele>1899</ele>
        <time>2020-02-01T11:52:15.000Z</time>
      </trkpt>
      <trkpt lat="42.83844" lon="0.50429">
        <ele>1899</ele>
        <time>2020-02-01T11:52:16.000Z</time>
      </trkpt>
      <trkpt lat="42.83844" lon="0.50429">
        <ele>1899</ele>
        <time>2020-02-01T11:52:17.000Z</time>
      </trkpt>
      <trkpt lat="42.83843" lon="0.50429">
        <ele>1899</ele>
        <time>2020-02-01T11:52:18.000Z</time>
      </trkpt>
      <trkpt lat="42.83843" lon="0.50429">
        <ele>1899</ele>
        <time>2020-02-01T11:52:19.000Z</time>
      </trkpt>
      <trkpt lat="42.83843" lon="0.50429">
        <ele>1899</ele>
        <time>2020-02-01T11:52:20.000Z</time>
      </trkpt>
      <trkpt lat="42.83842" lon="0.50429">
        <ele>1899</ele>
        <time>2020-02-01T11:52:21.000Z</time>
      </trkpt>
      <trkpt lat="42.83842" lon="0.50429">
        <ele>1900</ele>
        <time>2020-02-01T11:52:22.000Z</time>
      </trkpt>
      <trkpt lat="42.83841" lon="0.50428">
        <ele>1900</ele>
        <time>2020-02-01T11:52:23.000Z</time>
      </trkpt>
      <trkpt lat="42.8384" lon="0.50428">
        <ele>1900</ele>
        <time>2020-02-01T11:52:24.000Z</time>
      </trkpt>
      <trkpt lat="42.8384" lon="0.50428">
        <ele>1900</ele>
        <time>2020-02-01T11:52:25.000Z</time>
      </trkpt>
      <trkpt lat="42.83839" lon="0.50428">
        <ele>1900</ele>
        <time>2020-02-01T11:52:26.000Z</time>
      </trkpt>
      <trkpt lat="42.83839" lon="0.50428">
        <ele>1900</ele>
        <time>2020-02-01T11:52:27.000Z</time>
      </trkpt>
      <trkpt lat="42.83838" lon="0.50428">
        <ele>1900.5</ele>
        <time>2020-02-01T11:52:28.000Z</time>
      </trkpt>
      <trkpt lat="42.83838" lon="0.50427">
        <ele>1901</ele>
        <time>2020-02-01T11:52:29.000Z</time>
      </trkpt>
      <trkpt lat="42.83837" lon="0.50427">
        <ele>1901</ele>
        <time>2020-02-01T11:52:30.000Z</time>
      </trkpt>
      <trkpt lat="42.83837" lon="0.50427">
        <ele>1901</ele>
        <time>2020-02-01T11:52:31.000Z</time>
      </trkpt>
      <trkpt lat="42.83837" lon="0.50427">
        <ele>1901</ele>
        <time>2020-02-01T11:52:32.000Z</time>
      </trkpt>
      <trkpt lat="42.83837" lon="0.50427">
        <ele>1901</ele>
        <time>2020-02-01T11:52:33.000Z</time>
      </trkpt>
      <trkpt lat="42.83836" lon="0.50427">
        <ele>1901</ele>
        <time>2020-02-01T11:52:34.000Z</time>
      </trkpt>
      <trkpt lat="42.83836" lon="0.50427">
        <ele>1901</ele>
        <time>2020-02-01T11:52:35.000Z</time>
      </trkpt>
      <trkpt lat="42.83836" lon="0.50427">
        <ele>1901</ele>
        <time>2020-02-01T11:52:36.000Z</time>
      </trkpt>
      <trkpt lat="42.83835" lon="0.50427">
        <ele>1901</ele>
        <time>2020-02-01T11:52:37.000Z</time>
      </trkpt>
      <trkpt lat="42.83835" lon="0.50428">
        <ele>1902</ele>
        <time>2020-02-01T11:52:38.000Z</time>
      </trkpt>
      <trkpt lat="42.83834" lon="0.50428">
        <ele>1902</ele>
        <time>2020-02-01T11:52:39.000Z</time>
      </trkpt>
      <trkpt lat="42.83833" lon="0.50428">
        <ele>1902</ele>
        <time>2020-02-01T11:52:40.000Z</time>
      </trkpt>
      <trkpt lat="42.83833" lon="0.50428">
        <ele>1902</ele>
        <time>2020-02-01T11:52:41.000Z</time>
      </trkpt>
      <trkpt lat="42.83832" lon="0.50428">
        <ele>1902</ele>
        <time>2020-02-01T11:52:42.000Z</time>
      </trkpt>
      <trkpt lat="42.83832" lon="0.50428">
        <ele>1902</ele>
        <time>2020-02-01T11:52:43.000Z</time>
      </trkpt>
      <trkpt lat="42.83831" lon="0.50428">
        <ele>1902</ele>
        <time>2020-02-01T11:52:44.000Z</time>
      </trkpt>
      <trkpt lat="42.83831" lon="0.50428">
        <ele>1902</ele>
        <time>2020-02-01T11:52:45.000Z</time>
      </trkpt>
      <trkpt lat="42.83831" lon="0.50428">
        <ele>1902</ele>
        <time>2020-02-01T11:52:46.000Z</time>
      </trkpt>
      <trkpt lat="42.83831" lon="0.50428">
        <ele>1902</ele>
        <time>2020-02-01T11:52:47.000Z</time>
      </trkpt>
      <trkpt lat="42.8383" lon="0.50428">
        <ele>1903</ele>
        <time>2020-02-01T11:52:48.000Z</time>
      </trkpt>
      <trkpt lat="42.8383" lon="0.50428">
        <ele>1903</ele>
        <time>2020-02-01T11:52:49.000Z</time>
      </trkpt>
      <trkpt lat="42.8383" lon="0.50428">
        <ele>1903</ele>
        <time>2020-02-01T11:52:50.000Z</time>
      </trkpt>
      <trkpt lat="42.8383" lon="0.50428">
        <ele>1903</ele>
        <time>2020-02-01T11:52:51.000Z</time>
      </trkpt>
      <trkpt lat="42.8383" lon="0.50428">
        <ele>1903</ele>
        <time>2020-02-01T11:52:52.000Z</time>
      </trkpt>
      <trkpt lat="42.8383" lon="0.50428">
        <ele>1903</ele>
        <time>2020-02-01T11:52:53.000Z</time>
      </trkpt>
      <trkpt lat="42.8383" lon="0.50428">
        <ele>1903</ele>
        <time>2020-02-01T11:52:54.000Z</time>
      </trkpt>
      <trkpt lat="42.8383" lon="0.50428">
        <ele>1903</ele>
        <time>2020-02-01T11:52:55.000Z</time>
      </trkpt>
      <trkpt lat="42.8383" lon="0.50428">
        <ele>1903</ele>
        <time>2020-02-01T11:52:56.000Z</time>
      </trkpt>
      <trkpt lat="42.83829" lon="0.50428">
        <ele>1903</ele>
        <time>2020-02-01T11:52:57.000Z</time>
      </trkpt>
      <trkpt lat="42.83829" lon="0.50429">
        <ele>1903</ele>
        <time>2020-02-01T11:52:58.000Z</time>
      </trkpt>
      <trkpt lat="42.83829" lon="0.50429">
        <ele>1903</ele>
        <time>2020-02-01T11:52:59.000Z</time>
      </trkpt>
      <trkpt lat="42.83829" lon="0.50429">
        <ele>1903</ele>
        <time>2020-02-01T11:53:00.000Z</time>
      </trkpt>
      <trkpt lat="42.83829" lon="0.50429">
        <ele>1903</ele>
        <time>2020-02-01T11:53:01.000Z</time>
      </trkpt>
      <trkpt lat="42.83829" lon="0.50429">
        <ele>1903</ele>
        <time>2020-02-01T11:53:02.000Z</time>
      </trkpt>
      <trkpt lat="42.83829" lon="0.50429">
        <ele>1903</ele>
        <time>2020-02-01T11:53:03.000Z</time>
      </trkpt>
      <trkpt lat="42.83829" lon="0.50429">
        <ele>1903</ele>
        <time>2020-02-01T11:53:04.000Z</time>
      </trkpt>
      <trkpt lat="42.83828" lon="0.50429">
        <ele>1903</ele>
        <time>2020-02-01T11:53:05.000Z</time>
      </trkpt>
      <trkpt lat="42.83828" lon="0.50429">
        <ele>1903</ele>
        <time>2020-02-01T11:53:06.000Z</time>
      </trkpt>
      <trkpt lat="42.83828" lon="0.50429">
        <ele>1903</ele>
        <time>2020-02-01T11:53:07.000Z</time>
      </trkpt>
      <trkpt lat="42.83827" lon="0.50428">
        <ele>1903.5</ele>
        <time>2020-02-01T11:53:08.000Z</time>
      </trkpt>
      <trkpt lat="42.83827" lon="0.50428">
        <ele>1904</ele>
        <time>2020-02-01T11:53:09.000Z</time>
      </trkpt>
      <trkpt lat="42.83826" lon="0.50428">
        <ele>1904</ele>
        <time>2020-02-01T11:53:10.000Z</time>
      </trkpt>
      <trkpt lat="42.83826" lon="0.50427">
        <ele>1904</ele>
        <time>2020-02-01T11:53:11.000Z</time>
      </trkpt>
      <trkpt lat="42.83826" lon="0.50427">
        <ele>1904</ele>
        <time>2020-02-01T11:53:12.000Z</time>
      </trkpt>
      <trkpt lat="42.83825" lon="0.50427">
        <ele>1904</ele>
        <time>2020-02-01T11:53:13.000Z</time>
      </trkpt>
      <trkpt lat="42.83825" lon="0.50426">
        <ele>1904</ele>
        <time>2020-02-01T11:53:14.000Z</time>
      </trkpt>
      <trkpt lat="42.83825" lon="0.50426">
        <ele>1904</ele>
        <time>2020-02-01T11:53:15.000Z</time>
      </trkpt>
      <trkpt lat="42.83824" lon="0.50426">
        <ele>1904</ele>
        <time>2020-02-01T11:53:16.000Z</time>
      </trkpt>
      <trkpt lat="42.83824" lon="0.50426">
        <ele>1904</ele>
        <time>2020-02-01T11:53:17.000Z</time>
      </trkpt>
      <trkpt lat="42.83824" lon="0.50425">
        <ele>1904.5</ele>
        <time>2020-02-01T11:53:18.000Z</time>
      </trkpt>
      <trkpt lat="42.83823" lon="0.50425">
        <ele>1905</ele>
        <time>2020-02-01T11:53:19.000Z</time>
      </trkpt>
      <trkpt lat="42.83823" lon="0.50425">
        <ele>1905</ele>
        <time>2020-02-01T11:53:20.000Z</time>
      </trkpt>
      <trkpt lat="42.83823" lon="0.50425">
        <ele>1905</ele>
        <time>2020-02-01T11:53:21.000Z</time>
      </trkpt>
      <trkpt lat="42.83822" lon="0.50424">
        <ele>1905</ele>
        <time>2020-02-01T11:53:22.000Z</time>
      </trkpt>
      <trkpt lat="42.83822" lon="0.50424">
        <ele>1905</ele>
        <time>2020-02-01T11:53:23.000Z</time>
      </trkpt>
      <trkpt lat="42.83821" lon="0.50424">
        <ele>1905.5</ele>
        <time>2020-02-01T11:53:24.000Z</time>
      </trkpt>
      <trkpt lat="42.83821" lon="0.50424">
        <ele>1906</ele>
        <time>2020-02-01T11:53:25.000Z</time>
      </trkpt>
      <trkpt lat="42.8382" lon="0.50424">
        <ele>1906</ele>
        <time>2020-02-01T11:53:26.000Z</time>
      </trkpt>
      <trkpt lat="42.8382" lon="0.50424">
        <ele>1906</ele>
        <time>2020-02-01T11:53:27.000Z</time>
      </trkpt>
      <trkpt lat="42.83819" lon="0.50424">
        <ele>1906</ele>
        <time>2020-02-01T11:53:28.000Z</time>
      </trkpt>
      <trkpt lat="42.83819" lon="0.50424">
        <ele>1906</ele>
        <time>2020-02-01T11:53:29.000Z</time>
      </trkpt>
      <trkpt lat="42.83818" lon="0.50424">
        <ele>1906</ele>
        <time>2020-02-01T11:53:30.000Z</time>
      </trkpt>
      <trkpt lat="42.83818" lon="0.50423">
        <ele>1906</ele>
        <time>2020-02-01T11:53:31.000Z</time>
      </trkpt>
      <trkpt lat="42.83817" lon="0.50423">
        <ele>1906</ele>
        <time>2020-02-01T11:53:32.000Z</time>
      </trkpt>
      <trkpt lat="42.83817" lon="0.50423">
        <ele>1906</ele>
        <time>2020-02-01T11:53:33.000Z</time>
      </trkpt>
      <trkpt lat="42.83816" lon="0.50423">
        <ele>1906</ele>
        <time>2020-02-01T11:53:34.000Z</time>
      </trkpt>
      <trkpt lat="42.83816" lon="0.50422">
        <ele>1906</ele>
        <time>2020-02-01T11:53:35.000Z</time>
      </trkpt>
      <trkpt lat="42.83815" lon="0.50422">
        <ele>1906</ele>
        <time>2020-02-01T11:53:36.000Z</time>
      </trkpt>
      <trkpt lat="42.83815" lon="0.50421">
        <ele>1906.3</ele>
        <time>2020-02-01T11:53:37.000Z</time>
      </trkpt>
      <trkpt lat="42.83815" lon="0.50421">
        <ele>1906.7</ele>
        <time>2020-02-01T11:53:38.000Z</time>
      </trkpt>
      <trkpt lat="42.83814" lon="0.5042">
        <ele>1907</ele>
        <time>2020-02-01T11:53:39.000Z</time>
      </trkpt>
      <trkpt lat="42.83814" lon="0.5042">
        <ele>1907</ele>
        <time>2020-02-01T11:53:40.000Z</time>
      </trkpt>
      <trkpt lat="42.83814" lon="0.5042">
        <ele>1907</ele>
        <time>2020-02-01T11:53:41.000Z</time>
      </trkpt>
      <trkpt lat="42.83813" lon="0.50419">
        <ele>1907</ele>
        <time>2020-02-01T11:53:42.000Z</time>
      </trkpt>
      <trkpt lat="42.83813" lon="0.50419">
        <ele>1907</ele>
        <time>2020-02-01T11:53:43.000Z</time>
      </trkpt>
      <trkpt lat="42.83813" lon="0.50419">
        <ele>1907.5</ele>
        <time>2020-02-01T11:53:44.000Z</time>
      </trkpt>
      <trkpt lat="42.83813" lon="0.50419">
        <ele>1908</ele>
        <time>2020-02-01T11:53:45.000Z</time>
      </trkpt>
      <trkpt lat="42.83813" lon="0.50419">
        <ele>1908</ele>
        <time>2020-02-01T11:53:46.000Z</time>
      </trkpt>
      <trkpt lat="42.83813" lon="0.50419">
        <ele>1908</ele>
        <time>2020-02-01T11:53:47.000Z</time>
      </trkpt>
      <trkpt lat="42.83813" lon="0.50419">
        <ele>1908</ele>
        <time>2020-02-01T11:53:48.000Z</time>
      </trkpt>
      <trkpt lat="42.83813" lon="0.50419">
        <ele>1908</ele>
        <time>2020-02-01T11:53:49.000Z</time>
      </trkpt>
      <trkpt lat="42.83813" lon="0.50419">
        <ele>1908</ele>
        <time>2020-02-01T11:53:50.000Z</time>
      </trkpt>
      <trkpt lat="42.83813" lon="0.50419">
        <ele>1908</ele>
        <time>2020-02-01T11:53:51.000Z</time>
      </trkpt>
      <trkpt lat="42.83813" lon="0.50419">
        <ele>1908</ele>
        <time>2020-02-01T11:53:52.000Z</time>
      </trkpt>
      <trkpt lat="42.83813" lon="0.50419">
        <ele>1908</ele>
        <time>2020-02-01T11:53:53.000Z</time>
      </trkpt>
      <trkpt lat="42.83813" lon="0.50419">
        <ele>1908</ele>
        <time>2020-02-01T11:53:54.000Z</time>
      </trkpt>
      <trkpt lat="42.83813" lon="0.50419">
        <ele>1908</ele>
        <time>2020-02-01T11:53:55.000Z</time>
      </trkpt>
      <trkpt lat="42.83813" lon="0.50419">
        <ele>1908</ele>
        <time>2020-02-01T11:53:56.000Z</time>
      </trkpt>
      <trkpt lat="42.83812" lon="0.50419">
        <ele>1908</ele>
        <time>2020-02-01T11:53:57.000Z</time>
      </trkpt>
      <trkpt lat="42.83812" lon="0.50419">
        <ele>1908</ele>
        <time>2020-02-01T11:53:58.000Z</time>
      </trkpt>
      <trkpt lat="42.83812" lon="0.50419">
        <ele>1908</ele>
        <time>2020-02-01T11:53:59.000Z</time>
      </trkpt>
      <trkpt lat="42.83812" lon="0.50419">
        <ele>1908</ele>
        <time>2020-02-01T11:54:00.000Z</time>
      </trkpt>
      <trkpt lat="42.83811" lon="0.50418">
        <ele>1908</ele>
        <time>2020-02-01T11:54:01.000Z</time>
      </trkpt>
      <trkpt lat="42.83811" lon="0.50418">
        <ele>1908</ele>
        <time>2020-02-01T11:54:02.000Z</time>
      </trkpt>
      <trkpt lat="42.8381" lon="0.50418">
        <ele>1908.3</ele>
        <time>2020-02-01T11:54:03.000Z</time>
      </trkpt>
      <trkpt lat="42.83809" lon="0.50417">
        <ele>1908.7</ele>
        <time>2020-02-01T11:54:04.000Z</time>
      </trkpt>
      <trkpt lat="42.83809" lon="0.50417">
        <ele>1909</ele>
        <time>2020-02-01T11:54:05.000Z</time>
      </trkpt>
      <trkpt lat="42.83808" lon="0.50417">
        <ele>1909</ele>
        <time>2020-02-01T11:54:06.000Z</time>
      </trkpt>
      <trkpt lat="42.83808" lon="0.50416">
        <ele>1909</ele>
        <time>2020-02-01T11:54:07.000Z</time>
      </trkpt>
      <trkpt lat="42.83807" lon="0.50416">
        <ele>1909</ele>
        <time>2020-02-01T11:54:08.000Z</time>
      </trkpt>
      <trkpt lat="42.83807" lon="0.50415">
        <ele>1909</ele>
        <time>2020-02-01T11:54:09.000Z</time>
      </trkpt>
      <trkpt lat="42.83807" lon="0.50415">
        <ele>1909</ele>
        <time>2020-02-01T11:54:10.000Z</time>
      </trkpt>
      <trkpt lat="42.83806" lon="0.50415">
        <ele>1909</ele>
        <time>2020-02-01T11:54:11.000Z</time>
      </trkpt>
      <trkpt lat="42.83806" lon="0.50414">
        <ele>1909</ele>
        <time>2020-02-01T11:54:12.000Z</time>
      </trkpt>
      <trkpt lat="42.83806" lon="0.50414">
        <ele>1909</ele>
        <time>2020-02-01T11:54:13.000Z</time>
      </trkpt>
      <trkpt lat="42.83805" lon="0.50413">
        <ele>1909</ele>
        <time>2020-02-01T11:54:14.000Z</time>
      </trkpt>
      <trkpt lat="42.83805" lon="0.50413">
        <ele>1909</ele>
        <time>2020-02-01T11:54:15.000Z</time>
      </trkpt>
      <trkpt lat="42.83804" lon="0.50413">
        <ele>1910</ele>
        <time>2020-02-01T11:54:16.000Z</time>
      </trkpt>
      <trkpt lat="42.83803" lon="0.50413">
        <ele>1910</ele>
        <time>2020-02-01T11:54:17.000Z</time>
      </trkpt>
      <trkpt lat="42.83803" lon="0.50413">
        <ele>1910</ele>
        <time>2020-02-01T11:54:18.000Z</time>
      </trkpt>
      <trkpt lat="42.83802" lon="0.50413">
        <ele>1910</ele>
        <time>2020-02-01T11:54:19.000Z</time>
      </trkpt>
      <trkpt lat="42.83801" lon="0.50413">
        <ele>1911</ele>
        <time>2020-02-01T11:54:20.000Z</time>
      </trkpt>
      <trkpt lat="42.838" lon="0.50413">
        <ele>1911</ele>
        <time>2020-02-01T11:54:21.000Z</time>
      </trkpt>
      <trkpt lat="42.83799" lon="0.50413">
        <ele>1911</ele>
        <time>2020-02-01T11:54:22.000Z</time>
      </trkpt>
      <trkpt lat="42.83798" lon="0.50413">
        <ele>1911</ele>
        <time>2020-02-01T11:54:23.000Z</time>
      </trkpt>
      <trkpt lat="42.83798" lon="0.50413">
        <ele>1911.5</ele>
        <time>2020-02-01T11:54:24.000Z</time>
      </trkpt>
      <trkpt lat="42.83798" lon="0.50413">
        <ele>1912</ele>
        <time>2020-02-01T11:54:25.000Z</time>
      </trkpt>
      <trkpt lat="42.83798" lon="0.50413">
        <ele>1912</ele>
        <time>2020-02-01T11:54:26.000Z</time>
      </trkpt>
      <trkpt lat="42.83798" lon="0.50413">
        <ele>1912</ele>
        <time>2020-02-01T11:54:27.000Z</time>
      </trkpt>
      <trkpt lat="42.83797" lon="0.50413">
        <ele>1912</ele>
        <time>2020-02-01T11:54:28.000Z</time>
      </trkpt>
      <trkpt lat="42.83797" lon="0.50413">
        <ele>1912</ele>
        <time>2020-02-01T11:54:29.000Z</time>
      </trkpt>
      <trkpt lat="42.83796" lon="0.50413">
        <ele>1912</ele>
        <time>2020-02-01T11:54:30.000Z</time>
      </trkpt>
      <trkpt lat="42.83795" lon="0.50413">
        <ele>1912</ele>
        <time>2020-02-01T11:54:31.000Z</time>
      </trkpt>
      <trkpt lat="42.83795" lon="0.50413">
        <ele>1912</ele>
        <time>2020-02-01T11:54:32.000Z</time>
      </trkpt>
      <trkpt lat="42.83794" lon="0.50413">
        <ele>1912</ele>
        <time>2020-02-01T11:54:33.000Z</time>
      </trkpt>
      <trkpt lat="42.83793" lon="0.50413">
        <ele>1912</ele>
        <time>2020-02-01T11:54:34.000Z</time>
      </trkpt>
      <trkpt lat="42.83793" lon="0.50413">
        <ele>1912</ele>
        <time>2020-02-01T11:54:35.000Z</time>
      </trkpt>
      <trkpt lat="42.83792" lon="0.50413">
        <ele>1912</ele>
        <time>2020-02-01T11:54:36.000Z</time>
      </trkpt>
      <trkpt lat="42.83792" lon="0.50413">
        <ele>1912</ele>
        <time>2020-02-01T11:54:37.000Z</time>
      </trkpt>
      <trkpt lat="42.83792" lon="0.50412">
        <ele>1912</ele>
        <time>2020-02-01T11:54:38.000Z</time>
      </trkpt>
      <trkpt lat="42.83791" lon="0.50412">
        <ele>1912</ele>
        <time>2020-02-01T11:54:39.000Z</time>
      </trkpt>
      <trkpt lat="42.83791" lon="0.50411">
        <ele>1913</ele>
        <time>2020-02-01T11:54:40.000Z</time>
      </trkpt>
      <trkpt lat="42.83791" lon="0.5041">
        <ele>1913</ele>
        <time>2020-02-01T11:54:41.000Z</time>
      </trkpt>
      <trkpt lat="42.83791" lon="0.50409">
        <ele>1913</ele>
        <time>2020-02-01T11:54:42.000Z</time>
      </trkpt>
      <trkpt lat="42.83791" lon="0.50408">
        <ele>1913</ele>
        <time>2020-02-01T11:54:43.000Z</time>
      </trkpt>
      <trkpt lat="42.8379" lon="0.50408">
        <ele>1913</ele>
        <time>2020-02-01T11:54:44.000Z</time>
      </trkpt>
      <trkpt lat="42.8379" lon="0.50407">
        <ele>1913</ele>
        <time>2020-02-01T11:54:45.000Z</time>
      </trkpt>
      <trkpt lat="42.8379" lon="0.50406">
        <ele>1913</ele>
        <time>2020-02-01T11:54:46.000Z</time>
      </trkpt>
      <trkpt lat="42.83789" lon="0.50405">
        <ele>1913</ele>
        <time>2020-02-01T11:54:47.000Z</time>
      </trkpt>
      <trkpt lat="42.83789" lon="0.50405">
        <ele>1914</ele>
        <time>2020-02-01T11:54:48.000Z</time>
      </trkpt>
      <trkpt lat="42.83788" lon="0.50404">
        <ele>1914</ele>
        <time>2020-02-01T11:54:49.000Z</time>
      </trkpt>
      <trkpt lat="42.83788" lon="0.50404">
        <ele>1914</ele>
        <time>2020-02-01T11:54:50.000Z</time>
      </trkpt>
      <trkpt lat="42.83788" lon="0.50403">
        <ele>1914</ele>
        <time>2020-02-01T11:54:51.000Z</time>
      </trkpt>
      <trkpt lat="42.83787" lon="0.50403">
        <ele>1914</ele>
        <time>2020-02-01T11:54:52.000Z</time>
      </trkpt>
      <trkpt lat="42.83787" lon="0.50403">
        <ele>1914.3</ele>
        <time>2020-02-01T11:54:53.000Z</time>
      </trkpt>
      <trkpt lat="42.83787" lon="0.50403">
        <ele>1914.7</ele>
        <time>2020-02-01T11:54:54.000Z</time>
      </trkpt>
      <trkpt lat="42.83787" lon="0.50403">
        <ele>1915</ele>
        <time>2020-02-01T11:54:55.000Z</time>
      </trkpt>
      <trkpt lat="42.83787" lon="0.50403">
        <ele>1915</ele>
        <time>2020-02-01T11:54:56.000Z</time>
      </trkpt>
      <trkpt lat="42.83787" lon="0.50403">
        <ele>1915</ele>
        <time>2020-02-01T11:54:57.000Z</time>
      </trkpt>
      <trkpt lat="42.83787" lon="0.50403">
        <ele>1916</ele>
        <time>2020-02-01T11:54:58.000Z</time>
      </trkpt>
      <trkpt lat="42.83787" lon="0.50403">
        <ele>1916</ele>
        <time>2020-02-01T11:54:59.000Z</time>
      </trkpt>
      <trkpt lat="42.83787" lon="0.50403">
        <ele>1916</ele>
        <time>2020-02-01T11:55:00.000Z</time>
      </trkpt>
      <trkpt lat="42.83786" lon="0.50403">
        <ele>1916</ele>
        <time>2020-02-01T11:55:01.000Z</time>
      </trkpt>
      <trkpt lat="42.83785" lon="0.50403">
        <ele>1916</ele>
        <time>2020-02-01T11:55:02.000Z</time>
      </trkpt>
      <trkpt lat="42.83784" lon="0.50402">
        <ele>1916</ele>
        <time>2020-02-01T11:55:03.000Z</time>
      </trkpt>
      <trkpt lat="42.83783" lon="0.50402">
        <ele>1916</ele>
        <time>2020-02-01T11:55:04.000Z</time>
      </trkpt>
      <trkpt lat="42.83782" lon="0.50402">
        <ele>1916</ele>
        <time>2020-02-01T11:55:05.000Z</time>
      </trkpt>
      <trkpt lat="42.83781" lon="0.50401">
        <ele>1916</ele>
        <time>2020-02-01T11:55:06.000Z</time>
      </trkpt>
      <trkpt lat="42.83781" lon="0.50401">
        <ele>1916</ele>
        <time>2020-02-01T11:55:07.000Z</time>
      </trkpt>
      <trkpt lat="42.83781" lon="0.50401">
        <ele>1916</ele>
        <time>2020-02-01T11:55:08.000Z</time>
      </trkpt>
      <trkpt lat="42.8378" lon="0.50401">
        <ele>1916</ele>
        <time>2020-02-01T11:55:09.000Z</time>
      </trkpt>
      <trkpt lat="42.8378" lon="0.50401">
        <ele>1916.5</ele>
        <time>2020-02-01T11:55:10.000Z</time>
      </trkpt>
      <trkpt lat="42.83779" lon="0.504">
        <ele>1917</ele>
        <time>2020-02-01T11:55:11.000Z</time>
      </trkpt>
      <trkpt lat="42.83778" lon="0.504">
        <ele>1917</ele>
        <time>2020-02-01T11:55:12.000Z</time>
      </trkpt>
      <trkpt lat="42.83778" lon="0.504">
        <ele>1917</ele>
        <time>2020-02-01T11:55:13.000Z</time>
      </trkpt>
      <trkpt lat="42.83777" lon="0.504">
        <ele>1917</ele>
        <time>2020-02-01T11:55:14.000Z</time>
      </trkpt>
      <trkpt lat="42.83777" lon="0.504">
        <ele>1917</ele>
        <time>2020-02-01T11:55:15.000Z</time>
      </trkpt>
      <trkpt lat="42.83776" lon="0.504">
        <ele>1917</ele>
        <time>2020-02-01T11:55:16.000Z</time>
      </trkpt>
      <trkpt lat="42.83776" lon="0.504">
        <ele>1917</ele>
        <time>2020-02-01T11:55:17.000Z</time>
      </trkpt>
      <trkpt lat="42.83776" lon="0.504">
        <ele>1917</ele>
        <time>2020-02-01T11:55:18.000Z</time>
      </trkpt>
      <trkpt lat="42.83776" lon="0.504">
        <ele>1917</ele>
        <time>2020-02-01T11:55:19.000Z</time>
      </trkpt>
      <trkpt lat="42.83776" lon="0.504">
        <ele>1917.5</ele>
        <time>2020-02-01T11:55:20.000Z</time>
      </trkpt>
      <trkpt lat="42.83776" lon="0.504">
        <ele>1918</ele>
        <time>2020-02-01T11:55:21.000Z</time>
      </trkpt>
      <trkpt lat="42.83776" lon="0.504">
        <ele>1918</ele>
        <time>2020-02-01T11:55:22.000Z</time>
      </trkpt>
      <trkpt lat="42.83776" lon="0.504">
        <ele>1918</ele>
        <time>2020-02-01T11:55:23.000Z</time>
      </trkpt>
      <trkpt lat="42.83775" lon="0.50399">
        <ele>1918</ele>
        <time>2020-02-01T11:55:24.000Z</time>
      </trkpt>
      <trkpt lat="42.83775" lon="0.50399">
        <ele>1918</ele>
        <time>2020-02-01T11:55:25.000Z</time>
      </trkpt>
      <trkpt lat="42.83775" lon="0.50399">
        <ele>1918</ele>
        <time>2020-02-01T11:55:26.000Z</time>
      </trkpt>
      <trkpt lat="42.83774" lon="0.50398">
        <ele>1918</ele>
        <time>2020-02-01T11:55:27.000Z</time>
      </trkpt>
      <trkpt lat="42.83774" lon="0.50398">
        <ele>1918</ele>
        <time>2020-02-01T11:55:28.000Z</time>
      </trkpt>
      <trkpt lat="42.83773" lon="0.50397">
        <ele>1918</ele>
        <time>2020-02-01T11:55:29.000Z</time>
      </trkpt>
      <trkpt lat="42.83772" lon="0.50396">
        <ele>1918</ele>
        <time>2020-02-01T11:55:30.000Z</time>
      </trkpt>
      <trkpt lat="42.83772" lon="0.50395">
        <ele>1918</ele>
        <time>2020-02-01T11:55:31.000Z</time>
      </trkpt>
      <trkpt lat="42.83771" lon="0.50395">
        <ele>1918</ele>
        <time>2020-02-01T11:55:32.000Z</time>
      </trkpt>
      <trkpt lat="42.8377" lon="0.50394">
        <ele>1918.3</ele>
        <time>2020-02-01T11:55:33.000Z</time>
      </trkpt>
      <trkpt lat="42.83769" lon="0.50394">
        <ele>1918.7</ele>
        <time>2020-02-01T11:55:34.000Z</time>
      </trkpt>
      <trkpt lat="42.83769" lon="0.50394">
        <ele>1919</ele>
        <time>2020-02-01T11:55:35.000Z</time>
      </trkpt>
      <trkpt lat="42.83768" lon="0.50393">
        <ele>1919</ele>
        <time>2020-02-01T11:55:36.000Z</time>
      </trkpt>
      <trkpt lat="42.83768" lon="0.50393">
        <ele>1919</ele>
        <time>2020-02-01T11:55:37.000Z</time>
      </trkpt>
      <trkpt lat="42.83767" lon="0.50393">
        <ele>1919</ele>
        <time>2020-02-01T11:55:38.000Z</time>
      </trkpt>
      <trkpt lat="42.83767" lon="0.50393">
        <ele>1919</ele>
        <time>2020-02-01T11:55:39.000Z</time>
      </trkpt>
      <trkpt lat="42.83767" lon="0.50393">
        <ele>1919</ele>
        <time>2020-02-01T11:55:40.000Z</time>
      </trkpt>
      <trkpt lat="42.83766" lon="0.50392">
        <ele>1919</ele>
        <time>2020-02-01T11:55:41.000Z</time>
      </trkpt>
      <trkpt lat="42.83766" lon="0.50392">
        <ele>1919</ele>
        <time>2020-02-01T11:55:42.000Z</time>
      </trkpt>
      <trkpt lat="42.83765" lon="0.50392">
        <ele>1919</ele>
        <time>2020-02-01T11:55:43.000Z</time>
      </trkpt>
      <trkpt lat="42.83764" lon="0.50392">
        <ele>1919.5</ele>
        <time>2020-02-01T11:55:44.000Z</time>
      </trkpt>
      <trkpt lat="42.83764" lon="0.50391">
        <ele>1920</ele>
        <time>2020-02-01T11:55:45.000Z</time>
      </trkpt>
      <trkpt lat="42.83763" lon="0.50391">
        <ele>1920</ele>
        <time>2020-02-01T11:55:46.000Z</time>
      </trkpt>
      <trkpt lat="42.83762" lon="0.50391">
        <ele>1920</ele>
        <time>2020-02-01T11:55:47.000Z</time>
      </trkpt>
      <trkpt lat="42.83762" lon="0.5039">
        <ele>1920</ele>
        <time>2020-02-01T11:55:48.000Z</time>
      </trkpt>
      <trkpt lat="42.83761" lon="0.5039">
        <ele>1920</ele>
        <time>2020-02-01T11:55:49.000Z</time>
      </trkpt>
      <trkpt lat="42.83761" lon="0.5039">
        <ele>1920</ele>
        <time>2020-02-01T11:55:50.000Z</time>
      </trkpt>
      <trkpt lat="42.8376" lon="0.50389">
        <ele>1920</ele>
        <time>2020-02-01T11:55:51.000Z</time>
      </trkpt>
      <trkpt lat="42.8376" lon="0.50389">
        <ele>1920</ele>
        <time>2020-02-01T11:55:52.000Z</time>
      </trkpt>
      <trkpt lat="42.83759" lon="0.50389">
        <ele>1920</ele>
        <time>2020-02-01T11:55:53.000Z</time>
      </trkpt>
      <trkpt lat="42.83759" lon="0.50388">
        <ele>1920</ele>
        <time>2020-02-01T11:55:54.000Z</time>
      </trkpt>
      <trkpt lat="42.83758" lon="0.50388">
        <ele>1920</ele>
        <time>2020-02-01T11:55:55.000Z</time>
      </trkpt>
      <trkpt lat="42.83757" lon="0.50388">
        <ele>1920.5</ele>
        <time>2020-02-01T11:55:56.000Z</time>
      </trkpt>
      <trkpt lat="42.83756" lon="0.50387">
        <ele>1921</ele>
        <time>2020-02-01T11:55:57.000Z</time>
      </trkpt>
      <trkpt lat="42.83756" lon="0.50387">
        <ele>1921</ele>
        <time>2020-02-01T11:55:58.000Z</time>
      </trkpt>
      <trkpt lat="42.83755" lon="0.50387">
        <ele>1921</ele>
        <time>2020-02-01T11:55:59.000Z</time>
      </trkpt>
      <trkpt lat="42.83754" lon="0.50386">
        <ele>1921</ele>
        <time>2020-02-01T11:56:00.000Z</time>
      </trkpt>
      <trkpt lat="42.83753" lon="0.50386">
        <ele>1921</ele>
        <time>2020-02-01T11:56:01.000Z</time>
      </trkpt>
      <trkpt lat="42.83753" lon="0.50386">
        <ele>1921</ele>
        <time>2020-02-01T11:56:02.000Z</time>
      </trkpt>
      <trkpt lat="42.83752" lon="0.50386">
        <ele>1921</ele>
        <time>2020-02-01T11:56:03.000Z</time>
      </trkpt>
      <trkpt lat="42.83751" lon="0.50386">
        <ele>1922</ele>
        <time>2020-02-01T11:56:04.000Z</time>
      </trkpt>
      <trkpt lat="42.83751" lon="0.50386">
        <ele>1922</ele>
        <time>2020-02-01T11:56:05.000Z</time>
      </trkpt>
      <trkpt lat="42.8375" lon="0.50386">
        <ele>1922</ele>
        <time>2020-02-01T11:56:06.000Z</time>
      </trkpt>
      <trkpt lat="42.8375" lon="0.50386">
        <ele>1922</ele>
        <time>2020-02-01T11:56:07.000Z</time>
      </trkpt>
      <trkpt lat="42.83749" lon="0.50386">
        <ele>1922</ele>
        <time>2020-02-01T11:56:08.000Z</time>
      </trkpt>
      <trkpt lat="42.83749" lon="0.50386">
        <ele>1922.3</ele>
        <time>2020-02-01T11:56:09.000Z</time>
      </trkpt>
      <trkpt lat="42.83748" lon="0.50386">
        <ele>1922.7</ele>
        <time>2020-02-01T11:56:10.000Z</time>
      </trkpt>
      <trkpt lat="42.83748" lon="0.50386">
        <ele>1923</ele>
        <time>2020-02-01T11:56:11.000Z</time>
      </trkpt>
      <trkpt lat="42.83747" lon="0.50386">
        <ele>1923</ele>
        <time>2020-02-01T11:56:12.000Z</time>
      </trkpt>
      <trkpt lat="42.83747" lon="0.50386">
        <ele>1923</ele>
        <time>2020-02-01T11:56:13.000Z</time>
      </trkpt>
      <trkpt lat="42.83746" lon="0.50386">
        <ele>1923</ele>
        <time>2020-02-01T11:56:14.000Z</time>
      </trkpt>
      <trkpt lat="42.83746" lon="0.50385">
        <ele>1923</ele>
        <time>2020-02-01T11:56:15.000Z</time>
      </trkpt>
      <trkpt lat="42.83745" lon="0.50385">
        <ele>1923</ele>
        <time>2020-02-01T11:56:16.000Z</time>
      </trkpt>
      <trkpt lat="42.83744" lon="0.50385">
        <ele>1923</ele>
        <time>2020-02-01T11:56:17.000Z</time>
      </trkpt>
      <trkpt lat="42.83744" lon="0.50385">
        <ele>1923.5</ele>
        <time>2020-02-01T11:56:18.000Z</time>
      </trkpt>
      <trkpt lat="42.83743" lon="0.50385">
        <ele>1924</ele>
        <time>2020-02-01T11:56:19.000Z</time>
      </trkpt>
      <trkpt lat="42.83742" lon="0.50385">
        <ele>1924</ele>
        <time>2020-02-01T11:56:20.000Z</time>
      </trkpt>
      <trkpt lat="42.83742" lon="0.50386">
        <ele>1924</ele>
        <time>2020-02-01T11:56:21.000Z</time>
      </trkpt>
      <trkpt lat="42.83741" lon="0.50386">
        <ele>1924</ele>
        <time>2020-02-01T11:56:22.000Z</time>
      </trkpt>
      <trkpt lat="42.83741" lon="0.50386">
        <ele>1924</ele>
        <time>2020-02-01T11:56:23.000Z</time>
      </trkpt>
      <trkpt lat="42.83741" lon="0.50386">
        <ele>1924</ele>
        <time>2020-02-01T11:56:24.000Z</time>
      </trkpt>
      <trkpt lat="42.8374" lon="0.50386">
        <ele>1924</ele>
        <time>2020-02-01T11:56:25.000Z</time>
      </trkpt>
      <trkpt lat="42.8374" lon="0.50386">
        <ele>1924</ele>
        <time>2020-02-01T11:56:26.000Z</time>
      </trkpt>
      <trkpt lat="42.8374" lon="0.50386">
        <ele>1924.3</ele>
        <time>2020-02-01T11:56:27.000Z</time>
      </trkpt>
      <trkpt lat="42.8374" lon="0.50386">
        <ele>1924.7</ele>
        <time>2020-02-01T11:56:28.000Z</time>
      </trkpt>
      <trkpt lat="42.8374" lon="0.50386">
        <ele>1925</ele>
        <time>2020-02-01T11:56:29.000Z</time>
      </trkpt>
      <trkpt lat="42.8374" lon="0.50386">
        <ele>1924.5</ele>
        <time>2020-02-01T11:56:30.000Z</time>
      </trkpt>
      <trkpt lat="42.8374" lon="0.50386">
        <ele>1924</ele>
        <time>2020-02-01T11:56:31.000Z</time>
      </trkpt>
      <trkpt lat="42.8374" lon="0.50386">
        <ele>1924</ele>
        <time>2020-02-01T11:56:32.000Z</time>
      </trkpt>
      <trkpt lat="42.83739" lon="0.50386">
        <ele>1924.3</ele>
        <time>2020-02-01T11:56:33.000Z</time>
      </trkpt>
      <trkpt lat="42.83739" lon="0.50386">
        <ele>1924.7</ele>
        <time>2020-02-01T11:56:34.000Z</time>
      </trkpt>
      <trkpt lat="42.83738" lon="0.50386">
        <ele>1925</ele>
        <time>2020-02-01T11:56:35.000Z</time>
      </trkpt>
      <trkpt lat="42.83738" lon="0.50386">
        <ele>1925</ele>
        <time>2020-02-01T11:56:36.000Z</time>
      </trkpt>
      <trkpt lat="42.83737" lon="0.50386">
        <ele>1925</ele>
        <time>2020-02-01T11:56:37.000Z</time>
      </trkpt>
      <trkpt lat="42.83736" lon="0.50386">
        <ele>1925</ele>
        <time>2020-02-01T11:56:38.000Z</time>
      </trkpt>
      <trkpt lat="42.83736" lon="0.50386">
        <ele>1925</ele>
        <time>2020-02-01T11:56:39.000Z</time>
      </trkpt>
      <trkpt lat="42.83735" lon="0.50386">
        <ele>1925</ele>
        <time>2020-02-01T11:56:40.000Z</time>
      </trkpt>
      <trkpt lat="42.83734" lon="0.50386">
        <ele>1925</ele>
        <time>2020-02-01T11:56:41.000Z</time>
      </trkpt>
      <trkpt lat="42.83733" lon="0.50386">
        <ele>1925</ele>
        <time>2020-02-01T11:56:42.000Z</time>
      </trkpt>
      <trkpt lat="42.83732" lon="0.50386">
        <ele>1925</ele>
        <time>2020-02-01T11:56:43.000Z</time>
      </trkpt>
      <trkpt lat="42.83732" lon="0.50386">
        <ele>1925</ele>
        <time>2020-02-01T11:56:44.000Z</time>
      </trkpt>
      <trkpt lat="42.83731" lon="0.50385">
        <ele>1925</ele>
        <time>2020-02-01T11:56:45.000Z</time>
      </trkpt>
      <trkpt lat="42.83731" lon="0.50385">
        <ele>1925.5</ele>
        <time>2020-02-01T11:56:46.000Z</time>
      </trkpt>
      <trkpt lat="42.8373" lon="0.50385">
        <ele>1926</ele>
        <time>2020-02-01T11:56:47.000Z</time>
      </trkpt>
      <trkpt lat="42.83729" lon="0.50385">
        <ele>1926</ele>
        <time>2020-02-01T11:56:48.000Z</time>
      </trkpt>
      <trkpt lat="42.83728" lon="0.50385">
        <ele>1926</ele>
        <time>2020-02-01T11:56:49.000Z</time>
      </trkpt>
      <trkpt lat="42.83727" lon="0.50385">
        <ele>1926</ele>
        <time>2020-02-01T11:56:50.000Z</time>
      </trkpt>
      <trkpt lat="42.83726" lon="0.50385">
        <ele>1926</ele>
        <time>2020-02-01T11:56:51.000Z</time>
      </trkpt>
      <trkpt lat="42.83725" lon="0.50385">
        <ele>1926</ele>
        <time>2020-02-01T11:56:52.000Z</time>
      </trkpt>
      <trkpt lat="42.83725" lon="0.50385">
        <ele>1926</ele>
        <time>2020-02-01T11:56:53.000Z</time>
      </trkpt>
      <trkpt lat="42.83724" lon="0.50385">
        <ele>1926.5</ele>
        <time>2020-02-01T11:56:54.000Z</time>
      </trkpt>
      <trkpt lat="42.83724" lon="0.50384">
        <ele>1927</ele>
        <time>2020-02-01T11:56:55.000Z</time>
      </trkpt>
      <trkpt lat="42.83723" lon="0.50384">
        <ele>1927</ele>
        <time>2020-02-01T11:56:56.000Z</time>
      </trkpt>
      <trkpt lat="42.83723" lon="0.50384">
        <ele>1927</ele>
        <time>2020-02-01T11:56:57.000Z</time>
      </trkpt>
      <trkpt lat="42.83722" lon="0.50384">
        <ele>1927</ele>
        <time>2020-02-01T11:56:58.000Z</time>
      </trkpt>
      <trkpt lat="42.83722" lon="0.50384">
        <ele>1927</ele>
        <time>2020-02-01T11:56:59.000Z</time>
      </trkpt>
      <trkpt lat="42.83721" lon="0.50384">
        <ele>1927</ele>
        <time>2020-02-01T11:57:00.000Z</time>
      </trkpt>
      <trkpt lat="42.83721" lon="0.50384">
        <ele>1927</ele>
        <time>2020-02-01T11:57:01.000Z</time>
      </trkpt>
      <trkpt lat="42.8372" lon="0.50384">
        <ele>1928</ele>
        <time>2020-02-01T11:57:02.000Z</time>
      </trkpt>
      <trkpt lat="42.8372" lon="0.50384">
        <ele>1928</ele>
        <time>2020-02-01T11:57:03.000Z</time>
      </trkpt>
      <trkpt lat="42.83719" lon="0.50384">
        <ele>1928</ele>
        <time>2020-02-01T11:57:04.000Z</time>
      </trkpt>
      <trkpt lat="42.83718" lon="0.50384">
        <ele>1928</ele>
        <time>2020-02-01T11:57:05.000Z</time>
      </trkpt>
      <trkpt lat="42.83718" lon="0.50384">
        <ele>1928</ele>
        <time>2020-02-01T11:57:06.000Z</time>
      </trkpt>
      <trkpt lat="42.83717" lon="0.50384">
        <ele>1928</ele>
        <time>2020-02-01T11:57:07.000Z</time>
      </trkpt>
      <trkpt lat="42.83716" lon="0.50384">
        <ele>1928</ele>
        <time>2020-02-01T11:57:08.000Z</time>
      </trkpt>
      <trkpt lat="42.83716" lon="0.50384">
        <ele>1928</ele>
        <time>2020-02-01T11:57:09.000Z</time>
      </trkpt>
      <trkpt lat="42.83715" lon="0.50384">
        <ele>1928</ele>
        <time>2020-02-01T11:57:10.000Z</time>
      </trkpt>
      <trkpt lat="42.83714" lon="0.50384">
        <ele>1928</ele>
        <time>2020-02-01T11:57:11.000Z</time>
      </trkpt>
      <trkpt lat="42.83713" lon="0.50384">
        <ele>1928</ele>
        <time>2020-02-01T11:57:12.000Z</time>
      </trkpt>
      <trkpt lat="42.83713" lon="0.50384">
        <ele>1928.3</ele>
        <time>2020-02-01T11:57:13.000Z</time>
      </trkpt>
      <trkpt lat="42.83712" lon="0.50384">
        <ele>1928.7</ele>
        <time>2020-02-01T11:57:14.000Z</time>
      </trkpt>
      <trkpt lat="42.83712" lon="0.50384">
        <ele>1929</ele>
        <time>2020-02-01T11:57:15.000Z</time>
      </trkpt>
      <trkpt lat="42.83711" lon="0.50384">
        <ele>1929</ele>
        <time>2020-02-01T11:57:16.000Z</time>
      </trkpt>
      <trkpt lat="42.8371" lon="0.50384">
        <ele>1929</ele>
        <time>2020-02-01T11:57:17.000Z</time>
      </trkpt>
      <trkpt lat="42.8371" lon="0.50384">
        <ele>1929</ele>
        <time>2020-02-01T11:57:18.000Z</time>
      </trkpt>
      <trkpt lat="42.83709" lon="0.50384">
        <ele>1929</ele>
        <time>2020-02-01T11:57:19.000Z</time>
      </trkpt>
      <trkpt lat="42.83708" lon="0.50384">
        <ele>1929</ele>
        <time>2020-02-01T11:57:20.000Z</time>
      </trkpt>
      <trkpt lat="42.83708" lon="0.50384">
        <ele>1929</ele>
        <time>2020-02-01T11:57:21.000Z</time>
      </trkpt>
      <trkpt lat="42.83707" lon="0.50384">
        <ele>1929</ele>
        <time>2020-02-01T11:57:22.000Z</time>
      </trkpt>
      <trkpt lat="42.83706" lon="0.50384">
        <ele>1929.3</ele>
        <time>2020-02-01T11:57:23.000Z</time>
      </trkpt>
      <trkpt lat="42.83706" lon="0.50383">
        <ele>1929.7</ele>
        <time>2020-02-01T11:57:24.000Z</time>
      </trkpt>
      <trkpt lat="42.83705" lon="0.50383">
        <ele>1930</ele>
        <time>2020-02-01T11:57:25.000Z</time>
      </trkpt>
      <trkpt lat="42.83705" lon="0.50383">
        <ele>1930</ele>
        <time>2020-02-01T11:57:26.000Z</time>
      </trkpt>
      <trkpt lat="42.83704" lon="0.50383">
        <ele>1930</ele>
        <time>2020-02-01T11:57:27.000Z</time>
      </trkpt>
      <trkpt lat="42.83703" lon="0.50383">
        <ele>1930</ele>
        <time>2020-02-01T11:57:28.000Z</time>
      </trkpt>
      <trkpt lat="42.83703" lon="0.50383">
        <ele>1930</ele>
        <time>2020-02-01T11:57:29.000Z</time>
      </trkpt>
      <trkpt lat="42.83702" lon="0.50383">
        <ele>1930</ele>
        <time>2020-02-01T11:57:30.000Z</time>
      </trkpt>
      <trkpt lat="42.83701" lon="0.50383">
        <ele>1930</ele>
        <time>2020-02-01T11:57:31.000Z</time>
      </trkpt>
      <trkpt lat="42.837" lon="0.50384">
        <ele>1931</ele>
        <time>2020-02-01T11:57:32.000Z</time>
      </trkpt>
      <trkpt lat="42.837" lon="0.50384">
        <ele>1931</ele>
        <time>2020-02-01T11:57:33.000Z</time>
      </trkpt>
      <trkpt lat="42.83699" lon="0.50384">
        <ele>1931</ele>
        <time>2020-02-01T11:57:34.000Z</time>
      </trkpt>
      <trkpt lat="42.83698" lon="0.50384">
        <ele>1931</ele>
        <time>2020-02-01T11:57:35.000Z</time>
      </trkpt>
      <trkpt lat="42.83698" lon="0.50384">
        <ele>1931</ele>
        <time>2020-02-01T11:57:36.000Z</time>
      </trkpt>
      <trkpt lat="42.83697" lon="0.50384">
        <ele>1931.3</ele>
        <time>2020-02-01T11:57:37.000Z</time>
      </trkpt>
      <trkpt lat="42.83696" lon="0.50384">
        <ele>1931.7</ele>
        <time>2020-02-01T11:57:38.000Z</time>
      </trkpt>
      <trkpt lat="42.83695" lon="0.50385">
        <ele>1932</ele>
        <time>2020-02-01T11:57:39.000Z</time>
      </trkpt>
      <trkpt lat="42.83694" lon="0.50385">
        <ele>1933</ele>
        <time>2020-02-01T11:57:40.000Z</time>
      </trkpt>
      <trkpt lat="42.83694" lon="0.50385">
        <ele>1933</ele>
        <time>2020-02-01T11:57:41.000Z</time>
      </trkpt>
      <trkpt lat="42.83693" lon="0.50385">
        <ele>1933</ele>
        <time>2020-02-01T11:57:42.000Z</time>
      </trkpt>
      <trkpt lat="42.83692" lon="0.50385">
        <ele>1933</ele>
        <time>2020-02-01T11:57:43.000Z</time>
      </trkpt>
      <trkpt lat="42.83691" lon="0.50385">
        <ele>1933</ele>
        <time>2020-02-01T11:57:44.000Z</time>
      </trkpt>
      <trkpt lat="42.83691" lon="0.50386">
        <ele>1933</ele>
        <time>2020-02-01T11:57:45.000Z</time>
      </trkpt>
      <trkpt lat="42.8369" lon="0.50386">
        <ele>1933</ele>
        <time>2020-02-01T11:57:46.000Z</time>
      </trkpt>
      <trkpt lat="42.83689" lon="0.50386">
        <ele>1933</ele>
        <time>2020-02-01T11:57:47.000Z</time>
      </trkpt>
      <trkpt lat="42.83688" lon="0.50386">
        <ele>1933.5</ele>
        <time>2020-02-01T11:57:48.000Z</time>
      </trkpt>
      <trkpt lat="42.83688" lon="0.50386">
        <ele>1934</ele>
        <time>2020-02-01T11:57:49.000Z</time>
      </trkpt>
      <trkpt lat="42.83687" lon="0.50386">
        <ele>1933</ele>
        <time>2020-02-01T11:57:50.000Z</time>
      </trkpt>
      <trkpt lat="42.83686" lon="0.50386">
        <ele>1933.3</ele>
        <time>2020-02-01T11:57:51.000Z</time>
      </trkpt>
      <trkpt lat="42.83685" lon="0.50386">
        <ele>1933.7</ele>
        <time>2020-02-01T11:57:52.000Z</time>
      </trkpt>
      <trkpt lat="42.83685" lon="0.50385">
        <ele>1934</ele>
        <time>2020-02-01T11:57:53.000Z</time>
      </trkpt>
      <trkpt lat="42.83684" lon="0.50385">
        <ele>1934</ele>
        <time>2020-02-01T11:57:54.000Z</time>
      </trkpt>
      <trkpt lat="42.83683" lon="0.50385">
        <ele>1934</ele>
        <time>2020-02-01T11:57:55.000Z</time>
      </trkpt>
      <trkpt lat="42.83683" lon="0.50385">
        <ele>1934</ele>
        <time>2020-02-01T11:57:56.000Z</time>
      </trkpt>
      <trkpt lat="42.83682" lon="0.50384">
        <ele>1934</ele>
        <time>2020-02-01T11:57:57.000Z</time>
      </trkpt>
      <trkpt lat="42.83682" lon="0.50384">
        <ele>1934</ele>
        <time>2020-02-01T11:57:58.000Z</time>
      </trkpt>
      <trkpt lat="42.83681" lon="0.50384">
        <ele>1934</ele>
        <time>2020-02-01T11:57:59.000Z</time>
      </trkpt>
      <trkpt lat="42.83681" lon="0.50384">
        <ele>1935</ele>
        <time>2020-02-01T11:58:00.000Z</time>
      </trkpt>
      <trkpt lat="42.8368" lon="0.50384">
        <ele>1935</ele>
        <time>2020-02-01T11:58:01.000Z</time>
      </trkpt>
      <trkpt lat="42.8368" lon="0.50383">
        <ele>1935</ele>
        <time>2020-02-01T11:58:02.000Z</time>
      </trkpt>
      <trkpt lat="42.83679" lon="0.50383">
        <ele>1935</ele>
        <time>2020-02-01T11:58:03.000Z</time>
      </trkpt>
      <trkpt lat="42.83679" lon="0.50383">
        <ele>1935</ele>
        <time>2020-02-01T11:58:04.000Z</time>
      </trkpt>
      <trkpt lat="42.83678" lon="0.50382">
        <ele>1935</ele>
        <time>2020-02-01T11:58:05.000Z</time>
      </trkpt>
      <trkpt lat="42.83677" lon="0.50382">
        <ele>1935</ele>
        <time>2020-02-01T11:58:06.000Z</time>
      </trkpt>
      <trkpt lat="42.83677" lon="0.50381">
        <ele>1935.3</ele>
        <time>2020-02-01T11:58:07.000Z</time>
      </trkpt>
      <trkpt lat="42.83676" lon="0.5038">
        <ele>1935.7</ele>
        <time>2020-02-01T11:58:08.000Z</time>
      </trkpt>
      <trkpt lat="42.83676" lon="0.5038">
        <ele>1936</ele>
        <time>2020-02-01T11:58:09.000Z</time>
      </trkpt>
      <trkpt lat="42.83676" lon="0.5038">
        <ele>1935.5</ele>
        <time>2020-02-01T11:58:10.000Z</time>
      </trkpt>
      <trkpt lat="42.83675" lon="0.5038">
        <ele>1935</ele>
        <time>2020-02-01T11:58:11.000Z</time>
      </trkpt>
      <trkpt lat="42.83675" lon="0.5038">
        <ele>1935</ele>
        <time>2020-02-01T11:58:12.000Z</time>
      </trkpt>
      <trkpt lat="42.83675" lon="0.5038">
        <ele>1935</ele>
        <time>2020-02-01T11:58:13.000Z</time>
      </trkpt>
      <trkpt lat="42.83675" lon="0.5038">
        <ele>1935</ele>
        <time>2020-02-01T11:58:14.000Z</time>
      </trkpt>
      <trkpt lat="42.83675" lon="0.5038">
        <ele>1935</ele>
        <time>2020-02-01T11:58:15.000Z</time>
      </trkpt>
      <trkpt lat="42.83676" lon="0.5038">
        <ele>1935</ele>
        <time>2020-02-01T11:58:16.000Z</time>
      </trkpt>
      <trkpt lat="42.83676" lon="0.5038">
        <ele>1935</ele>
        <time>2020-02-01T11:58:17.000Z</time>
      </trkpt>
      <trkpt lat="42.83676" lon="0.5038">
        <ele>1935</ele>
        <time>2020-02-01T11:58:18.000Z</time>
      </trkpt>
      <trkpt lat="42.83676" lon="0.5038">
        <ele>1934.7</ele>
        <time>2020-02-01T11:58:19.000Z</time>
      </trkpt>
      <trkpt lat="42.83676" lon="0.5038">
        <ele>1934.3</ele>
        <time>2020-02-01T11:58:20.000Z</time>
      </trkpt>
      <trkpt lat="42.83676" lon="0.5038">
        <ele>1934</ele>
        <time>2020-02-01T11:58:21.000Z</time>
      </trkpt>
      <trkpt lat="42.83677" lon="0.5038">
        <ele>1934</ele>
        <time>2020-02-01T11:58:22.000Z</time>
      </trkpt>
      <trkpt lat="42.83677" lon="0.5038">
        <ele>1934</ele>
        <time>2020-02-01T11:58:23.000Z</time>
      </trkpt>
      <trkpt lat="42.83677" lon="0.50379">
        <ele>1934</ele>
        <time>2020-02-01T11:58:24.000Z</time>
      </trkpt>
      <trkpt lat="42.83677" lon="0.50379">
        <ele>1934</ele>
        <time>2020-02-01T11:58:25.000Z</time>
      </trkpt>
      <trkpt lat="42.83677" lon="0.50379">
        <ele>1934</ele>
        <time>2020-02-01T11:58:26.000Z</time>
      </trkpt>
      <trkpt lat="42.83677" lon="0.50379">
        <ele>1934</ele>
        <time>2020-02-01T11:58:27.000Z</time>
      </trkpt>
      <trkpt lat="42.83677" lon="0.50379">
        <ele>1934</ele>
        <time>2020-02-01T11:58:28.000Z</time>
      </trkpt>
      <trkpt lat="42.83677" lon="0.50379">
        <ele>1934</ele>
        <time>2020-02-01T11:58:29.000Z</time>
      </trkpt>
      <trkpt lat="42.83677" lon="0.50379">
        <ele>1934</ele>
        <time>2020-02-01T11:58:30.000Z</time>
      </trkpt>
      <trkpt lat="42.83677" lon="0.50379">
        <ele>1934</ele>
        <time>2020-02-01T11:58:31.000Z</time>
      </trkpt>
      <trkpt lat="42.83677" lon="0.50379">
        <ele>1934</ele>
        <time>2020-02-01T11:58:32.000Z</time>
      </trkpt>
      <trkpt lat="42.83677" lon="0.50379">
        <ele>1934</ele>
        <time>2020-02-01T11:58:33.000Z</time>
      </trkpt>
      <trkpt lat="42.83677" lon="0.50379">
        <ele>1934</ele>
        <time>2020-02-01T11:58:34.000Z</time>
      </trkpt>
      <trkpt lat="42.83677" lon="0.50379">
        <ele>1934</ele>
        <time>2020-02-01T11:58:35.000Z</time>
      </trkpt>
      <trkpt lat="42.83677" lon="0.50379">
        <ele>1934</ele>
        <time>2020-02-01T11:58:36.000Z</time>
      </trkpt>
      <trkpt lat="42.83677" lon="0.50379">
        <ele>1934</ele>
        <time>2020-02-01T11:58:37.000Z</time>
      </trkpt>
      <trkpt lat="42.83676" lon="0.50379">
        <ele>1934</ele>
        <time>2020-02-01T11:58:38.000Z</time>
      </trkpt>
      <trkpt lat="42.83676" lon="0.5038">
        <ele>1933.7</ele>
        <time>2020-02-01T11:58:39.000Z</time>
      </trkpt>
      <trkpt lat="42.83675" lon="0.5038">
        <ele>1933.3</ele>
        <time>2020-02-01T11:58:40.000Z</time>
      </trkpt>
      <trkpt lat="42.83675" lon="0.5038">
        <ele>1933</ele>
        <time>2020-02-01T11:58:41.000Z</time>
      </trkpt>
      <trkpt lat="42.83675" lon="0.5038">
        <ele>1934</ele>
        <time>2020-02-01T11:58:42.000Z</time>
      </trkpt>
      <trkpt lat="42.83675" lon="0.5038">
        <ele>1934</ele>
        <time>2020-02-01T11:58:43.000Z</time>
      </trkpt>
      <trkpt lat="42.83675" lon="0.5038">
        <ele>1934</ele>
        <time>2020-02-01T11:58:44.000Z</time>
      </trkpt>
      <trkpt lat="42.83675" lon="0.5038">
        <ele>1933.7</ele>
        <time>2020-02-01T11:58:45.000Z</time>
      </trkpt>
      <trkpt lat="42.83675" lon="0.5038">
        <ele>1933.3</ele>
        <time>2020-02-01T11:58:46.000Z</time>
      </trkpt>
      <trkpt lat="42.83675" lon="0.5038">
        <ele>1933</ele>
        <time>2020-02-01T11:58:47.000Z</time>
      </trkpt>
      <trkpt lat="42.83675" lon="0.5038">
        <ele>1933</ele>
        <time>2020-02-01T11:58:48.000Z</time>
      </trkpt>
      <trkpt lat="42.83675" lon="0.5038">
        <ele>1933</ele>
        <time>2020-02-01T11:58:49.000Z</time>
      </trkpt>
      <trkpt lat="42.83675" lon="0.5038">
        <ele>1933</ele>
        <time>2020-02-01T11:58:50.000Z</time>
      </trkpt>
      <trkpt lat="42.83675" lon="0.5038">
        <ele>1933</ele>
        <time>2020-02-01T11:58:51.000Z</time>
      </trkpt>
      <trkpt lat="42.83675" lon="0.5038">
        <ele>1933</ele>
        <time>2020-02-01T11:58:52.000Z</time>
      </trkpt>
      <trkpt lat="42.83675" lon="0.5038">
        <ele>1933</ele>
        <time>2020-02-01T11:58:53.000Z</time>
      </trkpt>
      <trkpt lat="42.83675" lon="0.5038">
        <ele>1933</ele>
        <time>2020-02-01T11:58:54.000Z</time>
      </trkpt>
      <trkpt lat="42.83675" lon="0.5038">
        <ele>1932.7</ele>
        <time>2020-02-01T11:58:55.000Z</time>
      </trkpt>
      <trkpt lat="42.83675" lon="0.5038">
        <ele>1932.3</ele>
        <time>2020-02-01T11:58:56.000Z</time>
      </trkpt>
      <trkpt lat="42.83675" lon="0.5038">
        <ele>1932</ele>
        <time>2020-02-01T11:58:57.000Z</time>
      </trkpt>
      <trkpt lat="42.83675" lon="0.5038">
        <ele>1932</ele>
        <time>2020-02-01T11:58:58.000Z</time>
      </trkpt>
      <trkpt lat="42.83676" lon="0.50379">
        <ele>1932.3</ele>
        <time>2020-02-01T11:58:59.000Z</time>
      </trkpt>
      <trkpt lat="42.83676" lon="0.50379">
        <ele>1932.7</ele>
        <time>2020-02-01T11:59:00.000Z</time>
      </trkpt>
      <trkpt lat="42.83676" lon="0.50379">
        <ele>1933</ele>
        <time>2020-02-01T11:59:01.000Z</time>
      </trkpt>
      <trkpt lat="42.83677" lon="0.50379">
        <ele>1933</ele>
        <time>2020-02-01T11:59:02.000Z</time>
      </trkpt>
      <trkpt lat="42.83677" lon="0.5038">
        <ele>1933</ele>
        <time>2020-02-01T11:59:03.000Z</time>
      </trkpt>
      <trkpt lat="42.83677" lon="0.50382">
        <ele>1933</ele>
        <time>2020-02-01T11:59:04.000Z</time>
      </trkpt>
      <trkpt lat="42.83677" lon="0.50383">
        <ele>1933</ele>
        <time>2020-02-01T11:59:05.000Z</time>
      </trkpt>
      <trkpt lat="42.83677" lon="0.50383">
        <ele>1933</ele>
        <time>2020-02-01T11:59:06.000Z</time>
      </trkpt>
      <trkpt lat="42.83676" lon="0.50384">
        <ele>1933</ele>
        <time>2020-02-01T11:59:07.000Z</time>
      </trkpt>
      <trkpt lat="42.83676" lon="0.50384">
        <ele>1933</ele>
        <time>2020-02-01T11:59:08.000Z</time>
      </trkpt>
      <trkpt lat="42.83676" lon="0.50384">
        <ele>1933</ele>
        <time>2020-02-01T11:59:09.000Z</time>
      </trkpt>
      <trkpt lat="42.83675" lon="0.50384">
        <ele>1933</ele>
        <time>2020-02-01T11:59:10.000Z</time>
      </trkpt>
      <trkpt lat="42.83675" lon="0.50384">
        <ele>1933</ele>
        <time>2020-02-01T11:59:11.000Z</time>
      </trkpt>
      <trkpt lat="42.83675" lon="0.50384">
        <ele>1933</ele>
        <time>2020-02-01T11:59:12.000Z</time>
      </trkpt>
      <trkpt lat="42.83675" lon="0.50384">
        <ele>1933</ele>
        <time>2020-02-01T11:59:13.000Z</time>
      </trkpt>
      <trkpt lat="42.83675" lon="0.50383">
        <ele>1931</ele>
        <time>2020-02-01T11:59:14.000Z</time>
      </trkpt>
      <trkpt lat="42.83675" lon="0.50383">
        <ele>1931.5</ele>
        <time>2020-02-01T11:59:15.000Z</time>
      </trkpt>
      <trkpt lat="42.83675" lon="0.50383">
        <ele>1932</ele>
        <time>2020-02-01T11:59:16.000Z</time>
      </trkpt>
      <trkpt lat="42.83675" lon="0.50383">
        <ele>1932.3</ele>
        <time>2020-02-01T11:59:17.000Z</time>
      </trkpt>
      <trkpt lat="42.83675" lon="0.50383">
        <ele>1932.7</ele>
        <time>2020-02-01T11:59:18.000Z</time>
      </trkpt>
      <trkpt lat="42.83675" lon="0.50383">
        <ele>1933</ele>
        <time>2020-02-01T11:59:19.000Z</time>
      </trkpt>
      <trkpt lat="42.83675" lon="0.50383">
        <ele>1933</ele>
        <time>2020-02-01T11:59:20.000Z</time>
      </trkpt>
      <trkpt lat="42.83675" lon="0.50383">
        <ele>1933</ele>
        <time>2020-02-01T11:59:21.000Z</time>
      </trkpt>
      <trkpt lat="42.83675" lon="0.50383">
        <ele>1933</ele>
        <time>2020-02-01T11:59:22.000Z</time>
      </trkpt>
      <trkpt lat="42.83675" lon="0.50383">
        <ele>1933</ele>
        <time>2020-02-01T11:59:23.000Z</time>
      </trkpt>
      <trkpt lat="42.83675" lon="0.50383">
        <ele>1932</ele>
        <time>2020-02-01T11:59:24.000Z</time>
      </trkpt>
      <trkpt lat="42.83675" lon="0.50383">
        <ele>1932</ele>
        <time>2020-02-01T11:59:25.000Z</time>
      </trkpt>
      <trkpt lat="42.83675" lon="0.50383">
        <ele>1932</ele>
        <time>2020-02-01T11:59:26.000Z</time>
      </trkpt>
      <trkpt lat="42.83675" lon="0.50383">
        <ele>1932</ele>
        <time>2020-02-01T11:59:27.000Z</time>
      </trkpt>
      <trkpt lat="42.83675" lon="0.50383">
        <ele>1932</ele>
        <time>2020-02-01T11:59:28.000Z</time>
      </trkpt>
      <trkpt lat="42.83675" lon="0.50383">
        <ele>1932</ele>
        <time>2020-02-01T11:59:29.000Z</time>
      </trkpt>
      <trkpt lat="42.83675" lon="0.50383">
        <ele>1932</ele>
        <time>2020-02-01T11:59:30.000Z</time>
      </trkpt>
      <trkpt lat="42.83675" lon="0.50383">
        <ele>1932</ele>
        <time>2020-02-01T11:59:31.000Z</time>
      </trkpt>
      <trkpt lat="42.83675" lon="0.50383">
        <ele>1932</ele>
        <time>2020-02-01T11:59:32.000Z</time>
      </trkpt>
      <trkpt lat="42.83675" lon="0.50384">
        <ele>1932</ele>
        <time>2020-02-01T11:59:33.000Z</time>
      </trkpt>
      <trkpt lat="42.83674" lon="0.50384">
        <ele>1931</ele>
        <time>2020-02-01T11:59:34.000Z</time>
      </trkpt>
      <trkpt lat="42.83674" lon="0.50384">
        <ele>1931</ele>
        <time>2020-02-01T11:59:35.000Z</time>
      </trkpt>
      <trkpt lat="42.83674" lon="0.50384">
        <ele>1931</ele>
        <time>2020-02-01T11:59:36.000Z</time>
      </trkpt>
      <trkpt lat="42.83674" lon="0.50384">
        <ele>1931</ele>
        <time>2020-02-01T11:59:37.000Z</time>
      </trkpt>
      <trkpt lat="42.83674" lon="0.50384">
        <ele>1931</ele>
        <time>2020-02-01T11:59:38.000Z</time>
      </trkpt>
      <trkpt lat="42.83674" lon="0.50384">
        <ele>1931.3</ele>
        <time>2020-02-01T11:59:39.000Z</time>
      </trkpt>
      <trkpt lat="42.83674" lon="0.50384">
        <ele>1931.7</ele>
        <time>2020-02-01T11:59:40.000Z</time>
      </trkpt>
      <trkpt lat="42.83674" lon="0.50384">
        <ele>1932</ele>
        <time>2020-02-01T11:59:41.000Z</time>
      </trkpt>
      <trkpt lat="42.83674" lon="0.50384">
        <ele>1932</ele>
        <time>2020-02-01T11:59:42.000Z</time>
      </trkpt>
      <trkpt lat="42.83674" lon="0.50384">
        <ele>1932</ele>
        <time>2020-02-01T11:59:43.000Z</time>
      </trkpt>
      <trkpt lat="42.83674" lon="0.50384">
        <ele>1932</ele>
        <time>2020-02-01T11:59:44.000Z</time>
      </trkpt>
      <trkpt lat="42.83674" lon="0.50384">
        <ele>1932</ele>
        <time>2020-02-01T11:59:45.000Z</time>
      </trkpt>
      <trkpt lat="42.83674" lon="0.50384">
        <ele>1932</ele>
        <time>2020-02-01T11:59:46.000Z</time>
      </trkpt>
      <trkpt lat="42.83675" lon="0.50384">
        <ele>1932</ele>
        <time>2020-02-01T11:59:47.000Z</time>
      </trkpt>
      <trkpt lat="42.83675" lon="0.50384">
        <ele>1932</ele>
        <time>2020-02-01T11:59:48.000Z</time>
      </trkpt>
      <trkpt lat="42.83675" lon="0.50384">
        <ele>1932</ele>
        <time>2020-02-01T11:59:49.000Z</time>
      </trkpt>
      <trkpt lat="42.83675" lon="0.50384">
        <ele>1932</ele>
        <time>2020-02-01T11:59:50.000Z</time>
      </trkpt>
      <trkpt lat="42.83675" lon="0.50384">
        <ele>1932</ele>
        <time>2020-02-01T11:59:51.000Z</time>
      </trkpt>
      <trkpt lat="42.83675" lon="0.50384">
        <ele>1932</ele>
        <time>2020-02-01T11:59:52.000Z</time>
      </trkpt>
      <trkpt lat="42.83675" lon="0.50384">
        <ele>1932</ele>
        <time>2020-02-01T11:59:53.000Z</time>
      </trkpt>
      <trkpt lat="42.83675" lon="0.50384">
        <ele>1932</ele>
        <time>2020-02-01T11:59:54.000Z</time>
      </trkpt>
      <trkpt lat="42.83675" lon="0.50384">
        <ele>1932</ele>
        <time>2020-02-01T11:59:55.000Z</time>
      </trkpt>
      <trkpt lat="42.83675" lon="0.50384">
        <ele>1932</ele>
        <time>2020-02-01T11:59:56.000Z</time>
      </trkpt>
      <trkpt lat="42.83675" lon="0.50384">
        <ele>1932</ele>
        <time>2020-02-01T11:59:57.000Z</time>
      </trkpt>
      <trkpt lat="42.83675" lon="0.50384">
        <ele>1932</ele>
        <time>2020-02-01T11:59:58.000Z</time>
      </trkpt>
      <trkpt lat="42.83675" lon="0.50384">
        <ele>1932</ele>
        <time>2020-02-01T11:59:59.000Z</time>
      </trkpt>
      <trkpt lat="42.83675" lon="0.50384">
        <ele>1932</ele>
        <time>2020-02-01T12:00:00.000Z</time>
      </trkpt>
      <trkpt lat="42.83675" lon="0.50384">
        <ele>1932</ele>
        <time>2020-02-01T12:00:01.000Z</time>
      </trkpt>
      <trkpt lat="42.83675" lon="0.50384">
        <ele>1933</ele>
        <time>2020-02-01T12:00:02.000Z</time>
      </trkpt>
      <trkpt lat="42.83675" lon="0.50384">
        <ele>1933</ele>
        <time>2020-02-01T12:00:03.000Z</time>
      </trkpt>
      <trkpt lat="42.83675" lon="0.50384">
        <ele>1933</ele>
        <time>2020-02-01T12:00:04.000Z</time>
      </trkpt>
      <trkpt lat="42.83675" lon="0.50384">
        <ele>1932.7</ele>
        <time>2020-02-01T12:00:05.000Z</time>
      </trkpt>
      <trkpt lat="42.83675" lon="0.50384">
        <ele>1932.3</ele>
        <time>2020-02-01T12:00:06.000Z</time>
      </trkpt>
      <trkpt lat="42.83675" lon="0.50384">
        <ele>1932</ele>
        <time>2020-02-01T12:00:07.000Z</time>
      </trkpt>
      <trkpt lat="42.83675" lon="0.50384">
        <ele>1932</ele>
        <time>2020-02-01T12:00:08.000Z</time>
      </trkpt>
      <trkpt lat="42.83675" lon="0.50384">
        <ele>1932</ele>
        <time>2020-02-01T12:00:09.000Z</time>
      </trkpt>
      <trkpt lat="42.83675" lon="0.50384">
        <ele>1932</ele>
        <time>2020-02-01T12:00:10.000Z</time>
      </trkpt>
      <trkpt lat="42.83675" lon="0.50384">
        <ele>1932</ele>
        <time>2020-02-01T12:00:11.000Z</time>
      </trkpt>
      <trkpt lat="42.83675" lon="0.50383">
        <ele>1932</ele>
        <time>2020-02-01T12:00:12.000Z</time>
      </trkpt>
      <trkpt lat="42.83675" lon="0.50383">
        <ele>1932</ele>
        <time>2020-02-01T12:00:13.000Z</time>
      </trkpt>
      <trkpt lat="42.83675" lon="0.50383">
        <ele>1932</ele>
        <time>2020-02-01T12:00:14.000Z</time>
      </trkpt>
      <trkpt lat="42.83674" lon="0.50383">
        <ele>1932</ele>
        <time>2020-02-01T12:00:15.000Z</time>
      </trkpt>
      <trkpt lat="42.83674" lon="0.50382">
        <ele>1932</ele>
        <time>2020-02-01T12:00:16.000Z</time>
      </trkpt>
      <trkpt lat="42.83674" lon="0.50382">
        <ele>1932</ele>
        <time>2020-02-01T12:00:17.000Z</time>
      </trkpt>
      <trkpt lat="42.83674" lon="0.50382">
        <ele>1932</ele>
        <time>2020-02-01T12:00:18.000Z</time>
      </trkpt>
      <trkpt lat="42.83674" lon="0.50382">
        <ele>1932</ele>
        <time>2020-02-01T12:00:19.000Z</time>
      </trkpt>
      <trkpt lat="42.83674" lon="0.50382">
        <ele>1932</ele>
        <time>2020-02-01T12:00:20.000Z</time>
      </trkpt>
      <trkpt lat="42.83674" lon="0.50382">
        <ele>1932</ele>
        <time>2020-02-01T12:00:21.000Z</time>
      </trkpt>
      <trkpt lat="42.83674" lon="0.50382">
        <ele>1932</ele>
        <time>2020-02-01T12:00:22.000Z</time>
      </trkpt>
      <trkpt lat="42.83674" lon="0.50382">
        <ele>1932</ele>
        <time>2020-02-01T12:00:23.000Z</time>
      </trkpt>
      <trkpt lat="42.83674" lon="0.50382">
        <ele>1932</ele>
        <time>2020-02-01T12:00:24.000Z</time>
      </trkpt>
      <trkpt lat="42.83674" lon="0.50382">
        <ele>1932</ele>
        <time>2020-02-01T12:00:25.000Z</time>
      </trkpt>
      <trkpt lat="42.83674" lon="0.50382">
        <ele>1932</ele>
        <time>2020-02-01T12:00:26.000Z</time>
      </trkpt>
      <trkpt lat="42.83674" lon="0.50382">
        <ele>1932</ele>
        <time>2020-02-01T12:00:27.000Z</time>
      </trkpt>
      <trkpt lat="42.83674" lon="0.50382">
        <ele>1932</ele>
        <time>2020-02-01T12:00:28.000Z</time>
      </trkpt>
      <trkpt lat="42.83674" lon="0.50382">
        <ele>1932</ele>
        <time>2020-02-01T12:00:29.000Z</time>
      </trkpt>
      <trkpt lat="42.83674" lon="0.50382">
        <ele>1932</ele>
        <time>2020-02-01T12:00:30.000Z</time>
      </trkpt>
      <trkpt lat="42.83674" lon="0.50382">
        <ele>1932</ele>
        <time>2020-02-01T12:00:31.000Z</time>
      </trkpt>
      <trkpt lat="42.83674" lon="0.50382">
        <ele>1932</ele>
        <time>2020-02-01T12:00:32.000Z</time>
      </trkpt>
      <trkpt lat="42.83674" lon="0.50382">
        <ele>1932</ele>
        <time>2020-02-01T12:00:33.000Z</time>
      </trkpt>
      <trkpt lat="42.83674" lon="0.50382">
        <ele>1932</ele>
        <time>2020-02-01T12:00:34.000Z</time>
      </trkpt>
      <trkpt lat="42.83674" lon="0.50382">
        <ele>1932</ele>
        <time>2020-02-01T12:00:35.000Z</time>
      </trkpt>
      <trkpt lat="42.83674" lon="0.50382">
        <ele>1932</ele>
        <time>2020-02-01T12:00:36.000Z</time>
      </trkpt>
      <trkpt lat="42.83674" lon="0.50382">
        <ele>1932</ele>
        <time>2020-02-01T12:00:37.000Z</time>
      </trkpt>
      <trkpt lat="42.83674" lon="0.50382">
        <ele>1932</ele>
        <time>2020-02-01T12:00:38.000Z</time>
      </trkpt>
      <trkpt lat="42.83674" lon="0.50382">
        <ele>1932</ele>
        <time>2020-02-01T12:00:39.000Z</time>
      </trkpt>
      <trkpt lat="42.83674" lon="0.50382">
        <ele>1932</ele>
        <time>2020-02-01T12:00:40.000Z</time>
      </trkpt>
      <trkpt lat="42.83674" lon="0.50382">
        <ele>1932</ele>
        <time>2020-02-01T12:00:41.000Z</time>
      </trkpt>
      <trkpt lat="42.83674" lon="0.50382">
        <ele>1932</ele>
        <time>2020-02-01T12:00:42.000Z</time>
      </trkpt>
      <trkpt lat="42.83674" lon="0.50382">
        <ele>1932</ele>
        <time>2020-02-01T12:00:43.000Z</time>
      </trkpt>
      <trkpt lat="42.83674" lon="0.50382">
        <ele>1932</ele>
        <time>2020-02-01T12:00:44.000Z</time>
      </trkpt>
      <trkpt lat="42.83674" lon="0.50382">
        <ele>1932</ele>
        <time>2020-02-01T12:00:45.000Z</time>
      </trkpt>
      <trkpt lat="42.83674" lon="0.50382">
        <ele>1932</ele>
        <time>2020-02-01T12:00:46.000Z</time>
      </trkpt>
      <trkpt lat="42.83674" lon="0.50382">
        <ele>1932</ele>
        <time>2020-02-01T12:00:47.000Z</time>
      </trkpt>
      <trkpt lat="42.83674" lon="0.50382">
        <ele>1932</ele>
        <time>2020-02-01T12:00:48.000Z</time>
      </trkpt>
      <trkpt lat="42.83674" lon="0.50382">
        <ele>1932</ele>
        <time>2020-02-01T12:00:49.000Z</time>
      </trkpt>
      <trkpt lat="42.83674" lon="0.50382">
        <ele>1932</ele>
        <time>2020-02-01T12:00:50.000Z</time>
      </trkpt>
      <trkpt lat="42.83674" lon="0.50382">
        <ele>1932</ele>
        <time>2020-02-01T12:00:51.000Z</time>
      </trkpt>
      <trkpt lat="42.83674" lon="0.50382">
        <ele>1932</ele>
        <time>2020-02-01T12:00:52.000Z</time>
      </trkpt>
      <trkpt lat="42.83674" lon="0.50382">
        <ele>1932</ele>
        <time>2020-02-01T12:00:53.000Z</time>
      </trkpt>
      <trkpt lat="42.83674" lon="0.50382">
        <ele>1932</ele>
        <time>2020-02-01T12:00:54.000Z</time>
      </trkpt>
      <trkpt lat="42.83674" lon="0.50382">
        <ele>1932</ele>
        <time>2020-02-01T12:00:55.000Z</time>
      </trkpt>
      <trkpt lat="42.83674" lon="0.50382">
        <ele>1932</ele>
        <time>2020-02-01T12:00:56.000Z</time>
      </trkpt>
      <trkpt lat="42.83674" lon="0.50382">
        <ele>1932</ele>
        <time>2020-02-01T12:00:57.000Z</time>
      </trkpt>
      <trkpt lat="42.83674" lon="0.50382">
        <ele>1932</ele>
        <time>2020-02-01T12:00:58.000Z</time>
      </trkpt>
      <trkpt lat="42.83674" lon="0.50382">
        <ele>1932</ele>
        <time>2020-02-01T12:00:59.000Z</time>
      </trkpt>
      <trkpt lat="42.83674" lon="0.50382">
        <ele>1932</ele>
        <time>2020-02-01T12:01:00.000Z</time>
      </trkpt>
      <trkpt lat="42.83674" lon="0.50382">
        <ele>1932</ele>
        <time>2020-02-01T12:01:01.000Z</time>
      </trkpt>
      <trkpt lat="42.83674" lon="0.50382">
        <ele>1932</ele>
        <time>2020-02-01T12:01:02.000Z</time>
      </trkpt>
      <trkpt lat="42.83674" lon="0.50382">
        <ele>1932</ele>
        <time>2020-02-01T12:01:03.000Z</time>
      </trkpt>
      <trkpt lat="42.83674" lon="0.50382">
        <ele>1932</ele>
        <time>2020-02-01T12:01:04.000Z</time>
      </trkpt>
      <trkpt lat="42.83674" lon="0.50382">
        <ele>1932</ele>
        <time>2020-02-01T12:01:05.000Z</time>
      </trkpt>
      <trkpt lat="42.83674" lon="0.50382">
        <ele>1932</ele>
        <time>2020-02-01T12:01:06.000Z</time>
      </trkpt>
      <trkpt lat="42.83674" lon="0.50382">
        <ele>1932</ele>
        <time>2020-02-01T12:01:07.000Z</time>
      </trkpt>
      <trkpt lat="42.83674" lon="0.50382">
        <ele>1932</ele>
        <time>2020-02-01T12:01:08.000Z</time>
      </trkpt>
      <trkpt lat="42.83674" lon="0.50382">
        <ele>1932</ele>
        <time>2020-02-01T12:01:09.000Z</time>
      </trkpt>
      <trkpt lat="42.83674" lon="0.50382">
        <ele>1932</ele>
        <time>2020-02-01T12:01:10.000Z</time>
      </trkpt>
      <trkpt lat="42.83674" lon="0.50382">
        <ele>1932</ele>
        <time>2020-02-01T12:01:11.000Z</time>
      </trkpt>
      <trkpt lat="42.83674" lon="0.50382">
        <ele>1932</ele>
        <time>2020-02-01T12:01:12.000Z</time>
      </trkpt>
      <trkpt lat="42.83674" lon="0.50382">
        <ele>1932</ele>
        <time>2020-02-01T12:01:13.000Z</time>
      </trkpt>
      <trkpt lat="42.83674" lon="0.50382">
        <ele>1932</ele>
        <time>2020-02-01T12:01:14.000Z</time>
      </trkpt>
      <trkpt lat="42.83674" lon="0.50382">
        <ele>1932</ele>
        <time>2020-02-01T12:01:15.000Z</time>
      </trkpt>
      <trkpt lat="42.83674" lon="0.50381">
        <ele>1932</ele>
        <time>2020-02-01T12:01:16.000Z</time>
      </trkpt>
      <trkpt lat="42.83674" lon="0.50381">
        <ele>1932</ele>
        <time>2020-02-01T12:01:17.000Z</time>
      </trkpt>
      <trkpt lat="42.83674" lon="0.50381">
        <ele>1932</ele>
        <time>2020-02-01T12:01:18.000Z</time>
      </trkpt>
      <trkpt lat="42.83674" lon="0.50381">
        <ele>1932</ele>
        <time>2020-02-01T12:01:19.000Z</time>
      </trkpt>
      <trkpt lat="42.83674" lon="0.50381">
        <ele>1932</ele>
        <time>2020-02-01T12:01:20.000Z</time>
      </trkpt>
      <trkpt lat="42.83674" lon="0.50381">
        <ele>1932</ele>
        <time>2020-02-01T12:01:21.000Z</time>
      </trkpt>
      <trkpt lat="42.83674" lon="0.50381">
        <ele>1932</ele>
        <time>2020-02-01T12:01:22.000Z</time>
      </trkpt>
      <trkpt lat="42.83674" lon="0.50381">
        <ele>1932</ele>
        <time>2020-02-01T12:01:23.000Z</time>
      </trkpt>
      <trkpt lat="42.83674" lon="0.50381">
        <ele>1932</ele>
        <time>2020-02-01T12:01:24.000Z</time>
      </trkpt>
      <trkpt lat="42.83674" lon="0.50381">
        <ele>1932</ele>
        <time>2020-02-01T12:01:25.000Z</time>
      </trkpt>
      <trkpt lat="42.83674" lon="0.50381">
        <ele>1932</ele>
        <time>2020-02-01T12:01:26.000Z</time>
      </trkpt>
      <trkpt lat="42.83674" lon="0.50381">
        <ele>1932</ele>
        <time>2020-02-01T12:01:27.000Z</time>
      </trkpt>
      <trkpt lat="42.83674" lon="0.50381">
        <ele>1932</ele>
        <time>2020-02-01T12:01:28.000Z</time>
      </trkpt>
      <trkpt lat="42.83674" lon="0.50381">
        <ele>1932</ele>
        <time>2020-02-01T12:01:29.000Z</time>
      </trkpt>
      <trkpt lat="42.83674" lon="0.50381">
        <ele>1932</ele>
        <time>2020-02-01T12:01:30.000Z</time>
      </trkpt>
      <trkpt lat="42.83674" lon="0.50381">
        <ele>1932</ele>
        <time>2020-02-01T12:01:31.000Z</time>
      </trkpt>
      <trkpt lat="42.83674" lon="0.50381">
        <ele>1932</ele>
        <time>2020-02-01T12:01:32.000Z</time>
      </trkpt>
      <trkpt lat="42.83674" lon="0.50381">
        <ele>1932</ele>
        <time>2020-02-01T12:01:33.000Z</time>
      </trkpt>
      <trkpt lat="42.83674" lon="0.50381">
        <ele>1932</ele>
        <time>2020-02-01T12:01:34.000Z</time>
      </trkpt>
      <trkpt lat="42.83674" lon="0.50381">
        <ele>1932</ele>
        <time>2020-02-01T12:01:35.000Z</time>
      </trkpt>
      <trkpt lat="42.83674" lon="0.50381">
        <ele>1932</ele>
        <time>2020-02-01T12:01:36.000Z</time>
      </trkpt>
      <trkpt lat="42.83674" lon="0.50381">
        <ele>1932</ele>
        <time>2020-02-01T12:01:37.000Z</time>
      </trkpt>
      <trkpt lat="42.83674" lon="0.50381">
        <ele>1932</ele>
        <time>2020-02-01T12:01:38.000Z</time>
      </trkpt>
      <trkpt lat="42.83674" lon="0.50381">
        <ele>1932</ele>
        <time>2020-02-01T12:01:39.000Z</time>
      </trkpt>
      <trkpt lat="42.83674" lon="0.50381">
        <ele>1932</ele>
        <time>2020-02-01T12:01:40.000Z</time>
      </trkpt>
      <trkpt lat="42.83674" lon="0.50381">
        <ele>1932</ele>
        <time>2020-02-01T12:01:41.000Z</time>
      </trkpt>
      <trkpt lat="42.83674" lon="0.50381">
        <ele>1932</ele>
        <time>2020-02-01T12:01:42.000Z</time>
      </trkpt>
      <trkpt lat="42.83674" lon="0.50381">
        <ele>1932</ele>
        <time>2020-02-01T12:01:43.000Z</time>
      </trkpt>
      <trkpt lat="42.83674" lon="0.50382">
        <ele>1931.5</ele>
        <time>2020-02-01T12:01:44.000Z</time>
      </trkpt>
      <trkpt lat="42.83674" lon="0.50382">
        <ele>1931</ele>
        <time>2020-02-01T12:01:45.000Z</time>
      </trkpt>
      <trkpt lat="42.83674" lon="0.50382">
        <ele>1931</ele>
        <time>2020-02-01T12:01:46.000Z</time>
      </trkpt>
      <trkpt lat="42.83674" lon="0.50382">
        <ele>1931.3</ele>
        <time>2020-02-01T12:01:47.000Z</time>
      </trkpt>
      <trkpt lat="42.83674" lon="0.50382">
        <ele>1931.7</ele>
        <time>2020-02-01T12:01:48.000Z</time>
      </trkpt>
      <trkpt lat="42.83674" lon="0.50383">
        <ele>1932</ele>
        <time>2020-02-01T12:01:49.000Z</time>
      </trkpt>
      <trkpt lat="42.83674" lon="0.50383">
        <ele>1932</ele>
        <time>2020-02-01T12:01:50.000Z</time>
      </trkpt>
      <trkpt lat="42.83674" lon="0.50383">
        <ele>1932</ele>
        <time>2020-02-01T12:01:51.000Z</time>
      </trkpt>
      <trkpt lat="42.83674" lon="0.50383">
        <ele>1932</ele>
        <time>2020-02-01T12:01:52.000Z</time>
      </trkpt>
      <trkpt lat="42.83674" lon="0.50383">
        <ele>1932</ele>
        <time>2020-02-01T12:01:53.000Z</time>
      </trkpt>
      <trkpt lat="42.83674" lon="0.50383">
        <ele>1932</ele>
        <time>2020-02-01T12:01:54.000Z</time>
      </trkpt>
      <trkpt lat="42.83674" lon="0.50383">
        <ele>1932</ele>
        <time>2020-02-01T12:01:55.000Z</time>
      </trkpt>
      <trkpt lat="42.83674" lon="0.50383">
        <ele>1931.5</ele>
        <time>2020-02-01T12:01:56.000Z</time>
      </trkpt>
      <trkpt lat="42.83674" lon="0.50383">
        <ele>1931</ele>
        <time>2020-02-01T12:01:57.000Z</time>
      </trkpt>
      <trkpt lat="42.83674" lon="0.50383">
        <ele>1931</ele>
        <time>2020-02-01T12:01:58.000Z</time>
      </trkpt>
      <trkpt lat="42.83674" lon="0.50383">
        <ele>1931</ele>
        <time>2020-02-01T12:01:59.000Z</time>
      </trkpt>
      <trkpt lat="42.83674" lon="0.50383">
        <ele>1931.5</ele>
        <time>2020-02-01T12:02:00.000Z</time>
      </trkpt>
      <trkpt lat="42.83674" lon="0.50383">
        <ele>1932</ele>
        <time>2020-02-01T12:02:01.000Z</time>
      </trkpt>
      <trkpt lat="42.83674" lon="0.50383">
        <ele>1932</ele>
        <time>2020-02-01T12:02:02.000Z</time>
      </trkpt>
      <trkpt lat="42.83674" lon="0.50383">
        <ele>1931.7</ele>
        <time>2020-02-01T12:02:03.000Z</time>
      </trkpt>
      <trkpt lat="42.83674" lon="0.50383">
        <ele>1931.3</ele>
        <time>2020-02-01T12:02:04.000Z</time>
      </trkpt>
      <trkpt lat="42.83674" lon="0.50383">
        <ele>1931</ele>
        <time>2020-02-01T12:02:05.000Z</time>
      </trkpt>
      <trkpt lat="42.83674" lon="0.50383">
        <ele>1931.5</ele>
        <time>2020-02-01T12:02:06.000Z</time>
      </trkpt>
      <trkpt lat="42.83674" lon="0.50383">
        <ele>1932</ele>
        <time>2020-02-01T12:02:07.000Z</time>
      </trkpt>
      <trkpt lat="42.83674" lon="0.50383">
        <ele>1932</ele>
        <time>2020-02-01T12:02:08.000Z</time>
      </trkpt>
      <trkpt lat="42.83674" lon="0.50383">
        <ele>1932</ele>
        <time>2020-02-01T12:02:09.000Z</time>
      </trkpt>
      <trkpt lat="42.83674" lon="0.50383">
        <ele>1932</ele>
        <time>2020-02-01T12:02:10.000Z</time>
      </trkpt>
      <trkpt lat="42.83674" lon="0.50383">
        <ele>1932</ele>
        <time>2020-02-01T12:02:11.000Z</time>
      </trkpt>
      <trkpt lat="42.83674" lon="0.50383">
        <ele>1932</ele>
        <time>2020-02-01T12:02:12.000Z</time>
      </trkpt>
      <trkpt lat="42.83674" lon="0.50383">
        <ele>1932</ele>
        <time>2020-02-01T12:02:13.000Z</time>
      </trkpt>
      <trkpt lat="42.83674" lon="0.50383">
        <ele>1932</ele>
        <time>2020-02-01T12:02:14.000Z</time>
      </trkpt>
      <trkpt lat="42.83674" lon="0.50383">
        <ele>1932</ele>
        <time>2020-02-01T12:02:15.000Z</time>
      </trkpt>
      <trkpt lat="42.83674" lon="0.50383">
        <ele>1932</ele>
        <time>2020-02-01T12:02:16.000Z</time>
      </trkpt>
      <trkpt lat="42.83675" lon="0.50384">
        <ele>1932</ele>
        <time>2020-02-01T12:02:17.000Z</time>
      </trkpt>
      <trkpt lat="42.83675" lon="0.50384">
        <ele>1932</ele>
        <time>2020-02-01T12:02:18.000Z</time>
      </trkpt>
      <trkpt lat="42.83675" lon="0.50384">
        <ele>1932</ele>
        <time>2020-02-01T12:02:19.000Z</time>
      </trkpt>
      <trkpt lat="42.83675" lon="0.50384">
        <ele>1932</ele>
        <time>2020-02-01T12:02:20.000Z</time>
      </trkpt>
      <trkpt lat="42.83675" lon="0.50384">
        <ele>1932</ele>
        <time>2020-02-01T12:02:21.000Z</time>
      </trkpt>
      <trkpt lat="42.83675" lon="0.50384">
        <ele>1932</ele>
        <time>2020-02-01T12:02:22.000Z</time>
      </trkpt>
      <trkpt lat="42.83675" lon="0.50384">
        <ele>1932</ele>
        <time>2020-02-01T12:02:23.000Z</time>
      </trkpt>
      <trkpt lat="42.83675" lon="0.50384">
        <ele>1932</ele>
        <time>2020-02-01T12:02:24.000Z</time>
      </trkpt>
      <trkpt lat="42.83675" lon="0.50384">
        <ele>1932</ele>
        <time>2020-02-01T12:02:25.000Z</time>
      </trkpt>
      <trkpt lat="42.83675" lon="0.50384">
        <ele>1932</ele>
        <time>2020-02-01T12:02:26.000Z</time>
      </trkpt>
      <trkpt lat="42.83675" lon="0.50384">
        <ele>1932</ele>
        <time>2020-02-01T12:02:27.000Z</time>
      </trkpt>
      <trkpt lat="42.83675" lon="0.50384">
        <ele>1932</ele>
        <time>2020-02-01T12:02:28.000Z</time>
      </trkpt>
      <trkpt lat="42.83675" lon="0.50384">
        <ele>1932</ele>
        <time>2020-02-01T12:02:29.000Z</time>
      </trkpt>
      <trkpt lat="42.83675" lon="0.50384">
        <ele>1932</ele>
        <time>2020-02-01T12:02:30.000Z</time>
      </trkpt>
      <trkpt lat="42.83676" lon="0.50384">
        <ele>1932</ele>
        <time>2020-02-01T12:02:31.000Z</time>
      </trkpt>
      <trkpt lat="42.83676" lon="0.50384">
        <ele>1932</ele>
        <time>2020-02-01T12:02:32.000Z</time>
      </trkpt>
      <trkpt lat="42.83676" lon="0.50384">
        <ele>1932</ele>
        <time>2020-02-01T12:02:33.000Z</time>
      </trkpt>
      <trkpt lat="42.83676" lon="0.50384">
        <ele>1932</ele>
        <time>2020-02-01T12:02:34.000Z</time>
      </trkpt>
      <trkpt lat="42.83676" lon="0.50384">
        <ele>1932</ele>
        <time>2020-02-01T12:02:35.000Z</time>
      </trkpt>
      <trkpt lat="42.83676" lon="0.50384">
        <ele>1932</ele>
        <time>2020-02-01T12:02:36.000Z</time>
      </trkpt>
      <trkpt lat="42.83676" lon="0.50384">
        <ele>1932</ele>
        <time>2020-02-01T12:02:37.000Z</time>
      </trkpt>
      <trkpt lat="42.83676" lon="0.50384">
        <ele>1932</ele>
        <time>2020-02-01T12:02:38.000Z</time>
      </trkpt>
      <trkpt lat="42.83676" lon="0.50384">
        <ele>1932</ele>
        <time>2020-02-01T12:02:39.000Z</time>
      </trkpt>
      <trkpt lat="42.83676" lon="0.50384">
        <ele>1932</ele>
        <time>2020-02-01T12:02:40.000Z</time>
      </trkpt>
      <trkpt lat="42.83676" lon="0.50384">
        <ele>1932</ele>
        <time>2020-02-01T12:02:41.000Z</time>
      </trkpt>
      <trkpt lat="42.83676" lon="0.50384">
        <ele>1932</ele>
        <time>2020-02-01T12:02:42.000Z</time>
      </trkpt>
      <trkpt lat="42.83676" lon="0.50384">
        <ele>1932</ele>
        <time>2020-02-01T12:02:43.000Z</time>
      </trkpt>
      <trkpt lat="42.83676" lon="0.50384">
        <ele>1931.5</ele>
        <time>2020-02-01T12:02:44.000Z</time>
      </trkpt>
      <trkpt lat="42.83676" lon="0.50384">
        <ele>1931</ele>
        <time>2020-02-01T12:02:45.000Z</time>
      </trkpt>
      <trkpt lat="42.83676" lon="0.50384">
        <ele>1931</ele>
        <time>2020-02-01T12:02:46.000Z</time>
      </trkpt>
      <trkpt lat="42.83676" lon="0.50384">
        <ele>1931</ele>
        <time>2020-02-01T12:02:47.000Z</time>
      </trkpt>
      <trkpt lat="42.83676" lon="0.50384">
        <ele>1931.5</ele>
        <time>2020-02-01T12:02:48.000Z</time>
      </trkpt>
      <trkpt lat="42.83676" lon="0.50384">
        <ele>1932</ele>
        <time>2020-02-01T12:02:49.000Z</time>
      </trkpt>
      <trkpt lat="42.83676" lon="0.50384">
        <ele>1932</ele>
        <time>2020-02-01T12:02:50.000Z</time>
      </trkpt>
      <trkpt lat="42.83676" lon="0.50384">
        <ele>1932</ele>
        <time>2020-02-01T12:02:51.000Z</time>
      </trkpt>
      <trkpt lat="42.83676" lon="0.50384">
        <ele>1932</ele>
        <time>2020-02-01T12:02:52.000Z</time>
      </trkpt>
      <trkpt lat="42.83676" lon="0.50384">
        <ele>1932</ele>
        <time>2020-02-01T12:02:53.000Z</time>
      </trkpt>
      <trkpt lat="42.83676" lon="0.50384">
        <ele>1932</ele>
        <time>2020-02-01T12:02:54.000Z</time>
      </trkpt>
      <trkpt lat="42.83676" lon="0.50384">
        <ele>1932</ele>
        <time>2020-02-01T12:02:55.000Z</time>
      </trkpt>
      <trkpt lat="42.83676" lon="0.50384">
        <ele>1932</ele>
        <time>2020-02-01T12:02:56.000Z</time>
      </trkpt>
      <trkpt lat="42.83676" lon="0.50384">
        <ele>1932</ele>
        <time>2020-02-01T12:02:57.000Z</time>
      </trkpt>
      <trkpt lat="42.83676" lon="0.50384">
        <ele>1932</ele>
        <time>2020-02-01T12:02:58.000Z</time>
      </trkpt>
      <trkpt lat="42.83676" lon="0.50384">
        <ele>1932</ele>
        <time>2020-02-01T12:02:59.000Z</time>
      </trkpt>
      <trkpt lat="42.83676" lon="0.50384">
        <ele>1931.5</ele>
        <time>2020-02-01T12:03:00.000Z</time>
      </trkpt>
      <trkpt lat="42.83676" lon="0.50384">
        <ele>1931</ele>
        <time>2020-02-01T12:03:01.000Z</time>
      </trkpt>
      <trkpt lat="42.83676" lon="0.50384">
        <ele>1931</ele>
        <time>2020-02-01T12:03:02.000Z</time>
      </trkpt>
      <trkpt lat="42.83676" lon="0.50384">
        <ele>1931.3</ele>
        <time>2020-02-01T12:03:03.000Z</time>
      </trkpt>
      <trkpt lat="42.83676" lon="0.50384">
        <ele>1931.7</ele>
        <time>2020-02-01T12:03:04.000Z</time>
      </trkpt>
      <trkpt lat="42.83676" lon="0.50384">
        <ele>1932</ele>
        <time>2020-02-01T12:03:05.000Z</time>
      </trkpt>
      <trkpt lat="42.83676" lon="0.50384">
        <ele>1932</ele>
        <time>2020-02-01T12:03:06.000Z</time>
      </trkpt>
      <trkpt lat="42.83676" lon="0.50383">
        <ele>1932</ele>
        <time>2020-02-01T12:03:07.000Z</time>
      </trkpt>
      <trkpt lat="42.83675" lon="0.50383">
        <ele>1932</ele>
        <time>2020-02-01T12:03:08.000Z</time>
      </trkpt>
      <trkpt lat="42.83675" lon="0.50383">
        <ele>1932</ele>
        <time>2020-02-01T12:03:09.000Z</time>
      </trkpt>
      <trkpt lat="42.83675" lon="0.50383">
        <ele>1932</ele>
        <time>2020-02-01T12:03:10.000Z</time>
      </trkpt>
      <trkpt lat="42.83675" lon="0.50382">
        <ele>1932</ele>
        <time>2020-02-01T12:03:11.000Z</time>
      </trkpt>
      <trkpt lat="42.83675" lon="0.50382">
        <ele>1932</ele>
        <time>2020-02-01T12:03:12.000Z</time>
      </trkpt>
      <trkpt lat="42.83675" lon="0.50381">
        <ele>1932</ele>
        <time>2020-02-01T12:03:13.000Z</time>
      </trkpt>
      <trkpt lat="42.83675" lon="0.50381">
        <ele>1932</ele>
        <time>2020-02-01T12:03:14.000Z</time>
      </trkpt>
      <trkpt lat="42.83675" lon="0.50381">
        <ele>1932</ele>
        <time>2020-02-01T12:03:15.000Z</time>
      </trkpt>
      <trkpt lat="42.83675" lon="0.50381">
        <ele>1932</ele>
        <time>2020-02-01T12:03:16.000Z</time>
      </trkpt>
      <trkpt lat="42.83675" lon="0.50381">
        <ele>1932</ele>
        <time>2020-02-01T12:03:17.000Z</time>
      </trkpt>
      <trkpt lat="42.83675" lon="0.50381">
        <ele>1932</ele>
        <time>2020-02-01T12:03:18.000Z</time>
      </trkpt>
      <trkpt lat="42.83675" lon="0.50381">
        <ele>1932</ele>
        <time>2020-02-01T12:03:19.000Z</time>
      </trkpt>
      <trkpt lat="42.83675" lon="0.50381">
        <ele>1932</ele>
        <time>2020-02-01T12:03:20.000Z</time>
      </trkpt>
      <trkpt lat="42.83675" lon="0.50381">
        <ele>1932</ele>
        <time>2020-02-01T12:03:21.000Z</time>
      </trkpt>
      <trkpt lat="42.83675" lon="0.50381">
        <ele>1932</ele>
        <time>2020-02-01T12:03:22.000Z</time>
      </trkpt>
      <trkpt lat="42.83675" lon="0.50381">
        <ele>1932</ele>
        <time>2020-02-01T12:03:23.000Z</time>
      </trkpt>
      <trkpt lat="42.83675" lon="0.50381">
        <ele>1932</ele>
        <time>2020-02-01T12:03:24.000Z</time>
      </trkpt>
      <trkpt lat="42.83675" lon="0.50381">
        <ele>1932</ele>
        <time>2020-02-01T12:03:25.000Z</time>
      </trkpt>
      <trkpt lat="42.83675" lon="0.5038">
        <ele>1932</ele>
        <time>2020-02-01T12:03:26.000Z</time>
      </trkpt>
      <trkpt lat="42.83675" lon="0.5038">
        <ele>1932</ele>
        <time>2020-02-01T12:03:27.000Z</time>
      </trkpt>
      <trkpt lat="42.83675" lon="0.5038">
        <ele>1932</ele>
        <time>2020-02-01T12:03:28.000Z</time>
      </trkpt>
      <trkpt lat="42.83675" lon="0.5038">
        <ele>1932</ele>
        <time>2020-02-01T12:03:29.000Z</time>
      </trkpt>
      <trkpt lat="42.83675" lon="0.5038">
        <ele>1932</ele>
        <time>2020-02-01T12:03:30.000Z</time>
      </trkpt>
      <trkpt lat="42.83675" lon="0.50381">
        <ele>1932</ele>
        <time>2020-02-01T12:03:31.000Z</time>
      </trkpt>
      <trkpt lat="42.83675" lon="0.50381">
        <ele>1932</ele>
        <time>2020-02-01T12:03:32.000Z</time>
      </trkpt>
      <trkpt lat="42.83675" lon="0.50381">
        <ele>1932</ele>
        <time>2020-02-01T12:03:33.000Z</time>
      </trkpt>
      <trkpt lat="42.83674" lon="0.50381">
        <ele>1932</ele>
        <time>2020-02-01T12:03:34.000Z</time>
      </trkpt>
      <trkpt lat="42.83674" lon="0.50381">
        <ele>1932</ele>
        <time>2020-02-01T12:03:35.000Z</time>
      </trkpt>
      <trkpt lat="42.83674" lon="0.50381">
        <ele>1932</ele>
        <time>2020-02-01T12:03:36.000Z</time>
      </trkpt>
      <trkpt lat="42.83674" lon="0.50381">
        <ele>1932</ele>
        <time>2020-02-01T12:03:37.000Z</time>
      </trkpt>
      <trkpt lat="42.83674" lon="0.50382">
        <ele>1932</ele>
        <time>2020-02-01T12:03:38.000Z</time>
      </trkpt>
      <trkpt lat="42.83674" lon="0.50382">
        <ele>1932</ele>
        <time>2020-02-01T12:03:39.000Z</time>
      </trkpt>
      <trkpt lat="42.83674" lon="0.50382">
        <ele>1932</ele>
        <time>2020-02-01T12:03:40.000Z</time>
      </trkpt>
      <trkpt lat="42.83674" lon="0.50382">
        <ele>1932</ele>
        <time>2020-02-01T12:03:41.000Z</time>
      </trkpt>
      <trkpt lat="42.83674" lon="0.50381">
        <ele>1932</ele>
        <time>2020-02-01T12:03:42.000Z</time>
      </trkpt>
      <trkpt lat="42.83674" lon="0.50381">
        <ele>1932</ele>
        <time>2020-02-01T12:03:43.000Z</time>
      </trkpt>
      <trkpt lat="42.83674" lon="0.50381">
        <ele>1932</ele>
        <time>2020-02-01T12:03:44.000Z</time>
      </trkpt>
      <trkpt lat="42.83674" lon="0.50381">
        <ele>1932</ele>
        <time>2020-02-01T12:03:45.000Z</time>
      </trkpt>
      <trkpt lat="42.83674" lon="0.50381">
        <ele>1932</ele>
        <time>2020-02-01T12:03:46.000Z</time>
      </trkpt>
      <trkpt lat="42.83674" lon="0.50381">
        <ele>1932</ele>
        <time>2020-02-01T12:03:47.000Z</time>
      </trkpt>
      <trkpt lat="42.83674" lon="0.50381">
        <ele>1932</ele>
        <time>2020-02-01T12:03:48.000Z</time>
      </trkpt>
      <trkpt lat="42.83674" lon="0.50381">
        <ele>1932</ele>
        <time>2020-02-01T12:03:49.000Z</time>
      </trkpt>
      <trkpt lat="42.83674" lon="0.50381">
        <ele>1932</ele>
        <time>2020-02-01T12:03:50.000Z</time>
      </trkpt>
      <trkpt lat="42.83674" lon="0.50381">
        <ele>1932</ele>
        <time>2020-02-01T12:03:51.000Z</time>
      </trkpt>
      <trkpt lat="42.83674" lon="0.50381">
        <ele>1932</ele>
        <time>2020-02-01T12:03:52.000Z</time>
      </trkpt>
      <trkpt lat="42.83674" lon="0.50381">
        <ele>1932</ele>
        <time>2020-02-01T12:03:53.000Z</time>
      </trkpt>
      <trkpt lat="42.83674" lon="0.50381">
        <ele>1932</ele>
        <time>2020-02-01T12:03:54.000Z</time>
      </trkpt>
      <trkpt lat="42.83674" lon="0.50381">
        <ele>1932</ele>
        <time>2020-02-01T12:03:55.000Z</time>
      </trkpt>
      <trkpt lat="42.83674" lon="0.50381">
        <ele>1932</ele>
        <time>2020-02-01T12:03:56.000Z</time>
      </trkpt>
      <trkpt lat="42.83674" lon="0.50381">
        <ele>1932</ele>
        <time>2020-02-01T12:03:57.000Z</time>
      </trkpt>
      <trkpt lat="42.83674" lon="0.50381">
        <ele>1932</ele>
        <time>2020-02-01T12:03:58.000Z</time>
      </trkpt>
      <trkpt lat="42.83674" lon="0.50381">
        <ele>1932</ele>
        <time>2020-02-01T12:03:59.000Z</time>
      </trkpt>
      <trkpt lat="42.83674" lon="0.50381">
        <ele>1932</ele>
        <time>2020-02-01T12:04:00.000Z</time>
      </trkpt>
      <trkpt lat="42.83674" lon="0.5038">
        <ele>1932</ele>
        <time>2020-02-01T12:04:01.000Z</time>
      </trkpt>
      <trkpt lat="42.83674" lon="0.5038">
        <ele>1932</ele>
        <time>2020-02-01T12:04:02.000Z</time>
      </trkpt>
      <trkpt lat="42.83674" lon="0.5038">
        <ele>1932</ele>
        <time>2020-02-01T12:04:03.000Z</time>
      </trkpt>
      <trkpt lat="42.83674" lon="0.5038">
        <ele>1932</ele>
        <time>2020-02-01T12:04:04.000Z</time>
      </trkpt>
      <trkpt lat="42.83674" lon="0.5038">
        <ele>1932</ele>
        <time>2020-02-01T12:04:05.000Z</time>
      </trkpt>
      <trkpt lat="42.83674" lon="0.5038">
        <ele>1932</ele>
        <time>2020-02-01T12:04:06.000Z</time>
      </trkpt>
      <trkpt lat="42.83674" lon="0.5038">
        <ele>1932</ele>
        <time>2020-02-01T12:04:07.000Z</time>
      </trkpt>
      <trkpt lat="42.83674" lon="0.5038">
        <ele>1932</ele>
        <time>2020-02-01T12:04:08.000Z</time>
      </trkpt>
      <trkpt lat="42.83674" lon="0.5038">
        <ele>1932</ele>
        <time>2020-02-01T12:04:09.000Z</time>
      </trkpt>
      <trkpt lat="42.83674" lon="0.5038">
        <ele>1932</ele>
        <time>2020-02-01T12:04:10.000Z</time>
      </trkpt>
      <trkpt lat="42.83674" lon="0.5038">
        <ele>1932</ele>
        <time>2020-02-01T12:04:11.000Z</time>
      </trkpt>
      <trkpt lat="42.83674" lon="0.5038">
        <ele>1932.5</ele>
        <time>2020-02-01T12:04:12.000Z</time>
      </trkpt>
      <trkpt lat="42.83674" lon="0.5038">
        <ele>1933</ele>
        <time>2020-02-01T12:04:13.000Z</time>
      </trkpt>
      <trkpt lat="42.83674" lon="0.5038">
        <ele>1932.5</ele>
        <time>2020-02-01T12:04:14.000Z</time>
      </trkpt>
      <trkpt lat="42.83674" lon="0.5038">
        <ele>1932</ele>
        <time>2020-02-01T12:04:15.000Z</time>
      </trkpt>
      <trkpt lat="42.83674" lon="0.5038">
        <ele>1932</ele>
        <time>2020-02-01T12:04:16.000Z</time>
      </trkpt>
      <trkpt lat="42.83674" lon="0.5038">
        <ele>1932</ele>
        <time>2020-02-01T12:04:17.000Z</time>
      </trkpt>
      <trkpt lat="42.83674" lon="0.5038">
        <ele>1932</ele>
        <time>2020-02-01T12:04:18.000Z</time>
      </trkpt>
      <trkpt lat="42.83674" lon="0.5038">
        <ele>1932</ele>
        <time>2020-02-01T12:04:19.000Z</time>
      </trkpt>
      <trkpt lat="42.83674" lon="0.5038">
        <ele>1932</ele>
        <time>2020-02-01T12:04:20.000Z</time>
      </trkpt>
      <trkpt lat="42.83674" lon="0.5038">
        <ele>1932</ele>
        <time>2020-02-01T12:04:21.000Z</time>
      </trkpt>
      <trkpt lat="42.83674" lon="0.5038">
        <ele>1932.5</ele>
        <time>2020-02-01T12:04:22.000Z</time>
      </trkpt>
      <trkpt lat="42.83674" lon="0.5038">
        <ele>1933</ele>
        <time>2020-02-01T12:04:23.000Z</time>
      </trkpt>
      <trkpt lat="42.83674" lon="0.5038">
        <ele>1933</ele>
        <time>2020-02-01T12:04:24.000Z</time>
      </trkpt>
      <trkpt lat="42.83674" lon="0.5038">
        <ele>1933</ele>
        <time>2020-02-01T12:04:25.000Z</time>
      </trkpt>
      <trkpt lat="42.83674" lon="0.5038">
        <ele>1933</ele>
        <time>2020-02-01T12:04:26.000Z</time>
      </trkpt>
      <trkpt lat="42.83674" lon="0.5038">
        <ele>1933</ele>
        <time>2020-02-01T12:04:27.000Z</time>
      </trkpt>
      <trkpt lat="42.83674" lon="0.5038">
        <ele>1933</ele>
        <time>2020-02-01T12:04:28.000Z</time>
      </trkpt>
      <trkpt lat="42.83674" lon="0.5038">
        <ele>1933</ele>
        <time>2020-02-01T12:04:29.000Z</time>
      </trkpt>
      <trkpt lat="42.83674" lon="0.5038">
        <ele>1933</ele>
        <time>2020-02-01T12:04:30.000Z</time>
      </trkpt>
      <trkpt lat="42.83674" lon="0.5038">
        <ele>1933</ele>
        <time>2020-02-01T12:04:31.000Z</time>
      </trkpt>
      <trkpt lat="42.83674" lon="0.5038">
        <ele>1933</ele>
        <time>2020-02-01T12:04:32.000Z</time>
      </trkpt>
      <trkpt lat="42.83674" lon="0.5038">
        <ele>1933</ele>
        <time>2020-02-01T12:04:33.000Z</time>
      </trkpt>
      <trkpt lat="42.83674" lon="0.5038">
        <ele>1933</ele>
        <time>2020-02-01T12:04:34.000Z</time>
      </trkpt>
      <trkpt lat="42.83674" lon="0.5038">
        <ele>1933</ele>
        <time>2020-02-01T12:04:35.000Z</time>
      </trkpt>
      <trkpt lat="42.83674" lon="0.5038">
        <ele>1933</ele>
        <time>2020-02-01T12:04:36.000Z</time>
      </trkpt>
      <trkpt lat="42.83674" lon="0.5038">
        <ele>1933</ele>
        <time>2020-02-01T12:04:37.000Z</time>
      </trkpt>
      <trkpt lat="42.83674" lon="0.5038">
        <ele>1933</ele>
        <time>2020-02-01T12:04:38.000Z</time>
      </trkpt>
      <trkpt lat="42.83674" lon="0.5038">
        <ele>1933</ele>
        <time>2020-02-01T12:04:39.000Z</time>
      </trkpt>
      <trkpt lat="42.83674" lon="0.5038">
        <ele>1933</ele>
        <time>2020-02-01T12:04:40.000Z</time>
      </trkpt>
      <trkpt lat="42.83674" lon="0.5038">
        <ele>1933</ele>
        <time>2020-02-01T12:04:41.000Z</time>
      </trkpt>
      <trkpt lat="42.83674" lon="0.5038">
        <ele>1932.5</ele>
        <time>2020-02-01T12:04:42.000Z</time>
      </trkpt>
      <trkpt lat="42.83674" lon="0.5038">
        <ele>1932</ele>
        <time>2020-02-01T12:04:43.000Z</time>
      </trkpt>
      <trkpt lat="42.83674" lon="0.5038">
        <ele>1932</ele>
        <time>2020-02-01T12:04:44.000Z</time>
      </trkpt>
      <trkpt lat="42.83674" lon="0.5038">
        <ele>1932</ele>
        <time>2020-02-01T12:04:45.000Z</time>
      </trkpt>
      <trkpt lat="42.83674" lon="0.5038">
        <ele>1932</ele>
        <time>2020-02-01T12:04:46.000Z</time>
      </trkpt>
      <trkpt lat="42.83674" lon="0.5038">
        <ele>1932</ele>
        <time>2020-02-01T12:04:47.000Z</time>
      </trkpt>
      <trkpt lat="42.83674" lon="0.50381">
        <ele>1932</ele>
        <time>2020-02-01T12:04:48.000Z</time>
      </trkpt>
      <trkpt lat="42.83674" lon="0.50381">
        <ele>1932</ele>
        <time>2020-02-01T12:04:49.000Z</time>
      </trkpt>
      <trkpt lat="42.83674" lon="0.50381">
        <ele>1932</ele>
        <time>2020-02-01T12:04:50.000Z</time>
      </trkpt>
      <trkpt lat="42.83674" lon="0.50381">
        <ele>1932</ele>
        <time>2020-02-01T12:04:51.000Z</time>
      </trkpt>
      <trkpt lat="42.83674" lon="0.50381">
        <ele>1932</ele>
        <time>2020-02-01T12:04:52.000Z</time>
      </trkpt>
      <trkpt lat="42.83674" lon="0.50381">
        <ele>1932</ele>
        <time>2020-02-01T12:04:53.000Z</time>
      </trkpt>
      <trkpt lat="42.83674" lon="0.50381">
        <ele>1932</ele>
        <time>2020-02-01T12:04:54.000Z</time>
      </trkpt>
      <trkpt lat="42.83674" lon="0.50381">
        <ele>1932.3</ele>
        <time>2020-02-01T12:04:55.000Z</time>
      </trkpt>
      <trkpt lat="42.83674" lon="0.50381">
        <ele>1932.7</ele>
        <time>2020-02-01T12:04:56.000Z</time>
      </trkpt>
      <trkpt lat="42.83674" lon="0.50381">
        <ele>1933</ele>
        <time>2020-02-01T12:04:57.000Z</time>
      </trkpt>
      <trkpt lat="42.83674" lon="0.50381">
        <ele>1933</ele>
        <time>2020-02-01T12:04:58.000Z</time>
      </trkpt>
      <trkpt lat="42.83674" lon="0.50381">
        <ele>1933</ele>
        <time>2020-02-01T12:04:59.000Z</time>
      </trkpt>
      <trkpt lat="42.83674" lon="0.50381">
        <ele>1933</ele>
        <time>2020-02-01T12:05:00.000Z</time>
      </trkpt>
      <trkpt lat="42.83674" lon="0.50381">
        <ele>1933</ele>
        <time>2020-02-01T12:05:01.000Z</time>
      </trkpt>
      <trkpt lat="42.83674" lon="0.50381">
        <ele>1933</ele>
        <time>2020-02-01T12:05:02.000Z</time>
      </trkpt>
      <trkpt lat="42.83674" lon="0.50381">
        <ele>1933</ele>
        <time>2020-02-01T12:05:03.000Z</time>
      </trkpt>
      <trkpt lat="42.83674" lon="0.50381">
        <ele>1933</ele>
        <time>2020-02-01T12:05:04.000Z</time>
      </trkpt>
      <trkpt lat="42.83674" lon="0.50381">
        <ele>1933</ele>
        <time>2020-02-01T12:05:05.000Z</time>
      </trkpt>
      <trkpt lat="42.83674" lon="0.50381">
        <ele>1932.5</ele>
        <time>2020-02-01T12:05:06.000Z</time>
      </trkpt>
      <trkpt lat="42.83673" lon="0.50381">
        <ele>1932</ele>
        <time>2020-02-01T12:05:07.000Z</time>
      </trkpt>
      <trkpt lat="42.83673" lon="0.50381">
        <ele>1932</ele>
        <time>2020-02-01T12:05:08.000Z</time>
      </trkpt>
      <trkpt lat="42.83673" lon="0.50381">
        <ele>1932</ele>
        <time>2020-02-01T12:05:09.000Z</time>
      </trkpt>
      <trkpt lat="42.83673" lon="0.50381">
        <ele>1932</ele>
        <time>2020-02-01T12:05:10.000Z</time>
      </trkpt>
      <trkpt lat="42.83673" lon="0.50381">
        <ele>1932</ele>
        <time>2020-02-01T12:05:11.000Z</time>
      </trkpt>
      <trkpt lat="42.83673" lon="0.50381">
        <ele>1932</ele>
        <time>2020-02-01T12:05:12.000Z</time>
      </trkpt>
      <trkpt lat="42.83673" lon="0.50381">
        <ele>1932</ele>
        <time>2020-02-01T12:05:13.000Z</time>
      </trkpt>
      <trkpt lat="42.83673" lon="0.50381">
        <ele>1932</ele>
        <time>2020-02-01T12:05:14.000Z</time>
      </trkpt>
      <trkpt lat="42.83673" lon="0.50381">
        <ele>1932</ele>
        <time>2020-02-01T12:05:15.000Z</time>
      </trkpt>
      <trkpt lat="42.83673" lon="0.50381">
        <ele>1932</ele>
        <time>2020-02-01T12:05:16.000Z</time>
      </trkpt>
      <trkpt lat="42.83673" lon="0.50381">
        <ele>1932</ele>
        <time>2020-02-01T12:05:17.000Z</time>
      </trkpt>
      <trkpt lat="42.83673" lon="0.50381">
        <ele>1932</ele>
        <time>2020-02-01T12:05:18.000Z</time>
      </trkpt>
      <trkpt lat="42.83673" lon="0.50381">
        <ele>1932</ele>
        <time>2020-02-01T12:05:19.000Z</time>
      </trkpt>
      <trkpt lat="42.83673" lon="0.50381">
        <ele>1932.5</ele>
        <time>2020-02-01T12:05:20.000Z</time>
      </trkpt>
      <trkpt lat="42.83673" lon="0.50381">
        <ele>1933</ele>
        <time>2020-02-01T12:05:21.000Z</time>
      </trkpt>
      <trkpt lat="42.83673" lon="0.50381">
        <ele>1933</ele>
        <time>2020-02-01T12:05:22.000Z</time>
      </trkpt>
      <trkpt lat="42.83673" lon="0.50381">
        <ele>1933</ele>
        <time>2020-02-01T12:05:23.000Z</time>
      </trkpt>
      <trkpt lat="42.83674" lon="0.50381">
        <ele>1932.5</ele>
        <time>2020-02-01T12:05:24.000Z</time>
      </trkpt>
      <trkpt lat="42.83674" lon="0.50381">
        <ele>1932</ele>
        <time>2020-02-01T12:05:25.000Z</time>
      </trkpt>
      <trkpt lat="42.83674" lon="0.50381">
        <ele>1932</ele>
        <time>2020-02-01T12:05:26.000Z</time>
      </trkpt>
      <trkpt lat="42.83674" lon="0.50381">
        <ele>1932</ele>
        <time>2020-02-01T12:05:27.000Z</time>
      </trkpt>
      <trkpt lat="42.83674" lon="0.50382">
        <ele>1933</ele>
        <time>2020-02-01T12:05:28.000Z</time>
      </trkpt>
      <trkpt lat="42.83674" lon="0.50382">
        <ele>1932.7</ele>
        <time>2020-02-01T12:05:29.000Z</time>
      </trkpt>
      <trkpt lat="42.83675" lon="0.50382">
        <ele>1932.3</ele>
        <time>2020-02-01T12:05:30.000Z</time>
      </trkpt>
      <trkpt lat="42.83675" lon="0.50382">
        <ele>1932</ele>
        <time>2020-02-01T12:05:31.000Z</time>
      </trkpt>
      <trkpt lat="42.83675" lon="0.50382">
        <ele>1932.5</ele>
        <time>2020-02-01T12:05:32.000Z</time>
      </trkpt>
      <trkpt lat="42.83675" lon="0.50382">
        <ele>1933</ele>
        <time>2020-02-01T12:05:33.000Z</time>
      </trkpt>
      <trkpt lat="42.83675" lon="0.50382">
        <ele>1933</ele>
        <time>2020-02-01T12:05:34.000Z</time>
      </trkpt>
      <trkpt lat="42.83675" lon="0.50382">
        <ele>1933</ele>
        <time>2020-02-01T12:05:35.000Z</time>
      </trkpt>
      <trkpt lat="42.83675" lon="0.50382">
        <ele>1933</ele>
        <time>2020-02-01T12:05:36.000Z</time>
      </trkpt>
      <trkpt lat="42.83675" lon="0.50382">
        <ele>1933</ele>
        <time>2020-02-01T12:05:37.000Z</time>
      </trkpt>
      <trkpt lat="42.83675" lon="0.50382">
        <ele>1933</ele>
        <time>2020-02-01T12:05:38.000Z</time>
      </trkpt>
      <trkpt lat="42.83675" lon="0.50382">
        <ele>1933</ele>
        <time>2020-02-01T12:05:39.000Z</time>
      </trkpt>
      <trkpt lat="42.83675" lon="0.50382">
        <ele>1933</ele>
        <time>2020-02-01T12:05:40.000Z</time>
      </trkpt>
      <trkpt lat="42.83675" lon="0.50382">
        <ele>1933</ele>
        <time>2020-02-01T12:05:41.000Z</time>
      </trkpt>
      <trkpt lat="42.83675" lon="0.50382">
        <ele>1933</ele>
        <time>2020-02-01T12:05:42.000Z</time>
      </trkpt>
      <trkpt lat="42.83675" lon="0.50382">
        <ele>1933</ele>
        <time>2020-02-01T12:05:43.000Z</time>
      </trkpt>
      <trkpt lat="42.83675" lon="0.50382">
        <ele>1933</ele>
        <time>2020-02-01T12:05:44.000Z</time>
      </trkpt>
      <trkpt lat="42.83675" lon="0.50382">
        <ele>1933</ele>
        <time>2020-02-01T12:05:45.000Z</time>
      </trkpt>
      <trkpt lat="42.83675" lon="0.50382">
        <ele>1933</ele>
        <time>2020-02-01T12:05:46.000Z</time>
      </trkpt>
      <trkpt lat="42.83675" lon="0.50382">
        <ele>1933</ele>
        <time>2020-02-01T12:05:47.000Z</time>
      </trkpt>
      <trkpt lat="42.83675" lon="0.50382">
        <ele>1932.5</ele>
        <time>2020-02-01T12:05:48.000Z</time>
      </trkpt>
      <trkpt lat="42.83675" lon="0.50382">
        <ele>1932</ele>
        <time>2020-02-01T12:05:49.000Z</time>
      </trkpt>
      <trkpt lat="42.83675" lon="0.50383">
        <ele>1932.5</ele>
        <time>2020-02-01T12:05:50.000Z</time>
      </trkpt>
      <trkpt lat="42.83675" lon="0.50383">
        <ele>1933</ele>
        <time>2020-02-01T12:05:51.000Z</time>
      </trkpt>
      <trkpt lat="42.83675" lon="0.50383">
        <ele>1933</ele>
        <time>2020-02-01T12:05:52.000Z</time>
      </trkpt>
      <trkpt lat="42.83675" lon="0.50383">
        <ele>1933</ele>
        <time>2020-02-01T12:05:53.000Z</time>
      </trkpt>
      <trkpt lat="42.83674" lon="0.50383">
        <ele>1933</ele>
        <time>2020-02-01T12:05:54.000Z</time>
      </trkpt>
      <trkpt lat="42.83674" lon="0.50383">
        <ele>1933</ele>
        <time>2020-02-01T12:05:55.000Z</time>
      </trkpt>
      <trkpt lat="42.83674" lon="0.50383">
        <ele>1933</ele>
        <time>2020-02-01T12:05:56.000Z</time>
      </trkpt>
      <trkpt lat="42.83674" lon="0.50383">
        <ele>1933</ele>
        <time>2020-02-01T12:05:57.000Z</time>
      </trkpt>
      <trkpt lat="42.83674" lon="0.50383">
        <ele>1933</ele>
        <time>2020-02-01T12:05:58.000Z</time>
      </trkpt>
      <trkpt lat="42.83674" lon="0.50383">
        <ele>1933</ele>
        <time>2020-02-01T12:05:59.000Z</time>
      </trkpt>
      <trkpt lat="42.83674" lon="0.50383">
        <ele>1933</ele>
        <time>2020-02-01T12:06:00.000Z</time>
      </trkpt>
      <trkpt lat="42.83674" lon="0.50383">
        <ele>1933</ele>
        <time>2020-02-01T12:06:01.000Z</time>
      </trkpt>
      <trkpt lat="42.83674" lon="0.50383">
        <ele>1933</ele>
        <time>2020-02-01T12:06:02.000Z</time>
      </trkpt>
      <trkpt lat="42.83674" lon="0.50383">
        <ele>1933</ele>
        <time>2020-02-01T12:06:03.000Z</time>
      </trkpt>
      <trkpt lat="42.83674" lon="0.50383">
        <ele>1933</ele>
        <time>2020-02-01T12:06:04.000Z</time>
      </trkpt>
      <trkpt lat="42.83674" lon="0.50383">
        <ele>1933</ele>
        <time>2020-02-01T12:06:05.000Z</time>
      </trkpt>
      <trkpt lat="42.83674" lon="0.50383">
        <ele>1933</ele>
        <time>2020-02-01T12:06:06.000Z</time>
      </trkpt>
      <trkpt lat="42.83674" lon="0.50383">
        <ele>1933</ele>
        <time>2020-02-01T12:06:07.000Z</time>
      </trkpt>
      <trkpt lat="42.83674" lon="0.50383">
        <ele>1933</ele>
        <time>2020-02-01T12:06:08.000Z</time>
      </trkpt>
      <trkpt lat="42.83674" lon="0.50383">
        <ele>1933</ele>
        <time>2020-02-01T12:06:09.000Z</time>
      </trkpt>
      <trkpt lat="42.83674" lon="0.50383">
        <ele>1933</ele>
        <time>2020-02-01T12:06:10.000Z</time>
      </trkpt>
      <trkpt lat="42.83674" lon="0.50383">
        <ele>1933</ele>
        <time>2020-02-01T12:06:11.000Z</time>
      </trkpt>
      <trkpt lat="42.83674" lon="0.50383">
        <ele>1933</ele>
        <time>2020-02-01T12:06:12.000Z</time>
      </trkpt>
      <trkpt lat="42.83674" lon="0.50383">
        <ele>1933</ele>
        <time>2020-02-01T12:06:13.000Z</time>
      </trkpt>
      <trkpt lat="42.83674" lon="0.50383">
        <ele>1933</ele>
        <time>2020-02-01T12:06:14.000Z</time>
      </trkpt>
      <trkpt lat="42.83675" lon="0.50383">
        <ele>1933</ele>
        <time>2020-02-01T12:06:15.000Z</time>
      </trkpt>
      <trkpt lat="42.83675" lon="0.50383">
        <ele>1932.5</ele>
        <time>2020-02-01T12:06:16.000Z</time>
      </trkpt>
      <trkpt lat="42.83675" lon="0.50383">
        <ele>1932</ele>
        <time>2020-02-01T12:06:17.000Z</time>
      </trkpt>
      <trkpt lat="42.83675" lon="0.50382">
        <ele>1932</ele>
        <time>2020-02-01T12:06:18.000Z</time>
      </trkpt>
      <trkpt lat="42.83675" lon="0.50382">
        <ele>1932</ele>
        <time>2020-02-01T12:06:19.000Z</time>
      </trkpt>
      <trkpt lat="42.83676" lon="0.50381">
        <ele>1932</ele>
        <time>2020-02-01T12:06:20.000Z</time>
      </trkpt>
      <trkpt lat="42.83676" lon="0.5038">
        <ele>1932</ele>
        <time>2020-02-01T12:06:21.000Z</time>
      </trkpt>
      <trkpt lat="42.83677" lon="0.50378">
        <ele>1932</ele>
        <time>2020-02-01T12:06:22.000Z</time>
      </trkpt>
      <trkpt lat="42.83677" lon="0.50376">
        <ele>1932</ele>
        <time>2020-02-01T12:06:23.000Z</time>
      </trkpt>
      <trkpt lat="42.83677" lon="0.50374">
        <ele>1932</ele>
        <time>2020-02-01T12:06:24.000Z</time>
      </trkpt>
      <trkpt lat="42.83677" lon="0.50373">
        <ele>1932</ele>
        <time>2020-02-01T12:06:25.000Z</time>
      </trkpt>
      <trkpt lat="42.83677" lon="0.50371">
        <ele>1932</ele>
        <time>2020-02-01T12:06:26.000Z</time>
      </trkpt>
      <trkpt lat="42.83677" lon="0.5037">
        <ele>1932</ele>
        <time>2020-02-01T12:06:27.000Z</time>
      </trkpt>
      <trkpt lat="42.83676" lon="0.50369">
        <ele>1932</ele>
        <time>2020-02-01T12:06:28.000Z</time>
      </trkpt>
      <trkpt lat="42.83676" lon="0.50368">
        <ele>1932</ele>
        <time>2020-02-01T12:06:29.000Z</time>
      </trkpt>
      <trkpt lat="42.83676" lon="0.50367">
        <ele>1931.5</ele>
        <time>2020-02-01T12:06:30.000Z</time>
      </trkpt>
      <trkpt lat="42.83676" lon="0.50366">
        <ele>1931</ele>
        <time>2020-02-01T12:06:31.000Z</time>
      </trkpt>
      <trkpt lat="42.83676" lon="0.50365">
        <ele>1931</ele>
        <time>2020-02-01T12:06:32.000Z</time>
      </trkpt>
      <trkpt lat="42.83676" lon="0.50364">
        <ele>1931</ele>
        <time>2020-02-01T12:06:33.000Z</time>
      </trkpt>
      <trkpt lat="42.83676" lon="0.50363">
        <ele>1931</ele>
        <time>2020-02-01T12:06:34.000Z</time>
      </trkpt>
      <trkpt lat="42.83677" lon="0.50361">
        <ele>1931</ele>
        <time>2020-02-01T12:06:35.000Z</time>
      </trkpt>
      <trkpt lat="42.83677" lon="0.5036">
        <ele>1931</ele>
        <time>2020-02-01T12:06:36.000Z</time>
      </trkpt>
      <trkpt lat="42.83677" lon="0.50359">
        <ele>1931</ele>
        <time>2020-02-01T12:06:37.000Z</time>
      </trkpt>
      <trkpt lat="42.83678" lon="0.50357">
        <ele>1931</ele>
        <time>2020-02-01T12:06:38.000Z</time>
      </trkpt>
      <trkpt lat="42.83678" lon="0.50356">
        <ele>1931</ele>
        <time>2020-02-01T12:06:39.000Z</time>
      </trkpt>
      <trkpt lat="42.83679" lon="0.50354">
        <ele>1931</ele>
        <time>2020-02-01T12:06:40.000Z</time>
      </trkpt>
      <trkpt lat="42.83679" lon="0.50353">
        <ele>1931</ele>
        <time>2020-02-01T12:06:41.000Z</time>
      </trkpt>
      <trkpt lat="42.83679" lon="0.50351">
        <ele>1931</ele>
        <time>2020-02-01T12:06:42.000Z</time>
      </trkpt>
      <trkpt lat="42.83679" lon="0.5035">
        <ele>1931</ele>
        <time>2020-02-01T12:06:43.000Z</time>
      </trkpt>
      <trkpt lat="42.83679" lon="0.50348">
        <ele>1931</ele>
        <time>2020-02-01T12:06:44.000Z</time>
      </trkpt>
      <trkpt lat="42.83679" lon="0.50347">
        <ele>1931</ele>
        <time>2020-02-01T12:06:45.000Z</time>
      </trkpt>
      <trkpt lat="42.83679" lon="0.50345">
        <ele>1931</ele>
        <time>2020-02-01T12:06:46.000Z</time>
      </trkpt>
      <trkpt lat="42.83679" lon="0.50343">
        <ele>1931</ele>
        <time>2020-02-01T12:06:47.000Z</time>
      </trkpt>
      <trkpt lat="42.83679" lon="0.50342">
        <ele>1931</ele>
        <time>2020-02-01T12:06:48.000Z</time>
      </trkpt>
      <trkpt lat="42.83679" lon="0.50341">
        <ele>1931</ele>
        <time>2020-02-01T12:06:49.000Z</time>
      </trkpt>
      <trkpt lat="42.83679" lon="0.50339">
        <ele>1931</ele>
        <time>2020-02-01T12:06:50.000Z</time>
      </trkpt>
      <trkpt lat="42.83679" lon="0.50338">
        <ele>1930.5</ele>
        <time>2020-02-01T12:06:51.000Z</time>
      </trkpt>
      <trkpt lat="42.83679" lon="0.50336">
        <ele>1930</ele>
        <time>2020-02-01T12:06:52.000Z</time>
      </trkpt>
      <trkpt lat="42.83679" lon="0.50335">
        <ele>1930</ele>
        <time>2020-02-01T12:06:53.000Z</time>
      </trkpt>
      <trkpt lat="42.8368" lon="0.50334">
        <ele>1930</ele>
        <time>2020-02-01T12:06:54.000Z</time>
      </trkpt>
      <trkpt lat="42.8368" lon="0.50332">
        <ele>1930</ele>
        <time>2020-02-01T12:06:55.000Z</time>
      </trkpt>
      <trkpt lat="42.8368" lon="0.50331">
        <ele>1930</ele>
        <time>2020-02-01T12:06:56.000Z</time>
      </trkpt>
      <trkpt lat="42.8368" lon="0.5033">
        <ele>1929.7</ele>
        <time>2020-02-01T12:06:57.000Z</time>
      </trkpt>
      <trkpt lat="42.8368" lon="0.50329">
        <ele>1929.3</ele>
        <time>2020-02-01T12:06:58.000Z</time>
      </trkpt>
      <trkpt lat="42.8368" lon="0.50327">
        <ele>1929</ele>
        <time>2020-02-01T12:06:59.000Z</time>
      </trkpt>
      <trkpt lat="42.8368" lon="0.50326">
        <ele>1929</ele>
        <time>2020-02-01T12:07:00.000Z</time>
      </trkpt>
      <trkpt lat="42.8368" lon="0.50325">
        <ele>1929</ele>
        <time>2020-02-01T12:07:01.000Z</time>
      </trkpt>
      <trkpt lat="42.8368" lon="0.50323">
        <ele>1929</ele>
        <time>2020-02-01T12:07:02.000Z</time>
      </trkpt>
      <trkpt lat="42.8368" lon="0.50322">
        <ele>1928.7</ele>
        <time>2020-02-01T12:07:03.000Z</time>
      </trkpt>
      <trkpt lat="42.8368" lon="0.50321">
        <ele>1928.3</ele>
        <time>2020-02-01T12:07:04.000Z</time>
      </trkpt>
      <trkpt lat="42.8368" lon="0.5032">
        <ele>1928</ele>
        <time>2020-02-01T12:07:05.000Z</time>
      </trkpt>
      <trkpt lat="42.83681" lon="0.50318">
        <ele>1928</ele>
        <time>2020-02-01T12:07:06.000Z</time>
      </trkpt>
      <trkpt lat="42.83681" lon="0.50317">
        <ele>1928</ele>
        <time>2020-02-01T12:07:07.000Z</time>
      </trkpt>
      <trkpt lat="42.83681" lon="0.50316">
        <ele>1928</ele>
        <time>2020-02-01T12:07:08.000Z</time>
      </trkpt>
      <trkpt lat="42.83681" lon="0.50315">
        <ele>1928</ele>
        <time>2020-02-01T12:07:09.000Z</time>
      </trkpt>
      <trkpt lat="42.83681" lon="0.50313">
        <ele>1928</ele>
        <time>2020-02-01T12:07:10.000Z</time>
      </trkpt>
      <trkpt lat="42.83681" lon="0.50312">
        <ele>1928</ele>
        <time>2020-02-01T12:07:11.000Z</time>
      </trkpt>
      <trkpt lat="42.83681" lon="0.50311">
        <ele>1928</ele>
        <time>2020-02-01T12:07:12.000Z</time>
      </trkpt>
      <trkpt lat="42.83682" lon="0.5031">
        <ele>1927.5</ele>
        <time>2020-02-01T12:07:13.000Z</time>
      </trkpt>
      <trkpt lat="42.83682" lon="0.50309">
        <ele>1927</ele>
        <time>2020-02-01T12:07:14.000Z</time>
      </trkpt>
      <trkpt lat="42.83682" lon="0.50308">
        <ele>1927</ele>
        <time>2020-02-01T12:07:15.000Z</time>
      </trkpt>
      <trkpt lat="42.83682" lon="0.50307">
        <ele>1927</ele>
        <time>2020-02-01T12:07:16.000Z</time>
      </trkpt>
      <trkpt lat="42.83682" lon="0.50305">
        <ele>1927</ele>
        <time>2020-02-01T12:07:17.000Z</time>
      </trkpt>
      <trkpt lat="42.83683" lon="0.50304">
        <ele>1927</ele>
        <time>2020-02-01T12:07:18.000Z</time>
      </trkpt>
      <trkpt lat="42.83683" lon="0.50303">
        <ele>1927</ele>
        <time>2020-02-01T12:07:19.000Z</time>
      </trkpt>
      <trkpt lat="42.83683" lon="0.50301">
        <ele>1927</ele>
        <time>2020-02-01T12:07:20.000Z</time>
      </trkpt>
      <trkpt lat="42.83683" lon="0.503">
        <ele>1927</ele>
        <time>2020-02-01T12:07:21.000Z</time>
      </trkpt>
      <trkpt lat="42.83683" lon="0.50298">
        <ele>1926.5</ele>
        <time>2020-02-01T12:07:22.000Z</time>
      </trkpt>
      <trkpt lat="42.83683" lon="0.50296">
        <ele>1926</ele>
        <time>2020-02-01T12:07:23.000Z</time>
      </trkpt>
      <trkpt lat="42.83683" lon="0.50295">
        <ele>1926</ele>
        <time>2020-02-01T12:07:24.000Z</time>
      </trkpt>
      <trkpt lat="42.83683" lon="0.50293">
        <ele>1926</ele>
        <time>2020-02-01T12:07:25.000Z</time>
      </trkpt>
      <trkpt lat="42.83683" lon="0.50291">
        <ele>1926</ele>
        <time>2020-02-01T12:07:26.000Z</time>
      </trkpt>
      <trkpt lat="42.83683" lon="0.5029">
        <ele>1926</ele>
        <time>2020-02-01T12:07:27.000Z</time>
      </trkpt>
      <trkpt lat="42.83684" lon="0.50288">
        <ele>1926</ele>
        <time>2020-02-01T12:07:28.000Z</time>
      </trkpt>
      <trkpt lat="42.83684" lon="0.50286">
        <ele>1925.7</ele>
        <time>2020-02-01T12:07:29.000Z</time>
      </trkpt>
      <trkpt lat="42.83684" lon="0.50285">
        <ele>1925.3</ele>
        <time>2020-02-01T12:07:30.000Z</time>
      </trkpt>
      <trkpt lat="42.83685" lon="0.50283">
        <ele>1925</ele>
        <time>2020-02-01T12:07:31.000Z</time>
      </trkpt>
      <trkpt lat="42.83685" lon="0.50282">
        <ele>1925</ele>
        <time>2020-02-01T12:07:32.000Z</time>
      </trkpt>
      <trkpt lat="42.83685" lon="0.5028">
        <ele>1925</ele>
        <time>2020-02-01T12:07:33.000Z</time>
      </trkpt>
      <trkpt lat="42.83685" lon="0.50278">
        <ele>1925</ele>
        <time>2020-02-01T12:07:34.000Z</time>
      </trkpt>
      <trkpt lat="42.83685" lon="0.50277">
        <ele>1924.5</ele>
        <time>2020-02-01T12:07:35.000Z</time>
      </trkpt>
      <trkpt lat="42.83685" lon="0.50275">
        <ele>1924</ele>
        <time>2020-02-01T12:07:36.000Z</time>
      </trkpt>
      <trkpt lat="42.83685" lon="0.50274">
        <ele>1924</ele>
        <time>2020-02-01T12:07:37.000Z</time>
      </trkpt>
      <trkpt lat="42.83685" lon="0.50272">
        <ele>1924</ele>
        <time>2020-02-01T12:07:38.000Z</time>
      </trkpt>
      <trkpt lat="42.83685" lon="0.50271">
        <ele>1924</ele>
        <time>2020-02-01T12:07:39.000Z</time>
      </trkpt>
      <trkpt lat="42.83685" lon="0.50269">
        <ele>1924</ele>
        <time>2020-02-01T12:07:40.000Z</time>
      </trkpt>
      <trkpt lat="42.83686" lon="0.50268">
        <ele>1923.7</ele>
        <time>2020-02-01T12:07:41.000Z</time>
      </trkpt>
      <trkpt lat="42.83686" lon="0.50266">
        <ele>1923.3</ele>
        <time>2020-02-01T12:07:42.000Z</time>
      </trkpt>
      <trkpt lat="42.83686" lon="0.50265">
        <ele>1923</ele>
        <time>2020-02-01T12:07:43.000Z</time>
      </trkpt>
      <trkpt lat="42.83686" lon="0.50263">
        <ele>1923</ele>
        <time>2020-02-01T12:07:44.000Z</time>
      </trkpt>
      <trkpt lat="42.83686" lon="0.50262">
        <ele>1923</ele>
        <time>2020-02-01T12:07:45.000Z</time>
      </trkpt>
      <trkpt lat="42.83686" lon="0.5026">
        <ele>1923</ele>
        <time>2020-02-01T12:07:46.000Z</time>
      </trkpt>
      <trkpt lat="42.83687" lon="0.50259">
        <ele>1923</ele>
        <time>2020-02-01T12:07:47.000Z</time>
      </trkpt>
      <trkpt lat="42.83687" lon="0.50257">
        <ele>1922.5</ele>
        <time>2020-02-01T12:07:48.000Z</time>
      </trkpt>
      <trkpt lat="42.83687" lon="0.50256">
        <ele>1922</ele>
        <time>2020-02-01T12:07:49.000Z</time>
      </trkpt>
      <trkpt lat="42.83687" lon="0.50254">
        <ele>1922</ele>
        <time>2020-02-01T12:07:50.000Z</time>
      </trkpt>
      <trkpt lat="42.83687" lon="0.50253">
        <ele>1922</ele>
        <time>2020-02-01T12:07:51.000Z</time>
      </trkpt>
      <trkpt lat="42.83687" lon="0.50251">
        <ele>1922</ele>
        <time>2020-02-01T12:07:52.000Z</time>
      </trkpt>
      <trkpt lat="42.83688" lon="0.5025">
        <ele>1922</ele>
        <time>2020-02-01T12:07:53.000Z</time>
      </trkpt>
      <trkpt lat="42.83688" lon="0.50249">
        <ele>1921.5</ele>
        <time>2020-02-01T12:07:54.000Z</time>
      </trkpt>
      <trkpt lat="42.83688" lon="0.50247">
        <ele>1921</ele>
        <time>2020-02-01T12:07:55.000Z</time>
      </trkpt>
      <trkpt lat="42.83688" lon="0.50246">
        <ele>1921</ele>
        <time>2020-02-01T12:07:56.000Z</time>
      </trkpt>
      <trkpt lat="42.83688" lon="0.50245">
        <ele>1921</ele>
        <time>2020-02-01T12:07:57.000Z</time>
      </trkpt>
      <trkpt lat="42.83689" lon="0.50243">
        <ele>1921</ele>
        <time>2020-02-01T12:07:58.000Z</time>
      </trkpt>
      <trkpt lat="42.83689" lon="0.50242">
        <ele>1921</ele>
        <time>2020-02-01T12:07:59.000Z</time>
      </trkpt>
      <trkpt lat="42.83689" lon="0.50241">
        <ele>1921</ele>
        <time>2020-02-01T12:08:00.000Z</time>
      </trkpt>
      <trkpt lat="42.83689" lon="0.50239">
        <ele>1921</ele>
        <time>2020-02-01T12:08:01.000Z</time>
      </trkpt>
      <trkpt lat="42.8369" lon="0.50238">
        <ele>1921</ele>
        <time>2020-02-01T12:08:02.000Z</time>
      </trkpt>
      <trkpt lat="42.8369" lon="0.50237">
        <ele>1921</ele>
        <time>2020-02-01T12:08:03.000Z</time>
      </trkpt>
      <trkpt lat="42.83691" lon="0.50235">
        <ele>1920</ele>
        <time>2020-02-01T12:08:04.000Z</time>
      </trkpt>
      <trkpt lat="42.83691" lon="0.50234">
        <ele>1920</ele>
        <time>2020-02-01T12:08:05.000Z</time>
      </trkpt>
      <trkpt lat="42.83691" lon="0.50232">
        <ele>1920</ele>
        <time>2020-02-01T12:08:06.000Z</time>
      </trkpt>
      <trkpt lat="42.83692" lon="0.50231">
        <ele>1920</ele>
        <time>2020-02-01T12:08:07.000Z</time>
      </trkpt>
      <trkpt lat="42.83692" lon="0.50229">
        <ele>1920</ele>
        <time>2020-02-01T12:08:08.000Z</time>
      </trkpt>
      <trkpt lat="42.83693" lon="0.50228">
        <ele>1920</ele>
        <time>2020-02-01T12:08:09.000Z</time>
      </trkpt>
      <trkpt lat="42.83693" lon="0.50226">
        <ele>1920</ele>
        <time>2020-02-01T12:08:10.000Z</time>
      </trkpt>
      <trkpt lat="42.83693" lon="0.50224">
        <ele>1920</ele>
        <time>2020-02-01T12:08:11.000Z</time>
      </trkpt>
      <trkpt lat="42.83694" lon="0.50222">
        <ele>1919.5</ele>
        <time>2020-02-01T12:08:12.000Z</time>
      </trkpt>
      <trkpt lat="42.83694" lon="0.50221">
        <ele>1919</ele>
        <time>2020-02-01T12:08:13.000Z</time>
      </trkpt>
      <trkpt lat="42.83694" lon="0.50219">
        <ele>1919</ele>
        <time>2020-02-01T12:08:14.000Z</time>
      </trkpt>
      <trkpt lat="42.83695" lon="0.50217">
        <ele>1919</ele>
        <time>2020-02-01T12:08:15.000Z</time>
      </trkpt>
      <trkpt lat="42.83695" lon="0.50215">
        <ele>1919</ele>
        <time>2020-02-01T12:08:16.000Z</time>
      </trkpt>
      <trkpt lat="42.83695" lon="0.50213">
        <ele>1919</ele>
        <time>2020-02-01T12:08:17.000Z</time>
      </trkpt>
      <trkpt lat="42.83696" lon="0.50212">
        <ele>1919</ele>
        <time>2020-02-01T12:08:18.000Z</time>
      </trkpt>
      <trkpt lat="42.83696" lon="0.5021">
        <ele>1919</ele>
        <time>2020-02-01T12:08:19.000Z</time>
      </trkpt>
      <trkpt lat="42.83697" lon="0.50209">
        <ele>1918.5</ele>
        <time>2020-02-01T12:08:20.000Z</time>
      </trkpt>
      <trkpt lat="42.83697" lon="0.50207">
        <ele>1918</ele>
        <time>2020-02-01T12:08:21.000Z</time>
      </trkpt>
      <trkpt lat="42.83697" lon="0.50206">
        <ele>1918</ele>
        <time>2020-02-01T12:08:22.000Z</time>
      </trkpt>
      <trkpt lat="42.83698" lon="0.50205">
        <ele>1918</ele>
        <time>2020-02-01T12:08:23.000Z</time>
      </trkpt>
      <trkpt lat="42.83698" lon="0.50203">
        <ele>1918</ele>
        <time>2020-02-01T12:08:24.000Z</time>
      </trkpt>
      <trkpt lat="42.83699" lon="0.50202">
        <ele>1918</ele>
        <time>2020-02-01T12:08:25.000Z</time>
      </trkpt>
      <trkpt lat="42.83699" lon="0.50201">
        <ele>1917.5</ele>
        <time>2020-02-01T12:08:26.000Z</time>
      </trkpt>
      <trkpt lat="42.83699" lon="0.50199">
        <ele>1917</ele>
        <time>2020-02-01T12:08:27.000Z</time>
      </trkpt>
      <trkpt lat="42.837" lon="0.50198">
        <ele>1917</ele>
        <time>2020-02-01T12:08:28.000Z</time>
      </trkpt>
      <trkpt lat="42.837" lon="0.50196">
        <ele>1917</ele>
        <time>2020-02-01T12:08:29.000Z</time>
      </trkpt>
      <trkpt lat="42.83701" lon="0.50194">
        <ele>1917</ele>
        <time>2020-02-01T12:08:30.000Z</time>
      </trkpt>
      <trkpt lat="42.83701" lon="0.50193">
        <ele>1917</ele>
        <time>2020-02-01T12:08:31.000Z</time>
      </trkpt>
      <trkpt lat="42.83702" lon="0.50191">
        <ele>1917</ele>
        <time>2020-02-01T12:08:32.000Z</time>
      </trkpt>
      <trkpt lat="42.83702" lon="0.50189">
        <ele>1917</ele>
        <time>2020-02-01T12:08:33.000Z</time>
      </trkpt>
      <trkpt lat="42.83702" lon="0.50187">
        <ele>1917</ele>
        <time>2020-02-01T12:08:34.000Z</time>
      </trkpt>
      <trkpt lat="42.83703" lon="0.50186">
        <ele>1917</ele>
        <time>2020-02-01T12:08:35.000Z</time>
      </trkpt>
      <trkpt lat="42.83703" lon="0.50184">
        <ele>1917</ele>
        <time>2020-02-01T12:08:36.000Z</time>
      </trkpt>
      <trkpt lat="42.83703" lon="0.50182">
        <ele>1917</ele>
        <time>2020-02-01T12:08:37.000Z</time>
      </trkpt>
      <trkpt lat="42.83703" lon="0.50181">
        <ele>1917</ele>
        <time>2020-02-01T12:08:38.000Z</time>
      </trkpt>
      <trkpt lat="42.83703" lon="0.50179">
        <ele>1917</ele>
        <time>2020-02-01T12:08:39.000Z</time>
      </trkpt>
      <trkpt lat="42.83704" lon="0.50178">
        <ele>1916</ele>
        <time>2020-02-01T12:08:40.000Z</time>
      </trkpt>
      <trkpt lat="42.83704" lon="0.50176">
        <ele>1916</ele>
        <time>2020-02-01T12:08:41.000Z</time>
      </trkpt>
      <trkpt lat="42.83704" lon="0.50175">
        <ele>1916</ele>
        <time>2020-02-01T12:08:42.000Z</time>
      </trkpt>
      <trkpt lat="42.83704" lon="0.50173">
        <ele>1916</ele>
        <time>2020-02-01T12:08:43.000Z</time>
      </trkpt>
      <trkpt lat="42.83704" lon="0.50172">
        <ele>1916</ele>
        <time>2020-02-01T12:08:44.000Z</time>
      </trkpt>
      <trkpt lat="42.83704" lon="0.50171">
        <ele>1916</ele>
        <time>2020-02-01T12:08:45.000Z</time>
      </trkpt>
      <trkpt lat="42.83704" lon="0.50169">
        <ele>1916</ele>
        <time>2020-02-01T12:08:46.000Z</time>
      </trkpt>
      <trkpt lat="42.83705" lon="0.50168">
        <ele>1916</ele>
        <time>2020-02-01T12:08:47.000Z</time>
      </trkpt>
      <trkpt lat="42.83705" lon="0.50166">
        <ele>1916</ele>
        <time>2020-02-01T12:08:48.000Z</time>
      </trkpt>
      <trkpt lat="42.83705" lon="0.50165">
        <ele>1916</ele>
        <time>2020-02-01T12:08:49.000Z</time>
      </trkpt>
      <trkpt lat="42.83705" lon="0.50163">
        <ele>1915.5</ele>
        <time>2020-02-01T12:08:50.000Z</time>
      </trkpt>
      <trkpt lat="42.83705" lon="0.50162">
        <ele>1915</ele>
        <time>2020-02-01T12:08:51.000Z</time>
      </trkpt>
      <trkpt lat="42.83706" lon="0.50161">
        <ele>1915</ele>
        <time>2020-02-01T12:08:52.000Z</time>
      </trkpt>
      <trkpt lat="42.83706" lon="0.50159">
        <ele>1915</ele>
        <time>2020-02-01T12:08:53.000Z</time>
      </trkpt>
      <trkpt lat="42.83706" lon="0.50158">
        <ele>1915</ele>
        <time>2020-02-01T12:08:54.000Z</time>
      </trkpt>
      <trkpt lat="42.83706" lon="0.50156">
        <ele>1915</ele>
        <time>2020-02-01T12:08:55.000Z</time>
      </trkpt>
      <trkpt lat="42.83707" lon="0.50155">
        <ele>1915</ele>
        <time>2020-02-01T12:08:56.000Z</time>
      </trkpt>
      <trkpt lat="42.83707" lon="0.50154">
        <ele>1915</ele>
        <time>2020-02-01T12:08:57.000Z</time>
      </trkpt>
      <trkpt lat="42.83707" lon="0.50152">
        <ele>1915</ele>
        <time>2020-02-01T12:08:58.000Z</time>
      </trkpt>
      <trkpt lat="42.83707" lon="0.50151">
        <ele>1915</ele>
        <time>2020-02-01T12:08:59.000Z</time>
      </trkpt>
      <trkpt lat="42.83708" lon="0.5015">
        <ele>1915</ele>
        <time>2020-02-01T12:09:00.000Z</time>
      </trkpt>
      <trkpt lat="42.83708" lon="0.50148">
        <ele>1915</ele>
        <time>2020-02-01T12:09:01.000Z</time>
      </trkpt>
      <trkpt lat="42.83708" lon="0.50147">
        <ele>1915</ele>
        <time>2020-02-01T12:09:02.000Z</time>
      </trkpt>
      <trkpt lat="42.83709" lon="0.50146">
        <ele>1914.7</ele>
        <time>2020-02-01T12:09:03.000Z</time>
      </trkpt>
      <trkpt lat="42.83709" lon="0.50144">
        <ele>1914.3</ele>
        <time>2020-02-01T12:09:04.000Z</time>
      </trkpt>
      <trkpt lat="42.83709" lon="0.50143">
        <ele>1914</ele>
        <time>2020-02-01T12:09:05.000Z</time>
      </trkpt>
      <trkpt lat="42.8371" lon="0.50142">
        <ele>1914</ele>
        <time>2020-02-01T12:09:06.000Z</time>
      </trkpt>
      <trkpt lat="42.8371" lon="0.5014">
        <ele>1914</ele>
        <time>2020-02-01T12:09:07.000Z</time>
      </trkpt>
      <trkpt lat="42.8371" lon="0.50139">
        <ele>1914</ele>
        <time>2020-02-01T12:09:08.000Z</time>
      </trkpt>
      <trkpt lat="42.8371" lon="0.50138">
        <ele>1914</ele>
        <time>2020-02-01T12:09:09.000Z</time>
      </trkpt>
      <trkpt lat="42.83711" lon="0.50136">
        <ele>1914</ele>
        <time>2020-02-01T12:09:10.000Z</time>
      </trkpt>
      <trkpt lat="42.83711" lon="0.50135">
        <ele>1914</ele>
        <time>2020-02-01T12:09:11.000Z</time>
      </trkpt>
      <trkpt lat="42.83711" lon="0.50134">
        <ele>1914</ele>
        <time>2020-02-01T12:09:12.000Z</time>
      </trkpt>
      <trkpt lat="42.83711" lon="0.50132">
        <ele>1914</ele>
        <time>2020-02-01T12:09:13.000Z</time>
      </trkpt>
      <trkpt lat="42.83712" lon="0.50131">
        <ele>1914</ele>
        <time>2020-02-01T12:09:14.000Z</time>
      </trkpt>
      <trkpt lat="42.83712" lon="0.50129">
        <ele>1914</ele>
        <time>2020-02-01T12:09:15.000Z</time>
      </trkpt>
      <trkpt lat="42.83712" lon="0.50128">
        <ele>1914</ele>
        <time>2020-02-01T12:09:16.000Z</time>
      </trkpt>
      <trkpt lat="42.83713" lon="0.50126">
        <ele>1914</ele>
        <time>2020-02-01T12:09:17.000Z</time>
      </trkpt>
      <trkpt lat="42.83713" lon="0.50124">
        <ele>1914</ele>
        <time>2020-02-01T12:09:18.000Z</time>
      </trkpt>
      <trkpt lat="42.83713" lon="0.50123">
        <ele>1914</ele>
        <time>2020-02-01T12:09:19.000Z</time>
      </trkpt>
      <trkpt lat="42.83714" lon="0.50121">
        <ele>1914</ele>
        <time>2020-02-01T12:09:20.000Z</time>
      </trkpt>
      <trkpt lat="42.83714" lon="0.5012">
        <ele>1914</ele>
        <time>2020-02-01T12:09:21.000Z</time>
      </trkpt>
      <trkpt lat="42.83714" lon="0.50118">
        <ele>1914</ele>
        <time>2020-02-01T12:09:22.000Z</time>
      </trkpt>
      <trkpt lat="42.83714" lon="0.50117">
        <ele>1914</ele>
        <time>2020-02-01T12:09:23.000Z</time>
      </trkpt>
      <trkpt lat="42.83715" lon="0.50115">
        <ele>1914</ele>
        <time>2020-02-01T12:09:24.000Z</time>
      </trkpt>
      <trkpt lat="42.83715" lon="0.50114">
        <ele>1914</ele>
        <time>2020-02-01T12:09:25.000Z</time>
      </trkpt>
      <trkpt lat="42.83715" lon="0.50112">
        <ele>1914</ele>
        <time>2020-02-01T12:09:26.000Z</time>
      </trkpt>
      <trkpt lat="42.83715" lon="0.50111">
        <ele>1914</ele>
        <time>2020-02-01T12:09:27.000Z</time>
      </trkpt>
      <trkpt lat="42.83715" lon="0.50109">
        <ele>1914</ele>
        <time>2020-02-01T12:09:28.000Z</time>
      </trkpt>
      <trkpt lat="42.83715" lon="0.50108">
        <ele>1914</ele>
        <time>2020-02-01T12:09:29.000Z</time>
      </trkpt>
      <trkpt lat="42.83716" lon="0.50106">
        <ele>1914</ele>
        <time>2020-02-01T12:09:30.000Z</time>
      </trkpt>
      <trkpt lat="42.83716" lon="0.50105">
        <ele>1914</ele>
        <time>2020-02-01T12:09:31.000Z</time>
      </trkpt>
      <trkpt lat="42.83716" lon="0.50103">
        <ele>1914</ele>
        <time>2020-02-01T12:09:32.000Z</time>
      </trkpt>
      <trkpt lat="42.83716" lon="0.50102">
        <ele>1914</ele>
        <time>2020-02-01T12:09:33.000Z</time>
      </trkpt>
      <trkpt lat="42.83717" lon="0.501">
        <ele>1914</ele>
        <time>2020-02-01T12:09:34.000Z</time>
      </trkpt>
      <trkpt lat="42.83717" lon="0.50099">
        <ele>1914</ele>
        <time>2020-02-01T12:09:35.000Z</time>
      </trkpt>
      <trkpt lat="42.83717" lon="0.50097">
        <ele>1914</ele>
        <time>2020-02-01T12:09:36.000Z</time>
      </trkpt>
      <trkpt lat="42.83717" lon="0.50096">
        <ele>1914</ele>
        <time>2020-02-01T12:09:37.000Z</time>
      </trkpt>
      <trkpt lat="42.83717" lon="0.50094">
        <ele>1914</ele>
        <time>2020-02-01T12:09:38.000Z</time>
      </trkpt>
      <trkpt lat="42.83717" lon="0.50093">
        <ele>1914</ele>
        <time>2020-02-01T12:09:39.000Z</time>
      </trkpt>
      <trkpt lat="42.83717" lon="0.50091">
        <ele>1914</ele>
        <time>2020-02-01T12:09:40.000Z</time>
      </trkpt>
      <trkpt lat="42.83718" lon="0.5009">
        <ele>1914</ele>
        <time>2020-02-01T12:09:41.000Z</time>
      </trkpt>
      <trkpt lat="42.83718" lon="0.50088">
        <ele>1913.5</ele>
        <time>2020-02-01T12:09:42.000Z</time>
      </trkpt>
      <trkpt lat="42.83718" lon="0.50087">
        <ele>1913</ele>
        <time>2020-02-01T12:09:43.000Z</time>
      </trkpt>
      <trkpt lat="42.83718" lon="0.50085">
        <ele>1913</ele>
        <time>2020-02-01T12:09:44.000Z</time>
      </trkpt>
      <trkpt lat="42.83718" lon="0.50084">
        <ele>1913</ele>
        <time>2020-02-01T12:09:45.000Z</time>
      </trkpt>
      <trkpt lat="42.83718" lon="0.50082">
        <ele>1913</ele>
        <time>2020-02-01T12:09:46.000Z</time>
      </trkpt>
      <trkpt lat="42.83718" lon="0.50081">
        <ele>1913</ele>
        <time>2020-02-01T12:09:47.000Z</time>
      </trkpt>
      <trkpt lat="42.83718" lon="0.50079">
        <ele>1913</ele>
        <time>2020-02-01T12:09:48.000Z</time>
      </trkpt>
      <trkpt lat="42.83718" lon="0.50078">
        <ele>1913</ele>
        <time>2020-02-01T12:09:49.000Z</time>
      </trkpt>
      <trkpt lat="42.83719" lon="0.50076">
        <ele>1913</ele>
        <time>2020-02-01T12:09:50.000Z</time>
      </trkpt>
      <trkpt lat="42.83719" lon="0.50075">
        <ele>1913</ele>
        <time>2020-02-01T12:09:51.000Z</time>
      </trkpt>
      <trkpt lat="42.83719" lon="0.50074">
        <ele>1913</ele>
        <time>2020-02-01T12:09:52.000Z</time>
      </trkpt>
      <trkpt lat="42.83719" lon="0.50072">
        <ele>1913</ele>
        <time>2020-02-01T12:09:53.000Z</time>
      </trkpt>
      <trkpt lat="42.83719" lon="0.50071">
        <ele>1913</ele>
        <time>2020-02-01T12:09:54.000Z</time>
      </trkpt>
      <trkpt lat="42.8372" lon="0.50069">
        <ele>1913</ele>
        <time>2020-02-01T12:09:55.000Z</time>
      </trkpt>
      <trkpt lat="42.8372" lon="0.50068">
        <ele>1913</ele>
        <time>2020-02-01T12:09:56.000Z</time>
      </trkpt>
      <trkpt lat="42.8372" lon="0.50066">
        <ele>1913</ele>
        <time>2020-02-01T12:09:57.000Z</time>
      </trkpt>
      <trkpt lat="42.8372" lon="0.50064">
        <ele>1912.5</ele>
        <time>2020-02-01T12:09:58.000Z</time>
      </trkpt>
      <trkpt lat="42.8372" lon="0.50062">
        <ele>1912</ele>
        <time>2020-02-01T12:09:59.000Z</time>
      </trkpt>
      <trkpt lat="42.8372" lon="0.50061">
        <ele>1912</ele>
        <time>2020-02-01T12:10:00.000Z</time>
      </trkpt>
      <trkpt lat="42.8372" lon="0.50059">
        <ele>1912.3</ele>
        <time>2020-02-01T12:10:01.000Z</time>
      </trkpt>
      <trkpt lat="42.8372" lon="0.50058">
        <ele>1912.7</ele>
        <time>2020-02-01T12:10:02.000Z</time>
      </trkpt>
      <trkpt lat="42.8372" lon="0.50056">
        <ele>1913</ele>
        <time>2020-02-01T12:10:03.000Z</time>
      </trkpt>
      <trkpt lat="42.8372" lon="0.50055">
        <ele>1913</ele>
        <time>2020-02-01T12:10:04.000Z</time>
      </trkpt>
      <trkpt lat="42.8372" lon="0.50054">
        <ele>1913</ele>
        <time>2020-02-01T12:10:05.000Z</time>
      </trkpt>
      <trkpt lat="42.8372" lon="0.50052">
        <ele>1913</ele>
        <time>2020-02-01T12:10:06.000Z</time>
      </trkpt>
      <trkpt lat="42.8372" lon="0.5005">
        <ele>1913</ele>
        <time>2020-02-01T12:10:07.000Z</time>
      </trkpt>
      <trkpt lat="42.8372" lon="0.50049">
        <ele>1913</ele>
        <time>2020-02-01T12:10:08.000Z</time>
      </trkpt>
      <trkpt lat="42.8372" lon="0.50048">
        <ele>1913</ele>
        <time>2020-02-01T12:10:09.000Z</time>
      </trkpt>
      <trkpt lat="42.8372" lon="0.50047">
        <ele>1913</ele>
        <time>2020-02-01T12:10:10.000Z</time>
      </trkpt>
      <trkpt lat="42.8372" lon="0.50046">
        <ele>1913</ele>
        <time>2020-02-01T12:10:11.000Z</time>
      </trkpt>
      <trkpt lat="42.8372" lon="0.50044">
        <ele>1913</ele>
        <time>2020-02-01T12:10:12.000Z</time>
      </trkpt>
      <trkpt lat="42.8372" lon="0.50043">
        <ele>1913</ele>
        <time>2020-02-01T12:10:13.000Z</time>
      </trkpt>
      <trkpt lat="42.8372" lon="0.50041">
        <ele>1913</ele>
        <time>2020-02-01T12:10:14.000Z</time>
      </trkpt>
      <trkpt lat="42.8372" lon="0.5004">
        <ele>1913</ele>
        <time>2020-02-01T12:10:15.000Z</time>
      </trkpt>
      <trkpt lat="42.83721" lon="0.50038">
        <ele>1913</ele>
        <time>2020-02-01T12:10:16.000Z</time>
      </trkpt>
      <trkpt lat="42.83721" lon="0.50037">
        <ele>1913</ele>
        <time>2020-02-01T12:10:17.000Z</time>
      </trkpt>
      <trkpt lat="42.83721" lon="0.50036">
        <ele>1913</ele>
        <time>2020-02-01T12:10:18.000Z</time>
      </trkpt>
      <trkpt lat="42.83721" lon="0.50034">
        <ele>1913</ele>
        <time>2020-02-01T12:10:19.000Z</time>
      </trkpt>
      <trkpt lat="42.83721" lon="0.50033">
        <ele>1913</ele>
        <time>2020-02-01T12:10:20.000Z</time>
      </trkpt>
      <trkpt lat="42.83722" lon="0.50032">
        <ele>1913</ele>
        <time>2020-02-01T12:10:21.000Z</time>
      </trkpt>
      <trkpt lat="42.83722" lon="0.5003">
        <ele>1913</ele>
        <time>2020-02-01T12:10:22.000Z</time>
      </trkpt>
      <trkpt lat="42.83722" lon="0.50029">
        <ele>1913</ele>
        <time>2020-02-01T12:10:23.000Z</time>
      </trkpt>
      <trkpt lat="42.83722" lon="0.50027">
        <ele>1913</ele>
        <time>2020-02-01T12:10:24.000Z</time>
      </trkpt>
      <trkpt lat="42.83722" lon="0.50026">
        <ele>1913</ele>
        <time>2020-02-01T12:10:25.000Z</time>
      </trkpt>
      <trkpt lat="42.83722" lon="0.50024">
        <ele>1913</ele>
        <time>2020-02-01T12:10:26.000Z</time>
      </trkpt>
      <trkpt lat="42.83722" lon="0.50023">
        <ele>1913</ele>
        <time>2020-02-01T12:10:27.000Z</time>
      </trkpt>
      <trkpt lat="42.83722" lon="0.50021">
        <ele>1913</ele>
        <time>2020-02-01T12:10:28.000Z</time>
      </trkpt>
      <trkpt lat="42.83722" lon="0.5002">
        <ele>1913</ele>
        <time>2020-02-01T12:10:29.000Z</time>
      </trkpt>
      <trkpt lat="42.83722" lon="0.50019">
        <ele>1913</ele>
        <time>2020-02-01T12:10:30.000Z</time>
      </trkpt>
      <trkpt lat="42.83722" lon="0.50017">
        <ele>1913</ele>
        <time>2020-02-01T12:10:31.000Z</time>
      </trkpt>
      <trkpt lat="42.83722" lon="0.50016">
        <ele>1913</ele>
        <time>2020-02-01T12:10:32.000Z</time>
      </trkpt>
      <trkpt lat="42.83722" lon="0.50015">
        <ele>1913</ele>
        <time>2020-02-01T12:10:33.000Z</time>
      </trkpt>
      <trkpt lat="42.83723" lon="0.50014">
        <ele>1913</ele>
        <time>2020-02-01T12:10:34.000Z</time>
      </trkpt>
      <trkpt lat="42.83723" lon="0.50012">
        <ele>1913</ele>
        <time>2020-02-01T12:10:35.000Z</time>
      </trkpt>
      <trkpt lat="42.83723" lon="0.50011">
        <ele>1913</ele>
        <time>2020-02-01T12:10:36.000Z</time>
      </trkpt>
      <trkpt lat="42.83724" lon="0.5001">
        <ele>1913</ele>
        <time>2020-02-01T12:10:37.000Z</time>
      </trkpt>
      <trkpt lat="42.83724" lon="0.50009">
        <ele>1913</ele>
        <time>2020-02-01T12:10:38.000Z</time>
      </trkpt>
      <trkpt lat="42.83725" lon="0.50007">
        <ele>1913</ele>
        <time>2020-02-01T12:10:39.000Z</time>
      </trkpt>
      <trkpt lat="42.83725" lon="0.50006">
        <ele>1913</ele>
        <time>2020-02-01T12:10:40.000Z</time>
      </trkpt>
      <trkpt lat="42.83725" lon="0.50005">
        <ele>1913</ele>
        <time>2020-02-01T12:10:41.000Z</time>
      </trkpt>
      <trkpt lat="42.83725" lon="0.50004">
        <ele>1914</ele>
        <time>2020-02-01T12:10:42.000Z</time>
      </trkpt>
      <trkpt lat="42.83726" lon="0.50003">
        <ele>1914</ele>
        <time>2020-02-01T12:10:43.000Z</time>
      </trkpt>
      <trkpt lat="42.83726" lon="0.50002">
        <ele>1914</ele>
        <time>2020-02-01T12:10:44.000Z</time>
      </trkpt>
      <trkpt lat="42.83726" lon="0.5">
        <ele>1914</ele>
        <time>2020-02-01T12:10:45.000Z</time>
      </trkpt>
      <trkpt lat="42.83726" lon="0.49999">
        <ele>1914</ele>
        <time>2020-02-01T12:10:46.000Z</time>
      </trkpt>
      <trkpt lat="42.83727" lon="0.49998">
        <ele>1914</ele>
        <time>2020-02-01T12:10:47.000Z</time>
      </trkpt>
      <trkpt lat="42.83727" lon="0.49996">
        <ele>1914</ele>
        <time>2020-02-01T12:10:48.000Z</time>
      </trkpt>
      <trkpt lat="42.83728" lon="0.49995">
        <ele>1914</ele>
        <time>2020-02-01T12:10:49.000Z</time>
      </trkpt>
      <trkpt lat="42.83728" lon="0.49994">
        <ele>1914</ele>
        <time>2020-02-01T12:10:50.000Z</time>
      </trkpt>
      <trkpt lat="42.83729" lon="0.49993">
        <ele>1914</ele>
        <time>2020-02-01T12:10:51.000Z</time>
      </trkpt>
      <trkpt lat="42.83729" lon="0.49993">
        <ele>1914</ele>
        <time>2020-02-01T12:10:52.000Z</time>
      </trkpt>
      <trkpt lat="42.8373" lon="0.49992">
        <ele>1914</ele>
        <time>2020-02-01T12:10:53.000Z</time>
      </trkpt>
      <trkpt lat="42.8373" lon="0.49991">
        <ele>1914</ele>
        <time>2020-02-01T12:10:54.000Z</time>
      </trkpt>
      <trkpt lat="42.83731" lon="0.4999">
        <ele>1914</ele>
        <time>2020-02-01T12:10:55.000Z</time>
      </trkpt>
      <trkpt lat="42.83731" lon="0.49989">
        <ele>1914</ele>
        <time>2020-02-01T12:10:56.000Z</time>
      </trkpt>
      <trkpt lat="42.83732" lon="0.49988">
        <ele>1914</ele>
        <time>2020-02-01T12:10:57.000Z</time>
      </trkpt>
      <trkpt lat="42.83733" lon="0.49987">
        <ele>1914</ele>
        <time>2020-02-01T12:10:58.000Z</time>
      </trkpt>
      <trkpt lat="42.83733" lon="0.49986">
        <ele>1914</ele>
        <time>2020-02-01T12:10:59.000Z</time>
      </trkpt>
      <trkpt lat="42.83734" lon="0.49985">
        <ele>1914</ele>
        <time>2020-02-01T12:11:00.000Z</time>
      </trkpt>
      <trkpt lat="42.83734" lon="0.49984">
        <ele>1914</ele>
        <time>2020-02-01T12:11:01.000Z</time>
      </trkpt>
      <trkpt lat="42.83734" lon="0.49983">
        <ele>1914</ele>
        <time>2020-02-01T12:11:02.000Z</time>
      </trkpt>
      <trkpt lat="42.83735" lon="0.49982">
        <ele>1914</ele>
        <time>2020-02-01T12:11:03.000Z</time>
      </trkpt>
      <trkpt lat="42.83735" lon="0.49981">
        <ele>1914</ele>
        <time>2020-02-01T12:11:04.000Z</time>
      </trkpt>
      <trkpt lat="42.83736" lon="0.4998">
        <ele>1914</ele>
        <time>2020-02-01T12:11:05.000Z</time>
      </trkpt>
      <trkpt lat="42.83736" lon="0.49979">
        <ele>1914.5</ele>
        <time>2020-02-01T12:11:06.000Z</time>
      </trkpt>
      <trkpt lat="42.83736" lon="0.49979">
        <ele>1915</ele>
        <time>2020-02-01T12:11:07.000Z</time>
      </trkpt>
      <trkpt lat="42.83736" lon="0.49978">
        <ele>1915</ele>
        <time>2020-02-01T12:11:08.000Z</time>
      </trkpt>
      <trkpt lat="42.83736" lon="0.49977">
        <ele>1915</ele>
        <time>2020-02-01T12:11:09.000Z</time>
      </trkpt>
      <trkpt lat="42.83736" lon="0.49977">
        <ele>1915</ele>
        <time>2020-02-01T12:11:10.000Z</time>
      </trkpt>
      <trkpt lat="42.83736" lon="0.49976">
        <ele>1915</ele>
        <time>2020-02-01T12:11:11.000Z</time>
      </trkpt>
      <trkpt lat="42.83736" lon="0.49975">
        <ele>1915</ele>
        <time>2020-02-01T12:11:12.000Z</time>
      </trkpt>
      <trkpt lat="42.83736" lon="0.49975">
        <ele>1915</ele>
        <time>2020-02-01T12:11:13.000Z</time>
      </trkpt>
      <trkpt lat="42.83736" lon="0.49974">
        <ele>1915</ele>
        <time>2020-02-01T12:11:14.000Z</time>
      </trkpt>
      <trkpt lat="42.83736" lon="0.49973">
        <ele>1915</ele>
        <time>2020-02-01T12:11:15.000Z</time>
      </trkpt>
      <trkpt lat="42.83737" lon="0.49972">
        <ele>1915</ele>
        <time>2020-02-01T12:11:16.000Z</time>
      </trkpt>
      <trkpt lat="42.83737" lon="0.49971">
        <ele>1915</ele>
        <time>2020-02-01T12:11:17.000Z</time>
      </trkpt>
      <trkpt lat="42.83737" lon="0.4997">
        <ele>1916</ele>
        <time>2020-02-01T12:11:18.000Z</time>
      </trkpt>
      <trkpt lat="42.83738" lon="0.49969">
        <ele>1916</ele>
        <time>2020-02-01T12:11:19.000Z</time>
      </trkpt>
      <trkpt lat="42.83738" lon="0.49968">
        <ele>1916</ele>
        <time>2020-02-01T12:11:20.000Z</time>
      </trkpt>
      <trkpt lat="42.83739" lon="0.49967">
        <ele>1916</ele>
        <time>2020-02-01T12:11:21.000Z</time>
      </trkpt>
      <trkpt lat="42.83739" lon="0.49967">
        <ele>1916</ele>
        <time>2020-02-01T12:11:22.000Z</time>
      </trkpt>
      <trkpt lat="42.83739" lon="0.49966">
        <ele>1916</ele>
        <time>2020-02-01T12:11:23.000Z</time>
      </trkpt>
      <trkpt lat="42.8374" lon="0.49965">
        <ele>1916</ele>
        <time>2020-02-01T12:11:24.000Z</time>
      </trkpt>
      <trkpt lat="42.8374" lon="0.49965">
        <ele>1916</ele>
        <time>2020-02-01T12:11:25.000Z</time>
      </trkpt>
      <trkpt lat="42.8374" lon="0.49964">
        <ele>1916</ele>
        <time>2020-02-01T12:11:26.000Z</time>
      </trkpt>
      <trkpt lat="42.83741" lon="0.49963">
        <ele>1916</ele>
        <time>2020-02-01T12:11:27.000Z</time>
      </trkpt>
      <trkpt lat="42.83741" lon="0.49962">
        <ele>1916</ele>
        <time>2020-02-01T12:11:28.000Z</time>
      </trkpt>
      <trkpt lat="42.83742" lon="0.49961">
        <ele>1916</ele>
        <time>2020-02-01T12:11:29.000Z</time>
      </trkpt>
      <trkpt lat="42.83742" lon="0.4996">
        <ele>1916</ele>
        <time>2020-02-01T12:11:30.000Z</time>
      </trkpt>
      <trkpt lat="42.83743" lon="0.49959">
        <ele>1916.3</ele>
        <time>2020-02-01T12:11:31.000Z</time>
      </trkpt>
      <trkpt lat="42.83743" lon="0.49958">
        <ele>1916.7</ele>
        <time>2020-02-01T12:11:32.000Z</time>
      </trkpt>
      <trkpt lat="42.83744" lon="0.49957">
        <ele>1917</ele>
        <time>2020-02-01T12:11:33.000Z</time>
      </trkpt>
      <trkpt lat="42.83744" lon="0.49956">
        <ele>1917</ele>
        <time>2020-02-01T12:11:34.000Z</time>
      </trkpt>
      <trkpt lat="42.83744" lon="0.49955">
        <ele>1917</ele>
        <time>2020-02-01T12:11:35.000Z</time>
      </trkpt>
      <trkpt lat="42.83744" lon="0.49955">
        <ele>1917</ele>
        <time>2020-02-01T12:11:36.000Z</time>
      </trkpt>
      <trkpt lat="42.83744" lon="0.49955">
        <ele>1917</ele>
        <time>2020-02-01T12:11:37.000Z</time>
      </trkpt>
      <trkpt lat="42.83744" lon="0.49955">
        <ele>1917.5</ele>
        <time>2020-02-01T12:11:38.000Z</time>
      </trkpt>
      <trkpt lat="42.83744" lon="0.49954">
        <ele>1918</ele>
        <time>2020-02-01T12:11:39.000Z</time>
      </trkpt>
      <trkpt lat="42.83744" lon="0.49954">
        <ele>1918</ele>
        <time>2020-02-01T12:11:40.000Z</time>
      </trkpt>
      <trkpt lat="42.83744" lon="0.49954">
        <ele>1918</ele>
        <time>2020-02-01T12:11:41.000Z</time>
      </trkpt>
      <trkpt lat="42.83744" lon="0.49954">
        <ele>1918</ele>
        <time>2020-02-01T12:11:42.000Z</time>
      </trkpt>
      <trkpt lat="42.83744" lon="0.49954">
        <ele>1918</ele>
        <time>2020-02-01T12:11:43.000Z</time>
      </trkpt>
      <trkpt lat="42.83744" lon="0.49954">
        <ele>1918</ele>
        <time>2020-02-01T12:11:44.000Z</time>
      </trkpt>
      <trkpt lat="42.83744" lon="0.49954">
        <ele>1918</ele>
        <time>2020-02-01T12:11:45.000Z</time>
      </trkpt>
      <trkpt lat="42.83744" lon="0.49954">
        <ele>1917.5</ele>
        <time>2020-02-01T12:11:46.000Z</time>
      </trkpt>
      <trkpt lat="42.83744" lon="0.49954">
        <ele>1917</ele>
        <time>2020-02-01T12:11:47.000Z</time>
      </trkpt>
      <trkpt lat="42.83744" lon="0.49954">
        <ele>1917</ele>
        <time>2020-02-01T12:11:48.000Z</time>
      </trkpt>
      <trkpt lat="42.83744" lon="0.49954">
        <ele>1917</ele>
        <time>2020-02-01T12:11:49.000Z</time>
      </trkpt>
      <trkpt lat="42.83745" lon="0.49954">
        <ele>1917</ele>
        <time>2020-02-01T12:11:50.000Z</time>
      </trkpt>
      <trkpt lat="42.83745" lon="0.49953">
        <ele>1917</ele>
        <time>2020-02-01T12:11:51.000Z</time>
      </trkpt>
      <trkpt lat="42.83745" lon="0.49953">
        <ele>1917.5</ele>
        <time>2020-02-01T12:11:52.000Z</time>
      </trkpt>
      <trkpt lat="42.83746" lon="0.49952">
        <ele>1918</ele>
        <time>2020-02-01T12:11:53.000Z</time>
      </trkpt>
      <trkpt lat="42.83747" lon="0.49951">
        <ele>1918</ele>
        <time>2020-02-01T12:11:54.000Z</time>
      </trkpt>
      <trkpt lat="42.83747" lon="0.4995">
        <ele>1918</ele>
        <time>2020-02-01T12:11:55.000Z</time>
      </trkpt>
      <trkpt lat="42.83748" lon="0.49949">
        <ele>1918</ele>
        <time>2020-02-01T12:11:56.000Z</time>
      </trkpt>
      <trkpt lat="42.83749" lon="0.49948">
        <ele>1918</ele>
        <time>2020-02-01T12:11:57.000Z</time>
      </trkpt>
      <trkpt lat="42.83749" lon="0.49947">
        <ele>1918</ele>
        <time>2020-02-01T12:11:58.000Z</time>
      </trkpt>
      <trkpt lat="42.83749" lon="0.49947">
        <ele>1918.5</ele>
        <time>2020-02-01T12:11:59.000Z</time>
      </trkpt>
      <trkpt lat="42.83749" lon="0.49946">
        <ele>1919</ele>
        <time>2020-02-01T12:12:00.000Z</time>
      </trkpt>
      <trkpt lat="42.83749" lon="0.49946">
        <ele>1919</ele>
        <time>2020-02-01T12:12:01.000Z</time>
      </trkpt>
      <trkpt lat="42.83749" lon="0.49946">
        <ele>1919</ele>
        <time>2020-02-01T12:12:02.000Z</time>
      </trkpt>
      <trkpt lat="42.83749" lon="0.49946">
        <ele>1919</ele>
        <time>2020-02-01T12:12:03.000Z</time>
      </trkpt>
      <trkpt lat="42.83749" lon="0.49946">
        <ele>1919</ele>
        <time>2020-02-01T12:12:04.000Z</time>
      </trkpt>
      <trkpt lat="42.8375" lon="0.49945">
        <ele>1919</ele>
        <time>2020-02-01T12:12:05.000Z</time>
      </trkpt>
      <trkpt lat="42.8375" lon="0.49945">
        <ele>1919</ele>
        <time>2020-02-01T12:12:06.000Z</time>
      </trkpt>
      <trkpt lat="42.8375" lon="0.49945">
        <ele>1919</ele>
        <time>2020-02-01T12:12:07.000Z</time>
      </trkpt>
      <trkpt lat="42.8375" lon="0.49945">
        <ele>1919</ele>
        <time>2020-02-01T12:12:08.000Z</time>
      </trkpt>
      <trkpt lat="42.8375" lon="0.49945">
        <ele>1919</ele>
        <time>2020-02-01T12:12:09.000Z</time>
      </trkpt>
      <trkpt lat="42.8375" lon="0.49945">
        <ele>1919</ele>
        <time>2020-02-01T12:12:10.000Z</time>
      </trkpt>
      <trkpt lat="42.8375" lon="0.49945">
        <ele>1919</ele>
        <time>2020-02-01T12:12:11.000Z</time>
      </trkpt>
      <trkpt lat="42.8375" lon="0.49945">
        <ele>1919</ele>
        <time>2020-02-01T12:12:12.000Z</time>
      </trkpt>
      <trkpt lat="42.8375" lon="0.49945">
        <ele>1919</ele>
        <time>2020-02-01T12:12:13.000Z</time>
      </trkpt>
      <trkpt lat="42.8375" lon="0.49945">
        <ele>1919</ele>
        <time>2020-02-01T12:12:14.000Z</time>
      </trkpt>
      <trkpt lat="42.8375" lon="0.49945">
        <ele>1919</ele>
        <time>2020-02-01T12:12:15.000Z</time>
      </trkpt>
      <trkpt lat="42.8375" lon="0.49945">
        <ele>1919</ele>
        <time>2020-02-01T12:12:16.000Z</time>
      </trkpt>
      <trkpt lat="42.8375" lon="0.49945">
        <ele>1919</ele>
        <time>2020-02-01T12:12:17.000Z</time>
      </trkpt>
      <trkpt lat="42.8375" lon="0.49945">
        <ele>1919</ele>
        <time>2020-02-01T12:12:18.000Z</time>
      </trkpt>
      <trkpt lat="42.8375" lon="0.49945">
        <ele>1919</ele>
        <time>2020-02-01T12:12:19.000Z</time>
      </trkpt>
      <trkpt lat="42.8375" lon="0.49945">
        <ele>1919</ele>
        <time>2020-02-01T12:12:20.000Z</time>
      </trkpt>
      <trkpt lat="42.8375" lon="0.49945">
        <ele>1919</ele>
        <time>2020-02-01T12:12:21.000Z</time>
      </trkpt>
      <trkpt lat="42.8375" lon="0.49945">
        <ele>1919</ele>
        <time>2020-02-01T12:12:22.000Z</time>
      </trkpt>
      <trkpt lat="42.8375" lon="0.49945">
        <ele>1919</ele>
        <time>2020-02-01T12:12:23.000Z</time>
      </trkpt>
      <trkpt lat="42.8375" lon="0.49945">
        <ele>1919</ele>
        <time>2020-02-01T12:12:24.000Z</time>
      </trkpt>
      <trkpt lat="42.8375" lon="0.49945">
        <ele>1919</ele>
        <time>2020-02-01T12:12:25.000Z</time>
      </trkpt>
      <trkpt lat="42.8375" lon="0.49945">
        <ele>1919</ele>
        <time>2020-02-01T12:12:26.000Z</time>
      </trkpt>
      <trkpt lat="42.8375" lon="0.49945">
        <ele>1919</ele>
        <time>2020-02-01T12:12:27.000Z</time>
      </trkpt>
      <trkpt lat="42.8375" lon="0.49945">
        <ele>1919</ele>
        <time>2020-02-01T12:12:28.000Z</time>
      </trkpt>
      <trkpt lat="42.8375" lon="0.49945">
        <ele>1919</ele>
        <time>2020-02-01T12:12:29.000Z</time>
      </trkpt>
      <trkpt lat="42.8375" lon="0.49945">
        <ele>1919</ele>
        <time>2020-02-01T12:12:30.000Z</time>
      </trkpt>
      <trkpt lat="42.8375" lon="0.49945">
        <ele>1919</ele>
        <time>2020-02-01T12:12:31.000Z</time>
      </trkpt>
      <trkpt lat="42.8375" lon="0.49945">
        <ele>1918.5</ele>
        <time>2020-02-01T12:12:32.000Z</time>
      </trkpt>
      <trkpt lat="42.8375" lon="0.49945">
        <ele>1918</ele>
        <time>2020-02-01T12:12:33.000Z</time>
      </trkpt>
      <trkpt lat="42.8375" lon="0.49945">
        <ele>1918.5</ele>
        <time>2020-02-01T12:12:34.000Z</time>
      </trkpt>
      <trkpt lat="42.8375" lon="0.49945">
        <ele>1919</ele>
        <time>2020-02-01T12:12:35.000Z</time>
      </trkpt>
      <trkpt lat="42.8375" lon="0.49945">
        <ele>1919</ele>
        <time>2020-02-01T12:12:36.000Z</time>
      </trkpt>
      <trkpt lat="42.8375" lon="0.49945">
        <ele>1919</ele>
        <time>2020-02-01T12:12:37.000Z</time>
      </trkpt>
      <trkpt lat="42.8375" lon="0.49945">
        <ele>1919</ele>
        <time>2020-02-01T12:12:38.000Z</time>
      </trkpt>
      <trkpt lat="42.8375" lon="0.49945">
        <ele>1919</ele>
        <time>2020-02-01T12:12:39.000Z</time>
      </trkpt>
      <trkpt lat="42.8375" lon="0.49945">
        <ele>1919</ele>
        <time>2020-02-01T12:12:40.000Z</time>
      </trkpt>
      <trkpt lat="42.8375" lon="0.49945">
        <ele>1919</ele>
        <time>2020-02-01T12:12:41.000Z</time>
      </trkpt>
      <trkpt lat="42.8375" lon="0.49945">
        <ele>1919</ele>
        <time>2020-02-01T12:12:42.000Z</time>
      </trkpt>
      <trkpt lat="42.8375" lon="0.49945">
        <ele>1919</ele>
        <time>2020-02-01T12:12:43.000Z</time>
      </trkpt>
      <trkpt lat="42.8375" lon="0.49945">
        <ele>1918</ele>
        <time>2020-02-01T12:12:44.000Z</time>
      </trkpt>
      <trkpt lat="42.8375" lon="0.49944">
        <ele>1918.3</ele>
        <time>2020-02-01T12:12:45.000Z</time>
      </trkpt>
      <trkpt lat="42.8375" lon="0.49944">
        <ele>1918.7</ele>
        <time>2020-02-01T12:12:46.000Z</time>
      </trkpt>
      <trkpt lat="42.8375" lon="0.49944">
        <ele>1919</ele>
        <time>2020-02-01T12:12:47.000Z</time>
      </trkpt>
      <trkpt lat="42.8375" lon="0.49943">
        <ele>1918.5</ele>
        <time>2020-02-01T12:12:48.000Z</time>
      </trkpt>
      <trkpt lat="42.8375" lon="0.49943">
        <ele>1918</ele>
        <time>2020-02-01T12:12:49.000Z</time>
      </trkpt>
      <trkpt lat="42.8375" lon="0.49943">
        <ele>1918.5</ele>
        <time>2020-02-01T12:12:50.000Z</time>
      </trkpt>
      <trkpt lat="42.8375" lon="0.49942">
        <ele>1919</ele>
        <time>2020-02-01T12:12:51.000Z</time>
      </trkpt>
      <trkpt lat="42.83751" lon="0.49942">
        <ele>1919</ele>
        <time>2020-02-01T12:12:52.000Z</time>
      </trkpt>
      <trkpt lat="42.83751" lon="0.49941">
        <ele>1919</ele>
        <time>2020-02-01T12:12:53.000Z</time>
      </trkpt>
      <trkpt lat="42.83751" lon="0.49941">
        <ele>1919</ele>
        <time>2020-02-01T12:12:54.000Z</time>
      </trkpt>
      <trkpt lat="42.83752" lon="0.4994">
        <ele>1919</ele>
        <time>2020-02-01T12:12:55.000Z</time>
      </trkpt>
      <trkpt lat="42.83752" lon="0.49939">
        <ele>1919</ele>
        <time>2020-02-01T12:12:56.000Z</time>
      </trkpt>
      <trkpt lat="42.83753" lon="0.49939">
        <ele>1919</ele>
        <time>2020-02-01T12:12:57.000Z</time>
      </trkpt>
      <trkpt lat="42.83753" lon="0.49938">
        <ele>1919</ele>
        <time>2020-02-01T12:12:58.000Z</time>
      </trkpt>
      <trkpt lat="42.83753" lon="0.49937">
        <ele>1919</ele>
        <time>2020-02-01T12:12:59.000Z</time>
      </trkpt>
      <trkpt lat="42.83754" lon="0.49936">
        <ele>1919</ele>
        <time>2020-02-01T12:13:00.000Z</time>
      </trkpt>
      <trkpt lat="42.83754" lon="0.49935">
        <ele>1919</ele>
        <time>2020-02-01T12:13:01.000Z</time>
      </trkpt>
      <trkpt lat="42.83755" lon="0.49934">
        <ele>1919</ele>
        <time>2020-02-01T12:13:02.000Z</time>
      </trkpt>
      <trkpt lat="42.83755" lon="0.49933">
        <ele>1919</ele>
        <time>2020-02-01T12:13:03.000Z</time>
      </trkpt>
      <trkpt lat="42.83756" lon="0.49932">
        <ele>1919.5</ele>
        <time>2020-02-01T12:13:04.000Z</time>
      </trkpt>
      <trkpt lat="42.83756" lon="0.49931">
        <ele>1920</ele>
        <time>2020-02-01T12:13:05.000Z</time>
      </trkpt>
      <trkpt lat="42.83757" lon="0.4993">
        <ele>1920</ele>
        <time>2020-02-01T12:13:06.000Z</time>
      </trkpt>
      <trkpt lat="42.83757" lon="0.49928">
        <ele>1920</ele>
        <time>2020-02-01T12:13:07.000Z</time>
      </trkpt>
      <trkpt lat="42.83758" lon="0.49927">
        <ele>1920</ele>
        <time>2020-02-01T12:13:08.000Z</time>
      </trkpt>
      <trkpt lat="42.83758" lon="0.49926">
        <ele>1920</ele>
        <time>2020-02-01T12:13:09.000Z</time>
      </trkpt>
      <trkpt lat="42.83759" lon="0.49925">
        <ele>1920</ele>
        <time>2020-02-01T12:13:10.000Z</time>
      </trkpt>
      <trkpt lat="42.83759" lon="0.49924">
        <ele>1920</ele>
        <time>2020-02-01T12:13:11.000Z</time>
      </trkpt>
      <trkpt lat="42.8376" lon="0.49923">
        <ele>1920</ele>
        <time>2020-02-01T12:13:12.000Z</time>
      </trkpt>
      <trkpt lat="42.8376" lon="0.49922">
        <ele>1920</ele>
        <time>2020-02-01T12:13:13.000Z</time>
      </trkpt>
      <trkpt lat="42.83761" lon="0.49921">
        <ele>1920.5</ele>
        <time>2020-02-01T12:13:14.000Z</time>
      </trkpt>
      <trkpt lat="42.83761" lon="0.4992">
        <ele>1921</ele>
        <time>2020-02-01T12:13:15.000Z</time>
      </trkpt>
      <trkpt lat="42.83762" lon="0.49919">
        <ele>1921</ele>
        <time>2020-02-01T12:13:16.000Z</time>
      </trkpt>
      <trkpt lat="42.83762" lon="0.49918">
        <ele>1921</ele>
        <time>2020-02-01T12:13:17.000Z</time>
      </trkpt>
      <trkpt lat="42.83762" lon="0.49917">
        <ele>1921</ele>
        <time>2020-02-01T12:13:18.000Z</time>
      </trkpt>
      <trkpt lat="42.83763" lon="0.49916">
        <ele>1921</ele>
        <time>2020-02-01T12:13:19.000Z</time>
      </trkpt>
      <trkpt lat="42.83763" lon="0.49915">
        <ele>1921.5</ele>
        <time>2020-02-01T12:13:20.000Z</time>
      </trkpt>
      <trkpt lat="42.83763" lon="0.49914">
        <ele>1922</ele>
        <time>2020-02-01T12:13:21.000Z</time>
      </trkpt>
      <trkpt lat="42.83764" lon="0.49914">
        <ele>1922</ele>
        <time>2020-02-01T12:13:22.000Z</time>
      </trkpt>
      <trkpt lat="42.83764" lon="0.49913">
        <ele>1922</ele>
        <time>2020-02-01T12:13:23.000Z</time>
      </trkpt>
      <trkpt lat="42.83764" lon="0.49913">
        <ele>1922</ele>
        <time>2020-02-01T12:13:24.000Z</time>
      </trkpt>
      <trkpt lat="42.83764" lon="0.49913">
        <ele>1922</ele>
        <time>2020-02-01T12:13:25.000Z</time>
      </trkpt>
      <trkpt lat="42.83764" lon="0.49912">
        <ele>1922.5</ele>
        <time>2020-02-01T12:13:26.000Z</time>
      </trkpt>
      <trkpt lat="42.83764" lon="0.49912">
        <ele>1923</ele>
        <time>2020-02-01T12:13:27.000Z</time>
      </trkpt>
      <trkpt lat="42.83765" lon="0.49912">
        <ele>1923</ele>
        <time>2020-02-01T12:13:28.000Z</time>
      </trkpt>
      <trkpt lat="42.83765" lon="0.49911">
        <ele>1923</ele>
        <time>2020-02-01T12:13:29.000Z</time>
      </trkpt>
      <trkpt lat="42.83765" lon="0.49911">
        <ele>1923</ele>
        <time>2020-02-01T12:13:30.000Z</time>
      </trkpt>
      <trkpt lat="42.83765" lon="0.49911">
        <ele>1923</ele>
        <time>2020-02-01T12:13:31.000Z</time>
      </trkpt>
      <trkpt lat="42.83765" lon="0.49911">
        <ele>1923</ele>
        <time>2020-02-01T12:13:32.000Z</time>
      </trkpt>
      <trkpt lat="42.83765" lon="0.49911">
        <ele>1923</ele>
        <time>2020-02-01T12:13:33.000Z</time>
      </trkpt>
      <trkpt lat="42.83765" lon="0.49911">
        <ele>1923.5</ele>
        <time>2020-02-01T12:13:34.000Z</time>
      </trkpt>
      <trkpt lat="42.83765" lon="0.49911">
        <ele>1924</ele>
        <time>2020-02-01T12:13:35.000Z</time>
      </trkpt>
      <trkpt lat="42.83765" lon="0.49911">
        <ele>1924</ele>
        <time>2020-02-01T12:13:36.000Z</time>
      </trkpt>
      <trkpt lat="42.83765" lon="0.4991">
        <ele>1924</ele>
        <time>2020-02-01T12:13:37.000Z</time>
      </trkpt>
      <trkpt lat="42.83765" lon="0.4991">
        <ele>1924</ele>
        <time>2020-02-01T12:13:38.000Z</time>
      </trkpt>
      <trkpt lat="42.83765" lon="0.49909">
        <ele>1924</ele>
        <time>2020-02-01T12:13:39.000Z</time>
      </trkpt>
      <trkpt lat="42.83765" lon="0.49907">
        <ele>1924.5</ele>
        <time>2020-02-01T12:13:40.000Z</time>
      </trkpt>
      <trkpt lat="42.83766" lon="0.49904">
        <ele>1925</ele>
        <time>2020-02-01T12:13:41.000Z</time>
      </trkpt>
      <trkpt lat="42.83766" lon="0.49903">
        <ele>1925</ele>
        <time>2020-02-01T12:13:42.000Z</time>
      </trkpt>
      <trkpt lat="42.83767" lon="0.49901">
        <ele>1925</ele>
        <time>2020-02-01T12:13:43.000Z</time>
      </trkpt>
      <trkpt lat="42.83767" lon="0.499">
        <ele>1925</ele>
        <time>2020-02-01T12:13:44.000Z</time>
      </trkpt>
      <trkpt lat="42.83768" lon="0.49899">
        <ele>1925</ele>
        <time>2020-02-01T12:13:45.000Z</time>
      </trkpt>
      <trkpt lat="42.83768" lon="0.49899">
        <ele>1925.5</ele>
        <time>2020-02-01T12:13:46.000Z</time>
      </trkpt>
      <trkpt lat="42.83769" lon="0.49898">
        <ele>1926</ele>
        <time>2020-02-01T12:13:47.000Z</time>
      </trkpt>
      <trkpt lat="42.83769" lon="0.49897">
        <ele>1926</ele>
        <time>2020-02-01T12:13:48.000Z</time>
      </trkpt>
      <trkpt lat="42.8377" lon="0.49897">
        <ele>1926</ele>
        <time>2020-02-01T12:13:49.000Z</time>
      </trkpt>
      <trkpt lat="42.8377" lon="0.49896">
        <ele>1926</ele>
        <time>2020-02-01T12:13:50.000Z</time>
      </trkpt>
      <trkpt lat="42.8377" lon="0.49895">
        <ele>1926</ele>
        <time>2020-02-01T12:13:51.000Z</time>
      </trkpt>
      <trkpt lat="42.83771" lon="0.49895">
        <ele>1926</ele>
        <time>2020-02-01T12:13:52.000Z</time>
      </trkpt>
      <trkpt lat="42.83771" lon="0.49894">
        <ele>1926</ele>
        <time>2020-02-01T12:13:53.000Z</time>
      </trkpt>
      <trkpt lat="42.83771" lon="0.49894">
        <ele>1926</ele>
        <time>2020-02-01T12:13:54.000Z</time>
      </trkpt>
      <trkpt lat="42.83772" lon="0.49893">
        <ele>1926.3</ele>
        <time>2020-02-01T12:13:55.000Z</time>
      </trkpt>
      <trkpt lat="42.83772" lon="0.49893">
        <ele>1926.7</ele>
        <time>2020-02-01T12:13:56.000Z</time>
      </trkpt>
      <trkpt lat="42.83773" lon="0.49892">
        <ele>1927</ele>
        <time>2020-02-01T12:13:57.000Z</time>
      </trkpt>
      <trkpt lat="42.83773" lon="0.49891">
        <ele>1927</ele>
        <time>2020-02-01T12:13:58.000Z</time>
      </trkpt>
      <trkpt lat="42.83773" lon="0.49891">
        <ele>1927</ele>
        <time>2020-02-01T12:13:59.000Z</time>
      </trkpt>
      <trkpt lat="42.83774" lon="0.4989">
        <ele>1927</ele>
        <time>2020-02-01T12:14:00.000Z</time>
      </trkpt>
      <trkpt lat="42.83774" lon="0.49889">
        <ele>1927</ele>
        <time>2020-02-01T12:14:01.000Z</time>
      </trkpt>
      <trkpt lat="42.83774" lon="0.49888">
        <ele>1927.5</ele>
        <time>2020-02-01T12:14:02.000Z</time>
      </trkpt>
      <trkpt lat="42.83775" lon="0.49887">
        <ele>1928</ele>
        <time>2020-02-01T12:14:03.000Z</time>
      </trkpt>
      <trkpt lat="42.83775" lon="0.49886">
        <ele>1928</ele>
        <time>2020-02-01T12:14:04.000Z</time>
      </trkpt>
      <trkpt lat="42.83776" lon="0.49886">
        <ele>1928</ele>
        <time>2020-02-01T12:14:05.000Z</time>
      </trkpt>
      <trkpt lat="42.83777" lon="0.49885">
        <ele>1928</ele>
        <time>2020-02-01T12:14:06.000Z</time>
      </trkpt>
      <trkpt lat="42.83777" lon="0.49884">
        <ele>1928</ele>
        <time>2020-02-01T12:14:07.000Z</time>
      </trkpt>
      <trkpt lat="42.83778" lon="0.49884">
        <ele>1928</ele>
        <time>2020-02-01T12:14:08.000Z</time>
      </trkpt>
      <trkpt lat="42.83779" lon="0.49884">
        <ele>1928</ele>
        <time>2020-02-01T12:14:09.000Z</time>
      </trkpt>
      <trkpt lat="42.83779" lon="0.49883">
        <ele>1928.5</ele>
        <time>2020-02-01T12:14:10.000Z</time>
      </trkpt>
      <trkpt lat="42.8378" lon="0.49883">
        <ele>1929</ele>
        <time>2020-02-01T12:14:11.000Z</time>
      </trkpt>
      <trkpt lat="42.8378" lon="0.49883">
        <ele>1929</ele>
        <time>2020-02-01T12:14:12.000Z</time>
      </trkpt>
      <trkpt lat="42.8378" lon="0.49883">
        <ele>1929</ele>
        <time>2020-02-01T12:14:13.000Z</time>
      </trkpt>
      <trkpt lat="42.8378" lon="0.49883">
        <ele>1929</ele>
        <time>2020-02-01T12:14:14.000Z</time>
      </trkpt>
      <trkpt lat="42.8378" lon="0.49883">
        <ele>1929</ele>
        <time>2020-02-01T12:14:15.000Z</time>
      </trkpt>
      <trkpt lat="42.8378" lon="0.49883">
        <ele>1929</ele>
        <time>2020-02-01T12:14:16.000Z</time>
      </trkpt>
      <trkpt lat="42.8378" lon="0.49882">
        <ele>1929</ele>
        <time>2020-02-01T12:14:17.000Z</time>
      </trkpt>
      <trkpt lat="42.8378" lon="0.49882">
        <ele>1929</ele>
        <time>2020-02-01T12:14:18.000Z</time>
      </trkpt>
      <trkpt lat="42.83779" lon="0.49882">
        <ele>1929</ele>
        <time>2020-02-01T12:14:19.000Z</time>
      </trkpt>
      <trkpt lat="42.83779" lon="0.49882">
        <ele>1928.5</ele>
        <time>2020-02-01T12:14:20.000Z</time>
      </trkpt>
      <trkpt lat="42.83779" lon="0.49881">
        <ele>1928</ele>
        <time>2020-02-01T12:14:21.000Z</time>
      </trkpt>
      <trkpt lat="42.83779" lon="0.49881">
        <ele>1928</ele>
        <time>2020-02-01T12:14:22.000Z</time>
      </trkpt>
      <trkpt lat="42.83779" lon="0.49881">
        <ele>1928.3</ele>
        <time>2020-02-01T12:14:23.000Z</time>
      </trkpt>
      <trkpt lat="42.83778" lon="0.49881">
        <ele>1928.7</ele>
        <time>2020-02-01T12:14:24.000Z</time>
      </trkpt>
      <trkpt lat="42.83778" lon="0.49881">
        <ele>1929</ele>
        <time>2020-02-01T12:14:25.000Z</time>
      </trkpt>
      <trkpt lat="42.83778" lon="0.49881">
        <ele>1929</ele>
        <time>2020-02-01T12:14:26.000Z</time>
      </trkpt>
      <trkpt lat="42.83778" lon="0.49881">
        <ele>1929</ele>
        <time>2020-02-01T12:14:27.000Z</time>
      </trkpt>
      <trkpt lat="42.83778" lon="0.49881">
        <ele>1929</ele>
        <time>2020-02-01T12:14:28.000Z</time>
      </trkpt>
      <trkpt lat="42.83778" lon="0.49881">
        <ele>1928.7</ele>
        <time>2020-02-01T12:14:29.000Z</time>
      </trkpt>
      <trkpt lat="42.83778" lon="0.49881">
        <ele>1928.3</ele>
        <time>2020-02-01T12:14:30.000Z</time>
      </trkpt>
      <trkpt lat="42.83778" lon="0.49881">
        <ele>1928</ele>
        <time>2020-02-01T12:14:31.000Z</time>
      </trkpt>
      <trkpt lat="42.83778" lon="0.4988">
        <ele>1928</ele>
        <time>2020-02-01T12:14:32.000Z</time>
      </trkpt>
      <trkpt lat="42.83778" lon="0.4988">
        <ele>1928</ele>
        <time>2020-02-01T12:14:33.000Z</time>
      </trkpt>
      <trkpt lat="42.83778" lon="0.4988">
        <ele>1929</ele>
        <time>2020-02-01T12:14:34.000Z</time>
      </trkpt>
      <trkpt lat="42.83778" lon="0.4988">
        <ele>1929</ele>
        <time>2020-02-01T12:14:35.000Z</time>
      </trkpt>
      <trkpt lat="42.83778" lon="0.4988">
        <ele>1929</ele>
        <time>2020-02-01T12:14:36.000Z</time>
      </trkpt>
      <trkpt lat="42.83778" lon="0.4988">
        <ele>1929</ele>
        <time>2020-02-01T12:14:37.000Z</time>
      </trkpt>
      <trkpt lat="42.83778" lon="0.49881">
        <ele>1929</ele>
        <time>2020-02-01T12:14:38.000Z</time>
      </trkpt>
      <trkpt lat="42.83778" lon="0.49881">
        <ele>1929</ele>
        <time>2020-02-01T12:14:39.000Z</time>
      </trkpt>
      <trkpt lat="42.83778" lon="0.49881">
        <ele>1929</ele>
        <time>2020-02-01T12:14:40.000Z</time>
      </trkpt>
      <trkpt lat="42.83778" lon="0.49881">
        <ele>1929</ele>
        <time>2020-02-01T12:14:41.000Z</time>
      </trkpt>
      <trkpt lat="42.83778" lon="0.49881">
        <ele>1929</ele>
        <time>2020-02-01T12:14:42.000Z</time>
      </trkpt>
      <trkpt lat="42.83778" lon="0.49881">
        <ele>1929</ele>
        <time>2020-02-01T12:14:43.000Z</time>
      </trkpt>
      <trkpt lat="42.83778" lon="0.49881">
        <ele>1929</ele>
        <time>2020-02-01T12:14:44.000Z</time>
      </trkpt>
      <trkpt lat="42.83778" lon="0.49881">
        <ele>1929</ele>
        <time>2020-02-01T12:14:45.000Z</time>
      </trkpt>
      <trkpt lat="42.83778" lon="0.49881">
        <ele>1929</ele>
        <time>2020-02-01T12:14:46.000Z</time>
      </trkpt>
      <trkpt lat="42.83778" lon="0.49881">
        <ele>1929</ele>
        <time>2020-02-01T12:14:47.000Z</time>
      </trkpt>
      <trkpt lat="42.83778" lon="0.49881">
        <ele>1929</ele>
        <time>2020-02-01T12:14:48.000Z</time>
      </trkpt>
      <trkpt lat="42.83778" lon="0.49881">
        <ele>1929</ele>
        <time>2020-02-01T12:14:49.000Z</time>
      </trkpt>
      <trkpt lat="42.83778" lon="0.49881">
        <ele>1929</ele>
        <time>2020-02-01T12:14:50.000Z</time>
      </trkpt>
      <trkpt lat="42.83778" lon="0.49881">
        <ele>1929</ele>
        <time>2020-02-01T12:14:51.000Z</time>
      </trkpt>
      <trkpt lat="42.83778" lon="0.49881">
        <ele>1929</ele>
        <time>2020-02-01T12:14:52.000Z</time>
      </trkpt>
      <trkpt lat="42.83778" lon="0.49881">
        <ele>1929</ele>
        <time>2020-02-01T12:14:53.000Z</time>
      </trkpt>
      <trkpt lat="42.83778" lon="0.49881">
        <ele>1929</ele>
        <time>2020-02-01T12:14:54.000Z</time>
      </trkpt>
      <trkpt lat="42.83778" lon="0.49881">
        <ele>1929</ele>
        <time>2020-02-01T12:14:55.000Z</time>
      </trkpt>
      <trkpt lat="42.83778" lon="0.49881">
        <ele>1929</ele>
        <time>2020-02-01T12:14:56.000Z</time>
      </trkpt>
      <trkpt lat="42.83778" lon="0.49881">
        <ele>1929</ele>
        <time>2020-02-01T12:14:57.000Z</time>
      </trkpt>
      <trkpt lat="42.83778" lon="0.4988">
        <ele>1929</ele>
        <time>2020-02-01T12:14:58.000Z</time>
      </trkpt>
      <trkpt lat="42.83778" lon="0.4988">
        <ele>1929</ele>
        <time>2020-02-01T12:14:59.000Z</time>
      </trkpt>
      <trkpt lat="42.83778" lon="0.4988">
        <ele>1929</ele>
        <time>2020-02-01T12:15:00.000Z</time>
      </trkpt>
      <trkpt lat="42.83778" lon="0.4988">
        <ele>1929</ele>
        <time>2020-02-01T12:15:01.000Z</time>
      </trkpt>
      <trkpt lat="42.83778" lon="0.4988">
        <ele>1929</ele>
        <time>2020-02-01T12:15:02.000Z</time>
      </trkpt>
      <trkpt lat="42.83778" lon="0.4988">
        <ele>1929</ele>
        <time>2020-02-01T12:15:03.000Z</time>
      </trkpt>
      <trkpt lat="42.83778" lon="0.4988">
        <ele>1929</ele>
        <time>2020-02-01T12:15:04.000Z</time>
      </trkpt>
      <trkpt lat="42.83778" lon="0.4988">
        <ele>1929</ele>
        <time>2020-02-01T12:15:05.000Z</time>
      </trkpt>
      <trkpt lat="42.83778" lon="0.4988">
        <ele>1929</ele>
        <time>2020-02-01T12:15:06.000Z</time>
      </trkpt>
      <trkpt lat="42.83778" lon="0.4988">
        <ele>1929</ele>
        <time>2020-02-01T12:15:07.000Z</time>
      </trkpt>
      <trkpt lat="42.83778" lon="0.49881">
        <ele>1929</ele>
        <time>2020-02-01T12:15:08.000Z</time>
      </trkpt>
      <trkpt lat="42.83778" lon="0.49881">
        <ele>1929</ele>
        <time>2020-02-01T12:15:09.000Z</time>
      </trkpt>
      <trkpt lat="42.83778" lon="0.49881">
        <ele>1929</ele>
        <time>2020-02-01T12:15:10.000Z</time>
      </trkpt>
      <trkpt lat="42.83778" lon="0.49881">
        <ele>1929</ele>
        <time>2020-02-01T12:15:11.000Z</time>
      </trkpt>
      <trkpt lat="42.83778" lon="0.49881">
        <ele>1929</ele>
        <time>2020-02-01T12:15:12.000Z</time>
      </trkpt>
      <trkpt lat="42.83778" lon="0.49881">
        <ele>1929</ele>
        <time>2020-02-01T12:15:13.000Z</time>
      </trkpt>
      <trkpt lat="42.83778" lon="0.49881">
        <ele>1929</ele>
        <time>2020-02-01T12:15:14.000Z</time>
      </trkpt>
      <trkpt lat="42.83778" lon="0.49881">
        <ele>1929</ele>
        <time>2020-02-01T12:15:15.000Z</time>
      </trkpt>
      <trkpt lat="42.83778" lon="0.49881">
        <ele>1929</ele>
        <time>2020-02-01T12:15:16.000Z</time>
      </trkpt>
      <trkpt lat="42.83778" lon="0.49881">
        <ele>1929</ele>
        <time>2020-02-01T12:15:17.000Z</time>
      </trkpt>
      <trkpt lat="42.83778" lon="0.49881">
        <ele>1929</ele>
        <time>2020-02-01T12:15:18.000Z</time>
      </trkpt>
      <trkpt lat="42.83778" lon="0.49881">
        <ele>1929</ele>
        <time>2020-02-01T12:15:19.000Z</time>
      </trkpt>
      <trkpt lat="42.83778" lon="0.49881">
        <ele>1929</ele>
        <time>2020-02-01T12:15:20.000Z</time>
      </trkpt>
      <trkpt lat="42.83778" lon="0.49881">
        <ele>1929</ele>
        <time>2020-02-01T12:15:21.000Z</time>
      </trkpt>
      <trkpt lat="42.83778" lon="0.49881">
        <ele>1928.5</ele>
        <time>2020-02-01T12:15:22.000Z</time>
      </trkpt>
      <trkpt lat="42.83778" lon="0.49881">
        <ele>1928</ele>
        <time>2020-02-01T12:15:23.000Z</time>
      </trkpt>
      <trkpt lat="42.83778" lon="0.49881">
        <ele>1928.5</ele>
        <time>2020-02-01T12:15:24.000Z</time>
      </trkpt>
      <trkpt lat="42.83778" lon="0.49881">
        <ele>1929</ele>
        <time>2020-02-01T12:15:25.000Z</time>
      </trkpt>
      <trkpt lat="42.83778" lon="0.49881">
        <ele>1929</ele>
        <time>2020-02-01T12:15:26.000Z</time>
      </trkpt>
      <trkpt lat="42.83778" lon="0.49881">
        <ele>1929</ele>
        <time>2020-02-01T12:15:27.000Z</time>
      </trkpt>
      <trkpt lat="42.83778" lon="0.49881">
        <ele>1929</ele>
        <time>2020-02-01T12:15:28.000Z</time>
      </trkpt>
      <trkpt lat="42.83778" lon="0.49881">
        <ele>1929</ele>
        <time>2020-02-01T12:15:29.000Z</time>
      </trkpt>
      <trkpt lat="42.83778" lon="0.49881">
        <ele>1929</ele>
        <time>2020-02-01T12:15:30.000Z</time>
      </trkpt>
      <trkpt lat="42.83778" lon="0.49881">
        <ele>1929</ele>
        <time>2020-02-01T12:15:31.000Z</time>
      </trkpt>
      <trkpt lat="42.83778" lon="0.49881">
        <ele>1929</ele>
        <time>2020-02-01T12:15:32.000Z</time>
      </trkpt>
      <trkpt lat="42.83778" lon="0.4988">
        <ele>1929</ele>
        <time>2020-02-01T12:15:33.000Z</time>
      </trkpt>
      <trkpt lat="42.83778" lon="0.4988">
        <ele>1929</ele>
        <time>2020-02-01T12:15:34.000Z</time>
      </trkpt>
      <trkpt lat="42.83778" lon="0.4988">
        <ele>1929</ele>
        <time>2020-02-01T12:15:35.000Z</time>
      </trkpt>
      <trkpt lat="42.83778" lon="0.4988">
        <ele>1929</ele>
        <time>2020-02-01T12:15:36.000Z</time>
      </trkpt>
      <trkpt lat="42.83778" lon="0.4988">
        <ele>1929</ele>
        <time>2020-02-01T12:15:37.000Z</time>
      </trkpt>
      <trkpt lat="42.83778" lon="0.4988">
        <ele>1929</ele>
        <time>2020-02-01T12:15:38.000Z</time>
      </trkpt>
      <trkpt lat="42.83778" lon="0.4988">
        <ele>1929</ele>
        <time>2020-02-01T12:15:39.000Z</time>
      </trkpt>
      <trkpt lat="42.83778" lon="0.4988">
        <ele>1929</ele>
        <time>2020-02-01T12:15:40.000Z</time>
      </trkpt>
      <trkpt lat="42.83778" lon="0.4988">
        <ele>1929</ele>
        <time>2020-02-01T12:15:41.000Z</time>
      </trkpt>
      <trkpt lat="42.83778" lon="0.4988">
        <ele>1929</ele>
        <time>2020-02-01T12:15:42.000Z</time>
      </trkpt>
      <trkpt lat="42.83778" lon="0.4988">
        <ele>1929</ele>
        <time>2020-02-01T12:15:43.000Z</time>
      </trkpt>
      <trkpt lat="42.83778" lon="0.4988">
        <ele>1929</ele>
        <time>2020-02-01T12:15:44.000Z</time>
      </trkpt>
      <trkpt lat="42.83778" lon="0.4988">
        <ele>1929</ele>
        <time>2020-02-01T12:15:45.000Z</time>
      </trkpt>
      <trkpt lat="42.83778" lon="0.4988">
        <ele>1929</ele>
        <time>2020-02-01T12:15:46.000Z</time>
      </trkpt>
      <trkpt lat="42.83778" lon="0.4988">
        <ele>1929</ele>
        <time>2020-02-01T12:15:47.000Z</time>
      </trkpt>
      <trkpt lat="42.83778" lon="0.4988">
        <ele>1929</ele>
        <time>2020-02-01T12:15:48.000Z</time>
      </trkpt>
      <trkpt lat="42.83778" lon="0.4988">
        <ele>1929</ele>
        <time>2020-02-01T12:15:49.000Z</time>
      </trkpt>
      <trkpt lat="42.83778" lon="0.4988">
        <ele>1929</ele>
        <time>2020-02-01T12:15:50.000Z</time>
      </trkpt>
      <trkpt lat="42.83778" lon="0.4988">
        <ele>1929</ele>
        <time>2020-02-01T12:15:51.000Z</time>
      </trkpt>
      <trkpt lat="42.83778" lon="0.4988">
        <ele>1929</ele>
        <time>2020-02-01T12:15:52.000Z</time>
      </trkpt>
      <trkpt lat="42.83778" lon="0.4988">
        <ele>1929</ele>
        <time>2020-02-01T12:15:53.000Z</time>
      </trkpt>
      <trkpt lat="42.83778" lon="0.4988">
        <ele>1929</ele>
        <time>2020-02-01T12:15:54.000Z</time>
      </trkpt>
      <trkpt lat="42.83778" lon="0.4988">
        <ele>1929</ele>
        <time>2020-02-01T12:15:55.000Z</time>
      </trkpt>
      <trkpt lat="42.83778" lon="0.4988">
        <ele>1929</ele>
        <time>2020-02-01T12:15:56.000Z</time>
      </trkpt>
      <trkpt lat="42.83778" lon="0.49879">
        <ele>1929</ele>
        <time>2020-02-01T12:15:57.000Z</time>
      </trkpt>
      <trkpt lat="42.83778" lon="0.49878">
        <ele>1929</ele>
        <time>2020-02-01T12:15:58.000Z</time>
      </trkpt>
      <trkpt lat="42.83778" lon="0.49876">
        <ele>1929</ele>
        <time>2020-02-01T12:15:59.000Z</time>
      </trkpt>
      <trkpt lat="42.83779" lon="0.49875">
        <ele>1929</ele>
        <time>2020-02-01T12:16:00.000Z</time>
      </trkpt>
      <trkpt lat="42.83779" lon="0.49873">
        <ele>1929</ele>
        <time>2020-02-01T12:16:01.000Z</time>
      </trkpt>
      <trkpt lat="42.8378" lon="0.49873">
        <ele>1929</ele>
        <time>2020-02-01T12:16:02.000Z</time>
      </trkpt>
      <trkpt lat="42.8378" lon="0.49872">
        <ele>1929</ele>
        <time>2020-02-01T12:16:03.000Z</time>
      </trkpt>
      <trkpt lat="42.83781" lon="0.49871">
        <ele>1929</ele>
        <time>2020-02-01T12:16:04.000Z</time>
      </trkpt>
      <trkpt lat="42.83782" lon="0.4987">
        <ele>1929</ele>
        <time>2020-02-01T12:16:05.000Z</time>
      </trkpt>
      <trkpt lat="42.83782" lon="0.49869">
        <ele>1929</ele>
        <time>2020-02-01T12:16:06.000Z</time>
      </trkpt>
      <trkpt lat="42.83783" lon="0.49868">
        <ele>1929</ele>
        <time>2020-02-01T12:16:07.000Z</time>
      </trkpt>
      <trkpt lat="42.83783" lon="0.49867">
        <ele>1930</ele>
        <time>2020-02-01T12:16:08.000Z</time>
      </trkpt>
      <trkpt lat="42.83784" lon="0.49866">
        <ele>1930</ele>
        <time>2020-02-01T12:16:09.000Z</time>
      </trkpt>
      <trkpt lat="42.83784" lon="0.49865">
        <ele>1930</ele>
        <time>2020-02-01T12:16:10.000Z</time>
      </trkpt>
      <trkpt lat="42.83785" lon="0.49864">
        <ele>1930</ele>
        <time>2020-02-01T12:16:11.000Z</time>
      </trkpt>
      <trkpt lat="42.83785" lon="0.49863">
        <ele>1930</ele>
        <time>2020-02-01T12:16:12.000Z</time>
      </trkpt>
      <trkpt lat="42.83786" lon="0.49862">
        <ele>1930</ele>
        <time>2020-02-01T12:16:13.000Z</time>
      </trkpt>
      <trkpt lat="42.83786" lon="0.4986">
        <ele>1930</ele>
        <time>2020-02-01T12:16:14.000Z</time>
      </trkpt>
      <trkpt lat="42.83786" lon="0.49859">
        <ele>1930</ele>
        <time>2020-02-01T12:16:15.000Z</time>
      </trkpt>
      <trkpt lat="42.83787" lon="0.49858">
        <ele>1930</ele>
        <time>2020-02-01T12:16:16.000Z</time>
      </trkpt>
      <trkpt lat="42.83787" lon="0.49856">
        <ele>1930</ele>
        <time>2020-02-01T12:16:17.000Z</time>
      </trkpt>
      <trkpt lat="42.83787" lon="0.49855">
        <ele>1930</ele>
        <time>2020-02-01T12:16:18.000Z</time>
      </trkpt>
      <trkpt lat="42.83787" lon="0.49853">
        <ele>1930</ele>
        <time>2020-02-01T12:16:19.000Z</time>
      </trkpt>
      <trkpt lat="42.83787" lon="0.49852">
        <ele>1930</ele>
        <time>2020-02-01T12:16:20.000Z</time>
      </trkpt>
      <trkpt lat="42.83787" lon="0.49851">
        <ele>1930</ele>
        <time>2020-02-01T12:16:21.000Z</time>
      </trkpt>
      <trkpt lat="42.83787" lon="0.49849">
        <ele>1930</ele>
        <time>2020-02-01T12:16:22.000Z</time>
      </trkpt>
      <trkpt lat="42.83787" lon="0.49848">
        <ele>1930</ele>
        <time>2020-02-01T12:16:23.000Z</time>
      </trkpt>
      <trkpt lat="42.83787" lon="0.49846">
        <ele>1930</ele>
        <time>2020-02-01T12:16:24.000Z</time>
      </trkpt>
      <trkpt lat="42.83788" lon="0.49845">
        <ele>1930</ele>
        <time>2020-02-01T12:16:25.000Z</time>
      </trkpt>
      <trkpt lat="42.83788" lon="0.49844">
        <ele>1929</ele>
        <time>2020-02-01T12:16:26.000Z</time>
      </trkpt>
      <trkpt lat="42.83788" lon="0.49842">
        <ele>1929</ele>
        <time>2020-02-01T12:16:27.000Z</time>
      </trkpt>
      <trkpt lat="42.83788" lon="0.49841">
        <ele>1929</ele>
        <time>2020-02-01T12:16:28.000Z</time>
      </trkpt>
      <trkpt lat="42.83789" lon="0.4984">
        <ele>1929.3</ele>
        <time>2020-02-01T12:16:29.000Z</time>
      </trkpt>
      <trkpt lat="42.83789" lon="0.49838">
        <ele>1929.7</ele>
        <time>2020-02-01T12:16:30.000Z</time>
      </trkpt>
      <trkpt lat="42.83789" lon="0.49837">
        <ele>1930</ele>
        <time>2020-02-01T12:16:31.000Z</time>
      </trkpt>
      <trkpt lat="42.8379" lon="0.49836">
        <ele>1929</ele>
        <time>2020-02-01T12:16:32.000Z</time>
      </trkpt>
      <trkpt lat="42.8379" lon="0.49835">
        <ele>1929.3</ele>
        <time>2020-02-01T12:16:33.000Z</time>
      </trkpt>
      <trkpt lat="42.8379" lon="0.49833">
        <ele>1929.7</ele>
        <time>2020-02-01T12:16:34.000Z</time>
      </trkpt>
      <trkpt lat="42.83791" lon="0.49832">
        <ele>1930</ele>
        <time>2020-02-01T12:16:35.000Z</time>
      </trkpt>
      <trkpt lat="42.83791" lon="0.49831">
        <ele>1930</ele>
        <time>2020-02-01T12:16:36.000Z</time>
      </trkpt>
      <trkpt lat="42.83791" lon="0.4983">
        <ele>1930</ele>
        <time>2020-02-01T12:16:37.000Z</time>
      </trkpt>
      <trkpt lat="42.83792" lon="0.49829">
        <ele>1930</ele>
        <time>2020-02-01T12:16:38.000Z</time>
      </trkpt>
      <trkpt lat="42.83792" lon="0.49828">
        <ele>1930</ele>
        <time>2020-02-01T12:16:39.000Z</time>
      </trkpt>
      <trkpt lat="42.83792" lon="0.49827">
        <ele>1930</ele>
        <time>2020-02-01T12:16:40.000Z</time>
      </trkpt>
      <trkpt lat="42.83793" lon="0.49825">
        <ele>1930</ele>
        <time>2020-02-01T12:16:41.000Z</time>
      </trkpt>
      <trkpt lat="42.83793" lon="0.49824">
        <ele>1930</ele>
        <time>2020-02-01T12:16:42.000Z</time>
      </trkpt>
      <trkpt lat="42.83793" lon="0.49823">
        <ele>1930</ele>
        <time>2020-02-01T12:16:43.000Z</time>
      </trkpt>
      <trkpt lat="42.83794" lon="0.49822">
        <ele>1930</ele>
        <time>2020-02-01T12:16:44.000Z</time>
      </trkpt>
      <trkpt lat="42.83794" lon="0.49821">
        <ele>1930</ele>
        <time>2020-02-01T12:16:45.000Z</time>
      </trkpt>
      <trkpt lat="42.83794" lon="0.49819">
        <ele>1930</ele>
        <time>2020-02-01T12:16:46.000Z</time>
      </trkpt>
      <trkpt lat="42.83795" lon="0.49818">
        <ele>1930</ele>
        <time>2020-02-01T12:16:47.000Z</time>
      </trkpt>
      <trkpt lat="42.83795" lon="0.49817">
        <ele>1930</ele>
        <time>2020-02-01T12:16:48.000Z</time>
      </trkpt>
      <trkpt lat="42.83796" lon="0.49816">
        <ele>1930</ele>
        <time>2020-02-01T12:16:49.000Z</time>
      </trkpt>
      <trkpt lat="42.83796" lon="0.49814">
        <ele>1930</ele>
        <time>2020-02-01T12:16:50.000Z</time>
      </trkpt>
      <trkpt lat="42.83797" lon="0.49813">
        <ele>1930</ele>
        <time>2020-02-01T12:16:51.000Z</time>
      </trkpt>
      <trkpt lat="42.83797" lon="0.49812">
        <ele>1930</ele>
        <time>2020-02-01T12:16:52.000Z</time>
      </trkpt>
      <trkpt lat="42.83798" lon="0.49811">
        <ele>1930</ele>
        <time>2020-02-01T12:16:53.000Z</time>
      </trkpt>
      <trkpt lat="42.83798" lon="0.4981">
        <ele>1930</ele>
        <time>2020-02-01T12:16:54.000Z</time>
      </trkpt>
      <trkpt lat="42.83799" lon="0.49809">
        <ele>1930.3</ele>
        <time>2020-02-01T12:16:55.000Z</time>
      </trkpt>
      <trkpt lat="42.83799" lon="0.49807">
        <ele>1930.7</ele>
        <time>2020-02-01T12:16:56.000Z</time>
      </trkpt>
      <trkpt lat="42.838" lon="0.49806">
        <ele>1931</ele>
        <time>2020-02-01T12:16:57.000Z</time>
      </trkpt>
      <trkpt lat="42.838" lon="0.49805">
        <ele>1931</ele>
        <time>2020-02-01T12:16:58.000Z</time>
      </trkpt>
      <trkpt lat="42.838" lon="0.49804">
        <ele>1931</ele>
        <time>2020-02-01T12:16:59.000Z</time>
      </trkpt>
      <trkpt lat="42.83801" lon="0.49803">
        <ele>1931</ele>
        <time>2020-02-01T12:17:00.000Z</time>
      </trkpt>
      <trkpt lat="42.83801" lon="0.49802">
        <ele>1931</ele>
        <time>2020-02-01T12:17:01.000Z</time>
      </trkpt>
      <trkpt lat="42.83801" lon="0.49801">
        <ele>1931</ele>
        <time>2020-02-01T12:17:02.000Z</time>
      </trkpt>
      <trkpt lat="42.83801" lon="0.498">
        <ele>1931</ele>
        <time>2020-02-01T12:17:03.000Z</time>
      </trkpt>
      <trkpt lat="42.83801" lon="0.49799">
        <ele>1931</ele>
        <time>2020-02-01T12:17:04.000Z</time>
      </trkpt>
      <trkpt lat="42.83801" lon="0.49797">
        <ele>1931</ele>
        <time>2020-02-01T12:17:05.000Z</time>
      </trkpt>
      <trkpt lat="42.83802" lon="0.49796">
        <ele>1931</ele>
        <time>2020-02-01T12:17:06.000Z</time>
      </trkpt>
      <trkpt lat="42.83802" lon="0.49795">
        <ele>1931</ele>
        <time>2020-02-01T12:17:07.000Z</time>
      </trkpt>
      <trkpt lat="42.83803" lon="0.49794">
        <ele>1931</ele>
        <time>2020-02-01T12:17:08.000Z</time>
      </trkpt>
      <trkpt lat="42.83804" lon="0.49793">
        <ele>1931</ele>
        <time>2020-02-01T12:17:09.000Z</time>
      </trkpt>
      <trkpt lat="42.83805" lon="0.49792">
        <ele>1931</ele>
        <time>2020-02-01T12:17:10.000Z</time>
      </trkpt>
      <trkpt lat="42.83806" lon="0.49791">
        <ele>1931</ele>
        <time>2020-02-01T12:17:11.000Z</time>
      </trkpt>
      <trkpt lat="42.83807" lon="0.4979">
        <ele>1931</ele>
        <time>2020-02-01T12:17:12.000Z</time>
      </trkpt>
      <trkpt lat="42.83808" lon="0.49789">
        <ele>1931</ele>
        <time>2020-02-01T12:17:13.000Z</time>
      </trkpt>
      <trkpt lat="42.83808" lon="0.49788">
        <ele>1931</ele>
        <time>2020-02-01T12:17:14.000Z</time>
      </trkpt>
      <trkpt lat="42.83809" lon="0.49788">
        <ele>1931</ele>
        <time>2020-02-01T12:17:15.000Z</time>
      </trkpt>
      <trkpt lat="42.8381" lon="0.49787">
        <ele>1931</ele>
        <time>2020-02-01T12:17:16.000Z</time>
      </trkpt>
      <trkpt lat="42.83811" lon="0.49786">
        <ele>1931</ele>
        <time>2020-02-01T12:17:17.000Z</time>
      </trkpt>
      <trkpt lat="42.83811" lon="0.49784">
        <ele>1931</ele>
        <time>2020-02-01T12:17:18.000Z</time>
      </trkpt>
      <trkpt lat="42.83812" lon="0.49783">
        <ele>1931</ele>
        <time>2020-02-01T12:17:19.000Z</time>
      </trkpt>
      <trkpt lat="42.83813" lon="0.49782">
        <ele>1931</ele>
        <time>2020-02-01T12:17:20.000Z</time>
      </trkpt>
      <trkpt lat="42.83813" lon="0.49781">
        <ele>1931</ele>
        <time>2020-02-01T12:17:21.000Z</time>
      </trkpt>
      <trkpt lat="42.83814" lon="0.4978">
        <ele>1931</ele>
        <time>2020-02-01T12:17:22.000Z</time>
      </trkpt>
      <trkpt lat="42.83815" lon="0.49779">
        <ele>1931</ele>
        <time>2020-02-01T12:17:23.000Z</time>
      </trkpt>
      <trkpt lat="42.83815" lon="0.49778">
        <ele>1931</ele>
        <time>2020-02-01T12:17:24.000Z</time>
      </trkpt>
      <trkpt lat="42.83816" lon="0.49777">
        <ele>1931</ele>
        <time>2020-02-01T12:17:25.000Z</time>
      </trkpt>
      <trkpt lat="42.83817" lon="0.49775">
        <ele>1931</ele>
        <time>2020-02-01T12:17:26.000Z</time>
      </trkpt>
      <trkpt lat="42.83817" lon="0.49774">
        <ele>1931</ele>
        <time>2020-02-01T12:17:27.000Z</time>
      </trkpt>
      <trkpt lat="42.83818" lon="0.49773">
        <ele>1931</ele>
        <time>2020-02-01T12:17:28.000Z</time>
      </trkpt>
      <trkpt lat="42.83819" lon="0.49772">
        <ele>1931</ele>
        <time>2020-02-01T12:17:29.000Z</time>
      </trkpt>
      <trkpt lat="42.8382" lon="0.49771">
        <ele>1931</ele>
        <time>2020-02-01T12:17:30.000Z</time>
      </trkpt>
      <trkpt lat="42.8382" lon="0.4977">
        <ele>1931</ele>
        <time>2020-02-01T12:17:31.000Z</time>
      </trkpt>
      <trkpt lat="42.83821" lon="0.49769">
        <ele>1931</ele>
        <time>2020-02-01T12:17:32.000Z</time>
      </trkpt>
      <trkpt lat="42.83822" lon="0.49768">
        <ele>1931</ele>
        <time>2020-02-01T12:17:33.000Z</time>
      </trkpt>
      <trkpt lat="42.83822" lon="0.49768">
        <ele>1931</ele>
        <time>2020-02-01T12:17:34.000Z</time>
      </trkpt>
      <trkpt lat="42.83823" lon="0.49767">
        <ele>1931</ele>
        <time>2020-02-01T12:17:35.000Z</time>
      </trkpt>
      <trkpt lat="42.83823" lon="0.49766">
        <ele>1931</ele>
        <time>2020-02-01T12:17:36.000Z</time>
      </trkpt>
      <trkpt lat="42.83824" lon="0.49765">
        <ele>1931</ele>
        <time>2020-02-01T12:17:37.000Z</time>
      </trkpt>
      <trkpt lat="42.83824" lon="0.49764">
        <ele>1931</ele>
        <time>2020-02-01T12:17:38.000Z</time>
      </trkpt>
      <trkpt lat="42.83825" lon="0.49763">
        <ele>1931</ele>
        <time>2020-02-01T12:17:39.000Z</time>
      </trkpt>
      <trkpt lat="42.83825" lon="0.49762">
        <ele>1931</ele>
        <time>2020-02-01T12:17:40.000Z</time>
      </trkpt>
      <trkpt lat="42.83826" lon="0.49761">
        <ele>1931</ele>
        <time>2020-02-01T12:17:41.000Z</time>
      </trkpt>
      <trkpt lat="42.83827" lon="0.49761">
        <ele>1930.5</ele>
        <time>2020-02-01T12:17:42.000Z</time>
      </trkpt>
      <trkpt lat="42.83828" lon="0.4976">
        <ele>1930</ele>
        <time>2020-02-01T12:17:43.000Z</time>
      </trkpt>
      <trkpt lat="42.83828" lon="0.49759">
        <ele>1930</ele>
        <time>2020-02-01T12:17:44.000Z</time>
      </trkpt>
      <trkpt lat="42.83829" lon="0.49758">
        <ele>1930</ele>
        <time>2020-02-01T12:17:45.000Z</time>
      </trkpt>
      <trkpt lat="42.8383" lon="0.49758">
        <ele>1930</ele>
        <time>2020-02-01T12:17:46.000Z</time>
      </trkpt>
      <trkpt lat="42.83831" lon="0.49757">
        <ele>1930</ele>
        <time>2020-02-01T12:17:47.000Z</time>
      </trkpt>
      <trkpt lat="42.83832" lon="0.49756">
        <ele>1930</ele>
        <time>2020-02-01T12:17:48.000Z</time>
      </trkpt>
      <trkpt lat="42.83833" lon="0.49755">
        <ele>1930</ele>
        <time>2020-02-01T12:17:49.000Z</time>
      </trkpt>
      <trkpt lat="42.83833" lon="0.49755">
        <ele>1930</ele>
        <time>2020-02-01T12:17:50.000Z</time>
      </trkpt>
      <trkpt lat="42.83834" lon="0.49754">
        <ele>1930</ele>
        <time>2020-02-01T12:17:51.000Z</time>
      </trkpt>
      <trkpt lat="42.83835" lon="0.49753">
        <ele>1930</ele>
        <time>2020-02-01T12:17:52.000Z</time>
      </trkpt>
      <trkpt lat="42.83835" lon="0.49752">
        <ele>1930</ele>
        <time>2020-02-01T12:17:53.000Z</time>
      </trkpt>
      <trkpt lat="42.83836" lon="0.49751">
        <ele>1930</ele>
        <time>2020-02-01T12:17:54.000Z</time>
      </trkpt>
      <trkpt lat="42.83837" lon="0.4975">
        <ele>1930</ele>
        <time>2020-02-01T12:17:55.000Z</time>
      </trkpt>
      <trkpt lat="42.83837" lon="0.49749">
        <ele>1930</ele>
        <time>2020-02-01T12:17:56.000Z</time>
      </trkpt>
      <trkpt lat="42.83838" lon="0.49748">
        <ele>1930</ele>
        <time>2020-02-01T12:17:57.000Z</time>
      </trkpt>
      <trkpt lat="42.83839" lon="0.49747">
        <ele>1930</ele>
        <time>2020-02-01T12:17:58.000Z</time>
      </trkpt>
      <trkpt lat="42.8384" lon="0.49746">
        <ele>1930</ele>
        <time>2020-02-01T12:17:59.000Z</time>
      </trkpt>
      <trkpt lat="42.8384" lon="0.49745">
        <ele>1930</ele>
        <time>2020-02-01T12:18:00.000Z</time>
      </trkpt>
      <trkpt lat="42.83841" lon="0.49744">
        <ele>1930</ele>
        <time>2020-02-01T12:18:01.000Z</time>
      </trkpt>
      <trkpt lat="42.83842" lon="0.49743">
        <ele>1930</ele>
        <time>2020-02-01T12:18:02.000Z</time>
      </trkpt>
      <trkpt lat="42.83843" lon="0.49742">
        <ele>1930</ele>
        <time>2020-02-01T12:18:03.000Z</time>
      </trkpt>
      <trkpt lat="42.83843" lon="0.49741">
        <ele>1930.5</ele>
        <time>2020-02-01T12:18:04.000Z</time>
      </trkpt>
      <trkpt lat="42.83844" lon="0.4974">
        <ele>1931</ele>
        <time>2020-02-01T12:18:05.000Z</time>
      </trkpt>
      <trkpt lat="42.83844" lon="0.49739">
        <ele>1931</ele>
        <time>2020-02-01T12:18:06.000Z</time>
      </trkpt>
      <trkpt lat="42.83844" lon="0.49738">
        <ele>1931</ele>
        <time>2020-02-01T12:18:07.000Z</time>
      </trkpt>
      <trkpt lat="42.83845" lon="0.49737">
        <ele>1931</ele>
        <time>2020-02-01T12:18:08.000Z</time>
      </trkpt>
      <trkpt lat="42.83845" lon="0.49736">
        <ele>1931</ele>
        <time>2020-02-01T12:18:09.000Z</time>
      </trkpt>
      <trkpt lat="42.83846" lon="0.49735">
        <ele>1931</ele>
        <time>2020-02-01T12:18:10.000Z</time>
      </trkpt>
      <trkpt lat="42.83846" lon="0.49734">
        <ele>1931</ele>
        <time>2020-02-01T12:18:11.000Z</time>
      </trkpt>
      <trkpt lat="42.83847" lon="0.49733">
        <ele>1931</ele>
        <time>2020-02-01T12:18:12.000Z</time>
      </trkpt>
      <trkpt lat="42.83847" lon="0.49732">
        <ele>1931</ele>
        <time>2020-02-01T12:18:13.000Z</time>
      </trkpt>
      <trkpt lat="42.83848" lon="0.49731">
        <ele>1931</ele>
        <time>2020-02-01T12:18:14.000Z</time>
      </trkpt>
      <trkpt lat="42.83848" lon="0.4973">
        <ele>1931</ele>
        <time>2020-02-01T12:18:15.000Z</time>
      </trkpt>
      <trkpt lat="42.83849" lon="0.49729">
        <ele>1931</ele>
        <time>2020-02-01T12:18:16.000Z</time>
      </trkpt>
      <trkpt lat="42.8385" lon="0.49728">
        <ele>1931</ele>
        <time>2020-02-01T12:18:17.000Z</time>
      </trkpt>
      <trkpt lat="42.83851" lon="0.49727">
        <ele>1931</ele>
        <time>2020-02-01T12:18:18.000Z</time>
      </trkpt>
      <trkpt lat="42.83851" lon="0.49725">
        <ele>1931</ele>
        <time>2020-02-01T12:18:19.000Z</time>
      </trkpt>
      <trkpt lat="42.83852" lon="0.49724">
        <ele>1931</ele>
        <time>2020-02-01T12:18:20.000Z</time>
      </trkpt>
      <trkpt lat="42.83853" lon="0.49723">
        <ele>1931</ele>
        <time>2020-02-01T12:18:21.000Z</time>
      </trkpt>
      <trkpt lat="42.83853" lon="0.49722">
        <ele>1931</ele>
        <time>2020-02-01T12:18:22.000Z</time>
      </trkpt>
      <trkpt lat="42.83854" lon="0.4972">
        <ele>1931</ele>
        <time>2020-02-01T12:18:23.000Z</time>
      </trkpt>
      <trkpt lat="42.83855" lon="0.49719">
        <ele>1931</ele>
        <time>2020-02-01T12:18:24.000Z</time>
      </trkpt>
      <trkpt lat="42.83855" lon="0.49718">
        <ele>1931</ele>
        <time>2020-02-01T12:18:25.000Z</time>
      </trkpt>
      <trkpt lat="42.83856" lon="0.49717">
        <ele>1931</ele>
        <time>2020-02-01T12:18:26.000Z</time>
      </trkpt>
      <trkpt lat="42.83857" lon="0.49715">
        <ele>1931</ele>
        <time>2020-02-01T12:18:27.000Z</time>
      </trkpt>
      <trkpt lat="42.83857" lon="0.49714">
        <ele>1931</ele>
        <time>2020-02-01T12:18:28.000Z</time>
      </trkpt>
      <trkpt lat="42.83858" lon="0.49713">
        <ele>1931</ele>
        <time>2020-02-01T12:18:29.000Z</time>
      </trkpt>
      <trkpt lat="42.83859" lon="0.49712">
        <ele>1931</ele>
        <time>2020-02-01T12:18:30.000Z</time>
      </trkpt>
      <trkpt lat="42.8386" lon="0.49711">
        <ele>1931</ele>
        <time>2020-02-01T12:18:31.000Z</time>
      </trkpt>
      <trkpt lat="42.8386" lon="0.4971">
        <ele>1931</ele>
        <time>2020-02-01T12:18:32.000Z</time>
      </trkpt>
      <trkpt lat="42.83861" lon="0.49709">
        <ele>1931</ele>
        <time>2020-02-01T12:18:33.000Z</time>
      </trkpt>
      <trkpt lat="42.83862" lon="0.49707">
        <ele>1931</ele>
        <time>2020-02-01T12:18:34.000Z</time>
      </trkpt>
      <trkpt lat="42.83862" lon="0.49706">
        <ele>1931</ele>
        <time>2020-02-01T12:18:35.000Z</time>
      </trkpt>
      <trkpt lat="42.83863" lon="0.49705">
        <ele>1931</ele>
        <time>2020-02-01T12:18:36.000Z</time>
      </trkpt>
      <trkpt lat="42.83863" lon="0.49703">
        <ele>1931</ele>
        <time>2020-02-01T12:18:37.000Z</time>
      </trkpt>
      <trkpt lat="42.83864" lon="0.49702">
        <ele>1931</ele>
        <time>2020-02-01T12:18:38.000Z</time>
      </trkpt>
      <trkpt lat="42.83865" lon="0.497">
        <ele>1931</ele>
        <time>2020-02-01T12:18:39.000Z</time>
      </trkpt>
      <trkpt lat="42.83865" lon="0.49699">
        <ele>1931</ele>
        <time>2020-02-01T12:18:40.000Z</time>
      </trkpt>
      <trkpt lat="42.83866" lon="0.49698">
        <ele>1931</ele>
        <time>2020-02-01T12:18:41.000Z</time>
      </trkpt>
      <trkpt lat="42.83866" lon="0.49696">
        <ele>1931</ele>
        <time>2020-02-01T12:18:42.000Z</time>
      </trkpt>
      <trkpt lat="42.83867" lon="0.49695">
        <ele>1931</ele>
        <time>2020-02-01T12:18:43.000Z</time>
      </trkpt>
      <trkpt lat="42.83867" lon="0.49694">
        <ele>1931</ele>
        <time>2020-02-01T12:18:44.000Z</time>
      </trkpt>
      <trkpt lat="42.83868" lon="0.49693">
        <ele>1931</ele>
        <time>2020-02-01T12:18:45.000Z</time>
      </trkpt>
      <trkpt lat="42.83868" lon="0.49692">
        <ele>1930.5</ele>
        <time>2020-02-01T12:18:46.000Z</time>
      </trkpt>
      <trkpt lat="42.83869" lon="0.4969">
        <ele>1930</ele>
        <time>2020-02-01T12:18:47.000Z</time>
      </trkpt>
      <trkpt lat="42.8387" lon="0.49689">
        <ele>1930</ele>
        <time>2020-02-01T12:18:48.000Z</time>
      </trkpt>
      <trkpt lat="42.8387" lon="0.49688">
        <ele>1930</ele>
        <time>2020-02-01T12:18:49.000Z</time>
      </trkpt>
      <trkpt lat="42.83871" lon="0.49687">
        <ele>1930</ele>
        <time>2020-02-01T12:18:50.000Z</time>
      </trkpt>
      <trkpt lat="42.83872" lon="0.49686">
        <ele>1930</ele>
        <time>2020-02-01T12:18:51.000Z</time>
      </trkpt>
      <trkpt lat="42.83872" lon="0.49684">
        <ele>1930</ele>
        <time>2020-02-01T12:18:52.000Z</time>
      </trkpt>
      <trkpt lat="42.83873" lon="0.49683">
        <ele>1930</ele>
        <time>2020-02-01T12:18:53.000Z</time>
      </trkpt>
      <trkpt lat="42.83874" lon="0.49682">
        <ele>1930</ele>
        <time>2020-02-01T12:18:54.000Z</time>
      </trkpt>
      <trkpt lat="42.83874" lon="0.49681">
        <ele>1930</ele>
        <time>2020-02-01T12:18:55.000Z</time>
      </trkpt>
      <trkpt lat="42.83875" lon="0.4968">
        <ele>1930</ele>
        <time>2020-02-01T12:18:56.000Z</time>
      </trkpt>
      <trkpt lat="42.83875" lon="0.49679">
        <ele>1930</ele>
        <time>2020-02-01T12:18:57.000Z</time>
      </trkpt>
      <trkpt lat="42.83876" lon="0.49677">
        <ele>1930</ele>
        <time>2020-02-01T12:18:58.000Z</time>
      </trkpt>
      <trkpt lat="42.83876" lon="0.49676">
        <ele>1930</ele>
        <time>2020-02-01T12:18:59.000Z</time>
      </trkpt>
      <trkpt lat="42.83877" lon="0.49675">
        <ele>1930</ele>
        <time>2020-02-01T12:19:00.000Z</time>
      </trkpt>
      <trkpt lat="42.83878" lon="0.49674">
        <ele>1930</ele>
        <time>2020-02-01T12:19:01.000Z</time>
      </trkpt>
      <trkpt lat="42.83879" lon="0.49673">
        <ele>1929</ele>
        <time>2020-02-01T12:19:02.000Z</time>
      </trkpt>
      <trkpt lat="42.8388" lon="0.49672">
        <ele>1929</ele>
        <time>2020-02-01T12:19:03.000Z</time>
      </trkpt>
      <trkpt lat="42.83881" lon="0.49671">
        <ele>1929</ele>
        <time>2020-02-01T12:19:04.000Z</time>
      </trkpt>
      <trkpt lat="42.83881" lon="0.4967">
        <ele>1929</ele>
        <time>2020-02-01T12:19:05.000Z</time>
      </trkpt>
      <trkpt lat="42.83882" lon="0.49669">
        <ele>1929</ele>
        <time>2020-02-01T12:19:06.000Z</time>
      </trkpt>
      <trkpt lat="42.83883" lon="0.49668">
        <ele>1929.3</ele>
        <time>2020-02-01T12:19:07.000Z</time>
      </trkpt>
      <trkpt lat="42.83884" lon="0.49667">
        <ele>1929.7</ele>
        <time>2020-02-01T12:19:08.000Z</time>
      </trkpt>
      <trkpt lat="42.83884" lon="0.49666">
        <ele>1930</ele>
        <time>2020-02-01T12:19:09.000Z</time>
      </trkpt>
      <trkpt lat="42.83885" lon="0.49665">
        <ele>1929</ele>
        <time>2020-02-01T12:19:10.000Z</time>
      </trkpt>
      <trkpt lat="42.83886" lon="0.49664">
        <ele>1929</ele>
        <time>2020-02-01T12:19:11.000Z</time>
      </trkpt>
      <trkpt lat="42.83887" lon="0.49663">
        <ele>1929</ele>
        <time>2020-02-01T12:19:12.000Z</time>
      </trkpt>
      <trkpt lat="42.83887" lon="0.49662">
        <ele>1929</ele>
        <time>2020-02-01T12:19:13.000Z</time>
      </trkpt>
      <trkpt lat="42.83888" lon="0.49661">
        <ele>1929</ele>
        <time>2020-02-01T12:19:14.000Z</time>
      </trkpt>
      <trkpt lat="42.83889" lon="0.4966">
        <ele>1929</ele>
        <time>2020-02-01T12:19:15.000Z</time>
      </trkpt>
      <trkpt lat="42.83889" lon="0.49659">
        <ele>1929</ele>
        <time>2020-02-01T12:19:16.000Z</time>
      </trkpt>
      <trkpt lat="42.8389" lon="0.49658">
        <ele>1929</ele>
        <time>2020-02-01T12:19:17.000Z</time>
      </trkpt>
      <trkpt lat="42.83891" lon="0.49657">
        <ele>1929</ele>
        <time>2020-02-01T12:19:18.000Z</time>
      </trkpt>
      <trkpt lat="42.83891" lon="0.49656">
        <ele>1929</ele>
        <time>2020-02-01T12:19:19.000Z</time>
      </trkpt>
      <trkpt lat="42.83892" lon="0.49655">
        <ele>1929</ele>
        <time>2020-02-01T12:19:20.000Z</time>
      </trkpt>
      <trkpt lat="42.83892" lon="0.49654">
        <ele>1929</ele>
        <time>2020-02-01T12:19:21.000Z</time>
      </trkpt>
      <trkpt lat="42.83893" lon="0.49653">
        <ele>1929</ele>
        <time>2020-02-01T12:19:22.000Z</time>
      </trkpt>
      <trkpt lat="42.83893" lon="0.49652">
        <ele>1929</ele>
        <time>2020-02-01T12:19:23.000Z</time>
      </trkpt>
      <trkpt lat="42.83894" lon="0.49651">
        <ele>1929</ele>
        <time>2020-02-01T12:19:24.000Z</time>
      </trkpt>
      <trkpt lat="42.83894" lon="0.4965">
        <ele>1929</ele>
        <time>2020-02-01T12:19:25.000Z</time>
      </trkpt>
      <trkpt lat="42.83895" lon="0.49648">
        <ele>1929</ele>
        <time>2020-02-01T12:19:26.000Z</time>
      </trkpt>
      <trkpt lat="42.83896" lon="0.49647">
        <ele>1929</ele>
        <time>2020-02-01T12:19:27.000Z</time>
      </trkpt>
      <trkpt lat="42.83896" lon="0.49646">
        <ele>1929</ele>
        <time>2020-02-01T12:19:28.000Z</time>
      </trkpt>
      <trkpt lat="42.83897" lon="0.49644">
        <ele>1928.7</ele>
        <time>2020-02-01T12:19:29.000Z</time>
      </trkpt>
      <trkpt lat="42.83898" lon="0.49643">
        <ele>1928.3</ele>
        <time>2020-02-01T12:19:30.000Z</time>
      </trkpt>
      <trkpt lat="42.83899" lon="0.49641">
        <ele>1928</ele>
        <time>2020-02-01T12:19:31.000Z</time>
      </trkpt>
      <trkpt lat="42.83899" lon="0.4964">
        <ele>1928</ele>
        <time>2020-02-01T12:19:32.000Z</time>
      </trkpt>
      <trkpt lat="42.839" lon="0.49639">
        <ele>1928</ele>
        <time>2020-02-01T12:19:33.000Z</time>
      </trkpt>
      <trkpt lat="42.83901" lon="0.49638">
        <ele>1928</ele>
        <time>2020-02-01T12:19:34.000Z</time>
      </trkpt>
      <trkpt lat="42.83901" lon="0.49636">
        <ele>1928</ele>
        <time>2020-02-01T12:19:35.000Z</time>
      </trkpt>
      <trkpt lat="42.83902" lon="0.49635">
        <ele>1928</ele>
        <time>2020-02-01T12:19:36.000Z</time>
      </trkpt>
      <trkpt lat="42.83903" lon="0.49634">
        <ele>1928</ele>
        <time>2020-02-01T12:19:37.000Z</time>
      </trkpt>
      <trkpt lat="42.83903" lon="0.49633">
        <ele>1928</ele>
        <time>2020-02-01T12:19:38.000Z</time>
      </trkpt>
      <trkpt lat="42.83904" lon="0.49632">
        <ele>1928</ele>
        <time>2020-02-01T12:19:39.000Z</time>
      </trkpt>
      <trkpt lat="42.83905" lon="0.4963">
        <ele>1928</ele>
        <time>2020-02-01T12:19:40.000Z</time>
      </trkpt>
      <trkpt lat="42.83906" lon="0.49629">
        <ele>1928</ele>
        <time>2020-02-01T12:19:41.000Z</time>
      </trkpt>
      <trkpt lat="42.83906" lon="0.49628">
        <ele>1928</ele>
        <time>2020-02-01T12:19:42.000Z</time>
      </trkpt>
      <trkpt lat="42.83907" lon="0.49627">
        <ele>1928</ele>
        <time>2020-02-01T12:19:43.000Z</time>
      </trkpt>
      <trkpt lat="42.83908" lon="0.49626">
        <ele>1928</ele>
        <time>2020-02-01T12:19:44.000Z</time>
      </trkpt>
      <trkpt lat="42.83909" lon="0.49625">
        <ele>1928</ele>
        <time>2020-02-01T12:19:45.000Z</time>
      </trkpt>
      <trkpt lat="42.8391" lon="0.49624">
        <ele>1927</ele>
        <time>2020-02-01T12:19:46.000Z</time>
      </trkpt>
      <trkpt lat="42.83911" lon="0.49623">
        <ele>1927</ele>
        <time>2020-02-01T12:19:47.000Z</time>
      </trkpt>
      <trkpt lat="42.83911" lon="0.49622">
        <ele>1927</ele>
        <time>2020-02-01T12:19:48.000Z</time>
      </trkpt>
      <trkpt lat="42.83912" lon="0.49621">
        <ele>1927</ele>
        <time>2020-02-01T12:19:49.000Z</time>
      </trkpt>
      <trkpt lat="42.83913" lon="0.4962">
        <ele>1927</ele>
        <time>2020-02-01T12:19:50.000Z</time>
      </trkpt>
      <trkpt lat="42.83914" lon="0.49619">
        <ele>1927</ele>
        <time>2020-02-01T12:19:51.000Z</time>
      </trkpt>
      <trkpt lat="42.83914" lon="0.49618">
        <ele>1927</ele>
        <time>2020-02-01T12:19:52.000Z</time>
      </trkpt>
      <trkpt lat="42.83915" lon="0.49617">
        <ele>1927</ele>
        <time>2020-02-01T12:19:53.000Z</time>
      </trkpt>
      <trkpt lat="42.83916" lon="0.49616">
        <ele>1927</ele>
        <time>2020-02-01T12:19:54.000Z</time>
      </trkpt>
      <trkpt lat="42.83917" lon="0.49616">
        <ele>1927</ele>
        <time>2020-02-01T12:19:55.000Z</time>
      </trkpt>
      <trkpt lat="42.83917" lon="0.49615">
        <ele>1927</ele>
        <time>2020-02-01T12:19:56.000Z</time>
      </trkpt>
      <trkpt lat="42.83918" lon="0.49614">
        <ele>1927</ele>
        <time>2020-02-01T12:19:57.000Z</time>
      </trkpt>
      <trkpt lat="42.83919" lon="0.49613">
        <ele>1926</ele>
        <time>2020-02-01T12:19:58.000Z</time>
      </trkpt>
      <trkpt lat="42.8392" lon="0.49612">
        <ele>1926</ele>
        <time>2020-02-01T12:19:59.000Z</time>
      </trkpt>
      <trkpt lat="42.83921" lon="0.49611">
        <ele>1926</ele>
        <time>2020-02-01T12:20:00.000Z</time>
      </trkpt>
      <trkpt lat="42.83922" lon="0.49609">
        <ele>1926</ele>
        <time>2020-02-01T12:20:01.000Z</time>
      </trkpt>
      <trkpt lat="42.83923" lon="0.49607">
        <ele>1926</ele>
        <time>2020-02-01T12:20:02.000Z</time>
      </trkpt>
      <trkpt lat="42.83924" lon="0.49606">
        <ele>1926</ele>
        <time>2020-02-01T12:20:03.000Z</time>
      </trkpt>
      <trkpt lat="42.83925" lon="0.49605">
        <ele>1926</ele>
        <time>2020-02-01T12:20:04.000Z</time>
      </trkpt>
      <trkpt lat="42.83925" lon="0.49603">
        <ele>1926</ele>
        <time>2020-02-01T12:20:05.000Z</time>
      </trkpt>
      <trkpt lat="42.83926" lon="0.49602">
        <ele>1926</ele>
        <time>2020-02-01T12:20:06.000Z</time>
      </trkpt>
      <trkpt lat="42.83927" lon="0.49601">
        <ele>1926</ele>
        <time>2020-02-01T12:20:07.000Z</time>
      </trkpt>
      <trkpt lat="42.83928" lon="0.496">
        <ele>1925</ele>
        <time>2020-02-01T12:20:08.000Z</time>
      </trkpt>
      <trkpt lat="42.83929" lon="0.49599">
        <ele>1925</ele>
        <time>2020-02-01T12:20:09.000Z</time>
      </trkpt>
      <trkpt lat="42.8393" lon="0.49598">
        <ele>1925</ele>
        <time>2020-02-01T12:20:10.000Z</time>
      </trkpt>
      <trkpt lat="42.83931" lon="0.49597">
        <ele>1925</ele>
        <time>2020-02-01T12:20:11.000Z</time>
      </trkpt>
      <trkpt lat="42.83932" lon="0.49596">
        <ele>1925</ele>
        <time>2020-02-01T12:20:12.000Z</time>
      </trkpt>
      <trkpt lat="42.83933" lon="0.49595">
        <ele>1925</ele>
        <time>2020-02-01T12:20:13.000Z</time>
      </trkpt>
      <trkpt lat="42.83933" lon="0.49594">
        <ele>1925</ele>
        <time>2020-02-01T12:20:14.000Z</time>
      </trkpt>
      <trkpt lat="42.83934" lon="0.49592">
        <ele>1925</ele>
        <time>2020-02-01T12:20:15.000Z</time>
      </trkpt>
      <trkpt lat="42.83935" lon="0.49591">
        <ele>1925</ele>
        <time>2020-02-01T12:20:16.000Z</time>
      </trkpt>
      <trkpt lat="42.83936" lon="0.4959">
        <ele>1925</ele>
        <time>2020-02-01T12:20:17.000Z</time>
      </trkpt>
      <trkpt lat="42.83936" lon="0.49589">
        <ele>1925</ele>
        <time>2020-02-01T12:20:18.000Z</time>
      </trkpt>
      <trkpt lat="42.83937" lon="0.49588">
        <ele>1924.7</ele>
        <time>2020-02-01T12:20:19.000Z</time>
      </trkpt>
      <trkpt lat="42.83938" lon="0.49587">
        <ele>1924.3</ele>
        <time>2020-02-01T12:20:20.000Z</time>
      </trkpt>
      <trkpt lat="42.83938" lon="0.49586">
        <ele>1924</ele>
        <time>2020-02-01T12:20:21.000Z</time>
      </trkpt>
      <trkpt lat="42.83939" lon="0.49585">
        <ele>1924</ele>
        <time>2020-02-01T12:20:22.000Z</time>
      </trkpt>
      <trkpt lat="42.8394" lon="0.49584">
        <ele>1924</ele>
        <time>2020-02-01T12:20:23.000Z</time>
      </trkpt>
      <trkpt lat="42.83941" lon="0.49582">
        <ele>1924</ele>
        <time>2020-02-01T12:20:24.000Z</time>
      </trkpt>
      <trkpt lat="42.83942" lon="0.49581">
        <ele>1924</ele>
        <time>2020-02-01T12:20:25.000Z</time>
      </trkpt>
      <trkpt lat="42.83942" lon="0.4958">
        <ele>1924</ele>
        <time>2020-02-01T12:20:26.000Z</time>
      </trkpt>
      <trkpt lat="42.83943" lon="0.4958">
        <ele>1924</ele>
        <time>2020-02-01T12:20:27.000Z</time>
      </trkpt>
      <trkpt lat="42.83943" lon="0.49579">
        <ele>1924</ele>
        <time>2020-02-01T12:20:28.000Z</time>
      </trkpt>
      <trkpt lat="42.83944" lon="0.49578">
        <ele>1923.7</ele>
        <time>2020-02-01T12:20:29.000Z</time>
      </trkpt>
      <trkpt lat="42.83944" lon="0.49577">
        <ele>1923.3</ele>
        <time>2020-02-01T12:20:30.000Z</time>
      </trkpt>
      <trkpt lat="42.83945" lon="0.49576">
        <ele>1923</ele>
        <time>2020-02-01T12:20:31.000Z</time>
      </trkpt>
      <trkpt lat="42.83945" lon="0.49575">
        <ele>1923</ele>
        <time>2020-02-01T12:20:32.000Z</time>
      </trkpt>
      <trkpt lat="42.83946" lon="0.49573">
        <ele>1923</ele>
        <time>2020-02-01T12:20:33.000Z</time>
      </trkpt>
      <trkpt lat="42.83946" lon="0.49572">
        <ele>1923</ele>
        <time>2020-02-01T12:20:34.000Z</time>
      </trkpt>
      <trkpt lat="42.83947" lon="0.49571">
        <ele>1923</ele>
        <time>2020-02-01T12:20:35.000Z</time>
      </trkpt>
      <trkpt lat="42.83948" lon="0.49569">
        <ele>1923</ele>
        <time>2020-02-01T12:20:36.000Z</time>
      </trkpt>
      <trkpt lat="42.83948" lon="0.49568">
        <ele>1923</ele>
        <time>2020-02-01T12:20:37.000Z</time>
      </trkpt>
      <trkpt lat="42.83949" lon="0.49567">
        <ele>1923</ele>
        <time>2020-02-01T12:20:38.000Z</time>
      </trkpt>
      <trkpt lat="42.8395" lon="0.49566">
        <ele>1923</ele>
        <time>2020-02-01T12:20:39.000Z</time>
      </trkpt>
      <trkpt lat="42.83951" lon="0.49565">
        <ele>1923</ele>
        <time>2020-02-01T12:20:40.000Z</time>
      </trkpt>
      <trkpt lat="42.83951" lon="0.49564">
        <ele>1923</ele>
        <time>2020-02-01T12:20:41.000Z</time>
      </trkpt>
      <trkpt lat="42.83952" lon="0.49562">
        <ele>1922.5</ele>
        <time>2020-02-01T12:20:42.000Z</time>
      </trkpt>
      <trkpt lat="42.83953" lon="0.49561">
        <ele>1922</ele>
        <time>2020-02-01T12:20:43.000Z</time>
      </trkpt>
      <trkpt lat="42.83953" lon="0.4956">
        <ele>1922</ele>
        <time>2020-02-01T12:20:44.000Z</time>
      </trkpt>
      <trkpt lat="42.83954" lon="0.49559">
        <ele>1922</ele>
        <time>2020-02-01T12:20:45.000Z</time>
      </trkpt>
      <trkpt lat="42.83954" lon="0.49557">
        <ele>1922</ele>
        <time>2020-02-01T12:20:46.000Z</time>
      </trkpt>
      <trkpt lat="42.83955" lon="0.49556">
        <ele>1922</ele>
        <time>2020-02-01T12:20:47.000Z</time>
      </trkpt>
      <trkpt lat="42.83955" lon="0.49555">
        <ele>1922</ele>
        <time>2020-02-01T12:20:48.000Z</time>
      </trkpt>
      <trkpt lat="42.83956" lon="0.49553">
        <ele>1922</ele>
        <time>2020-02-01T12:20:49.000Z</time>
      </trkpt>
      <trkpt lat="42.83956" lon="0.49553">
        <ele>1921.5</ele>
        <time>2020-02-01T12:20:50.000Z</time>
      </trkpt>
      <trkpt lat="42.83956" lon="0.49552">
        <ele>1921</ele>
        <time>2020-02-01T12:20:51.000Z</time>
      </trkpt>
      <trkpt lat="42.83957" lon="0.49551">
        <ele>1921</ele>
        <time>2020-02-01T12:20:52.000Z</time>
      </trkpt>
      <trkpt lat="42.83957" lon="0.49551">
        <ele>1921</ele>
        <time>2020-02-01T12:20:53.000Z</time>
      </trkpt>
      <trkpt lat="42.83957" lon="0.49551">
        <ele>1921</ele>
        <time>2020-02-01T12:20:54.000Z</time>
      </trkpt>
      <trkpt lat="42.83957" lon="0.49551">
        <ele>1921</ele>
        <time>2020-02-01T12:20:55.000Z</time>
      </trkpt>
      <trkpt lat="42.83957" lon="0.49551">
        <ele>1921</ele>
        <time>2020-02-01T12:20:56.000Z</time>
      </trkpt>
      <trkpt lat="42.83957" lon="0.49551">
        <ele>1921</ele>
        <time>2020-02-01T12:20:57.000Z</time>
      </trkpt>
      <trkpt lat="42.83957" lon="0.49551">
        <ele>1921</ele>
        <time>2020-02-01T12:20:58.000Z</time>
      </trkpt>
      <trkpt lat="42.83957" lon="0.49551">
        <ele>1921</ele>
        <time>2020-02-01T12:20:59.000Z</time>
      </trkpt>
      <trkpt lat="42.83957" lon="0.49551">
        <ele>1921</ele>
        <time>2020-02-01T12:21:00.000Z</time>
      </trkpt>
      <trkpt lat="42.83957" lon="0.49551">
        <ele>1921</ele>
        <time>2020-02-01T12:21:01.000Z</time>
      </trkpt>
      <trkpt lat="42.83957" lon="0.49551">
        <ele>1921</ele>
        <time>2020-02-01T12:21:02.000Z</time>
      </trkpt>
      <trkpt lat="42.83957" lon="0.49551">
        <ele>1921</ele>
        <time>2020-02-01T12:21:03.000Z</time>
      </trkpt>
      <trkpt lat="42.83957" lon="0.49551">
        <ele>1921</ele>
        <time>2020-02-01T12:21:04.000Z</time>
      </trkpt>
      <trkpt lat="42.83958" lon="0.49551">
        <ele>1921</ele>
        <time>2020-02-01T12:21:05.000Z</time>
      </trkpt>
      <trkpt lat="42.83958" lon="0.49551">
        <ele>1920</ele>
        <time>2020-02-01T12:21:06.000Z</time>
      </trkpt>
      <trkpt lat="42.83958" lon="0.49551">
        <ele>1920.3</ele>
        <time>2020-02-01T12:21:07.000Z</time>
      </trkpt>
      <trkpt lat="42.83958" lon="0.4955">
        <ele>1920.7</ele>
        <time>2020-02-01T12:21:08.000Z</time>
      </trkpt>
      <trkpt lat="42.83958" lon="0.4955">
        <ele>1921</ele>
        <time>2020-02-01T12:21:09.000Z</time>
      </trkpt>
      <trkpt lat="42.83958" lon="0.4955">
        <ele>1921</ele>
        <time>2020-02-01T12:21:10.000Z</time>
      </trkpt>
      <trkpt lat="42.83958" lon="0.4955">
        <ele>1921</ele>
        <time>2020-02-01T12:21:11.000Z</time>
      </trkpt>
      <trkpt lat="42.83958" lon="0.4955">
        <ele>1921</ele>
        <time>2020-02-01T12:21:12.000Z</time>
      </trkpt>
      <trkpt lat="42.83958" lon="0.4955">
        <ele>1921</ele>
        <time>2020-02-01T12:21:13.000Z</time>
      </trkpt>
      <trkpt lat="42.83958" lon="0.4955">
        <ele>1921</ele>
        <time>2020-02-01T12:21:14.000Z</time>
      </trkpt>
      <trkpt lat="42.83958" lon="0.4955">
        <ele>1921</ele>
        <time>2020-02-01T12:21:15.000Z</time>
      </trkpt>
      <trkpt lat="42.83958" lon="0.4955">
        <ele>1921</ele>
        <time>2020-02-01T12:21:16.000Z</time>
      </trkpt>
      <trkpt lat="42.83958" lon="0.4955">
        <ele>1921</ele>
        <time>2020-02-01T12:21:17.000Z</time>
      </trkpt>
      <trkpt lat="42.83958" lon="0.4955">
        <ele>1921</ele>
        <time>2020-02-01T12:21:18.000Z</time>
      </trkpt>
      <trkpt lat="42.83958" lon="0.4955">
        <ele>1920.7</ele>
        <time>2020-02-01T12:21:19.000Z</time>
      </trkpt>
      <trkpt lat="42.83958" lon="0.4955">
        <ele>1920.3</ele>
        <time>2020-02-01T12:21:20.000Z</time>
      </trkpt>
      <trkpt lat="42.83958" lon="0.4955">
        <ele>1920</ele>
        <time>2020-02-01T12:21:21.000Z</time>
      </trkpt>
      <trkpt lat="42.83958" lon="0.4955">
        <ele>1920</ele>
        <time>2020-02-01T12:21:22.000Z</time>
      </trkpt>
      <trkpt lat="42.83958" lon="0.4955">
        <ele>1920</ele>
        <time>2020-02-01T12:21:23.000Z</time>
      </trkpt>
      <trkpt lat="42.83958" lon="0.4955">
        <ele>1920</ele>
        <time>2020-02-01T12:21:24.000Z</time>
      </trkpt>
      <trkpt lat="42.83958" lon="0.4955">
        <ele>1920</ele>
        <time>2020-02-01T12:21:25.000Z</time>
      </trkpt>
      <trkpt lat="42.83958" lon="0.49549">
        <ele>1920</ele>
        <time>2020-02-01T12:21:26.000Z</time>
      </trkpt>
      <trkpt lat="42.83958" lon="0.49549">
        <ele>1920</ele>
        <time>2020-02-01T12:21:27.000Z</time>
      </trkpt>
      <trkpt lat="42.83958" lon="0.4955">
        <ele>1920</ele>
        <time>2020-02-01T12:21:28.000Z</time>
      </trkpt>
      <trkpt lat="42.83958" lon="0.4955">
        <ele>1920</ele>
        <time>2020-02-01T12:21:29.000Z</time>
      </trkpt>
      <trkpt lat="42.83958" lon="0.4955">
        <ele>1920</ele>
        <time>2020-02-01T12:21:30.000Z</time>
      </trkpt>
      <trkpt lat="42.83958" lon="0.4955">
        <ele>1920</ele>
        <time>2020-02-01T12:21:31.000Z</time>
      </trkpt>
      <trkpt lat="42.83958" lon="0.49551">
        <ele>1920</ele>
        <time>2020-02-01T12:21:32.000Z</time>
      </trkpt>
      <trkpt lat="42.83958" lon="0.49551">
        <ele>1920</ele>
        <time>2020-02-01T12:21:33.000Z</time>
      </trkpt>
      <trkpt lat="42.83959" lon="0.49551">
        <ele>1920</ele>
        <time>2020-02-01T12:21:34.000Z</time>
      </trkpt>
      <trkpt lat="42.83959" lon="0.49551">
        <ele>1920</ele>
        <time>2020-02-01T12:21:35.000Z</time>
      </trkpt>
      <trkpt lat="42.83959" lon="0.49552">
        <ele>1920</ele>
        <time>2020-02-01T12:21:36.000Z</time>
      </trkpt>
      <trkpt lat="42.83959" lon="0.49552">
        <ele>1920</ele>
        <time>2020-02-01T12:21:37.000Z</time>
      </trkpt>
      <trkpt lat="42.83959" lon="0.49552">
        <ele>1920</ele>
        <time>2020-02-01T12:21:38.000Z</time>
      </trkpt>
      <trkpt lat="42.83959" lon="0.49552">
        <ele>1920</ele>
        <time>2020-02-01T12:21:39.000Z</time>
      </trkpt>
      <trkpt lat="42.83959" lon="0.49552">
        <ele>1920</ele>
        <time>2020-02-01T12:21:40.000Z</time>
      </trkpt>
      <trkpt lat="42.83959" lon="0.49552">
        <ele>1920</ele>
        <time>2020-02-01T12:21:41.000Z</time>
      </trkpt>
      <trkpt lat="42.83959" lon="0.49552">
        <ele>1920</ele>
        <time>2020-02-01T12:21:42.000Z</time>
      </trkpt>
      <trkpt lat="42.83959" lon="0.49552">
        <ele>1920</ele>
        <time>2020-02-01T12:21:43.000Z</time>
      </trkpt>
      <trkpt lat="42.83959" lon="0.49552">
        <ele>1920</ele>
        <time>2020-02-01T12:21:44.000Z</time>
      </trkpt>
      <trkpt lat="42.83959" lon="0.49552">
        <ele>1920</ele>
        <time>2020-02-01T12:21:45.000Z</time>
      </trkpt>
      <trkpt lat="42.83959" lon="0.49552">
        <ele>1920</ele>
        <time>2020-02-01T12:21:46.000Z</time>
      </trkpt>
      <trkpt lat="42.83959" lon="0.49552">
        <ele>1920</ele>
        <time>2020-02-01T12:21:47.000Z</time>
      </trkpt>
      <trkpt lat="42.83959" lon="0.49552">
        <ele>1920</ele>
        <time>2020-02-01T12:21:48.000Z</time>
      </trkpt>
      <trkpt lat="42.83959" lon="0.49552">
        <ele>1920</ele>
        <time>2020-02-01T12:21:49.000Z</time>
      </trkpt>
      <trkpt lat="42.83959" lon="0.49552">
        <ele>1920</ele>
        <time>2020-02-01T12:21:50.000Z</time>
      </trkpt>
      <trkpt lat="42.83959" lon="0.49552">
        <ele>1920</ele>
        <time>2020-02-01T12:21:51.000Z</time>
      </trkpt>
      <trkpt lat="42.83959" lon="0.49552">
        <ele>1920</ele>
        <time>2020-02-01T12:21:52.000Z</time>
      </trkpt>
      <trkpt lat="42.83959" lon="0.49552">
        <ele>1920</ele>
        <time>2020-02-01T12:21:53.000Z</time>
      </trkpt>
      <trkpt lat="42.83959" lon="0.49552">
        <ele>1920</ele>
        <time>2020-02-01T12:21:54.000Z</time>
      </trkpt>
      <trkpt lat="42.83959" lon="0.49552">
        <ele>1920</ele>
        <time>2020-02-01T12:21:55.000Z</time>
      </trkpt>
      <trkpt lat="42.83959" lon="0.49552">
        <ele>1920</ele>
        <time>2020-02-01T12:21:56.000Z</time>
      </trkpt>
      <trkpt lat="42.83959" lon="0.49552">
        <ele>1920</ele>
        <time>2020-02-01T12:21:57.000Z</time>
      </trkpt>
      <trkpt lat="42.83959" lon="0.49552">
        <ele>1920</ele>
        <time>2020-02-01T12:21:58.000Z</time>
      </trkpt>
      <trkpt lat="42.83959" lon="0.49552">
        <ele>1920.5</ele>
        <time>2020-02-01T12:21:59.000Z</time>
      </trkpt>
      <trkpt lat="42.83959" lon="0.49552">
        <ele>1921</ele>
        <time>2020-02-01T12:22:00.000Z</time>
      </trkpt>
      <trkpt lat="42.83959" lon="0.49552">
        <ele>1921</ele>
        <time>2020-02-01T12:22:01.000Z</time>
      </trkpt>
      <trkpt lat="42.83959" lon="0.49552">
        <ele>1921</ele>
        <time>2020-02-01T12:22:02.000Z</time>
      </trkpt>
      <trkpt lat="42.83959" lon="0.49552">
        <ele>1921.3</ele>
        <time>2020-02-01T12:22:03.000Z</time>
      </trkpt>
      <trkpt lat="42.83959" lon="0.49552">
        <ele>1921.7</ele>
        <time>2020-02-01T12:22:04.000Z</time>
      </trkpt>
      <trkpt lat="42.83959" lon="0.49552">
        <ele>1922</ele>
        <time>2020-02-01T12:22:05.000Z</time>
      </trkpt>
      <trkpt lat="42.83959" lon="0.49552">
        <ele>1922</ele>
        <time>2020-02-01T12:22:06.000Z</time>
      </trkpt>
      <trkpt lat="42.83959" lon="0.49552">
        <ele>1922</ele>
        <time>2020-02-01T12:22:07.000Z</time>
      </trkpt>
      <trkpt lat="42.83959" lon="0.49552">
        <ele>1922</ele>
        <time>2020-02-01T12:22:08.000Z</time>
      </trkpt>
      <trkpt lat="42.83959" lon="0.49552">
        <ele>1922</ele>
        <time>2020-02-01T12:22:09.000Z</time>
      </trkpt>
      <trkpt lat="42.83959" lon="0.49552">
        <ele>1922</ele>
        <time>2020-02-01T12:22:10.000Z</time>
      </trkpt>
      <trkpt lat="42.83959" lon="0.49552">
        <ele>1922</ele>
        <time>2020-02-01T12:22:11.000Z</time>
      </trkpt>
      <trkpt lat="42.83959" lon="0.49552">
        <ele>1922</ele>
        <time>2020-02-01T12:22:12.000Z</time>
      </trkpt>
      <trkpt lat="42.83959" lon="0.49552">
        <ele>1922</ele>
        <time>2020-02-01T12:22:13.000Z</time>
      </trkpt>
      <trkpt lat="42.83959" lon="0.49552">
        <ele>1922</ele>
        <time>2020-02-01T12:22:14.000Z</time>
      </trkpt>
      <trkpt lat="42.83959" lon="0.49552">
        <ele>1922</ele>
        <time>2020-02-01T12:22:15.000Z</time>
      </trkpt>
      <trkpt lat="42.83959" lon="0.49552">
        <ele>1922</ele>
        <time>2020-02-01T12:22:16.000Z</time>
      </trkpt>
      <trkpt lat="42.83959" lon="0.49552">
        <ele>1922</ele>
        <time>2020-02-01T12:22:17.000Z</time>
      </trkpt>
      <trkpt lat="42.83959" lon="0.49552">
        <ele>1921</ele>
        <time>2020-02-01T12:22:18.000Z</time>
      </trkpt>
      <trkpt lat="42.83959" lon="0.49552">
        <ele>1921</ele>
        <time>2020-02-01T12:22:19.000Z</time>
      </trkpt>
      <trkpt lat="42.83959" lon="0.49552">
        <ele>1921</ele>
        <time>2020-02-01T12:22:20.000Z</time>
      </trkpt>
      <trkpt lat="42.83959" lon="0.49552">
        <ele>1921</ele>
        <time>2020-02-01T12:22:21.000Z</time>
      </trkpt>
      <trkpt lat="42.83959" lon="0.49552">
        <ele>1921</ele>
        <time>2020-02-01T12:22:22.000Z</time>
      </trkpt>
      <trkpt lat="42.83959" lon="0.49552">
        <ele>1920.5</ele>
        <time>2020-02-01T12:22:23.000Z</time>
      </trkpt>
      <trkpt lat="42.83959" lon="0.49552">
        <ele>1920</ele>
        <time>2020-02-01T12:22:24.000Z</time>
      </trkpt>
      <trkpt lat="42.83959" lon="0.49552">
        <ele>1920.3</ele>
        <time>2020-02-01T12:22:25.000Z</time>
      </trkpt>
      <trkpt lat="42.83959" lon="0.49552">
        <ele>1920.7</ele>
        <time>2020-02-01T12:22:26.000Z</time>
      </trkpt>
      <trkpt lat="42.83959" lon="0.49552">
        <ele>1921</ele>
        <time>2020-02-01T12:22:27.000Z</time>
      </trkpt>
      <trkpt lat="42.83959" lon="0.49552">
        <ele>1920</ele>
        <time>2020-02-01T12:22:28.000Z</time>
      </trkpt>
      <trkpt lat="42.83959" lon="0.49552">
        <ele>1920</ele>
        <time>2020-02-01T12:22:29.000Z</time>
      </trkpt>
      <trkpt lat="42.83959" lon="0.49552">
        <ele>1920</ele>
        <time>2020-02-01T12:22:30.000Z</time>
      </trkpt>
      <trkpt lat="42.83959" lon="0.49552">
        <ele>1920</ele>
        <time>2020-02-01T12:22:31.000Z</time>
      </trkpt>
      <trkpt lat="42.83959" lon="0.49552">
        <ele>1921</ele>
        <time>2020-02-01T12:22:32.000Z</time>
      </trkpt>
      <trkpt lat="42.83959" lon="0.49552">
        <ele>1921</ele>
        <time>2020-02-01T12:22:33.000Z</time>
      </trkpt>
      <trkpt lat="42.83959" lon="0.49552">
        <ele>1921</ele>
        <time>2020-02-01T12:22:34.000Z</time>
      </trkpt>
      <trkpt lat="42.83959" lon="0.49552">
        <ele>1921</ele>
        <time>2020-02-01T12:22:35.000Z</time>
      </trkpt>
      <trkpt lat="42.83959" lon="0.49552">
        <ele>1921.5</ele>
        <time>2020-02-01T12:22:36.000Z</time>
      </trkpt>
      <trkpt lat="42.83959" lon="0.49552">
        <ele>1922</ele>
        <time>2020-02-01T12:22:37.000Z</time>
      </trkpt>
      <trkpt lat="42.83959" lon="0.49551">
        <ele>1921</ele>
        <time>2020-02-01T12:22:38.000Z</time>
      </trkpt>
      <trkpt lat="42.8396" lon="0.49551">
        <ele>1921</ele>
        <time>2020-02-01T12:22:39.000Z</time>
      </trkpt>
      <trkpt lat="42.8396" lon="0.49551">
        <ele>1921</ele>
        <time>2020-02-01T12:22:40.000Z</time>
      </trkpt>
      <trkpt lat="42.8396" lon="0.49551">
        <ele>1921</ele>
        <time>2020-02-01T12:22:41.000Z</time>
      </trkpt>
      <trkpt lat="42.8396" lon="0.49551">
        <ele>1921</ele>
        <time>2020-02-01T12:22:42.000Z</time>
      </trkpt>
      <trkpt lat="42.8396" lon="0.49551">
        <ele>1921</ele>
        <time>2020-02-01T12:22:43.000Z</time>
      </trkpt>
      <trkpt lat="42.83959" lon="0.49551">
        <ele>1921</ele>
        <time>2020-02-01T12:22:44.000Z</time>
      </trkpt>
      <trkpt lat="42.83959" lon="0.49551">
        <ele>1921</ele>
        <time>2020-02-01T12:22:45.000Z</time>
      </trkpt>
      <trkpt lat="42.83959" lon="0.49551">
        <ele>1921</ele>
        <time>2020-02-01T12:22:46.000Z</time>
      </trkpt>
      <trkpt lat="42.83959" lon="0.49551">
        <ele>1921</ele>
        <time>2020-02-01T12:22:47.000Z</time>
      </trkpt>
      <trkpt lat="42.83959" lon="0.49551">
        <ele>1921</ele>
        <time>2020-02-01T12:22:48.000Z</time>
      </trkpt>
      <trkpt lat="42.83959" lon="0.49551">
        <ele>1921</ele>
        <time>2020-02-01T12:22:49.000Z</time>
      </trkpt>
      <trkpt lat="42.83959" lon="0.49551">
        <ele>1921</ele>
        <time>2020-02-01T12:22:50.000Z</time>
      </trkpt>
      <trkpt lat="42.83959" lon="0.49551">
        <ele>1921</ele>
        <time>2020-02-01T12:22:51.000Z</time>
      </trkpt>
      <trkpt lat="42.83959" lon="0.49551">
        <ele>1921</ele>
        <time>2020-02-01T12:22:52.000Z</time>
      </trkpt>
      <trkpt lat="42.83959" lon="0.4955">
        <ele>1920.5</ele>
        <time>2020-02-01T12:22:53.000Z</time>
      </trkpt>
      <trkpt lat="42.83959" lon="0.4955">
        <ele>1920</ele>
        <time>2020-02-01T12:22:54.000Z</time>
      </trkpt>
      <trkpt lat="42.83959" lon="0.4955">
        <ele>1920.3</ele>
        <time>2020-02-01T12:22:55.000Z</time>
      </trkpt>
      <trkpt lat="42.83959" lon="0.49551">
        <ele>1920.7</ele>
        <time>2020-02-01T12:22:56.000Z</time>
      </trkpt>
      <trkpt lat="42.83958" lon="0.49551">
        <ele>1921</ele>
        <time>2020-02-01T12:22:57.000Z</time>
      </trkpt>
      <trkpt lat="42.83958" lon="0.49551">
        <ele>1921</ele>
        <time>2020-02-01T12:22:58.000Z</time>
      </trkpt>
      <trkpt lat="42.83958" lon="0.49551">
        <ele>1921</ele>
        <time>2020-02-01T12:22:59.000Z</time>
      </trkpt>
      <trkpt lat="42.83958" lon="0.49551">
        <ele>1921</ele>
        <time>2020-02-01T12:23:00.000Z</time>
      </trkpt>
      <trkpt lat="42.83958" lon="0.49551">
        <ele>1921</ele>
        <time>2020-02-01T12:23:01.000Z</time>
      </trkpt>
      <trkpt lat="42.83958" lon="0.49551">
        <ele>1921</ele>
        <time>2020-02-01T12:23:02.000Z</time>
      </trkpt>
      <trkpt lat="42.83958" lon="0.49551">
        <ele>1921</ele>
        <time>2020-02-01T12:23:03.000Z</time>
      </trkpt>
      <trkpt lat="42.83958" lon="0.49551">
        <ele>1921</ele>
        <time>2020-02-01T12:23:04.000Z</time>
      </trkpt>
      <trkpt lat="42.83958" lon="0.49551">
        <ele>1921</ele>
        <time>2020-02-01T12:23:05.000Z</time>
      </trkpt>
      <trkpt lat="42.83958" lon="0.49551">
        <ele>1921</ele>
        <time>2020-02-01T12:23:06.000Z</time>
      </trkpt>
      <trkpt lat="42.83958" lon="0.49551">
        <ele>1921</ele>
        <time>2020-02-01T12:23:07.000Z</time>
      </trkpt>
      <trkpt lat="42.83958" lon="0.49551">
        <ele>1921</ele>
        <time>2020-02-01T12:23:08.000Z</time>
      </trkpt>
      <trkpt lat="42.83958" lon="0.49551">
        <ele>1921</ele>
        <time>2020-02-01T12:23:09.000Z</time>
      </trkpt>
      <trkpt lat="42.83959" lon="0.4955">
        <ele>1921</ele>
        <time>2020-02-01T12:23:10.000Z</time>
      </trkpt>
      <trkpt lat="42.83959" lon="0.4955">
        <ele>1921</ele>
        <time>2020-02-01T12:23:11.000Z</time>
      </trkpt>
      <trkpt lat="42.83959" lon="0.4955">
        <ele>1921</ele>
        <time>2020-02-01T12:23:12.000Z</time>
      </trkpt>
      <trkpt lat="42.8396" lon="0.49549">
        <ele>1921</ele>
        <time>2020-02-01T12:23:13.000Z</time>
      </trkpt>
      <trkpt lat="42.8396" lon="0.49548">
        <ele>1921</ele>
        <time>2020-02-01T12:23:14.000Z</time>
      </trkpt>
      <trkpt lat="42.83961" lon="0.49548">
        <ele>1921</ele>
        <time>2020-02-01T12:23:15.000Z</time>
      </trkpt>
      <trkpt lat="42.83961" lon="0.49547">
        <ele>1921</ele>
        <time>2020-02-01T12:23:16.000Z</time>
      </trkpt>
      <trkpt lat="42.83962" lon="0.49546">
        <ele>1921</ele>
        <time>2020-02-01T12:23:17.000Z</time>
      </trkpt>
      <trkpt lat="42.83962" lon="0.49545">
        <ele>1921</ele>
        <time>2020-02-01T12:23:18.000Z</time>
      </trkpt>
      <trkpt lat="42.83963" lon="0.49544">
        <ele>1921</ele>
        <time>2020-02-01T12:23:19.000Z</time>
      </trkpt>
      <trkpt lat="42.83964" lon="0.49543">
        <ele>1921</ele>
        <time>2020-02-01T12:23:20.000Z</time>
      </trkpt>
      <trkpt lat="42.83964" lon="0.49542">
        <ele>1921</ele>
        <time>2020-02-01T12:23:21.000Z</time>
      </trkpt>
      <trkpt lat="42.83965" lon="0.49541">
        <ele>1920</ele>
        <time>2020-02-01T12:23:22.000Z</time>
      </trkpt>
      <trkpt lat="42.83965" lon="0.49541">
        <ele>1920</ele>
        <time>2020-02-01T12:23:23.000Z</time>
      </trkpt>
      <trkpt lat="42.83966" lon="0.4954">
        <ele>1920</ele>
        <time>2020-02-01T12:23:24.000Z</time>
      </trkpt>
      <trkpt lat="42.83966" lon="0.49539">
        <ele>1920</ele>
        <time>2020-02-01T12:23:25.000Z</time>
      </trkpt>
      <trkpt lat="42.83966" lon="0.49538">
        <ele>1920</ele>
        <time>2020-02-01T12:23:26.000Z</time>
      </trkpt>
      <trkpt lat="42.83967" lon="0.49537">
        <ele>1920</ele>
        <time>2020-02-01T12:23:27.000Z</time>
      </trkpt>
      <trkpt lat="42.83967" lon="0.49536">
        <ele>1920</ele>
        <time>2020-02-01T12:23:28.000Z</time>
      </trkpt>
      <trkpt lat="42.83968" lon="0.49535">
        <ele>1920</ele>
        <time>2020-02-01T12:23:29.000Z</time>
      </trkpt>
      <trkpt lat="42.83969" lon="0.49534">
        <ele>1920</ele>
        <time>2020-02-01T12:23:30.000Z</time>
      </trkpt>
      <trkpt lat="42.83969" lon="0.49532">
        <ele>1919.7</ele>
        <time>2020-02-01T12:23:31.000Z</time>
      </trkpt>
      <trkpt lat="42.8397" lon="0.49531">
        <ele>1919.3</ele>
        <time>2020-02-01T12:23:32.000Z</time>
      </trkpt>
      <trkpt lat="42.83971" lon="0.4953">
        <ele>1919</ele>
        <time>2020-02-01T12:23:33.000Z</time>
      </trkpt>
      <trkpt lat="42.83971" lon="0.49529">
        <ele>1919</ele>
        <time>2020-02-01T12:23:34.000Z</time>
      </trkpt>
      <trkpt lat="42.83972" lon="0.49528">
        <ele>1919</ele>
        <time>2020-02-01T12:23:35.000Z</time>
      </trkpt>
      <trkpt lat="42.83972" lon="0.49527">
        <ele>1919</ele>
        <time>2020-02-01T12:23:36.000Z</time>
      </trkpt>
      <trkpt lat="42.83972" lon="0.49526">
        <ele>1919</ele>
        <time>2020-02-01T12:23:37.000Z</time>
      </trkpt>
      <trkpt lat="42.83973" lon="0.49524">
        <ele>1919</ele>
        <time>2020-02-01T12:23:38.000Z</time>
      </trkpt>
      <trkpt lat="42.83973" lon="0.49523">
        <ele>1919</ele>
        <time>2020-02-01T12:23:39.000Z</time>
      </trkpt>
      <trkpt lat="42.83974" lon="0.49522">
        <ele>1919</ele>
        <time>2020-02-01T12:23:40.000Z</time>
      </trkpt>
      <trkpt lat="42.83974" lon="0.49521">
        <ele>1918.7</ele>
        <time>2020-02-01T12:23:41.000Z</time>
      </trkpt>
      <trkpt lat="42.83974" lon="0.4952">
        <ele>1918.3</ele>
        <time>2020-02-01T12:23:42.000Z</time>
      </trkpt>
      <trkpt lat="42.83975" lon="0.49519">
        <ele>1918</ele>
        <time>2020-02-01T12:23:43.000Z</time>
      </trkpt>
      <trkpt lat="42.83975" lon="0.49518">
        <ele>1917</ele>
        <time>2020-02-01T12:23:44.000Z</time>
      </trkpt>
      <trkpt lat="42.83976" lon="0.49517">
        <ele>1917</ele>
        <time>2020-02-01T12:23:45.000Z</time>
      </trkpt>
      <trkpt lat="42.83976" lon="0.49516">
        <ele>1917</ele>
        <time>2020-02-01T12:23:46.000Z</time>
      </trkpt>
      <trkpt lat="42.83976" lon="0.49515">
        <ele>1917</ele>
        <time>2020-02-01T12:23:47.000Z</time>
      </trkpt>
      <trkpt lat="42.83977" lon="0.49514">
        <ele>1917</ele>
        <time>2020-02-01T12:23:48.000Z</time>
      </trkpt>
      <trkpt lat="42.83977" lon="0.49514">
        <ele>1917</ele>
        <time>2020-02-01T12:23:49.000Z</time>
      </trkpt>
      <trkpt lat="42.83978" lon="0.49513">
        <ele>1917</ele>
        <time>2020-02-01T12:23:50.000Z</time>
      </trkpt>
      <trkpt lat="42.83978" lon="0.49512">
        <ele>1917</ele>
        <time>2020-02-01T12:23:51.000Z</time>
      </trkpt>
      <trkpt lat="42.83979" lon="0.49511">
        <ele>1916</ele>
        <time>2020-02-01T12:23:52.000Z</time>
      </trkpt>
      <trkpt lat="42.8398" lon="0.4951">
        <ele>1916</ele>
        <time>2020-02-01T12:23:53.000Z</time>
      </trkpt>
      <trkpt lat="42.8398" lon="0.49508">
        <ele>1916</ele>
        <time>2020-02-01T12:23:54.000Z</time>
      </trkpt>
      <trkpt lat="42.83981" lon="0.49507">
        <ele>1916</ele>
        <time>2020-02-01T12:23:55.000Z</time>
      </trkpt>
      <trkpt lat="42.83981" lon="0.49506">
        <ele>1916</ele>
        <time>2020-02-01T12:23:56.000Z</time>
      </trkpt>
      <trkpt lat="42.83982" lon="0.49505">
        <ele>1916</ele>
        <time>2020-02-01T12:23:57.000Z</time>
      </trkpt>
      <trkpt lat="42.83983" lon="0.49504">
        <ele>1916</ele>
        <time>2020-02-01T12:23:58.000Z</time>
      </trkpt>
      <trkpt lat="42.83983" lon="0.49503">
        <ele>1916</ele>
        <time>2020-02-01T12:23:59.000Z</time>
      </trkpt>
      <trkpt lat="42.83984" lon="0.49502">
        <ele>1916</ele>
        <time>2020-02-01T12:24:00.000Z</time>
      </trkpt>
      <trkpt lat="42.83985" lon="0.49501">
        <ele>1916</ele>
        <time>2020-02-01T12:24:01.000Z</time>
      </trkpt>
      <trkpt lat="42.83986" lon="0.495">
        <ele>1916</ele>
        <time>2020-02-01T12:24:02.000Z</time>
      </trkpt>
      <trkpt lat="42.83987" lon="0.49499">
        <ele>1915.7</ele>
        <time>2020-02-01T12:24:03.000Z</time>
      </trkpt>
      <trkpt lat="42.83987" lon="0.49498">
        <ele>1915.3</ele>
        <time>2020-02-01T12:24:04.000Z</time>
      </trkpt>
      <trkpt lat="42.83988" lon="0.49497">
        <ele>1915</ele>
        <time>2020-02-01T12:24:05.000Z</time>
      </trkpt>
      <trkpt lat="42.83989" lon="0.49496">
        <ele>1915</ele>
        <time>2020-02-01T12:24:06.000Z</time>
      </trkpt>
      <trkpt lat="42.8399" lon="0.49495">
        <ele>1915</ele>
        <time>2020-02-01T12:24:07.000Z</time>
      </trkpt>
      <trkpt lat="42.83991" lon="0.49494">
        <ele>1915</ele>
        <time>2020-02-01T12:24:08.000Z</time>
      </trkpt>
      <trkpt lat="42.83991" lon="0.49492">
        <ele>1915</ele>
        <time>2020-02-01T12:24:09.000Z</time>
      </trkpt>
      <trkpt lat="42.83992" lon="0.49491">
        <ele>1915</ele>
        <time>2020-02-01T12:24:10.000Z</time>
      </trkpt>
      <trkpt lat="42.83992" lon="0.4949">
        <ele>1915</ele>
        <time>2020-02-01T12:24:11.000Z</time>
      </trkpt>
      <trkpt lat="42.83993" lon="0.49488">
        <ele>1915</ele>
        <time>2020-02-01T12:24:12.000Z</time>
      </trkpt>
      <trkpt lat="42.83993" lon="0.49487">
        <ele>1915</ele>
        <time>2020-02-01T12:24:13.000Z</time>
      </trkpt>
      <trkpt lat="42.83994" lon="0.49486">
        <ele>1915</ele>
        <time>2020-02-01T12:24:14.000Z</time>
      </trkpt>
      <trkpt lat="42.83994" lon="0.49485">
        <ele>1915</ele>
        <time>2020-02-01T12:24:15.000Z</time>
      </trkpt>
      <trkpt lat="42.83995" lon="0.49483">
        <ele>1915</ele>
        <time>2020-02-01T12:24:16.000Z</time>
      </trkpt>
      <trkpt lat="42.83995" lon="0.49482">
        <ele>1915</ele>
        <time>2020-02-01T12:24:17.000Z</time>
      </trkpt>
      <trkpt lat="42.83996" lon="0.49481">
        <ele>1915</ele>
        <time>2020-02-01T12:24:18.000Z</time>
      </trkpt>
      <trkpt lat="42.83997" lon="0.4948">
        <ele>1914.7</ele>
        <time>2020-02-01T12:24:19.000Z</time>
      </trkpt>
      <trkpt lat="42.83997" lon="0.49479">
        <ele>1914.3</ele>
        <time>2020-02-01T12:24:20.000Z</time>
      </trkpt>
      <trkpt lat="42.83998" lon="0.49478">
        <ele>1914</ele>
        <time>2020-02-01T12:24:21.000Z</time>
      </trkpt>
      <trkpt lat="42.83999" lon="0.49477">
        <ele>1914</ele>
        <time>2020-02-01T12:24:22.000Z</time>
      </trkpt>
      <trkpt lat="42.83999" lon="0.49476">
        <ele>1914</ele>
        <time>2020-02-01T12:24:23.000Z</time>
      </trkpt>
      <trkpt lat="42.84" lon="0.49475">
        <ele>1914</ele>
        <time>2020-02-01T12:24:24.000Z</time>
      </trkpt>
      <trkpt lat="42.84" lon="0.49474">
        <ele>1914</ele>
        <time>2020-02-01T12:24:25.000Z</time>
      </trkpt>
      <trkpt lat="42.84001" lon="0.49474">
        <ele>1914</ele>
        <time>2020-02-01T12:24:26.000Z</time>
      </trkpt>
      <trkpt lat="42.84001" lon="0.49473">
        <ele>1914</ele>
        <time>2020-02-01T12:24:27.000Z</time>
      </trkpt>
      <trkpt lat="42.84002" lon="0.49472">
        <ele>1914</ele>
        <time>2020-02-01T12:24:28.000Z</time>
      </trkpt>
      <trkpt lat="42.84002" lon="0.49471">
        <ele>1914</ele>
        <time>2020-02-01T12:24:29.000Z</time>
      </trkpt>
      <trkpt lat="42.84003" lon="0.4947">
        <ele>1914</ele>
        <time>2020-02-01T12:24:30.000Z</time>
      </trkpt>
      <trkpt lat="42.84003" lon="0.49469">
        <ele>1913.7</ele>
        <time>2020-02-01T12:24:31.000Z</time>
      </trkpt>
      <trkpt lat="42.84004" lon="0.49467">
        <ele>1913.3</ele>
        <time>2020-02-01T12:24:32.000Z</time>
      </trkpt>
      <trkpt lat="42.84004" lon="0.49466">
        <ele>1913</ele>
        <time>2020-02-01T12:24:33.000Z</time>
      </trkpt>
      <trkpt lat="42.84005" lon="0.49466">
        <ele>1913</ele>
        <time>2020-02-01T12:24:34.000Z</time>
      </trkpt>
      <trkpt lat="42.84006" lon="0.49465">
        <ele>1913</ele>
        <time>2020-02-01T12:24:35.000Z</time>
      </trkpt>
      <trkpt lat="42.84007" lon="0.49464">
        <ele>1913</ele>
        <time>2020-02-01T12:24:36.000Z</time>
      </trkpt>
      <trkpt lat="42.84008" lon="0.49463">
        <ele>1913</ele>
        <time>2020-02-01T12:24:37.000Z</time>
      </trkpt>
      <trkpt lat="42.84008" lon="0.49462">
        <ele>1913</ele>
        <time>2020-02-01T12:24:38.000Z</time>
      </trkpt>
      <trkpt lat="42.84009" lon="0.49461">
        <ele>1913</ele>
        <time>2020-02-01T12:24:39.000Z</time>
      </trkpt>
      <trkpt lat="42.84009" lon="0.4946">
        <ele>1913</ele>
        <time>2020-02-01T12:24:40.000Z</time>
      </trkpt>
      <trkpt lat="42.8401" lon="0.49459">
        <ele>1913</ele>
        <time>2020-02-01T12:24:41.000Z</time>
      </trkpt>
      <trkpt lat="42.8401" lon="0.49458">
        <ele>1914</ele>
        <time>2020-02-01T12:24:42.000Z</time>
      </trkpt>
      <trkpt lat="42.84011" lon="0.49457">
        <ele>1913.7</ele>
        <time>2020-02-01T12:24:43.000Z</time>
      </trkpt>
      <trkpt lat="42.84011" lon="0.49456">
        <ele>1913.3</ele>
        <time>2020-02-01T12:24:44.000Z</time>
      </trkpt>
      <trkpt lat="42.84011" lon="0.49455">
        <ele>1913</ele>
        <time>2020-02-01T12:24:45.000Z</time>
      </trkpt>
      <trkpt lat="42.84012" lon="0.49454">
        <ele>1913</ele>
        <time>2020-02-01T12:24:46.000Z</time>
      </trkpt>
      <trkpt lat="42.84012" lon="0.49453">
        <ele>1913</ele>
        <time>2020-02-01T12:24:47.000Z</time>
      </trkpt>
      <trkpt lat="42.84013" lon="0.49452">
        <ele>1913</ele>
        <time>2020-02-01T12:24:48.000Z</time>
      </trkpt>
      <trkpt lat="42.84013" lon="0.49451">
        <ele>1913</ele>
        <time>2020-02-01T12:24:49.000Z</time>
      </trkpt>
      <trkpt lat="42.84014" lon="0.4945">
        <ele>1913</ele>
        <time>2020-02-01T12:24:50.000Z</time>
      </trkpt>
      <trkpt lat="42.84014" lon="0.49449">
        <ele>1913</ele>
        <time>2020-02-01T12:24:51.000Z</time>
      </trkpt>
      <trkpt lat="42.84015" lon="0.49449">
        <ele>1913</ele>
        <time>2020-02-01T12:24:52.000Z</time>
      </trkpt>
      <trkpt lat="42.84016" lon="0.49448">
        <ele>1913</ele>
        <time>2020-02-01T12:24:53.000Z</time>
      </trkpt>
      <trkpt lat="42.84016" lon="0.49447">
        <ele>1913</ele>
        <time>2020-02-01T12:24:54.000Z</time>
      </trkpt>
      <trkpt lat="42.84017" lon="0.49446">
        <ele>1913</ele>
        <time>2020-02-01T12:24:55.000Z</time>
      </trkpt>
      <trkpt lat="42.84018" lon="0.49445">
        <ele>1913</ele>
        <time>2020-02-01T12:24:56.000Z</time>
      </trkpt>
      <trkpt lat="42.84018" lon="0.49444">
        <ele>1913</ele>
        <time>2020-02-01T12:24:57.000Z</time>
      </trkpt>
      <trkpt lat="42.84019" lon="0.49443">
        <ele>1913</ele>
        <time>2020-02-01T12:24:58.000Z</time>
      </trkpt>
      <trkpt lat="42.84019" lon="0.49442">
        <ele>1913</ele>
        <time>2020-02-01T12:24:59.000Z</time>
      </trkpt>
      <trkpt lat="42.84019" lon="0.49441">
        <ele>1913</ele>
        <time>2020-02-01T12:25:00.000Z</time>
      </trkpt>
      <trkpt lat="42.8402" lon="0.4944">
        <ele>1913</ele>
        <time>2020-02-01T12:25:01.000Z</time>
      </trkpt>
      <trkpt lat="42.8402" lon="0.49439">
        <ele>1913</ele>
        <time>2020-02-01T12:25:02.000Z</time>
      </trkpt>
      <trkpt lat="42.84021" lon="0.49438">
        <ele>1913</ele>
        <time>2020-02-01T12:25:03.000Z</time>
      </trkpt>
      <trkpt lat="42.84021" lon="0.49437">
        <ele>1913</ele>
        <time>2020-02-01T12:25:04.000Z</time>
      </trkpt>
      <trkpt lat="42.84022" lon="0.49436">
        <ele>1913</ele>
        <time>2020-02-01T12:25:05.000Z</time>
      </trkpt>
      <trkpt lat="42.84023" lon="0.49435">
        <ele>1913</ele>
        <time>2020-02-01T12:25:06.000Z</time>
      </trkpt>
      <trkpt lat="42.84023" lon="0.49434">
        <ele>1913</ele>
        <time>2020-02-01T12:25:07.000Z</time>
      </trkpt>
      <trkpt lat="42.84024" lon="0.49433">
        <ele>1913</ele>
        <time>2020-02-01T12:25:08.000Z</time>
      </trkpt>
      <trkpt lat="42.84024" lon="0.49432">
        <ele>1913</ele>
        <time>2020-02-01T12:25:09.000Z</time>
      </trkpt>
      <trkpt lat="42.84025" lon="0.49432">
        <ele>1913</ele>
        <time>2020-02-01T12:25:10.000Z</time>
      </trkpt>
      <trkpt lat="42.84025" lon="0.49431">
        <ele>1913</ele>
        <time>2020-02-01T12:25:11.000Z</time>
      </trkpt>
      <trkpt lat="42.84026" lon="0.4943">
        <ele>1913</ele>
        <time>2020-02-01T12:25:12.000Z</time>
      </trkpt>
      <trkpt lat="42.84027" lon="0.49429">
        <ele>1913</ele>
        <time>2020-02-01T12:25:13.000Z</time>
      </trkpt>
      <trkpt lat="42.84027" lon="0.49428">
        <ele>1913</ele>
        <time>2020-02-01T12:25:14.000Z</time>
      </trkpt>
      <trkpt lat="42.84028" lon="0.49427">
        <ele>1913</ele>
        <time>2020-02-01T12:25:15.000Z</time>
      </trkpt>
      <trkpt lat="42.84028" lon="0.49426">
        <ele>1913</ele>
        <time>2020-02-01T12:25:16.000Z</time>
      </trkpt>
      <trkpt lat="42.84029" lon="0.49425">
        <ele>1913</ele>
        <time>2020-02-01T12:25:17.000Z</time>
      </trkpt>
      <trkpt lat="42.84029" lon="0.49423">
        <ele>1913</ele>
        <time>2020-02-01T12:25:18.000Z</time>
      </trkpt>
      <trkpt lat="42.8403" lon="0.49422">
        <ele>1913</ele>
        <time>2020-02-01T12:25:19.000Z</time>
      </trkpt>
      <trkpt lat="42.8403" lon="0.49421">
        <ele>1913</ele>
        <time>2020-02-01T12:25:20.000Z</time>
      </trkpt>
      <trkpt lat="42.84031" lon="0.4942">
        <ele>1913</ele>
        <time>2020-02-01T12:25:21.000Z</time>
      </trkpt>
      <trkpt lat="42.84031" lon="0.49419">
        <ele>1913</ele>
        <time>2020-02-01T12:25:22.000Z</time>
      </trkpt>
      <trkpt lat="42.84031" lon="0.49418">
        <ele>1913</ele>
        <time>2020-02-01T12:25:23.000Z</time>
      </trkpt>
      <trkpt lat="42.84032" lon="0.49417">
        <ele>1913</ele>
        <time>2020-02-01T12:25:24.000Z</time>
      </trkpt>
      <trkpt lat="42.84032" lon="0.49416">
        <ele>1913</ele>
        <time>2020-02-01T12:25:25.000Z</time>
      </trkpt>
      <trkpt lat="42.84033" lon="0.49415">
        <ele>1913</ele>
        <time>2020-02-01T12:25:26.000Z</time>
      </trkpt>
      <trkpt lat="42.84033" lon="0.49414">
        <ele>1913</ele>
        <time>2020-02-01T12:25:27.000Z</time>
      </trkpt>
      <trkpt lat="42.84034" lon="0.49413">
        <ele>1913</ele>
        <time>2020-02-01T12:25:28.000Z</time>
      </trkpt>
      <trkpt lat="42.84034" lon="0.49412">
        <ele>1913</ele>
        <time>2020-02-01T12:25:29.000Z</time>
      </trkpt>
      <trkpt lat="42.84035" lon="0.49411">
        <ele>1913</ele>
        <time>2020-02-01T12:25:30.000Z</time>
      </trkpt>
      <trkpt lat="42.84035" lon="0.4941">
        <ele>1913</ele>
        <time>2020-02-01T12:25:31.000Z</time>
      </trkpt>
      <trkpt lat="42.84035" lon="0.4941">
        <ele>1913</ele>
        <time>2020-02-01T12:25:32.000Z</time>
      </trkpt>
      <trkpt lat="42.84036" lon="0.49409">
        <ele>1913</ele>
        <time>2020-02-01T12:25:33.000Z</time>
      </trkpt>
      <trkpt lat="42.84036" lon="0.49408">
        <ele>1913</ele>
        <time>2020-02-01T12:25:34.000Z</time>
      </trkpt>
      <trkpt lat="42.84036" lon="0.49408">
        <ele>1913</ele>
        <time>2020-02-01T12:25:35.000Z</time>
      </trkpt>
      <trkpt lat="42.84037" lon="0.49407">
        <ele>1913</ele>
        <time>2020-02-01T12:25:36.000Z</time>
      </trkpt>
      <trkpt lat="42.84037" lon="0.49406">
        <ele>1913</ele>
        <time>2020-02-01T12:25:37.000Z</time>
      </trkpt>
      <trkpt lat="42.84037" lon="0.49405">
        <ele>1913</ele>
        <time>2020-02-01T12:25:38.000Z</time>
      </trkpt>
      <trkpt lat="42.84038" lon="0.49403">
        <ele>1913</ele>
        <time>2020-02-01T12:25:39.000Z</time>
      </trkpt>
      <trkpt lat="42.84039" lon="0.49401">
        <ele>1913</ele>
        <time>2020-02-01T12:25:40.000Z</time>
      </trkpt>
      <trkpt lat="42.8404" lon="0.494">
        <ele>1913</ele>
        <time>2020-02-01T12:25:41.000Z</time>
      </trkpt>
      <trkpt lat="42.8404" lon="0.49399">
        <ele>1913</ele>
        <time>2020-02-01T12:25:42.000Z</time>
      </trkpt>
      <trkpt lat="42.84041" lon="0.49398">
        <ele>1913</ele>
        <time>2020-02-01T12:25:43.000Z</time>
      </trkpt>
      <trkpt lat="42.84041" lon="0.49397">
        <ele>1913</ele>
        <time>2020-02-01T12:25:44.000Z</time>
      </trkpt>
      <trkpt lat="42.84042" lon="0.49396">
        <ele>1913</ele>
        <time>2020-02-01T12:25:45.000Z</time>
      </trkpt>
      <trkpt lat="42.84042" lon="0.49395">
        <ele>1913</ele>
        <time>2020-02-01T12:25:46.000Z</time>
      </trkpt>
      <trkpt lat="42.84043" lon="0.49394">
        <ele>1913</ele>
        <time>2020-02-01T12:25:47.000Z</time>
      </trkpt>
      <trkpt lat="42.84043" lon="0.49393">
        <ele>1913.5</ele>
        <time>2020-02-01T12:25:48.000Z</time>
      </trkpt>
      <trkpt lat="42.84044" lon="0.49392">
        <ele>1914</ele>
        <time>2020-02-01T12:25:49.000Z</time>
      </trkpt>
      <trkpt lat="42.84044" lon="0.49391">
        <ele>1914</ele>
        <time>2020-02-01T12:25:50.000Z</time>
      </trkpt>
      <trkpt lat="42.84045" lon="0.49391">
        <ele>1914</ele>
        <time>2020-02-01T12:25:51.000Z</time>
      </trkpt>
      <trkpt lat="42.84046" lon="0.4939">
        <ele>1914</ele>
        <time>2020-02-01T12:25:52.000Z</time>
      </trkpt>
      <trkpt lat="42.84046" lon="0.49389">
        <ele>1914</ele>
        <time>2020-02-01T12:25:53.000Z</time>
      </trkpt>
      <trkpt lat="42.84047" lon="0.49388">
        <ele>1914</ele>
        <time>2020-02-01T12:25:54.000Z</time>
      </trkpt>
      <trkpt lat="42.84047" lon="0.49387">
        <ele>1914</ele>
        <time>2020-02-01T12:25:55.000Z</time>
      </trkpt>
      <trkpt lat="42.84048" lon="0.49386">
        <ele>1914</ele>
        <time>2020-02-01T12:25:56.000Z</time>
      </trkpt>
      <trkpt lat="42.84048" lon="0.49385">
        <ele>1914</ele>
        <time>2020-02-01T12:25:57.000Z</time>
      </trkpt>
      <trkpt lat="42.84049" lon="0.49384">
        <ele>1914</ele>
        <time>2020-02-01T12:25:58.000Z</time>
      </trkpt>
      <trkpt lat="42.84049" lon="0.49383">
        <ele>1914</ele>
        <time>2020-02-01T12:25:59.000Z</time>
      </trkpt>
      <trkpt lat="42.8405" lon="0.49382">
        <ele>1914</ele>
        <time>2020-02-01T12:26:00.000Z</time>
      </trkpt>
      <trkpt lat="42.8405" lon="0.49381">
        <ele>1914</ele>
        <time>2020-02-01T12:26:01.000Z</time>
      </trkpt>
      <trkpt lat="42.84051" lon="0.4938">
        <ele>1914</ele>
        <time>2020-02-01T12:26:02.000Z</time>
      </trkpt>
      <trkpt lat="42.84051" lon="0.49379">
        <ele>1914</ele>
        <time>2020-02-01T12:26:03.000Z</time>
      </trkpt>
      <trkpt lat="42.84051" lon="0.49378">
        <ele>1914</ele>
        <time>2020-02-01T12:26:04.000Z</time>
      </trkpt>
      <trkpt lat="42.84052" lon="0.49377">
        <ele>1914</ele>
        <time>2020-02-01T12:26:05.000Z</time>
      </trkpt>
      <trkpt lat="42.84052" lon="0.49376">
        <ele>1914</ele>
        <time>2020-02-01T12:26:06.000Z</time>
      </trkpt>
      <trkpt lat="42.84053" lon="0.49375">
        <ele>1914</ele>
        <time>2020-02-01T12:26:07.000Z</time>
      </trkpt>
      <trkpt lat="42.84053" lon="0.49374">
        <ele>1914</ele>
        <time>2020-02-01T12:26:08.000Z</time>
      </trkpt>
      <trkpt lat="42.84054" lon="0.49373">
        <ele>1914.3</ele>
        <time>2020-02-01T12:26:09.000Z</time>
      </trkpt>
      <trkpt lat="42.84054" lon="0.49372">
        <ele>1914.7</ele>
        <time>2020-02-01T12:26:10.000Z</time>
      </trkpt>
      <trkpt lat="42.84054" lon="0.49371">
        <ele>1915</ele>
        <time>2020-02-01T12:26:11.000Z</time>
      </trkpt>
      <trkpt lat="42.84055" lon="0.4937">
        <ele>1915</ele>
        <time>2020-02-01T12:26:12.000Z</time>
      </trkpt>
      <trkpt lat="42.84055" lon="0.4937">
        <ele>1915</ele>
        <time>2020-02-01T12:26:13.000Z</time>
      </trkpt>
      <trkpt lat="42.84056" lon="0.49369">
        <ele>1915</ele>
        <time>2020-02-01T12:26:14.000Z</time>
      </trkpt>
      <trkpt lat="42.84056" lon="0.49368">
        <ele>1915</ele>
        <time>2020-02-01T12:26:15.000Z</time>
      </trkpt>
      <trkpt lat="42.84057" lon="0.49367">
        <ele>1915</ele>
        <time>2020-02-01T12:26:16.000Z</time>
      </trkpt>
      <trkpt lat="42.84057" lon="0.49366">
        <ele>1915</ele>
        <time>2020-02-01T12:26:17.000Z</time>
      </trkpt>
      <trkpt lat="42.84058" lon="0.49365">
        <ele>1915</ele>
        <time>2020-02-01T12:26:18.000Z</time>
      </trkpt>
      <trkpt lat="42.84058" lon="0.49364">
        <ele>1915</ele>
        <time>2020-02-01T12:26:19.000Z</time>
      </trkpt>
      <trkpt lat="42.84059" lon="0.49363">
        <ele>1916</ele>
        <time>2020-02-01T12:26:20.000Z</time>
      </trkpt>
      <trkpt lat="42.84059" lon="0.49362">
        <ele>1916</ele>
        <time>2020-02-01T12:26:21.000Z</time>
      </trkpt>
      <trkpt lat="42.84059" lon="0.49361">
        <ele>1916</ele>
        <time>2020-02-01T12:26:22.000Z</time>
      </trkpt>
      <trkpt lat="42.8406" lon="0.4936">
        <ele>1916</ele>
        <time>2020-02-01T12:26:23.000Z</time>
      </trkpt>
      <trkpt lat="42.8406" lon="0.49359">
        <ele>1916</ele>
        <time>2020-02-01T12:26:24.000Z</time>
      </trkpt>
      <trkpt lat="42.84061" lon="0.49358">
        <ele>1916</ele>
        <time>2020-02-01T12:26:25.000Z</time>
      </trkpt>
      <trkpt lat="42.84061" lon="0.49357">
        <ele>1916</ele>
        <time>2020-02-01T12:26:26.000Z</time>
      </trkpt>
      <trkpt lat="42.84062" lon="0.49356">
        <ele>1916</ele>
        <time>2020-02-01T12:26:27.000Z</time>
      </trkpt>
      <trkpt lat="42.84062" lon="0.49355">
        <ele>1916</ele>
        <time>2020-02-01T12:26:28.000Z</time>
      </trkpt>
      <trkpt lat="42.84063" lon="0.49354">
        <ele>1916</ele>
        <time>2020-02-01T12:26:29.000Z</time>
      </trkpt>
      <trkpt lat="42.84063" lon="0.49353">
        <ele>1917</ele>
        <time>2020-02-01T12:26:30.000Z</time>
      </trkpt>
      <trkpt lat="42.84064" lon="0.49353">
        <ele>1917</ele>
        <time>2020-02-01T12:26:31.000Z</time>
      </trkpt>
      <trkpt lat="42.84064" lon="0.49352">
        <ele>1917</ele>
        <time>2020-02-01T12:26:32.000Z</time>
      </trkpt>
      <trkpt lat="42.84065" lon="0.49351">
        <ele>1917</ele>
        <time>2020-02-01T12:26:33.000Z</time>
      </trkpt>
      <trkpt lat="42.84066" lon="0.4935">
        <ele>1917</ele>
        <time>2020-02-01T12:26:34.000Z</time>
      </trkpt>
      <trkpt lat="42.84066" lon="0.49349">
        <ele>1917</ele>
        <time>2020-02-01T12:26:35.000Z</time>
      </trkpt>
      <trkpt lat="42.84067" lon="0.49349">
        <ele>1917</ele>
        <time>2020-02-01T12:26:36.000Z</time>
      </trkpt>
      <trkpt lat="42.84067" lon="0.49348">
        <ele>1917.3</ele>
        <time>2020-02-01T12:26:37.000Z</time>
      </trkpt>
      <trkpt lat="42.84068" lon="0.49347">
        <ele>1917.7</ele>
        <time>2020-02-01T12:26:38.000Z</time>
      </trkpt>
      <trkpt lat="42.84068" lon="0.49346">
        <ele>1918</ele>
        <time>2020-02-01T12:26:39.000Z</time>
      </trkpt>
      <trkpt lat="42.84068" lon="0.49345">
        <ele>1918</ele>
        <time>2020-02-01T12:26:40.000Z</time>
      </trkpt>
      <trkpt lat="42.84069" lon="0.49344">
        <ele>1918</ele>
        <time>2020-02-01T12:26:41.000Z</time>
      </trkpt>
      <trkpt lat="42.84069" lon="0.49343">
        <ele>1919</ele>
        <time>2020-02-01T12:26:42.000Z</time>
      </trkpt>
      <trkpt lat="42.8407" lon="0.49342">
        <ele>1919</ele>
        <time>2020-02-01T12:26:43.000Z</time>
      </trkpt>
      <trkpt lat="42.8407" lon="0.49341">
        <ele>1919</ele>
        <time>2020-02-01T12:26:44.000Z</time>
      </trkpt>
      <trkpt lat="42.8407" lon="0.49341">
        <ele>1919</ele>
        <time>2020-02-01T12:26:45.000Z</time>
      </trkpt>
      <trkpt lat="42.8407" lon="0.4934">
        <ele>1919</ele>
        <time>2020-02-01T12:26:46.000Z</time>
      </trkpt>
      <trkpt lat="42.84071" lon="0.49339">
        <ele>1919</ele>
        <time>2020-02-01T12:26:47.000Z</time>
      </trkpt>
      <trkpt lat="42.84071" lon="0.49339">
        <ele>1919</ele>
        <time>2020-02-01T12:26:48.000Z</time>
      </trkpt>
      <trkpt lat="42.84071" lon="0.49337">
        <ele>1919</ele>
        <time>2020-02-01T12:26:49.000Z</time>
      </trkpt>
      <trkpt lat="42.84072" lon="0.49336">
        <ele>1919.5</ele>
        <time>2020-02-01T12:26:50.000Z</time>
      </trkpt>
      <trkpt lat="42.84072" lon="0.49335">
        <ele>1920</ele>
        <time>2020-02-01T12:26:51.000Z</time>
      </trkpt>
      <trkpt lat="42.84073" lon="0.49334">
        <ele>1920</ele>
        <time>2020-02-01T12:26:52.000Z</time>
      </trkpt>
      <trkpt lat="42.84073" lon="0.49333">
        <ele>1920</ele>
        <time>2020-02-01T12:26:53.000Z</time>
      </trkpt>
      <trkpt lat="42.84074" lon="0.49332">
        <ele>1920</ele>
        <time>2020-02-01T12:26:54.000Z</time>
      </trkpt>
      <trkpt lat="42.84074" lon="0.49332">
        <ele>1920</ele>
        <time>2020-02-01T12:26:55.000Z</time>
      </trkpt>
      <trkpt lat="42.84075" lon="0.49331">
        <ele>1920</ele>
        <time>2020-02-01T12:26:56.000Z</time>
      </trkpt>
      <trkpt lat="42.84075" lon="0.4933">
        <ele>1920</ele>
        <time>2020-02-01T12:26:57.000Z</time>
      </trkpt>
      <trkpt lat="42.84075" lon="0.4933">
        <ele>1920.5</ele>
        <time>2020-02-01T12:26:58.000Z</time>
      </trkpt>
      <trkpt lat="42.84076" lon="0.49329">
        <ele>1921</ele>
        <time>2020-02-01T12:26:59.000Z</time>
      </trkpt>
      <trkpt lat="42.84076" lon="0.49328">
        <ele>1921</ele>
        <time>2020-02-01T12:27:00.000Z</time>
      </trkpt>
      <trkpt lat="42.84076" lon="0.49327">
        <ele>1921</ele>
        <time>2020-02-01T12:27:01.000Z</time>
      </trkpt>
      <trkpt lat="42.84077" lon="0.49327">
        <ele>1921</ele>
        <time>2020-02-01T12:27:02.000Z</time>
      </trkpt>
      <trkpt lat="42.84077" lon="0.49326">
        <ele>1921</ele>
        <time>2020-02-01T12:27:03.000Z</time>
      </trkpt>
      <trkpt lat="42.84078" lon="0.49325">
        <ele>1921</ele>
        <time>2020-02-01T12:27:04.000Z</time>
      </trkpt>
      <trkpt lat="42.84078" lon="0.49324">
        <ele>1921</ele>
        <time>2020-02-01T12:27:05.000Z</time>
      </trkpt>
      <trkpt lat="42.84078" lon="0.49323">
        <ele>1921</ele>
        <time>2020-02-01T12:27:06.000Z</time>
      </trkpt>
      <trkpt lat="42.84079" lon="0.49322">
        <ele>1921</ele>
        <time>2020-02-01T12:27:07.000Z</time>
      </trkpt>
      <trkpt lat="42.84079" lon="0.49321">
        <ele>1921</ele>
        <time>2020-02-01T12:27:08.000Z</time>
      </trkpt>
      <trkpt lat="42.8408" lon="0.4932">
        <ele>1921</ele>
        <time>2020-02-01T12:27:09.000Z</time>
      </trkpt>
      <trkpt lat="42.8408" lon="0.49319">
        <ele>1921</ele>
        <time>2020-02-01T12:27:10.000Z</time>
      </trkpt>
      <trkpt lat="42.84081" lon="0.49318">
        <ele>1921</ele>
        <time>2020-02-01T12:27:11.000Z</time>
      </trkpt>
      <trkpt lat="42.84081" lon="0.49317">
        <ele>1921</ele>
        <time>2020-02-01T12:27:12.000Z</time>
      </trkpt>
      <trkpt lat="42.84082" lon="0.49316">
        <ele>1921</ele>
        <time>2020-02-01T12:27:13.000Z</time>
      </trkpt>
      <trkpt lat="42.84083" lon="0.49315">
        <ele>1921</ele>
        <time>2020-02-01T12:27:14.000Z</time>
      </trkpt>
      <trkpt lat="42.84083" lon="0.49314">
        <ele>1921</ele>
        <time>2020-02-01T12:27:15.000Z</time>
      </trkpt>
      <trkpt lat="42.84084" lon="0.49313">
        <ele>1921</ele>
        <time>2020-02-01T12:27:16.000Z</time>
      </trkpt>
      <trkpt lat="42.84085" lon="0.49312">
        <ele>1921</ele>
        <time>2020-02-01T12:27:17.000Z</time>
      </trkpt>
      <trkpt lat="42.84085" lon="0.49311">
        <ele>1921</ele>
        <time>2020-02-01T12:27:18.000Z</time>
      </trkpt>
      <trkpt lat="42.84086" lon="0.4931">
        <ele>1921</ele>
        <time>2020-02-01T12:27:19.000Z</time>
      </trkpt>
      <trkpt lat="42.84087" lon="0.49309">
        <ele>1921.5</ele>
        <time>2020-02-01T12:27:20.000Z</time>
      </trkpt>
      <trkpt lat="42.84087" lon="0.49309">
        <ele>1922</ele>
        <time>2020-02-01T12:27:21.000Z</time>
      </trkpt>
      <trkpt lat="42.84088" lon="0.49308">
        <ele>1922</ele>
        <time>2020-02-01T12:27:22.000Z</time>
      </trkpt>
      <trkpt lat="42.84089" lon="0.49307">
        <ele>1922</ele>
        <time>2020-02-01T12:27:23.000Z</time>
      </trkpt>
      <trkpt lat="42.84089" lon="0.49306">
        <ele>1922</ele>
        <time>2020-02-01T12:27:24.000Z</time>
      </trkpt>
      <trkpt lat="42.8409" lon="0.49305">
        <ele>1922</ele>
        <time>2020-02-01T12:27:25.000Z</time>
      </trkpt>
      <trkpt lat="42.8409" lon="0.49304">
        <ele>1922</ele>
        <time>2020-02-01T12:27:26.000Z</time>
      </trkpt>
      <trkpt lat="42.84091" lon="0.49303">
        <ele>1922</ele>
        <time>2020-02-01T12:27:27.000Z</time>
      </trkpt>
      <trkpt lat="42.84091" lon="0.49302">
        <ele>1922</ele>
        <time>2020-02-01T12:27:28.000Z</time>
      </trkpt>
      <trkpt lat="42.84092" lon="0.49301">
        <ele>1922</ele>
        <time>2020-02-01T12:27:29.000Z</time>
      </trkpt>
      <trkpt lat="42.84093" lon="0.49301">
        <ele>1923</ele>
        <time>2020-02-01T12:27:30.000Z</time>
      </trkpt>
      <trkpt lat="42.84093" lon="0.493">
        <ele>1923</ele>
        <time>2020-02-01T12:27:31.000Z</time>
      </trkpt>
      <trkpt lat="42.84094" lon="0.49299">
        <ele>1923</ele>
        <time>2020-02-01T12:27:32.000Z</time>
      </trkpt>
      <trkpt lat="42.84094" lon="0.49298">
        <ele>1923</ele>
        <time>2020-02-01T12:27:33.000Z</time>
      </trkpt>
      <trkpt lat="42.84095" lon="0.49297">
        <ele>1923</ele>
        <time>2020-02-01T12:27:34.000Z</time>
      </trkpt>
      <trkpt lat="42.84095" lon="0.49296">
        <ele>1923</ele>
        <time>2020-02-01T12:27:35.000Z</time>
      </trkpt>
      <trkpt lat="42.84096" lon="0.49295">
        <ele>1923</ele>
        <time>2020-02-01T12:27:36.000Z</time>
      </trkpt>
      <trkpt lat="42.84097" lon="0.49294">
        <ele>1923</ele>
        <time>2020-02-01T12:27:37.000Z</time>
      </trkpt>
      <trkpt lat="42.84097" lon="0.49294">
        <ele>1923</ele>
        <time>2020-02-01T12:27:38.000Z</time>
      </trkpt>
      <trkpt lat="42.84098" lon="0.49293">
        <ele>1923.3</ele>
        <time>2020-02-01T12:27:39.000Z</time>
      </trkpt>
      <trkpt lat="42.84098" lon="0.49292">
        <ele>1923.7</ele>
        <time>2020-02-01T12:27:40.000Z</time>
      </trkpt>
      <trkpt lat="42.84099" lon="0.49292">
        <ele>1924</ele>
        <time>2020-02-01T12:27:41.000Z</time>
      </trkpt>
      <trkpt lat="42.841" lon="0.49291">
        <ele>1924</ele>
        <time>2020-02-01T12:27:42.000Z</time>
      </trkpt>
      <trkpt lat="42.841" lon="0.4929">
        <ele>1924</ele>
        <time>2020-02-01T12:27:43.000Z</time>
      </trkpt>
      <trkpt lat="42.84101" lon="0.4929">
        <ele>1924</ele>
        <time>2020-02-01T12:27:44.000Z</time>
      </trkpt>
      <trkpt lat="42.84101" lon="0.49289">
        <ele>1924</ele>
        <time>2020-02-01T12:27:45.000Z</time>
      </trkpt>
      <trkpt lat="42.84102" lon="0.49289">
        <ele>1924</ele>
        <time>2020-02-01T12:27:46.000Z</time>
      </trkpt>
      <trkpt lat="42.84102" lon="0.49288">
        <ele>1924.3</ele>
        <time>2020-02-01T12:27:47.000Z</time>
      </trkpt>
      <trkpt lat="42.84103" lon="0.49287">
        <ele>1924.7</ele>
        <time>2020-02-01T12:27:48.000Z</time>
      </trkpt>
      <trkpt lat="42.84104" lon="0.49287">
        <ele>1925</ele>
        <time>2020-02-01T12:27:49.000Z</time>
      </trkpt>
      <trkpt lat="42.84104" lon="0.49286">
        <ele>1925</ele>
        <time>2020-02-01T12:27:50.000Z</time>
      </trkpt>
      <trkpt lat="42.84105" lon="0.49285">
        <ele>1925</ele>
        <time>2020-02-01T12:27:51.000Z</time>
      </trkpt>
      <trkpt lat="42.84105" lon="0.49284">
        <ele>1925</ele>
        <time>2020-02-01T12:27:52.000Z</time>
      </trkpt>
      <trkpt lat="42.84106" lon="0.49283">
        <ele>1925</ele>
        <time>2020-02-01T12:27:53.000Z</time>
      </trkpt>
      <trkpt lat="42.84106" lon="0.49283">
        <ele>1925.5</ele>
        <time>2020-02-01T12:27:54.000Z</time>
      </trkpt>
      <trkpt lat="42.84107" lon="0.49282">
        <ele>1926</ele>
        <time>2020-02-01T12:27:55.000Z</time>
      </trkpt>
      <trkpt lat="42.84107" lon="0.49281">
        <ele>1926</ele>
        <time>2020-02-01T12:27:56.000Z</time>
      </trkpt>
      <trkpt lat="42.84108" lon="0.4928">
        <ele>1926</ele>
        <time>2020-02-01T12:27:57.000Z</time>
      </trkpt>
      <trkpt lat="42.84108" lon="0.4928">
        <ele>1926</ele>
        <time>2020-02-01T12:27:58.000Z</time>
      </trkpt>
      <trkpt lat="42.84109" lon="0.49279">
        <ele>1926</ele>
        <time>2020-02-01T12:27:59.000Z</time>
      </trkpt>
      <trkpt lat="42.84109" lon="0.49278">
        <ele>1926.5</ele>
        <time>2020-02-01T12:28:00.000Z</time>
      </trkpt>
      <trkpt lat="42.8411" lon="0.49277">
        <ele>1927</ele>
        <time>2020-02-01T12:28:01.000Z</time>
      </trkpt>
      <trkpt lat="42.8411" lon="0.49277">
        <ele>1927</ele>
        <time>2020-02-01T12:28:02.000Z</time>
      </trkpt>
      <trkpt lat="42.84111" lon="0.49276">
        <ele>1927</ele>
        <time>2020-02-01T12:28:03.000Z</time>
      </trkpt>
      <trkpt lat="42.84111" lon="0.49275">
        <ele>1927</ele>
        <time>2020-02-01T12:28:04.000Z</time>
      </trkpt>
      <trkpt lat="42.84112" lon="0.49274">
        <ele>1927</ele>
        <time>2020-02-01T12:28:05.000Z</time>
      </trkpt>
      <trkpt lat="42.84113" lon="0.49274">
        <ele>1927.5</ele>
        <time>2020-02-01T12:28:06.000Z</time>
      </trkpt>
      <trkpt lat="42.84113" lon="0.49273">
        <ele>1928</ele>
        <time>2020-02-01T12:28:07.000Z</time>
      </trkpt>
      <trkpt lat="42.84114" lon="0.49272">
        <ele>1928</ele>
        <time>2020-02-01T12:28:08.000Z</time>
      </trkpt>
      <trkpt lat="42.84114" lon="0.4927">
        <ele>1928</ele>
        <time>2020-02-01T12:28:09.000Z</time>
      </trkpt>
      <trkpt lat="42.84115" lon="0.49269">
        <ele>1928</ele>
        <time>2020-02-01T12:28:10.000Z</time>
      </trkpt>
      <trkpt lat="42.84116" lon="0.49268">
        <ele>1928</ele>
        <time>2020-02-01T12:28:11.000Z</time>
      </trkpt>
      <trkpt lat="42.84116" lon="0.49267">
        <ele>1928</ele>
        <time>2020-02-01T12:28:12.000Z</time>
      </trkpt>
      <trkpt lat="42.84117" lon="0.49266">
        <ele>1928</ele>
        <time>2020-02-01T12:28:13.000Z</time>
      </trkpt>
      <trkpt lat="42.84117" lon="0.49265">
        <ele>1928.5</ele>
        <time>2020-02-01T12:28:14.000Z</time>
      </trkpt>
      <trkpt lat="42.84118" lon="0.49264">
        <ele>1929</ele>
        <time>2020-02-01T12:28:15.000Z</time>
      </trkpt>
      <trkpt lat="42.84118" lon="0.49264">
        <ele>1929</ele>
        <time>2020-02-01T12:28:16.000Z</time>
      </trkpt>
      <trkpt lat="42.84119" lon="0.49263">
        <ele>1929</ele>
        <time>2020-02-01T12:28:17.000Z</time>
      </trkpt>
      <trkpt lat="42.84119" lon="0.49263">
        <ele>1929</ele>
        <time>2020-02-01T12:28:18.000Z</time>
      </trkpt>
      <trkpt lat="42.8412" lon="0.49263">
        <ele>1929</ele>
        <time>2020-02-01T12:28:19.000Z</time>
      </trkpt>
      <trkpt lat="42.8412" lon="0.49263">
        <ele>1929</ele>
        <time>2020-02-01T12:28:20.000Z</time>
      </trkpt>
      <trkpt lat="42.8412" lon="0.49263">
        <ele>1929</ele>
        <time>2020-02-01T12:28:21.000Z</time>
      </trkpt>
      <trkpt lat="42.8412" lon="0.49263">
        <ele>1930</ele>
        <time>2020-02-01T12:28:22.000Z</time>
      </trkpt>
      <trkpt lat="42.8412" lon="0.49263">
        <ele>1930</ele>
        <time>2020-02-01T12:28:23.000Z</time>
      </trkpt>
      <trkpt lat="42.8412" lon="0.49262">
        <ele>1930</ele>
        <time>2020-02-01T12:28:24.000Z</time>
      </trkpt>
      <trkpt lat="42.8412" lon="0.49262">
        <ele>1930</ele>
        <time>2020-02-01T12:28:25.000Z</time>
      </trkpt>
      <trkpt lat="42.8412" lon="0.49262">
        <ele>1929.5</ele>
        <time>2020-02-01T12:28:26.000Z</time>
      </trkpt>
      <trkpt lat="42.8412" lon="0.49262">
        <ele>1929</ele>
        <time>2020-02-01T12:28:27.000Z</time>
      </trkpt>
      <trkpt lat="42.84121" lon="0.49261">
        <ele>1929</ele>
        <time>2020-02-01T12:28:28.000Z</time>
      </trkpt>
      <trkpt lat="42.84121" lon="0.4926">
        <ele>1929.3</ele>
        <time>2020-02-01T12:28:29.000Z</time>
      </trkpt>
      <trkpt lat="42.84122" lon="0.49259">
        <ele>1929.7</ele>
        <time>2020-02-01T12:28:30.000Z</time>
      </trkpt>
      <trkpt lat="42.84123" lon="0.49259">
        <ele>1930</ele>
        <time>2020-02-01T12:28:31.000Z</time>
      </trkpt>
      <trkpt lat="42.84124" lon="0.49258">
        <ele>1930</ele>
        <time>2020-02-01T12:28:32.000Z</time>
      </trkpt>
      <trkpt lat="42.84124" lon="0.49257">
        <ele>1930</ele>
        <time>2020-02-01T12:28:33.000Z</time>
      </trkpt>
      <trkpt lat="42.84125" lon="0.49256">
        <ele>1930</ele>
        <time>2020-02-01T12:28:34.000Z</time>
      </trkpt>
      <trkpt lat="42.84125" lon="0.49256">
        <ele>1930.3</ele>
        <time>2020-02-01T12:28:35.000Z</time>
      </trkpt>
      <trkpt lat="42.84126" lon="0.49255">
        <ele>1930.7</ele>
        <time>2020-02-01T12:28:36.000Z</time>
      </trkpt>
      <trkpt lat="42.84126" lon="0.49255">
        <ele>1931</ele>
        <time>2020-02-01T12:28:37.000Z</time>
      </trkpt>
      <trkpt lat="42.84127" lon="0.49255">
        <ele>1931</ele>
        <time>2020-02-01T12:28:38.000Z</time>
      </trkpt>
      <trkpt lat="42.84127" lon="0.49254">
        <ele>1931</ele>
        <time>2020-02-01T12:28:39.000Z</time>
      </trkpt>
      <trkpt lat="42.84127" lon="0.49254">
        <ele>1931</ele>
        <time>2020-02-01T12:28:40.000Z</time>
      </trkpt>
      <trkpt lat="42.84127" lon="0.49254">
        <ele>1931</ele>
        <time>2020-02-01T12:28:41.000Z</time>
      </trkpt>
      <trkpt lat="42.84127" lon="0.49253">
        <ele>1931</ele>
        <time>2020-02-01T12:28:42.000Z</time>
      </trkpt>
      <trkpt lat="42.84128" lon="0.49253">
        <ele>1931</ele>
        <time>2020-02-01T12:28:43.000Z</time>
      </trkpt>
      <trkpt lat="42.84128" lon="0.49252">
        <ele>1931</ele>
        <time>2020-02-01T12:28:44.000Z</time>
      </trkpt>
      <trkpt lat="42.84128" lon="0.49252">
        <ele>1931</ele>
        <time>2020-02-01T12:28:45.000Z</time>
      </trkpt>
      <trkpt lat="42.84129" lon="0.49251">
        <ele>1931</ele>
        <time>2020-02-01T12:28:46.000Z</time>
      </trkpt>
      <trkpt lat="42.8413" lon="0.49251">
        <ele>1931</ele>
        <time>2020-02-01T12:28:47.000Z</time>
      </trkpt>
      <trkpt lat="42.8413" lon="0.4925">
        <ele>1931</ele>
        <time>2020-02-01T12:28:48.000Z</time>
      </trkpt>
      <trkpt lat="42.84131" lon="0.49249">
        <ele>1931</ele>
        <time>2020-02-01T12:28:49.000Z</time>
      </trkpt>
      <trkpt lat="42.84132" lon="0.49249">
        <ele>1931.5</ele>
        <time>2020-02-01T12:28:50.000Z</time>
      </trkpt>
      <trkpt lat="42.84132" lon="0.49248">
        <ele>1932</ele>
        <time>2020-02-01T12:28:51.000Z</time>
      </trkpt>
      <trkpt lat="42.84133" lon="0.49247">
        <ele>1932</ele>
        <time>2020-02-01T12:28:52.000Z</time>
      </trkpt>
      <trkpt lat="42.84134" lon="0.49247">
        <ele>1932</ele>
        <time>2020-02-01T12:28:53.000Z</time>
      </trkpt>
      <trkpt lat="42.84134" lon="0.49247">
        <ele>1932</ele>
        <time>2020-02-01T12:28:54.000Z</time>
      </trkpt>
      <trkpt lat="42.84135" lon="0.49246">
        <ele>1932</ele>
        <time>2020-02-01T12:28:55.000Z</time>
      </trkpt>
      <trkpt lat="42.84135" lon="0.49246">
        <ele>1932</ele>
        <time>2020-02-01T12:28:56.000Z</time>
      </trkpt>
      <trkpt lat="42.84136" lon="0.49246">
        <ele>1932</ele>
        <time>2020-02-01T12:28:57.000Z</time>
      </trkpt>
      <trkpt lat="42.84137" lon="0.49245">
        <ele>1932</ele>
        <time>2020-02-01T12:28:58.000Z</time>
      </trkpt>
      <trkpt lat="42.84138" lon="0.49245">
        <ele>1932</ele>
        <time>2020-02-01T12:28:59.000Z</time>
      </trkpt>
      <trkpt lat="42.84138" lon="0.49244">
        <ele>1932.5</ele>
        <time>2020-02-01T12:29:00.000Z</time>
      </trkpt>
      <trkpt lat="42.84139" lon="0.49244">
        <ele>1933</ele>
        <time>2020-02-01T12:29:01.000Z</time>
      </trkpt>
      <trkpt lat="42.84139" lon="0.49244">
        <ele>1933</ele>
        <time>2020-02-01T12:29:02.000Z</time>
      </trkpt>
      <trkpt lat="42.84139" lon="0.49243">
        <ele>1933</ele>
        <time>2020-02-01T12:29:03.000Z</time>
      </trkpt>
      <trkpt lat="42.84139" lon="0.49243">
        <ele>1933</ele>
        <time>2020-02-01T12:29:04.000Z</time>
      </trkpt>
      <trkpt lat="42.84139" lon="0.49243">
        <ele>1933</ele>
        <time>2020-02-01T12:29:05.000Z</time>
      </trkpt>
      <trkpt lat="42.8414" lon="0.49243">
        <ele>1933</ele>
        <time>2020-02-01T12:29:06.000Z</time>
      </trkpt>
      <trkpt lat="42.8414" lon="0.49242">
        <ele>1933</ele>
        <time>2020-02-01T12:29:07.000Z</time>
      </trkpt>
      <trkpt lat="42.84141" lon="0.49242">
        <ele>1933</ele>
        <time>2020-02-01T12:29:08.000Z</time>
      </trkpt>
      <trkpt lat="42.84141" lon="0.49242">
        <ele>1933</ele>
        <time>2020-02-01T12:29:09.000Z</time>
      </trkpt>
      <trkpt lat="42.84142" lon="0.49242">
        <ele>1933.5</ele>
        <time>2020-02-01T12:29:10.000Z</time>
      </trkpt>
      <trkpt lat="42.84143" lon="0.49241">
        <ele>1934</ele>
        <time>2020-02-01T12:29:11.000Z</time>
      </trkpt>
      <trkpt lat="42.84144" lon="0.49241">
        <ele>1934</ele>
        <time>2020-02-01T12:29:12.000Z</time>
      </trkpt>
      <trkpt lat="42.84144" lon="0.49241">
        <ele>1934</ele>
        <time>2020-02-01T12:29:13.000Z</time>
      </trkpt>
      <trkpt lat="42.84145" lon="0.49241">
        <ele>1934</ele>
        <time>2020-02-01T12:29:14.000Z</time>
      </trkpt>
      <trkpt lat="42.84145" lon="0.49241">
        <ele>1934</ele>
        <time>2020-02-01T12:29:15.000Z</time>
      </trkpt>
      <trkpt lat="42.84145" lon="0.4924">
        <ele>1934</ele>
        <time>2020-02-01T12:29:16.000Z</time>
      </trkpt>
      <trkpt lat="42.84146" lon="0.4924">
        <ele>1934</ele>
        <time>2020-02-01T12:29:17.000Z</time>
      </trkpt>
      <trkpt lat="42.84146" lon="0.4924">
        <ele>1934.5</ele>
        <time>2020-02-01T12:29:18.000Z</time>
      </trkpt>
      <trkpt lat="42.84147" lon="0.4924">
        <ele>1935</ele>
        <time>2020-02-01T12:29:19.000Z</time>
      </trkpt>
      <trkpt lat="42.84148" lon="0.4924">
        <ele>1935</ele>
        <time>2020-02-01T12:29:20.000Z</time>
      </trkpt>
      <trkpt lat="42.84149" lon="0.49239">
        <ele>1935</ele>
        <time>2020-02-01T12:29:21.000Z</time>
      </trkpt>
      <trkpt lat="42.84149" lon="0.49239">
        <ele>1935</ele>
        <time>2020-02-01T12:29:22.000Z</time>
      </trkpt>
      <trkpt lat="42.8415" lon="0.49239">
        <ele>1935</ele>
        <time>2020-02-01T12:29:23.000Z</time>
      </trkpt>
      <trkpt lat="42.8415" lon="0.49239">
        <ele>1935</ele>
        <time>2020-02-01T12:29:24.000Z</time>
      </trkpt>
      <trkpt lat="42.8415" lon="0.49239">
        <ele>1935</ele>
        <time>2020-02-01T12:29:25.000Z</time>
      </trkpt>
      <trkpt lat="42.8415" lon="0.49239">
        <ele>1935</ele>
        <time>2020-02-01T12:29:26.000Z</time>
      </trkpt>
      <trkpt lat="42.8415" lon="0.49239">
        <ele>1935</ele>
        <time>2020-02-01T12:29:27.000Z</time>
      </trkpt>
      <trkpt lat="42.8415" lon="0.49239">
        <ele>1935.5</ele>
        <time>2020-02-01T12:29:28.000Z</time>
      </trkpt>
      <trkpt lat="42.8415" lon="0.49238">
        <ele>1936</ele>
        <time>2020-02-01T12:29:29.000Z</time>
      </trkpt>
      <trkpt lat="42.84151" lon="0.49238">
        <ele>1936</ele>
        <time>2020-02-01T12:29:30.000Z</time>
      </trkpt>
      <trkpt lat="42.84151" lon="0.49238">
        <ele>1936</ele>
        <time>2020-02-01T12:29:31.000Z</time>
      </trkpt>
      <trkpt lat="42.84152" lon="0.49237">
        <ele>1936</ele>
        <time>2020-02-01T12:29:32.000Z</time>
      </trkpt>
      <trkpt lat="42.84152" lon="0.49237">
        <ele>1936</ele>
        <time>2020-02-01T12:29:33.000Z</time>
      </trkpt>
      <trkpt lat="42.84152" lon="0.49236">
        <ele>1936</ele>
        <time>2020-02-01T12:29:34.000Z</time>
      </trkpt>
      <trkpt lat="42.84153" lon="0.49236">
        <ele>1936</ele>
        <time>2020-02-01T12:29:35.000Z</time>
      </trkpt>
      <trkpt lat="42.84153" lon="0.49235">
        <ele>1937</ele>
        <time>2020-02-01T12:29:36.000Z</time>
      </trkpt>
      <trkpt lat="42.84154" lon="0.49235">
        <ele>1937</ele>
        <time>2020-02-01T12:29:37.000Z</time>
      </trkpt>
      <trkpt lat="42.84155" lon="0.49235">
        <ele>1937</ele>
        <time>2020-02-01T12:29:38.000Z</time>
      </trkpt>
      <trkpt lat="42.84155" lon="0.49235">
        <ele>1937</ele>
        <time>2020-02-01T12:29:39.000Z</time>
      </trkpt>
      <trkpt lat="42.84156" lon="0.49234">
        <ele>1937</ele>
        <time>2020-02-01T12:29:40.000Z</time>
      </trkpt>
      <trkpt lat="42.84156" lon="0.49234">
        <ele>1937</ele>
        <time>2020-02-01T12:29:41.000Z</time>
      </trkpt>
      <trkpt lat="42.84156" lon="0.49234">
        <ele>1937.5</ele>
        <time>2020-02-01T12:29:42.000Z</time>
      </trkpt>
      <trkpt lat="42.84156" lon="0.49234">
        <ele>1938</ele>
        <time>2020-02-01T12:29:43.000Z</time>
      </trkpt>
      <trkpt lat="42.84157" lon="0.49233">
        <ele>1937</ele>
        <time>2020-02-01T12:29:44.000Z</time>
      </trkpt>
      <trkpt lat="42.84157" lon="0.49233">
        <ele>1937</ele>
        <time>2020-02-01T12:29:45.000Z</time>
      </trkpt>
      <trkpt lat="42.84157" lon="0.49233">
        <ele>1937</ele>
        <time>2020-02-01T12:29:46.000Z</time>
      </trkpt>
      <trkpt lat="42.84158" lon="0.49232">
        <ele>1937</ele>
        <time>2020-02-01T12:29:47.000Z</time>
      </trkpt>
      <trkpt lat="42.84159" lon="0.49232">
        <ele>1937</ele>
        <time>2020-02-01T12:29:48.000Z</time>
      </trkpt>
      <trkpt lat="42.84159" lon="0.49232">
        <ele>1937</ele>
        <time>2020-02-01T12:29:49.000Z</time>
      </trkpt>
      <trkpt lat="42.8416" lon="0.49231">
        <ele>1938</ele>
        <time>2020-02-01T12:29:50.000Z</time>
      </trkpt>
      <trkpt lat="42.8416" lon="0.49231">
        <ele>1938</ele>
        <time>2020-02-01T12:29:51.000Z</time>
      </trkpt>
      <trkpt lat="42.84161" lon="0.49231">
        <ele>1938</ele>
        <time>2020-02-01T12:29:52.000Z</time>
      </trkpt>
      <trkpt lat="42.84161" lon="0.4923">
        <ele>1938</ele>
        <time>2020-02-01T12:29:53.000Z</time>
      </trkpt>
      <trkpt lat="42.84161" lon="0.4923">
        <ele>1938</ele>
        <time>2020-02-01T12:29:54.000Z</time>
      </trkpt>
      <trkpt lat="42.84162" lon="0.4923">
        <ele>1938</ele>
        <time>2020-02-01T12:29:55.000Z</time>
      </trkpt>
      <trkpt lat="42.84162" lon="0.49229">
        <ele>1938</ele>
        <time>2020-02-01T12:29:56.000Z</time>
      </trkpt>
      <trkpt lat="42.84162" lon="0.49229">
        <ele>1938</ele>
        <time>2020-02-01T12:29:57.000Z</time>
      </trkpt>
      <trkpt lat="42.84162" lon="0.49229">
        <ele>1938.5</ele>
        <time>2020-02-01T12:29:58.000Z</time>
      </trkpt>
      <trkpt lat="42.84163" lon="0.49228">
        <ele>1939</ele>
        <time>2020-02-01T12:29:59.000Z</time>
      </trkpt>
      <trkpt lat="42.84163" lon="0.49228">
        <ele>1939</ele>
        <time>2020-02-01T12:30:00.000Z</time>
      </trkpt>
      <trkpt lat="42.84164" lon="0.49228">
        <ele>1939</ele>
        <time>2020-02-01T12:30:01.000Z</time>
      </trkpt>
      <trkpt lat="42.84164" lon="0.49227">
        <ele>1939</ele>
        <time>2020-02-01T12:30:02.000Z</time>
      </trkpt>
      <trkpt lat="42.84165" lon="0.49227">
        <ele>1939</ele>
        <time>2020-02-01T12:30:03.000Z</time>
      </trkpt>
      <trkpt lat="42.84166" lon="0.49226">
        <ele>1939</ele>
        <time>2020-02-01T12:30:04.000Z</time>
      </trkpt>
      <trkpt lat="42.84166" lon="0.49226">
        <ele>1939</ele>
        <time>2020-02-01T12:30:05.000Z</time>
      </trkpt>
      <trkpt lat="42.84167" lon="0.49225">
        <ele>1939</ele>
        <time>2020-02-01T12:30:06.000Z</time>
      </trkpt>
      <trkpt lat="42.84168" lon="0.49225">
        <ele>1939</ele>
        <time>2020-02-01T12:30:07.000Z</time>
      </trkpt>
      <trkpt lat="42.84169" lon="0.49225">
        <ele>1940</ele>
        <time>2020-02-01T12:30:08.000Z</time>
      </trkpt>
      <trkpt lat="42.8417" lon="0.49225">
        <ele>1940</ele>
        <time>2020-02-01T12:30:09.000Z</time>
      </trkpt>
      <trkpt lat="42.84171" lon="0.49224">
        <ele>1940</ele>
        <time>2020-02-01T12:30:10.000Z</time>
      </trkpt>
      <trkpt lat="42.84172" lon="0.49224">
        <ele>1940</ele>
        <time>2020-02-01T12:30:11.000Z</time>
      </trkpt>
      <trkpt lat="42.84173" lon="0.49224">
        <ele>1940</ele>
        <time>2020-02-01T12:30:12.000Z</time>
      </trkpt>
      <trkpt lat="42.84174" lon="0.49223">
        <ele>1940</ele>
        <time>2020-02-01T12:30:13.000Z</time>
      </trkpt>
      <trkpt lat="42.84174" lon="0.49222">
        <ele>1940</ele>
        <time>2020-02-01T12:30:14.000Z</time>
      </trkpt>
      <trkpt lat="42.84175" lon="0.49222">
        <ele>1940</ele>
        <time>2020-02-01T12:30:15.000Z</time>
      </trkpt>
      <trkpt lat="42.84175" lon="0.49221">
        <ele>1940</ele>
        <time>2020-02-01T12:30:16.000Z</time>
      </trkpt>
      <trkpt lat="42.84176" lon="0.49221">
        <ele>1940</ele>
        <time>2020-02-01T12:30:17.000Z</time>
      </trkpt>
      <trkpt lat="42.84176" lon="0.49221">
        <ele>1940.5</ele>
        <time>2020-02-01T12:30:18.000Z</time>
      </trkpt>
      <trkpt lat="42.84176" lon="0.4922">
        <ele>1941</ele>
        <time>2020-02-01T12:30:19.000Z</time>
      </trkpt>
      <trkpt lat="42.84177" lon="0.4922">
        <ele>1941</ele>
        <time>2020-02-01T12:30:20.000Z</time>
      </trkpt>
      <trkpt lat="42.84177" lon="0.49219">
        <ele>1941</ele>
        <time>2020-02-01T12:30:21.000Z</time>
      </trkpt>
      <trkpt lat="42.84178" lon="0.49219">
        <ele>1941</ele>
        <time>2020-02-01T12:30:22.000Z</time>
      </trkpt>
      <trkpt lat="42.84179" lon="0.49218">
        <ele>1941</ele>
        <time>2020-02-01T12:30:23.000Z</time>
      </trkpt>
      <trkpt lat="42.8418" lon="0.49218">
        <ele>1941.5</ele>
        <time>2020-02-01T12:30:24.000Z</time>
      </trkpt>
      <trkpt lat="42.8418" lon="0.49217">
        <ele>1942</ele>
        <time>2020-02-01T12:30:25.000Z</time>
      </trkpt>
      <trkpt lat="42.84181" lon="0.49217">
        <ele>1942</ele>
        <time>2020-02-01T12:30:26.000Z</time>
      </trkpt>
      <trkpt lat="42.84181" lon="0.49217">
        <ele>1942.3</ele>
        <time>2020-02-01T12:30:27.000Z</time>
      </trkpt>
      <trkpt lat="42.84181" lon="0.49217">
        <ele>1942.7</ele>
        <time>2020-02-01T12:30:28.000Z</time>
      </trkpt>
      <trkpt lat="42.84181" lon="0.49216">
        <ele>1943</ele>
        <time>2020-02-01T12:30:29.000Z</time>
      </trkpt>
      <trkpt lat="42.84182" lon="0.49216">
        <ele>1943</ele>
        <time>2020-02-01T12:30:30.000Z</time>
      </trkpt>
      <trkpt lat="42.84182" lon="0.49216">
        <ele>1943</ele>
        <time>2020-02-01T12:30:31.000Z</time>
      </trkpt>
      <trkpt lat="42.84181" lon="0.49216">
        <ele>1943</ele>
        <time>2020-02-01T12:30:32.000Z</time>
      </trkpt>
      <trkpt lat="42.84182" lon="0.49216">
        <ele>1943</ele>
        <time>2020-02-01T12:30:33.000Z</time>
      </trkpt>
      <trkpt lat="42.84182" lon="0.49215">
        <ele>1942</ele>
        <time>2020-02-01T12:30:34.000Z</time>
      </trkpt>
      <trkpt lat="42.84182" lon="0.49215">
        <ele>1942</ele>
        <time>2020-02-01T12:30:35.000Z</time>
      </trkpt>
      <trkpt lat="42.84183" lon="0.49215">
        <ele>1942</ele>
        <time>2020-02-01T12:30:36.000Z</time>
      </trkpt>
      <trkpt lat="42.84183" lon="0.49214">
        <ele>1942</ele>
        <time>2020-02-01T12:30:37.000Z</time>
      </trkpt>
      <trkpt lat="42.84184" lon="0.49214">
        <ele>1942</ele>
        <time>2020-02-01T12:30:38.000Z</time>
      </trkpt>
      <trkpt lat="42.84185" lon="0.49214">
        <ele>1942</ele>
        <time>2020-02-01T12:30:39.000Z</time>
      </trkpt>
      <trkpt lat="42.84185" lon="0.49213">
        <ele>1942.5</ele>
        <time>2020-02-01T12:30:40.000Z</time>
      </trkpt>
      <trkpt lat="42.84186" lon="0.49212">
        <ele>1943</ele>
        <time>2020-02-01T12:30:41.000Z</time>
      </trkpt>
      <trkpt lat="42.84186" lon="0.49212">
        <ele>1943</ele>
        <time>2020-02-01T12:30:42.000Z</time>
      </trkpt>
      <trkpt lat="42.84187" lon="0.49211">
        <ele>1943</ele>
        <time>2020-02-01T12:30:43.000Z</time>
      </trkpt>
      <trkpt lat="42.84188" lon="0.4921">
        <ele>1943</ele>
        <time>2020-02-01T12:30:44.000Z</time>
      </trkpt>
      <trkpt lat="42.84188" lon="0.49209">
        <ele>1943</ele>
        <time>2020-02-01T12:30:45.000Z</time>
      </trkpt>
      <trkpt lat="42.84189" lon="0.49208">
        <ele>1943</ele>
        <time>2020-02-01T12:30:46.000Z</time>
      </trkpt>
      <trkpt lat="42.84189" lon="0.49207">
        <ele>1943</ele>
        <time>2020-02-01T12:30:47.000Z</time>
      </trkpt>
      <trkpt lat="42.8419" lon="0.49206">
        <ele>1943.5</ele>
        <time>2020-02-01T12:30:48.000Z</time>
      </trkpt>
      <trkpt lat="42.8419" lon="0.49205">
        <ele>1944</ele>
        <time>2020-02-01T12:30:49.000Z</time>
      </trkpt>
      <trkpt lat="42.84191" lon="0.49204">
        <ele>1944</ele>
        <time>2020-02-01T12:30:50.000Z</time>
      </trkpt>
      <trkpt lat="42.84191" lon="0.49203">
        <ele>1944</ele>
        <time>2020-02-01T12:30:51.000Z</time>
      </trkpt>
      <trkpt lat="42.84192" lon="0.49202">
        <ele>1944</ele>
        <time>2020-02-01T12:30:52.000Z</time>
      </trkpt>
      <trkpt lat="42.84192" lon="0.49201">
        <ele>1944</ele>
        <time>2020-02-01T12:30:53.000Z</time>
      </trkpt>
      <trkpt lat="42.84192" lon="0.49201">
        <ele>1944</ele>
        <time>2020-02-01T12:30:54.000Z</time>
      </trkpt>
      <trkpt lat="42.84193" lon="0.492">
        <ele>1944.3</ele>
        <time>2020-02-01T12:30:55.000Z</time>
      </trkpt>
      <trkpt lat="42.84193" lon="0.49199">
        <ele>1944.7</ele>
        <time>2020-02-01T12:30:56.000Z</time>
      </trkpt>
      <trkpt lat="42.84194" lon="0.49198">
        <ele>1945</ele>
        <time>2020-02-01T12:30:57.000Z</time>
      </trkpt>
      <trkpt lat="42.84194" lon="0.49197">
        <ele>1945</ele>
        <time>2020-02-01T12:30:58.000Z</time>
      </trkpt>
      <trkpt lat="42.84195" lon="0.49196">
        <ele>1945</ele>
        <time>2020-02-01T12:30:59.000Z</time>
      </trkpt>
      <trkpt lat="42.84195" lon="0.49196">
        <ele>1945</ele>
        <time>2020-02-01T12:31:00.000Z</time>
      </trkpt>
      <trkpt lat="42.84196" lon="0.49195">
        <ele>1945</ele>
        <time>2020-02-01T12:31:01.000Z</time>
      </trkpt>
      <trkpt lat="42.84196" lon="0.49194">
        <ele>1945</ele>
        <time>2020-02-01T12:31:02.000Z</time>
      </trkpt>
      <trkpt lat="42.84197" lon="0.49194">
        <ele>1945</ele>
        <time>2020-02-01T12:31:03.000Z</time>
      </trkpt>
      <trkpt lat="42.84197" lon="0.49193">
        <ele>1945.5</ele>
        <time>2020-02-01T12:31:04.000Z</time>
      </trkpt>
      <trkpt lat="42.84198" lon="0.49192">
        <ele>1946</ele>
        <time>2020-02-01T12:31:05.000Z</time>
      </trkpt>
      <trkpt lat="42.84198" lon="0.49191">
        <ele>1946</ele>
        <time>2020-02-01T12:31:06.000Z</time>
      </trkpt>
      <trkpt lat="42.84198" lon="0.4919">
        <ele>1946</ele>
        <time>2020-02-01T12:31:07.000Z</time>
      </trkpt>
      <trkpt lat="42.84199" lon="0.49189">
        <ele>1946</ele>
        <time>2020-02-01T12:31:08.000Z</time>
      </trkpt>
      <trkpt lat="42.84199" lon="0.49188">
        <ele>1946</ele>
        <time>2020-02-01T12:31:09.000Z</time>
      </trkpt>
      <trkpt lat="42.842" lon="0.49188">
        <ele>1946</ele>
        <time>2020-02-01T12:31:10.000Z</time>
      </trkpt>
      <trkpt lat="42.842" lon="0.49187">
        <ele>1946</ele>
        <time>2020-02-01T12:31:11.000Z</time>
      </trkpt>
      <trkpt lat="42.84201" lon="0.49187">
        <ele>1946.5</ele>
        <time>2020-02-01T12:31:12.000Z</time>
      </trkpt>
      <trkpt lat="42.84201" lon="0.49186">
        <ele>1947</ele>
        <time>2020-02-01T12:31:13.000Z</time>
      </trkpt>
      <trkpt lat="42.84202" lon="0.49185">
        <ele>1947</ele>
        <time>2020-02-01T12:31:14.000Z</time>
      </trkpt>
      <trkpt lat="42.84203" lon="0.49184">
        <ele>1947</ele>
        <time>2020-02-01T12:31:15.000Z</time>
      </trkpt>
      <trkpt lat="42.84203" lon="0.49182">
        <ele>1947</ele>
        <time>2020-02-01T12:31:16.000Z</time>
      </trkpt>
      <trkpt lat="42.84204" lon="0.49181">
        <ele>1947</ele>
        <time>2020-02-01T12:31:17.000Z</time>
      </trkpt>
      <trkpt lat="42.84204" lon="0.4918">
        <ele>1947.5</ele>
        <time>2020-02-01T12:31:18.000Z</time>
      </trkpt>
      <trkpt lat="42.84204" lon="0.49179">
        <ele>1948</ele>
        <time>2020-02-01T12:31:19.000Z</time>
      </trkpt>
      <trkpt lat="42.84205" lon="0.49178">
        <ele>1948</ele>
        <time>2020-02-01T12:31:20.000Z</time>
      </trkpt>
      <trkpt lat="42.84205" lon="0.49177">
        <ele>1948</ele>
        <time>2020-02-01T12:31:21.000Z</time>
      </trkpt>
      <trkpt lat="42.84205" lon="0.49176">
        <ele>1948</ele>
        <time>2020-02-01T12:31:22.000Z</time>
      </trkpt>
      <trkpt lat="42.84206" lon="0.49175">
        <ele>1948</ele>
        <time>2020-02-01T12:31:23.000Z</time>
      </trkpt>
      <trkpt lat="42.84206" lon="0.49174">
        <ele>1948</ele>
        <time>2020-02-01T12:31:24.000Z</time>
      </trkpt>
      <trkpt lat="42.84206" lon="0.49173">
        <ele>1948</ele>
        <time>2020-02-01T12:31:25.000Z</time>
      </trkpt>
      <trkpt lat="42.84207" lon="0.49172">
        <ele>1948</ele>
        <time>2020-02-01T12:31:26.000Z</time>
      </trkpt>
      <trkpt lat="42.84207" lon="0.49171">
        <ele>1948</ele>
        <time>2020-02-01T12:31:27.000Z</time>
      </trkpt>
      <trkpt lat="42.84207" lon="0.49171">
        <ele>1949</ele>
        <time>2020-02-01T12:31:28.000Z</time>
      </trkpt>
      <trkpt lat="42.84208" lon="0.4917">
        <ele>1949</ele>
        <time>2020-02-01T12:31:29.000Z</time>
      </trkpt>
      <trkpt lat="42.84208" lon="0.49169">
        <ele>1949</ele>
        <time>2020-02-01T12:31:30.000Z</time>
      </trkpt>
      <trkpt lat="42.84209" lon="0.49168">
        <ele>1949</ele>
        <time>2020-02-01T12:31:31.000Z</time>
      </trkpt>
      <trkpt lat="42.84209" lon="0.49167">
        <ele>1949</ele>
        <time>2020-02-01T12:31:32.000Z</time>
      </trkpt>
      <trkpt lat="42.84209" lon="0.49167">
        <ele>1949</ele>
        <time>2020-02-01T12:31:33.000Z</time>
      </trkpt>
      <trkpt lat="42.8421" lon="0.49166">
        <ele>1949</ele>
        <time>2020-02-01T12:31:34.000Z</time>
      </trkpt>
      <trkpt lat="42.8421" lon="0.49165">
        <ele>1949</ele>
        <time>2020-02-01T12:31:35.000Z</time>
      </trkpt>
      <trkpt lat="42.8421" lon="0.49164">
        <ele>1949</ele>
        <time>2020-02-01T12:31:36.000Z</time>
      </trkpt>
      <trkpt lat="42.84211" lon="0.49163">
        <ele>1949</ele>
        <time>2020-02-01T12:31:37.000Z</time>
      </trkpt>
      <trkpt lat="42.84211" lon="0.49163">
        <ele>1949</ele>
        <time>2020-02-01T12:31:38.000Z</time>
      </trkpt>
      <trkpt lat="42.84212" lon="0.49162">
        <ele>1949.3</ele>
        <time>2020-02-01T12:31:39.000Z</time>
      </trkpt>
      <trkpt lat="42.84212" lon="0.49161">
        <ele>1949.7</ele>
        <time>2020-02-01T12:31:40.000Z</time>
      </trkpt>
      <trkpt lat="42.84212" lon="0.49161">
        <ele>1950</ele>
        <time>2020-02-01T12:31:41.000Z</time>
      </trkpt>
      <trkpt lat="42.84213" lon="0.49161">
        <ele>1950</ele>
        <time>2020-02-01T12:31:42.000Z</time>
      </trkpt>
      <trkpt lat="42.84213" lon="0.49161">
        <ele>1950</ele>
        <time>2020-02-01T12:31:43.000Z</time>
      </trkpt>
      <trkpt lat="42.84213" lon="0.49161">
        <ele>1950</ele>
        <time>2020-02-01T12:31:44.000Z</time>
      </trkpt>
      <trkpt lat="42.84213" lon="0.4916">
        <ele>1950</ele>
        <time>2020-02-01T12:31:45.000Z</time>
      </trkpt>
      <trkpt lat="42.84213" lon="0.4916">
        <ele>1950</ele>
        <time>2020-02-01T12:31:46.000Z</time>
      </trkpt>
      <trkpt lat="42.84213" lon="0.4916">
        <ele>1950</ele>
        <time>2020-02-01T12:31:47.000Z</time>
      </trkpt>
      <trkpt lat="42.84213" lon="0.49159">
        <ele>1950</ele>
        <time>2020-02-01T12:31:48.000Z</time>
      </trkpt>
      <trkpt lat="42.84214" lon="0.49158">
        <ele>1950</ele>
        <time>2020-02-01T12:31:49.000Z</time>
      </trkpt>
      <trkpt lat="42.84214" lon="0.49158">
        <ele>1950</ele>
        <time>2020-02-01T12:31:50.000Z</time>
      </trkpt>
      <trkpt lat="42.84214" lon="0.49157">
        <ele>1950</ele>
        <time>2020-02-01T12:31:51.000Z</time>
      </trkpt>
      <trkpt lat="42.84214" lon="0.49157">
        <ele>1950</ele>
        <time>2020-02-01T12:31:52.000Z</time>
      </trkpt>
      <trkpt lat="42.84214" lon="0.49157">
        <ele>1950</ele>
        <time>2020-02-01T12:31:53.000Z</time>
      </trkpt>
      <trkpt lat="42.84214" lon="0.49157">
        <ele>1949.5</ele>
        <time>2020-02-01T12:31:54.000Z</time>
      </trkpt>
      <trkpt lat="42.84214" lon="0.49157">
        <ele>1949</ele>
        <time>2020-02-01T12:31:55.000Z</time>
      </trkpt>
      <trkpt lat="42.84214" lon="0.49157">
        <ele>1949</ele>
        <time>2020-02-01T12:31:56.000Z</time>
      </trkpt>
      <trkpt lat="42.84214" lon="0.49157">
        <ele>1949</ele>
        <time>2020-02-01T12:31:57.000Z</time>
      </trkpt>
      <trkpt lat="42.84214" lon="0.49157">
        <ele>1949</ele>
        <time>2020-02-01T12:31:58.000Z</time>
      </trkpt>
      <trkpt lat="42.84214" lon="0.49157">
        <ele>1949</ele>
        <time>2020-02-01T12:31:59.000Z</time>
      </trkpt>
      <trkpt lat="42.84214" lon="0.49157">
        <ele>1949</ele>
        <time>2020-02-01T12:32:00.000Z</time>
      </trkpt>
      <trkpt lat="42.84214" lon="0.49157">
        <ele>1949</ele>
        <time>2020-02-01T12:32:01.000Z</time>
      </trkpt>
      <trkpt lat="42.84214" lon="0.49157">
        <ele>1949</ele>
        <time>2020-02-01T12:32:02.000Z</time>
      </trkpt>
      <trkpt lat="42.84214" lon="0.49157">
        <ele>1949</ele>
        <time>2020-02-01T12:32:03.000Z</time>
      </trkpt>
      <trkpt lat="42.84214" lon="0.49157">
        <ele>1949</ele>
        <time>2020-02-01T12:32:04.000Z</time>
      </trkpt>
      <trkpt lat="42.84214" lon="0.49157">
        <ele>1949</ele>
        <time>2020-02-01T12:32:05.000Z</time>
      </trkpt>
      <trkpt lat="42.84214" lon="0.49157">
        <ele>1949</ele>
        <time>2020-02-01T12:32:06.000Z</time>
      </trkpt>
      <trkpt lat="42.84214" lon="0.49157">
        <ele>1949</ele>
        <time>2020-02-01T12:32:07.000Z</time>
      </trkpt>
      <trkpt lat="42.84214" lon="0.49157">
        <ele>1949</ele>
        <time>2020-02-01T12:32:08.000Z</time>
      </trkpt>
      <trkpt lat="42.84214" lon="0.49157">
        <ele>1949</ele>
        <time>2020-02-01T12:32:09.000Z</time>
      </trkpt>
      <trkpt lat="42.84214" lon="0.49157">
        <ele>1949</ele>
        <time>2020-02-01T12:32:10.000Z</time>
      </trkpt>
      <trkpt lat="42.84214" lon="0.49157">
        <ele>1949</ele>
        <time>2020-02-01T12:32:11.000Z</time>
      </trkpt>
      <trkpt lat="42.84214" lon="0.49157">
        <ele>1949</ele>
        <time>2020-02-01T12:32:12.000Z</time>
      </trkpt>
      <trkpt lat="42.84214" lon="0.49157">
        <ele>1949</ele>
        <time>2020-02-01T12:32:13.000Z</time>
      </trkpt>
      <trkpt lat="42.84214" lon="0.49157">
        <ele>1949</ele>
        <time>2020-02-01T12:32:14.000Z</time>
      </trkpt>
      <trkpt lat="42.84214" lon="0.49157">
        <ele>1949</ele>
        <time>2020-02-01T12:32:15.000Z</time>
      </trkpt>
      <trkpt lat="42.84214" lon="0.49157">
        <ele>1949</ele>
        <time>2020-02-01T12:32:16.000Z</time>
      </trkpt>
      <trkpt lat="42.84214" lon="0.49157">
        <ele>1949</ele>
        <time>2020-02-01T12:32:17.000Z</time>
      </trkpt>
      <trkpt lat="42.84214" lon="0.49157">
        <ele>1949</ele>
        <time>2020-02-01T12:32:18.000Z</time>
      </trkpt>
      <trkpt lat="42.84214" lon="0.49157">
        <ele>1949</ele>
        <time>2020-02-01T12:32:19.000Z</time>
      </trkpt>
      <trkpt lat="42.84214" lon="0.49157">
        <ele>1949</ele>
        <time>2020-02-01T12:32:20.000Z</time>
      </trkpt>
      <trkpt lat="42.84214" lon="0.49157">
        <ele>1949</ele>
        <time>2020-02-01T12:32:21.000Z</time>
      </trkpt>
      <trkpt lat="42.84214" lon="0.49157">
        <ele>1949</ele>
        <time>2020-02-01T12:32:22.000Z</time>
      </trkpt>
      <trkpt lat="42.84214" lon="0.49157">
        <ele>1949</ele>
        <time>2020-02-01T12:32:23.000Z</time>
      </trkpt>
      <trkpt lat="42.84214" lon="0.49157">
        <ele>1949</ele>
        <time>2020-02-01T12:32:24.000Z</time>
      </trkpt>
      <trkpt lat="42.84214" lon="0.49157">
        <ele>1949</ele>
        <time>2020-02-01T12:32:25.000Z</time>
      </trkpt>
      <trkpt lat="42.84214" lon="0.49157">
        <ele>1949</ele>
        <time>2020-02-01T12:32:26.000Z</time>
      </trkpt>
      <trkpt lat="42.84214" lon="0.49157">
        <ele>1949</ele>
        <time>2020-02-01T12:32:27.000Z</time>
      </trkpt>
      <trkpt lat="42.84214" lon="0.49157">
        <ele>1949</ele>
        <time>2020-02-01T12:32:28.000Z</time>
      </trkpt>
      <trkpt lat="42.84214" lon="0.49157">
        <ele>1949</ele>
        <time>2020-02-01T12:32:29.000Z</time>
      </trkpt>
      <trkpt lat="42.84214" lon="0.49157">
        <ele>1949</ele>
        <time>2020-02-01T12:32:30.000Z</time>
      </trkpt>
      <trkpt lat="42.84214" lon="0.49157">
        <ele>1949</ele>
        <time>2020-02-01T12:32:31.000Z</time>
      </trkpt>
      <trkpt lat="42.84214" lon="0.49157">
        <ele>1949</ele>
        <time>2020-02-01T12:32:32.000Z</time>
      </trkpt>
      <trkpt lat="42.84214" lon="0.49157">
        <ele>1949</ele>
        <time>2020-02-01T12:32:33.000Z</time>
      </trkpt>
      <trkpt lat="42.84214" lon="0.49157">
        <ele>1949</ele>
        <time>2020-02-01T12:32:34.000Z</time>
      </trkpt>
      <trkpt lat="42.84214" lon="0.49157">
        <ele>1949</ele>
        <time>2020-02-01T12:32:35.000Z</time>
      </trkpt>
      <trkpt lat="42.84214" lon="0.49157">
        <ele>1949</ele>
        <time>2020-02-01T12:32:36.000Z</time>
      </trkpt>
      <trkpt lat="42.84214" lon="0.49157">
        <ele>1949.3</ele>
        <time>2020-02-01T12:32:37.000Z</time>
      </trkpt>
      <trkpt lat="42.84214" lon="0.49157">
        <ele>1949.7</ele>
        <time>2020-02-01T12:32:38.000Z</time>
      </trkpt>
      <trkpt lat="42.84214" lon="0.49157">
        <ele>1950</ele>
        <time>2020-02-01T12:32:39.000Z</time>
      </trkpt>
      <trkpt lat="42.84214" lon="0.49157">
        <ele>1950</ele>
        <time>2020-02-01T12:32:40.000Z</time>
      </trkpt>
      <trkpt lat="42.84214" lon="0.49157">
        <ele>1950</ele>
        <time>2020-02-01T12:32:41.000Z</time>
      </trkpt>
      <trkpt lat="42.84214" lon="0.49157">
        <ele>1950</ele>
        <time>2020-02-01T12:32:42.000Z</time>
      </trkpt>
      <trkpt lat="42.84214" lon="0.49157">
        <ele>1950</ele>
        <time>2020-02-01T12:32:43.000Z</time>
      </trkpt>
      <trkpt lat="42.84214" lon="0.49157">
        <ele>1950</ele>
        <time>2020-02-01T12:32:44.000Z</time>
      </trkpt>
      <trkpt lat="42.84214" lon="0.49157">
        <ele>1950</ele>
        <time>2020-02-01T12:32:45.000Z</time>
      </trkpt>
      <trkpt lat="42.84214" lon="0.49157">
        <ele>1950</ele>
        <time>2020-02-01T12:32:46.000Z</time>
      </trkpt>
      <trkpt lat="42.84214" lon="0.49157">
        <ele>1950</ele>
        <time>2020-02-01T12:32:47.000Z</time>
      </trkpt>
      <trkpt lat="42.84214" lon="0.49157">
        <ele>1950</ele>
        <time>2020-02-01T12:32:48.000Z</time>
      </trkpt>
      <trkpt lat="42.84214" lon="0.49157">
        <ele>1950</ele>
        <time>2020-02-01T12:32:49.000Z</time>
      </trkpt>
      <trkpt lat="42.84214" lon="0.49157">
        <ele>1950</ele>
        <time>2020-02-01T12:32:50.000Z</time>
      </trkpt>
      <trkpt lat="42.84214" lon="0.49157">
        <ele>1950</ele>
        <time>2020-02-01T12:32:51.000Z</time>
      </trkpt>
      <trkpt lat="42.84214" lon="0.49157">
        <ele>1950</ele>
        <time>2020-02-01T12:32:52.000Z</time>
      </trkpt>
      <trkpt lat="42.84214" lon="0.49157">
        <ele>1950</ele>
        <time>2020-02-01T12:32:53.000Z</time>
      </trkpt>
      <trkpt lat="42.84214" lon="0.49157">
        <ele>1950</ele>
        <time>2020-02-01T12:32:54.000Z</time>
      </trkpt>
      <trkpt lat="42.84214" lon="0.49157">
        <ele>1950</ele>
        <time>2020-02-01T12:32:55.000Z</time>
      </trkpt>
      <trkpt lat="42.84214" lon="0.49157">
        <ele>1950</ele>
        <time>2020-02-01T12:32:56.000Z</time>
      </trkpt>
      <trkpt lat="42.84214" lon="0.49156">
        <ele>1950</ele>
        <time>2020-02-01T12:32:57.000Z</time>
      </trkpt>
      <trkpt lat="42.84214" lon="0.49156">
        <ele>1949</ele>
        <time>2020-02-01T12:32:58.000Z</time>
      </trkpt>
      <trkpt lat="42.84214" lon="0.49155">
        <ele>1949</ele>
        <time>2020-02-01T12:32:59.000Z</time>
      </trkpt>
      <trkpt lat="42.84214" lon="0.49155">
        <ele>1949</ele>
        <time>2020-02-01T12:33:00.000Z</time>
      </trkpt>
      <trkpt lat="42.84214" lon="0.49155">
        <ele>1949</ele>
        <time>2020-02-01T12:33:01.000Z</time>
      </trkpt>
      <trkpt lat="42.84214" lon="0.49155">
        <ele>1949.5</ele>
        <time>2020-02-01T12:33:02.000Z</time>
      </trkpt>
      <trkpt lat="42.84214" lon="0.49155">
        <ele>1950</ele>
        <time>2020-02-01T12:33:03.000Z</time>
      </trkpt>
      <trkpt lat="42.84214" lon="0.49155">
        <ele>1950</ele>
        <time>2020-02-01T12:33:04.000Z</time>
      </trkpt>
      <trkpt lat="42.84214" lon="0.49155">
        <ele>1950</ele>
        <time>2020-02-01T12:33:05.000Z</time>
      </trkpt>
      <trkpt lat="42.84214" lon="0.49155">
        <ele>1950</ele>
        <time>2020-02-01T12:33:06.000Z</time>
      </trkpt>
      <trkpt lat="42.84214" lon="0.49155">
        <ele>1950</ele>
        <time>2020-02-01T12:33:07.000Z</time>
      </trkpt>
      <trkpt lat="42.84214" lon="0.49155">
        <ele>1950</ele>
        <time>2020-02-01T12:33:08.000Z</time>
      </trkpt>
      <trkpt lat="42.84214" lon="0.49155">
        <ele>1950</ele>
        <time>2020-02-01T12:33:09.000Z</time>
      </trkpt>
      <trkpt lat="42.84214" lon="0.49155">
        <ele>1950</ele>
        <time>2020-02-01T12:33:10.000Z</time>
      </trkpt>
      <trkpt lat="42.84214" lon="0.49155">
        <ele>1950</ele>
        <time>2020-02-01T12:33:11.000Z</time>
      </trkpt>
      <trkpt lat="42.84214" lon="0.49155">
        <ele>1950</ele>
        <time>2020-02-01T12:33:12.000Z</time>
      </trkpt>
      <trkpt lat="42.84214" lon="0.49155">
        <ele>1950</ele>
        <time>2020-02-01T12:33:13.000Z</time>
      </trkpt>
      <trkpt lat="42.84214" lon="0.49155">
        <ele>1950</ele>
        <time>2020-02-01T12:33:14.000Z</time>
      </trkpt>
      <trkpt lat="42.84214" lon="0.49155">
        <ele>1950</ele>
        <time>2020-02-01T12:33:15.000Z</time>
      </trkpt>
      <trkpt lat="42.84214" lon="0.49155">
        <ele>1950</ele>
        <time>2020-02-01T12:33:16.000Z</time>
      </trkpt>
      <trkpt lat="42.84214" lon="0.49155">
        <ele>1950</ele>
        <time>2020-02-01T12:33:17.000Z</time>
      </trkpt>
      <trkpt lat="42.84214" lon="0.49155">
        <ele>1950</ele>
        <time>2020-02-01T12:33:18.000Z</time>
      </trkpt>
      <trkpt lat="42.84214" lon="0.49155">
        <ele>1950</ele>
        <time>2020-02-01T12:33:19.000Z</time>
      </trkpt>
      <trkpt lat="42.84214" lon="0.49155">
        <ele>1950</ele>
        <time>2020-02-01T12:33:20.000Z</time>
      </trkpt>
      <trkpt lat="42.84214" lon="0.49155">
        <ele>1950</ele>
        <time>2020-02-01T12:33:21.000Z</time>
      </trkpt>
      <trkpt lat="42.84214" lon="0.49155">
        <ele>1950</ele>
        <time>2020-02-01T12:33:22.000Z</time>
      </trkpt>
      <trkpt lat="42.84214" lon="0.49155">
        <ele>1950</ele>
        <time>2020-02-01T12:33:23.000Z</time>
      </trkpt>
      <trkpt lat="42.84214" lon="0.49155">
        <ele>1950.5</ele>
        <time>2020-02-01T12:33:24.000Z</time>
      </trkpt>
      <trkpt lat="42.84214" lon="0.49155">
        <ele>1951</ele>
        <time>2020-02-01T12:33:25.000Z</time>
      </trkpt>
      <trkpt lat="42.84214" lon="0.49155">
        <ele>1950.5</ele>
        <time>2020-02-01T12:33:26.000Z</time>
      </trkpt>
      <trkpt lat="42.84214" lon="0.49155">
        <ele>1950</ele>
        <time>2020-02-01T12:33:27.000Z</time>
      </trkpt>
      <trkpt lat="42.84214" lon="0.49155">
        <ele>1950</ele>
        <time>2020-02-01T12:33:28.000Z</time>
      </trkpt>
      <trkpt lat="42.84214" lon="0.49155">
        <ele>1950</ele>
        <time>2020-02-01T12:33:29.000Z</time>
      </trkpt>
      <trkpt lat="42.84214" lon="0.49155">
        <ele>1950</ele>
        <time>2020-02-01T12:33:30.000Z</time>
      </trkpt>
      <trkpt lat="42.84214" lon="0.49154">
        <ele>1950</ele>
        <time>2020-02-01T12:33:31.000Z</time>
      </trkpt>
      <trkpt lat="42.84214" lon="0.49154">
        <ele>1950</ele>
        <time>2020-02-01T12:33:32.000Z</time>
      </trkpt>
      <trkpt lat="42.84214" lon="0.49154">
        <ele>1950</ele>
        <time>2020-02-01T12:33:33.000Z</time>
      </trkpt>
      <trkpt lat="42.84214" lon="0.49154">
        <ele>1950</ele>
        <time>2020-02-01T12:33:34.000Z</time>
      </trkpt>
      <trkpt lat="42.84214" lon="0.49154">
        <ele>1950</ele>
        <time>2020-02-01T12:33:35.000Z</time>
      </trkpt>
      <trkpt lat="42.84214" lon="0.49153">
        <ele>1950</ele>
        <time>2020-02-01T12:33:36.000Z</time>
      </trkpt>
      <trkpt lat="42.84214" lon="0.49153">
        <ele>1950</ele>
        <time>2020-02-01T12:33:37.000Z</time>
      </trkpt>
      <trkpt lat="42.84215" lon="0.49152">
        <ele>1950</ele>
        <time>2020-02-01T12:33:38.000Z</time>
      </trkpt>
      <trkpt lat="42.84215" lon="0.49151">
        <ele>1950</ele>
        <time>2020-02-01T12:33:39.000Z</time>
      </trkpt>
      <trkpt lat="42.84216" lon="0.49151">
        <ele>1950</ele>
        <time>2020-02-01T12:33:40.000Z</time>
      </trkpt>
      <trkpt lat="42.84216" lon="0.4915">
        <ele>1950</ele>
        <time>2020-02-01T12:33:41.000Z</time>
      </trkpt>
      <trkpt lat="42.84217" lon="0.49149">
        <ele>1950</ele>
        <time>2020-02-01T12:33:42.000Z</time>
      </trkpt>
      <trkpt lat="42.84217" lon="0.49148">
        <ele>1950</ele>
        <time>2020-02-01T12:33:43.000Z</time>
      </trkpt>
      <trkpt lat="42.84218" lon="0.49147">
        <ele>1950</ele>
        <time>2020-02-01T12:33:44.000Z</time>
      </trkpt>
      <trkpt lat="42.84218" lon="0.49145">
        <ele>1950</ele>
        <time>2020-02-01T12:33:45.000Z</time>
      </trkpt>
      <trkpt lat="42.84219" lon="0.49144">
        <ele>1950</ele>
        <time>2020-02-01T12:33:46.000Z</time>
      </trkpt>
      <trkpt lat="42.8422" lon="0.49143">
        <ele>1950</ele>
        <time>2020-02-01T12:33:47.000Z</time>
      </trkpt>
      <trkpt lat="42.8422" lon="0.49142">
        <ele>1950</ele>
        <time>2020-02-01T12:33:48.000Z</time>
      </trkpt>
      <trkpt lat="42.84221" lon="0.49141">
        <ele>1950</ele>
        <time>2020-02-01T12:33:49.000Z</time>
      </trkpt>
      <trkpt lat="42.84221" lon="0.4914">
        <ele>1950</ele>
        <time>2020-02-01T12:33:50.000Z</time>
      </trkpt>
      <trkpt lat="42.84222" lon="0.49139">
        <ele>1950</ele>
        <time>2020-02-01T12:33:51.000Z</time>
      </trkpt>
      <trkpt lat="42.84222" lon="0.49138">
        <ele>1950</ele>
        <time>2020-02-01T12:33:52.000Z</time>
      </trkpt>
      <trkpt lat="42.84223" lon="0.49137">
        <ele>1950</ele>
        <time>2020-02-01T12:33:53.000Z</time>
      </trkpt>
      <trkpt lat="42.84223" lon="0.49136">
        <ele>1950</ele>
        <time>2020-02-01T12:33:54.000Z</time>
      </trkpt>
      <trkpt lat="42.84224" lon="0.49135">
        <ele>1950</ele>
        <time>2020-02-01T12:33:55.000Z</time>
      </trkpt>
      <trkpt lat="42.84224" lon="0.49134">
        <ele>1950</ele>
        <time>2020-02-01T12:33:56.000Z</time>
      </trkpt>
      <trkpt lat="42.84225" lon="0.49133">
        <ele>1950</ele>
        <time>2020-02-01T12:33:57.000Z</time>
      </trkpt>
      <trkpt lat="42.84225" lon="0.49132">
        <ele>1950</ele>
        <time>2020-02-01T12:33:58.000Z</time>
      </trkpt>
      <trkpt lat="42.84226" lon="0.49131">
        <ele>1950</ele>
        <time>2020-02-01T12:33:59.000Z</time>
      </trkpt>
      <trkpt lat="42.84226" lon="0.4913">
        <ele>1950</ele>
        <time>2020-02-01T12:34:00.000Z</time>
      </trkpt>
      <trkpt lat="42.84227" lon="0.49129">
        <ele>1950</ele>
        <time>2020-02-01T12:34:01.000Z</time>
      </trkpt>
      <trkpt lat="42.84227" lon="0.49128">
        <ele>1950</ele>
        <time>2020-02-01T12:34:02.000Z</time>
      </trkpt>
      <trkpt lat="42.84228" lon="0.49127">
        <ele>1950</ele>
        <time>2020-02-01T12:34:03.000Z</time>
      </trkpt>
      <trkpt lat="42.84228" lon="0.49126">
        <ele>1950</ele>
        <time>2020-02-01T12:34:04.000Z</time>
      </trkpt>
      <trkpt lat="42.84229" lon="0.49125">
        <ele>1950</ele>
        <time>2020-02-01T12:34:05.000Z</time>
      </trkpt>
      <trkpt lat="42.84229" lon="0.49124">
        <ele>1950</ele>
        <time>2020-02-01T12:34:06.000Z</time>
      </trkpt>
      <trkpt lat="42.8423" lon="0.49124">
        <ele>1950</ele>
        <time>2020-02-01T12:34:07.000Z</time>
      </trkpt>
      <trkpt lat="42.8423" lon="0.49123">
        <ele>1950</ele>
        <time>2020-02-01T12:34:08.000Z</time>
      </trkpt>
      <trkpt lat="42.84231" lon="0.49122">
        <ele>1950</ele>
        <time>2020-02-01T12:34:09.000Z</time>
      </trkpt>
      <trkpt lat="42.84231" lon="0.49121">
        <ele>1950</ele>
        <time>2020-02-01T12:34:10.000Z</time>
      </trkpt>
      <trkpt lat="42.84231" lon="0.4912">
        <ele>1950</ele>
        <time>2020-02-01T12:34:11.000Z</time>
      </trkpt>
      <trkpt lat="42.84232" lon="0.49119">
        <ele>1950</ele>
        <time>2020-02-01T12:34:12.000Z</time>
      </trkpt>
      <trkpt lat="42.84232" lon="0.49118">
        <ele>1950</ele>
        <time>2020-02-01T12:34:13.000Z</time>
      </trkpt>
      <trkpt lat="42.84233" lon="0.49118">
        <ele>1950</ele>
        <time>2020-02-01T12:34:14.000Z</time>
      </trkpt>
      <trkpt lat="42.84233" lon="0.49117">
        <ele>1950</ele>
        <time>2020-02-01T12:34:15.000Z</time>
      </trkpt>
      <trkpt lat="42.84234" lon="0.49116">
        <ele>1950</ele>
        <time>2020-02-01T12:34:16.000Z</time>
      </trkpt>
      <trkpt lat="42.84234" lon="0.49115">
        <ele>1950</ele>
        <time>2020-02-01T12:34:17.000Z</time>
      </trkpt>
      <trkpt lat="42.84234" lon="0.49115">
        <ele>1950</ele>
        <time>2020-02-01T12:34:18.000Z</time>
      </trkpt>
      <trkpt lat="42.84235" lon="0.49114">
        <ele>1950</ele>
        <time>2020-02-01T12:34:19.000Z</time>
      </trkpt>
      <trkpt lat="42.84235" lon="0.49113">
        <ele>1950</ele>
        <time>2020-02-01T12:34:20.000Z</time>
      </trkpt>
      <trkpt lat="42.84236" lon="0.49113">
        <ele>1950</ele>
        <time>2020-02-01T12:34:21.000Z</time>
      </trkpt>
      <trkpt lat="42.84236" lon="0.49112">
        <ele>1950</ele>
        <time>2020-02-01T12:34:22.000Z</time>
      </trkpt>
      <trkpt lat="42.84237" lon="0.49111">
        <ele>1950</ele>
        <time>2020-02-01T12:34:23.000Z</time>
      </trkpt>
      <trkpt lat="42.84237" lon="0.49111">
        <ele>1950</ele>
        <time>2020-02-01T12:34:24.000Z</time>
      </trkpt>
      <trkpt lat="42.84238" lon="0.4911">
        <ele>1950</ele>
        <time>2020-02-01T12:34:25.000Z</time>
      </trkpt>
      <trkpt lat="42.84238" lon="0.4911">
        <ele>1950</ele>
        <time>2020-02-01T12:34:26.000Z</time>
      </trkpt>
      <trkpt lat="42.84239" lon="0.49109">
        <ele>1950</ele>
        <time>2020-02-01T12:34:27.000Z</time>
      </trkpt>
      <trkpt lat="42.84239" lon="0.49108">
        <ele>1950</ele>
        <time>2020-02-01T12:34:28.000Z</time>
      </trkpt>
      <trkpt lat="42.8424" lon="0.49108">
        <ele>1950</ele>
        <time>2020-02-01T12:34:29.000Z</time>
      </trkpt>
      <trkpt lat="42.8424" lon="0.49107">
        <ele>1950</ele>
        <time>2020-02-01T12:34:30.000Z</time>
      </trkpt>
      <trkpt lat="42.8424" lon="0.49106">
        <ele>1950</ele>
        <time>2020-02-01T12:34:31.000Z</time>
      </trkpt>
      <trkpt lat="42.84241" lon="0.49105">
        <ele>1950</ele>
        <time>2020-02-01T12:34:32.000Z</time>
      </trkpt>
      <trkpt lat="42.84241" lon="0.49105">
        <ele>1950</ele>
        <time>2020-02-01T12:34:33.000Z</time>
      </trkpt>
      <trkpt lat="42.84242" lon="0.49104">
        <ele>1950</ele>
        <time>2020-02-01T12:34:34.000Z</time>
      </trkpt>
      <trkpt lat="42.84242" lon="0.49103">
        <ele>1950</ele>
        <time>2020-02-01T12:34:35.000Z</time>
      </trkpt>
      <trkpt lat="42.84243" lon="0.49102">
        <ele>1950</ele>
        <time>2020-02-01T12:34:36.000Z</time>
      </trkpt>
      <trkpt lat="42.84243" lon="0.49101">
        <ele>1950</ele>
        <time>2020-02-01T12:34:37.000Z</time>
      </trkpt>
      <trkpt lat="42.84244" lon="0.491">
        <ele>1950</ele>
        <time>2020-02-01T12:34:38.000Z</time>
      </trkpt>
      <trkpt lat="42.84244" lon="0.49099">
        <ele>1950</ele>
        <time>2020-02-01T12:34:39.000Z</time>
      </trkpt>
      <trkpt lat="42.84245" lon="0.49098">
        <ele>1950</ele>
        <time>2020-02-01T12:34:40.000Z</time>
      </trkpt>
      <trkpt lat="42.84245" lon="0.49097">
        <ele>1950</ele>
        <time>2020-02-01T12:34:41.000Z</time>
      </trkpt>
      <trkpt lat="42.84246" lon="0.49096">
        <ele>1950</ele>
        <time>2020-02-01T12:34:42.000Z</time>
      </trkpt>
      <trkpt lat="42.84246" lon="0.49095">
        <ele>1950</ele>
        <time>2020-02-01T12:34:43.000Z</time>
      </trkpt>
      <trkpt lat="42.84247" lon="0.49094">
        <ele>1950</ele>
        <time>2020-02-01T12:34:44.000Z</time>
      </trkpt>
      <trkpt lat="42.84247" lon="0.49093">
        <ele>1950.3</ele>
        <time>2020-02-01T12:34:45.000Z</time>
      </trkpt>
      <trkpt lat="42.84248" lon="0.49092">
        <ele>1950.7</ele>
        <time>2020-02-01T12:34:46.000Z</time>
      </trkpt>
      <trkpt lat="42.84248" lon="0.49091">
        <ele>1951</ele>
        <time>2020-02-01T12:34:47.000Z</time>
      </trkpt>
      <trkpt lat="42.84248" lon="0.4909">
        <ele>1951</ele>
        <time>2020-02-01T12:34:48.000Z</time>
      </trkpt>
      <trkpt lat="42.84249" lon="0.49089">
        <ele>1951</ele>
        <time>2020-02-01T12:34:49.000Z</time>
      </trkpt>
      <trkpt lat="42.84249" lon="0.49088">
        <ele>1950.5</ele>
        <time>2020-02-01T12:34:50.000Z</time>
      </trkpt>
      <trkpt lat="42.84249" lon="0.49087">
        <ele>1950</ele>
        <time>2020-02-01T12:34:51.000Z</time>
      </trkpt>
      <trkpt lat="42.8425" lon="0.49086">
        <ele>1950</ele>
        <time>2020-02-01T12:34:52.000Z</time>
      </trkpt>
      <trkpt lat="42.8425" lon="0.49085">
        <ele>1950.3</ele>
        <time>2020-02-01T12:34:53.000Z</time>
      </trkpt>
      <trkpt lat="42.84251" lon="0.49084">
        <ele>1950.7</ele>
        <time>2020-02-01T12:34:54.000Z</time>
      </trkpt>
      <trkpt lat="42.84252" lon="0.49083">
        <ele>1951</ele>
        <time>2020-02-01T12:34:55.000Z</time>
      </trkpt>
      <trkpt lat="42.84252" lon="0.49082">
        <ele>1951</ele>
        <time>2020-02-01T12:34:56.000Z</time>
      </trkpt>
      <trkpt lat="42.84253" lon="0.49081">
        <ele>1951</ele>
        <time>2020-02-01T12:34:57.000Z</time>
      </trkpt>
      <trkpt lat="42.84254" lon="0.4908">
        <ele>1951</ele>
        <time>2020-02-01T12:34:58.000Z</time>
      </trkpt>
      <trkpt lat="42.84254" lon="0.49079">
        <ele>1951</ele>
        <time>2020-02-01T12:34:59.000Z</time>
      </trkpt>
      <trkpt lat="42.84255" lon="0.49078">
        <ele>1951</ele>
        <time>2020-02-01T12:35:00.000Z</time>
      </trkpt>
      <trkpt lat="42.84255" lon="0.49077">
        <ele>1951</ele>
        <time>2020-02-01T12:35:01.000Z</time>
      </trkpt>
      <trkpt lat="42.84256" lon="0.49076">
        <ele>1951</ele>
        <time>2020-02-01T12:35:02.000Z</time>
      </trkpt>
      <trkpt lat="42.84257" lon="0.49074">
        <ele>1951</ele>
        <time>2020-02-01T12:35:03.000Z</time>
      </trkpt>
      <trkpt lat="42.84257" lon="0.49073">
        <ele>1951</ele>
        <time>2020-02-01T12:35:04.000Z</time>
      </trkpt>
      <trkpt lat="42.84258" lon="0.49072">
        <ele>1951</ele>
        <time>2020-02-01T12:35:05.000Z</time>
      </trkpt>
      <trkpt lat="42.84259" lon="0.49071">
        <ele>1951</ele>
        <time>2020-02-01T12:35:06.000Z</time>
      </trkpt>
      <trkpt lat="42.84259" lon="0.4907">
        <ele>1951</ele>
        <time>2020-02-01T12:35:07.000Z</time>
      </trkpt>
      <trkpt lat="42.8426" lon="0.49069">
        <ele>1951</ele>
        <time>2020-02-01T12:35:08.000Z</time>
      </trkpt>
      <trkpt lat="42.8426" lon="0.49069">
        <ele>1951</ele>
        <time>2020-02-01T12:35:09.000Z</time>
      </trkpt>
      <trkpt lat="42.84261" lon="0.49068">
        <ele>1951</ele>
        <time>2020-02-01T12:35:10.000Z</time>
      </trkpt>
      <trkpt lat="42.84261" lon="0.49068">
        <ele>1951</ele>
        <time>2020-02-01T12:35:11.000Z</time>
      </trkpt>
      <trkpt lat="42.84262" lon="0.49067">
        <ele>1951</ele>
        <time>2020-02-01T12:35:12.000Z</time>
      </trkpt>
      <trkpt lat="42.84262" lon="0.49066">
        <ele>1951</ele>
        <time>2020-02-01T12:35:13.000Z</time>
      </trkpt>
      <trkpt lat="42.84263" lon="0.49066">
        <ele>1951</ele>
        <time>2020-02-01T12:35:14.000Z</time>
      </trkpt>
      <trkpt lat="42.84263" lon="0.49065">
        <ele>1951</ele>
        <time>2020-02-01T12:35:15.000Z</time>
      </trkpt>
      <trkpt lat="42.84264" lon="0.49064">
        <ele>1951</ele>
        <time>2020-02-01T12:35:16.000Z</time>
      </trkpt>
      <trkpt lat="42.84264" lon="0.49063">
        <ele>1951</ele>
        <time>2020-02-01T12:35:17.000Z</time>
      </trkpt>
      <trkpt lat="42.84265" lon="0.49062">
        <ele>1951</ele>
        <time>2020-02-01T12:35:18.000Z</time>
      </trkpt>
      <trkpt lat="42.84265" lon="0.49061">
        <ele>1951</ele>
        <time>2020-02-01T12:35:19.000Z</time>
      </trkpt>
      <trkpt lat="42.84266" lon="0.4906">
        <ele>1951</ele>
        <time>2020-02-01T12:35:20.000Z</time>
      </trkpt>
      <trkpt lat="42.84266" lon="0.49059">
        <ele>1951</ele>
        <time>2020-02-01T12:35:21.000Z</time>
      </trkpt>
      <trkpt lat="42.84267" lon="0.49058">
        <ele>1951</ele>
        <time>2020-02-01T12:35:22.000Z</time>
      </trkpt>
      <trkpt lat="42.84267" lon="0.49057">
        <ele>1951</ele>
        <time>2020-02-01T12:35:23.000Z</time>
      </trkpt>
      <trkpt lat="42.84268" lon="0.49057">
        <ele>1951</ele>
        <time>2020-02-01T12:35:24.000Z</time>
      </trkpt>
      <trkpt lat="42.84269" lon="0.49056">
        <ele>1951</ele>
        <time>2020-02-01T12:35:25.000Z</time>
      </trkpt>
      <trkpt lat="42.84269" lon="0.49055">
        <ele>1951.5</ele>
        <time>2020-02-01T12:35:26.000Z</time>
      </trkpt>
      <trkpt lat="42.8427" lon="0.49054">
        <ele>1952</ele>
        <time>2020-02-01T12:35:27.000Z</time>
      </trkpt>
      <trkpt lat="42.8427" lon="0.49053">
        <ele>1952</ele>
        <time>2020-02-01T12:35:28.000Z</time>
      </trkpt>
      <trkpt lat="42.84271" lon="0.49052">
        <ele>1952</ele>
        <time>2020-02-01T12:35:29.000Z</time>
      </trkpt>
      <trkpt lat="42.84272" lon="0.49051">
        <ele>1952</ele>
        <time>2020-02-01T12:35:30.000Z</time>
      </trkpt>
      <trkpt lat="42.84272" lon="0.4905">
        <ele>1952</ele>
        <time>2020-02-01T12:35:31.000Z</time>
      </trkpt>
      <trkpt lat="42.84273" lon="0.4905">
        <ele>1952</ele>
        <time>2020-02-01T12:35:32.000Z</time>
      </trkpt>
      <trkpt lat="42.84273" lon="0.49049">
        <ele>1952</ele>
        <time>2020-02-01T12:35:33.000Z</time>
      </trkpt>
      <trkpt lat="42.84274" lon="0.49048">
        <ele>1952</ele>
        <time>2020-02-01T12:35:34.000Z</time>
      </trkpt>
      <trkpt lat="42.84275" lon="0.49047">
        <ele>1952</ele>
        <time>2020-02-01T12:35:35.000Z</time>
      </trkpt>
      <trkpt lat="42.84275" lon="0.49046">
        <ele>1952</ele>
        <time>2020-02-01T12:35:36.000Z</time>
      </trkpt>
      <trkpt lat="42.84276" lon="0.49045">
        <ele>1952</ele>
        <time>2020-02-01T12:35:37.000Z</time>
      </trkpt>
      <trkpt lat="42.84277" lon="0.49045">
        <ele>1952</ele>
        <time>2020-02-01T12:35:38.000Z</time>
      </trkpt>
      <trkpt lat="42.84277" lon="0.49044">
        <ele>1952</ele>
        <time>2020-02-01T12:35:39.000Z</time>
      </trkpt>
      <trkpt lat="42.84278" lon="0.49043">
        <ele>1952</ele>
        <time>2020-02-01T12:35:40.000Z</time>
      </trkpt>
      <trkpt lat="42.84279" lon="0.49042">
        <ele>1952</ele>
        <time>2020-02-01T12:35:41.000Z</time>
      </trkpt>
      <trkpt lat="42.84279" lon="0.49041">
        <ele>1952</ele>
        <time>2020-02-01T12:35:42.000Z</time>
      </trkpt>
      <trkpt lat="42.8428" lon="0.4904">
        <ele>1952</ele>
        <time>2020-02-01T12:35:43.000Z</time>
      </trkpt>
      <trkpt lat="42.84281" lon="0.49039">
        <ele>1952</ele>
        <time>2020-02-01T12:35:44.000Z</time>
      </trkpt>
      <trkpt lat="42.84281" lon="0.49038">
        <ele>1952</ele>
        <time>2020-02-01T12:35:45.000Z</time>
      </trkpt>
      <trkpt lat="42.84282" lon="0.49037">
        <ele>1952.5</ele>
        <time>2020-02-01T12:35:46.000Z</time>
      </trkpt>
      <trkpt lat="42.84282" lon="0.49036">
        <ele>1953</ele>
        <time>2020-02-01T12:35:47.000Z</time>
      </trkpt>
      <trkpt lat="42.84283" lon="0.49035">
        <ele>1953</ele>
        <time>2020-02-01T12:35:48.000Z</time>
      </trkpt>
      <trkpt lat="42.84284" lon="0.49034">
        <ele>1953</ele>
        <time>2020-02-01T12:35:49.000Z</time>
      </trkpt>
      <trkpt lat="42.84284" lon="0.49033">
        <ele>1953</ele>
        <time>2020-02-01T12:35:50.000Z</time>
      </trkpt>
      <trkpt lat="42.84285" lon="0.49032">
        <ele>1953</ele>
        <time>2020-02-01T12:35:51.000Z</time>
      </trkpt>
      <trkpt lat="42.84285" lon="0.49031">
        <ele>1953</ele>
        <time>2020-02-01T12:35:52.000Z</time>
      </trkpt>
      <trkpt lat="42.84286" lon="0.4903">
        <ele>1953</ele>
        <time>2020-02-01T12:35:53.000Z</time>
      </trkpt>
      <trkpt lat="42.84286" lon="0.49028">
        <ele>1953</ele>
        <time>2020-02-01T12:35:54.000Z</time>
      </trkpt>
      <trkpt lat="42.84287" lon="0.49027">
        <ele>1953</ele>
        <time>2020-02-01T12:35:55.000Z</time>
      </trkpt>
      <trkpt lat="42.84287" lon="0.49026">
        <ele>1954</ele>
        <time>2020-02-01T12:35:56.000Z</time>
      </trkpt>
      <trkpt lat="42.84288" lon="0.49024">
        <ele>1953.7</ele>
        <time>2020-02-01T12:35:57.000Z</time>
      </trkpt>
      <trkpt lat="42.84288" lon="0.49023">
        <ele>1953.3</ele>
        <time>2020-02-01T12:35:58.000Z</time>
      </trkpt>
      <trkpt lat="42.84288" lon="0.49022">
        <ele>1953</ele>
        <time>2020-02-01T12:35:59.000Z</time>
      </trkpt>
      <trkpt lat="42.84289" lon="0.49021">
        <ele>1953</ele>
        <time>2020-02-01T12:36:00.000Z</time>
      </trkpt>
      <trkpt lat="42.84289" lon="0.4902">
        <ele>1953</ele>
        <time>2020-02-01T12:36:01.000Z</time>
      </trkpt>
      <trkpt lat="42.8429" lon="0.49018">
        <ele>1953</ele>
        <time>2020-02-01T12:36:02.000Z</time>
      </trkpt>
      <trkpt lat="42.84291" lon="0.49017">
        <ele>1952.7</ele>
        <time>2020-02-01T12:36:03.000Z</time>
      </trkpt>
      <trkpt lat="42.84291" lon="0.49016">
        <ele>1952.3</ele>
        <time>2020-02-01T12:36:04.000Z</time>
      </trkpt>
      <trkpt lat="42.84292" lon="0.49015">
        <ele>1952</ele>
        <time>2020-02-01T12:36:05.000Z</time>
      </trkpt>
      <trkpt lat="42.84293" lon="0.49014">
        <ele>1952</ele>
        <time>2020-02-01T12:36:06.000Z</time>
      </trkpt>
      <trkpt lat="42.84293" lon="0.49013">
        <ele>1952</ele>
        <time>2020-02-01T12:36:07.000Z</time>
      </trkpt>
      <trkpt lat="42.84294" lon="0.49012">
        <ele>1951</ele>
        <time>2020-02-01T12:36:08.000Z</time>
      </trkpt>
      <trkpt lat="42.84295" lon="0.49011">
        <ele>1951</ele>
        <time>2020-02-01T12:36:09.000Z</time>
      </trkpt>
      <trkpt lat="42.84295" lon="0.4901">
        <ele>1951</ele>
        <time>2020-02-01T12:36:10.000Z</time>
      </trkpt>
      <trkpt lat="42.84296" lon="0.49009">
        <ele>1951</ele>
        <time>2020-02-01T12:36:11.000Z</time>
      </trkpt>
      <trkpt lat="42.84297" lon="0.49008">
        <ele>1951</ele>
        <time>2020-02-01T12:36:12.000Z</time>
      </trkpt>
      <trkpt lat="42.84297" lon="0.49006">
        <ele>1951</ele>
        <time>2020-02-01T12:36:13.000Z</time>
      </trkpt>
      <trkpt lat="42.84298" lon="0.49005">
        <ele>1950</ele>
        <time>2020-02-01T12:36:14.000Z</time>
      </trkpt>
      <trkpt lat="42.84298" lon="0.49004">
        <ele>1950</ele>
        <time>2020-02-01T12:36:15.000Z</time>
      </trkpt>
      <trkpt lat="42.84299" lon="0.49003">
        <ele>1950</ele>
        <time>2020-02-01T12:36:16.000Z</time>
      </trkpt>
      <trkpt lat="42.84299" lon="0.49002">
        <ele>1950</ele>
        <time>2020-02-01T12:36:17.000Z</time>
      </trkpt>
      <trkpt lat="42.843" lon="0.49002">
        <ele>1950</ele>
        <time>2020-02-01T12:36:18.000Z</time>
      </trkpt>
      <trkpt lat="42.84301" lon="0.49001">
        <ele>1950</ele>
        <time>2020-02-01T12:36:19.000Z</time>
      </trkpt>
      <trkpt lat="42.84301" lon="0.49">
        <ele>1949</ele>
        <time>2020-02-01T12:36:20.000Z</time>
      </trkpt>
      <trkpt lat="42.84302" lon="0.48999">
        <ele>1949</ele>
        <time>2020-02-01T12:36:21.000Z</time>
      </trkpt>
      <trkpt lat="42.84302" lon="0.48999">
        <ele>1949</ele>
        <time>2020-02-01T12:36:22.000Z</time>
      </trkpt>
      <trkpt lat="42.84303" lon="0.48998">
        <ele>1949</ele>
        <time>2020-02-01T12:36:23.000Z</time>
      </trkpt>
      <trkpt lat="42.84303" lon="0.48997">
        <ele>1949</ele>
        <time>2020-02-01T12:36:24.000Z</time>
      </trkpt>
      <trkpt lat="42.84304" lon="0.48996">
        <ele>1949</ele>
        <time>2020-02-01T12:36:25.000Z</time>
      </trkpt>
      <trkpt lat="42.84305" lon="0.48995">
        <ele>1949</ele>
        <time>2020-02-01T12:36:26.000Z</time>
      </trkpt>
      <trkpt lat="42.84305" lon="0.48994">
        <ele>1949</ele>
        <time>2020-02-01T12:36:27.000Z</time>
      </trkpt>
      <trkpt lat="42.84306" lon="0.48993">
        <ele>1949</ele>
        <time>2020-02-01T12:36:28.000Z</time>
      </trkpt>
      <trkpt lat="42.84307" lon="0.48992">
        <ele>1949</ele>
        <time>2020-02-01T12:36:29.000Z</time>
      </trkpt>
      <trkpt lat="42.84307" lon="0.48991">
        <ele>1948.5</ele>
        <time>2020-02-01T12:36:30.000Z</time>
      </trkpt>
      <trkpt lat="42.84308" lon="0.48991">
        <ele>1948</ele>
        <time>2020-02-01T12:36:31.000Z</time>
      </trkpt>
      <trkpt lat="42.84309" lon="0.48989">
        <ele>1948</ele>
        <time>2020-02-01T12:36:32.000Z</time>
      </trkpt>
      <trkpt lat="42.8431" lon="0.48988">
        <ele>1948</ele>
        <time>2020-02-01T12:36:33.000Z</time>
      </trkpt>
      <trkpt lat="42.8431" lon="0.48987">
        <ele>1948</ele>
        <time>2020-02-01T12:36:34.000Z</time>
      </trkpt>
      <trkpt lat="42.84311" lon="0.48986">
        <ele>1948</ele>
        <time>2020-02-01T12:36:35.000Z</time>
      </trkpt>
      <trkpt lat="42.84312" lon="0.48985">
        <ele>1948</ele>
        <time>2020-02-01T12:36:36.000Z</time>
      </trkpt>
      <trkpt lat="42.84313" lon="0.48983">
        <ele>1947</ele>
        <time>2020-02-01T12:36:37.000Z</time>
      </trkpt>
      <trkpt lat="42.84314" lon="0.48982">
        <ele>1947</ele>
        <time>2020-02-01T12:36:38.000Z</time>
      </trkpt>
      <trkpt lat="42.84315" lon="0.48981">
        <ele>1947</ele>
        <time>2020-02-01T12:36:39.000Z</time>
      </trkpt>
      <trkpt lat="42.84316" lon="0.4898">
        <ele>1947</ele>
        <time>2020-02-01T12:36:40.000Z</time>
      </trkpt>
      <trkpt lat="42.84316" lon="0.48979">
        <ele>1947</ele>
        <time>2020-02-01T12:36:41.000Z</time>
      </trkpt>
      <trkpt lat="42.84317" lon="0.48978">
        <ele>1947</ele>
        <time>2020-02-01T12:36:42.000Z</time>
      </trkpt>
      <trkpt lat="42.84317" lon="0.48976">
        <ele>1947</ele>
        <time>2020-02-01T12:36:43.000Z</time>
      </trkpt>
      <trkpt lat="42.84318" lon="0.48975">
        <ele>1946.5</ele>
        <time>2020-02-01T12:36:44.000Z</time>
      </trkpt>
      <trkpt lat="42.84319" lon="0.48974">
        <ele>1946</ele>
        <time>2020-02-01T12:36:45.000Z</time>
      </trkpt>
      <trkpt lat="42.84319" lon="0.48973">
        <ele>1946</ele>
        <time>2020-02-01T12:36:46.000Z</time>
      </trkpt>
      <trkpt lat="42.8432" lon="0.48972">
        <ele>1946</ele>
        <time>2020-02-01T12:36:47.000Z</time>
      </trkpt>
      <trkpt lat="42.84321" lon="0.48971">
        <ele>1946</ele>
        <time>2020-02-01T12:36:48.000Z</time>
      </trkpt>
      <trkpt lat="42.84322" lon="0.48971">
        <ele>1946</ele>
        <time>2020-02-01T12:36:49.000Z</time>
      </trkpt>
      <trkpt lat="42.84323" lon="0.4897">
        <ele>1946</ele>
        <time>2020-02-01T12:36:50.000Z</time>
      </trkpt>
      <trkpt lat="42.84324" lon="0.48969">
        <ele>1946</ele>
        <time>2020-02-01T12:36:51.000Z</time>
      </trkpt>
      <trkpt lat="42.84325" lon="0.48968">
        <ele>1946</ele>
        <time>2020-02-01T12:36:52.000Z</time>
      </trkpt>
      <trkpt lat="42.84326" lon="0.48968">
        <ele>1946</ele>
        <time>2020-02-01T12:36:53.000Z</time>
      </trkpt>
      <trkpt lat="42.84327" lon="0.48967">
        <ele>1946</ele>
        <time>2020-02-01T12:36:54.000Z</time>
      </trkpt>
      <trkpt lat="42.84328" lon="0.48967">
        <ele>1946</ele>
        <time>2020-02-01T12:36:55.000Z</time>
      </trkpt>
      <trkpt lat="42.84329" lon="0.48966">
        <ele>1945.5</ele>
        <time>2020-02-01T12:36:56.000Z</time>
      </trkpt>
      <trkpt lat="42.84329" lon="0.48965">
        <ele>1945</ele>
        <time>2020-02-01T12:36:57.000Z</time>
      </trkpt>
      <trkpt lat="42.8433" lon="0.48964">
        <ele>1945</ele>
        <time>2020-02-01T12:36:58.000Z</time>
      </trkpt>
      <trkpt lat="42.84331" lon="0.48963">
        <ele>1945</ele>
        <time>2020-02-01T12:36:59.000Z</time>
      </trkpt>
      <trkpt lat="42.84331" lon="0.48962">
        <ele>1945</ele>
        <time>2020-02-01T12:37:00.000Z</time>
      </trkpt>
      <trkpt lat="42.84332" lon="0.48961">
        <ele>1945</ele>
        <time>2020-02-01T12:37:01.000Z</time>
      </trkpt>
      <trkpt lat="42.84332" lon="0.4896">
        <ele>1945</ele>
        <time>2020-02-01T12:37:02.000Z</time>
      </trkpt>
      <trkpt lat="42.84333" lon="0.4896">
        <ele>1945</ele>
        <time>2020-02-01T12:37:03.000Z</time>
      </trkpt>
      <trkpt lat="42.84333" lon="0.48959">
        <ele>1945</ele>
        <time>2020-02-01T12:37:04.000Z</time>
      </trkpt>
      <trkpt lat="42.84334" lon="0.48958">
        <ele>1945</ele>
        <time>2020-02-01T12:37:05.000Z</time>
      </trkpt>
      <trkpt lat="42.84334" lon="0.48957">
        <ele>1945</ele>
        <time>2020-02-01T12:37:06.000Z</time>
      </trkpt>
      <trkpt lat="42.84335" lon="0.48956">
        <ele>1945</ele>
        <time>2020-02-01T12:37:07.000Z</time>
      </trkpt>
      <trkpt lat="42.84335" lon="0.48955">
        <ele>1945</ele>
        <time>2020-02-01T12:37:08.000Z</time>
      </trkpt>
      <trkpt lat="42.84336" lon="0.48954">
        <ele>1945</ele>
        <time>2020-02-01T12:37:09.000Z</time>
      </trkpt>
      <trkpt lat="42.84336" lon="0.48953">
        <ele>1945</ele>
        <time>2020-02-01T12:37:10.000Z</time>
      </trkpt>
      <trkpt lat="42.84337" lon="0.48951">
        <ele>1945</ele>
        <time>2020-02-01T12:37:11.000Z</time>
      </trkpt>
      <trkpt lat="42.84337" lon="0.4895">
        <ele>1945</ele>
        <time>2020-02-01T12:37:12.000Z</time>
      </trkpt>
      <trkpt lat="42.84338" lon="0.48949">
        <ele>1945</ele>
        <time>2020-02-01T12:37:13.000Z</time>
      </trkpt>
      <trkpt lat="42.84338" lon="0.48948">
        <ele>1945</ele>
        <time>2020-02-01T12:37:14.000Z</time>
      </trkpt>
      <trkpt lat="42.84339" lon="0.48946">
        <ele>1945</ele>
        <time>2020-02-01T12:37:15.000Z</time>
      </trkpt>
      <trkpt lat="42.84339" lon="0.48945">
        <ele>1945</ele>
        <time>2020-02-01T12:37:16.000Z</time>
      </trkpt>
      <trkpt lat="42.84339" lon="0.48945">
        <ele>1945</ele>
        <time>2020-02-01T12:37:17.000Z</time>
      </trkpt>
      <trkpt lat="42.8434" lon="0.48944">
        <ele>1945</ele>
        <time>2020-02-01T12:37:18.000Z</time>
      </trkpt>
      <trkpt lat="42.8434" lon="0.48943">
        <ele>1945</ele>
        <time>2020-02-01T12:37:19.000Z</time>
      </trkpt>
      <trkpt lat="42.8434" lon="0.48942">
        <ele>1945</ele>
        <time>2020-02-01T12:37:20.000Z</time>
      </trkpt>
      <trkpt lat="42.84341" lon="0.48941">
        <ele>1945</ele>
        <time>2020-02-01T12:37:21.000Z</time>
      </trkpt>
      <trkpt lat="42.84341" lon="0.4894">
        <ele>1945</ele>
        <time>2020-02-01T12:37:22.000Z</time>
      </trkpt>
      <trkpt lat="42.84342" lon="0.48939">
        <ele>1945</ele>
        <time>2020-02-01T12:37:23.000Z</time>
      </trkpt>
      <trkpt lat="42.84342" lon="0.48938">
        <ele>1945</ele>
        <time>2020-02-01T12:37:24.000Z</time>
      </trkpt>
      <trkpt lat="42.84343" lon="0.48937">
        <ele>1945</ele>
        <time>2020-02-01T12:37:25.000Z</time>
      </trkpt>
      <trkpt lat="42.84343" lon="0.48936">
        <ele>1945</ele>
        <time>2020-02-01T12:37:26.000Z</time>
      </trkpt>
      <trkpt lat="42.84343" lon="0.48935">
        <ele>1945</ele>
        <time>2020-02-01T12:37:27.000Z</time>
      </trkpt>
      <trkpt lat="42.84344" lon="0.48934">
        <ele>1945</ele>
        <time>2020-02-01T12:37:28.000Z</time>
      </trkpt>
      <trkpt lat="42.84344" lon="0.48933">
        <ele>1945</ele>
        <time>2020-02-01T12:37:29.000Z</time>
      </trkpt>
      <trkpt lat="42.84345" lon="0.48932">
        <ele>1945</ele>
        <time>2020-02-01T12:37:30.000Z</time>
      </trkpt>
      <trkpt lat="42.84345" lon="0.48931">
        <ele>1945</ele>
        <time>2020-02-01T12:37:31.000Z</time>
      </trkpt>
      <trkpt lat="42.84345" lon="0.4893">
        <ele>1945</ele>
        <time>2020-02-01T12:37:32.000Z</time>
      </trkpt>
      <trkpt lat="42.84346" lon="0.48929">
        <ele>1945</ele>
        <time>2020-02-01T12:37:33.000Z</time>
      </trkpt>
      <trkpt lat="42.84346" lon="0.48928">
        <ele>1945</ele>
        <time>2020-02-01T12:37:34.000Z</time>
      </trkpt>
      <trkpt lat="42.84347" lon="0.48927">
        <ele>1945</ele>
        <time>2020-02-01T12:37:35.000Z</time>
      </trkpt>
      <trkpt lat="42.84347" lon="0.48925">
        <ele>1945</ele>
        <time>2020-02-01T12:37:36.000Z</time>
      </trkpt>
      <trkpt lat="42.84347" lon="0.48924">
        <ele>1945</ele>
        <time>2020-02-01T12:37:37.000Z</time>
      </trkpt>
      <trkpt lat="42.84348" lon="0.48923">
        <ele>1945</ele>
        <time>2020-02-01T12:37:38.000Z</time>
      </trkpt>
      <trkpt lat="42.84348" lon="0.48922">
        <ele>1945</ele>
        <time>2020-02-01T12:37:39.000Z</time>
      </trkpt>
      <trkpt lat="42.84349" lon="0.4892">
        <ele>1945</ele>
        <time>2020-02-01T12:37:40.000Z</time>
      </trkpt>
      <trkpt lat="42.84349" lon="0.48919">
        <ele>1945</ele>
        <time>2020-02-01T12:37:41.000Z</time>
      </trkpt>
      <trkpt lat="42.8435" lon="0.48918">
        <ele>1945</ele>
        <time>2020-02-01T12:37:42.000Z</time>
      </trkpt>
      <trkpt lat="42.8435" lon="0.48917">
        <ele>1945</ele>
        <time>2020-02-01T12:37:43.000Z</time>
      </trkpt>
      <trkpt lat="42.84351" lon="0.48915">
        <ele>1945</ele>
        <time>2020-02-01T12:37:44.000Z</time>
      </trkpt>
      <trkpt lat="42.84351" lon="0.48914">
        <ele>1945</ele>
        <time>2020-02-01T12:37:45.000Z</time>
      </trkpt>
      <trkpt lat="42.84352" lon="0.48913">
        <ele>1945</ele>
        <time>2020-02-01T12:37:46.000Z</time>
      </trkpt>
      <trkpt lat="42.84353" lon="0.48912">
        <ele>1945</ele>
        <time>2020-02-01T12:37:47.000Z</time>
      </trkpt>
      <trkpt lat="42.84353" lon="0.4891">
        <ele>1945</ele>
        <time>2020-02-01T12:37:48.000Z</time>
      </trkpt>
      <trkpt lat="42.84353" lon="0.48909">
        <ele>1945</ele>
        <time>2020-02-01T12:37:49.000Z</time>
      </trkpt>
      <trkpt lat="42.84354" lon="0.48908">
        <ele>1945</ele>
        <time>2020-02-01T12:37:50.000Z</time>
      </trkpt>
      <trkpt lat="42.84354" lon="0.48906">
        <ele>1944.7</ele>
        <time>2020-02-01T12:37:51.000Z</time>
      </trkpt>
      <trkpt lat="42.84355" lon="0.48905">
        <ele>1944.3</ele>
        <time>2020-02-01T12:37:52.000Z</time>
      </trkpt>
      <trkpt lat="42.84355" lon="0.48904">
        <ele>1944</ele>
        <time>2020-02-01T12:37:53.000Z</time>
      </trkpt>
      <trkpt lat="42.84356" lon="0.48902">
        <ele>1944</ele>
        <time>2020-02-01T12:37:54.000Z</time>
      </trkpt>
      <trkpt lat="42.84357" lon="0.48901">
        <ele>1944</ele>
        <time>2020-02-01T12:37:55.000Z</time>
      </trkpt>
      <trkpt lat="42.84357" lon="0.489">
        <ele>1944</ele>
        <time>2020-02-01T12:37:56.000Z</time>
      </trkpt>
      <trkpt lat="42.84358" lon="0.48899">
        <ele>1944</ele>
        <time>2020-02-01T12:37:57.000Z</time>
      </trkpt>
      <trkpt lat="42.84359" lon="0.48898">
        <ele>1944</ele>
        <time>2020-02-01T12:37:58.000Z</time>
      </trkpt>
      <trkpt lat="42.84359" lon="0.48896">
        <ele>1944</ele>
        <time>2020-02-01T12:37:59.000Z</time>
      </trkpt>
      <trkpt lat="42.8436" lon="0.48895">
        <ele>1944</ele>
        <time>2020-02-01T12:38:00.000Z</time>
      </trkpt>
      <trkpt lat="42.8436" lon="0.48894">
        <ele>1944</ele>
        <time>2020-02-01T12:38:01.000Z</time>
      </trkpt>
      <trkpt lat="42.84361" lon="0.48893">
        <ele>1944</ele>
        <time>2020-02-01T12:38:02.000Z</time>
      </trkpt>
      <trkpt lat="42.84361" lon="0.48892">
        <ele>1943.7</ele>
        <time>2020-02-01T12:38:03.000Z</time>
      </trkpt>
      <trkpt lat="42.84362" lon="0.48891">
        <ele>1943.3</ele>
        <time>2020-02-01T12:38:04.000Z</time>
      </trkpt>
      <trkpt lat="42.84362" lon="0.4889">
        <ele>1943</ele>
        <time>2020-02-01T12:38:05.000Z</time>
      </trkpt>
      <trkpt lat="42.84362" lon="0.4889">
        <ele>1943</ele>
        <time>2020-02-01T12:38:06.000Z</time>
      </trkpt>
      <trkpt lat="42.84363" lon="0.48889">
        <ele>1943</ele>
        <time>2020-02-01T12:38:07.000Z</time>
      </trkpt>
      <trkpt lat="42.84364" lon="0.48888">
        <ele>1943</ele>
        <time>2020-02-01T12:38:08.000Z</time>
      </trkpt>
      <trkpt lat="42.84364" lon="0.48886">
        <ele>1943</ele>
        <time>2020-02-01T12:38:09.000Z</time>
      </trkpt>
      <trkpt lat="42.84365" lon="0.48885">
        <ele>1943</ele>
        <time>2020-02-01T12:38:10.000Z</time>
      </trkpt>
      <trkpt lat="42.84366" lon="0.48884">
        <ele>1943</ele>
        <time>2020-02-01T12:38:11.000Z</time>
      </trkpt>
      <trkpt lat="42.84367" lon="0.48883">
        <ele>1942.5</ele>
        <time>2020-02-01T12:38:12.000Z</time>
      </trkpt>
      <trkpt lat="42.84368" lon="0.48882">
        <ele>1942</ele>
        <time>2020-02-01T12:38:13.000Z</time>
      </trkpt>
      <trkpt lat="42.84369" lon="0.4888">
        <ele>1942</ele>
        <time>2020-02-01T12:38:14.000Z</time>
      </trkpt>
      <trkpt lat="42.84369" lon="0.48879">
        <ele>1942</ele>
        <time>2020-02-01T12:38:15.000Z</time>
      </trkpt>
      <trkpt lat="42.8437" lon="0.48878">
        <ele>1942</ele>
        <time>2020-02-01T12:38:16.000Z</time>
      </trkpt>
      <trkpt lat="42.84371" lon="0.48877">
        <ele>1942</ele>
        <time>2020-02-01T12:38:17.000Z</time>
      </trkpt>
      <trkpt lat="42.84372" lon="0.48876">
        <ele>1942</ele>
        <time>2020-02-01T12:38:18.000Z</time>
      </trkpt>
      <trkpt lat="42.84373" lon="0.48876">
        <ele>1942</ele>
        <time>2020-02-01T12:38:19.000Z</time>
      </trkpt>
      <trkpt lat="42.84373" lon="0.48875">
        <ele>1942</ele>
        <time>2020-02-01T12:38:20.000Z</time>
      </trkpt>
      <trkpt lat="42.84374" lon="0.48874">
        <ele>1942</ele>
        <time>2020-02-01T12:38:21.000Z</time>
      </trkpt>
      <trkpt lat="42.84375" lon="0.48873">
        <ele>1942</ele>
        <time>2020-02-01T12:38:22.000Z</time>
      </trkpt>
      <trkpt lat="42.84376" lon="0.48872">
        <ele>1942</ele>
        <time>2020-02-01T12:38:23.000Z</time>
      </trkpt>
      <trkpt lat="42.84377" lon="0.48871">
        <ele>1942</ele>
        <time>2020-02-01T12:38:24.000Z</time>
      </trkpt>
      <trkpt lat="42.84377" lon="0.4887">
        <ele>1942</ele>
        <time>2020-02-01T12:38:25.000Z</time>
      </trkpt>
      <trkpt lat="42.84378" lon="0.48869">
        <ele>1942.5</ele>
        <time>2020-02-01T12:38:26.000Z</time>
      </trkpt>
      <trkpt lat="42.84379" lon="0.48868">
        <ele>1943</ele>
        <time>2020-02-01T12:38:27.000Z</time>
      </trkpt>
      <trkpt lat="42.84379" lon="0.48867">
        <ele>1942.5</ele>
        <time>2020-02-01T12:38:28.000Z</time>
      </trkpt>
      <trkpt lat="42.8438" lon="0.48866">
        <ele>1942</ele>
        <time>2020-02-01T12:38:29.000Z</time>
      </trkpt>
      <trkpt lat="42.8438" lon="0.48865">
        <ele>1942</ele>
        <time>2020-02-01T12:38:30.000Z</time>
      </trkpt>
      <trkpt lat="42.84381" lon="0.48865">
        <ele>1942</ele>
        <time>2020-02-01T12:38:31.000Z</time>
      </trkpt>
      <trkpt lat="42.84381" lon="0.48864">
        <ele>1942.5</ele>
        <time>2020-02-01T12:38:32.000Z</time>
      </trkpt>
      <trkpt lat="42.84382" lon="0.48863">
        <ele>1943</ele>
        <time>2020-02-01T12:38:33.000Z</time>
      </trkpt>
      <trkpt lat="42.84382" lon="0.48862">
        <ele>1943</ele>
        <time>2020-02-01T12:38:34.000Z</time>
      </trkpt>
      <trkpt lat="42.84383" lon="0.48861">
        <ele>1943</ele>
        <time>2020-02-01T12:38:35.000Z</time>
      </trkpt>
      <trkpt lat="42.84383" lon="0.48861">
        <ele>1943</ele>
        <time>2020-02-01T12:38:36.000Z</time>
      </trkpt>
      <trkpt lat="42.84384" lon="0.4886">
        <ele>1943</ele>
        <time>2020-02-01T12:38:37.000Z</time>
      </trkpt>
      <trkpt lat="42.84384" lon="0.4886">
        <ele>1943</ele>
        <time>2020-02-01T12:38:38.000Z</time>
      </trkpt>
      <trkpt lat="42.84384" lon="0.48859">
        <ele>1943</ele>
        <time>2020-02-01T12:38:39.000Z</time>
      </trkpt>
      <trkpt lat="42.84385" lon="0.48859">
        <ele>1943.5</ele>
        <time>2020-02-01T12:38:40.000Z</time>
      </trkpt>
      <trkpt lat="42.84385" lon="0.48858">
        <ele>1944</ele>
        <time>2020-02-01T12:38:41.000Z</time>
      </trkpt>
      <trkpt lat="42.84386" lon="0.48858">
        <ele>1944</ele>
        <time>2020-02-01T12:38:42.000Z</time>
      </trkpt>
      <trkpt lat="42.84386" lon="0.48857">
        <ele>1944</ele>
        <time>2020-02-01T12:38:43.000Z</time>
      </trkpt>
      <trkpt lat="42.84386" lon="0.48857">
        <ele>1944</ele>
        <time>2020-02-01T12:38:44.000Z</time>
      </trkpt>
      <trkpt lat="42.84387" lon="0.48856">
        <ele>1944</ele>
        <time>2020-02-01T12:38:45.000Z</time>
      </trkpt>
      <trkpt lat="42.84387" lon="0.48855">
        <ele>1944</ele>
        <time>2020-02-01T12:38:46.000Z</time>
      </trkpt>
      <trkpt lat="42.84388" lon="0.48855">
        <ele>1944</ele>
        <time>2020-02-01T12:38:47.000Z</time>
      </trkpt>
      <trkpt lat="42.84388" lon="0.48854">
        <ele>1944</ele>
        <time>2020-02-01T12:38:48.000Z</time>
      </trkpt>
      <trkpt lat="42.84389" lon="0.48853">
        <ele>1944</ele>
        <time>2020-02-01T12:38:49.000Z</time>
      </trkpt>
      <trkpt lat="42.84389" lon="0.48852">
        <ele>1944.5</ele>
        <time>2020-02-01T12:38:50.000Z</time>
      </trkpt>
      <trkpt lat="42.8439" lon="0.48851">
        <ele>1945</ele>
        <time>2020-02-01T12:38:51.000Z</time>
      </trkpt>
      <trkpt lat="42.8439" lon="0.48851">
        <ele>1945</ele>
        <time>2020-02-01T12:38:52.000Z</time>
      </trkpt>
      <trkpt lat="42.84391" lon="0.4885">
        <ele>1945</ele>
        <time>2020-02-01T12:38:53.000Z</time>
      </trkpt>
      <trkpt lat="42.84391" lon="0.48849">
        <ele>1945</ele>
        <time>2020-02-01T12:38:54.000Z</time>
      </trkpt>
      <trkpt lat="42.84392" lon="0.48848">
        <ele>1945</ele>
        <time>2020-02-01T12:38:55.000Z</time>
      </trkpt>
      <trkpt lat="42.84392" lon="0.48848">
        <ele>1945</ele>
        <time>2020-02-01T12:38:56.000Z</time>
      </trkpt>
      <trkpt lat="42.84393" lon="0.48847">
        <ele>1945</ele>
        <time>2020-02-01T12:38:57.000Z</time>
      </trkpt>
      <trkpt lat="42.84393" lon="0.48846">
        <ele>1945.5</ele>
        <time>2020-02-01T12:38:58.000Z</time>
      </trkpt>
      <trkpt lat="42.84393" lon="0.48846">
        <ele>1946</ele>
        <time>2020-02-01T12:38:59.000Z</time>
      </trkpt>
      <trkpt lat="42.84394" lon="0.48845">
        <ele>1946</ele>
        <time>2020-02-01T12:39:00.000Z</time>
      </trkpt>
      <trkpt lat="42.84394" lon="0.48845">
        <ele>1946</ele>
        <time>2020-02-01T12:39:01.000Z</time>
      </trkpt>
      <trkpt lat="42.84395" lon="0.48844">
        <ele>1946</ele>
        <time>2020-02-01T12:39:02.000Z</time>
      </trkpt>
      <trkpt lat="42.84395" lon="0.48843">
        <ele>1946</ele>
        <time>2020-02-01T12:39:03.000Z</time>
      </trkpt>
      <trkpt lat="42.84396" lon="0.48843">
        <ele>1946</ele>
        <time>2020-02-01T12:39:04.000Z</time>
      </trkpt>
      <trkpt lat="42.84397" lon="0.48842">
        <ele>1946</ele>
        <time>2020-02-01T12:39:05.000Z</time>
      </trkpt>
      <trkpt lat="42.84397" lon="0.48841">
        <ele>1946.5</ele>
        <time>2020-02-01T12:39:06.000Z</time>
      </trkpt>
      <trkpt lat="42.84398" lon="0.48841">
        <ele>1947</ele>
        <time>2020-02-01T12:39:07.000Z</time>
      </trkpt>
      <trkpt lat="42.84398" lon="0.4884">
        <ele>1947</ele>
        <time>2020-02-01T12:39:08.000Z</time>
      </trkpt>
      <trkpt lat="42.84399" lon="0.48839">
        <ele>1947</ele>
        <time>2020-02-01T12:39:09.000Z</time>
      </trkpt>
      <trkpt lat="42.84399" lon="0.48838">
        <ele>1947</ele>
        <time>2020-02-01T12:39:10.000Z</time>
      </trkpt>
      <trkpt lat="42.844" lon="0.48837">
        <ele>1947</ele>
        <time>2020-02-01T12:39:11.000Z</time>
      </trkpt>
      <trkpt lat="42.844" lon="0.48837">
        <ele>1947</ele>
        <time>2020-02-01T12:39:12.000Z</time>
      </trkpt>
      <trkpt lat="42.844" lon="0.48836">
        <ele>1947</ele>
        <time>2020-02-01T12:39:13.000Z</time>
      </trkpt>
      <trkpt lat="42.84401" lon="0.48835">
        <ele>1947.5</ele>
        <time>2020-02-01T12:39:14.000Z</time>
      </trkpt>
      <trkpt lat="42.84401" lon="0.48834">
        <ele>1948</ele>
        <time>2020-02-01T12:39:15.000Z</time>
      </trkpt>
      <trkpt lat="42.84401" lon="0.48833">
        <ele>1948</ele>
        <time>2020-02-01T12:39:16.000Z</time>
      </trkpt>
      <trkpt lat="42.84401" lon="0.48832">
        <ele>1948</ele>
        <time>2020-02-01T12:39:17.000Z</time>
      </trkpt>
      <trkpt lat="42.84401" lon="0.48831">
        <ele>1948</ele>
        <time>2020-02-01T12:39:18.000Z</time>
      </trkpt>
      <trkpt lat="42.84401" lon="0.4883">
        <ele>1948</ele>
        <time>2020-02-01T12:39:19.000Z</time>
      </trkpt>
      <trkpt lat="42.84402" lon="0.48829">
        <ele>1948.5</ele>
        <time>2020-02-01T12:39:20.000Z</time>
      </trkpt>
      <trkpt lat="42.84402" lon="0.48829">
        <ele>1949</ele>
        <time>2020-02-01T12:39:21.000Z</time>
      </trkpt>
      <trkpt lat="42.84402" lon="0.48828">
        <ele>1949</ele>
        <time>2020-02-01T12:39:22.000Z</time>
      </trkpt>
      <trkpt lat="42.84402" lon="0.48827">
        <ele>1949</ele>
        <time>2020-02-01T12:39:23.000Z</time>
      </trkpt>
      <trkpt lat="42.84402" lon="0.48826">
        <ele>1949</ele>
        <time>2020-02-01T12:39:24.000Z</time>
      </trkpt>
      <trkpt lat="42.84402" lon="0.48826">
        <ele>1949</ele>
        <time>2020-02-01T12:39:25.000Z</time>
      </trkpt>
      <trkpt lat="42.84403" lon="0.48825">
        <ele>1949.5</ele>
        <time>2020-02-01T12:39:26.000Z</time>
      </trkpt>
      <trkpt lat="42.84403" lon="0.48825">
        <ele>1950</ele>
        <time>2020-02-01T12:39:27.000Z</time>
      </trkpt>
      <trkpt lat="42.84403" lon="0.48824">
        <ele>1950</ele>
        <time>2020-02-01T12:39:28.000Z</time>
      </trkpt>
      <trkpt lat="42.84403" lon="0.48824">
        <ele>1950</ele>
        <time>2020-02-01T12:39:29.000Z</time>
      </trkpt>
      <trkpt lat="42.84403" lon="0.48824">
        <ele>1950</ele>
        <time>2020-02-01T12:39:30.000Z</time>
      </trkpt>
      <trkpt lat="42.84403" lon="0.48824">
        <ele>1950</ele>
        <time>2020-02-01T12:39:31.000Z</time>
      </trkpt>
      <trkpt lat="42.84403" lon="0.48824">
        <ele>1950</ele>
        <time>2020-02-01T12:39:32.000Z</time>
      </trkpt>
      <trkpt lat="42.84403" lon="0.48824">
        <ele>1950</ele>
        <time>2020-02-01T12:39:33.000Z</time>
      </trkpt>
      <trkpt lat="42.84403" lon="0.48824">
        <ele>1950.5</ele>
        <time>2020-02-01T12:39:34.000Z</time>
      </trkpt>
      <trkpt lat="42.84403" lon="0.48824">
        <ele>1951</ele>
        <time>2020-02-01T12:39:35.000Z</time>
      </trkpt>
      <trkpt lat="42.84403" lon="0.48824">
        <ele>1951</ele>
        <time>2020-02-01T12:39:36.000Z</time>
      </trkpt>
      <trkpt lat="42.84403" lon="0.48823">
        <ele>1951</ele>
        <time>2020-02-01T12:39:37.000Z</time>
      </trkpt>
      <trkpt lat="42.84404" lon="0.48823">
        <ele>1951</ele>
        <time>2020-02-01T12:39:38.000Z</time>
      </trkpt>
      <trkpt lat="42.84404" lon="0.48822">
        <ele>1951</ele>
        <time>2020-02-01T12:39:39.000Z</time>
      </trkpt>
      <trkpt lat="42.84404" lon="0.48821">
        <ele>1951</ele>
        <time>2020-02-01T12:39:40.000Z</time>
      </trkpt>
      <trkpt lat="42.84405" lon="0.48821">
        <ele>1951</ele>
        <time>2020-02-01T12:39:41.000Z</time>
      </trkpt>
      <trkpt lat="42.84406" lon="0.4882">
        <ele>1951.5</ele>
        <time>2020-02-01T12:39:42.000Z</time>
      </trkpt>
      <trkpt lat="42.84406" lon="0.4882">
        <ele>1952</ele>
        <time>2020-02-01T12:39:43.000Z</time>
      </trkpt>
      <trkpt lat="42.84407" lon="0.48819">
        <ele>1952</ele>
        <time>2020-02-01T12:39:44.000Z</time>
      </trkpt>
      <trkpt lat="42.84408" lon="0.48819">
        <ele>1952</ele>
        <time>2020-02-01T12:39:45.000Z</time>
      </trkpt>
      <trkpt lat="42.84408" lon="0.48818">
        <ele>1952</ele>
        <time>2020-02-01T12:39:46.000Z</time>
      </trkpt>
      <trkpt lat="42.84409" lon="0.48818">
        <ele>1952</ele>
        <time>2020-02-01T12:39:47.000Z</time>
      </trkpt>
      <trkpt lat="42.8441" lon="0.48817">
        <ele>1952</ele>
        <time>2020-02-01T12:39:48.000Z</time>
      </trkpt>
      <trkpt lat="42.84411" lon="0.48817">
        <ele>1952</ele>
        <time>2020-02-01T12:39:49.000Z</time>
      </trkpt>
      <trkpt lat="42.84411" lon="0.48816">
        <ele>1952.5</ele>
        <time>2020-02-01T12:39:50.000Z</time>
      </trkpt>
      <trkpt lat="42.84412" lon="0.48816">
        <ele>1953</ele>
        <time>2020-02-01T12:39:51.000Z</time>
      </trkpt>
      <trkpt lat="42.84412" lon="0.48815">
        <ele>1953</ele>
        <time>2020-02-01T12:39:52.000Z</time>
      </trkpt>
      <trkpt lat="42.84413" lon="0.48815">
        <ele>1953</ele>
        <time>2020-02-01T12:39:53.000Z</time>
      </trkpt>
      <trkpt lat="42.84413" lon="0.48815">
        <ele>1953</ele>
        <time>2020-02-01T12:39:54.000Z</time>
      </trkpt>
      <trkpt lat="42.84413" lon="0.48814">
        <ele>1953</ele>
        <time>2020-02-01T12:39:55.000Z</time>
      </trkpt>
      <trkpt lat="42.84414" lon="0.48814">
        <ele>1953</ele>
        <time>2020-02-01T12:39:56.000Z</time>
      </trkpt>
      <trkpt lat="42.84414" lon="0.48814">
        <ele>1953</ele>
        <time>2020-02-01T12:39:57.000Z</time>
      </trkpt>
      <trkpt lat="42.84415" lon="0.48813">
        <ele>1953.5</ele>
        <time>2020-02-01T12:39:58.000Z</time>
      </trkpt>
      <trkpt lat="42.84415" lon="0.48813">
        <ele>1954</ele>
        <time>2020-02-01T12:39:59.000Z</time>
      </trkpt>
      <trkpt lat="42.84416" lon="0.48813">
        <ele>1954</ele>
        <time>2020-02-01T12:40:00.000Z</time>
      </trkpt>
      <trkpt lat="42.84416" lon="0.48812">
        <ele>1954</ele>
        <time>2020-02-01T12:40:01.000Z</time>
      </trkpt>
      <trkpt lat="42.84417" lon="0.48812">
        <ele>1954</ele>
        <time>2020-02-01T12:40:02.000Z</time>
      </trkpt>
      <trkpt lat="42.84418" lon="0.48812">
        <ele>1954</ele>
        <time>2020-02-01T12:40:03.000Z</time>
      </trkpt>
      <trkpt lat="42.84418" lon="0.48812">
        <ele>1954</ele>
        <time>2020-02-01T12:40:04.000Z</time>
      </trkpt>
      <trkpt lat="42.84418" lon="0.48811">
        <ele>1954</ele>
        <time>2020-02-01T12:40:05.000Z</time>
      </trkpt>
      <trkpt lat="42.84418" lon="0.48811">
        <ele>1955</ele>
        <time>2020-02-01T12:40:06.000Z</time>
      </trkpt>
      <trkpt lat="42.84418" lon="0.48811">
        <ele>1955</ele>
        <time>2020-02-01T12:40:07.000Z</time>
      </trkpt>
      <trkpt lat="42.84418" lon="0.48811">
        <ele>1955</ele>
        <time>2020-02-01T12:40:08.000Z</time>
      </trkpt>
      <trkpt lat="42.84418" lon="0.48811">
        <ele>1955</ele>
        <time>2020-02-01T12:40:09.000Z</time>
      </trkpt>
      <trkpt lat="42.84417" lon="0.48811">
        <ele>1955</ele>
        <time>2020-02-01T12:40:10.000Z</time>
      </trkpt>
      <trkpt lat="42.84417" lon="0.48811">
        <ele>1955</ele>
        <time>2020-02-01T12:40:11.000Z</time>
      </trkpt>
      <trkpt lat="42.84417" lon="0.4881">
        <ele>1955</ele>
        <time>2020-02-01T12:40:12.000Z</time>
      </trkpt>
      <trkpt lat="42.84418" lon="0.4881">
        <ele>1955</ele>
        <time>2020-02-01T12:40:13.000Z</time>
      </trkpt>
      <trkpt lat="42.84418" lon="0.4881">
        <ele>1955</ele>
        <time>2020-02-01T12:40:14.000Z</time>
      </trkpt>
      <trkpt lat="42.84418" lon="0.48809">
        <ele>1955</ele>
        <time>2020-02-01T12:40:15.000Z</time>
      </trkpt>
      <trkpt lat="42.84418" lon="0.48809">
        <ele>1955</ele>
        <time>2020-02-01T12:40:16.000Z</time>
      </trkpt>
      <trkpt lat="42.84419" lon="0.48809">
        <ele>1955</ele>
        <time>2020-02-01T12:40:17.000Z</time>
      </trkpt>
      <trkpt lat="42.84419" lon="0.48808">
        <ele>1955</ele>
        <time>2020-02-01T12:40:18.000Z</time>
      </trkpt>
      <trkpt lat="42.8442" lon="0.48807">
        <ele>1955</ele>
        <time>2020-02-01T12:40:19.000Z</time>
      </trkpt>
      <trkpt lat="42.8442" lon="0.48807">
        <ele>1955</ele>
        <time>2020-02-01T12:40:20.000Z</time>
      </trkpt>
      <trkpt lat="42.84421" lon="0.48806">
        <ele>1955.3</ele>
        <time>2020-02-01T12:40:21.000Z</time>
      </trkpt>
      <trkpt lat="42.84421" lon="0.48805">
        <ele>1955.7</ele>
        <time>2020-02-01T12:40:22.000Z</time>
      </trkpt>
      <trkpt lat="42.84421" lon="0.48804">
        <ele>1956</ele>
        <time>2020-02-01T12:40:23.000Z</time>
      </trkpt>
      <trkpt lat="42.84421" lon="0.48803">
        <ele>1956</ele>
        <time>2020-02-01T12:40:24.000Z</time>
      </trkpt>
      <trkpt lat="42.84421" lon="0.48802">
        <ele>1956</ele>
        <time>2020-02-01T12:40:25.000Z</time>
      </trkpt>
      <trkpt lat="42.84421" lon="0.48801">
        <ele>1956</ele>
        <time>2020-02-01T12:40:26.000Z</time>
      </trkpt>
      <trkpt lat="42.84421" lon="0.488">
        <ele>1956</ele>
        <time>2020-02-01T12:40:27.000Z</time>
      </trkpt>
      <trkpt lat="42.8442" lon="0.48799">
        <ele>1956</ele>
        <time>2020-02-01T12:40:28.000Z</time>
      </trkpt>
      <trkpt lat="42.8442" lon="0.48799">
        <ele>1956</ele>
        <time>2020-02-01T12:40:29.000Z</time>
      </trkpt>
      <trkpt lat="42.8442" lon="0.48798">
        <ele>1956.5</ele>
        <time>2020-02-01T12:40:30.000Z</time>
      </trkpt>
      <trkpt lat="42.8442" lon="0.48798">
        <ele>1957</ele>
        <time>2020-02-01T12:40:31.000Z</time>
      </trkpt>
      <trkpt lat="42.84419" lon="0.48797">
        <ele>1957</ele>
        <time>2020-02-01T12:40:32.000Z</time>
      </trkpt>
      <trkpt lat="42.8442" lon="0.48797">
        <ele>1957</ele>
        <time>2020-02-01T12:40:33.000Z</time>
      </trkpt>
      <trkpt lat="42.8442" lon="0.48797">
        <ele>1957.5</ele>
        <time>2020-02-01T12:40:34.000Z</time>
      </trkpt>
      <trkpt lat="42.8442" lon="0.48797">
        <ele>1958</ele>
        <time>2020-02-01T12:40:35.000Z</time>
      </trkpt>
      <trkpt lat="42.8442" lon="0.48797">
        <ele>1958</ele>
        <time>2020-02-01T12:40:36.000Z</time>
      </trkpt>
      <trkpt lat="42.8442" lon="0.48797">
        <ele>1958</ele>
        <time>2020-02-01T12:40:37.000Z</time>
      </trkpt>
      <trkpt lat="42.8442" lon="0.48797">
        <ele>1958</ele>
        <time>2020-02-01T12:40:38.000Z</time>
      </trkpt>
      <trkpt lat="42.8442" lon="0.48796">
        <ele>1958</ele>
        <time>2020-02-01T12:40:39.000Z</time>
      </trkpt>
      <trkpt lat="42.8442" lon="0.48796">
        <ele>1958.5</ele>
        <time>2020-02-01T12:40:40.000Z</time>
      </trkpt>
      <trkpt lat="42.8442" lon="0.48796">
        <ele>1959</ele>
        <time>2020-02-01T12:40:41.000Z</time>
      </trkpt>
      <trkpt lat="42.8442" lon="0.48796">
        <ele>1959</ele>
        <time>2020-02-01T12:40:42.000Z</time>
      </trkpt>
      <trkpt lat="42.8442" lon="0.48796">
        <ele>1959</ele>
        <time>2020-02-01T12:40:43.000Z</time>
      </trkpt>
      <trkpt lat="42.8442" lon="0.48796">
        <ele>1959.5</ele>
        <time>2020-02-01T12:40:44.000Z</time>
      </trkpt>
      <trkpt lat="42.8442" lon="0.48796">
        <ele>1960</ele>
        <time>2020-02-01T12:40:45.000Z</time>
      </trkpt>
      <trkpt lat="42.8442" lon="0.48795">
        <ele>1960</ele>
        <time>2020-02-01T12:40:46.000Z</time>
      </trkpt>
      <trkpt lat="42.84421" lon="0.48794">
        <ele>1960</ele>
        <time>2020-02-01T12:40:47.000Z</time>
      </trkpt>
      <trkpt lat="42.84422" lon="0.48793">
        <ele>1960</ele>
        <time>2020-02-01T12:40:48.000Z</time>
      </trkpt>
      <trkpt lat="42.84423" lon="0.48792">
        <ele>1960</ele>
        <time>2020-02-01T12:40:49.000Z</time>
      </trkpt>
      <trkpt lat="42.84424" lon="0.48791">
        <ele>1960.5</ele>
        <time>2020-02-01T12:40:50.000Z</time>
      </trkpt>
      <trkpt lat="42.84424" lon="0.4879">
        <ele>1961</ele>
        <time>2020-02-01T12:40:51.000Z</time>
      </trkpt>
      <trkpt lat="42.84425" lon="0.48789">
        <ele>1961</ele>
        <time>2020-02-01T12:40:52.000Z</time>
      </trkpt>
      <trkpt lat="42.84426" lon="0.48789">
        <ele>1961</ele>
        <time>2020-02-01T12:40:53.000Z</time>
      </trkpt>
      <trkpt lat="42.84426" lon="0.48788">
        <ele>1961</ele>
        <time>2020-02-01T12:40:54.000Z</time>
      </trkpt>
      <trkpt lat="42.84427" lon="0.48788">
        <ele>1961</ele>
        <time>2020-02-01T12:40:55.000Z</time>
      </trkpt>
      <trkpt lat="42.84427" lon="0.48787">
        <ele>1961.5</ele>
        <time>2020-02-01T12:40:56.000Z</time>
      </trkpt>
      <trkpt lat="42.84428" lon="0.48786">
        <ele>1962</ele>
        <time>2020-02-01T12:40:57.000Z</time>
      </trkpt>
      <trkpt lat="42.84428" lon="0.48786">
        <ele>1962</ele>
        <time>2020-02-01T12:40:58.000Z</time>
      </trkpt>
      <trkpt lat="42.84429" lon="0.48785">
        <ele>1962</ele>
        <time>2020-02-01T12:40:59.000Z</time>
      </trkpt>
      <trkpt lat="42.84429" lon="0.48785">
        <ele>1963</ele>
        <time>2020-02-01T12:41:00.000Z</time>
      </trkpt>
      <trkpt lat="42.84429" lon="0.48784">
        <ele>1963</ele>
        <time>2020-02-01T12:41:01.000Z</time>
      </trkpt>
      <trkpt lat="42.8443" lon="0.48784">
        <ele>1963</ele>
        <time>2020-02-01T12:41:02.000Z</time>
      </trkpt>
      <trkpt lat="42.8443" lon="0.48783">
        <ele>1963</ele>
        <time>2020-02-01T12:41:03.000Z</time>
      </trkpt>
      <trkpt lat="42.8443" lon="0.48783">
        <ele>1963</ele>
        <time>2020-02-01T12:41:04.000Z</time>
      </trkpt>
      <trkpt lat="42.8443" lon="0.48783">
        <ele>1963</ele>
        <time>2020-02-01T12:41:05.000Z</time>
      </trkpt>
      <trkpt lat="42.8443" lon="0.48783">
        <ele>1963</ele>
        <time>2020-02-01T12:41:06.000Z</time>
      </trkpt>
      <trkpt lat="42.8443" lon="0.48782">
        <ele>1963</ele>
        <time>2020-02-01T12:41:07.000Z</time>
      </trkpt>
      <trkpt lat="42.84431" lon="0.48782">
        <ele>1964</ele>
        <time>2020-02-01T12:41:08.000Z</time>
      </trkpt>
      <trkpt lat="42.84431" lon="0.48782">
        <ele>1964</ele>
        <time>2020-02-01T12:41:09.000Z</time>
      </trkpt>
      <trkpt lat="42.84432" lon="0.48781">
        <ele>1964</ele>
        <time>2020-02-01T12:41:10.000Z</time>
      </trkpt>
      <trkpt lat="42.84432" lon="0.48781">
        <ele>1964</ele>
        <time>2020-02-01T12:41:11.000Z</time>
      </trkpt>
      <trkpt lat="42.84433" lon="0.48781">
        <ele>1964</ele>
        <time>2020-02-01T12:41:12.000Z</time>
      </trkpt>
      <trkpt lat="42.84434" lon="0.48781">
        <ele>1964</ele>
        <time>2020-02-01T12:41:13.000Z</time>
      </trkpt>
      <trkpt lat="42.84434" lon="0.48781">
        <ele>1964.5</ele>
        <time>2020-02-01T12:41:14.000Z</time>
      </trkpt>
      <trkpt lat="42.84435" lon="0.48781">
        <ele>1965</ele>
        <time>2020-02-01T12:41:15.000Z</time>
      </trkpt>
      <trkpt lat="42.84435" lon="0.48781">
        <ele>1965</ele>
        <time>2020-02-01T12:41:16.000Z</time>
      </trkpt>
      <trkpt lat="42.84435" lon="0.48781">
        <ele>1965</ele>
        <time>2020-02-01T12:41:17.000Z</time>
      </trkpt>
      <trkpt lat="42.84436" lon="0.48781">
        <ele>1966</ele>
        <time>2020-02-01T12:41:18.000Z</time>
      </trkpt>
      <trkpt lat="42.84436" lon="0.48781">
        <ele>1966</ele>
        <time>2020-02-01T12:41:19.000Z</time>
      </trkpt>
      <trkpt lat="42.84436" lon="0.4878">
        <ele>1966</ele>
        <time>2020-02-01T12:41:20.000Z</time>
      </trkpt>
      <trkpt lat="42.84435" lon="0.4878">
        <ele>1966</ele>
        <time>2020-02-01T12:41:21.000Z</time>
      </trkpt>
      <trkpt lat="42.84435" lon="0.4878">
        <ele>1966</ele>
        <time>2020-02-01T12:41:22.000Z</time>
      </trkpt>
      <trkpt lat="42.84435" lon="0.48779">
        <ele>1966</ele>
        <time>2020-02-01T12:41:23.000Z</time>
      </trkpt>
      <trkpt lat="42.84436" lon="0.48779">
        <ele>1966</ele>
        <time>2020-02-01T12:41:24.000Z</time>
      </trkpt>
      <trkpt lat="42.84436" lon="0.48778">
        <ele>1966</ele>
        <time>2020-02-01T12:41:25.000Z</time>
      </trkpt>
      <trkpt lat="42.84437" lon="0.48776">
        <ele>1966.5</ele>
        <time>2020-02-01T12:41:26.000Z</time>
      </trkpt>
      <trkpt lat="42.84437" lon="0.48775">
        <ele>1967</ele>
        <time>2020-02-01T12:41:27.000Z</time>
      </trkpt>
      <trkpt lat="42.84438" lon="0.48774">
        <ele>1967</ele>
        <time>2020-02-01T12:41:28.000Z</time>
      </trkpt>
      <trkpt lat="42.84438" lon="0.48773">
        <ele>1967</ele>
        <time>2020-02-01T12:41:29.000Z</time>
      </trkpt>
      <trkpt lat="42.84438" lon="0.48773">
        <ele>1967</ele>
        <time>2020-02-01T12:41:30.000Z</time>
      </trkpt>
      <trkpt lat="42.84438" lon="0.48772">
        <ele>1967.3</ele>
        <time>2020-02-01T12:41:31.000Z</time>
      </trkpt>
      <trkpt lat="42.84438" lon="0.48772">
        <ele>1967.7</ele>
        <time>2020-02-01T12:41:32.000Z</time>
      </trkpt>
      <trkpt lat="42.84438" lon="0.48772">
        <ele>1968</ele>
        <time>2020-02-01T12:41:33.000Z</time>
      </trkpt>
      <trkpt lat="42.84438" lon="0.48772">
        <ele>1968</ele>
        <time>2020-02-01T12:41:34.000Z</time>
      </trkpt>
      <trkpt lat="42.84438" lon="0.48771">
        <ele>1968</ele>
        <time>2020-02-01T12:41:35.000Z</time>
      </trkpt>
      <trkpt lat="42.84439" lon="0.4877">
        <ele>1968</ele>
        <time>2020-02-01T12:41:36.000Z</time>
      </trkpt>
      <trkpt lat="42.8444" lon="0.48769">
        <ele>1968</ele>
        <time>2020-02-01T12:41:37.000Z</time>
      </trkpt>
      <trkpt lat="42.8444" lon="0.48768">
        <ele>1968.5</ele>
        <time>2020-02-01T12:41:38.000Z</time>
      </trkpt>
      <trkpt lat="42.84441" lon="0.48767">
        <ele>1969</ele>
        <time>2020-02-01T12:41:39.000Z</time>
      </trkpt>
      <trkpt lat="42.84442" lon="0.48766">
        <ele>1969</ele>
        <time>2020-02-01T12:41:40.000Z</time>
      </trkpt>
      <trkpt lat="42.84442" lon="0.48766">
        <ele>1969</ele>
        <time>2020-02-01T12:41:41.000Z</time>
      </trkpt>
      <trkpt lat="42.84442" lon="0.48766">
        <ele>1969</ele>
        <time>2020-02-01T12:41:42.000Z</time>
      </trkpt>
      <trkpt lat="42.84442" lon="0.48766">
        <ele>1969</ele>
        <time>2020-02-01T12:41:43.000Z</time>
      </trkpt>
      <trkpt lat="42.84442" lon="0.48766">
        <ele>1969.5</ele>
        <time>2020-02-01T12:41:44.000Z</time>
      </trkpt>
      <trkpt lat="42.84442" lon="0.48766">
        <ele>1970</ele>
        <time>2020-02-01T12:41:45.000Z</time>
      </trkpt>
      <trkpt lat="42.84443" lon="0.48765">
        <ele>1970</ele>
        <time>2020-02-01T12:41:46.000Z</time>
      </trkpt>
      <trkpt lat="42.84444" lon="0.48765">
        <ele>1970</ele>
        <time>2020-02-01T12:41:47.000Z</time>
      </trkpt>
      <trkpt lat="42.84445" lon="0.48764">
        <ele>1970</ele>
        <time>2020-02-01T12:41:48.000Z</time>
      </trkpt>
      <trkpt lat="42.84445" lon="0.48763">
        <ele>1970</ele>
        <time>2020-02-01T12:41:49.000Z</time>
      </trkpt>
      <trkpt lat="42.84446" lon="0.48763">
        <ele>1970.5</ele>
        <time>2020-02-01T12:41:50.000Z</time>
      </trkpt>
      <trkpt lat="42.84446" lon="0.48763">
        <ele>1971</ele>
        <time>2020-02-01T12:41:51.000Z</time>
      </trkpt>
      <trkpt lat="42.84447" lon="0.48762">
        <ele>1971</ele>
        <time>2020-02-01T12:41:52.000Z</time>
      </trkpt>
      <trkpt lat="42.84447" lon="0.48762">
        <ele>1971</ele>
        <time>2020-02-01T12:41:53.000Z</time>
      </trkpt>
      <trkpt lat="42.84447" lon="0.48762">
        <ele>1971</ele>
        <time>2020-02-01T12:41:54.000Z</time>
      </trkpt>
      <trkpt lat="42.84447" lon="0.48762">
        <ele>1971</ele>
        <time>2020-02-01T12:41:55.000Z</time>
      </trkpt>
      <trkpt lat="42.84447" lon="0.48762">
        <ele>1971.5</ele>
        <time>2020-02-01T12:41:56.000Z</time>
      </trkpt>
      <trkpt lat="42.84448" lon="0.48761">
        <ele>1972</ele>
        <time>2020-02-01T12:41:57.000Z</time>
      </trkpt>
      <trkpt lat="42.84448" lon="0.48761">
        <ele>1972</ele>
        <time>2020-02-01T12:41:58.000Z</time>
      </trkpt>
      <trkpt lat="42.84448" lon="0.4876">
        <ele>1972</ele>
        <time>2020-02-01T12:41:59.000Z</time>
      </trkpt>
      <trkpt lat="42.84449" lon="0.48759">
        <ele>1972.5</ele>
        <time>2020-02-01T12:42:00.000Z</time>
      </trkpt>
      <trkpt lat="42.84449" lon="0.48759">
        <ele>1973</ele>
        <time>2020-02-01T12:42:01.000Z</time>
      </trkpt>
      <trkpt lat="42.8445" lon="0.48759">
        <ele>1973</ele>
        <time>2020-02-01T12:42:02.000Z</time>
      </trkpt>
      <trkpt lat="42.8445" lon="0.48758">
        <ele>1973</ele>
        <time>2020-02-01T12:42:03.000Z</time>
      </trkpt>
      <trkpt lat="42.8445" lon="0.48758">
        <ele>1973</ele>
        <time>2020-02-01T12:42:04.000Z</time>
      </trkpt>
      <trkpt lat="42.84451" lon="0.48758">
        <ele>1973</ele>
        <time>2020-02-01T12:42:05.000Z</time>
      </trkpt>
      <trkpt lat="42.84451" lon="0.48758">
        <ele>1973.5</ele>
        <time>2020-02-01T12:42:06.000Z</time>
      </trkpt>
      <trkpt lat="42.84452" lon="0.48757">
        <ele>1974</ele>
        <time>2020-02-01T12:42:07.000Z</time>
      </trkpt>
      <trkpt lat="42.84452" lon="0.48757">
        <ele>1974</ele>
        <time>2020-02-01T12:42:08.000Z</time>
      </trkpt>
      <trkpt lat="42.84453" lon="0.48757">
        <ele>1974</ele>
        <time>2020-02-01T12:42:09.000Z</time>
      </trkpt>
      <trkpt lat="42.84454" lon="0.48756">
        <ele>1974</ele>
        <time>2020-02-01T12:42:10.000Z</time>
      </trkpt>
      <trkpt lat="42.84454" lon="0.48756">
        <ele>1974</ele>
        <time>2020-02-01T12:42:11.000Z</time>
      </trkpt>
      <trkpt lat="42.84455" lon="0.48755">
        <ele>1975</ele>
        <time>2020-02-01T12:42:12.000Z</time>
      </trkpt>
      <trkpt lat="42.84456" lon="0.48755">
        <ele>1975</ele>
        <time>2020-02-01T12:42:13.000Z</time>
      </trkpt>
      <trkpt lat="42.84457" lon="0.48754">
        <ele>1975</ele>
        <time>2020-02-01T12:42:14.000Z</time>
      </trkpt>
      <trkpt lat="42.84458" lon="0.48754">
        <ele>1975</ele>
        <time>2020-02-01T12:42:15.000Z</time>
      </trkpt>
      <trkpt lat="42.84458" lon="0.48753">
        <ele>1975</ele>
        <time>2020-02-01T12:42:16.000Z</time>
      </trkpt>
      <trkpt lat="42.84458" lon="0.48752">
        <ele>1975.3</ele>
        <time>2020-02-01T12:42:17.000Z</time>
      </trkpt>
      <trkpt lat="42.84459" lon="0.48752">
        <ele>1975.7</ele>
        <time>2020-02-01T12:42:18.000Z</time>
      </trkpt>
      <trkpt lat="42.84459" lon="0.48751">
        <ele>1976</ele>
        <time>2020-02-01T12:42:19.000Z</time>
      </trkpt>
      <trkpt lat="42.84459" lon="0.4875">
        <ele>1976</ele>
        <time>2020-02-01T12:42:20.000Z</time>
      </trkpt>
      <trkpt lat="42.8446" lon="0.4875">
        <ele>1976</ele>
        <time>2020-02-01T12:42:21.000Z</time>
      </trkpt>
      <trkpt lat="42.84461" lon="0.48749">
        <ele>1976</ele>
        <time>2020-02-01T12:42:22.000Z</time>
      </trkpt>
      <trkpt lat="42.84461" lon="0.48749">
        <ele>1976</ele>
        <time>2020-02-01T12:42:23.000Z</time>
      </trkpt>
      <trkpt lat="42.84462" lon="0.48748">
        <ele>1976.5</ele>
        <time>2020-02-01T12:42:24.000Z</time>
      </trkpt>
      <trkpt lat="42.84462" lon="0.48748">
        <ele>1977</ele>
        <time>2020-02-01T12:42:25.000Z</time>
      </trkpt>
      <trkpt lat="42.84463" lon="0.48748">
        <ele>1977</ele>
        <time>2020-02-01T12:42:26.000Z</time>
      </trkpt>
      <trkpt lat="42.84462" lon="0.48747">
        <ele>1977.3</ele>
        <time>2020-02-01T12:42:27.000Z</time>
      </trkpt>
      <trkpt lat="42.84462" lon="0.48746">
        <ele>1977.7</ele>
        <time>2020-02-01T12:42:28.000Z</time>
      </trkpt>
      <trkpt lat="42.84463" lon="0.48746">
        <ele>1978</ele>
        <time>2020-02-01T12:42:29.000Z</time>
      </trkpt>
      <trkpt lat="42.84463" lon="0.48746">
        <ele>1978</ele>
        <time>2020-02-01T12:42:30.000Z</time>
      </trkpt>
      <trkpt lat="42.84463" lon="0.48746">
        <ele>1978</ele>
        <time>2020-02-01T12:42:31.000Z</time>
      </trkpt>
      <trkpt lat="42.84463" lon="0.48746">
        <ele>1978</ele>
        <time>2020-02-01T12:42:32.000Z</time>
      </trkpt>
      <trkpt lat="42.84464" lon="0.48746">
        <ele>1978</ele>
        <time>2020-02-01T12:42:33.000Z</time>
      </trkpt>
      <trkpt lat="42.84464" lon="0.48746">
        <ele>1978.5</ele>
        <time>2020-02-01T12:42:34.000Z</time>
      </trkpt>
      <trkpt lat="42.84464" lon="0.48746">
        <ele>1979</ele>
        <time>2020-02-01T12:42:35.000Z</time>
      </trkpt>
      <trkpt lat="42.84464" lon="0.48746">
        <ele>1979</ele>
        <time>2020-02-01T12:42:36.000Z</time>
      </trkpt>
      <trkpt lat="42.84464" lon="0.48746">
        <ele>1979</ele>
        <time>2020-02-01T12:42:37.000Z</time>
      </trkpt>
      <trkpt lat="42.84464" lon="0.48746">
        <ele>1979</ele>
        <time>2020-02-01T12:42:38.000Z</time>
      </trkpt>
      <trkpt lat="42.84464" lon="0.48746">
        <ele>1979</ele>
        <time>2020-02-01T12:42:39.000Z</time>
      </trkpt>
      <trkpt lat="42.84464" lon="0.48746">
        <ele>1979</ele>
        <time>2020-02-01T12:42:40.000Z</time>
      </trkpt>
      <trkpt lat="42.84464" lon="0.48745">
        <ele>1979</ele>
        <time>2020-02-01T12:42:41.000Z</time>
      </trkpt>
      <trkpt lat="42.84465" lon="0.48745">
        <ele>1978.5</ele>
        <time>2020-02-01T12:42:42.000Z</time>
      </trkpt>
      <trkpt lat="42.84465" lon="0.48745">
        <ele>1978</ele>
        <time>2020-02-01T12:42:43.000Z</time>
      </trkpt>
      <trkpt lat="42.84466" lon="0.48745">
        <ele>1978</ele>
        <time>2020-02-01T12:42:44.000Z</time>
      </trkpt>
      <trkpt lat="42.84466" lon="0.48744">
        <ele>1978</ele>
        <time>2020-02-01T12:42:45.000Z</time>
      </trkpt>
      <trkpt lat="42.84467" lon="0.48744">
        <ele>1978</ele>
        <time>2020-02-01T12:42:46.000Z</time>
      </trkpt>
      <trkpt lat="42.84467" lon="0.48744">
        <ele>1978</ele>
        <time>2020-02-01T12:42:47.000Z</time>
      </trkpt>
      <trkpt lat="42.84468" lon="0.48744">
        <ele>1978</ele>
        <time>2020-02-01T12:42:48.000Z</time>
      </trkpt>
      <trkpt lat="42.84468" lon="0.48744">
        <ele>1978</ele>
        <time>2020-02-01T12:42:49.000Z</time>
      </trkpt>
      <trkpt lat="42.84468" lon="0.48743">
        <ele>1978.5</ele>
        <time>2020-02-01T12:42:50.000Z</time>
      </trkpt>
      <trkpt lat="42.84469" lon="0.48743">
        <ele>1979</ele>
        <time>2020-02-01T12:42:51.000Z</time>
      </trkpt>
      <trkpt lat="42.84469" lon="0.48743">
        <ele>1979</ele>
        <time>2020-02-01T12:42:52.000Z</time>
      </trkpt>
      <trkpt lat="42.84469" lon="0.48743">
        <ele>1979</ele>
        <time>2020-02-01T12:42:53.000Z</time>
      </trkpt>
      <trkpt lat="42.84469" lon="0.48743">
        <ele>1979</ele>
        <time>2020-02-01T12:42:54.000Z</time>
      </trkpt>
      <trkpt lat="42.84469" lon="0.48743">
        <ele>1979</ele>
        <time>2020-02-01T12:42:55.000Z</time>
      </trkpt>
      <trkpt lat="42.84469" lon="0.48743">
        <ele>1979</ele>
        <time>2020-02-01T12:42:56.000Z</time>
      </trkpt>
      <trkpt lat="42.84469" lon="0.48743">
        <ele>1979</ele>
        <time>2020-02-01T12:42:57.000Z</time>
      </trkpt>
      <trkpt lat="42.8447" lon="0.48743">
        <ele>1979</ele>
        <time>2020-02-01T12:42:58.000Z</time>
      </trkpt>
      <trkpt lat="42.84471" lon="0.48743">
        <ele>1979</ele>
        <time>2020-02-01T12:42:59.000Z</time>
      </trkpt>
      <trkpt lat="42.84472" lon="0.48743">
        <ele>1979.5</ele>
        <time>2020-02-01T12:43:00.000Z</time>
      </trkpt>
      <trkpt lat="42.84473" lon="0.48742">
        <ele>1980</ele>
        <time>2020-02-01T12:43:01.000Z</time>
      </trkpt>
      <trkpt lat="42.84474" lon="0.48742">
        <ele>1980</ele>
        <time>2020-02-01T12:43:02.000Z</time>
      </trkpt>
      <trkpt lat="42.84475" lon="0.48741">
        <ele>1980</ele>
        <time>2020-02-01T12:43:03.000Z</time>
      </trkpt>
      <trkpt lat="42.84476" lon="0.48741">
        <ele>1980</ele>
        <time>2020-02-01T12:43:04.000Z</time>
      </trkpt>
      <trkpt lat="42.84477" lon="0.4874">
        <ele>1980</ele>
        <time>2020-02-01T12:43:05.000Z</time>
      </trkpt>
      <trkpt lat="42.84478" lon="0.4874">
        <ele>1981</ele>
        <time>2020-02-01T12:43:06.000Z</time>
      </trkpt>
      <trkpt lat="42.84479" lon="0.48739">
        <ele>1981</ele>
        <time>2020-02-01T12:43:07.000Z</time>
      </trkpt>
      <trkpt lat="42.8448" lon="0.48739">
        <ele>1981</ele>
        <time>2020-02-01T12:43:08.000Z</time>
      </trkpt>
      <trkpt lat="42.8448" lon="0.48738">
        <ele>1981</ele>
        <time>2020-02-01T12:43:09.000Z</time>
      </trkpt>
      <trkpt lat="42.84481" lon="0.48738">
        <ele>1981</ele>
        <time>2020-02-01T12:43:10.000Z</time>
      </trkpt>
      <trkpt lat="42.84482" lon="0.48737">
        <ele>1981</ele>
        <time>2020-02-01T12:43:11.000Z</time>
      </trkpt>
      <trkpt lat="42.84482" lon="0.48736">
        <ele>1981</ele>
        <time>2020-02-01T12:43:12.000Z</time>
      </trkpt>
      <trkpt lat="42.84483" lon="0.48736">
        <ele>1981.3</ele>
        <time>2020-02-01T12:43:13.000Z</time>
      </trkpt>
      <trkpt lat="42.84484" lon="0.48735">
        <ele>1981.7</ele>
        <time>2020-02-01T12:43:14.000Z</time>
      </trkpt>
      <trkpt lat="42.84484" lon="0.48734">
        <ele>1982</ele>
        <time>2020-02-01T12:43:15.000Z</time>
      </trkpt>
      <trkpt lat="42.84485" lon="0.48734">
        <ele>1982</ele>
        <time>2020-02-01T12:43:16.000Z</time>
      </trkpt>
      <trkpt lat="42.84486" lon="0.48733">
        <ele>1982</ele>
        <time>2020-02-01T12:43:17.000Z</time>
      </trkpt>
      <trkpt lat="42.84486" lon="0.48732">
        <ele>1982</ele>
        <time>2020-02-01T12:43:18.000Z</time>
      </trkpt>
      <trkpt lat="42.84487" lon="0.48732">
        <ele>1982</ele>
        <time>2020-02-01T12:43:19.000Z</time>
      </trkpt>
      <trkpt lat="42.84488" lon="0.48731">
        <ele>1982</ele>
        <time>2020-02-01T12:43:20.000Z</time>
      </trkpt>
      <trkpt lat="42.84489" lon="0.48731">
        <ele>1982</ele>
        <time>2020-02-01T12:43:21.000Z</time>
      </trkpt>
      <trkpt lat="42.84489" lon="0.4873">
        <ele>1982</ele>
        <time>2020-02-01T12:43:22.000Z</time>
      </trkpt>
      <trkpt lat="42.8449" lon="0.4873">
        <ele>1982</ele>
        <time>2020-02-01T12:43:23.000Z</time>
      </trkpt>
      <trkpt lat="42.8449" lon="0.4873">
        <ele>1982</ele>
        <time>2020-02-01T12:43:24.000Z</time>
      </trkpt>
      <trkpt lat="42.84491" lon="0.48729">
        <ele>1982</ele>
        <time>2020-02-01T12:43:25.000Z</time>
      </trkpt>
      <trkpt lat="42.84491" lon="0.48729">
        <ele>1982</ele>
        <time>2020-02-01T12:43:26.000Z</time>
      </trkpt>
      <trkpt lat="42.84492" lon="0.48728">
        <ele>1982</ele>
        <time>2020-02-01T12:43:27.000Z</time>
      </trkpt>
      <trkpt lat="42.84493" lon="0.48728">
        <ele>1982</ele>
        <time>2020-02-01T12:43:28.000Z</time>
      </trkpt>
      <trkpt lat="42.84493" lon="0.48728">
        <ele>1982</ele>
        <time>2020-02-01T12:43:29.000Z</time>
      </trkpt>
      <trkpt lat="42.84494" lon="0.48727">
        <ele>1982.5</ele>
        <time>2020-02-01T12:43:30.000Z</time>
      </trkpt>
      <trkpt lat="42.84494" lon="0.48727">
        <ele>1983</ele>
        <time>2020-02-01T12:43:31.000Z</time>
      </trkpt>
      <trkpt lat="42.84495" lon="0.48726">
        <ele>1983</ele>
        <time>2020-02-01T12:43:32.000Z</time>
      </trkpt>
      <trkpt lat="42.84495" lon="0.48726">
        <ele>1983</ele>
        <time>2020-02-01T12:43:33.000Z</time>
      </trkpt>
      <trkpt lat="42.84496" lon="0.48726">
        <ele>1983</ele>
        <time>2020-02-01T12:43:34.000Z</time>
      </trkpt>
      <trkpt lat="42.84496" lon="0.48725">
        <ele>1983</ele>
        <time>2020-02-01T12:43:35.000Z</time>
      </trkpt>
      <trkpt lat="42.84496" lon="0.48725">
        <ele>1983</ele>
        <time>2020-02-01T12:43:36.000Z</time>
      </trkpt>
      <trkpt lat="42.84496" lon="0.48725">
        <ele>1983</ele>
        <time>2020-02-01T12:43:37.000Z</time>
      </trkpt>
      <trkpt lat="42.84496" lon="0.48725">
        <ele>1983</ele>
        <time>2020-02-01T12:43:38.000Z</time>
      </trkpt>
      <trkpt lat="42.84496" lon="0.48725">
        <ele>1983</ele>
        <time>2020-02-01T12:43:39.000Z</time>
      </trkpt>
      <trkpt lat="42.84496" lon="0.48725">
        <ele>1983</ele>
        <time>2020-02-01T12:43:40.000Z</time>
      </trkpt>
      <trkpt lat="42.84496" lon="0.48725">
        <ele>1983</ele>
        <time>2020-02-01T12:43:41.000Z</time>
      </trkpt>
      <trkpt lat="42.84496" lon="0.48725">
        <ele>1983</ele>
        <time>2020-02-01T12:43:42.000Z</time>
      </trkpt>
      <trkpt lat="42.84496" lon="0.48725">
        <ele>1983</ele>
        <time>2020-02-01T12:43:43.000Z</time>
      </trkpt>
      <trkpt lat="42.84496" lon="0.48725">
        <ele>1983</ele>
        <time>2020-02-01T12:43:44.000Z</time>
      </trkpt>
      <trkpt lat="42.84496" lon="0.48725">
        <ele>1983</ele>
        <time>2020-02-01T12:43:45.000Z</time>
      </trkpt>
      <trkpt lat="42.84496" lon="0.48725">
        <ele>1983</ele>
        <time>2020-02-01T12:43:46.000Z</time>
      </trkpt>
      <trkpt lat="42.84496" lon="0.48725">
        <ele>1983</ele>
        <time>2020-02-01T12:43:47.000Z</time>
      </trkpt>
      <trkpt lat="42.84496" lon="0.48725">
        <ele>1983</ele>
        <time>2020-02-01T12:43:48.000Z</time>
      </trkpt>
      <trkpt lat="42.84496" lon="0.48725">
        <ele>1983</ele>
        <time>2020-02-01T12:43:49.000Z</time>
      </trkpt>
      <trkpt lat="42.84496" lon="0.48725">
        <ele>1983</ele>
        <time>2020-02-01T12:43:50.000Z</time>
      </trkpt>
      <trkpt lat="42.84496" lon="0.48725">
        <ele>1983</ele>
        <time>2020-02-01T12:43:51.000Z</time>
      </trkpt>
      <trkpt lat="42.84497" lon="0.48725">
        <ele>1983</ele>
        <time>2020-02-01T12:43:52.000Z</time>
      </trkpt>
      <trkpt lat="42.84497" lon="0.48725">
        <ele>1983</ele>
        <time>2020-02-01T12:43:53.000Z</time>
      </trkpt>
      <trkpt lat="42.84497" lon="0.48724">
        <ele>1983</ele>
        <time>2020-02-01T12:43:54.000Z</time>
      </trkpt>
      <trkpt lat="42.84498" lon="0.48724">
        <ele>1983</ele>
        <time>2020-02-01T12:43:55.000Z</time>
      </trkpt>
      <trkpt lat="42.84499" lon="0.48724">
        <ele>1983</ele>
        <time>2020-02-01T12:43:56.000Z</time>
      </trkpt>
      <trkpt lat="42.845" lon="0.48723">
        <ele>1983</ele>
        <time>2020-02-01T12:43:57.000Z</time>
      </trkpt>
      <trkpt lat="42.845" lon="0.48723">
        <ele>1983</ele>
        <time>2020-02-01T12:43:58.000Z</time>
      </trkpt>
      <trkpt lat="42.84501" lon="0.48723">
        <ele>1983</ele>
        <time>2020-02-01T12:43:59.000Z</time>
      </trkpt>
      <trkpt lat="42.84501" lon="0.48722">
        <ele>1983</ele>
        <time>2020-02-01T12:44:00.000Z</time>
      </trkpt>
      <trkpt lat="42.84502" lon="0.48722">
        <ele>1983</ele>
        <time>2020-02-01T12:44:01.000Z</time>
      </trkpt>
      <trkpt lat="42.84503" lon="0.48722">
        <ele>1983</ele>
        <time>2020-02-01T12:44:02.000Z</time>
      </trkpt>
      <trkpt lat="42.84503" lon="0.48721">
        <ele>1983.5</ele>
        <time>2020-02-01T12:44:03.000Z</time>
      </trkpt>
      <trkpt lat="42.84504" lon="0.48721">
        <ele>1984</ele>
        <time>2020-02-01T12:44:04.000Z</time>
      </trkpt>
      <trkpt lat="42.84505" lon="0.48721">
        <ele>1984</ele>
        <time>2020-02-01T12:44:05.000Z</time>
      </trkpt>
      <trkpt lat="42.84506" lon="0.4872">
        <ele>1984</ele>
        <time>2020-02-01T12:44:06.000Z</time>
      </trkpt>
      <trkpt lat="42.84506" lon="0.4872">
        <ele>1984</ele>
        <time>2020-02-01T12:44:07.000Z</time>
      </trkpt>
      <trkpt lat="42.84507" lon="0.4872">
        <ele>1985</ele>
        <time>2020-02-01T12:44:08.000Z</time>
      </trkpt>
      <trkpt lat="42.84507" lon="0.4872">
        <ele>1985</ele>
        <time>2020-02-01T12:44:09.000Z</time>
      </trkpt>
      <trkpt lat="42.84508" lon="0.4872">
        <ele>1985</ele>
        <time>2020-02-01T12:44:10.000Z</time>
      </trkpt>
      <trkpt lat="42.84508" lon="0.4872">
        <ele>1985</ele>
        <time>2020-02-01T12:44:11.000Z</time>
      </trkpt>
      <trkpt lat="42.84508" lon="0.4872">
        <ele>1985</ele>
        <time>2020-02-01T12:44:12.000Z</time>
      </trkpt>
      <trkpt lat="42.84509" lon="0.4872">
        <ele>1985.5</ele>
        <time>2020-02-01T12:44:13.000Z</time>
      </trkpt>
      <trkpt lat="42.84509" lon="0.48719">
        <ele>1986</ele>
        <time>2020-02-01T12:44:14.000Z</time>
      </trkpt>
      <trkpt lat="42.84509" lon="0.48719">
        <ele>1986</ele>
        <time>2020-02-01T12:44:15.000Z</time>
      </trkpt>
      <trkpt lat="42.84509" lon="0.48719">
        <ele>1986</ele>
        <time>2020-02-01T12:44:16.000Z</time>
      </trkpt>
      <trkpt lat="42.84509" lon="0.48719">
        <ele>1986</ele>
        <time>2020-02-01T12:44:17.000Z</time>
      </trkpt>
      <trkpt lat="42.84509" lon="0.48719">
        <ele>1986</ele>
        <time>2020-02-01T12:44:18.000Z</time>
      </trkpt>
      <trkpt lat="42.84509" lon="0.48719">
        <ele>1986</ele>
        <time>2020-02-01T12:44:19.000Z</time>
      </trkpt>
      <trkpt lat="42.84509" lon="0.48719">
        <ele>1986</ele>
        <time>2020-02-01T12:44:20.000Z</time>
      </trkpt>
      <trkpt lat="42.84509" lon="0.48719">
        <ele>1986</ele>
        <time>2020-02-01T12:44:21.000Z</time>
      </trkpt>
      <trkpt lat="42.84509" lon="0.48719">
        <ele>1986</ele>
        <time>2020-02-01T12:44:22.000Z</time>
      </trkpt>
      <trkpt lat="42.84509" lon="0.48719">
        <ele>1986</ele>
        <time>2020-02-01T12:44:23.000Z</time>
      </trkpt>
      <trkpt lat="42.84509" lon="0.48719">
        <ele>1986</ele>
        <time>2020-02-01T12:44:24.000Z</time>
      </trkpt>
      <trkpt lat="42.84509" lon="0.48719">
        <ele>1986</ele>
        <time>2020-02-01T12:44:25.000Z</time>
      </trkpt>
      <trkpt lat="42.84509" lon="0.48719">
        <ele>1986</ele>
        <time>2020-02-01T12:44:26.000Z</time>
      </trkpt>
      <trkpt lat="42.84509" lon="0.48719">
        <ele>1986</ele>
        <time>2020-02-01T12:44:27.000Z</time>
      </trkpt>
      <trkpt lat="42.84509" lon="0.48719">
        <ele>1986</ele>
        <time>2020-02-01T12:44:28.000Z</time>
      </trkpt>
      <trkpt lat="42.84509" lon="0.48719">
        <ele>1986</ele>
        <time>2020-02-01T12:44:29.000Z</time>
      </trkpt>
      <trkpt lat="42.84509" lon="0.48719">
        <ele>1985.5</ele>
        <time>2020-02-01T12:44:30.000Z</time>
      </trkpt>
      <trkpt lat="42.84509" lon="0.48718">
        <ele>1985</ele>
        <time>2020-02-01T12:44:31.000Z</time>
      </trkpt>
      <trkpt lat="42.8451" lon="0.48718">
        <ele>1985</ele>
        <time>2020-02-01T12:44:32.000Z</time>
      </trkpt>
      <trkpt lat="42.8451" lon="0.48718">
        <ele>1985</ele>
        <time>2020-02-01T12:44:33.000Z</time>
      </trkpt>
      <trkpt lat="42.84511" lon="0.48717">
        <ele>1985</ele>
        <time>2020-02-01T12:44:34.000Z</time>
      </trkpt>
      <trkpt lat="42.84512" lon="0.48717">
        <ele>1985</ele>
        <time>2020-02-01T12:44:35.000Z</time>
      </trkpt>
      <trkpt lat="42.84512" lon="0.48717">
        <ele>1985</ele>
        <time>2020-02-01T12:44:36.000Z</time>
      </trkpt>
      <trkpt lat="42.84513" lon="0.48716">
        <ele>1985</ele>
        <time>2020-02-01T12:44:37.000Z</time>
      </trkpt>
      <trkpt lat="42.84514" lon="0.48716">
        <ele>1985</ele>
        <time>2020-02-01T12:44:38.000Z</time>
      </trkpt>
      <trkpt lat="42.84515" lon="0.48715">
        <ele>1985</ele>
        <time>2020-02-01T12:44:39.000Z</time>
      </trkpt>
      <trkpt lat="42.84516" lon="0.48715">
        <ele>1985.5</ele>
        <time>2020-02-01T12:44:40.000Z</time>
      </trkpt>
      <trkpt lat="42.84517" lon="0.48714">
        <ele>1986</ele>
        <time>2020-02-01T12:44:41.000Z</time>
      </trkpt>
      <trkpt lat="42.84518" lon="0.48714">
        <ele>1986</ele>
        <time>2020-02-01T12:44:42.000Z</time>
      </trkpt>
      <trkpt lat="42.84519" lon="0.48713">
        <ele>1986</ele>
        <time>2020-02-01T12:44:43.000Z</time>
      </trkpt>
      <trkpt lat="42.8452" lon="0.48713">
        <ele>1986</ele>
        <time>2020-02-01T12:44:44.000Z</time>
      </trkpt>
      <trkpt lat="42.8452" lon="0.48712">
        <ele>1986</ele>
        <time>2020-02-01T12:44:45.000Z</time>
      </trkpt>
      <trkpt lat="42.84521" lon="0.48712">
        <ele>1987</ele>
        <time>2020-02-01T12:44:46.000Z</time>
      </trkpt>
      <trkpt lat="42.84521" lon="0.48712">
        <ele>1986.7</ele>
        <time>2020-02-01T12:44:47.000Z</time>
      </trkpt>
      <trkpt lat="42.84521" lon="0.48712">
        <ele>1986.3</ele>
        <time>2020-02-01T12:44:48.000Z</time>
      </trkpt>
      <trkpt lat="42.84521" lon="0.48711">
        <ele>1986</ele>
        <time>2020-02-01T12:44:49.000Z</time>
      </trkpt>
      <trkpt lat="42.84521" lon="0.48711">
        <ele>1986</ele>
        <time>2020-02-01T12:44:50.000Z</time>
      </trkpt>
      <trkpt lat="42.84521" lon="0.48711">
        <ele>1986</ele>
        <time>2020-02-01T12:44:51.000Z</time>
      </trkpt>
      <trkpt lat="42.84521" lon="0.48711">
        <ele>1986.5</ele>
        <time>2020-02-01T12:44:52.000Z</time>
      </trkpt>
      <trkpt lat="42.84521" lon="0.48711">
        <ele>1987</ele>
        <time>2020-02-01T12:44:53.000Z</time>
      </trkpt>
      <trkpt lat="42.84521" lon="0.48711">
        <ele>1987</ele>
        <time>2020-02-01T12:44:54.000Z</time>
      </trkpt>
      <trkpt lat="42.84521" lon="0.48711">
        <ele>1987</ele>
        <time>2020-02-01T12:44:55.000Z</time>
      </trkpt>
      <trkpt lat="42.84522" lon="0.48711">
        <ele>1987</ele>
        <time>2020-02-01T12:44:56.000Z</time>
      </trkpt>
      <trkpt lat="42.84522" lon="0.48711">
        <ele>1987</ele>
        <time>2020-02-01T12:44:57.000Z</time>
      </trkpt>
      <trkpt lat="42.84523" lon="0.48711">
        <ele>1987</ele>
        <time>2020-02-01T12:44:58.000Z</time>
      </trkpt>
      <trkpt lat="42.84524" lon="0.4871">
        <ele>1987</ele>
        <time>2020-02-01T12:44:59.000Z</time>
      </trkpt>
      <trkpt lat="42.84524" lon="0.4871">
        <ele>1987</ele>
        <time>2020-02-01T12:45:00.000Z</time>
      </trkpt>
      <trkpt lat="42.84525" lon="0.4871">
        <ele>1987</ele>
        <time>2020-02-01T12:45:01.000Z</time>
      </trkpt>
      <trkpt lat="42.84526" lon="0.4871">
        <ele>1987</ele>
        <time>2020-02-01T12:45:02.000Z</time>
      </trkpt>
      <trkpt lat="42.84527" lon="0.48709">
        <ele>1987</ele>
        <time>2020-02-01T12:45:03.000Z</time>
      </trkpt>
      <trkpt lat="42.84528" lon="0.48709">
        <ele>1987</ele>
        <time>2020-02-01T12:45:04.000Z</time>
      </trkpt>
      <trkpt lat="42.84529" lon="0.48709">
        <ele>1987</ele>
        <time>2020-02-01T12:45:05.000Z</time>
      </trkpt>
      <trkpt lat="42.8453" lon="0.48708">
        <ele>1987</ele>
        <time>2020-02-01T12:45:06.000Z</time>
      </trkpt>
      <trkpt lat="42.84531" lon="0.48708">
        <ele>1987</ele>
        <time>2020-02-01T12:45:07.000Z</time>
      </trkpt>
      <trkpt lat="42.84532" lon="0.48708">
        <ele>1987</ele>
        <time>2020-02-01T12:45:08.000Z</time>
      </trkpt>
      <trkpt lat="42.84532" lon="0.48708">
        <ele>1987.3</ele>
        <time>2020-02-01T12:45:09.000Z</time>
      </trkpt>
      <trkpt lat="42.84533" lon="0.48707">
        <ele>1987.7</ele>
        <time>2020-02-01T12:45:10.000Z</time>
      </trkpt>
      <trkpt lat="42.84534" lon="0.48707">
        <ele>1988</ele>
        <time>2020-02-01T12:45:11.000Z</time>
      </trkpt>
      <trkpt lat="42.84535" lon="0.48706">
        <ele>1988</ele>
        <time>2020-02-01T12:45:12.000Z</time>
      </trkpt>
      <trkpt lat="42.84536" lon="0.48705">
        <ele>1988</ele>
        <time>2020-02-01T12:45:13.000Z</time>
      </trkpt>
      <trkpt lat="42.84537" lon="0.48705">
        <ele>1988</ele>
        <time>2020-02-01T12:45:14.000Z</time>
      </trkpt>
      <trkpt lat="42.84538" lon="0.48704">
        <ele>1988</ele>
        <time>2020-02-01T12:45:15.000Z</time>
      </trkpt>
      <trkpt lat="42.84539" lon="0.48703">
        <ele>1988</ele>
        <time>2020-02-01T12:45:16.000Z</time>
      </trkpt>
      <trkpt lat="42.84539" lon="0.48703">
        <ele>1988.3</ele>
        <time>2020-02-01T12:45:17.000Z</time>
      </trkpt>
      <trkpt lat="42.8454" lon="0.48702">
        <ele>1988.7</ele>
        <time>2020-02-01T12:45:18.000Z</time>
      </trkpt>
      <trkpt lat="42.84541" lon="0.48701">
        <ele>1989</ele>
        <time>2020-02-01T12:45:19.000Z</time>
      </trkpt>
      <trkpt lat="42.84542" lon="0.48701">
        <ele>1989</ele>
        <time>2020-02-01T12:45:20.000Z</time>
      </trkpt>
      <trkpt lat="42.84542" lon="0.487">
        <ele>1989</ele>
        <time>2020-02-01T12:45:21.000Z</time>
      </trkpt>
      <trkpt lat="42.84543" lon="0.487">
        <ele>1989</ele>
        <time>2020-02-01T12:45:22.000Z</time>
      </trkpt>
      <trkpt lat="42.84544" lon="0.48699">
        <ele>1989</ele>
        <time>2020-02-01T12:45:23.000Z</time>
      </trkpt>
      <trkpt lat="42.84544" lon="0.48698">
        <ele>1989</ele>
        <time>2020-02-01T12:45:24.000Z</time>
      </trkpt>
      <trkpt lat="42.84545" lon="0.48698">
        <ele>1989</ele>
        <time>2020-02-01T12:45:25.000Z</time>
      </trkpt>
      <trkpt lat="42.84546" lon="0.48697">
        <ele>1989</ele>
        <time>2020-02-01T12:45:26.000Z</time>
      </trkpt>
      <trkpt lat="42.84546" lon="0.48696">
        <ele>1989</ele>
        <time>2020-02-01T12:45:27.000Z</time>
      </trkpt>
      <trkpt lat="42.84547" lon="0.48696">
        <ele>1989</ele>
        <time>2020-02-01T12:45:28.000Z</time>
      </trkpt>
      <trkpt lat="42.84548" lon="0.48695">
        <ele>1989</ele>
        <time>2020-02-01T12:45:29.000Z</time>
      </trkpt>
      <trkpt lat="42.84549" lon="0.48694">
        <ele>1989</ele>
        <time>2020-02-01T12:45:30.000Z</time>
      </trkpt>
      <trkpt lat="42.84549" lon="0.48694">
        <ele>1989</ele>
        <time>2020-02-01T12:45:31.000Z</time>
      </trkpt>
      <trkpt lat="42.8455" lon="0.48693">
        <ele>1989</ele>
        <time>2020-02-01T12:45:32.000Z</time>
      </trkpt>
      <trkpt lat="42.84551" lon="0.48693">
        <ele>1989</ele>
        <time>2020-02-01T12:45:33.000Z</time>
      </trkpt>
      <trkpt lat="42.84552" lon="0.48692">
        <ele>1989</ele>
        <time>2020-02-01T12:45:34.000Z</time>
      </trkpt>
      <trkpt lat="42.84553" lon="0.48692">
        <ele>1989</ele>
        <time>2020-02-01T12:45:35.000Z</time>
      </trkpt>
      <trkpt lat="42.84553" lon="0.48692">
        <ele>1989</ele>
        <time>2020-02-01T12:45:36.000Z</time>
      </trkpt>
      <trkpt lat="42.84554" lon="0.48691">
        <ele>1989</ele>
        <time>2020-02-01T12:45:37.000Z</time>
      </trkpt>
      <trkpt lat="42.84555" lon="0.48691">
        <ele>1989</ele>
        <time>2020-02-01T12:45:38.000Z</time>
      </trkpt>
      <trkpt lat="42.84556" lon="0.48691">
        <ele>1989</ele>
        <time>2020-02-01T12:45:39.000Z</time>
      </trkpt>
      <trkpt lat="42.84557" lon="0.48691">
        <ele>1989</ele>
        <time>2020-02-01T12:45:40.000Z</time>
      </trkpt>
      <trkpt lat="42.84557" lon="0.48691">
        <ele>1989</ele>
        <time>2020-02-01T12:45:41.000Z</time>
      </trkpt>
      <trkpt lat="42.84558" lon="0.48691">
        <ele>1989</ele>
        <time>2020-02-01T12:45:42.000Z</time>
      </trkpt>
      <trkpt lat="42.84558" lon="0.48691">
        <ele>1989</ele>
        <time>2020-02-01T12:45:43.000Z</time>
      </trkpt>
      <trkpt lat="42.84559" lon="0.48691">
        <ele>1989.5</ele>
        <time>2020-02-01T12:45:44.000Z</time>
      </trkpt>
      <trkpt lat="42.84559" lon="0.4869">
        <ele>1990</ele>
        <time>2020-02-01T12:45:45.000Z</time>
      </trkpt>
      <trkpt lat="42.84559" lon="0.4869">
        <ele>1990</ele>
        <time>2020-02-01T12:45:46.000Z</time>
      </trkpt>
      <trkpt lat="42.84559" lon="0.4869">
        <ele>1990</ele>
        <time>2020-02-01T12:45:47.000Z</time>
      </trkpt>
      <trkpt lat="42.84559" lon="0.4869">
        <ele>1990</ele>
        <time>2020-02-01T12:45:48.000Z</time>
      </trkpt>
      <trkpt lat="42.84559" lon="0.4869">
        <ele>1990</ele>
        <time>2020-02-01T12:45:49.000Z</time>
      </trkpt>
      <trkpt lat="42.84559" lon="0.4869">
        <ele>1990</ele>
        <time>2020-02-01T12:45:50.000Z</time>
      </trkpt>
      <trkpt lat="42.84559" lon="0.4869">
        <ele>1990</ele>
        <time>2020-02-01T12:45:51.000Z</time>
      </trkpt>
      <trkpt lat="42.84559" lon="0.4869">
        <ele>1990</ele>
        <time>2020-02-01T12:45:52.000Z</time>
      </trkpt>
      <trkpt lat="42.84559" lon="0.4869">
        <ele>1990</ele>
        <time>2020-02-01T12:45:53.000Z</time>
      </trkpt>
      <trkpt lat="42.84559" lon="0.4869">
        <ele>1990</ele>
        <time>2020-02-01T12:45:54.000Z</time>
      </trkpt>
      <trkpt lat="42.84559" lon="0.4869">
        <ele>1990</ele>
        <time>2020-02-01T12:45:55.000Z</time>
      </trkpt>
      <trkpt lat="42.84559" lon="0.4869">
        <ele>1990</ele>
        <time>2020-02-01T12:45:56.000Z</time>
      </trkpt>
      <trkpt lat="42.84559" lon="0.4869">
        <ele>1990</ele>
        <time>2020-02-01T12:45:57.000Z</time>
      </trkpt>
      <trkpt lat="42.8456" lon="0.4869">
        <ele>1989.5</ele>
        <time>2020-02-01T12:45:58.000Z</time>
      </trkpt>
      <trkpt lat="42.8456" lon="0.48689">
        <ele>1989</ele>
        <time>2020-02-01T12:45:59.000Z</time>
      </trkpt>
      <trkpt lat="42.84561" lon="0.48689">
        <ele>1989</ele>
        <time>2020-02-01T12:46:00.000Z</time>
      </trkpt>
      <trkpt lat="42.84561" lon="0.48688">
        <ele>1989</ele>
        <time>2020-02-01T12:46:01.000Z</time>
      </trkpt>
      <trkpt lat="42.84562" lon="0.48688">
        <ele>1989.5</ele>
        <time>2020-02-01T12:46:02.000Z</time>
      </trkpt>
      <trkpt lat="42.84562" lon="0.48688">
        <ele>1990</ele>
        <time>2020-02-01T12:46:03.000Z</time>
      </trkpt>
      <trkpt lat="42.84562" lon="0.48688">
        <ele>1989.5</ele>
        <time>2020-02-01T12:46:04.000Z</time>
      </trkpt>
      <trkpt lat="42.84562" lon="0.48687">
        <ele>1989</ele>
        <time>2020-02-01T12:46:05.000Z</time>
      </trkpt>
      <trkpt lat="42.84563" lon="0.48687">
        <ele>1989</ele>
        <time>2020-02-01T12:46:06.000Z</time>
      </trkpt>
      <trkpt lat="42.84563" lon="0.48687">
        <ele>1988.7</ele>
        <time>2020-02-01T12:46:07.000Z</time>
      </trkpt>
      <trkpt lat="42.84563" lon="0.48687">
        <ele>1988.3</ele>
        <time>2020-02-01T12:46:08.000Z</time>
      </trkpt>
      <trkpt lat="42.84563" lon="0.48687">
        <ele>1988</ele>
        <time>2020-02-01T12:46:09.000Z</time>
      </trkpt>
      <trkpt lat="42.84563" lon="0.48687">
        <ele>1988.5</ele>
        <time>2020-02-01T12:46:10.000Z</time>
      </trkpt>
      <trkpt lat="42.84563" lon="0.48687">
        <ele>1989</ele>
        <time>2020-02-01T12:46:11.000Z</time>
      </trkpt>
      <trkpt lat="42.84563" lon="0.48687">
        <ele>1989</ele>
        <time>2020-02-01T12:46:12.000Z</time>
      </trkpt>
      <trkpt lat="42.84563" lon="0.48687">
        <ele>1989</ele>
        <time>2020-02-01T12:46:13.000Z</time>
      </trkpt>
      <trkpt lat="42.84563" lon="0.48687">
        <ele>1989</ele>
        <time>2020-02-01T12:46:14.000Z</time>
      </trkpt>
      <trkpt lat="42.84563" lon="0.48687">
        <ele>1989</ele>
        <time>2020-02-01T12:46:15.000Z</time>
      </trkpt>
      <trkpt lat="42.84563" lon="0.48687">
        <ele>1989</ele>
        <time>2020-02-01T12:46:16.000Z</time>
      </trkpt>
      <trkpt lat="42.84563" lon="0.48687">
        <ele>1989</ele>
        <time>2020-02-01T12:46:17.000Z</time>
      </trkpt>
      <trkpt lat="42.84563" lon="0.48687">
        <ele>1988</ele>
        <time>2020-02-01T12:46:18.000Z</time>
      </trkpt>
      <trkpt lat="42.84563" lon="0.48687">
        <ele>1988</ele>
        <time>2020-02-01T12:46:19.000Z</time>
      </trkpt>
      <trkpt lat="42.84563" lon="0.48687">
        <ele>1988</ele>
        <time>2020-02-01T12:46:20.000Z</time>
      </trkpt>
      <trkpt lat="42.84563" lon="0.48687">
        <ele>1988</ele>
        <time>2020-02-01T12:46:21.000Z</time>
      </trkpt>
      <trkpt lat="42.84563" lon="0.48687">
        <ele>1987.5</ele>
        <time>2020-02-01T12:46:22.000Z</time>
      </trkpt>
      <trkpt lat="42.84563" lon="0.48687">
        <ele>1987</ele>
        <time>2020-02-01T12:46:23.000Z</time>
      </trkpt>
      <trkpt lat="42.84563" lon="0.48687">
        <ele>1988</ele>
        <time>2020-02-01T12:46:24.000Z</time>
      </trkpt>
      <trkpt lat="42.84563" lon="0.48687">
        <ele>1988</ele>
        <time>2020-02-01T12:46:25.000Z</time>
      </trkpt>
      <trkpt lat="42.84563" lon="0.48687">
        <ele>1988</ele>
        <time>2020-02-01T12:46:26.000Z</time>
      </trkpt>
      <trkpt lat="42.84563" lon="0.48687">
        <ele>1988</ele>
        <time>2020-02-01T12:46:27.000Z</time>
      </trkpt>
      <trkpt lat="42.84563" lon="0.48687">
        <ele>1988</ele>
        <time>2020-02-01T12:46:28.000Z</time>
      </trkpt>
      <trkpt lat="42.84563" lon="0.48687">
        <ele>1988.5</ele>
        <time>2020-02-01T12:46:29.000Z</time>
      </trkpt>
      <trkpt lat="42.84563" lon="0.48687">
        <ele>1989</ele>
        <time>2020-02-01T12:46:30.000Z</time>
      </trkpt>
      <trkpt lat="42.84563" lon="0.48687">
        <ele>1989</ele>
        <time>2020-02-01T12:46:31.000Z</time>
      </trkpt>
      <trkpt lat="42.84563" lon="0.48687">
        <ele>1989</ele>
        <time>2020-02-01T12:46:32.000Z</time>
      </trkpt>
      <trkpt lat="42.84563" lon="0.48687">
        <ele>1989</ele>
        <time>2020-02-01T12:46:33.000Z</time>
      </trkpt>
      <trkpt lat="42.84563" lon="0.48687">
        <ele>1988.5</ele>
        <time>2020-02-01T12:46:34.000Z</time>
      </trkpt>
      <trkpt lat="42.84563" lon="0.48687">
        <ele>1988</ele>
        <time>2020-02-01T12:46:35.000Z</time>
      </trkpt>
      <trkpt lat="42.84563" lon="0.48687">
        <ele>1988</ele>
        <time>2020-02-01T12:46:36.000Z</time>
      </trkpt>
      <trkpt lat="42.84563" lon="0.48687">
        <ele>1988.3</ele>
        <time>2020-02-01T12:46:37.000Z</time>
      </trkpt>
      <trkpt lat="42.84563" lon="0.48687">
        <ele>1988.7</ele>
        <time>2020-02-01T12:46:38.000Z</time>
      </trkpt>
      <trkpt lat="42.84563" lon="0.48687">
        <ele>1989</ele>
        <time>2020-02-01T12:46:39.000Z</time>
      </trkpt>
      <trkpt lat="42.84563" lon="0.48687">
        <ele>1989</ele>
        <time>2020-02-01T12:46:40.000Z</time>
      </trkpt>
      <trkpt lat="42.84563" lon="0.48686">
        <ele>1989</ele>
        <time>2020-02-01T12:46:41.000Z</time>
      </trkpt>
      <trkpt lat="42.84563" lon="0.48686">
        <ele>1989</ele>
        <time>2020-02-01T12:46:42.000Z</time>
      </trkpt>
      <trkpt lat="42.84564" lon="0.48686">
        <ele>1989</ele>
        <time>2020-02-01T12:46:43.000Z</time>
      </trkpt>
      <trkpt lat="42.84564" lon="0.48686">
        <ele>1988.5</ele>
        <time>2020-02-01T12:46:44.000Z</time>
      </trkpt>
      <trkpt lat="42.84564" lon="0.48686">
        <ele>1988</ele>
        <time>2020-02-01T12:46:45.000Z</time>
      </trkpt>
      <trkpt lat="42.84564" lon="0.48686">
        <ele>1988</ele>
        <time>2020-02-01T12:46:46.000Z</time>
      </trkpt>
      <trkpt lat="42.84564" lon="0.48686">
        <ele>1988</ele>
        <time>2020-02-01T12:46:47.000Z</time>
      </trkpt>
      <trkpt lat="42.84564" lon="0.48686">
        <ele>1988</ele>
        <time>2020-02-01T12:46:48.000Z</time>
      </trkpt>
      <trkpt lat="42.84564" lon="0.48686">
        <ele>1988</ele>
        <time>2020-02-01T12:46:49.000Z</time>
      </trkpt>
      <trkpt lat="42.84564" lon="0.48686">
        <ele>1988</ele>
        <time>2020-02-01T12:46:50.000Z</time>
      </trkpt>
      <trkpt lat="42.84564" lon="0.48686">
        <ele>1988</ele>
        <time>2020-02-01T12:46:51.000Z</time>
      </trkpt>
      <trkpt lat="42.84564" lon="0.48685">
        <ele>1988</ele>
        <time>2020-02-01T12:46:52.000Z</time>
      </trkpt>
      <trkpt lat="42.84563" lon="0.48685">
        <ele>1988</ele>
        <time>2020-02-01T12:46:53.000Z</time>
      </trkpt>
      <trkpt lat="42.84563" lon="0.48685">
        <ele>1988.5</ele>
        <time>2020-02-01T12:46:54.000Z</time>
      </trkpt>
      <trkpt lat="42.84563" lon="0.48685">
        <ele>1989</ele>
        <time>2020-02-01T12:46:55.000Z</time>
      </trkpt>
      <trkpt lat="42.84563" lon="0.48685">
        <ele>1989</ele>
        <time>2020-02-01T12:46:56.000Z</time>
      </trkpt>
      <trkpt lat="42.84563" lon="0.48685">
        <ele>1989</ele>
        <time>2020-02-01T12:46:57.000Z</time>
      </trkpt>
      <trkpt lat="42.84563" lon="0.48685">
        <ele>1988</ele>
        <time>2020-02-01T12:46:58.000Z</time>
      </trkpt>
      <trkpt lat="42.84563" lon="0.48685">
        <ele>1988</ele>
        <time>2020-02-01T12:46:59.000Z</time>
      </trkpt>
      <trkpt lat="42.84564" lon="0.48685">
        <ele>1988</ele>
        <time>2020-02-01T12:47:00.000Z</time>
      </trkpt>
      <trkpt lat="42.84564" lon="0.48685">
        <ele>1988</ele>
        <time>2020-02-01T12:47:01.000Z</time>
      </trkpt>
      <trkpt lat="42.84564" lon="0.48685">
        <ele>1988</ele>
        <time>2020-02-01T12:47:02.000Z</time>
      </trkpt>
      <trkpt lat="42.84564" lon="0.48685">
        <ele>1988</ele>
        <time>2020-02-01T12:47:03.000Z</time>
      </trkpt>
      <trkpt lat="42.84564" lon="0.48686">
        <ele>1988</ele>
        <time>2020-02-01T12:47:04.000Z</time>
      </trkpt>
      <trkpt lat="42.84564" lon="0.48686">
        <ele>1988</ele>
        <time>2020-02-01T12:47:05.000Z</time>
      </trkpt>
      <trkpt lat="42.84564" lon="0.48686">
        <ele>1988</ele>
        <time>2020-02-01T12:47:06.000Z</time>
      </trkpt>
      <trkpt lat="42.84564" lon="0.48686">
        <ele>1988</ele>
        <time>2020-02-01T12:47:07.000Z</time>
      </trkpt>
      <trkpt lat="42.84564" lon="0.48686">
        <ele>1988</ele>
        <time>2020-02-01T12:47:08.000Z</time>
      </trkpt>
      <trkpt lat="42.84564" lon="0.48686">
        <ele>1988</ele>
        <time>2020-02-01T12:47:09.000Z</time>
      </trkpt>
      <trkpt lat="42.84564" lon="0.48686">
        <ele>1988</ele>
        <time>2020-02-01T12:47:10.000Z</time>
      </trkpt>
      <trkpt lat="42.84564" lon="0.48686">
        <ele>1987.7</ele>
        <time>2020-02-01T12:47:11.000Z</time>
      </trkpt>
      <trkpt lat="42.84564" lon="0.48686">
        <ele>1987.3</ele>
        <time>2020-02-01T12:47:12.000Z</time>
      </trkpt>
      <trkpt lat="42.84564" lon="0.48686">
        <ele>1987</ele>
        <time>2020-02-01T12:47:13.000Z</time>
      </trkpt>
      <trkpt lat="42.84564" lon="0.48686">
        <ele>1987.5</ele>
        <time>2020-02-01T12:47:14.000Z</time>
      </trkpt>
      <trkpt lat="42.84564" lon="0.48686">
        <ele>1988</ele>
        <time>2020-02-01T12:47:15.000Z</time>
      </trkpt>
      <trkpt lat="42.84564" lon="0.48686">
        <ele>1988</ele>
        <time>2020-02-01T12:47:16.000Z</time>
      </trkpt>
      <trkpt lat="42.84564" lon="0.48686">
        <ele>1988</ele>
        <time>2020-02-01T12:47:17.000Z</time>
      </trkpt>
      <trkpt lat="42.84564" lon="0.48686">
        <ele>1988</ele>
        <time>2020-02-01T12:47:18.000Z</time>
      </trkpt>
      <trkpt lat="42.84564" lon="0.48686">
        <ele>1988</ele>
        <time>2020-02-01T12:47:19.000Z</time>
      </trkpt>
      <trkpt lat="42.84564" lon="0.48686">
        <ele>1988</ele>
        <time>2020-02-01T12:47:20.000Z</time>
      </trkpt>
      <trkpt lat="42.84564" lon="0.48686">
        <ele>1988</ele>
        <time>2020-02-01T12:47:21.000Z</time>
      </trkpt>
      <trkpt lat="42.84564" lon="0.48686">
        <ele>1988</ele>
        <time>2020-02-01T12:47:22.000Z</time>
      </trkpt>
      <trkpt lat="42.84564" lon="0.48686">
        <ele>1988</ele>
        <time>2020-02-01T12:47:23.000Z</time>
      </trkpt>
      <trkpt lat="42.84564" lon="0.48686">
        <ele>1988</ele>
        <time>2020-02-01T12:47:24.000Z</time>
      </trkpt>
      <trkpt lat="42.84564" lon="0.48686">
        <ele>1988</ele>
        <time>2020-02-01T12:47:25.000Z</time>
      </trkpt>
      <trkpt lat="42.84564" lon="0.48686">
        <ele>1988</ele>
        <time>2020-02-01T12:47:26.000Z</time>
      </trkpt>
      <trkpt lat="42.84564" lon="0.48686">
        <ele>1988</ele>
        <time>2020-02-01T12:47:27.000Z</time>
      </trkpt>
      <trkpt lat="42.84564" lon="0.48686">
        <ele>1988</ele>
        <time>2020-02-01T12:47:28.000Z</time>
      </trkpt>
      <trkpt lat="42.84564" lon="0.48686">
        <ele>1988</ele>
        <time>2020-02-01T12:47:29.000Z</time>
      </trkpt>
      <trkpt lat="42.84564" lon="0.48686">
        <ele>1988</ele>
        <time>2020-02-01T12:47:30.000Z</time>
      </trkpt>
      <trkpt lat="42.84564" lon="0.48686">
        <ele>1988</ele>
        <time>2020-02-01T12:47:31.000Z</time>
      </trkpt>
      <trkpt lat="42.84564" lon="0.48686">
        <ele>1988</ele>
        <time>2020-02-01T12:47:32.000Z</time>
      </trkpt>
      <trkpt lat="42.84564" lon="0.48686">
        <ele>1988</ele>
        <time>2020-02-01T12:47:33.000Z</time>
      </trkpt>
      <trkpt lat="42.84564" lon="0.48686">
        <ele>1988</ele>
        <time>2020-02-01T12:47:34.000Z</time>
      </trkpt>
      <trkpt lat="42.84564" lon="0.48686">
        <ele>1988</ele>
        <time>2020-02-01T12:47:35.000Z</time>
      </trkpt>
      <trkpt lat="42.84564" lon="0.48686">
        <ele>1988</ele>
        <time>2020-02-01T12:47:36.000Z</time>
      </trkpt>
      <trkpt lat="42.84564" lon="0.48686">
        <ele>1988</ele>
        <time>2020-02-01T12:47:37.000Z</time>
      </trkpt>
      <trkpt lat="42.84564" lon="0.48686">
        <ele>1988</ele>
        <time>2020-02-01T12:47:38.000Z</time>
      </trkpt>
      <trkpt lat="42.84564" lon="0.48686">
        <ele>1988</ele>
        <time>2020-02-01T12:47:39.000Z</time>
      </trkpt>
      <trkpt lat="42.84564" lon="0.48686">
        <ele>1988</ele>
        <time>2020-02-01T12:47:40.000Z</time>
      </trkpt>
      <trkpt lat="42.84564" lon="0.48686">
        <ele>1988</ele>
        <time>2020-02-01T12:47:41.000Z</time>
      </trkpt>
      <trkpt lat="42.84564" lon="0.48686">
        <ele>1988</ele>
        <time>2020-02-01T12:47:42.000Z</time>
      </trkpt>
      <trkpt lat="42.84564" lon="0.48686">
        <ele>1988</ele>
        <time>2020-02-01T12:47:43.000Z</time>
      </trkpt>
      <trkpt lat="42.84564" lon="0.48686">
        <ele>1988</ele>
        <time>2020-02-01T12:47:44.000Z</time>
      </trkpt>
      <trkpt lat="42.84564" lon="0.48686">
        <ele>1988</ele>
        <time>2020-02-01T12:47:45.000Z</time>
      </trkpt>
      <trkpt lat="42.84564" lon="0.48686">
        <ele>1988</ele>
        <time>2020-02-01T12:47:46.000Z</time>
      </trkpt>
      <trkpt lat="42.84564" lon="0.48686">
        <ele>1988</ele>
        <time>2020-02-01T12:47:47.000Z</time>
      </trkpt>
      <trkpt lat="42.84564" lon="0.48686">
        <ele>1988</ele>
        <time>2020-02-01T12:47:48.000Z</time>
      </trkpt>
      <trkpt lat="42.84564" lon="0.48686">
        <ele>1988</ele>
        <time>2020-02-01T12:47:49.000Z</time>
      </trkpt>
      <trkpt lat="42.84564" lon="0.48686">
        <ele>1988</ele>
        <time>2020-02-01T12:47:50.000Z</time>
      </trkpt>
      <trkpt lat="42.84564" lon="0.48686">
        <ele>1988</ele>
        <time>2020-02-01T12:47:51.000Z</time>
      </trkpt>
      <trkpt lat="42.84564" lon="0.48686">
        <ele>1988</ele>
        <time>2020-02-01T12:47:52.000Z</time>
      </trkpt>
      <trkpt lat="42.84564" lon="0.48686">
        <ele>1988</ele>
        <time>2020-02-01T12:47:53.000Z</time>
      </trkpt>
      <trkpt lat="42.84564" lon="0.48686">
        <ele>1988</ele>
        <time>2020-02-01T12:47:54.000Z</time>
      </trkpt>
      <trkpt lat="42.84564" lon="0.48686">
        <ele>1988</ele>
        <time>2020-02-01T12:47:55.000Z</time>
      </trkpt>
      <trkpt lat="42.84564" lon="0.48686">
        <ele>1988</ele>
        <time>2020-02-01T12:47:56.000Z</time>
      </trkpt>
      <trkpt lat="42.84564" lon="0.48686">
        <ele>1988</ele>
        <time>2020-02-01T12:47:57.000Z</time>
      </trkpt>
      <trkpt lat="42.84564" lon="0.48686">
        <ele>1988</ele>
        <time>2020-02-01T12:47:58.000Z</time>
      </trkpt>
      <trkpt lat="42.84564" lon="0.48686">
        <ele>1988.5</ele>
        <time>2020-02-01T12:47:59.000Z</time>
      </trkpt>
      <trkpt lat="42.84564" lon="0.48686">
        <ele>1989</ele>
        <time>2020-02-01T12:48:00.000Z</time>
      </trkpt>
      <trkpt lat="42.84564" lon="0.48686">
        <ele>1989</ele>
        <time>2020-02-01T12:48:01.000Z</time>
      </trkpt>
      <trkpt lat="42.84564" lon="0.48686">
        <ele>1989</ele>
        <time>2020-02-01T12:48:02.000Z</time>
      </trkpt>
      <trkpt lat="42.84564" lon="0.48686">
        <ele>1989</ele>
        <time>2020-02-01T12:48:03.000Z</time>
      </trkpt>
      <trkpt lat="42.84564" lon="0.48686">
        <ele>1989</ele>
        <time>2020-02-01T12:48:04.000Z</time>
      </trkpt>
      <trkpt lat="42.84564" lon="0.48686">
        <ele>1989</ele>
        <time>2020-02-01T12:48:05.000Z</time>
      </trkpt>
      <trkpt lat="42.84564" lon="0.48686">
        <ele>1989</ele>
        <time>2020-02-01T12:48:06.000Z</time>
      </trkpt>
      <trkpt lat="42.84564" lon="0.48686">
        <ele>1989</ele>
        <time>2020-02-01T12:48:07.000Z</time>
      </trkpt>
      <trkpt lat="42.84564" lon="0.48686">
        <ele>1989</ele>
        <time>2020-02-01T12:48:08.000Z</time>
      </trkpt>
      <trkpt lat="42.84564" lon="0.48686">
        <ele>1989</ele>
        <time>2020-02-01T12:48:09.000Z</time>
      </trkpt>
      <trkpt lat="42.84564" lon="0.48685">
        <ele>1989</ele>
        <time>2020-02-01T12:48:10.000Z</time>
      </trkpt>
      <trkpt lat="42.84564" lon="0.48685">
        <ele>1988.7</ele>
        <time>2020-02-01T12:48:11.000Z</time>
      </trkpt>
      <trkpt lat="42.84564" lon="0.48685">
        <ele>1988.3</ele>
        <time>2020-02-01T12:48:12.000Z</time>
      </trkpt>
      <trkpt lat="42.84564" lon="0.48685">
        <ele>1988</ele>
        <time>2020-02-01T12:48:13.000Z</time>
      </trkpt>
      <trkpt lat="42.84565" lon="0.48685">
        <ele>1988</ele>
        <time>2020-02-01T12:48:14.000Z</time>
      </trkpt>
      <trkpt lat="42.84565" lon="0.48685">
        <ele>1988</ele>
        <time>2020-02-01T12:48:15.000Z</time>
      </trkpt>
      <trkpt lat="42.84565" lon="0.48685">
        <ele>1988</ele>
        <time>2020-02-01T12:48:16.000Z</time>
      </trkpt>
      <trkpt lat="42.84565" lon="0.48685">
        <ele>1988</ele>
        <time>2020-02-01T12:48:17.000Z</time>
      </trkpt>
      <trkpt lat="42.84565" lon="0.48685">
        <ele>1988</ele>
        <time>2020-02-01T12:48:18.000Z</time>
      </trkpt>
      <trkpt lat="42.84565" lon="0.48685">
        <ele>1988</ele>
        <time>2020-02-01T12:48:19.000Z</time>
      </trkpt>
      <trkpt lat="42.84565" lon="0.48685">
        <ele>1988</ele>
        <time>2020-02-01T12:48:20.000Z</time>
      </trkpt>
      <trkpt lat="42.84565" lon="0.48685">
        <ele>1988</ele>
        <time>2020-02-01T12:48:21.000Z</time>
      </trkpt>
      <trkpt lat="42.84565" lon="0.48685">
        <ele>1988</ele>
        <time>2020-02-01T12:48:22.000Z</time>
      </trkpt>
      <trkpt lat="42.84565" lon="0.48685">
        <ele>1987.7</ele>
        <time>2020-02-01T12:48:23.000Z</time>
      </trkpt>
      <trkpt lat="42.84565" lon="0.48684">
        <ele>1987.3</ele>
        <time>2020-02-01T12:48:24.000Z</time>
      </trkpt>
      <trkpt lat="42.84565" lon="0.48684">
        <ele>1987</ele>
        <time>2020-02-01T12:48:25.000Z</time>
      </trkpt>
      <trkpt lat="42.84565" lon="0.48684">
        <ele>1987</ele>
        <time>2020-02-01T12:48:26.000Z</time>
      </trkpt>
      <trkpt lat="42.84565" lon="0.48684">
        <ele>1987</ele>
        <time>2020-02-01T12:48:27.000Z</time>
      </trkpt>
      <trkpt lat="42.84565" lon="0.48684">
        <ele>1987</ele>
        <time>2020-02-01T12:48:28.000Z</time>
      </trkpt>
      <trkpt lat="42.84565" lon="0.48684">
        <ele>1987</ele>
        <time>2020-02-01T12:48:29.000Z</time>
      </trkpt>
      <trkpt lat="42.84565" lon="0.48684">
        <ele>1987</ele>
        <time>2020-02-01T12:48:30.000Z</time>
      </trkpt>
      <trkpt lat="42.84566" lon="0.48684">
        <ele>1987</ele>
        <time>2020-02-01T12:48:31.000Z</time>
      </trkpt>
      <trkpt lat="42.84566" lon="0.48684">
        <ele>1987</ele>
        <time>2020-02-01T12:48:32.000Z</time>
      </trkpt>
      <trkpt lat="42.84566" lon="0.48684">
        <ele>1987</ele>
        <time>2020-02-01T12:48:33.000Z</time>
      </trkpt>
      <trkpt lat="42.84566" lon="0.48684">
        <ele>1987</ele>
        <time>2020-02-01T12:48:34.000Z</time>
      </trkpt>
      <trkpt lat="42.84566" lon="0.48684">
        <ele>1987</ele>
        <time>2020-02-01T12:48:35.000Z</time>
      </trkpt>
      <trkpt lat="42.84566" lon="0.48684">
        <ele>1987</ele>
        <time>2020-02-01T12:48:36.000Z</time>
      </trkpt>
      <trkpt lat="42.84566" lon="0.48684">
        <ele>1987</ele>
        <time>2020-02-01T12:48:37.000Z</time>
      </trkpt>
      <trkpt lat="42.84566" lon="0.48684">
        <ele>1987</ele>
        <time>2020-02-01T12:48:38.000Z</time>
      </trkpt>
      <trkpt lat="42.84566" lon="0.48684">
        <ele>1987</ele>
        <time>2020-02-01T12:48:39.000Z</time>
      </trkpt>
      <trkpt lat="42.84566" lon="0.48684">
        <ele>1986</ele>
        <time>2020-02-01T12:48:40.000Z</time>
      </trkpt>
      <trkpt lat="42.84566" lon="0.48684">
        <ele>1986</ele>
        <time>2020-02-01T12:48:41.000Z</time>
      </trkpt>
      <trkpt lat="42.84566" lon="0.48684">
        <ele>1986</ele>
        <time>2020-02-01T12:48:42.000Z</time>
      </trkpt>
      <trkpt lat="42.84566" lon="0.48684">
        <ele>1986</ele>
        <time>2020-02-01T12:48:43.000Z</time>
      </trkpt>
      <trkpt lat="42.84566" lon="0.48684">
        <ele>1986</ele>
        <time>2020-02-01T12:48:44.000Z</time>
      </trkpt>
      <trkpt lat="42.84566" lon="0.48684">
        <ele>1986.3</ele>
        <time>2020-02-01T12:48:45.000Z</time>
      </trkpt>
      <trkpt lat="42.84566" lon="0.48684">
        <ele>1986.7</ele>
        <time>2020-02-01T12:48:46.000Z</time>
      </trkpt>
      <trkpt lat="42.84566" lon="0.48684">
        <ele>1987</ele>
        <time>2020-02-01T12:48:47.000Z</time>
      </trkpt>
      <trkpt lat="42.84566" lon="0.48684">
        <ele>1987</ele>
        <time>2020-02-01T12:48:48.000Z</time>
      </trkpt>
      <trkpt lat="42.84566" lon="0.48684">
        <ele>1987</ele>
        <time>2020-02-01T12:48:49.000Z</time>
      </trkpt>
      <trkpt lat="42.84566" lon="0.48684">
        <ele>1987</ele>
        <time>2020-02-01T12:48:50.000Z</time>
      </trkpt>
      <trkpt lat="42.84566" lon="0.48684">
        <ele>1987</ele>
        <time>2020-02-01T12:48:51.000Z</time>
      </trkpt>
      <trkpt lat="42.84566" lon="0.48684">
        <ele>1987</ele>
        <time>2020-02-01T12:48:52.000Z</time>
      </trkpt>
      <trkpt lat="42.84566" lon="0.48684">
        <ele>1987</ele>
        <time>2020-02-01T12:48:53.000Z</time>
      </trkpt>
      <trkpt lat="42.84566" lon="0.48684">
        <ele>1987</ele>
        <time>2020-02-01T12:48:54.000Z</time>
      </trkpt>
      <trkpt lat="42.84566" lon="0.48684">
        <ele>1987</ele>
        <time>2020-02-01T12:48:55.000Z</time>
      </trkpt>
      <trkpt lat="42.84566" lon="0.48684">
        <ele>1987</ele>
        <time>2020-02-01T12:48:56.000Z</time>
      </trkpt>
      <trkpt lat="42.84566" lon="0.48684">
        <ele>1987</ele>
        <time>2020-02-01T12:48:57.000Z</time>
      </trkpt>
      <trkpt lat="42.84566" lon="0.48684">
        <ele>1987</ele>
        <time>2020-02-01T12:48:58.000Z</time>
      </trkpt>
      <trkpt lat="42.84566" lon="0.48684">
        <ele>1987</ele>
        <time>2020-02-01T12:48:59.000Z</time>
      </trkpt>
      <trkpt lat="42.84566" lon="0.48684">
        <ele>1987</ele>
        <time>2020-02-01T12:49:00.000Z</time>
      </trkpt>
      <trkpt lat="42.84566" lon="0.48684">
        <ele>1987</ele>
        <time>2020-02-01T12:49:01.000Z</time>
      </trkpt>
      <trkpt lat="42.84566" lon="0.48684">
        <ele>1987</ele>
        <time>2020-02-01T12:49:02.000Z</time>
      </trkpt>
      <trkpt lat="42.84566" lon="0.48684">
        <ele>1987</ele>
        <time>2020-02-01T12:49:03.000Z</time>
      </trkpt>
      <trkpt lat="42.84566" lon="0.48684">
        <ele>1987</ele>
        <time>2020-02-01T12:49:04.000Z</time>
      </trkpt>
      <trkpt lat="42.84566" lon="0.48684">
        <ele>1987</ele>
        <time>2020-02-01T12:49:05.000Z</time>
      </trkpt>
      <trkpt lat="42.84566" lon="0.48684">
        <ele>1987</ele>
        <time>2020-02-01T12:49:06.000Z</time>
      </trkpt>
      <trkpt lat="42.84566" lon="0.48684">
        <ele>1987</ele>
        <time>2020-02-01T12:49:07.000Z</time>
      </trkpt>
      <trkpt lat="42.84566" lon="0.48684">
        <ele>1987</ele>
        <time>2020-02-01T12:49:08.000Z</time>
      </trkpt>
      <trkpt lat="42.84566" lon="0.48684">
        <ele>1987</ele>
        <time>2020-02-01T12:49:09.000Z</time>
      </trkpt>
      <trkpt lat="42.84566" lon="0.48684">
        <ele>1987</ele>
        <time>2020-02-01T12:49:10.000Z</time>
      </trkpt>
      <trkpt lat="42.84566" lon="0.48684">
        <ele>1987</ele>
        <time>2020-02-01T12:49:11.000Z</time>
      </trkpt>
      <trkpt lat="42.84566" lon="0.48684">
        <ele>1987</ele>
        <time>2020-02-01T12:49:12.000Z</time>
      </trkpt>
      <trkpt lat="42.84566" lon="0.48684">
        <ele>1987</ele>
        <time>2020-02-01T12:49:13.000Z</time>
      </trkpt>
      <trkpt lat="42.84566" lon="0.48684">
        <ele>1987</ele>
        <time>2020-02-01T12:49:14.000Z</time>
      </trkpt>
      <trkpt lat="42.84565" lon="0.48684">
        <ele>1987</ele>
        <time>2020-02-01T12:49:15.000Z</time>
      </trkpt>
      <trkpt lat="42.84565" lon="0.48684">
        <ele>1987</ele>
        <time>2020-02-01T12:49:16.000Z</time>
      </trkpt>
      <trkpt lat="42.84565" lon="0.48683">
        <ele>1987</ele>
        <time>2020-02-01T12:49:17.000Z</time>
      </trkpt>
      <trkpt lat="42.84565" lon="0.48683">
        <ele>1987</ele>
        <time>2020-02-01T12:49:18.000Z</time>
      </trkpt>
      <trkpt lat="42.84565" lon="0.48682">
        <ele>1987</ele>
        <time>2020-02-01T12:49:19.000Z</time>
      </trkpt>
      <trkpt lat="42.84565" lon="0.48682">
        <ele>1988</ele>
        <time>2020-02-01T12:49:20.000Z</time>
      </trkpt>
      <trkpt lat="42.84565" lon="0.48682">
        <ele>1988.3</ele>
        <time>2020-02-01T12:49:21.000Z</time>
      </trkpt>
      <trkpt lat="42.84565" lon="0.48681">
        <ele>1988.7</ele>
        <time>2020-02-01T12:49:22.000Z</time>
      </trkpt>
      <trkpt lat="42.84565" lon="0.48681">
        <ele>1989</ele>
        <time>2020-02-01T12:49:23.000Z</time>
      </trkpt>
      <trkpt lat="42.84564" lon="0.48681">
        <ele>1989</ele>
        <time>2020-02-01T12:49:24.000Z</time>
      </trkpt>
      <trkpt lat="42.84564" lon="0.48681">
        <ele>1989</ele>
        <time>2020-02-01T12:49:25.000Z</time>
      </trkpt>
      <trkpt lat="42.84564" lon="0.48681">
        <ele>1989</ele>
        <time>2020-02-01T12:49:26.000Z</time>
      </trkpt>
      <trkpt lat="42.84564" lon="0.48681">
        <ele>1989</ele>
        <time>2020-02-01T12:49:27.000Z</time>
      </trkpt>
      <trkpt lat="42.84564" lon="0.48681">
        <ele>1989</ele>
        <time>2020-02-01T12:49:28.000Z</time>
      </trkpt>
      <trkpt lat="42.84564" lon="0.48681">
        <ele>1989</ele>
        <time>2020-02-01T12:49:29.000Z</time>
      </trkpt>
      <trkpt lat="42.84564" lon="0.48681">
        <ele>1989</ele>
        <time>2020-02-01T12:49:30.000Z</time>
      </trkpt>
      <trkpt lat="42.84564" lon="0.48681">
        <ele>1989</ele>
        <time>2020-02-01T12:49:31.000Z</time>
      </trkpt>
      <trkpt lat="42.84564" lon="0.48681">
        <ele>1989</ele>
        <time>2020-02-01T12:49:32.000Z</time>
      </trkpt>
      <trkpt lat="42.84564" lon="0.48681">
        <ele>1989</ele>
        <time>2020-02-01T12:49:33.000Z</time>
      </trkpt>
      <trkpt lat="42.84564" lon="0.48681">
        <ele>1989</ele>
        <time>2020-02-01T12:49:34.000Z</time>
      </trkpt>
      <trkpt lat="42.84564" lon="0.48681">
        <ele>1989</ele>
        <time>2020-02-01T12:49:35.000Z</time>
      </trkpt>
      <trkpt lat="42.84564" lon="0.48681">
        <ele>1989</ele>
        <time>2020-02-01T12:49:36.000Z</time>
      </trkpt>
      <trkpt lat="42.84564" lon="0.48681">
        <ele>1989</ele>
        <time>2020-02-01T12:49:37.000Z</time>
      </trkpt>
      <trkpt lat="42.84564" lon="0.48681">
        <ele>1989</ele>
        <time>2020-02-01T12:49:38.000Z</time>
      </trkpt>
      <trkpt lat="42.84564" lon="0.48681">
        <ele>1989</ele>
        <time>2020-02-01T12:49:39.000Z</time>
      </trkpt>
      <trkpt lat="42.84564" lon="0.48681">
        <ele>1989</ele>
        <time>2020-02-01T12:49:40.000Z</time>
      </trkpt>
      <trkpt lat="42.84564" lon="0.48681">
        <ele>1989</ele>
        <time>2020-02-01T12:49:41.000Z</time>
      </trkpt>
      <trkpt lat="42.84564" lon="0.48681">
        <ele>1989</ele>
        <time>2020-02-01T12:49:42.000Z</time>
      </trkpt>
      <trkpt lat="42.84564" lon="0.48681">
        <ele>1989</ele>
        <time>2020-02-01T12:49:43.000Z</time>
      </trkpt>
      <trkpt lat="42.84564" lon="0.48681">
        <ele>1988</ele>
        <time>2020-02-01T12:49:44.000Z</time>
      </trkpt>
      <trkpt lat="42.84564" lon="0.48681">
        <ele>1988</ele>
        <time>2020-02-01T12:49:45.000Z</time>
      </trkpt>
      <trkpt lat="42.84564" lon="0.48681">
        <ele>1988</ele>
        <time>2020-02-01T12:49:46.000Z</time>
      </trkpt>
      <trkpt lat="42.84564" lon="0.48681">
        <ele>1988</ele>
        <time>2020-02-01T12:49:47.000Z</time>
      </trkpt>
      <trkpt lat="42.84564" lon="0.48681">
        <ele>1988.5</ele>
        <time>2020-02-01T12:49:48.000Z</time>
      </trkpt>
      <trkpt lat="42.84564" lon="0.48681">
        <ele>1989</ele>
        <time>2020-02-01T12:49:49.000Z</time>
      </trkpt>
      <trkpt lat="42.84564" lon="0.48681">
        <ele>1990</ele>
        <time>2020-02-01T12:49:50.000Z</time>
      </trkpt>
      <trkpt lat="42.84564" lon="0.48681">
        <ele>1990</ele>
        <time>2020-02-01T12:49:51.000Z</time>
      </trkpt>
      <trkpt lat="42.84564" lon="0.48681">
        <ele>1990</ele>
        <time>2020-02-01T12:49:52.000Z</time>
      </trkpt>
      <trkpt lat="42.84564" lon="0.48681">
        <ele>1990</ele>
        <time>2020-02-01T12:49:53.000Z</time>
      </trkpt>
      <trkpt lat="42.84564" lon="0.48681">
        <ele>1990</ele>
        <time>2020-02-01T12:49:54.000Z</time>
      </trkpt>
      <trkpt lat="42.84564" lon="0.48681">
        <ele>1990</ele>
        <time>2020-02-01T12:49:55.000Z</time>
      </trkpt>
      <trkpt lat="42.84564" lon="0.48681">
        <ele>1990</ele>
        <time>2020-02-01T12:49:56.000Z</time>
      </trkpt>
      <trkpt lat="42.84564" lon="0.48681">
        <ele>1990</ele>
        <time>2020-02-01T12:49:57.000Z</time>
      </trkpt>
      <trkpt lat="42.84564" lon="0.48681">
        <ele>1990</ele>
        <time>2020-02-01T12:49:58.000Z</time>
      </trkpt>
      <trkpt lat="42.84564" lon="0.48681">
        <ele>1990</ele>
        <time>2020-02-01T12:49:59.000Z</time>
      </trkpt>
      <trkpt lat="42.84564" lon="0.48681">
        <ele>1990</ele>
        <time>2020-02-01T12:50:00.000Z</time>
      </trkpt>
      <trkpt lat="42.84564" lon="0.48681">
        <ele>1990</ele>
        <time>2020-02-01T12:50:01.000Z</time>
      </trkpt>
      <trkpt lat="42.84564" lon="0.48681">
        <ele>1990</ele>
        <time>2020-02-01T12:50:02.000Z</time>
      </trkpt>
      <trkpt lat="42.84564" lon="0.48681">
        <ele>1990</ele>
        <time>2020-02-01T12:50:03.000Z</time>
      </trkpt>
      <trkpt lat="42.84564" lon="0.48681">
        <ele>1990</ele>
        <time>2020-02-01T12:50:04.000Z</time>
      </trkpt>
      <trkpt lat="42.84564" lon="0.48681">
        <ele>1990</ele>
        <time>2020-02-01T12:50:05.000Z</time>
      </trkpt>
      <trkpt lat="42.84564" lon="0.48681">
        <ele>1990</ele>
        <time>2020-02-01T12:50:06.000Z</time>
      </trkpt>
      <trkpt lat="42.84564" lon="0.48681">
        <ele>1990</ele>
        <time>2020-02-01T12:50:07.000Z</time>
      </trkpt>
      <trkpt lat="42.84564" lon="0.48681">
        <ele>1989</ele>
        <time>2020-02-01T12:50:08.000Z</time>
      </trkpt>
      <trkpt lat="42.84564" lon="0.48681">
        <ele>1989</ele>
        <time>2020-02-01T12:50:09.000Z</time>
      </trkpt>
      <trkpt lat="42.84564" lon="0.48681">
        <ele>1989</ele>
        <time>2020-02-01T12:50:10.000Z</time>
      </trkpt>
      <trkpt lat="42.84564" lon="0.48681">
        <ele>1989</ele>
        <time>2020-02-01T12:50:11.000Z</time>
      </trkpt>
      <trkpt lat="42.84564" lon="0.48682">
        <ele>1989</ele>
        <time>2020-02-01T12:50:12.000Z</time>
      </trkpt>
      <trkpt lat="42.84564" lon="0.48682">
        <ele>1989</ele>
        <time>2020-02-01T12:50:13.000Z</time>
      </trkpt>
      <trkpt lat="42.84564" lon="0.48682">
        <ele>1989</ele>
        <time>2020-02-01T12:50:14.000Z</time>
      </trkpt>
      <trkpt lat="42.84565" lon="0.48682">
        <ele>1989.5</ele>
        <time>2020-02-01T12:50:15.000Z</time>
      </trkpt>
      <trkpt lat="42.84565" lon="0.48683">
        <ele>1990</ele>
        <time>2020-02-01T12:50:16.000Z</time>
      </trkpt>
      <trkpt lat="42.84565" lon="0.48683">
        <ele>1989.7</ele>
        <time>2020-02-01T12:50:17.000Z</time>
      </trkpt>
      <trkpt lat="42.84565" lon="0.48683">
        <ele>1989.3</ele>
        <time>2020-02-01T12:50:18.000Z</time>
      </trkpt>
      <trkpt lat="42.84565" lon="0.48683">
        <ele>1989</ele>
        <time>2020-02-01T12:50:19.000Z</time>
      </trkpt>
      <trkpt lat="42.84566" lon="0.48683">
        <ele>1989</ele>
        <time>2020-02-01T12:50:20.000Z</time>
      </trkpt>
      <trkpt lat="42.84566" lon="0.48683">
        <ele>1989</ele>
        <time>2020-02-01T12:50:21.000Z</time>
      </trkpt>
      <trkpt lat="42.84566" lon="0.48683">
        <ele>1989</ele>
        <time>2020-02-01T12:50:22.000Z</time>
      </trkpt>
      <trkpt lat="42.84566" lon="0.48683">
        <ele>1989</ele>
        <time>2020-02-01T12:50:23.000Z</time>
      </trkpt>
      <trkpt lat="42.84566" lon="0.48683">
        <ele>1989</ele>
        <time>2020-02-01T12:50:24.000Z</time>
      </trkpt>
      <trkpt lat="42.84566" lon="0.48683">
        <ele>1989</ele>
        <time>2020-02-01T12:50:25.000Z</time>
      </trkpt>
      <trkpt lat="42.84566" lon="0.48683">
        <ele>1989</ele>
        <time>2020-02-01T12:50:26.000Z</time>
      </trkpt>
      <trkpt lat="42.84566" lon="0.48683">
        <ele>1989</ele>
        <time>2020-02-01T12:50:27.000Z</time>
      </trkpt>
      <trkpt lat="42.84566" lon="0.48683">
        <ele>1989</ele>
        <time>2020-02-01T12:50:28.000Z</time>
      </trkpt>
      <trkpt lat="42.84566" lon="0.48683">
        <ele>1989</ele>
        <time>2020-02-01T12:50:29.000Z</time>
      </trkpt>
      <trkpt lat="42.84566" lon="0.48683">
        <ele>1989</ele>
        <time>2020-02-01T12:50:30.000Z</time>
      </trkpt>
      <trkpt lat="42.84566" lon="0.48683">
        <ele>1989</ele>
        <time>2020-02-01T12:50:31.000Z</time>
      </trkpt>
      <trkpt lat="42.84566" lon="0.48683">
        <ele>1989</ele>
        <time>2020-02-01T12:50:32.000Z</time>
      </trkpt>
      <trkpt lat="42.84566" lon="0.48683">
        <ele>1989</ele>
        <time>2020-02-01T12:50:33.000Z</time>
      </trkpt>
      <trkpt lat="42.84566" lon="0.48683">
        <ele>1989</ele>
        <time>2020-02-01T12:50:34.000Z</time>
      </trkpt>
      <trkpt lat="42.84566" lon="0.48683">
        <ele>1989</ele>
        <time>2020-02-01T12:50:35.000Z</time>
      </trkpt>
      <trkpt lat="42.84566" lon="0.48683">
        <ele>1989</ele>
        <time>2020-02-01T12:50:36.000Z</time>
      </trkpt>
      <trkpt lat="42.84566" lon="0.48683">
        <ele>1989</ele>
        <time>2020-02-01T12:50:37.000Z</time>
      </trkpt>
      <trkpt lat="42.84566" lon="0.48683">
        <ele>1989</ele>
        <time>2020-02-01T12:50:38.000Z</time>
      </trkpt>
      <trkpt lat="42.84566" lon="0.48683">
        <ele>1989</ele>
        <time>2020-02-01T12:50:39.000Z</time>
      </trkpt>
      <trkpt lat="42.84566" lon="0.48683">
        <ele>1989</ele>
        <time>2020-02-01T12:50:40.000Z</time>
      </trkpt>
      <trkpt lat="42.84566" lon="0.48683">
        <ele>1989</ele>
        <time>2020-02-01T12:50:41.000Z</time>
      </trkpt>
      <trkpt lat="42.84566" lon="0.48683">
        <ele>1989</ele>
        <time>2020-02-01T12:50:42.000Z</time>
      </trkpt>
      <trkpt lat="42.84566" lon="0.48683">
        <ele>1989</ele>
        <time>2020-02-01T12:50:43.000Z</time>
      </trkpt>
      <trkpt lat="42.84566" lon="0.48683">
        <ele>1989</ele>
        <time>2020-02-01T12:50:44.000Z</time>
      </trkpt>
      <trkpt lat="42.84566" lon="0.48683">
        <ele>1989</ele>
        <time>2020-02-01T12:50:45.000Z</time>
      </trkpt>
      <trkpt lat="42.84566" lon="0.48683">
        <ele>1989</ele>
        <time>2020-02-01T12:50:46.000Z</time>
      </trkpt>
      <trkpt lat="42.84566" lon="0.48683">
        <ele>1989</ele>
        <time>2020-02-01T12:50:47.000Z</time>
      </trkpt>
      <trkpt lat="42.84566" lon="0.48683">
        <ele>1988</ele>
        <time>2020-02-01T12:50:48.000Z</time>
      </trkpt>
      <trkpt lat="42.84566" lon="0.48683">
        <ele>1988.5</ele>
        <time>2020-02-01T12:50:49.000Z</time>
      </trkpt>
      <trkpt lat="42.84566" lon="0.48683">
        <ele>1989</ele>
        <time>2020-02-01T12:50:50.000Z</time>
      </trkpt>
      <trkpt lat="42.84566" lon="0.48683">
        <ele>1989</ele>
        <time>2020-02-01T12:50:51.000Z</time>
      </trkpt>
      <trkpt lat="42.84566" lon="0.48683">
        <ele>1989</ele>
        <time>2020-02-01T12:50:52.000Z</time>
      </trkpt>
      <trkpt lat="42.84566" lon="0.48683">
        <ele>1989</ele>
        <time>2020-02-01T12:50:53.000Z</time>
      </trkpt>
      <trkpt lat="42.84566" lon="0.48683">
        <ele>1989</ele>
        <time>2020-02-01T12:50:54.000Z</time>
      </trkpt>
      <trkpt lat="42.84566" lon="0.48683">
        <ele>1989</ele>
        <time>2020-02-01T12:50:55.000Z</time>
      </trkpt>
      <trkpt lat="42.84566" lon="0.48683">
        <ele>1989</ele>
        <time>2020-02-01T12:50:56.000Z</time>
      </trkpt>
      <trkpt lat="42.84566" lon="0.48683">
        <ele>1989</ele>
        <time>2020-02-01T12:50:57.000Z</time>
      </trkpt>
      <trkpt lat="42.84566" lon="0.48683">
        <ele>1989</ele>
        <time>2020-02-01T12:50:58.000Z</time>
      </trkpt>
      <trkpt lat="42.84566" lon="0.48683">
        <ele>1989</ele>
        <time>2020-02-01T12:50:59.000Z</time>
      </trkpt>
      <trkpt lat="42.84566" lon="0.48683">
        <ele>1989</ele>
        <time>2020-02-01T12:51:00.000Z</time>
      </trkpt>
      <trkpt lat="42.84566" lon="0.48683">
        <ele>1989</ele>
        <time>2020-02-01T12:51:01.000Z</time>
      </trkpt>
      <trkpt lat="42.84567" lon="0.48682">
        <ele>1988</ele>
        <time>2020-02-01T12:51:02.000Z</time>
      </trkpt>
      <trkpt lat="42.84567" lon="0.48682">
        <ele>1988</ele>
        <time>2020-02-01T12:51:03.000Z</time>
      </trkpt>
      <trkpt lat="42.84567" lon="0.48681">
        <ele>1988</ele>
        <time>2020-02-01T12:51:04.000Z</time>
      </trkpt>
      <trkpt lat="42.84567" lon="0.4868">
        <ele>1988</ele>
        <time>2020-02-01T12:51:05.000Z</time>
      </trkpt>
      <trkpt lat="42.84568" lon="0.4868">
        <ele>1988</ele>
        <time>2020-02-01T12:51:06.000Z</time>
      </trkpt>
      <trkpt lat="42.84568" lon="0.4868">
        <ele>1988</ele>
        <time>2020-02-01T12:51:07.000Z</time>
      </trkpt>
      <trkpt lat="42.84568" lon="0.48679">
        <ele>1988.5</ele>
        <time>2020-02-01T12:51:08.000Z</time>
      </trkpt>
      <trkpt lat="42.84568" lon="0.48679">
        <ele>1989</ele>
        <time>2020-02-01T12:51:09.000Z</time>
      </trkpt>
      <trkpt lat="42.84568" lon="0.48679">
        <ele>1990</ele>
        <time>2020-02-01T12:51:10.000Z</time>
      </trkpt>
      <trkpt lat="42.84568" lon="0.48679">
        <ele>1990</ele>
        <time>2020-02-01T12:51:11.000Z</time>
      </trkpt>
      <trkpt lat="42.84568" lon="0.48679">
        <ele>1990</ele>
        <time>2020-02-01T12:51:12.000Z</time>
      </trkpt>
      <trkpt lat="42.84568" lon="0.48679">
        <ele>1990</ele>
        <time>2020-02-01T12:51:13.000Z</time>
      </trkpt>
      <trkpt lat="42.84568" lon="0.48679">
        <ele>1990</ele>
        <time>2020-02-01T12:51:14.000Z</time>
      </trkpt>
      <trkpt lat="42.84568" lon="0.48679">
        <ele>1990</ele>
        <time>2020-02-01T12:51:15.000Z</time>
      </trkpt>
      <trkpt lat="42.84567" lon="0.48677">
        <ele>1990</ele>
        <time>2020-02-01T12:51:16.000Z</time>
      </trkpt>
      <trkpt lat="42.84567" lon="0.48677">
        <ele>1989.7</ele>
        <time>2020-02-01T12:51:17.000Z</time>
      </trkpt>
      <trkpt lat="42.84566" lon="0.48676">
        <ele>1989.3</ele>
        <time>2020-02-01T12:51:18.000Z</time>
      </trkpt>
      <trkpt lat="42.84566" lon="0.48675">
        <ele>1989</ele>
        <time>2020-02-01T12:51:19.000Z</time>
      </trkpt>
      <trkpt lat="42.84565" lon="0.48675">
        <ele>1989</ele>
        <time>2020-02-01T12:51:20.000Z</time>
      </trkpt>
      <trkpt lat="42.84565" lon="0.48675">
        <ele>1989.3</ele>
        <time>2020-02-01T12:51:21.000Z</time>
      </trkpt>
      <trkpt lat="42.84564" lon="0.48674">
        <ele>1989.7</ele>
        <time>2020-02-01T12:51:22.000Z</time>
      </trkpt>
      <trkpt lat="42.84564" lon="0.48674">
        <ele>1990</ele>
        <time>2020-02-01T12:51:23.000Z</time>
      </trkpt>
      <trkpt lat="42.84564" lon="0.48673">
        <ele>1990</ele>
        <time>2020-02-01T12:51:24.000Z</time>
      </trkpt>
      <trkpt lat="42.84564" lon="0.48673">
        <ele>1990</ele>
        <time>2020-02-01T12:51:25.000Z</time>
      </trkpt>
      <trkpt lat="42.84564" lon="0.48673">
        <ele>1990</ele>
        <time>2020-02-01T12:51:26.000Z</time>
      </trkpt>
      <trkpt lat="42.84564" lon="0.48673">
        <ele>1990</ele>
        <time>2020-02-01T12:51:27.000Z</time>
      </trkpt>
      <trkpt lat="42.84564" lon="0.48672">
        <ele>1990</ele>
        <time>2020-02-01T12:51:28.000Z</time>
      </trkpt>
      <trkpt lat="42.84563" lon="0.48672">
        <ele>1990</ele>
        <time>2020-02-01T12:51:29.000Z</time>
      </trkpt>
      <trkpt lat="42.84563" lon="0.48672">
        <ele>1990</ele>
        <time>2020-02-01T12:51:30.000Z</time>
      </trkpt>
      <trkpt lat="42.84563" lon="0.48672">
        <ele>1990</ele>
        <time>2020-02-01T12:51:31.000Z</time>
      </trkpt>
      <trkpt lat="42.84563" lon="0.48672">
        <ele>1990</ele>
        <time>2020-02-01T12:51:32.000Z</time>
      </trkpt>
      <trkpt lat="42.84563" lon="0.48672">
        <ele>1990</ele>
        <time>2020-02-01T12:51:33.000Z</time>
      </trkpt>
      <trkpt lat="42.84563" lon="0.48672">
        <ele>1990</ele>
        <time>2020-02-01T12:51:34.000Z</time>
      </trkpt>
      <trkpt lat="42.84563" lon="0.48672">
        <ele>1990</ele>
        <time>2020-02-01T12:51:35.000Z</time>
      </trkpt>
      <trkpt lat="42.84563" lon="0.48672">
        <ele>1990</ele>
        <time>2020-02-01T12:51:36.000Z</time>
      </trkpt>
      <trkpt lat="42.84563" lon="0.48672">
        <ele>1990</ele>
        <time>2020-02-01T12:51:37.000Z</time>
      </trkpt>
      <trkpt lat="42.84563" lon="0.48672">
        <ele>1989.5</ele>
        <time>2020-02-01T12:51:38.000Z</time>
      </trkpt>
      <trkpt lat="42.84563" lon="0.48672">
        <ele>1989</ele>
        <time>2020-02-01T12:51:39.000Z</time>
      </trkpt>
      <trkpt lat="42.84563" lon="0.48672">
        <ele>1989</ele>
        <time>2020-02-01T12:51:40.000Z</time>
      </trkpt>
      <trkpt lat="42.84563" lon="0.48672">
        <ele>1989.3</ele>
        <time>2020-02-01T12:51:41.000Z</time>
      </trkpt>
      <trkpt lat="42.84563" lon="0.48672">
        <ele>1989.7</ele>
        <time>2020-02-01T12:51:42.000Z</time>
      </trkpt>
      <trkpt lat="42.84563" lon="0.48672">
        <ele>1990</ele>
        <time>2020-02-01T12:51:43.000Z</time>
      </trkpt>
      <trkpt lat="42.84563" lon="0.48672">
        <ele>1990</ele>
        <time>2020-02-01T12:51:44.000Z</time>
      </trkpt>
      <trkpt lat="42.84563" lon="0.48672">
        <ele>1989.7</ele>
        <time>2020-02-01T12:51:45.000Z</time>
      </trkpt>
      <trkpt lat="42.84563" lon="0.48672">
        <ele>1989.3</ele>
        <time>2020-02-01T12:51:46.000Z</time>
      </trkpt>
      <trkpt lat="42.84563" lon="0.48672">
        <ele>1989</ele>
        <time>2020-02-01T12:51:47.000Z</time>
      </trkpt>
      <trkpt lat="42.84563" lon="0.48672">
        <ele>1989</ele>
        <time>2020-02-01T12:51:48.000Z</time>
      </trkpt>
      <trkpt lat="42.84563" lon="0.48672">
        <ele>1989.3</ele>
        <time>2020-02-01T12:51:49.000Z</time>
      </trkpt>
      <trkpt lat="42.84563" lon="0.48672">
        <ele>1989.7</ele>
        <time>2020-02-01T12:51:50.000Z</time>
      </trkpt>
      <trkpt lat="42.84563" lon="0.48672">
        <ele>1990</ele>
        <time>2020-02-01T12:51:51.000Z</time>
      </trkpt>
      <trkpt lat="42.84564" lon="0.48672">
        <ele>1990</ele>
        <time>2020-02-01T12:51:52.000Z</time>
      </trkpt>
      <trkpt lat="42.84564" lon="0.48672">
        <ele>1990</ele>
        <time>2020-02-01T12:51:53.000Z</time>
      </trkpt>
      <trkpt lat="42.84564" lon="0.48673">
        <ele>1990</ele>
        <time>2020-02-01T12:51:54.000Z</time>
      </trkpt>
      <trkpt lat="42.84564" lon="0.48673">
        <ele>1990</ele>
        <time>2020-02-01T12:51:55.000Z</time>
      </trkpt>
      <trkpt lat="42.84564" lon="0.48673">
        <ele>1990</ele>
        <time>2020-02-01T12:51:56.000Z</time>
      </trkpt>
      <trkpt lat="42.84565" lon="0.48673">
        <ele>1989.5</ele>
        <time>2020-02-01T12:51:57.000Z</time>
      </trkpt>
      <trkpt lat="42.84565" lon="0.48674">
        <ele>1989</ele>
        <time>2020-02-01T12:51:58.000Z</time>
      </trkpt>
      <trkpt lat="42.84565" lon="0.48674">
        <ele>1989</ele>
        <time>2020-02-01T12:51:59.000Z</time>
      </trkpt>
      <trkpt lat="42.84565" lon="0.48674">
        <ele>1989</ele>
        <time>2020-02-01T12:52:00.000Z</time>
      </trkpt>
      <trkpt lat="42.84566" lon="0.48675">
        <ele>1989</ele>
        <time>2020-02-01T12:52:01.000Z</time>
      </trkpt>
      <trkpt lat="42.84566" lon="0.48675">
        <ele>1989</ele>
        <time>2020-02-01T12:52:02.000Z</time>
      </trkpt>
      <trkpt lat="42.84566" lon="0.48675">
        <ele>1989</ele>
        <time>2020-02-01T12:52:03.000Z</time>
      </trkpt>
      <trkpt lat="42.84566" lon="0.48675">
        <ele>1989</ele>
        <time>2020-02-01T12:52:04.000Z</time>
      </trkpt>
      <trkpt lat="42.84566" lon="0.48675">
        <ele>1989</ele>
        <time>2020-02-01T12:52:05.000Z</time>
      </trkpt>
      <trkpt lat="42.84566" lon="0.48675">
        <ele>1989</ele>
        <time>2020-02-01T12:52:06.000Z</time>
      </trkpt>
      <trkpt lat="42.84566" lon="0.48675">
        <ele>1989</ele>
        <time>2020-02-01T12:52:07.000Z</time>
      </trkpt>
      <trkpt lat="42.84566" lon="0.48675">
        <ele>1989</ele>
        <time>2020-02-01T12:52:08.000Z</time>
      </trkpt>
      <trkpt lat="42.84566" lon="0.48675">
        <ele>1989</ele>
        <time>2020-02-01T12:52:09.000Z</time>
      </trkpt>
      <trkpt lat="42.84566" lon="0.48675">
        <ele>1989</ele>
        <time>2020-02-01T12:52:10.000Z</time>
      </trkpt>
      <trkpt lat="42.84566" lon="0.48675">
        <ele>1989</ele>
        <time>2020-02-01T12:52:11.000Z</time>
      </trkpt>
      <trkpt lat="42.84566" lon="0.48675">
        <ele>1989</ele>
        <time>2020-02-01T12:52:12.000Z</time>
      </trkpt>
      <trkpt lat="42.84566" lon="0.48675">
        <ele>1989</ele>
        <time>2020-02-01T12:52:13.000Z</time>
      </trkpt>
      <trkpt lat="42.84566" lon="0.48675">
        <ele>1989</ele>
        <time>2020-02-01T12:52:14.000Z</time>
      </trkpt>
      <trkpt lat="42.84566" lon="0.48675">
        <ele>1989.3</ele>
        <time>2020-02-01T12:52:15.000Z</time>
      </trkpt>
      <trkpt lat="42.84566" lon="0.48675">
        <ele>1989.7</ele>
        <time>2020-02-01T12:52:16.000Z</time>
      </trkpt>
      <trkpt lat="42.84566" lon="0.48675">
        <ele>1990</ele>
        <time>2020-02-01T12:52:17.000Z</time>
      </trkpt>
      <trkpt lat="42.84566" lon="0.48675">
        <ele>1990</ele>
        <time>2020-02-01T12:52:18.000Z</time>
      </trkpt>
      <trkpt lat="42.84566" lon="0.48675">
        <ele>1990</ele>
        <time>2020-02-01T12:52:19.000Z</time>
      </trkpt>
      <trkpt lat="42.84566" lon="0.48675">
        <ele>1990</ele>
        <time>2020-02-01T12:52:20.000Z</time>
      </trkpt>
      <trkpt lat="42.84566" lon="0.48675">
        <ele>1990</ele>
        <time>2020-02-01T12:52:21.000Z</time>
      </trkpt>
      <trkpt lat="42.84566" lon="0.48675">
        <ele>1990</ele>
        <time>2020-02-01T12:52:22.000Z</time>
      </trkpt>
      <trkpt lat="42.84566" lon="0.48675">
        <ele>1989.5</ele>
        <time>2020-02-01T12:52:23.000Z</time>
      </trkpt>
      <trkpt lat="42.84566" lon="0.48676">
        <ele>1989</ele>
        <time>2020-02-01T12:52:24.000Z</time>
      </trkpt>
      <trkpt lat="42.84566" lon="0.48676">
        <ele>1989.3</ele>
        <time>2020-02-01T12:52:25.000Z</time>
      </trkpt>
      <trkpt lat="42.84566" lon="0.48676">
        <ele>1989.7</ele>
        <time>2020-02-01T12:52:26.000Z</time>
      </trkpt>
      <trkpt lat="42.84565" lon="0.48676">
        <ele>1990</ele>
        <time>2020-02-01T12:52:27.000Z</time>
      </trkpt>
      <trkpt lat="42.84565" lon="0.48676">
        <ele>1990</ele>
        <time>2020-02-01T12:52:28.000Z</time>
      </trkpt>
      <trkpt lat="42.84565" lon="0.48676">
        <ele>1990</ele>
        <time>2020-02-01T12:52:29.000Z</time>
      </trkpt>
      <trkpt lat="42.84565" lon="0.48676">
        <ele>1990</ele>
        <time>2020-02-01T12:52:30.000Z</time>
      </trkpt>
      <trkpt lat="42.84565" lon="0.48677">
        <ele>1990</ele>
        <time>2020-02-01T12:52:31.000Z</time>
      </trkpt>
      <trkpt lat="42.84565" lon="0.48677">
        <ele>1990</ele>
        <time>2020-02-01T12:52:32.000Z</time>
      </trkpt>
      <trkpt lat="42.84565" lon="0.48677">
        <ele>1990</ele>
        <time>2020-02-01T12:52:33.000Z</time>
      </trkpt>
      <trkpt lat="42.84565" lon="0.48677">
        <ele>1990</ele>
        <time>2020-02-01T12:52:34.000Z</time>
      </trkpt>
      <trkpt lat="42.84565" lon="0.48677">
        <ele>1990</ele>
        <time>2020-02-01T12:52:35.000Z</time>
      </trkpt>
      <trkpt lat="42.84565" lon="0.48677">
        <ele>1990</ele>
        <time>2020-02-01T12:52:36.000Z</time>
      </trkpt>
      <trkpt lat="42.84565" lon="0.48677">
        <ele>1990</ele>
        <time>2020-02-01T12:52:37.000Z</time>
      </trkpt>
      <trkpt lat="42.84565" lon="0.48677">
        <ele>1990</ele>
        <time>2020-02-01T12:52:38.000Z</time>
      </trkpt>
      <trkpt lat="42.84565" lon="0.48677">
        <ele>1990</ele>
        <time>2020-02-01T12:52:39.000Z</time>
      </trkpt>
      <trkpt lat="42.84565" lon="0.48677">
        <ele>1989</ele>
        <time>2020-02-01T12:52:40.000Z</time>
      </trkpt>
      <trkpt lat="42.84565" lon="0.48677">
        <ele>1989.3</ele>
        <time>2020-02-01T12:52:41.000Z</time>
      </trkpt>
      <trkpt lat="42.84565" lon="0.48677">
        <ele>1989.7</ele>
        <time>2020-02-01T12:52:42.000Z</time>
      </trkpt>
      <trkpt lat="42.84565" lon="0.48677">
        <ele>1990</ele>
        <time>2020-02-01T12:52:43.000Z</time>
      </trkpt>
      <trkpt lat="42.84565" lon="0.48677">
        <ele>1990</ele>
        <time>2020-02-01T12:52:44.000Z</time>
      </trkpt>
      <trkpt lat="42.84565" lon="0.48677">
        <ele>1990</ele>
        <time>2020-02-01T12:52:45.000Z</time>
      </trkpt>
      <trkpt lat="42.84565" lon="0.48677">
        <ele>1990</ele>
        <time>2020-02-01T12:52:46.000Z</time>
      </trkpt>
      <trkpt lat="42.84565" lon="0.48677">
        <ele>1990</ele>
        <time>2020-02-01T12:52:47.000Z</time>
      </trkpt>
      <trkpt lat="42.84565" lon="0.48677">
        <ele>1990</ele>
        <time>2020-02-01T12:52:48.000Z</time>
      </trkpt>
      <trkpt lat="42.84565" lon="0.48677">
        <ele>1990</ele>
        <time>2020-02-01T12:52:49.000Z</time>
      </trkpt>
      <trkpt lat="42.84565" lon="0.48677">
        <ele>1990</ele>
        <time>2020-02-01T12:52:50.000Z</time>
      </trkpt>
      <trkpt lat="42.84565" lon="0.48677">
        <ele>1990</ele>
        <time>2020-02-01T12:52:51.000Z</time>
      </trkpt>
      <trkpt lat="42.84565" lon="0.48677">
        <ele>1990</ele>
        <time>2020-02-01T12:52:52.000Z</time>
      </trkpt>
      <trkpt lat="42.84565" lon="0.48677">
        <ele>1990</ele>
        <time>2020-02-01T12:52:53.000Z</time>
      </trkpt>
      <trkpt lat="42.84565" lon="0.48677">
        <ele>1989</ele>
        <time>2020-02-01T12:52:54.000Z</time>
      </trkpt>
      <trkpt lat="42.84565" lon="0.48677">
        <ele>1989</ele>
        <time>2020-02-01T12:52:55.000Z</time>
      </trkpt>
      <trkpt lat="42.84565" lon="0.48677">
        <ele>1989</ele>
        <time>2020-02-01T12:52:56.000Z</time>
      </trkpt>
      <trkpt lat="42.84565" lon="0.48677">
        <ele>1989</ele>
        <time>2020-02-01T12:52:57.000Z</time>
      </trkpt>
      <trkpt lat="42.84565" lon="0.48677">
        <ele>1989</ele>
        <time>2020-02-01T12:52:58.000Z</time>
      </trkpt>
      <trkpt lat="42.84565" lon="0.48677">
        <ele>1989</ele>
        <time>2020-02-01T12:52:59.000Z</time>
      </trkpt>
      <trkpt lat="42.84565" lon="0.48677">
        <ele>1989</ele>
        <time>2020-02-01T12:53:00.000Z</time>
      </trkpt>
      <trkpt lat="42.84565" lon="0.48677">
        <ele>1989</ele>
        <time>2020-02-01T12:53:01.000Z</time>
      </trkpt>
      <trkpt lat="42.84565" lon="0.48677">
        <ele>1989</ele>
        <time>2020-02-01T12:53:02.000Z</time>
      </trkpt>
      <trkpt lat="42.84565" lon="0.48677">
        <ele>1989</ele>
        <time>2020-02-01T12:53:03.000Z</time>
      </trkpt>
      <trkpt lat="42.84565" lon="0.48677">
        <ele>1989</ele>
        <time>2020-02-01T12:53:04.000Z</time>
      </trkpt>
      <trkpt lat="42.84565" lon="0.48677">
        <ele>1989</ele>
        <time>2020-02-01T12:53:05.000Z</time>
      </trkpt>
      <trkpt lat="42.84565" lon="0.48677">
        <ele>1989</ele>
        <time>2020-02-01T12:53:06.000Z</time>
      </trkpt>
      <trkpt lat="42.84565" lon="0.48677">
        <ele>1989</ele>
        <time>2020-02-01T12:53:07.000Z</time>
      </trkpt>
      <trkpt lat="42.84565" lon="0.48677">
        <ele>1989</ele>
        <time>2020-02-01T12:53:08.000Z</time>
      </trkpt>
      <trkpt lat="42.84565" lon="0.48677">
        <ele>1989</ele>
        <time>2020-02-01T12:53:09.000Z</time>
      </trkpt>
      <trkpt lat="42.84565" lon="0.48677">
        <ele>1989</ele>
        <time>2020-02-01T12:53:10.000Z</time>
      </trkpt>
      <trkpt lat="42.84565" lon="0.48677">
        <ele>1989</ele>
        <time>2020-02-01T12:53:11.000Z</time>
      </trkpt>
      <trkpt lat="42.84565" lon="0.48677">
        <ele>1989</ele>
        <time>2020-02-01T12:53:12.000Z</time>
      </trkpt>
      <trkpt lat="42.84565" lon="0.48677">
        <ele>1989</ele>
        <time>2020-02-01T12:53:13.000Z</time>
      </trkpt>
      <trkpt lat="42.84565" lon="0.48677">
        <ele>1990</ele>
        <time>2020-02-01T12:53:14.000Z</time>
      </trkpt>
      <trkpt lat="42.84565" lon="0.48677">
        <ele>1990</ele>
        <time>2020-02-01T12:53:15.000Z</time>
      </trkpt>
      <trkpt lat="42.84565" lon="0.48677">
        <ele>1990</ele>
        <time>2020-02-01T12:53:16.000Z</time>
      </trkpt>
      <trkpt lat="42.84565" lon="0.48677">
        <ele>1990</ele>
        <time>2020-02-01T12:53:17.000Z</time>
      </trkpt>
      <trkpt lat="42.84565" lon="0.48676">
        <ele>1989.5</ele>
        <time>2020-02-01T12:53:18.000Z</time>
      </trkpt>
      <trkpt lat="42.84566" lon="0.48676">
        <ele>1989</ele>
        <time>2020-02-01T12:53:19.000Z</time>
      </trkpt>
      <trkpt lat="42.84566" lon="0.48676">
        <ele>1989</ele>
        <time>2020-02-01T12:53:20.000Z</time>
      </trkpt>
      <trkpt lat="42.84566" lon="0.48676">
        <ele>1989</ele>
        <time>2020-02-01T12:53:21.000Z</time>
      </trkpt>
      <trkpt lat="42.84566" lon="0.48676">
        <ele>1989</ele>
        <time>2020-02-01T12:53:22.000Z</time>
      </trkpt>
      <trkpt lat="42.84566" lon="0.48676">
        <ele>1989.3</ele>
        <time>2020-02-01T12:53:23.000Z</time>
      </trkpt>
      <trkpt lat="42.84566" lon="0.48676">
        <ele>1989.7</ele>
        <time>2020-02-01T12:53:24.000Z</time>
      </trkpt>
      <trkpt lat="42.84566" lon="0.48675">
        <ele>1990</ele>
        <time>2020-02-01T12:53:25.000Z</time>
      </trkpt>
      <trkpt lat="42.84566" lon="0.48674">
        <ele>1990</ele>
        <time>2020-02-01T12:53:26.000Z</time>
      </trkpt>
      <trkpt lat="42.84566" lon="0.48674">
        <ele>1990</ele>
        <time>2020-02-01T12:53:27.000Z</time>
      </trkpt>
      <trkpt lat="42.84566" lon="0.48673">
        <ele>1990</ele>
        <time>2020-02-01T12:53:28.000Z</time>
      </trkpt>
      <trkpt lat="42.84566" lon="0.48673">
        <ele>1990</ele>
        <time>2020-02-01T12:53:29.000Z</time>
      </trkpt>
      <trkpt lat="42.84566" lon="0.48673">
        <ele>1990</ele>
        <time>2020-02-01T12:53:30.000Z</time>
      </trkpt>
      <trkpt lat="42.84566" lon="0.48673">
        <ele>1990</ele>
        <time>2020-02-01T12:53:31.000Z</time>
      </trkpt>
      <trkpt lat="42.84566" lon="0.48673">
        <ele>1990</ele>
        <time>2020-02-01T12:53:32.000Z</time>
      </trkpt>
      <trkpt lat="42.84566" lon="0.48673">
        <ele>1990</ele>
        <time>2020-02-01T12:53:33.000Z</time>
      </trkpt>
      <trkpt lat="42.84566" lon="0.48673">
        <ele>1990</ele>
        <time>2020-02-01T12:53:34.000Z</time>
      </trkpt>
      <trkpt lat="42.84566" lon="0.48673">
        <ele>1990</ele>
        <time>2020-02-01T12:53:35.000Z</time>
      </trkpt>
      <trkpt lat="42.84566" lon="0.48673">
        <ele>1990</ele>
        <time>2020-02-01T12:53:36.000Z</time>
      </trkpt>
      <trkpt lat="42.84566" lon="0.48673">
        <ele>1990</ele>
        <time>2020-02-01T12:53:37.000Z</time>
      </trkpt>
      <trkpt lat="42.84566" lon="0.48673">
        <ele>1989</ele>
        <time>2020-02-01T12:53:38.000Z</time>
      </trkpt>
      <trkpt lat="42.84566" lon="0.48673">
        <ele>1989</ele>
        <time>2020-02-01T12:53:39.000Z</time>
      </trkpt>
      <trkpt lat="42.84566" lon="0.48673">
        <ele>1989</ele>
        <time>2020-02-01T12:53:40.000Z</time>
      </trkpt>
      <trkpt lat="42.84566" lon="0.48673">
        <ele>1989</ele>
        <time>2020-02-01T12:53:41.000Z</time>
      </trkpt>
      <trkpt lat="42.84566" lon="0.48673">
        <ele>1989</ele>
        <time>2020-02-01T12:53:42.000Z</time>
      </trkpt>
      <trkpt lat="42.84566" lon="0.48673">
        <ele>1989</ele>
        <time>2020-02-01T12:53:43.000Z</time>
      </trkpt>
      <trkpt lat="42.84566" lon="0.48673">
        <ele>1989</ele>
        <time>2020-02-01T12:53:44.000Z</time>
      </trkpt>
      <trkpt lat="42.84566" lon="0.48673">
        <ele>1989</ele>
        <time>2020-02-01T12:53:45.000Z</time>
      </trkpt>
      <trkpt lat="42.84566" lon="0.48673">
        <ele>1989</ele>
        <time>2020-02-01T12:53:46.000Z</time>
      </trkpt>
      <trkpt lat="42.84566" lon="0.48673">
        <ele>1989</ele>
        <time>2020-02-01T12:53:47.000Z</time>
      </trkpt>
      <trkpt lat="42.84566" lon="0.48673">
        <ele>1989.5</ele>
        <time>2020-02-01T12:53:48.000Z</time>
      </trkpt>
      <trkpt lat="42.84566" lon="0.48673">
        <ele>1990</ele>
        <time>2020-02-01T12:53:49.000Z</time>
      </trkpt>
      <trkpt lat="42.84566" lon="0.48673">
        <ele>1990</ele>
        <time>2020-02-01T12:53:50.000Z</time>
      </trkpt>
      <trkpt lat="42.84566" lon="0.48673">
        <ele>1990</ele>
        <time>2020-02-01T12:53:51.000Z</time>
      </trkpt>
      <trkpt lat="42.84566" lon="0.48673">
        <ele>1990</ele>
        <time>2020-02-01T12:53:52.000Z</time>
      </trkpt>
      <trkpt lat="42.84566" lon="0.48673">
        <ele>1990</ele>
        <time>2020-02-01T12:53:53.000Z</time>
      </trkpt>
      <trkpt lat="42.84566" lon="0.48673">
        <ele>1990</ele>
        <time>2020-02-01T12:53:54.000Z</time>
      </trkpt>
      <trkpt lat="42.84566" lon="0.48673">
        <ele>1990</ele>
        <time>2020-02-01T12:53:55.000Z</time>
      </trkpt>
      <trkpt lat="42.84566" lon="0.48673">
        <ele>1990</ele>
        <time>2020-02-01T12:53:56.000Z</time>
      </trkpt>
      <trkpt lat="42.84566" lon="0.48673">
        <ele>1989.7</ele>
        <time>2020-02-01T12:53:57.000Z</time>
      </trkpt>
      <trkpt lat="42.84566" lon="0.48673">
        <ele>1989.3</ele>
        <time>2020-02-01T12:53:58.000Z</time>
      </trkpt>
      <trkpt lat="42.84565" lon="0.48673">
        <ele>1989</ele>
        <time>2020-02-01T12:53:59.000Z</time>
      </trkpt>
      <trkpt lat="42.84565" lon="0.48673">
        <ele>1989</ele>
        <time>2020-02-01T12:54:00.000Z</time>
      </trkpt>
      <trkpt lat="42.84565" lon="0.48674">
        <ele>1989</ele>
        <time>2020-02-01T12:54:01.000Z</time>
      </trkpt>
      <trkpt lat="42.84565" lon="0.48674">
        <ele>1989</ele>
        <time>2020-02-01T12:54:02.000Z</time>
      </trkpt>
      <trkpt lat="42.84565" lon="0.48674">
        <ele>1989</ele>
        <time>2020-02-01T12:54:03.000Z</time>
      </trkpt>
      <trkpt lat="42.84565" lon="0.48675">
        <ele>1989</ele>
        <time>2020-02-01T12:54:04.000Z</time>
      </trkpt>
      <trkpt lat="42.84565" lon="0.48675">
        <ele>1989</ele>
        <time>2020-02-01T12:54:05.000Z</time>
      </trkpt>
      <trkpt lat="42.84565" lon="0.48675">
        <ele>1989</ele>
        <time>2020-02-01T12:54:06.000Z</time>
      </trkpt>
      <trkpt lat="42.84565" lon="0.48675">
        <ele>1989</ele>
        <time>2020-02-01T12:54:07.000Z</time>
      </trkpt>
      <trkpt lat="42.84565" lon="0.48675">
        <ele>1989</ele>
        <time>2020-02-01T12:54:08.000Z</time>
      </trkpt>
      <trkpt lat="42.84565" lon="0.48675">
        <ele>1989</ele>
        <time>2020-02-01T12:54:09.000Z</time>
      </trkpt>
      <trkpt lat="42.84565" lon="0.48675">
        <ele>1989</ele>
        <time>2020-02-01T12:54:10.000Z</time>
      </trkpt>
      <trkpt lat="42.84565" lon="0.48675">
        <ele>1989</ele>
        <time>2020-02-01T12:54:11.000Z</time>
      </trkpt>
      <trkpt lat="42.84565" lon="0.48675">
        <ele>1989</ele>
        <time>2020-02-01T12:54:12.000Z</time>
      </trkpt>
      <trkpt lat="42.84564" lon="0.48675">
        <ele>1989</ele>
        <time>2020-02-01T12:54:13.000Z</time>
      </trkpt>
      <trkpt lat="42.84564" lon="0.48675">
        <ele>1989</ele>
        <time>2020-02-01T12:54:14.000Z</time>
      </trkpt>
      <trkpt lat="42.84564" lon="0.48675">
        <ele>1989</ele>
        <time>2020-02-01T12:54:15.000Z</time>
      </trkpt>
      <trkpt lat="42.84564" lon="0.48675">
        <ele>1989</ele>
        <time>2020-02-01T12:54:16.000Z</time>
      </trkpt>
      <trkpt lat="42.84564" lon="0.48675">
        <ele>1989</ele>
        <time>2020-02-01T12:54:17.000Z</time>
      </trkpt>
      <trkpt lat="42.84564" lon="0.48675">
        <ele>1989</ele>
        <time>2020-02-01T12:54:18.000Z</time>
      </trkpt>
      <trkpt lat="42.84564" lon="0.48675">
        <ele>1989</ele>
        <time>2020-02-01T12:54:19.000Z</time>
      </trkpt>
      <trkpt lat="42.84564" lon="0.48675">
        <ele>1989</ele>
        <time>2020-02-01T12:54:20.000Z</time>
      </trkpt>
      <trkpt lat="42.84564" lon="0.48675">
        <ele>1989.3</ele>
        <time>2020-02-01T12:54:21.000Z</time>
      </trkpt>
      <trkpt lat="42.84564" lon="0.48676">
        <ele>1989.7</ele>
        <time>2020-02-01T12:54:22.000Z</time>
      </trkpt>
      <trkpt lat="42.84564" lon="0.48676">
        <ele>1990</ele>
        <time>2020-02-01T12:54:23.000Z</time>
      </trkpt>
      <trkpt lat="42.84564" lon="0.48676">
        <ele>1990</ele>
        <time>2020-02-01T12:54:24.000Z</time>
      </trkpt>
      <trkpt lat="42.84564" lon="0.48676">
        <ele>1990</ele>
        <time>2020-02-01T12:54:25.000Z</time>
      </trkpt>
      <trkpt lat="42.84564" lon="0.48676">
        <ele>1990</ele>
        <time>2020-02-01T12:54:26.000Z</time>
      </trkpt>
      <trkpt lat="42.84564" lon="0.48676">
        <ele>1990</ele>
        <time>2020-02-01T12:54:27.000Z</time>
      </trkpt>
      <trkpt lat="42.84564" lon="0.48676">
        <ele>1990</ele>
        <time>2020-02-01T12:54:28.000Z</time>
      </trkpt>
      <trkpt lat="42.84564" lon="0.48676">
        <ele>1990</ele>
        <time>2020-02-01T12:54:29.000Z</time>
      </trkpt>
      <trkpt lat="42.84564" lon="0.48676">
        <ele>1990</ele>
        <time>2020-02-01T12:54:30.000Z</time>
      </trkpt>
      <trkpt lat="42.84564" lon="0.48676">
        <ele>1990</ele>
        <time>2020-02-01T12:54:31.000Z</time>
      </trkpt>
      <trkpt lat="42.84564" lon="0.48676">
        <ele>1990</ele>
        <time>2020-02-01T12:54:32.000Z</time>
      </trkpt>
      <trkpt lat="42.84564" lon="0.48676">
        <ele>1990</ele>
        <time>2020-02-01T12:54:33.000Z</time>
      </trkpt>
      <trkpt lat="42.84564" lon="0.48676">
        <ele>1990</ele>
        <time>2020-02-01T12:54:34.000Z</time>
      </trkpt>
      <trkpt lat="42.84564" lon="0.48676">
        <ele>1990</ele>
        <time>2020-02-01T12:54:35.000Z</time>
      </trkpt>
      <trkpt lat="42.84564" lon="0.48676">
        <ele>1990</ele>
        <time>2020-02-01T12:54:36.000Z</time>
      </trkpt>
      <trkpt lat="42.84564" lon="0.48676">
        <ele>1990</ele>
        <time>2020-02-01T12:54:37.000Z</time>
      </trkpt>
      <trkpt lat="42.84564" lon="0.48676">
        <ele>1990</ele>
        <time>2020-02-01T12:54:38.000Z</time>
      </trkpt>
      <trkpt lat="42.84564" lon="0.48676">
        <ele>1990</ele>
        <time>2020-02-01T12:54:39.000Z</time>
      </trkpt>
      <trkpt lat="42.84564" lon="0.48676">
        <ele>1990</ele>
        <time>2020-02-01T12:54:40.000Z</time>
      </trkpt>
      <trkpt lat="42.84564" lon="0.48676">
        <ele>1990</ele>
        <time>2020-02-01T12:54:41.000Z</time>
      </trkpt>
      <trkpt lat="42.84564" lon="0.48676">
        <ele>1990</ele>
        <time>2020-02-01T12:54:42.000Z</time>
      </trkpt>
      <trkpt lat="42.84564" lon="0.48676">
        <ele>1990</ele>
        <time>2020-02-01T12:54:43.000Z</time>
      </trkpt>
      <trkpt lat="42.84564" lon="0.48676">
        <ele>1990</ele>
        <time>2020-02-01T12:54:44.000Z</time>
      </trkpt>
      <trkpt lat="42.84564" lon="0.48676">
        <ele>1990</ele>
        <time>2020-02-01T12:54:45.000Z</time>
      </trkpt>
      <trkpt lat="42.84564" lon="0.48676">
        <ele>1990</ele>
        <time>2020-02-01T12:54:46.000Z</time>
      </trkpt>
      <trkpt lat="42.84564" lon="0.48676">
        <ele>1990</ele>
        <time>2020-02-01T12:54:47.000Z</time>
      </trkpt>
      <trkpt lat="42.84564" lon="0.48676">
        <ele>1990</ele>
        <time>2020-02-01T12:54:48.000Z</time>
      </trkpt>
      <trkpt lat="42.84564" lon="0.48676">
        <ele>1990</ele>
        <time>2020-02-01T12:54:49.000Z</time>
      </trkpt>
      <trkpt lat="42.84564" lon="0.48676">
        <ele>1990</ele>
        <time>2020-02-01T12:54:50.000Z</time>
      </trkpt>
      <trkpt lat="42.84564" lon="0.48676">
        <ele>1990</ele>
        <time>2020-02-01T12:54:51.000Z</time>
      </trkpt>
      <trkpt lat="42.84564" lon="0.48676">
        <ele>1990</ele>
        <time>2020-02-01T12:54:52.000Z</time>
      </trkpt>
      <trkpt lat="42.84564" lon="0.48676">
        <ele>1990</ele>
        <time>2020-02-01T12:54:53.000Z</time>
      </trkpt>
      <trkpt lat="42.84564" lon="0.48676">
        <ele>1990</ele>
        <time>2020-02-01T12:54:54.000Z</time>
      </trkpt>
      <trkpt lat="42.84564" lon="0.48676">
        <ele>1990</ele>
        <time>2020-02-01T12:54:55.000Z</time>
      </trkpt>
      <trkpt lat="42.84565" lon="0.48676">
        <ele>1990</ele>
        <time>2020-02-01T12:54:56.000Z</time>
      </trkpt>
      <trkpt lat="42.84565" lon="0.48676">
        <ele>1990.3</ele>
        <time>2020-02-01T12:54:57.000Z</time>
      </trkpt>
      <trkpt lat="42.84565" lon="0.48676">
        <ele>1990.7</ele>
        <time>2020-02-01T12:54:58.000Z</time>
      </trkpt>
      <trkpt lat="42.84565" lon="0.48677">
        <ele>1991</ele>
        <time>2020-02-01T12:54:59.000Z</time>
      </trkpt>
      <trkpt lat="42.84565" lon="0.48677">
        <ele>1991</ele>
        <time>2020-02-01T12:55:00.000Z</time>
      </trkpt>
      <trkpt lat="42.84565" lon="0.48677">
        <ele>1991</ele>
        <time>2020-02-01T12:55:01.000Z</time>
      </trkpt>
      <trkpt lat="42.84565" lon="0.48677">
        <ele>1991</ele>
        <time>2020-02-01T12:55:02.000Z</time>
      </trkpt>
      <trkpt lat="42.84565" lon="0.48677">
        <ele>1990.7</ele>
        <time>2020-02-01T12:55:03.000Z</time>
      </trkpt>
      <trkpt lat="42.84565" lon="0.48677">
        <ele>1990.3</ele>
        <time>2020-02-01T12:55:04.000Z</time>
      </trkpt>
      <trkpt lat="42.84565" lon="0.48677">
        <ele>1990</ele>
        <time>2020-02-01T12:55:05.000Z</time>
      </trkpt>
      <trkpt lat="42.84565" lon="0.48677">
        <ele>1990</ele>
        <time>2020-02-01T12:55:06.000Z</time>
      </trkpt>
      <trkpt lat="42.84565" lon="0.48677">
        <ele>1990</ele>
        <time>2020-02-01T12:55:07.000Z</time>
      </trkpt>
      <trkpt lat="42.84565" lon="0.48677">
        <ele>1990</ele>
        <time>2020-02-01T12:55:08.000Z</time>
      </trkpt>
      <trkpt lat="42.84565" lon="0.48677">
        <ele>1990</ele>
        <time>2020-02-01T12:55:09.000Z</time>
      </trkpt>
      <trkpt lat="42.84565" lon="0.48677">
        <ele>1990</ele>
        <time>2020-02-01T12:55:10.000Z</time>
      </trkpt>
      <trkpt lat="42.84565" lon="0.48677">
        <ele>1990</ele>
        <time>2020-02-01T12:55:11.000Z</time>
      </trkpt>
      <trkpt lat="42.84565" lon="0.48677">
        <ele>1990</ele>
        <time>2020-02-01T12:55:12.000Z</time>
      </trkpt>
      <trkpt lat="42.84565" lon="0.48677">
        <ele>1990</ele>
        <time>2020-02-01T12:55:13.000Z</time>
      </trkpt>
      <trkpt lat="42.84565" lon="0.48677">
        <ele>1990</ele>
        <time>2020-02-01T12:55:14.000Z</time>
      </trkpt>
      <trkpt lat="42.84565" lon="0.48677">
        <ele>1990</ele>
        <time>2020-02-01T12:55:15.000Z</time>
      </trkpt>
      <trkpt lat="42.84565" lon="0.48678">
        <ele>1990</ele>
        <time>2020-02-01T12:55:16.000Z</time>
      </trkpt>
      <trkpt lat="42.84565" lon="0.48678">
        <ele>1990</ele>
        <time>2020-02-01T12:55:17.000Z</time>
      </trkpt>
      <trkpt lat="42.84566" lon="0.48678">
        <ele>1990</ele>
        <time>2020-02-01T12:55:18.000Z</time>
      </trkpt>
      <trkpt lat="42.84566" lon="0.48678">
        <ele>1990</ele>
        <time>2020-02-01T12:55:19.000Z</time>
      </trkpt>
      <trkpt lat="42.84566" lon="0.48678">
        <ele>1990</ele>
        <time>2020-02-01T12:55:20.000Z</time>
      </trkpt>
      <trkpt lat="42.84566" lon="0.48678">
        <ele>1990</ele>
        <time>2020-02-01T12:55:21.000Z</time>
      </trkpt>
      <trkpt lat="42.84566" lon="0.48679">
        <ele>1990</ele>
        <time>2020-02-01T12:55:22.000Z</time>
      </trkpt>
      <trkpt lat="42.84566" lon="0.48679">
        <ele>1990</ele>
        <time>2020-02-01T12:55:23.000Z</time>
      </trkpt>
      <trkpt lat="42.84566" lon="0.48679">
        <ele>1990</ele>
        <time>2020-02-01T12:55:24.000Z</time>
      </trkpt>
      <trkpt lat="42.84566" lon="0.48679">
        <ele>1990</ele>
        <time>2020-02-01T12:55:25.000Z</time>
      </trkpt>
      <trkpt lat="42.84566" lon="0.48679">
        <ele>1990</ele>
        <time>2020-02-01T12:55:26.000Z</time>
      </trkpt>
      <trkpt lat="42.84566" lon="0.48679">
        <ele>1990</ele>
        <time>2020-02-01T12:55:27.000Z</time>
      </trkpt>
      <trkpt lat="42.84566" lon="0.48679">
        <ele>1990</ele>
        <time>2020-02-01T12:55:28.000Z</time>
      </trkpt>
      <trkpt lat="42.84566" lon="0.48679">
        <ele>1990</ele>
        <time>2020-02-01T12:55:29.000Z</time>
      </trkpt>
      <trkpt lat="42.84566" lon="0.48679">
        <ele>1990</ele>
        <time>2020-02-01T12:55:30.000Z</time>
      </trkpt>
      <trkpt lat="42.84566" lon="0.48679">
        <ele>1990</ele>
        <time>2020-02-01T12:55:31.000Z</time>
      </trkpt>
      <trkpt lat="42.84566" lon="0.48679">
        <ele>1990</ele>
        <time>2020-02-01T12:55:32.000Z</time>
      </trkpt>
      <trkpt lat="42.84566" lon="0.48679">
        <ele>1990</ele>
        <time>2020-02-01T12:55:33.000Z</time>
      </trkpt>
      <trkpt lat="42.84566" lon="0.48679">
        <ele>1990</ele>
        <time>2020-02-01T12:55:34.000Z</time>
      </trkpt>
      <trkpt lat="42.84566" lon="0.48679">
        <ele>1990</ele>
        <time>2020-02-01T12:55:35.000Z</time>
      </trkpt>
      <trkpt lat="42.84566" lon="0.48679">
        <ele>1990</ele>
        <time>2020-02-01T12:55:36.000Z</time>
      </trkpt>
      <trkpt lat="42.84566" lon="0.48679">
        <ele>1990</ele>
        <time>2020-02-01T12:55:37.000Z</time>
      </trkpt>
      <trkpt lat="42.84566" lon="0.48679">
        <ele>1990</ele>
        <time>2020-02-01T12:55:38.000Z</time>
      </trkpt>
      <trkpt lat="42.84566" lon="0.48679">
        <ele>1990</ele>
        <time>2020-02-01T12:55:39.000Z</time>
      </trkpt>
      <trkpt lat="42.84566" lon="0.48678">
        <ele>1990</ele>
        <time>2020-02-01T12:55:40.000Z</time>
      </trkpt>
      <trkpt lat="42.84566" lon="0.48678">
        <ele>1990</ele>
        <time>2020-02-01T12:55:41.000Z</time>
      </trkpt>
      <trkpt lat="42.84565" lon="0.48679">
        <ele>1990</ele>
        <time>2020-02-01T12:55:42.000Z</time>
      </trkpt>
      <trkpt lat="42.84566" lon="0.48679">
        <ele>1990</ele>
        <time>2020-02-01T12:55:43.000Z</time>
      </trkpt>
      <trkpt lat="42.84566" lon="0.48679">
        <ele>1990</ele>
        <time>2020-02-01T12:55:44.000Z</time>
      </trkpt>
      <trkpt lat="42.84566" lon="0.4868">
        <ele>1989.5</ele>
        <time>2020-02-01T12:55:45.000Z</time>
      </trkpt>
      <trkpt lat="42.84566" lon="0.4868">
        <ele>1989</ele>
        <time>2020-02-01T12:55:46.000Z</time>
      </trkpt>
      <trkpt lat="42.84566" lon="0.48681">
        <ele>1989</ele>
        <time>2020-02-01T12:55:47.000Z</time>
      </trkpt>
      <trkpt lat="42.84566" lon="0.48681">
        <ele>1989</ele>
        <time>2020-02-01T12:55:48.000Z</time>
      </trkpt>
      <trkpt lat="42.84566" lon="0.48681">
        <ele>1989</ele>
        <time>2020-02-01T12:55:49.000Z</time>
      </trkpt>
      <trkpt lat="42.84566" lon="0.48681">
        <ele>1990</ele>
        <time>2020-02-01T12:55:50.000Z</time>
      </trkpt>
      <trkpt lat="42.84566" lon="0.48681">
        <ele>1990</ele>
        <time>2020-02-01T12:55:51.000Z</time>
      </trkpt>
      <trkpt lat="42.84566" lon="0.48681">
        <ele>1990</ele>
        <time>2020-02-01T12:55:52.000Z</time>
      </trkpt>
      <trkpt lat="42.84566" lon="0.48681">
        <ele>1990</ele>
        <time>2020-02-01T12:55:53.000Z</time>
      </trkpt>
      <trkpt lat="42.84566" lon="0.48681">
        <ele>1990</ele>
        <time>2020-02-01T12:55:54.000Z</time>
      </trkpt>
      <trkpt lat="42.84566" lon="0.48681">
        <ele>1990</ele>
        <time>2020-02-01T12:55:55.000Z</time>
      </trkpt>
      <trkpt lat="42.84566" lon="0.48681">
        <ele>1990</ele>
        <time>2020-02-01T12:55:56.000Z</time>
      </trkpt>
      <trkpt lat="42.84566" lon="0.48681">
        <ele>1990</ele>
        <time>2020-02-01T12:55:57.000Z</time>
      </trkpt>
      <trkpt lat="42.84566" lon="0.48681">
        <ele>1990</ele>
        <time>2020-02-01T12:55:58.000Z</time>
      </trkpt>
      <trkpt lat="42.84566" lon="0.48681">
        <ele>1990</ele>
        <time>2020-02-01T12:55:59.000Z</time>
      </trkpt>
      <trkpt lat="42.84566" lon="0.48681">
        <ele>1990</ele>
        <time>2020-02-01T12:56:00.000Z</time>
      </trkpt>
      <trkpt lat="42.84566" lon="0.48681">
        <ele>1990</ele>
        <time>2020-02-01T12:56:01.000Z</time>
      </trkpt>
      <trkpt lat="42.84566" lon="0.48681">
        <ele>1990</ele>
        <time>2020-02-01T12:56:02.000Z</time>
      </trkpt>
      <trkpt lat="42.84566" lon="0.48681">
        <ele>1990</ele>
        <time>2020-02-01T12:56:03.000Z</time>
      </trkpt>
      <trkpt lat="42.84566" lon="0.48681">
        <ele>1990</ele>
        <time>2020-02-01T12:56:04.000Z</time>
      </trkpt>
      <trkpt lat="42.84566" lon="0.48681">
        <ele>1990</ele>
        <time>2020-02-01T12:56:05.000Z</time>
      </trkpt>
      <trkpt lat="42.84566" lon="0.48681">
        <ele>1990</ele>
        <time>2020-02-01T12:56:06.000Z</time>
      </trkpt>
      <trkpt lat="42.84566" lon="0.48681">
        <ele>1990</ele>
        <time>2020-02-01T12:56:07.000Z</time>
      </trkpt>
      <trkpt lat="42.84566" lon="0.48681">
        <ele>1990</ele>
        <time>2020-02-01T12:56:08.000Z</time>
      </trkpt>
      <trkpt lat="42.84566" lon="0.48681">
        <ele>1990</ele>
        <time>2020-02-01T12:56:09.000Z</time>
      </trkpt>
      <trkpt lat="42.84566" lon="0.48681">
        <ele>1990</ele>
        <time>2020-02-01T12:56:10.000Z</time>
      </trkpt>
      <trkpt lat="42.84566" lon="0.48681">
        <ele>1990</ele>
        <time>2020-02-01T12:56:11.000Z</time>
      </trkpt>
      <trkpt lat="42.84566" lon="0.48681">
        <ele>1990</ele>
        <time>2020-02-01T12:56:12.000Z</time>
      </trkpt>
      <trkpt lat="42.84566" lon="0.48681">
        <ele>1990</ele>
        <time>2020-02-01T12:56:13.000Z</time>
      </trkpt>
      <trkpt lat="42.84566" lon="0.48681">
        <ele>1990</ele>
        <time>2020-02-01T12:56:14.000Z</time>
      </trkpt>
      <trkpt lat="42.84566" lon="0.48681">
        <ele>1990</ele>
        <time>2020-02-01T12:56:15.000Z</time>
      </trkpt>
      <trkpt lat="42.84566" lon="0.48681">
        <ele>1990</ele>
        <time>2020-02-01T12:56:16.000Z</time>
      </trkpt>
      <trkpt lat="42.84566" lon="0.48681">
        <ele>1990</ele>
        <time>2020-02-01T12:56:17.000Z</time>
      </trkpt>
      <trkpt lat="42.84566" lon="0.48681">
        <ele>1990</ele>
        <time>2020-02-01T12:56:18.000Z</time>
      </trkpt>
      <trkpt lat="42.84566" lon="0.48681">
        <ele>1990</ele>
        <time>2020-02-01T12:56:19.000Z</time>
      </trkpt>
      <trkpt lat="42.84566" lon="0.48681">
        <ele>1990</ele>
        <time>2020-02-01T12:56:20.000Z</time>
      </trkpt>
      <trkpt lat="42.84566" lon="0.48681">
        <ele>1990</ele>
        <time>2020-02-01T12:56:21.000Z</time>
      </trkpt>
      <trkpt lat="42.84566" lon="0.48681">
        <ele>1990</ele>
        <time>2020-02-01T12:56:22.000Z</time>
      </trkpt>
      <trkpt lat="42.84566" lon="0.48681">
        <ele>1990</ele>
        <time>2020-02-01T12:56:23.000Z</time>
      </trkpt>
      <trkpt lat="42.84566" lon="0.48681">
        <ele>1990</ele>
        <time>2020-02-01T12:56:24.000Z</time>
      </trkpt>
      <trkpt lat="42.84566" lon="0.48681">
        <ele>1990</ele>
        <time>2020-02-01T12:56:25.000Z</time>
      </trkpt>
      <trkpt lat="42.84566" lon="0.48681">
        <ele>1990</ele>
        <time>2020-02-01T12:56:26.000Z</time>
      </trkpt>
      <trkpt lat="42.84566" lon="0.48681">
        <ele>1990</ele>
        <time>2020-02-01T12:56:27.000Z</time>
      </trkpt>
      <trkpt lat="42.84566" lon="0.48681">
        <ele>1990</ele>
        <time>2020-02-01T12:56:28.000Z</time>
      </trkpt>
      <trkpt lat="42.84566" lon="0.48681">
        <ele>1990</ele>
        <time>2020-02-01T12:56:29.000Z</time>
      </trkpt>
      <trkpt lat="42.84566" lon="0.48681">
        <ele>1990</ele>
        <time>2020-02-01T12:56:30.000Z</time>
      </trkpt>
      <trkpt lat="42.84566" lon="0.48681">
        <ele>1990</ele>
        <time>2020-02-01T12:56:31.000Z</time>
      </trkpt>
      <trkpt lat="42.84566" lon="0.48681">
        <ele>1990</ele>
        <time>2020-02-01T12:56:32.000Z</time>
      </trkpt>
      <trkpt lat="42.84566" lon="0.48681">
        <ele>1990</ele>
        <time>2020-02-01T12:56:33.000Z</time>
      </trkpt>
      <trkpt lat="42.84566" lon="0.48681">
        <ele>1990</ele>
        <time>2020-02-01T12:56:34.000Z</time>
      </trkpt>
      <trkpt lat="42.84566" lon="0.48681">
        <ele>1990</ele>
        <time>2020-02-01T12:56:35.000Z</time>
      </trkpt>
      <trkpt lat="42.84566" lon="0.48681">
        <ele>1990</ele>
        <time>2020-02-01T12:56:36.000Z</time>
      </trkpt>
      <trkpt lat="42.84566" lon="0.48681">
        <ele>1990</ele>
        <time>2020-02-01T12:56:37.000Z</time>
      </trkpt>
      <trkpt lat="42.84566" lon="0.48681">
        <ele>1990</ele>
        <time>2020-02-01T12:56:38.000Z</time>
      </trkpt>
      <trkpt lat="42.84566" lon="0.48681">
        <ele>1990</ele>
        <time>2020-02-01T12:56:39.000Z</time>
      </trkpt>
      <trkpt lat="42.84566" lon="0.48681">
        <ele>1990</ele>
        <time>2020-02-01T12:56:40.000Z</time>
      </trkpt>
      <trkpt lat="42.84566" lon="0.48681">
        <ele>1990</ele>
        <time>2020-02-01T12:56:41.000Z</time>
      </trkpt>
      <trkpt lat="42.84566" lon="0.48681">
        <ele>1990</ele>
        <time>2020-02-01T12:56:42.000Z</time>
      </trkpt>
      <trkpt lat="42.84566" lon="0.48681">
        <ele>1990</ele>
        <time>2020-02-01T12:56:43.000Z</time>
      </trkpt>
      <trkpt lat="42.84566" lon="0.48682">
        <ele>1990</ele>
        <time>2020-02-01T12:56:44.000Z</time>
      </trkpt>
      <trkpt lat="42.84566" lon="0.48682">
        <ele>1990</ele>
        <time>2020-02-01T12:56:45.000Z</time>
      </trkpt>
      <trkpt lat="42.84566" lon="0.48682">
        <ele>1990</ele>
        <time>2020-02-01T12:56:46.000Z</time>
      </trkpt>
      <trkpt lat="42.84566" lon="0.48682">
        <ele>1990</ele>
        <time>2020-02-01T12:56:47.000Z</time>
      </trkpt>
      <trkpt lat="42.84566" lon="0.48683">
        <ele>1990</ele>
        <time>2020-02-01T12:56:48.000Z</time>
      </trkpt>
      <trkpt lat="42.84566" lon="0.48683">
        <ele>1990.3</ele>
        <time>2020-02-01T12:56:49.000Z</time>
      </trkpt>
      <trkpt lat="42.84566" lon="0.48684">
        <ele>1990.7</ele>
        <time>2020-02-01T12:56:50.000Z</time>
      </trkpt>
      <trkpt lat="42.84566" lon="0.48684">
        <ele>1991</ele>
        <time>2020-02-01T12:56:51.000Z</time>
      </trkpt>
      <trkpt lat="42.84566" lon="0.48685">
        <ele>1990</ele>
        <time>2020-02-01T12:56:52.000Z</time>
      </trkpt>
      <trkpt lat="42.84566" lon="0.48685">
        <ele>1990</ele>
        <time>2020-02-01T12:56:53.000Z</time>
      </trkpt>
      <trkpt lat="42.84566" lon="0.48686">
        <ele>1990</ele>
        <time>2020-02-01T12:56:54.000Z</time>
      </trkpt>
      <trkpt lat="42.84566" lon="0.48686">
        <ele>1990</ele>
        <time>2020-02-01T12:56:55.000Z</time>
      </trkpt>
      <trkpt lat="42.84566" lon="0.48686">
        <ele>1990</ele>
        <time>2020-02-01T12:56:56.000Z</time>
      </trkpt>
      <trkpt lat="42.84566" lon="0.48686">
        <ele>1990</ele>
        <time>2020-02-01T12:56:57.000Z</time>
      </trkpt>
      <trkpt lat="42.84566" lon="0.48686">
        <ele>1990</ele>
        <time>2020-02-01T12:56:58.000Z</time>
      </trkpt>
      <trkpt lat="42.84566" lon="0.48686">
        <ele>1990</ele>
        <time>2020-02-01T12:56:59.000Z</time>
      </trkpt>
      <trkpt lat="42.84566" lon="0.48686">
        <ele>1990</ele>
        <time>2020-02-01T12:57:00.000Z</time>
      </trkpt>
      <trkpt lat="42.84566" lon="0.48686">
        <ele>1990</ele>
        <time>2020-02-01T12:57:01.000Z</time>
      </trkpt>
      <trkpt lat="42.84566" lon="0.48686">
        <ele>1990</ele>
        <time>2020-02-01T12:57:02.000Z</time>
      </trkpt>
      <trkpt lat="42.84565" lon="0.48686">
        <ele>1990</ele>
        <time>2020-02-01T12:57:03.000Z</time>
      </trkpt>
      <trkpt lat="42.84565" lon="0.48686">
        <ele>1990</ele>
        <time>2020-02-01T12:57:04.000Z</time>
      </trkpt>
      <trkpt lat="42.84565" lon="0.48686">
        <ele>1990</ele>
        <time>2020-02-01T12:57:05.000Z</time>
      </trkpt>
      <trkpt lat="42.84565" lon="0.48686">
        <ele>1990</ele>
        <time>2020-02-01T12:57:06.000Z</time>
      </trkpt>
      <trkpt lat="42.84565" lon="0.48686">
        <ele>1990</ele>
        <time>2020-02-01T12:57:07.000Z</time>
      </trkpt>
      <trkpt lat="42.84565" lon="0.48686">
        <ele>1990</ele>
        <time>2020-02-01T12:57:08.000Z</time>
      </trkpt>
      <trkpt lat="42.84565" lon="0.48686">
        <ele>1990</ele>
        <time>2020-02-01T12:57:09.000Z</time>
      </trkpt>
      <trkpt lat="42.84565" lon="0.48686">
        <ele>1990</ele>
        <time>2020-02-01T12:57:10.000Z</time>
      </trkpt>
      <trkpt lat="42.84565" lon="0.48686">
        <ele>1990</ele>
        <time>2020-02-01T12:57:11.000Z</time>
      </trkpt>
      <trkpt lat="42.84565" lon="0.48686">
        <ele>1990</ele>
        <time>2020-02-01T12:57:12.000Z</time>
      </trkpt>
      <trkpt lat="42.84565" lon="0.48686">
        <ele>1990</ele>
        <time>2020-02-01T12:57:13.000Z</time>
      </trkpt>
      <trkpt lat="42.84565" lon="0.48686">
        <ele>1990</ele>
        <time>2020-02-01T12:57:14.000Z</time>
      </trkpt>
      <trkpt lat="42.84565" lon="0.48686">
        <ele>1990</ele>
        <time>2020-02-01T12:57:15.000Z</time>
      </trkpt>
      <trkpt lat="42.84565" lon="0.48686">
        <ele>1990</ele>
        <time>2020-02-01T12:57:16.000Z</time>
      </trkpt>
      <trkpt lat="42.84565" lon="0.48686">
        <ele>1990</ele>
        <time>2020-02-01T12:57:17.000Z</time>
      </trkpt>
      <trkpt lat="42.84565" lon="0.48686">
        <ele>1990</ele>
        <time>2020-02-01T12:57:18.000Z</time>
      </trkpt>
      <trkpt lat="42.84565" lon="0.48686">
        <ele>1990</ele>
        <time>2020-02-01T12:57:19.000Z</time>
      </trkpt>
      <trkpt lat="42.84565" lon="0.48686">
        <ele>1990</ele>
        <time>2020-02-01T12:57:20.000Z</time>
      </trkpt>
      <trkpt lat="42.84565" lon="0.48686">
        <ele>1990</ele>
        <time>2020-02-01T12:57:21.000Z</time>
      </trkpt>
      <trkpt lat="42.84564" lon="0.48686">
        <ele>1990</ele>
        <time>2020-02-01T12:57:22.000Z</time>
      </trkpt>
      <trkpt lat="42.84564" lon="0.48686">
        <ele>1989.5</ele>
        <time>2020-02-01T12:57:23.000Z</time>
      </trkpt>
      <trkpt lat="42.84564" lon="0.48686">
        <ele>1989</ele>
        <time>2020-02-01T12:57:24.000Z</time>
      </trkpt>
      <trkpt lat="42.84564" lon="0.48686">
        <ele>1989</ele>
        <time>2020-02-01T12:57:25.000Z</time>
      </trkpt>
      <trkpt lat="42.84564" lon="0.48686">
        <ele>1989</ele>
        <time>2020-02-01T12:57:26.000Z</time>
      </trkpt>
      <trkpt lat="42.84564" lon="0.48686">
        <ele>1989.3</ele>
        <time>2020-02-01T12:57:27.000Z</time>
      </trkpt>
      <trkpt lat="42.84564" lon="0.48686">
        <ele>1989.7</ele>
        <time>2020-02-01T12:57:28.000Z</time>
      </trkpt>
      <trkpt lat="42.84564" lon="0.48686">
        <ele>1990</ele>
        <time>2020-02-01T12:57:29.000Z</time>
      </trkpt>
      <trkpt lat="42.84564" lon="0.48686">
        <ele>1989.5</ele>
        <time>2020-02-01T12:57:30.000Z</time>
      </trkpt>
      <trkpt lat="42.84564" lon="0.48686">
        <ele>1989</ele>
        <time>2020-02-01T12:57:31.000Z</time>
      </trkpt>
      <trkpt lat="42.84564" lon="0.48686">
        <ele>1990</ele>
        <time>2020-02-01T12:57:32.000Z</time>
      </trkpt>
      <trkpt lat="42.84564" lon="0.48686">
        <ele>1990</ele>
        <time>2020-02-01T12:57:33.000Z</time>
      </trkpt>
      <trkpt lat="42.84564" lon="0.48686">
        <ele>1990</ele>
        <time>2020-02-01T12:57:34.000Z</time>
      </trkpt>
      <trkpt lat="42.84564" lon="0.48686">
        <ele>1990</ele>
        <time>2020-02-01T12:57:35.000Z</time>
      </trkpt>
      <trkpt lat="42.84564" lon="0.48686">
        <ele>1990</ele>
        <time>2020-02-01T12:57:36.000Z</time>
      </trkpt>
      <trkpt lat="42.84564" lon="0.48686">
        <ele>1990</ele>
        <time>2020-02-01T12:57:37.000Z</time>
      </trkpt>
      <trkpt lat="42.84564" lon="0.48686">
        <ele>1990</ele>
        <time>2020-02-01T12:57:38.000Z</time>
      </trkpt>
      <trkpt lat="42.84564" lon="0.48686">
        <ele>1990</ele>
        <time>2020-02-01T12:57:39.000Z</time>
      </trkpt>
      <trkpt lat="42.84564" lon="0.48686">
        <ele>1990</ele>
        <time>2020-02-01T12:57:40.000Z</time>
      </trkpt>
      <trkpt lat="42.84564" lon="0.48686">
        <ele>1990</ele>
        <time>2020-02-01T12:57:41.000Z</time>
      </trkpt>
      <trkpt lat="42.84564" lon="0.48686">
        <ele>1990</ele>
        <time>2020-02-01T12:57:42.000Z</time>
      </trkpt>
      <trkpt lat="42.84564" lon="0.48686">
        <ele>1990</ele>
        <time>2020-02-01T12:57:43.000Z</time>
      </trkpt>
      <trkpt lat="42.84564" lon="0.48686">
        <ele>1990</ele>
        <time>2020-02-01T12:57:44.000Z</time>
      </trkpt>
      <trkpt lat="42.84564" lon="0.48686">
        <ele>1990</ele>
        <time>2020-02-01T12:57:45.000Z</time>
      </trkpt>
      <trkpt lat="42.84564" lon="0.48686">
        <ele>1990</ele>
        <time>2020-02-01T12:57:46.000Z</time>
      </trkpt>
      <trkpt lat="42.84564" lon="0.48686">
        <ele>1990</ele>
        <time>2020-02-01T12:57:47.000Z</time>
      </trkpt>
      <trkpt lat="42.84564" lon="0.48686">
        <ele>1990</ele>
        <time>2020-02-01T12:57:48.000Z</time>
      </trkpt>
      <trkpt lat="42.84564" lon="0.48686">
        <ele>1990</ele>
        <time>2020-02-01T12:57:49.000Z</time>
      </trkpt>
      <trkpt lat="42.84564" lon="0.48686">
        <ele>1990</ele>
        <time>2020-02-01T12:57:50.000Z</time>
      </trkpt>
      <trkpt lat="42.84564" lon="0.48686">
        <ele>1990</ele>
        <time>2020-02-01T12:57:51.000Z</time>
      </trkpt>
      <trkpt lat="42.84564" lon="0.48686">
        <ele>1990</ele>
        <time>2020-02-01T12:57:52.000Z</time>
      </trkpt>
      <trkpt lat="42.84564" lon="0.48686">
        <ele>1990</ele>
        <time>2020-02-01T12:57:53.000Z</time>
      </trkpt>
      <trkpt lat="42.84564" lon="0.48686">
        <ele>1990</ele>
        <time>2020-02-01T12:57:54.000Z</time>
      </trkpt>
      <trkpt lat="42.84564" lon="0.48686">
        <ele>1990</ele>
        <time>2020-02-01T12:57:55.000Z</time>
      </trkpt>
      <trkpt lat="42.84565" lon="0.48685">
        <ele>1990</ele>
        <time>2020-02-01T12:57:56.000Z</time>
      </trkpt>
      <trkpt lat="42.84565" lon="0.48685">
        <ele>1989.5</ele>
        <time>2020-02-01T12:57:57.000Z</time>
      </trkpt>
      <trkpt lat="42.84565" lon="0.48685">
        <ele>1989</ele>
        <time>2020-02-01T12:57:58.000Z</time>
      </trkpt>
      <trkpt lat="42.84565" lon="0.48685">
        <ele>1989</ele>
        <time>2020-02-01T12:57:59.000Z</time>
      </trkpt>
      <trkpt lat="42.84565" lon="0.48685">
        <ele>1989</ele>
        <time>2020-02-01T12:58:00.000Z</time>
      </trkpt>
      <trkpt lat="42.84565" lon="0.48685">
        <ele>1989</ele>
        <time>2020-02-01T12:58:01.000Z</time>
      </trkpt>
      <trkpt lat="42.84565" lon="0.48685">
        <ele>1989</ele>
        <time>2020-02-01T12:58:02.000Z</time>
      </trkpt>
      <trkpt lat="42.84565" lon="0.48685">
        <ele>1989</ele>
        <time>2020-02-01T12:58:03.000Z</time>
      </trkpt>
      <trkpt lat="42.84565" lon="0.48685">
        <ele>1989</ele>
        <time>2020-02-01T12:58:04.000Z</time>
      </trkpt>
      <trkpt lat="42.84565" lon="0.48685">
        <ele>1989</ele>
        <time>2020-02-01T12:58:05.000Z</time>
      </trkpt>
      <trkpt lat="42.84565" lon="0.48685">
        <ele>1989</ele>
        <time>2020-02-01T12:58:06.000Z</time>
      </trkpt>
      <trkpt lat="42.84565" lon="0.48685">
        <ele>1989</ele>
        <time>2020-02-01T12:58:07.000Z</time>
      </trkpt>
      <trkpt lat="42.84565" lon="0.48685">
        <ele>1989</ele>
        <time>2020-02-01T12:58:08.000Z</time>
      </trkpt>
      <trkpt lat="42.84565" lon="0.48685">
        <ele>1989</ele>
        <time>2020-02-01T12:58:09.000Z</time>
      </trkpt>
      <trkpt lat="42.84566" lon="0.48685">
        <ele>1989</ele>
        <time>2020-02-01T12:58:10.000Z</time>
      </trkpt>
      <trkpt lat="42.84566" lon="0.48685">
        <ele>1989</ele>
        <time>2020-02-01T12:58:11.000Z</time>
      </trkpt>
      <trkpt lat="42.84567" lon="0.48685">
        <ele>1989</ele>
        <time>2020-02-01T12:58:12.000Z</time>
      </trkpt>
      <trkpt lat="42.84568" lon="0.48685">
        <ele>1989</ele>
        <time>2020-02-01T12:58:13.000Z</time>
      </trkpt>
      <trkpt lat="42.84569" lon="0.48685">
        <ele>1989</ele>
        <time>2020-02-01T12:58:14.000Z</time>
      </trkpt>
      <trkpt lat="42.84569" lon="0.48685">
        <ele>1989</ele>
        <time>2020-02-01T12:58:15.000Z</time>
      </trkpt>
      <trkpt lat="42.8457" lon="0.48686">
        <ele>1989</ele>
        <time>2020-02-01T12:58:16.000Z</time>
      </trkpt>
      <trkpt lat="42.84571" lon="0.48686">
        <ele>1989</ele>
        <time>2020-02-01T12:58:17.000Z</time>
      </trkpt>
      <trkpt lat="42.84571" lon="0.48686">
        <ele>1989</ele>
        <time>2020-02-01T12:58:18.000Z</time>
      </trkpt>
      <trkpt lat="42.84572" lon="0.48687">
        <ele>1989.3</ele>
        <time>2020-02-01T12:58:19.000Z</time>
      </trkpt>
      <trkpt lat="42.84572" lon="0.48687">
        <ele>1989.7</ele>
        <time>2020-02-01T12:58:20.000Z</time>
      </trkpt>
      <trkpt lat="42.84573" lon="0.48688">
        <ele>1990</ele>
        <time>2020-02-01T12:58:21.000Z</time>
      </trkpt>
      <trkpt lat="42.84574" lon="0.48688">
        <ele>1990</ele>
        <time>2020-02-01T12:58:22.000Z</time>
      </trkpt>
      <trkpt lat="42.84574" lon="0.48689">
        <ele>1990</ele>
        <time>2020-02-01T12:58:23.000Z</time>
      </trkpt>
      <trkpt lat="42.84575" lon="0.48689">
        <ele>1990</ele>
        <time>2020-02-01T12:58:24.000Z</time>
      </trkpt>
      <trkpt lat="42.84576" lon="0.4869">
        <ele>1990</ele>
        <time>2020-02-01T12:58:25.000Z</time>
      </trkpt>
      <trkpt lat="42.84576" lon="0.4869">
        <ele>1990</ele>
        <time>2020-02-01T12:58:26.000Z</time>
      </trkpt>
      <trkpt lat="42.84577" lon="0.48691">
        <ele>1990</ele>
        <time>2020-02-01T12:58:27.000Z</time>
      </trkpt>
      <trkpt lat="42.84578" lon="0.48691">
        <ele>1990</ele>
        <time>2020-02-01T12:58:28.000Z</time>
      </trkpt>
      <trkpt lat="42.84579" lon="0.48692">
        <ele>1990</ele>
        <time>2020-02-01T12:58:29.000Z</time>
      </trkpt>
      <trkpt lat="42.84579" lon="0.48693">
        <ele>1989.5</ele>
        <time>2020-02-01T12:58:30.000Z</time>
      </trkpt>
      <trkpt lat="42.8458" lon="0.48693">
        <ele>1989</ele>
        <time>2020-02-01T12:58:31.000Z</time>
      </trkpt>
      <trkpt lat="42.8458" lon="0.48694">
        <ele>1990</ele>
        <time>2020-02-01T12:58:32.000Z</time>
      </trkpt>
      <trkpt lat="42.84581" lon="0.48694">
        <ele>1990</ele>
        <time>2020-02-01T12:58:33.000Z</time>
      </trkpt>
      <trkpt lat="42.84581" lon="0.48694">
        <ele>1990</ele>
        <time>2020-02-01T12:58:34.000Z</time>
      </trkpt>
      <trkpt lat="42.84581" lon="0.48694">
        <ele>1990</ele>
        <time>2020-02-01T12:58:35.000Z</time>
      </trkpt>
      <trkpt lat="42.84581" lon="0.48694">
        <ele>1990</ele>
        <time>2020-02-01T12:58:36.000Z</time>
      </trkpt>
      <trkpt lat="42.84581" lon="0.48694">
        <ele>1990</ele>
        <time>2020-02-01T12:58:37.000Z</time>
      </trkpt>
      <trkpt lat="42.84581" lon="0.48694">
        <ele>1990</ele>
        <time>2020-02-01T12:58:38.000Z</time>
      </trkpt>
      <trkpt lat="42.84581" lon="0.48694">
        <ele>1990</ele>
        <time>2020-02-01T12:58:39.000Z</time>
      </trkpt>
      <trkpt lat="42.84581" lon="0.48695">
        <ele>1990</ele>
        <time>2020-02-01T12:58:40.000Z</time>
      </trkpt>
      <trkpt lat="42.84581" lon="0.48696">
        <ele>1990</ele>
        <time>2020-02-01T12:58:41.000Z</time>
      </trkpt>
      <trkpt lat="42.84582" lon="0.48696">
        <ele>1990</ele>
        <time>2020-02-01T12:58:42.000Z</time>
      </trkpt>
      <trkpt lat="42.84582" lon="0.48697">
        <ele>1990</ele>
        <time>2020-02-01T12:58:43.000Z</time>
      </trkpt>
      <trkpt lat="42.84582" lon="0.48698">
        <ele>1990</ele>
        <time>2020-02-01T12:58:44.000Z</time>
      </trkpt>
      <trkpt lat="42.84583" lon="0.48699">
        <ele>1990</ele>
        <time>2020-02-01T12:58:45.000Z</time>
      </trkpt>
      <trkpt lat="42.84583" lon="0.487">
        <ele>1990</ele>
        <time>2020-02-01T12:58:46.000Z</time>
      </trkpt>
      <trkpt lat="42.84583" lon="0.48702">
        <ele>1989.7</ele>
        <time>2020-02-01T12:58:47.000Z</time>
      </trkpt>
      <trkpt lat="42.84583" lon="0.48703">
        <ele>1989.3</ele>
        <time>2020-02-01T12:58:48.000Z</time>
      </trkpt>
      <trkpt lat="42.84584" lon="0.48704">
        <ele>1989</ele>
        <time>2020-02-01T12:58:49.000Z</time>
      </trkpt>
      <trkpt lat="42.84584" lon="0.48705">
        <ele>1988</ele>
        <time>2020-02-01T12:58:50.000Z</time>
      </trkpt>
      <trkpt lat="42.84584" lon="0.48706">
        <ele>1988</ele>
        <time>2020-02-01T12:58:51.000Z</time>
      </trkpt>
      <trkpt lat="42.84584" lon="0.48707">
        <ele>1988</ele>
        <time>2020-02-01T12:58:52.000Z</time>
      </trkpt>
      <trkpt lat="42.84585" lon="0.48709">
        <ele>1988</ele>
        <time>2020-02-01T12:58:53.000Z</time>
      </trkpt>
      <trkpt lat="42.84585" lon="0.4871">
        <ele>1988</ele>
        <time>2020-02-01T12:58:54.000Z</time>
      </trkpt>
      <trkpt lat="42.84585" lon="0.48711">
        <ele>1987.7</ele>
        <time>2020-02-01T12:58:55.000Z</time>
      </trkpt>
      <trkpt lat="42.84585" lon="0.48712">
        <ele>1987.3</ele>
        <time>2020-02-01T12:58:56.000Z</time>
      </trkpt>
      <trkpt lat="42.84586" lon="0.48713">
        <ele>1987</ele>
        <time>2020-02-01T12:58:57.000Z</time>
      </trkpt>
      <trkpt lat="42.84586" lon="0.48715">
        <ele>1987</ele>
        <time>2020-02-01T12:58:58.000Z</time>
      </trkpt>
      <trkpt lat="42.84586" lon="0.48716">
        <ele>1987</ele>
        <time>2020-02-01T12:58:59.000Z</time>
      </trkpt>
      <trkpt lat="42.84587" lon="0.48717">
        <ele>1987</ele>
        <time>2020-02-01T12:59:00.000Z</time>
      </trkpt>
      <trkpt lat="42.84587" lon="0.48718">
        <ele>1987</ele>
        <time>2020-02-01T12:59:01.000Z</time>
      </trkpt>
      <trkpt lat="42.84587" lon="0.48719">
        <ele>1986</ele>
        <time>2020-02-01T12:59:02.000Z</time>
      </trkpt>
      <trkpt lat="42.84588" lon="0.48721">
        <ele>1986</ele>
        <time>2020-02-01T12:59:03.000Z</time>
      </trkpt>
      <trkpt lat="42.84588" lon="0.48722">
        <ele>1986</ele>
        <time>2020-02-01T12:59:04.000Z</time>
      </trkpt>
      <trkpt lat="42.84588" lon="0.48723">
        <ele>1986</ele>
        <time>2020-02-01T12:59:05.000Z</time>
      </trkpt>
      <trkpt lat="42.84589" lon="0.48724">
        <ele>1986</ele>
        <time>2020-02-01T12:59:06.000Z</time>
      </trkpt>
      <trkpt lat="42.84589" lon="0.48725">
        <ele>1985.7</ele>
        <time>2020-02-01T12:59:07.000Z</time>
      </trkpt>
      <trkpt lat="42.8459" lon="0.48726">
        <ele>1985.3</ele>
        <time>2020-02-01T12:59:08.000Z</time>
      </trkpt>
      <trkpt lat="42.8459" lon="0.48728">
        <ele>1985</ele>
        <time>2020-02-01T12:59:09.000Z</time>
      </trkpt>
      <trkpt lat="42.84591" lon="0.48729">
        <ele>1985</ele>
        <time>2020-02-01T12:59:10.000Z</time>
      </trkpt>
      <trkpt lat="42.84591" lon="0.4873">
        <ele>1984.7</ele>
        <time>2020-02-01T12:59:11.000Z</time>
      </trkpt>
      <trkpt lat="42.84592" lon="0.48731">
        <ele>1984.3</ele>
        <time>2020-02-01T12:59:12.000Z</time>
      </trkpt>
      <trkpt lat="42.84592" lon="0.48732">
        <ele>1984</ele>
        <time>2020-02-01T12:59:13.000Z</time>
      </trkpt>
      <trkpt lat="42.84593" lon="0.48733">
        <ele>1984</ele>
        <time>2020-02-01T12:59:14.000Z</time>
      </trkpt>
      <trkpt lat="42.84594" lon="0.48734">
        <ele>1984</ele>
        <time>2020-02-01T12:59:15.000Z</time>
      </trkpt>
      <trkpt lat="42.84594" lon="0.48735">
        <ele>1984</ele>
        <time>2020-02-01T12:59:16.000Z</time>
      </trkpt>
      <trkpt lat="42.84595" lon="0.48736">
        <ele>1984</ele>
        <time>2020-02-01T12:59:17.000Z</time>
      </trkpt>
      <trkpt lat="42.84595" lon="0.48737">
        <ele>1984</ele>
        <time>2020-02-01T12:59:18.000Z</time>
      </trkpt>
      <trkpt lat="42.84596" lon="0.48738">
        <ele>1984</ele>
        <time>2020-02-01T12:59:19.000Z</time>
      </trkpt>
      <trkpt lat="42.84597" lon="0.48739">
        <ele>1983.5</ele>
        <time>2020-02-01T12:59:20.000Z</time>
      </trkpt>
      <trkpt lat="42.84597" lon="0.4874">
        <ele>1983</ele>
        <time>2020-02-01T12:59:21.000Z</time>
      </trkpt>
      <trkpt lat="42.84598" lon="0.48741">
        <ele>1983</ele>
        <time>2020-02-01T12:59:22.000Z</time>
      </trkpt>
      <trkpt lat="42.84598" lon="0.48742">
        <ele>1982.7</ele>
        <time>2020-02-01T12:59:23.000Z</time>
      </trkpt>
      <trkpt lat="42.84599" lon="0.48743">
        <ele>1982.3</ele>
        <time>2020-02-01T12:59:24.000Z</time>
      </trkpt>
      <trkpt lat="42.846" lon="0.48744">
        <ele>1982</ele>
        <time>2020-02-01T12:59:25.000Z</time>
      </trkpt>
      <trkpt lat="42.846" lon="0.48745">
        <ele>1982</ele>
        <time>2020-02-01T12:59:26.000Z</time>
      </trkpt>
      <trkpt lat="42.846" lon="0.48746">
        <ele>1981.7</ele>
        <time>2020-02-01T12:59:27.000Z</time>
      </trkpt>
      <trkpt lat="42.84601" lon="0.48747">
        <ele>1981.3</ele>
        <time>2020-02-01T12:59:28.000Z</time>
      </trkpt>
      <trkpt lat="42.84601" lon="0.48748">
        <ele>1981</ele>
        <time>2020-02-01T12:59:29.000Z</time>
      </trkpt>
      <trkpt lat="42.84602" lon="0.48748">
        <ele>1981</ele>
        <time>2020-02-01T12:59:30.000Z</time>
      </trkpt>
      <trkpt lat="42.84602" lon="0.4875">
        <ele>1981</ele>
        <time>2020-02-01T12:59:31.000Z</time>
      </trkpt>
      <trkpt lat="42.84603" lon="0.48751">
        <ele>1981</ele>
        <time>2020-02-01T12:59:32.000Z</time>
      </trkpt>
      <trkpt lat="42.84604" lon="0.48752">
        <ele>1981</ele>
        <time>2020-02-01T12:59:33.000Z</time>
      </trkpt>
      <trkpt lat="42.84605" lon="0.48753">
        <ele>1981</ele>
        <time>2020-02-01T12:59:34.000Z</time>
      </trkpt>
      <trkpt lat="42.84606" lon="0.48754">
        <ele>1980.7</ele>
        <time>2020-02-01T12:59:35.000Z</time>
      </trkpt>
      <trkpt lat="42.84606" lon="0.48755">
        <ele>1980.3</ele>
        <time>2020-02-01T12:59:36.000Z</time>
      </trkpt>
      <trkpt lat="42.84607" lon="0.48756">
        <ele>1980</ele>
        <time>2020-02-01T12:59:37.000Z</time>
      </trkpt>
      <trkpt lat="42.84607" lon="0.48757">
        <ele>1980</ele>
        <time>2020-02-01T12:59:38.000Z</time>
      </trkpt>
      <trkpt lat="42.84608" lon="0.48758">
        <ele>1979.7</ele>
        <time>2020-02-01T12:59:39.000Z</time>
      </trkpt>
      <trkpt lat="42.84608" lon="0.48759">
        <ele>1979.3</ele>
        <time>2020-02-01T12:59:40.000Z</time>
      </trkpt>
      <trkpt lat="42.84609" lon="0.4876">
        <ele>1979</ele>
        <time>2020-02-01T12:59:41.000Z</time>
      </trkpt>
      <trkpt lat="42.8461" lon="0.48761">
        <ele>1978.5</ele>
        <time>2020-02-01T12:59:42.000Z</time>
      </trkpt>
      <trkpt lat="42.8461" lon="0.48762">
        <ele>1978</ele>
        <time>2020-02-01T12:59:43.000Z</time>
      </trkpt>
      <trkpt lat="42.84611" lon="0.48763">
        <ele>1978</ele>
        <time>2020-02-01T12:59:44.000Z</time>
      </trkpt>
      <trkpt lat="42.84611" lon="0.48764">
        <ele>1977.7</ele>
        <time>2020-02-01T12:59:45.000Z</time>
      </trkpt>
      <trkpt lat="42.84612" lon="0.48765">
        <ele>1977.3</ele>
        <time>2020-02-01T12:59:46.000Z</time>
      </trkpt>
      <trkpt lat="42.84612" lon="0.48766">
        <ele>1977</ele>
        <time>2020-02-01T12:59:47.000Z</time>
      </trkpt>
      <trkpt lat="42.84613" lon="0.48767">
        <ele>1977</ele>
        <time>2020-02-01T12:59:48.000Z</time>
      </trkpt>
      <trkpt lat="42.84613" lon="0.48768">
        <ele>1977</ele>
        <time>2020-02-01T12:59:49.000Z</time>
      </trkpt>
      <trkpt lat="42.84613" lon="0.48769">
        <ele>1976.5</ele>
        <time>2020-02-01T12:59:50.000Z</time>
      </trkpt>
      <trkpt lat="42.84614" lon="0.4877">
        <ele>1976</ele>
        <time>2020-02-01T12:59:51.000Z</time>
      </trkpt>
      <trkpt lat="42.84614" lon="0.48771">
        <ele>1976</ele>
        <time>2020-02-01T12:59:52.000Z</time>
      </trkpt>
      <trkpt lat="42.84615" lon="0.48772">
        <ele>1976</ele>
        <time>2020-02-01T12:59:53.000Z</time>
      </trkpt>
      <trkpt lat="42.84615" lon="0.48773">
        <ele>1976</ele>
        <time>2020-02-01T12:59:54.000Z</time>
      </trkpt>
      <trkpt lat="42.84616" lon="0.48774">
        <ele>1976</ele>
        <time>2020-02-01T12:59:55.000Z</time>
      </trkpt>
      <trkpt lat="42.84616" lon="0.48776">
        <ele>1975</ele>
        <time>2020-02-01T12:59:56.000Z</time>
      </trkpt>
      <trkpt lat="42.84617" lon="0.48777">
        <ele>1975</ele>
        <time>2020-02-01T12:59:57.000Z</time>
      </trkpt>
      <trkpt lat="42.84617" lon="0.48779">
        <ele>1975</ele>
        <time>2020-02-01T12:59:58.000Z</time>
      </trkpt>
      <trkpt lat="42.84618" lon="0.4878">
        <ele>1975</ele>
        <time>2020-02-01T12:59:59.000Z</time>
      </trkpt>
      <trkpt lat="42.84618" lon="0.48782">
        <ele>1974.5</ele>
        <time>2020-02-01T13:00:00.000Z</time>
      </trkpt>
      <trkpt lat="42.84619" lon="0.48783">
        <ele>1974</ele>
        <time>2020-02-01T13:00:01.000Z</time>
      </trkpt>
      <trkpt lat="42.8462" lon="0.48784">
        <ele>1974</ele>
        <time>2020-02-01T13:00:02.000Z</time>
      </trkpt>
      <trkpt lat="42.8462" lon="0.48785">
        <ele>1974</ele>
        <time>2020-02-01T13:00:03.000Z</time>
      </trkpt>
      <trkpt lat="42.84621" lon="0.48786">
        <ele>1974</ele>
        <time>2020-02-01T13:00:04.000Z</time>
      </trkpt>
      <trkpt lat="42.84622" lon="0.48788">
        <ele>1974</ele>
        <time>2020-02-01T13:00:05.000Z</time>
      </trkpt>
      <trkpt lat="42.84622" lon="0.48789">
        <ele>1973</ele>
        <time>2020-02-01T13:00:06.000Z</time>
      </trkpt>
      <trkpt lat="42.84623" lon="0.4879">
        <ele>1972.7</ele>
        <time>2020-02-01T13:00:07.000Z</time>
      </trkpt>
      <trkpt lat="42.84623" lon="0.48791">
        <ele>1972.3</ele>
        <time>2020-02-01T13:00:08.000Z</time>
      </trkpt>
      <trkpt lat="42.84624" lon="0.48792">
        <ele>1972</ele>
        <time>2020-02-01T13:00:09.000Z</time>
      </trkpt>
      <trkpt lat="42.84625" lon="0.48793">
        <ele>1972</ele>
        <time>2020-02-01T13:00:10.000Z</time>
      </trkpt>
      <trkpt lat="42.84626" lon="0.48795">
        <ele>1972</ele>
        <time>2020-02-01T13:00:11.000Z</time>
      </trkpt>
      <trkpt lat="42.84626" lon="0.48796">
        <ele>1972</ele>
        <time>2020-02-01T13:00:12.000Z</time>
      </trkpt>
      <trkpt lat="42.84627" lon="0.48796">
        <ele>1972</ele>
        <time>2020-02-01T13:00:13.000Z</time>
      </trkpt>
      <trkpt lat="42.84627" lon="0.48797">
        <ele>1971.5</ele>
        <time>2020-02-01T13:00:14.000Z</time>
      </trkpt>
      <trkpt lat="42.84628" lon="0.48798">
        <ele>1971</ele>
        <time>2020-02-01T13:00:15.000Z</time>
      </trkpt>
      <trkpt lat="42.84628" lon="0.488">
        <ele>1971</ele>
        <time>2020-02-01T13:00:16.000Z</time>
      </trkpt>
      <trkpt lat="42.84629" lon="0.48801">
        <ele>1970.7</ele>
        <time>2020-02-01T13:00:17.000Z</time>
      </trkpt>
      <trkpt lat="42.84629" lon="0.48802">
        <ele>1970.3</ele>
        <time>2020-02-01T13:00:18.000Z</time>
      </trkpt>
      <trkpt lat="42.84629" lon="0.48803">
        <ele>1970</ele>
        <time>2020-02-01T13:00:19.000Z</time>
      </trkpt>
      <trkpt lat="42.8463" lon="0.48804">
        <ele>1970</ele>
        <time>2020-02-01T13:00:20.000Z</time>
      </trkpt>
      <trkpt lat="42.8463" lon="0.48806">
        <ele>1970</ele>
        <time>2020-02-01T13:00:21.000Z</time>
      </trkpt>
      <trkpt lat="42.84631" lon="0.48807">
        <ele>1970</ele>
        <time>2020-02-01T13:00:22.000Z</time>
      </trkpt>
      <trkpt lat="42.84631" lon="0.48808">
        <ele>1969.7</ele>
        <time>2020-02-01T13:00:23.000Z</time>
      </trkpt>
      <trkpt lat="42.84632" lon="0.48809">
        <ele>1969.3</ele>
        <time>2020-02-01T13:00:24.000Z</time>
      </trkpt>
      <trkpt lat="42.84633" lon="0.4881">
        <ele>1969</ele>
        <time>2020-02-01T13:00:25.000Z</time>
      </trkpt>
      <trkpt lat="42.84634" lon="0.48812">
        <ele>1969</ele>
        <time>2020-02-01T13:00:26.000Z</time>
      </trkpt>
      <trkpt lat="42.84634" lon="0.48813">
        <ele>1969</ele>
        <time>2020-02-01T13:00:27.000Z</time>
      </trkpt>
      <trkpt lat="42.84635" lon="0.48814">
        <ele>1968</ele>
        <time>2020-02-01T13:00:28.000Z</time>
      </trkpt>
      <trkpt lat="42.84635" lon="0.48815">
        <ele>1968</ele>
        <time>2020-02-01T13:00:29.000Z</time>
      </trkpt>
      <trkpt lat="42.84636" lon="0.48816">
        <ele>1968</ele>
        <time>2020-02-01T13:00:30.000Z</time>
      </trkpt>
      <trkpt lat="42.84636" lon="0.48817">
        <ele>1968</ele>
        <time>2020-02-01T13:00:31.000Z</time>
      </trkpt>
      <trkpt lat="42.84637" lon="0.48819">
        <ele>1967</ele>
        <time>2020-02-01T13:00:32.000Z</time>
      </trkpt>
      <trkpt lat="42.84637" lon="0.4882">
        <ele>1967</ele>
        <time>2020-02-01T13:00:33.000Z</time>
      </trkpt>
      <trkpt lat="42.84637" lon="0.48821">
        <ele>1967</ele>
        <time>2020-02-01T13:00:34.000Z</time>
      </trkpt>
      <trkpt lat="42.84638" lon="0.48822">
        <ele>1967</ele>
        <time>2020-02-01T13:00:35.000Z</time>
      </trkpt>
      <trkpt lat="42.84638" lon="0.48823">
        <ele>1966</ele>
        <time>2020-02-01T13:00:36.000Z</time>
      </trkpt>
      <trkpt lat="42.84638" lon="0.48824">
        <ele>1966</ele>
        <time>2020-02-01T13:00:37.000Z</time>
      </trkpt>
      <trkpt lat="42.84639" lon="0.48825">
        <ele>1966</ele>
        <time>2020-02-01T13:00:38.000Z</time>
      </trkpt>
      <trkpt lat="42.84639" lon="0.48826">
        <ele>1966</ele>
        <time>2020-02-01T13:00:39.000Z</time>
      </trkpt>
      <trkpt lat="42.84639" lon="0.48827">
        <ele>1965</ele>
        <time>2020-02-01T13:00:40.000Z</time>
      </trkpt>
      <trkpt lat="42.8464" lon="0.48829">
        <ele>1965</ele>
        <time>2020-02-01T13:00:41.000Z</time>
      </trkpt>
      <trkpt lat="42.8464" lon="0.4883">
        <ele>1965</ele>
        <time>2020-02-01T13:00:42.000Z</time>
      </trkpt>
      <trkpt lat="42.8464" lon="0.48831">
        <ele>1965</ele>
        <time>2020-02-01T13:00:43.000Z</time>
      </trkpt>
      <trkpt lat="42.84641" lon="0.48832">
        <ele>1964</ele>
        <time>2020-02-01T13:00:44.000Z</time>
      </trkpt>
      <trkpt lat="42.84641" lon="0.48833">
        <ele>1964</ele>
        <time>2020-02-01T13:00:45.000Z</time>
      </trkpt>
      <trkpt lat="42.84642" lon="0.48834">
        <ele>1964</ele>
        <time>2020-02-01T13:00:46.000Z</time>
      </trkpt>
      <trkpt lat="42.84642" lon="0.48836">
        <ele>1964</ele>
        <time>2020-02-01T13:00:47.000Z</time>
      </trkpt>
      <trkpt lat="42.84643" lon="0.48837">
        <ele>1963</ele>
        <time>2020-02-01T13:00:48.000Z</time>
      </trkpt>
      <trkpt lat="42.84643" lon="0.48838">
        <ele>1963</ele>
        <time>2020-02-01T13:00:49.000Z</time>
      </trkpt>
      <trkpt lat="42.84644" lon="0.48839">
        <ele>1963</ele>
        <time>2020-02-01T13:00:50.000Z</time>
      </trkpt>
      <trkpt lat="42.84644" lon="0.4884">
        <ele>1963</ele>
        <time>2020-02-01T13:00:51.000Z</time>
      </trkpt>
      <trkpt lat="42.84645" lon="0.48842">
        <ele>1962</ele>
        <time>2020-02-01T13:00:52.000Z</time>
      </trkpt>
      <trkpt lat="42.84645" lon="0.48843">
        <ele>1962</ele>
        <time>2020-02-01T13:00:53.000Z</time>
      </trkpt>
      <trkpt lat="42.84646" lon="0.48844">
        <ele>1962</ele>
        <time>2020-02-01T13:00:54.000Z</time>
      </trkpt>
      <trkpt lat="42.84647" lon="0.48845">
        <ele>1962</ele>
        <time>2020-02-01T13:00:55.000Z</time>
      </trkpt>
      <trkpt lat="42.84647" lon="0.48847">
        <ele>1961</ele>
        <time>2020-02-01T13:00:56.000Z</time>
      </trkpt>
      <trkpt lat="42.84648" lon="0.48848">
        <ele>1961</ele>
        <time>2020-02-01T13:00:57.000Z</time>
      </trkpt>
      <trkpt lat="42.84649" lon="0.48849">
        <ele>1961</ele>
        <time>2020-02-01T13:00:58.000Z</time>
      </trkpt>
      <trkpt lat="42.84649" lon="0.4885">
        <ele>1961</ele>
        <time>2020-02-01T13:00:59.000Z</time>
      </trkpt>
      <trkpt lat="42.8465" lon="0.48851">
        <ele>1960.5</ele>
        <time>2020-02-01T13:01:00.000Z</time>
      </trkpt>
      <trkpt lat="42.8465" lon="0.48852">
        <ele>1960</ele>
        <time>2020-02-01T13:01:01.000Z</time>
      </trkpt>
      <trkpt lat="42.8465" lon="0.48853">
        <ele>1960</ele>
        <time>2020-02-01T13:01:02.000Z</time>
      </trkpt>
      <trkpt lat="42.84651" lon="0.48855">
        <ele>1959.7</ele>
        <time>2020-02-01T13:01:03.000Z</time>
      </trkpt>
      <trkpt lat="42.84651" lon="0.48857">
        <ele>1959.3</ele>
        <time>2020-02-01T13:01:04.000Z</time>
      </trkpt>
      <trkpt lat="42.84651" lon="0.48858">
        <ele>1959</ele>
        <time>2020-02-01T13:01:05.000Z</time>
      </trkpt>
      <trkpt lat="42.84651" lon="0.48859">
        <ele>1959</ele>
        <time>2020-02-01T13:01:06.000Z</time>
      </trkpt>
      <trkpt lat="42.84652" lon="0.4886">
        <ele>1959</ele>
        <time>2020-02-01T13:01:07.000Z</time>
      </trkpt>
      <trkpt lat="42.84652" lon="0.48861">
        <ele>1959</ele>
        <time>2020-02-01T13:01:08.000Z</time>
      </trkpt>
      <trkpt lat="42.84652" lon="0.48862">
        <ele>1959</ele>
        <time>2020-02-01T13:01:09.000Z</time>
      </trkpt>
      <trkpt lat="42.84653" lon="0.48863">
        <ele>1959</ele>
        <time>2020-02-01T13:01:10.000Z</time>
      </trkpt>
      <trkpt lat="42.84653" lon="0.48864">
        <ele>1959</ele>
        <time>2020-02-01T13:01:11.000Z</time>
      </trkpt>
      <trkpt lat="42.84653" lon="0.48865">
        <ele>1958</ele>
        <time>2020-02-01T13:01:12.000Z</time>
      </trkpt>
      <trkpt lat="42.84654" lon="0.48867">
        <ele>1957.7</ele>
        <time>2020-02-01T13:01:13.000Z</time>
      </trkpt>
      <trkpt lat="42.84654" lon="0.48868">
        <ele>1957.3</ele>
        <time>2020-02-01T13:01:14.000Z</time>
      </trkpt>
      <trkpt lat="42.84655" lon="0.48869">
        <ele>1957</ele>
        <time>2020-02-01T13:01:15.000Z</time>
      </trkpt>
      <trkpt lat="42.84655" lon="0.48871">
        <ele>1956</ele>
        <time>2020-02-01T13:01:16.000Z</time>
      </trkpt>
      <trkpt lat="42.84655" lon="0.48872">
        <ele>1956</ele>
        <time>2020-02-01T13:01:17.000Z</time>
      </trkpt>
      <trkpt lat="42.84656" lon="0.48873">
        <ele>1956</ele>
        <time>2020-02-01T13:01:18.000Z</time>
      </trkpt>
      <trkpt lat="42.84656" lon="0.48875">
        <ele>1956</ele>
        <time>2020-02-01T13:01:19.000Z</time>
      </trkpt>
      <trkpt lat="42.84656" lon="0.48876">
        <ele>1955</ele>
        <time>2020-02-01T13:01:20.000Z</time>
      </trkpt>
      <trkpt lat="42.84657" lon="0.48877">
        <ele>1955</ele>
        <time>2020-02-01T13:01:21.000Z</time>
      </trkpt>
      <trkpt lat="42.84657" lon="0.48878">
        <ele>1955</ele>
        <time>2020-02-01T13:01:22.000Z</time>
      </trkpt>
      <trkpt lat="42.84657" lon="0.48879">
        <ele>1955</ele>
        <time>2020-02-01T13:01:23.000Z</time>
      </trkpt>
      <trkpt lat="42.84658" lon="0.4888">
        <ele>1954.5</ele>
        <time>2020-02-01T13:01:24.000Z</time>
      </trkpt>
      <trkpt lat="42.84658" lon="0.4888">
        <ele>1954</ele>
        <time>2020-02-01T13:01:25.000Z</time>
      </trkpt>
      <trkpt lat="42.84658" lon="0.48881">
        <ele>1954</ele>
        <time>2020-02-01T13:01:26.000Z</time>
      </trkpt>
      <trkpt lat="42.84659" lon="0.48882">
        <ele>1954</ele>
        <time>2020-02-01T13:01:27.000Z</time>
      </trkpt>
      <trkpt lat="42.84659" lon="0.48883">
        <ele>1954</ele>
        <time>2020-02-01T13:01:28.000Z</time>
      </trkpt>
      <trkpt lat="42.84659" lon="0.48884">
        <ele>1954</ele>
        <time>2020-02-01T13:01:29.000Z</time>
      </trkpt>
      <trkpt lat="42.8466" lon="0.48885">
        <ele>1953.5</ele>
        <time>2020-02-01T13:01:30.000Z</time>
      </trkpt>
      <trkpt lat="42.8466" lon="0.48886">
        <ele>1953</ele>
        <time>2020-02-01T13:01:31.000Z</time>
      </trkpt>
      <trkpt lat="42.8466" lon="0.48888">
        <ele>1953</ele>
        <time>2020-02-01T13:01:32.000Z</time>
      </trkpt>
      <trkpt lat="42.84661" lon="0.48889">
        <ele>1952.7</ele>
        <time>2020-02-01T13:01:33.000Z</time>
      </trkpt>
      <trkpt lat="42.84661" lon="0.4889">
        <ele>1952.3</ele>
        <time>2020-02-01T13:01:34.000Z</time>
      </trkpt>
      <trkpt lat="42.84661" lon="0.48891">
        <ele>1952</ele>
        <time>2020-02-01T13:01:35.000Z</time>
      </trkpt>
      <trkpt lat="42.84661" lon="0.48893">
        <ele>1952</ele>
        <time>2020-02-01T13:01:36.000Z</time>
      </trkpt>
      <trkpt lat="42.84662" lon="0.48894">
        <ele>1952</ele>
        <time>2020-02-01T13:01:37.000Z</time>
      </trkpt>
      <trkpt lat="42.84662" lon="0.48895">
        <ele>1952</ele>
        <time>2020-02-01T13:01:38.000Z</time>
      </trkpt>
      <trkpt lat="42.84662" lon="0.48897">
        <ele>1951.7</ele>
        <time>2020-02-01T13:01:39.000Z</time>
      </trkpt>
      <trkpt lat="42.84662" lon="0.48898">
        <ele>1951.3</ele>
        <time>2020-02-01T13:01:40.000Z</time>
      </trkpt>
      <trkpt lat="42.84662" lon="0.48899">
        <ele>1951</ele>
        <time>2020-02-01T13:01:41.000Z</time>
      </trkpt>
      <trkpt lat="42.84662" lon="0.489">
        <ele>1951</ele>
        <time>2020-02-01T13:01:42.000Z</time>
      </trkpt>
      <trkpt lat="42.84663" lon="0.48901">
        <ele>1951</ele>
        <time>2020-02-01T13:01:43.000Z</time>
      </trkpt>
      <trkpt lat="42.84663" lon="0.48902">
        <ele>1950</ele>
        <time>2020-02-01T13:01:44.000Z</time>
      </trkpt>
      <trkpt lat="42.84663" lon="0.48904">
        <ele>1950</ele>
        <time>2020-02-01T13:01:45.000Z</time>
      </trkpt>
      <trkpt lat="42.84663" lon="0.48905">
        <ele>1950</ele>
        <time>2020-02-01T13:01:46.000Z</time>
      </trkpt>
      <trkpt lat="42.84663" lon="0.48906">
        <ele>1950</ele>
        <time>2020-02-01T13:01:47.000Z</time>
      </trkpt>
      <trkpt lat="42.84664" lon="0.48907">
        <ele>1950</ele>
        <time>2020-02-01T13:01:48.000Z</time>
      </trkpt>
      <trkpt lat="42.84664" lon="0.48908">
        <ele>1950</ele>
        <time>2020-02-01T13:01:49.000Z</time>
      </trkpt>
      <trkpt lat="42.84664" lon="0.48909">
        <ele>1950</ele>
        <time>2020-02-01T13:01:50.000Z</time>
      </trkpt>
      <trkpt lat="42.84665" lon="0.4891">
        <ele>1950</ele>
        <time>2020-02-01T13:01:51.000Z</time>
      </trkpt>
      <trkpt lat="42.84665" lon="0.48912">
        <ele>1950</ele>
        <time>2020-02-01T13:01:52.000Z</time>
      </trkpt>
      <trkpt lat="42.84665" lon="0.48913">
        <ele>1950</ele>
        <time>2020-02-01T13:01:53.000Z</time>
      </trkpt>
      <trkpt lat="42.84666" lon="0.48914">
        <ele>1949</ele>
        <time>2020-02-01T13:01:54.000Z</time>
      </trkpt>
      <trkpt lat="42.84666" lon="0.48915">
        <ele>1949</ele>
        <time>2020-02-01T13:01:55.000Z</time>
      </trkpt>
      <trkpt lat="42.84667" lon="0.48917">
        <ele>1949</ele>
        <time>2020-02-01T13:01:56.000Z</time>
      </trkpt>
      <trkpt lat="42.84667" lon="0.48918">
        <ele>1949</ele>
        <time>2020-02-01T13:01:57.000Z</time>
      </trkpt>
      <trkpt lat="42.84667" lon="0.48919">
        <ele>1949</ele>
        <time>2020-02-01T13:01:58.000Z</time>
      </trkpt>
      <trkpt lat="42.84668" lon="0.4892">
        <ele>1949</ele>
        <time>2020-02-01T13:01:59.000Z</time>
      </trkpt>
      <trkpt lat="42.84668" lon="0.48921">
        <ele>1949</ele>
        <time>2020-02-01T13:02:00.000Z</time>
      </trkpt>
      <trkpt lat="42.84668" lon="0.48921">
        <ele>1949</ele>
        <time>2020-02-01T13:02:01.000Z</time>
      </trkpt>
      <trkpt lat="42.84668" lon="0.48922">
        <ele>1949</ele>
        <time>2020-02-01T13:02:02.000Z</time>
      </trkpt>
      <trkpt lat="42.84669" lon="0.48922">
        <ele>1949</ele>
        <time>2020-02-01T13:02:03.000Z</time>
      </trkpt>
      <trkpt lat="42.84669" lon="0.48922">
        <ele>1949</ele>
        <time>2020-02-01T13:02:04.000Z</time>
      </trkpt>
      <trkpt lat="42.84669" lon="0.48922">
        <ele>1949</ele>
        <time>2020-02-01T13:02:05.000Z</time>
      </trkpt>
      <trkpt lat="42.84669" lon="0.48922">
        <ele>1949</ele>
        <time>2020-02-01T13:02:06.000Z</time>
      </trkpt>
      <trkpt lat="42.84669" lon="0.48922">
        <ele>1949</ele>
        <time>2020-02-01T13:02:07.000Z</time>
      </trkpt>
      <trkpt lat="42.84669" lon="0.48922">
        <ele>1949</ele>
        <time>2020-02-01T13:02:08.000Z</time>
      </trkpt>
      <trkpt lat="42.84669" lon="0.48922">
        <ele>1949</ele>
        <time>2020-02-01T13:02:09.000Z</time>
      </trkpt>
      <trkpt lat="42.84669" lon="0.48922">
        <ele>1949</ele>
        <time>2020-02-01T13:02:10.000Z</time>
      </trkpt>
      <trkpt lat="42.84669" lon="0.48923">
        <ele>1949</ele>
        <time>2020-02-01T13:02:11.000Z</time>
      </trkpt>
      <trkpt lat="42.84669" lon="0.48923">
        <ele>1948</ele>
        <time>2020-02-01T13:02:12.000Z</time>
      </trkpt>
      <trkpt lat="42.84669" lon="0.48923">
        <ele>1947.7</ele>
        <time>2020-02-01T13:02:13.000Z</time>
      </trkpt>
      <trkpt lat="42.84669" lon="0.48924">
        <ele>1947.3</ele>
        <time>2020-02-01T13:02:14.000Z</time>
      </trkpt>
      <trkpt lat="42.8467" lon="0.48925">
        <ele>1947</ele>
        <time>2020-02-01T13:02:15.000Z</time>
      </trkpt>
      <trkpt lat="42.8467" lon="0.48926">
        <ele>1947.5</ele>
        <time>2020-02-01T13:02:16.000Z</time>
      </trkpt>
      <trkpt lat="42.8467" lon="0.48927">
        <ele>1948</ele>
        <time>2020-02-01T13:02:17.000Z</time>
      </trkpt>
      <trkpt lat="42.84671" lon="0.48928">
        <ele>1947.5</ele>
        <time>2020-02-01T13:02:18.000Z</time>
      </trkpt>
      <trkpt lat="42.84671" lon="0.48929">
        <ele>1947</ele>
        <time>2020-02-01T13:02:19.000Z</time>
      </trkpt>
      <trkpt lat="42.84671" lon="0.48931">
        <ele>1946</ele>
        <time>2020-02-01T13:02:20.000Z</time>
      </trkpt>
      <trkpt lat="42.84672" lon="0.48932">
        <ele>1946</ele>
        <time>2020-02-01T13:02:21.000Z</time>
      </trkpt>
      <trkpt lat="42.84672" lon="0.48933">
        <ele>1946</ele>
        <time>2020-02-01T13:02:22.000Z</time>
      </trkpt>
      <trkpt lat="42.84672" lon="0.48935">
        <ele>1946</ele>
        <time>2020-02-01T13:02:23.000Z</time>
      </trkpt>
      <trkpt lat="42.84672" lon="0.48936">
        <ele>1945.5</ele>
        <time>2020-02-01T13:02:24.000Z</time>
      </trkpt>
      <trkpt lat="42.84673" lon="0.48937">
        <ele>1945</ele>
        <time>2020-02-01T13:02:25.000Z</time>
      </trkpt>
      <trkpt lat="42.84673" lon="0.48939">
        <ele>1945</ele>
        <time>2020-02-01T13:02:26.000Z</time>
      </trkpt>
      <trkpt lat="42.84673" lon="0.4894">
        <ele>1944.7</ele>
        <time>2020-02-01T13:02:27.000Z</time>
      </trkpt>
      <trkpt lat="42.84673" lon="0.48941">
        <ele>1944.3</ele>
        <time>2020-02-01T13:02:28.000Z</time>
      </trkpt>
      <trkpt lat="42.84674" lon="0.48942">
        <ele>1944</ele>
        <time>2020-02-01T13:02:29.000Z</time>
      </trkpt>
      <trkpt lat="42.84674" lon="0.48944">
        <ele>1944</ele>
        <time>2020-02-01T13:02:30.000Z</time>
      </trkpt>
      <trkpt lat="42.84674" lon="0.48945">
        <ele>1944</ele>
        <time>2020-02-01T13:02:31.000Z</time>
      </trkpt>
      <trkpt lat="42.84675" lon="0.48946">
        <ele>1944</ele>
        <time>2020-02-01T13:02:32.000Z</time>
      </trkpt>
      <trkpt lat="42.84675" lon="0.48947">
        <ele>1944.3</ele>
        <time>2020-02-01T13:02:33.000Z</time>
      </trkpt>
      <trkpt lat="42.84676" lon="0.48948">
        <ele>1944.7</ele>
        <time>2020-02-01T13:02:34.000Z</time>
      </trkpt>
      <trkpt lat="42.84676" lon="0.48949">
        <ele>1945</ele>
        <time>2020-02-01T13:02:35.000Z</time>
      </trkpt>
      <trkpt lat="42.84677" lon="0.4895">
        <ele>1945</ele>
        <time>2020-02-01T13:02:36.000Z</time>
      </trkpt>
      <trkpt lat="42.84677" lon="0.4895">
        <ele>1945</ele>
        <time>2020-02-01T13:02:37.000Z</time>
      </trkpt>
      <trkpt lat="42.84678" lon="0.48951">
        <ele>1945</ele>
        <time>2020-02-01T13:02:38.000Z</time>
      </trkpt>
      <trkpt lat="42.84679" lon="0.48952">
        <ele>1944.7</ele>
        <time>2020-02-01T13:02:39.000Z</time>
      </trkpt>
      <trkpt lat="42.84679" lon="0.48953">
        <ele>1944.3</ele>
        <time>2020-02-01T13:02:40.000Z</time>
      </trkpt>
      <trkpt lat="42.8468" lon="0.48954">
        <ele>1944</ele>
        <time>2020-02-01T13:02:41.000Z</time>
      </trkpt>
      <trkpt lat="42.84681" lon="0.48955">
        <ele>1944</ele>
        <time>2020-02-01T13:02:42.000Z</time>
      </trkpt>
      <trkpt lat="42.84681" lon="0.48956">
        <ele>1943.7</ele>
        <time>2020-02-01T13:02:43.000Z</time>
      </trkpt>
      <trkpt lat="42.84681" lon="0.48957">
        <ele>1943.3</ele>
        <time>2020-02-01T13:02:44.000Z</time>
      </trkpt>
      <trkpt lat="42.84681" lon="0.48959">
        <ele>1943</ele>
        <time>2020-02-01T13:02:45.000Z</time>
      </trkpt>
      <trkpt lat="42.84682" lon="0.4896">
        <ele>1942.5</ele>
        <time>2020-02-01T13:02:46.000Z</time>
      </trkpt>
      <trkpt lat="42.84682" lon="0.48961">
        <ele>1942</ele>
        <time>2020-02-01T13:02:47.000Z</time>
      </trkpt>
      <trkpt lat="42.84682" lon="0.48962">
        <ele>1942</ele>
        <time>2020-02-01T13:02:48.000Z</time>
      </trkpt>
      <trkpt lat="42.84682" lon="0.48963">
        <ele>1941.7</ele>
        <time>2020-02-01T13:02:49.000Z</time>
      </trkpt>
      <trkpt lat="42.84682" lon="0.48964">
        <ele>1941.3</ele>
        <time>2020-02-01T13:02:50.000Z</time>
      </trkpt>
      <trkpt lat="42.84683" lon="0.48965">
        <ele>1941</ele>
        <time>2020-02-01T13:02:51.000Z</time>
      </trkpt>
      <trkpt lat="42.84683" lon="0.48965">
        <ele>1941</ele>
        <time>2020-02-01T13:02:52.000Z</time>
      </trkpt>
      <trkpt lat="42.84683" lon="0.48966">
        <ele>1941</ele>
        <time>2020-02-01T13:02:53.000Z</time>
      </trkpt>
      <trkpt lat="42.84683" lon="0.48967">
        <ele>1941</ele>
        <time>2020-02-01T13:02:54.000Z</time>
      </trkpt>
      <trkpt lat="42.84684" lon="0.48968">
        <ele>1940.7</ele>
        <time>2020-02-01T13:02:55.000Z</time>
      </trkpt>
      <trkpt lat="42.84684" lon="0.48969">
        <ele>1940.3</ele>
        <time>2020-02-01T13:02:56.000Z</time>
      </trkpt>
      <trkpt lat="42.84685" lon="0.4897">
        <ele>1940</ele>
        <time>2020-02-01T13:02:57.000Z</time>
      </trkpt>
      <trkpt lat="42.84685" lon="0.48972">
        <ele>1940</ele>
        <time>2020-02-01T13:02:58.000Z</time>
      </trkpt>
      <trkpt lat="42.84685" lon="0.48973">
        <ele>1940</ele>
        <time>2020-02-01T13:02:59.000Z</time>
      </trkpt>
      <trkpt lat="42.84686" lon="0.48974">
        <ele>1939.5</ele>
        <time>2020-02-01T13:03:00.000Z</time>
      </trkpt>
      <trkpt lat="42.84686" lon="0.48976">
        <ele>1939</ele>
        <time>2020-02-01T13:03:01.000Z</time>
      </trkpt>
      <trkpt lat="42.84686" lon="0.48977">
        <ele>1939</ele>
        <time>2020-02-01T13:03:02.000Z</time>
      </trkpt>
      <trkpt lat="42.84686" lon="0.48978">
        <ele>1938.7</ele>
        <time>2020-02-01T13:03:03.000Z</time>
      </trkpt>
      <trkpt lat="42.84687" lon="0.48979">
        <ele>1938.3</ele>
        <time>2020-02-01T13:03:04.000Z</time>
      </trkpt>
      <trkpt lat="42.84687" lon="0.4898">
        <ele>1938</ele>
        <time>2020-02-01T13:03:05.000Z</time>
      </trkpt>
      <trkpt lat="42.84688" lon="0.48981">
        <ele>1937.5</ele>
        <time>2020-02-01T13:03:06.000Z</time>
      </trkpt>
      <trkpt lat="42.84689" lon="0.48982">
        <ele>1937</ele>
        <time>2020-02-01T13:03:07.000Z</time>
      </trkpt>
      <trkpt lat="42.8469" lon="0.48982">
        <ele>1937</ele>
        <time>2020-02-01T13:03:08.000Z</time>
      </trkpt>
      <trkpt lat="42.8469" lon="0.48983">
        <ele>1936.7</ele>
        <time>2020-02-01T13:03:09.000Z</time>
      </trkpt>
      <trkpt lat="42.84691" lon="0.48984">
        <ele>1936.3</ele>
        <time>2020-02-01T13:03:10.000Z</time>
      </trkpt>
      <trkpt lat="42.84692" lon="0.48984">
        <ele>1936</ele>
        <time>2020-02-01T13:03:11.000Z</time>
      </trkpt>
      <trkpt lat="42.84693" lon="0.48985">
        <ele>1935.5</ele>
        <time>2020-02-01T13:03:12.000Z</time>
      </trkpt>
      <trkpt lat="42.84694" lon="0.48986">
        <ele>1935</ele>
        <time>2020-02-01T13:03:13.000Z</time>
      </trkpt>
      <trkpt lat="42.84694" lon="0.48987">
        <ele>1934.5</ele>
        <time>2020-02-01T13:03:14.000Z</time>
      </trkpt>
      <trkpt lat="42.84695" lon="0.48988">
        <ele>1934</ele>
        <time>2020-02-01T13:03:15.000Z</time>
      </trkpt>
      <trkpt lat="42.84695" lon="0.4899">
        <ele>1934</ele>
        <time>2020-02-01T13:03:16.000Z</time>
      </trkpt>
      <trkpt lat="42.84696" lon="0.48991">
        <ele>1934</ele>
        <time>2020-02-01T13:03:17.000Z</time>
      </trkpt>
      <trkpt lat="42.84696" lon="0.48993">
        <ele>1934</ele>
        <time>2020-02-01T13:03:18.000Z</time>
      </trkpt>
      <trkpt lat="42.84696" lon="0.48994">
        <ele>1934</ele>
        <time>2020-02-01T13:03:19.000Z</time>
      </trkpt>
      <trkpt lat="42.84696" lon="0.48995">
        <ele>1934</ele>
        <time>2020-02-01T13:03:20.000Z</time>
      </trkpt>
      <trkpt lat="42.84697" lon="0.48997">
        <ele>1933.7</ele>
        <time>2020-02-01T13:03:21.000Z</time>
      </trkpt>
      <trkpt lat="42.84697" lon="0.48998">
        <ele>1933.3</ele>
        <time>2020-02-01T13:03:22.000Z</time>
      </trkpt>
      <trkpt lat="42.84697" lon="0.48999">
        <ele>1933</ele>
        <time>2020-02-01T13:03:23.000Z</time>
      </trkpt>
      <trkpt lat="42.84697" lon="0.49001">
        <ele>1933</ele>
        <time>2020-02-01T13:03:24.000Z</time>
      </trkpt>
      <trkpt lat="42.84698" lon="0.49002">
        <ele>1933</ele>
        <time>2020-02-01T13:03:25.000Z</time>
      </trkpt>
      <trkpt lat="42.84698" lon="0.49003">
        <ele>1932</ele>
        <time>2020-02-01T13:03:26.000Z</time>
      </trkpt>
      <trkpt lat="42.84698" lon="0.49004">
        <ele>1932</ele>
        <time>2020-02-01T13:03:27.000Z</time>
      </trkpt>
      <trkpt lat="42.84699" lon="0.49006">
        <ele>1932</ele>
        <time>2020-02-01T13:03:28.000Z</time>
      </trkpt>
      <trkpt lat="42.84699" lon="0.49007">
        <ele>1932</ele>
        <time>2020-02-01T13:03:29.000Z</time>
      </trkpt>
      <trkpt lat="42.847" lon="0.49008">
        <ele>1931.5</ele>
        <time>2020-02-01T13:03:30.000Z</time>
      </trkpt>
      <trkpt lat="42.847" lon="0.49009">
        <ele>1931</ele>
        <time>2020-02-01T13:03:31.000Z</time>
      </trkpt>
      <trkpt lat="42.84701" lon="0.4901">
        <ele>1931</ele>
        <time>2020-02-01T13:03:32.000Z</time>
      </trkpt>
      <trkpt lat="42.84701" lon="0.49011">
        <ele>1930.7</ele>
        <time>2020-02-01T13:03:33.000Z</time>
      </trkpt>
      <trkpt lat="42.84702" lon="0.49013">
        <ele>1930.3</ele>
        <time>2020-02-01T13:03:34.000Z</time>
      </trkpt>
      <trkpt lat="42.84702" lon="0.49014">
        <ele>1930</ele>
        <time>2020-02-01T13:03:35.000Z</time>
      </trkpt>
      <trkpt lat="42.84702" lon="0.49015">
        <ele>1930</ele>
        <time>2020-02-01T13:03:36.000Z</time>
      </trkpt>
      <trkpt lat="42.84703" lon="0.49016">
        <ele>1929.7</ele>
        <time>2020-02-01T13:03:37.000Z</time>
      </trkpt>
      <trkpt lat="42.84703" lon="0.49017">
        <ele>1929.3</ele>
        <time>2020-02-01T13:03:38.000Z</time>
      </trkpt>
      <trkpt lat="42.84703" lon="0.49017">
        <ele>1929</ele>
        <time>2020-02-01T13:03:39.000Z</time>
      </trkpt>
      <trkpt lat="42.84703" lon="0.49018">
        <ele>1929</ele>
        <time>2020-02-01T13:03:40.000Z</time>
      </trkpt>
      <trkpt lat="42.84703" lon="0.49018">
        <ele>1929.3</ele>
        <time>2020-02-01T13:03:41.000Z</time>
      </trkpt>
      <trkpt lat="42.84703" lon="0.49019">
        <ele>1929.7</ele>
        <time>2020-02-01T13:03:42.000Z</time>
      </trkpt>
      <trkpt lat="42.84703" lon="0.4902">
        <ele>1930</ele>
        <time>2020-02-01T13:03:43.000Z</time>
      </trkpt>
      <trkpt lat="42.84704" lon="0.49021">
        <ele>1929.5</ele>
        <time>2020-02-01T13:03:44.000Z</time>
      </trkpt>
      <trkpt lat="42.84704" lon="0.49022">
        <ele>1929</ele>
        <time>2020-02-01T13:03:45.000Z</time>
      </trkpt>
      <trkpt lat="42.84705" lon="0.49023">
        <ele>1929</ele>
        <time>2020-02-01T13:03:46.000Z</time>
      </trkpt>
      <trkpt lat="42.84705" lon="0.49024">
        <ele>1929</ele>
        <time>2020-02-01T13:03:47.000Z</time>
      </trkpt>
      <trkpt lat="42.84705" lon="0.49025">
        <ele>1929</ele>
        <time>2020-02-01T13:03:48.000Z</time>
      </trkpt>
      <trkpt lat="42.84706" lon="0.49025">
        <ele>1929</ele>
        <time>2020-02-01T13:03:49.000Z</time>
      </trkpt>
      <trkpt lat="42.84706" lon="0.49026">
        <ele>1929</ele>
        <time>2020-02-01T13:03:50.000Z</time>
      </trkpt>
      <trkpt lat="42.84706" lon="0.49026">
        <ele>1929</ele>
        <time>2020-02-01T13:03:51.000Z</time>
      </trkpt>
      <trkpt lat="42.84706" lon="0.49026">
        <ele>1928</ele>
        <time>2020-02-01T13:03:52.000Z</time>
      </trkpt>
      <trkpt lat="42.84706" lon="0.49026">
        <ele>1928</ele>
        <time>2020-02-01T13:03:53.000Z</time>
      </trkpt>
      <trkpt lat="42.84706" lon="0.49026">
        <ele>1928</ele>
        <time>2020-02-01T13:03:54.000Z</time>
      </trkpt>
      <trkpt lat="42.84707" lon="0.49026">
        <ele>1928</ele>
        <time>2020-02-01T13:03:55.000Z</time>
      </trkpt>
      <trkpt lat="42.84707" lon="0.49026">
        <ele>1928</ele>
        <time>2020-02-01T13:03:56.000Z</time>
      </trkpt>
      <trkpt lat="42.84707" lon="0.49026">
        <ele>1928</ele>
        <time>2020-02-01T13:03:57.000Z</time>
      </trkpt>
      <trkpt lat="42.84707" lon="0.49026">
        <ele>1928</ele>
        <time>2020-02-01T13:03:58.000Z</time>
      </trkpt>
      <trkpt lat="42.84707" lon="0.49026">
        <ele>1928</ele>
        <time>2020-02-01T13:03:59.000Z</time>
      </trkpt>
      <trkpt lat="42.84707" lon="0.49026">
        <ele>1928</ele>
        <time>2020-02-01T13:04:00.000Z</time>
      </trkpt>
      <trkpt lat="42.84707" lon="0.49026">
        <ele>1928</ele>
        <time>2020-02-01T13:04:01.000Z</time>
      </trkpt>
      <trkpt lat="42.84707" lon="0.49026">
        <ele>1928</ele>
        <time>2020-02-01T13:04:02.000Z</time>
      </trkpt>
      <trkpt lat="42.84707" lon="0.49026">
        <ele>1928</ele>
        <time>2020-02-01T13:04:03.000Z</time>
      </trkpt>
      <trkpt lat="42.84707" lon="0.49026">
        <ele>1928</ele>
        <time>2020-02-01T13:04:04.000Z</time>
      </trkpt>
      <trkpt lat="42.84707" lon="0.49026">
        <ele>1928</ele>
        <time>2020-02-01T13:04:05.000Z</time>
      </trkpt>
      <trkpt lat="42.84707" lon="0.49026">
        <ele>1928</ele>
        <time>2020-02-01T13:04:06.000Z</time>
      </trkpt>
      <trkpt lat="42.84707" lon="0.49026">
        <ele>1928</ele>
        <time>2020-02-01T13:04:07.000Z</time>
      </trkpt>
      <trkpt lat="42.84707" lon="0.49026">
        <ele>1928</ele>
        <time>2020-02-01T13:04:08.000Z</time>
      </trkpt>
      <trkpt lat="42.84707" lon="0.49026">
        <ele>1928</ele>
        <time>2020-02-01T13:04:09.000Z</time>
      </trkpt>
      <trkpt lat="42.84707" lon="0.49026">
        <ele>1928</ele>
        <time>2020-02-01T13:04:10.000Z</time>
      </trkpt>
      <trkpt lat="42.84707" lon="0.49026">
        <ele>1928</ele>
        <time>2020-02-01T13:04:11.000Z</time>
      </trkpt>
      <trkpt lat="42.84707" lon="0.49026">
        <ele>1928</ele>
        <time>2020-02-01T13:04:12.000Z</time>
      </trkpt>
      <trkpt lat="42.84707" lon="0.49026">
        <ele>1928</ele>
        <time>2020-02-01T13:04:13.000Z</time>
      </trkpt>
      <trkpt lat="42.84707" lon="0.49026">
        <ele>1928</ele>
        <time>2020-02-01T13:04:14.000Z</time>
      </trkpt>
      <trkpt lat="42.84707" lon="0.49026">
        <ele>1928</ele>
        <time>2020-02-01T13:04:15.000Z</time>
      </trkpt>
      <trkpt lat="42.84707" lon="0.49026">
        <ele>1928</ele>
        <time>2020-02-01T13:04:16.000Z</time>
      </trkpt>
      <trkpt lat="42.84707" lon="0.49026">
        <ele>1928</ele>
        <time>2020-02-01T13:04:17.000Z</time>
      </trkpt>
      <trkpt lat="42.84707" lon="0.49026">
        <ele>1928</ele>
        <time>2020-02-01T13:04:18.000Z</time>
      </trkpt>
      <trkpt lat="42.84707" lon="0.49026">
        <ele>1928</ele>
        <time>2020-02-01T13:04:19.000Z</time>
      </trkpt>
      <trkpt lat="42.84707" lon="0.49026">
        <ele>1928</ele>
        <time>2020-02-01T13:04:20.000Z</time>
      </trkpt>
      <trkpt lat="42.84707" lon="0.49026">
        <ele>1928</ele>
        <time>2020-02-01T13:04:21.000Z</time>
      </trkpt>
      <trkpt lat="42.84707" lon="0.49026">
        <ele>1928</ele>
        <time>2020-02-01T13:04:22.000Z</time>
      </trkpt>
      <trkpt lat="42.84707" lon="0.49026">
        <ele>1928</ele>
        <time>2020-02-01T13:04:23.000Z</time>
      </trkpt>
      <trkpt lat="42.84707" lon="0.49026">
        <ele>1928</ele>
        <time>2020-02-01T13:04:24.000Z</time>
      </trkpt>
      <trkpt lat="42.84707" lon="0.49026">
        <ele>1928</ele>
        <time>2020-02-01T13:04:25.000Z</time>
      </trkpt>
      <trkpt lat="42.84707" lon="0.49026">
        <ele>1928.5</ele>
        <time>2020-02-01T13:04:26.000Z</time>
      </trkpt>
      <trkpt lat="42.84707" lon="0.49026">
        <ele>1929</ele>
        <time>2020-02-01T13:04:27.000Z</time>
      </trkpt>
      <trkpt lat="42.84707" lon="0.49026">
        <ele>1929</ele>
        <time>2020-02-01T13:04:28.000Z</time>
      </trkpt>
      <trkpt lat="42.84707" lon="0.49026">
        <ele>1929</ele>
        <time>2020-02-01T13:04:29.000Z</time>
      </trkpt>
      <trkpt lat="42.84707" lon="0.49026">
        <ele>1928.5</ele>
        <time>2020-02-01T13:04:30.000Z</time>
      </trkpt>
      <trkpt lat="42.84707" lon="0.49026">
        <ele>1928</ele>
        <time>2020-02-01T13:04:31.000Z</time>
      </trkpt>
      <trkpt lat="42.84707" lon="0.49027">
        <ele>1928</ele>
        <time>2020-02-01T13:04:32.000Z</time>
      </trkpt>
      <trkpt lat="42.84707" lon="0.49027">
        <ele>1928</ele>
        <time>2020-02-01T13:04:33.000Z</time>
      </trkpt>
      <trkpt lat="42.84707" lon="0.49027">
        <ele>1928</ele>
        <time>2020-02-01T13:04:34.000Z</time>
      </trkpt>
      <trkpt lat="42.84707" lon="0.49027">
        <ele>1928</ele>
        <time>2020-02-01T13:04:35.000Z</time>
      </trkpt>
      <trkpt lat="42.84707" lon="0.49027">
        <ele>1928</ele>
        <time>2020-02-01T13:04:36.000Z</time>
      </trkpt>
      <trkpt lat="42.84707" lon="0.49027">
        <ele>1928</ele>
        <time>2020-02-01T13:04:37.000Z</time>
      </trkpt>
      <trkpt lat="42.84707" lon="0.49027">
        <ele>1928</ele>
        <time>2020-02-01T13:04:38.000Z</time>
      </trkpt>
      <trkpt lat="42.84707" lon="0.49028">
        <ele>1928</ele>
        <time>2020-02-01T13:04:39.000Z</time>
      </trkpt>
      <trkpt lat="42.84707" lon="0.49028">
        <ele>1928</ele>
        <time>2020-02-01T13:04:40.000Z</time>
      </trkpt>
      <trkpt lat="42.84707" lon="0.49028">
        <ele>1928</ele>
        <time>2020-02-01T13:04:41.000Z</time>
      </trkpt>
      <trkpt lat="42.84707" lon="0.49028">
        <ele>1928</ele>
        <time>2020-02-01T13:04:42.000Z</time>
      </trkpt>
      <trkpt lat="42.84707" lon="0.49028">
        <ele>1928</ele>
        <time>2020-02-01T13:04:43.000Z</time>
      </trkpt>
      <trkpt lat="42.84707" lon="0.49028">
        <ele>1928</ele>
        <time>2020-02-01T13:04:44.000Z</time>
      </trkpt>
      <trkpt lat="42.84707" lon="0.49028">
        <ele>1928</ele>
        <time>2020-02-01T13:04:45.000Z</time>
      </trkpt>
      <trkpt lat="42.84707" lon="0.49029">
        <ele>1928</ele>
        <time>2020-02-01T13:04:46.000Z</time>
      </trkpt>
      <trkpt lat="42.84707" lon="0.49029">
        <ele>1928</ele>
        <time>2020-02-01T13:04:47.000Z</time>
      </trkpt>
      <trkpt lat="42.84707" lon="0.49029">
        <ele>1928</ele>
        <time>2020-02-01T13:04:48.000Z</time>
      </trkpt>
      <trkpt lat="42.84707" lon="0.49029">
        <ele>1928</ele>
        <time>2020-02-01T13:04:49.000Z</time>
      </trkpt>
      <trkpt lat="42.84707" lon="0.49029">
        <ele>1928</ele>
        <time>2020-02-01T13:04:50.000Z</time>
      </trkpt>
      <trkpt lat="42.84707" lon="0.49029">
        <ele>1928</ele>
        <time>2020-02-01T13:04:51.000Z</time>
      </trkpt>
      <trkpt lat="42.84707" lon="0.49029">
        <ele>1928</ele>
        <time>2020-02-01T13:04:52.000Z</time>
      </trkpt>
      <trkpt lat="42.84707" lon="0.49029">
        <ele>1928</ele>
        <time>2020-02-01T13:04:53.000Z</time>
      </trkpt>
      <trkpt lat="42.84707" lon="0.49029">
        <ele>1928</ele>
        <time>2020-02-01T13:04:54.000Z</time>
      </trkpt>
      <trkpt lat="42.84707" lon="0.49029">
        <ele>1928</ele>
        <time>2020-02-01T13:04:55.000Z</time>
      </trkpt>
      <trkpt lat="42.84707" lon="0.49029">
        <ele>1928</ele>
        <time>2020-02-01T13:04:56.000Z</time>
      </trkpt>
      <trkpt lat="42.84707" lon="0.49029">
        <ele>1928</ele>
        <time>2020-02-01T13:04:57.000Z</time>
      </trkpt>
      <trkpt lat="42.84707" lon="0.49029">
        <ele>1928</ele>
        <time>2020-02-01T13:04:58.000Z</time>
      </trkpt>
      <trkpt lat="42.84707" lon="0.4903">
        <ele>1928</ele>
        <time>2020-02-01T13:04:59.000Z</time>
      </trkpt>
      <trkpt lat="42.84708" lon="0.49031">
        <ele>1928</ele>
        <time>2020-02-01T13:05:00.000Z</time>
      </trkpt>
      <trkpt lat="42.84708" lon="0.49031">
        <ele>1927.7</ele>
        <time>2020-02-01T13:05:01.000Z</time>
      </trkpt>
      <trkpt lat="42.84708" lon="0.49032">
        <ele>1927.3</ele>
        <time>2020-02-01T13:05:02.000Z</time>
      </trkpt>
      <trkpt lat="42.84709" lon="0.49032">
        <ele>1927</ele>
        <time>2020-02-01T13:05:03.000Z</time>
      </trkpt>
      <trkpt lat="42.84709" lon="0.49033">
        <ele>1927</ele>
        <time>2020-02-01T13:05:04.000Z</time>
      </trkpt>
      <trkpt lat="42.8471" lon="0.49034">
        <ele>1927</ele>
        <time>2020-02-01T13:05:05.000Z</time>
      </trkpt>
      <trkpt lat="42.8471" lon="0.49035">
        <ele>1927</ele>
        <time>2020-02-01T13:05:06.000Z</time>
      </trkpt>
      <trkpt lat="42.8471" lon="0.49036">
        <ele>1927</ele>
        <time>2020-02-01T13:05:07.000Z</time>
      </trkpt>
      <trkpt lat="42.8471" lon="0.49037">
        <ele>1927</ele>
        <time>2020-02-01T13:05:08.000Z</time>
      </trkpt>
      <trkpt lat="42.84711" lon="0.49038">
        <ele>1927</ele>
        <time>2020-02-01T13:05:09.000Z</time>
      </trkpt>
      <trkpt lat="42.84711" lon="0.49038">
        <ele>1926.5</ele>
        <time>2020-02-01T13:05:10.000Z</time>
      </trkpt>
      <trkpt lat="42.84711" lon="0.49039">
        <ele>1926</ele>
        <time>2020-02-01T13:05:11.000Z</time>
      </trkpt>
      <trkpt lat="42.84711" lon="0.4904">
        <ele>1926</ele>
        <time>2020-02-01T13:05:12.000Z</time>
      </trkpt>
      <trkpt lat="42.84711" lon="0.49041">
        <ele>1925.7</ele>
        <time>2020-02-01T13:05:13.000Z</time>
      </trkpt>
      <trkpt lat="42.84712" lon="0.49042">
        <ele>1925.3</ele>
        <time>2020-02-01T13:05:14.000Z</time>
      </trkpt>
      <trkpt lat="42.84712" lon="0.49043">
        <ele>1925</ele>
        <time>2020-02-01T13:05:15.000Z</time>
      </trkpt>
      <trkpt lat="42.84713" lon="0.49044">
        <ele>1925</ele>
        <time>2020-02-01T13:05:16.000Z</time>
      </trkpt>
      <trkpt lat="42.84713" lon="0.49045">
        <ele>1925</ele>
        <time>2020-02-01T13:05:17.000Z</time>
      </trkpt>
      <trkpt lat="42.84713" lon="0.49046">
        <ele>1925</ele>
        <time>2020-02-01T13:05:18.000Z</time>
      </trkpt>
      <trkpt lat="42.84713" lon="0.49046">
        <ele>1925</ele>
        <time>2020-02-01T13:05:19.000Z</time>
      </trkpt>
      <trkpt lat="42.84714" lon="0.49047">
        <ele>1925</ele>
        <time>2020-02-01T13:05:20.000Z</time>
      </trkpt>
      <trkpt lat="42.84714" lon="0.49048">
        <ele>1925</ele>
        <time>2020-02-01T13:05:21.000Z</time>
      </trkpt>
      <trkpt lat="42.84714" lon="0.49048">
        <ele>1924.5</ele>
        <time>2020-02-01T13:05:22.000Z</time>
      </trkpt>
      <trkpt lat="42.84714" lon="0.49049">
        <ele>1924</ele>
        <time>2020-02-01T13:05:23.000Z</time>
      </trkpt>
      <trkpt lat="42.84714" lon="0.4905">
        <ele>1924</ele>
        <time>2020-02-01T13:05:24.000Z</time>
      </trkpt>
      <trkpt lat="42.84715" lon="0.49051">
        <ele>1924</ele>
        <time>2020-02-01T13:05:25.000Z</time>
      </trkpt>
      <trkpt lat="42.84715" lon="0.49053">
        <ele>1924</ele>
        <time>2020-02-01T13:05:26.000Z</time>
      </trkpt>
      <trkpt lat="42.84716" lon="0.49054">
        <ele>1924</ele>
        <time>2020-02-01T13:05:27.000Z</time>
      </trkpt>
      <trkpt lat="42.84717" lon="0.49056">
        <ele>1924</ele>
        <time>2020-02-01T13:05:28.000Z</time>
      </trkpt>
      <trkpt lat="42.84717" lon="0.49057">
        <ele>1924</ele>
        <time>2020-02-01T13:05:29.000Z</time>
      </trkpt>
      <trkpt lat="42.84718" lon="0.49057">
        <ele>1923.5</ele>
        <time>2020-02-01T13:05:30.000Z</time>
      </trkpt>
      <trkpt lat="42.84718" lon="0.49058">
        <ele>1923</ele>
        <time>2020-02-01T13:05:31.000Z</time>
      </trkpt>
      <trkpt lat="42.84718" lon="0.4906">
        <ele>1923</ele>
        <time>2020-02-01T13:05:32.000Z</time>
      </trkpt>
      <trkpt lat="42.84718" lon="0.49061">
        <ele>1923</ele>
        <time>2020-02-01T13:05:33.000Z</time>
      </trkpt>
      <trkpt lat="42.84719" lon="0.49063">
        <ele>1923</ele>
        <time>2020-02-01T13:05:34.000Z</time>
      </trkpt>
      <trkpt lat="42.8472" lon="0.49064">
        <ele>1923</ele>
        <time>2020-02-01T13:05:35.000Z</time>
      </trkpt>
      <trkpt lat="42.84721" lon="0.49065">
        <ele>1923</ele>
        <time>2020-02-01T13:05:36.000Z</time>
      </trkpt>
      <trkpt lat="42.84722" lon="0.49067">
        <ele>1922.7</ele>
        <time>2020-02-01T13:05:37.000Z</time>
      </trkpt>
      <trkpt lat="42.84723" lon="0.49068">
        <ele>1922.3</ele>
        <time>2020-02-01T13:05:38.000Z</time>
      </trkpt>
      <trkpt lat="42.84724" lon="0.49069">
        <ele>1922</ele>
        <time>2020-02-01T13:05:39.000Z</time>
      </trkpt>
      <trkpt lat="42.84724" lon="0.49071">
        <ele>1922</ele>
        <time>2020-02-01T13:05:40.000Z</time>
      </trkpt>
      <trkpt lat="42.84725" lon="0.49072">
        <ele>1922</ele>
        <time>2020-02-01T13:05:41.000Z</time>
      </trkpt>
      <trkpt lat="42.84726" lon="0.49073">
        <ele>1922</ele>
        <time>2020-02-01T13:05:42.000Z</time>
      </trkpt>
      <trkpt lat="42.84726" lon="0.49074">
        <ele>1922</ele>
        <time>2020-02-01T13:05:43.000Z</time>
      </trkpt>
      <trkpt lat="42.84727" lon="0.49075">
        <ele>1922</ele>
        <time>2020-02-01T13:05:44.000Z</time>
      </trkpt>
      <trkpt lat="42.84727" lon="0.49076">
        <ele>1922</ele>
        <time>2020-02-01T13:05:45.000Z</time>
      </trkpt>
      <trkpt lat="42.84727" lon="0.49077">
        <ele>1921.5</ele>
        <time>2020-02-01T13:05:46.000Z</time>
      </trkpt>
      <trkpt lat="42.84728" lon="0.49078">
        <ele>1921</ele>
        <time>2020-02-01T13:05:47.000Z</time>
      </trkpt>
      <trkpt lat="42.84728" lon="0.49079">
        <ele>1921</ele>
        <time>2020-02-01T13:05:48.000Z</time>
      </trkpt>
      <trkpt lat="42.84728" lon="0.4908">
        <ele>1921</ele>
        <time>2020-02-01T13:05:49.000Z</time>
      </trkpt>
      <trkpt lat="42.84728" lon="0.49081">
        <ele>1921</ele>
        <time>2020-02-01T13:05:50.000Z</time>
      </trkpt>
      <trkpt lat="42.84729" lon="0.49083">
        <ele>1921</ele>
        <time>2020-02-01T13:05:51.000Z</time>
      </trkpt>
      <trkpt lat="42.84729" lon="0.49084">
        <ele>1921</ele>
        <time>2020-02-01T13:05:52.000Z</time>
      </trkpt>
      <trkpt lat="42.8473" lon="0.49085">
        <ele>1921</ele>
        <time>2020-02-01T13:05:53.000Z</time>
      </trkpt>
      <trkpt lat="42.8473" lon="0.49086">
        <ele>1921</ele>
        <time>2020-02-01T13:05:54.000Z</time>
      </trkpt>
      <trkpt lat="42.84731" lon="0.49087">
        <ele>1921</ele>
        <time>2020-02-01T13:05:55.000Z</time>
      </trkpt>
      <trkpt lat="42.84731" lon="0.49088">
        <ele>1921</ele>
        <time>2020-02-01T13:05:56.000Z</time>
      </trkpt>
      <trkpt lat="42.84732" lon="0.49089">
        <ele>1921</ele>
        <time>2020-02-01T13:05:57.000Z</time>
      </trkpt>
      <trkpt lat="42.84732" lon="0.4909">
        <ele>1921</ele>
        <time>2020-02-01T13:05:58.000Z</time>
      </trkpt>
      <trkpt lat="42.84732" lon="0.49091">
        <ele>1921</ele>
        <time>2020-02-01T13:05:59.000Z</time>
      </trkpt>
      <trkpt lat="42.84733" lon="0.49092">
        <ele>1920</ele>
        <time>2020-02-01T13:06:00.000Z</time>
      </trkpt>
      <trkpt lat="42.84733" lon="0.49093">
        <ele>1920</ele>
        <time>2020-02-01T13:06:01.000Z</time>
      </trkpt>
      <trkpt lat="42.84734" lon="0.49093">
        <ele>1920</ele>
        <time>2020-02-01T13:06:02.000Z</time>
      </trkpt>
      <trkpt lat="42.84734" lon="0.49094">
        <ele>1920</ele>
        <time>2020-02-01T13:06:03.000Z</time>
      </trkpt>
      <trkpt lat="42.84734" lon="0.49095">
        <ele>1920</ele>
        <time>2020-02-01T13:06:04.000Z</time>
      </trkpt>
      <trkpt lat="42.84735" lon="0.49096">
        <ele>1920</ele>
        <time>2020-02-01T13:06:05.000Z</time>
      </trkpt>
      <trkpt lat="42.84735" lon="0.49097">
        <ele>1921</ele>
        <time>2020-02-01T13:06:06.000Z</time>
      </trkpt>
      <trkpt lat="42.84735" lon="0.49098">
        <ele>1920.7</ele>
        <time>2020-02-01T13:06:07.000Z</time>
      </trkpt>
      <trkpt lat="42.84736" lon="0.49099">
        <ele>1920.3</ele>
        <time>2020-02-01T13:06:08.000Z</time>
      </trkpt>
      <trkpt lat="42.84736" lon="0.491">
        <ele>1920</ele>
        <time>2020-02-01T13:06:09.000Z</time>
      </trkpt>
      <trkpt lat="42.84736" lon="0.49101">
        <ele>1921</ele>
        <time>2020-02-01T13:06:10.000Z</time>
      </trkpt>
      <trkpt lat="42.84737" lon="0.49102">
        <ele>1921</ele>
        <time>2020-02-01T13:06:11.000Z</time>
      </trkpt>
      <trkpt lat="42.84737" lon="0.49103">
        <ele>1921</ele>
        <time>2020-02-01T13:06:12.000Z</time>
      </trkpt>
      <trkpt lat="42.84738" lon="0.49104">
        <ele>1921</ele>
        <time>2020-02-01T13:06:13.000Z</time>
      </trkpt>
      <trkpt lat="42.84738" lon="0.49104">
        <ele>1921</ele>
        <time>2020-02-01T13:06:14.000Z</time>
      </trkpt>
      <trkpt lat="42.84739" lon="0.49105">
        <ele>1921</ele>
        <time>2020-02-01T13:06:15.000Z</time>
      </trkpt>
      <trkpt lat="42.84739" lon="0.49106">
        <ele>1921</ele>
        <time>2020-02-01T13:06:16.000Z</time>
      </trkpt>
      <trkpt lat="42.8474" lon="0.49107">
        <ele>1921</ele>
        <time>2020-02-01T13:06:17.000Z</time>
      </trkpt>
      <trkpt lat="42.8474" lon="0.49109">
        <ele>1921</ele>
        <time>2020-02-01T13:06:18.000Z</time>
      </trkpt>
      <trkpt lat="42.8474" lon="0.4911">
        <ele>1921</ele>
        <time>2020-02-01T13:06:19.000Z</time>
      </trkpt>
      <trkpt lat="42.84741" lon="0.49111">
        <ele>1921</ele>
        <time>2020-02-01T13:06:20.000Z</time>
      </trkpt>
      <trkpt lat="42.84741" lon="0.49112">
        <ele>1920.7</ele>
        <time>2020-02-01T13:06:21.000Z</time>
      </trkpt>
      <trkpt lat="42.84742" lon="0.49113">
        <ele>1920.3</ele>
        <time>2020-02-01T13:06:22.000Z</time>
      </trkpt>
      <trkpt lat="42.84743" lon="0.49114">
        <ele>1920</ele>
        <time>2020-02-01T13:06:23.000Z</time>
      </trkpt>
      <trkpt lat="42.84743" lon="0.49116">
        <ele>1920</ele>
        <time>2020-02-01T13:06:24.000Z</time>
      </trkpt>
      <trkpt lat="42.84744" lon="0.49117">
        <ele>1920</ele>
        <time>2020-02-01T13:06:25.000Z</time>
      </trkpt>
      <trkpt lat="42.84744" lon="0.49118">
        <ele>1920</ele>
        <time>2020-02-01T13:06:26.000Z</time>
      </trkpt>
      <trkpt lat="42.84745" lon="0.49119">
        <ele>1920</ele>
        <time>2020-02-01T13:06:27.000Z</time>
      </trkpt>
      <trkpt lat="42.84746" lon="0.49121">
        <ele>1920</ele>
        <time>2020-02-01T13:06:28.000Z</time>
      </trkpt>
      <trkpt lat="42.84746" lon="0.49122">
        <ele>1920</ele>
        <time>2020-02-01T13:06:29.000Z</time>
      </trkpt>
      <trkpt lat="42.84746" lon="0.49123">
        <ele>1920</ele>
        <time>2020-02-01T13:06:30.000Z</time>
      </trkpt>
      <trkpt lat="42.84746" lon="0.49124">
        <ele>1920</ele>
        <time>2020-02-01T13:06:31.000Z</time>
      </trkpt>
      <trkpt lat="42.84746" lon="0.49125">
        <ele>1920</ele>
        <time>2020-02-01T13:06:32.000Z</time>
      </trkpt>
      <trkpt lat="42.84746" lon="0.49126">
        <ele>1920</ele>
        <time>2020-02-01T13:06:33.000Z</time>
      </trkpt>
      <trkpt lat="42.84747" lon="0.49127">
        <ele>1919.5</ele>
        <time>2020-02-01T13:06:34.000Z</time>
      </trkpt>
      <trkpt lat="42.84747" lon="0.49129">
        <ele>1919</ele>
        <time>2020-02-01T13:06:35.000Z</time>
      </trkpt>
      <trkpt lat="42.84748" lon="0.4913">
        <ele>1919</ele>
        <time>2020-02-01T13:06:36.000Z</time>
      </trkpt>
      <trkpt lat="42.84748" lon="0.49132">
        <ele>1919</ele>
        <time>2020-02-01T13:06:37.000Z</time>
      </trkpt>
      <trkpt lat="42.84749" lon="0.49133">
        <ele>1919</ele>
        <time>2020-02-01T13:06:38.000Z</time>
      </trkpt>
      <trkpt lat="42.84749" lon="0.49134">
        <ele>1919</ele>
        <time>2020-02-01T13:06:39.000Z</time>
      </trkpt>
      <trkpt lat="42.8475" lon="0.49136">
        <ele>1919</ele>
        <time>2020-02-01T13:06:40.000Z</time>
      </trkpt>
      <trkpt lat="42.8475" lon="0.49136">
        <ele>1919</ele>
        <time>2020-02-01T13:06:41.000Z</time>
      </trkpt>
      <trkpt lat="42.8475" lon="0.49137">
        <ele>1918</ele>
        <time>2020-02-01T13:06:42.000Z</time>
      </trkpt>
      <trkpt lat="42.8475" lon="0.49138">
        <ele>1918.3</ele>
        <time>2020-02-01T13:06:43.000Z</time>
      </trkpt>
      <trkpt lat="42.84751" lon="0.49139">
        <ele>1918.7</ele>
        <time>2020-02-01T13:06:44.000Z</time>
      </trkpt>
      <trkpt lat="42.84751" lon="0.49139">
        <ele>1919</ele>
        <time>2020-02-01T13:06:45.000Z</time>
      </trkpt>
      <trkpt lat="42.84751" lon="0.4914">
        <ele>1918.5</ele>
        <time>2020-02-01T13:06:46.000Z</time>
      </trkpt>
      <trkpt lat="42.84751" lon="0.4914">
        <ele>1918</ele>
        <time>2020-02-01T13:06:47.000Z</time>
      </trkpt>
      <trkpt lat="42.84751" lon="0.4914">
        <ele>1919</ele>
        <time>2020-02-01T13:06:48.000Z</time>
      </trkpt>
      <trkpt lat="42.84751" lon="0.49141">
        <ele>1918.7</ele>
        <time>2020-02-01T13:06:49.000Z</time>
      </trkpt>
      <trkpt lat="42.84751" lon="0.49141">
        <ele>1918.3</ele>
        <time>2020-02-01T13:06:50.000Z</time>
      </trkpt>
      <trkpt lat="42.84752" lon="0.49141">
        <ele>1918</ele>
        <time>2020-02-01T13:06:51.000Z</time>
      </trkpt>
      <trkpt lat="42.84752" lon="0.49142">
        <ele>1918</ele>
        <time>2020-02-01T13:06:52.000Z</time>
      </trkpt>
      <trkpt lat="42.84752" lon="0.49142">
        <ele>1918</ele>
        <time>2020-02-01T13:06:53.000Z</time>
      </trkpt>
      <trkpt lat="42.84752" lon="0.49142">
        <ele>1918</ele>
        <time>2020-02-01T13:06:54.000Z</time>
      </trkpt>
      <trkpt lat="42.84753" lon="0.49142">
        <ele>1918</ele>
        <time>2020-02-01T13:06:55.000Z</time>
      </trkpt>
      <trkpt lat="42.84753" lon="0.49143">
        <ele>1918</ele>
        <time>2020-02-01T13:06:56.000Z</time>
      </trkpt>
      <trkpt lat="42.84753" lon="0.49143">
        <ele>1918</ele>
        <time>2020-02-01T13:06:57.000Z</time>
      </trkpt>
      <trkpt lat="42.84753" lon="0.49143">
        <ele>1918</ele>
        <time>2020-02-01T13:06:58.000Z</time>
      </trkpt>
      <trkpt lat="42.84754" lon="0.49143">
        <ele>1918</ele>
        <time>2020-02-01T13:06:59.000Z</time>
      </trkpt>
      <trkpt lat="42.84754" lon="0.49143">
        <ele>1918</ele>
        <time>2020-02-01T13:07:00.000Z</time>
      </trkpt>
      <trkpt lat="42.84754" lon="0.49144">
        <ele>1918</ele>
        <time>2020-02-01T13:07:01.000Z</time>
      </trkpt>
      <trkpt lat="42.84754" lon="0.49144">
        <ele>1918</ele>
        <time>2020-02-01T13:07:02.000Z</time>
      </trkpt>
      <trkpt lat="42.84754" lon="0.49144">
        <ele>1918</ele>
        <time>2020-02-01T13:07:03.000Z</time>
      </trkpt>
      <trkpt lat="42.84754" lon="0.49144">
        <ele>1918</ele>
        <time>2020-02-01T13:07:04.000Z</time>
      </trkpt>
      <trkpt lat="42.84755" lon="0.49144">
        <ele>1918</ele>
        <time>2020-02-01T13:07:05.000Z</time>
      </trkpt>
      <trkpt lat="42.84755" lon="0.49144">
        <ele>1918</ele>
        <time>2020-02-01T13:07:06.000Z</time>
      </trkpt>
      <trkpt lat="42.84755" lon="0.49144">
        <ele>1918</ele>
        <time>2020-02-01T13:07:07.000Z</time>
      </trkpt>
      <trkpt lat="42.84755" lon="0.49144">
        <ele>1918</ele>
        <time>2020-02-01T13:07:08.000Z</time>
      </trkpt>
      <trkpt lat="42.84755" lon="0.49145">
        <ele>1918</ele>
        <time>2020-02-01T13:07:09.000Z</time>
      </trkpt>
      <trkpt lat="42.84755" lon="0.49145">
        <ele>1918</ele>
        <time>2020-02-01T13:07:10.000Z</time>
      </trkpt>
      <trkpt lat="42.84755" lon="0.49145">
        <ele>1918</ele>
        <time>2020-02-01T13:07:11.000Z</time>
      </trkpt>
      <trkpt lat="42.84755" lon="0.49145">
        <ele>1918</ele>
        <time>2020-02-01T13:07:12.000Z</time>
      </trkpt>
      <trkpt lat="42.84755" lon="0.49145">
        <ele>1918</ele>
        <time>2020-02-01T13:07:13.000Z</time>
      </trkpt>
      <trkpt lat="42.84755" lon="0.49145">
        <ele>1918</ele>
        <time>2020-02-01T13:07:14.000Z</time>
      </trkpt>
      <trkpt lat="42.84755" lon="0.49145">
        <ele>1918</ele>
        <time>2020-02-01T13:07:15.000Z</time>
      </trkpt>
      <trkpt lat="42.84755" lon="0.49145">
        <ele>1918</ele>
        <time>2020-02-01T13:07:16.000Z</time>
      </trkpt>
      <trkpt lat="42.84755" lon="0.49145">
        <ele>1918</ele>
        <time>2020-02-01T13:07:17.000Z</time>
      </trkpt>
      <trkpt lat="42.84755" lon="0.49145">
        <ele>1918</ele>
        <time>2020-02-01T13:07:18.000Z</time>
      </trkpt>
      <trkpt lat="42.84755" lon="0.49145">
        <ele>1918</ele>
        <time>2020-02-01T13:07:19.000Z</time>
      </trkpt>
      <trkpt lat="42.84755" lon="0.49145">
        <ele>1918</ele>
        <time>2020-02-01T13:07:20.000Z</time>
      </trkpt>
      <trkpt lat="42.84755" lon="0.49145">
        <ele>1918</ele>
        <time>2020-02-01T13:07:21.000Z</time>
      </trkpt>
      <trkpt lat="42.84755" lon="0.49145">
        <ele>1917.5</ele>
        <time>2020-02-01T13:07:22.000Z</time>
      </trkpt>
      <trkpt lat="42.84755" lon="0.49145">
        <ele>1917</ele>
        <time>2020-02-01T13:07:23.000Z</time>
      </trkpt>
      <trkpt lat="42.84755" lon="0.49145">
        <ele>1917</ele>
        <time>2020-02-01T13:07:24.000Z</time>
      </trkpt>
      <trkpt lat="42.84755" lon="0.49145">
        <ele>1917</ele>
        <time>2020-02-01T13:07:25.000Z</time>
      </trkpt>
      <trkpt lat="42.84755" lon="0.49145">
        <ele>1917.5</ele>
        <time>2020-02-01T13:07:26.000Z</time>
      </trkpt>
      <trkpt lat="42.84755" lon="0.49145">
        <ele>1918</ele>
        <time>2020-02-01T13:07:27.000Z</time>
      </trkpt>
      <trkpt lat="42.84755" lon="0.49146">
        <ele>1918</ele>
        <time>2020-02-01T13:07:28.000Z</time>
      </trkpt>
      <trkpt lat="42.84755" lon="0.49146">
        <ele>1918</ele>
        <time>2020-02-01T13:07:29.000Z</time>
      </trkpt>
      <trkpt lat="42.84755" lon="0.49147">
        <ele>1918</ele>
        <time>2020-02-01T13:07:30.000Z</time>
      </trkpt>
      <trkpt lat="42.84755" lon="0.49147">
        <ele>1917.7</ele>
        <time>2020-02-01T13:07:31.000Z</time>
      </trkpt>
      <trkpt lat="42.84756" lon="0.49148">
        <ele>1917.3</ele>
        <time>2020-02-01T13:07:32.000Z</time>
      </trkpt>
      <trkpt lat="42.84756" lon="0.49149">
        <ele>1917</ele>
        <time>2020-02-01T13:07:33.000Z</time>
      </trkpt>
      <trkpt lat="42.84756" lon="0.49149">
        <ele>1917</ele>
        <time>2020-02-01T13:07:34.000Z</time>
      </trkpt>
      <trkpt lat="42.84756" lon="0.4915">
        <ele>1917</ele>
        <time>2020-02-01T13:07:35.000Z</time>
      </trkpt>
      <trkpt lat="42.84757" lon="0.49151">
        <ele>1917</ele>
        <time>2020-02-01T13:07:36.000Z</time>
      </trkpt>
      <trkpt lat="42.84757" lon="0.49153">
        <ele>1917</ele>
        <time>2020-02-01T13:07:37.000Z</time>
      </trkpt>
      <trkpt lat="42.84758" lon="0.49154">
        <ele>1917</ele>
        <time>2020-02-01T13:07:38.000Z</time>
      </trkpt>
      <trkpt lat="42.84758" lon="0.49155">
        <ele>1917</ele>
        <time>2020-02-01T13:07:39.000Z</time>
      </trkpt>
      <trkpt lat="42.84759" lon="0.49156">
        <ele>1917</ele>
        <time>2020-02-01T13:07:40.000Z</time>
      </trkpt>
      <trkpt lat="42.84759" lon="0.49157">
        <ele>1917</ele>
        <time>2020-02-01T13:07:41.000Z</time>
      </trkpt>
      <trkpt lat="42.8476" lon="0.49159">
        <ele>1917</ele>
        <time>2020-02-01T13:07:42.000Z</time>
      </trkpt>
      <trkpt lat="42.8476" lon="0.4916">
        <ele>1917</ele>
        <time>2020-02-01T13:07:43.000Z</time>
      </trkpt>
      <trkpt lat="42.84761" lon="0.49161">
        <ele>1917</ele>
        <time>2020-02-01T13:07:44.000Z</time>
      </trkpt>
      <trkpt lat="42.84761" lon="0.49162">
        <ele>1917</ele>
        <time>2020-02-01T13:07:45.000Z</time>
      </trkpt>
      <trkpt lat="42.84762" lon="0.49163">
        <ele>1916.5</ele>
        <time>2020-02-01T13:07:46.000Z</time>
      </trkpt>
      <trkpt lat="42.84762" lon="0.49163">
        <ele>1916</ele>
        <time>2020-02-01T13:07:47.000Z</time>
      </trkpt>
      <trkpt lat="42.84763" lon="0.49165">
        <ele>1916</ele>
        <time>2020-02-01T13:07:48.000Z</time>
      </trkpt>
      <trkpt lat="42.84763" lon="0.49166">
        <ele>1916</ele>
        <time>2020-02-01T13:07:49.000Z</time>
      </trkpt>
      <trkpt lat="42.84764" lon="0.49167">
        <ele>1916</ele>
        <time>2020-02-01T13:07:50.000Z</time>
      </trkpt>
      <trkpt lat="42.84764" lon="0.49168">
        <ele>1916</ele>
        <time>2020-02-01T13:07:51.000Z</time>
      </trkpt>
      <trkpt lat="42.84765" lon="0.49169">
        <ele>1916</ele>
        <time>2020-02-01T13:07:52.000Z</time>
      </trkpt>
      <trkpt lat="42.84765" lon="0.4917">
        <ele>1916</ele>
        <time>2020-02-01T13:07:53.000Z</time>
      </trkpt>
      <trkpt lat="42.84766" lon="0.49171">
        <ele>1916</ele>
        <time>2020-02-01T13:07:54.000Z</time>
      </trkpt>
      <trkpt lat="42.84767" lon="0.49172">
        <ele>1916</ele>
        <time>2020-02-01T13:07:55.000Z</time>
      </trkpt>
      <trkpt lat="42.84767" lon="0.49173">
        <ele>1916</ele>
        <time>2020-02-01T13:07:56.000Z</time>
      </trkpt>
      <trkpt lat="42.84768" lon="0.49174">
        <ele>1915.7</ele>
        <time>2020-02-01T13:07:57.000Z</time>
      </trkpt>
      <trkpt lat="42.84768" lon="0.49176">
        <ele>1915.3</ele>
        <time>2020-02-01T13:07:58.000Z</time>
      </trkpt>
      <trkpt lat="42.84769" lon="0.49177">
        <ele>1915</ele>
        <time>2020-02-01T13:07:59.000Z</time>
      </trkpt>
      <trkpt lat="42.8477" lon="0.49178">
        <ele>1915</ele>
        <time>2020-02-01T13:08:00.000Z</time>
      </trkpt>
      <trkpt lat="42.8477" lon="0.4918">
        <ele>1915</ele>
        <time>2020-02-01T13:08:01.000Z</time>
      </trkpt>
      <trkpt lat="42.84771" lon="0.49181">
        <ele>1915</ele>
        <time>2020-02-01T13:08:02.000Z</time>
      </trkpt>
      <trkpt lat="42.84771" lon="0.49182">
        <ele>1914.7</ele>
        <time>2020-02-01T13:08:03.000Z</time>
      </trkpt>
      <trkpt lat="42.84772" lon="0.49183">
        <ele>1914.3</ele>
        <time>2020-02-01T13:08:04.000Z</time>
      </trkpt>
      <trkpt lat="42.84772" lon="0.49184">
        <ele>1914</ele>
        <time>2020-02-01T13:08:05.000Z</time>
      </trkpt>
      <trkpt lat="42.84772" lon="0.49185">
        <ele>1914</ele>
        <time>2020-02-01T13:08:06.000Z</time>
      </trkpt>
      <trkpt lat="42.84773" lon="0.49186">
        <ele>1914</ele>
        <time>2020-02-01T13:08:07.000Z</time>
      </trkpt>
      <trkpt lat="42.84773" lon="0.49186">
        <ele>1914</ele>
        <time>2020-02-01T13:08:08.000Z</time>
      </trkpt>
      <trkpt lat="42.84773" lon="0.49187">
        <ele>1913.7</ele>
        <time>2020-02-01T13:08:09.000Z</time>
      </trkpt>
      <trkpt lat="42.84774" lon="0.49188">
        <ele>1913.3</ele>
        <time>2020-02-01T13:08:10.000Z</time>
      </trkpt>
      <trkpt lat="42.84774" lon="0.49189">
        <ele>1913</ele>
        <time>2020-02-01T13:08:11.000Z</time>
      </trkpt>
      <trkpt lat="42.84775" lon="0.4919">
        <ele>1913</ele>
        <time>2020-02-01T13:08:12.000Z</time>
      </trkpt>
      <trkpt lat="42.84775" lon="0.4919">
        <ele>1913</ele>
        <time>2020-02-01T13:08:13.000Z</time>
      </trkpt>
      <trkpt lat="42.84776" lon="0.49191">
        <ele>1912</ele>
        <time>2020-02-01T13:08:14.000Z</time>
      </trkpt>
      <trkpt lat="42.84777" lon="0.49192">
        <ele>1912</ele>
        <time>2020-02-01T13:08:15.000Z</time>
      </trkpt>
      <trkpt lat="42.84777" lon="0.49193">
        <ele>1912</ele>
        <time>2020-02-01T13:08:16.000Z</time>
      </trkpt>
      <trkpt lat="42.84778" lon="0.49193">
        <ele>1912</ele>
        <time>2020-02-01T13:08:17.000Z</time>
      </trkpt>
      <trkpt lat="42.84778" lon="0.49194">
        <ele>1911.5</ele>
        <time>2020-02-01T13:08:18.000Z</time>
      </trkpt>
      <trkpt lat="42.84778" lon="0.49194">
        <ele>1911</ele>
        <time>2020-02-01T13:08:19.000Z</time>
      </trkpt>
      <trkpt lat="42.84778" lon="0.49195">
        <ele>1911</ele>
        <time>2020-02-01T13:08:20.000Z</time>
      </trkpt>
      <trkpt lat="42.84778" lon="0.49195">
        <ele>1911</ele>
        <time>2020-02-01T13:08:21.000Z</time>
      </trkpt>
      <trkpt lat="42.84778" lon="0.49195">
        <ele>1911</ele>
        <time>2020-02-01T13:08:22.000Z</time>
      </trkpt>
      <trkpt lat="42.84778" lon="0.49195">
        <ele>1911</ele>
        <time>2020-02-01T13:08:23.000Z</time>
      </trkpt>
      <trkpt lat="42.84778" lon="0.49196">
        <ele>1911</ele>
        <time>2020-02-01T13:08:24.000Z</time>
      </trkpt>
      <trkpt lat="42.84778" lon="0.49196">
        <ele>1911</ele>
        <time>2020-02-01T13:08:25.000Z</time>
      </trkpt>
      <trkpt lat="42.84778" lon="0.49196">
        <ele>1911</ele>
        <time>2020-02-01T13:08:26.000Z</time>
      </trkpt>
      <trkpt lat="42.84778" lon="0.49197">
        <ele>1911</ele>
        <time>2020-02-01T13:08:27.000Z</time>
      </trkpt>
      <trkpt lat="42.84778" lon="0.49197">
        <ele>1911</ele>
        <time>2020-02-01T13:08:28.000Z</time>
      </trkpt>
      <trkpt lat="42.84778" lon="0.49197">
        <ele>1911</ele>
        <time>2020-02-01T13:08:29.000Z</time>
      </trkpt>
      <trkpt lat="42.84778" lon="0.49197">
        <ele>1910</ele>
        <time>2020-02-01T13:08:30.000Z</time>
      </trkpt>
      <trkpt lat="42.84778" lon="0.49198">
        <ele>1910</ele>
        <time>2020-02-01T13:08:31.000Z</time>
      </trkpt>
      <trkpt lat="42.84778" lon="0.49198">
        <ele>1910</ele>
        <time>2020-02-01T13:08:32.000Z</time>
      </trkpt>
      <trkpt lat="42.84778" lon="0.49198">
        <ele>1910</ele>
        <time>2020-02-01T13:08:33.000Z</time>
      </trkpt>
      <trkpt lat="42.84778" lon="0.49198">
        <ele>1910</ele>
        <time>2020-02-01T13:08:34.000Z</time>
      </trkpt>
      <trkpt lat="42.84778" lon="0.49198">
        <ele>1910</ele>
        <time>2020-02-01T13:08:35.000Z</time>
      </trkpt>
      <trkpt lat="42.84778" lon="0.49198">
        <ele>1910</ele>
        <time>2020-02-01T13:08:36.000Z</time>
      </trkpt>
      <trkpt lat="42.84778" lon="0.49199">
        <ele>1910</ele>
        <time>2020-02-01T13:08:37.000Z</time>
      </trkpt>
      <trkpt lat="42.84779" lon="0.49199">
        <ele>1910</ele>
        <time>2020-02-01T13:08:38.000Z</time>
      </trkpt>
      <trkpt lat="42.84779" lon="0.49199">
        <ele>1910</ele>
        <time>2020-02-01T13:08:39.000Z</time>
      </trkpt>
      <trkpt lat="42.84779" lon="0.49199">
        <ele>1910</ele>
        <time>2020-02-01T13:08:40.000Z</time>
      </trkpt>
      <trkpt lat="42.84779" lon="0.49199">
        <ele>1910</ele>
        <time>2020-02-01T13:08:41.000Z</time>
      </trkpt>
      <trkpt lat="42.84779" lon="0.49199">
        <ele>1911</ele>
        <time>2020-02-01T13:08:42.000Z</time>
      </trkpt>
      <trkpt lat="42.84779" lon="0.49199">
        <ele>1911</ele>
        <time>2020-02-01T13:08:43.000Z</time>
      </trkpt>
      <trkpt lat="42.84779" lon="0.49199">
        <ele>1911</ele>
        <time>2020-02-01T13:08:44.000Z</time>
      </trkpt>
      <trkpt lat="42.84779" lon="0.49199">
        <ele>1911</ele>
        <time>2020-02-01T13:08:45.000Z</time>
      </trkpt>
      <trkpt lat="42.84779" lon="0.49199">
        <ele>1911</ele>
        <time>2020-02-01T13:08:46.000Z</time>
      </trkpt>
      <trkpt lat="42.84779" lon="0.49199">
        <ele>1911</ele>
        <time>2020-02-01T13:08:47.000Z</time>
      </trkpt>
      <trkpt lat="42.84779" lon="0.49199">
        <ele>1911</ele>
        <time>2020-02-01T13:08:48.000Z</time>
      </trkpt>
      <trkpt lat="42.84779" lon="0.49199">
        <ele>1911</ele>
        <time>2020-02-01T13:08:49.000Z</time>
      </trkpt>
      <trkpt lat="42.84779" lon="0.49199">
        <ele>1911</ele>
        <time>2020-02-01T13:08:50.000Z</time>
      </trkpt>
      <trkpt lat="42.84779" lon="0.49199">
        <ele>1911</ele>
        <time>2020-02-01T13:08:51.000Z</time>
      </trkpt>
      <trkpt lat="42.84779" lon="0.49199">
        <ele>1911</ele>
        <time>2020-02-01T13:08:52.000Z</time>
      </trkpt>
      <trkpt lat="42.84779" lon="0.49199">
        <ele>1911</ele>
        <time>2020-02-01T13:08:53.000Z</time>
      </trkpt>
      <trkpt lat="42.84779" lon="0.49199">
        <ele>1910</ele>
        <time>2020-02-01T13:08:54.000Z</time>
      </trkpt>
      <trkpt lat="42.84779" lon="0.49199">
        <ele>1910</ele>
        <time>2020-02-01T13:08:55.000Z</time>
      </trkpt>
      <trkpt lat="42.84779" lon="0.49199">
        <ele>1910</ele>
        <time>2020-02-01T13:08:56.000Z</time>
      </trkpt>
      <trkpt lat="42.84779" lon="0.49199">
        <ele>1910</ele>
        <time>2020-02-01T13:08:57.000Z</time>
      </trkpt>
      <trkpt lat="42.84779" lon="0.49199">
        <ele>1910</ele>
        <time>2020-02-01T13:08:58.000Z</time>
      </trkpt>
      <trkpt lat="42.84779" lon="0.49199">
        <ele>1910</ele>
        <time>2020-02-01T13:08:59.000Z</time>
      </trkpt>
      <trkpt lat="42.84779" lon="0.49198">
        <ele>1910</ele>
        <time>2020-02-01T13:09:00.000Z</time>
      </trkpt>
      <trkpt lat="42.84779" lon="0.49198">
        <ele>1910</ele>
        <time>2020-02-01T13:09:01.000Z</time>
      </trkpt>
      <trkpt lat="42.84779" lon="0.49198">
        <ele>1910</ele>
        <time>2020-02-01T13:09:02.000Z</time>
      </trkpt>
      <trkpt lat="42.84779" lon="0.49198">
        <ele>1910</ele>
        <time>2020-02-01T13:09:03.000Z</time>
      </trkpt>
      <trkpt lat="42.84779" lon="0.49198">
        <ele>1910</ele>
        <time>2020-02-01T13:09:04.000Z</time>
      </trkpt>
      <trkpt lat="42.8478" lon="0.49198">
        <ele>1910</ele>
        <time>2020-02-01T13:09:05.000Z</time>
      </trkpt>
      <trkpt lat="42.8478" lon="0.49198">
        <ele>1910</ele>
        <time>2020-02-01T13:09:06.000Z</time>
      </trkpt>
      <trkpt lat="42.8478" lon="0.49198">
        <ele>1910</ele>
        <time>2020-02-01T13:09:07.000Z</time>
      </trkpt>
      <trkpt lat="42.84781" lon="0.49199">
        <ele>1910</ele>
        <time>2020-02-01T13:09:08.000Z</time>
      </trkpt>
      <trkpt lat="42.84781" lon="0.49199">
        <ele>1910</ele>
        <time>2020-02-01T13:09:09.000Z</time>
      </trkpt>
      <trkpt lat="42.84781" lon="0.492">
        <ele>1910</ele>
        <time>2020-02-01T13:09:10.000Z</time>
      </trkpt>
      <trkpt lat="42.84782" lon="0.492">
        <ele>1910</ele>
        <time>2020-02-01T13:09:11.000Z</time>
      </trkpt>
      <trkpt lat="42.84782" lon="0.49201">
        <ele>1909.5</ele>
        <time>2020-02-01T13:09:12.000Z</time>
      </trkpt>
      <trkpt lat="42.84782" lon="0.49202">
        <ele>1909</ele>
        <time>2020-02-01T13:09:13.000Z</time>
      </trkpt>
      <trkpt lat="42.84782" lon="0.49202">
        <ele>1909</ele>
        <time>2020-02-01T13:09:14.000Z</time>
      </trkpt>
      <trkpt lat="42.84782" lon="0.49203">
        <ele>1908.7</ele>
        <time>2020-02-01T13:09:15.000Z</time>
      </trkpt>
      <trkpt lat="42.84782" lon="0.49204">
        <ele>1908.3</ele>
        <time>2020-02-01T13:09:16.000Z</time>
      </trkpt>
      <trkpt lat="42.84782" lon="0.49205">
        <ele>1908</ele>
        <time>2020-02-01T13:09:17.000Z</time>
      </trkpt>
      <trkpt lat="42.84782" lon="0.49206">
        <ele>1908</ele>
        <time>2020-02-01T13:09:18.000Z</time>
      </trkpt>
      <trkpt lat="42.84782" lon="0.49206">
        <ele>1908</ele>
        <time>2020-02-01T13:09:19.000Z</time>
      </trkpt>
      <trkpt lat="42.84782" lon="0.49207">
        <ele>1907.5</ele>
        <time>2020-02-01T13:09:20.000Z</time>
      </trkpt>
      <trkpt lat="42.84782" lon="0.49208">
        <ele>1907</ele>
        <time>2020-02-01T13:09:21.000Z</time>
      </trkpt>
      <trkpt lat="42.84782" lon="0.49209">
        <ele>1907</ele>
        <time>2020-02-01T13:09:22.000Z</time>
      </trkpt>
      <trkpt lat="42.84782" lon="0.4921">
        <ele>1907</ele>
        <time>2020-02-01T13:09:23.000Z</time>
      </trkpt>
      <trkpt lat="42.84782" lon="0.49211">
        <ele>1907</ele>
        <time>2020-02-01T13:09:24.000Z</time>
      </trkpt>
      <trkpt lat="42.84782" lon="0.49212">
        <ele>1907</ele>
        <time>2020-02-01T13:09:25.000Z</time>
      </trkpt>
      <trkpt lat="42.84783" lon="0.49213">
        <ele>1906</ele>
        <time>2020-02-01T13:09:26.000Z</time>
      </trkpt>
      <trkpt lat="42.84783" lon="0.49215">
        <ele>1906</ele>
        <time>2020-02-01T13:09:27.000Z</time>
      </trkpt>
      <trkpt lat="42.84784" lon="0.49216">
        <ele>1906</ele>
        <time>2020-02-01T13:09:28.000Z</time>
      </trkpt>
      <trkpt lat="42.84785" lon="0.49217">
        <ele>1906</ele>
        <time>2020-02-01T13:09:29.000Z</time>
      </trkpt>
      <trkpt lat="42.84785" lon="0.49218">
        <ele>1906</ele>
        <time>2020-02-01T13:09:30.000Z</time>
      </trkpt>
      <trkpt lat="42.84786" lon="0.4922">
        <ele>1906</ele>
        <time>2020-02-01T13:09:31.000Z</time>
      </trkpt>
      <trkpt lat="42.84786" lon="0.49221">
        <ele>1905</ele>
        <time>2020-02-01T13:09:32.000Z</time>
      </trkpt>
      <trkpt lat="42.84787" lon="0.49222">
        <ele>1905</ele>
        <time>2020-02-01T13:09:33.000Z</time>
      </trkpt>
      <trkpt lat="42.84787" lon="0.49223">
        <ele>1905</ele>
        <time>2020-02-01T13:09:34.000Z</time>
      </trkpt>
      <trkpt lat="42.84788" lon="0.49224">
        <ele>1905</ele>
        <time>2020-02-01T13:09:35.000Z</time>
      </trkpt>
      <trkpt lat="42.84788" lon="0.49225">
        <ele>1904.5</ele>
        <time>2020-02-01T13:09:36.000Z</time>
      </trkpt>
      <trkpt lat="42.84788" lon="0.49226">
        <ele>1904</ele>
        <time>2020-02-01T13:09:37.000Z</time>
      </trkpt>
      <trkpt lat="42.84789" lon="0.49227">
        <ele>1904</ele>
        <time>2020-02-01T13:09:38.000Z</time>
      </trkpt>
      <trkpt lat="42.8479" lon="0.49229">
        <ele>1904</ele>
        <time>2020-02-01T13:09:39.000Z</time>
      </trkpt>
      <trkpt lat="42.8479" lon="0.4923">
        <ele>1904</ele>
        <time>2020-02-01T13:09:40.000Z</time>
      </trkpt>
      <trkpt lat="42.84791" lon="0.49231">
        <ele>1904</ele>
        <time>2020-02-01T13:09:41.000Z</time>
      </trkpt>
      <trkpt lat="42.84791" lon="0.49232">
        <ele>1903.5</ele>
        <time>2020-02-01T13:09:42.000Z</time>
      </trkpt>
      <trkpt lat="42.84792" lon="0.49233">
        <ele>1903</ele>
        <time>2020-02-01T13:09:43.000Z</time>
      </trkpt>
      <trkpt lat="42.84792" lon="0.49234">
        <ele>1903</ele>
        <time>2020-02-01T13:09:44.000Z</time>
      </trkpt>
      <trkpt lat="42.84793" lon="0.49235">
        <ele>1903</ele>
        <time>2020-02-01T13:09:45.000Z</time>
      </trkpt>
      <trkpt lat="42.84794" lon="0.49236">
        <ele>1903</ele>
        <time>2020-02-01T13:09:46.000Z</time>
      </trkpt>
      <trkpt lat="42.84794" lon="0.49237">
        <ele>1903</ele>
        <time>2020-02-01T13:09:47.000Z</time>
      </trkpt>
      <trkpt lat="42.84795" lon="0.49238">
        <ele>1903</ele>
        <time>2020-02-01T13:09:48.000Z</time>
      </trkpt>
      <trkpt lat="42.84796" lon="0.49239">
        <ele>1903</ele>
        <time>2020-02-01T13:09:49.000Z</time>
      </trkpt>
      <trkpt lat="42.84796" lon="0.49241">
        <ele>1903</ele>
        <time>2020-02-01T13:09:50.000Z</time>
      </trkpt>
      <trkpt lat="42.84797" lon="0.49242">
        <ele>1903</ele>
        <time>2020-02-01T13:09:51.000Z</time>
      </trkpt>
      <trkpt lat="42.84798" lon="0.49244">
        <ele>1903</ele>
        <time>2020-02-01T13:09:52.000Z</time>
      </trkpt>
      <trkpt lat="42.84799" lon="0.49245">
        <ele>1903</ele>
        <time>2020-02-01T13:09:53.000Z</time>
      </trkpt>
      <trkpt lat="42.84799" lon="0.49247">
        <ele>1902.5</ele>
        <time>2020-02-01T13:09:54.000Z</time>
      </trkpt>
      <trkpt lat="42.848" lon="0.49248">
        <ele>1902</ele>
        <time>2020-02-01T13:09:55.000Z</time>
      </trkpt>
      <trkpt lat="42.848" lon="0.49249">
        <ele>1902</ele>
        <time>2020-02-01T13:09:56.000Z</time>
      </trkpt>
      <trkpt lat="42.848" lon="0.4925">
        <ele>1902</ele>
        <time>2020-02-01T13:09:57.000Z</time>
      </trkpt>
      <trkpt lat="42.84801" lon="0.49251">
        <ele>1902</ele>
        <time>2020-02-01T13:09:58.000Z</time>
      </trkpt>
      <trkpt lat="42.84801" lon="0.49252">
        <ele>1902</ele>
        <time>2020-02-01T13:09:59.000Z</time>
      </trkpt>
      <trkpt lat="42.84801" lon="0.49254">
        <ele>1902</ele>
        <time>2020-02-01T13:10:00.000Z</time>
      </trkpt>
      <trkpt lat="42.84801" lon="0.49255">
        <ele>1902</ele>
        <time>2020-02-01T13:10:01.000Z</time>
      </trkpt>
      <trkpt lat="42.84802" lon="0.49256">
        <ele>1902</ele>
        <time>2020-02-01T13:10:02.000Z</time>
      </trkpt>
      <trkpt lat="42.84802" lon="0.49258">
        <ele>1901.7</ele>
        <time>2020-02-01T13:10:03.000Z</time>
      </trkpt>
      <trkpt lat="42.84803" lon="0.49259">
        <ele>1901.3</ele>
        <time>2020-02-01T13:10:04.000Z</time>
      </trkpt>
      <trkpt lat="42.84803" lon="0.4926">
        <ele>1901</ele>
        <time>2020-02-01T13:10:05.000Z</time>
      </trkpt>
      <trkpt lat="42.84803" lon="0.49262">
        <ele>1901</ele>
        <time>2020-02-01T13:10:06.000Z</time>
      </trkpt>
      <trkpt lat="42.84804" lon="0.49263">
        <ele>1901</ele>
        <time>2020-02-01T13:10:07.000Z</time>
      </trkpt>
      <trkpt lat="42.84804" lon="0.49265">
        <ele>1901</ele>
        <time>2020-02-01T13:10:08.000Z</time>
      </trkpt>
      <trkpt lat="42.84805" lon="0.49266">
        <ele>1900.7</ele>
        <time>2020-02-01T13:10:09.000Z</time>
      </trkpt>
      <trkpt lat="42.84805" lon="0.49267">
        <ele>1900.3</ele>
        <time>2020-02-01T13:10:10.000Z</time>
      </trkpt>
      <trkpt lat="42.84805" lon="0.49268">
        <ele>1900</ele>
        <time>2020-02-01T13:10:11.000Z</time>
      </trkpt>
      <trkpt lat="42.84806" lon="0.4927">
        <ele>1900</ele>
        <time>2020-02-01T13:10:12.000Z</time>
      </trkpt>
      <trkpt lat="42.84806" lon="0.49271">
        <ele>1900</ele>
        <time>2020-02-01T13:10:13.000Z</time>
      </trkpt>
      <trkpt lat="42.84807" lon="0.49272">
        <ele>1900</ele>
        <time>2020-02-01T13:10:14.000Z</time>
      </trkpt>
      <trkpt lat="42.84807" lon="0.49273">
        <ele>1900</ele>
        <time>2020-02-01T13:10:15.000Z</time>
      </trkpt>
      <trkpt lat="42.84808" lon="0.49274">
        <ele>1899</ele>
        <time>2020-02-01T13:10:16.000Z</time>
      </trkpt>
      <trkpt lat="42.84808" lon="0.49275">
        <ele>1899</ele>
        <time>2020-02-01T13:10:17.000Z</time>
      </trkpt>
      <trkpt lat="42.84809" lon="0.49277">
        <ele>1899</ele>
        <time>2020-02-01T13:10:18.000Z</time>
      </trkpt>
      <trkpt lat="42.84809" lon="0.49278">
        <ele>1899</ele>
        <time>2020-02-01T13:10:19.000Z</time>
      </trkpt>
      <trkpt lat="42.8481" lon="0.49279">
        <ele>1899</ele>
        <time>2020-02-01T13:10:20.000Z</time>
      </trkpt>
      <trkpt lat="42.8481" lon="0.4928">
        <ele>1899</ele>
        <time>2020-02-01T13:10:21.000Z</time>
      </trkpt>
      <trkpt lat="42.84811" lon="0.49281">
        <ele>1899</ele>
        <time>2020-02-01T13:10:22.000Z</time>
      </trkpt>
      <trkpt lat="42.84812" lon="0.49282">
        <ele>1899</ele>
        <time>2020-02-01T13:10:23.000Z</time>
      </trkpt>
      <trkpt lat="42.84812" lon="0.49283">
        <ele>1898</ele>
        <time>2020-02-01T13:10:24.000Z</time>
      </trkpt>
      <trkpt lat="42.84813" lon="0.49284">
        <ele>1898</ele>
        <time>2020-02-01T13:10:25.000Z</time>
      </trkpt>
      <trkpt lat="42.84813" lon="0.49285">
        <ele>1898</ele>
        <time>2020-02-01T13:10:26.000Z</time>
      </trkpt>
      <trkpt lat="42.84814" lon="0.49285">
        <ele>1898</ele>
        <time>2020-02-01T13:10:27.000Z</time>
      </trkpt>
      <trkpt lat="42.84814" lon="0.49286">
        <ele>1898</ele>
        <time>2020-02-01T13:10:28.000Z</time>
      </trkpt>
      <trkpt lat="42.84815" lon="0.49287">
        <ele>1898</ele>
        <time>2020-02-01T13:10:29.000Z</time>
      </trkpt>
      <trkpt lat="42.84816" lon="0.49288">
        <ele>1897.5</ele>
        <time>2020-02-01T13:10:30.000Z</time>
      </trkpt>
      <trkpt lat="42.84816" lon="0.49288">
        <ele>1897</ele>
        <time>2020-02-01T13:10:31.000Z</time>
      </trkpt>
      <trkpt lat="42.84817" lon="0.49289">
        <ele>1897</ele>
        <time>2020-02-01T13:10:32.000Z</time>
      </trkpt>
      <trkpt lat="42.84817" lon="0.4929">
        <ele>1897</ele>
        <time>2020-02-01T13:10:33.000Z</time>
      </trkpt>
      <trkpt lat="42.84818" lon="0.4929">
        <ele>1897</ele>
        <time>2020-02-01T13:10:34.000Z</time>
      </trkpt>
      <trkpt lat="42.84818" lon="0.49291">
        <ele>1897</ele>
        <time>2020-02-01T13:10:35.000Z</time>
      </trkpt>
      <trkpt lat="42.84819" lon="0.49292">
        <ele>1896</ele>
        <time>2020-02-01T13:10:36.000Z</time>
      </trkpt>
      <trkpt lat="42.8482" lon="0.49293">
        <ele>1896</ele>
        <time>2020-02-01T13:10:37.000Z</time>
      </trkpt>
      <trkpt lat="42.8482" lon="0.49294">
        <ele>1896</ele>
        <time>2020-02-01T13:10:38.000Z</time>
      </trkpt>
      <trkpt lat="42.84821" lon="0.49295">
        <ele>1896</ele>
        <time>2020-02-01T13:10:39.000Z</time>
      </trkpt>
      <trkpt lat="42.84821" lon="0.49296">
        <ele>1895.5</ele>
        <time>2020-02-01T13:10:40.000Z</time>
      </trkpt>
      <trkpt lat="42.84822" lon="0.49297">
        <ele>1895</ele>
        <time>2020-02-01T13:10:41.000Z</time>
      </trkpt>
      <trkpt lat="42.84823" lon="0.49298">
        <ele>1895</ele>
        <time>2020-02-01T13:10:42.000Z</time>
      </trkpt>
      <trkpt lat="42.84823" lon="0.49299">
        <ele>1895</ele>
        <time>2020-02-01T13:10:43.000Z</time>
      </trkpt>
      <trkpt lat="42.84824" lon="0.493">
        <ele>1895</ele>
        <time>2020-02-01T13:10:44.000Z</time>
      </trkpt>
      <trkpt lat="42.84824" lon="0.49301">
        <ele>1895</ele>
        <time>2020-02-01T13:10:45.000Z</time>
      </trkpt>
      <trkpt lat="42.84825" lon="0.49302">
        <ele>1894.5</ele>
        <time>2020-02-01T13:10:46.000Z</time>
      </trkpt>
      <trkpt lat="42.84826" lon="0.49303">
        <ele>1894</ele>
        <time>2020-02-01T13:10:47.000Z</time>
      </trkpt>
      <trkpt lat="42.84826" lon="0.49304">
        <ele>1894</ele>
        <time>2020-02-01T13:10:48.000Z</time>
      </trkpt>
      <trkpt lat="42.84827" lon="0.49304">
        <ele>1894</ele>
        <time>2020-02-01T13:10:49.000Z</time>
      </trkpt>
      <trkpt lat="42.84827" lon="0.49305">
        <ele>1894</ele>
        <time>2020-02-01T13:10:50.000Z</time>
      </trkpt>
      <trkpt lat="42.84828" lon="0.49306">
        <ele>1894</ele>
        <time>2020-02-01T13:10:51.000Z</time>
      </trkpt>
      <trkpt lat="42.84828" lon="0.49307">
        <ele>1893.5</ele>
        <time>2020-02-01T13:10:52.000Z</time>
      </trkpt>
      <trkpt lat="42.84828" lon="0.49308">
        <ele>1893</ele>
        <time>2020-02-01T13:10:53.000Z</time>
      </trkpt>
      <trkpt lat="42.84829" lon="0.49309">
        <ele>1893</ele>
        <time>2020-02-01T13:10:54.000Z</time>
      </trkpt>
      <trkpt lat="42.84829" lon="0.4931">
        <ele>1893</ele>
        <time>2020-02-01T13:10:55.000Z</time>
      </trkpt>
      <trkpt lat="42.8483" lon="0.49311">
        <ele>1892</ele>
        <time>2020-02-01T13:10:56.000Z</time>
      </trkpt>
      <trkpt lat="42.8483" lon="0.49312">
        <ele>1892</ele>
        <time>2020-02-01T13:10:57.000Z</time>
      </trkpt>
      <trkpt lat="42.84831" lon="0.49313">
        <ele>1892</ele>
        <time>2020-02-01T13:10:58.000Z</time>
      </trkpt>
      <trkpt lat="42.84831" lon="0.49314">
        <ele>1892</ele>
        <time>2020-02-01T13:10:59.000Z</time>
      </trkpt>
      <trkpt lat="42.84831" lon="0.49315">
        <ele>1891</ele>
        <time>2020-02-01T13:11:00.000Z</time>
      </trkpt>
      <trkpt lat="42.84832" lon="0.49316">
        <ele>1891</ele>
        <time>2020-02-01T13:11:01.000Z</time>
      </trkpt>
      <trkpt lat="42.84832" lon="0.49317">
        <ele>1891</ele>
        <time>2020-02-01T13:11:02.000Z</time>
      </trkpt>
      <trkpt lat="42.84833" lon="0.49318">
        <ele>1891</ele>
        <time>2020-02-01T13:11:03.000Z</time>
      </trkpt>
      <trkpt lat="42.84833" lon="0.49319">
        <ele>1891</ele>
        <time>2020-02-01T13:11:04.000Z</time>
      </trkpt>
      <trkpt lat="42.84834" lon="0.49319">
        <ele>1891</ele>
        <time>2020-02-01T13:11:05.000Z</time>
      </trkpt>
      <trkpt lat="42.84834" lon="0.4932">
        <ele>1890.5</ele>
        <time>2020-02-01T13:11:06.000Z</time>
      </trkpt>
      <trkpt lat="42.84835" lon="0.49322">
        <ele>1890</ele>
        <time>2020-02-01T13:11:07.000Z</time>
      </trkpt>
      <trkpt lat="42.84836" lon="0.49324">
        <ele>1890</ele>
        <time>2020-02-01T13:11:08.000Z</time>
      </trkpt>
      <trkpt lat="42.84836" lon="0.49326">
        <ele>1890</ele>
        <time>2020-02-01T13:11:09.000Z</time>
      </trkpt>
      <trkpt lat="42.84837" lon="0.49327">
        <ele>1890</ele>
        <time>2020-02-01T13:11:10.000Z</time>
      </trkpt>
      <trkpt lat="42.84837" lon="0.49329">
        <ele>1890</ele>
        <time>2020-02-01T13:11:11.000Z</time>
      </trkpt>
      <trkpt lat="42.84838" lon="0.4933">
        <ele>1890</ele>
        <time>2020-02-01T13:11:12.000Z</time>
      </trkpt>
      <trkpt lat="42.84838" lon="0.49331">
        <ele>1889.7</ele>
        <time>2020-02-01T13:11:13.000Z</time>
      </trkpt>
      <trkpt lat="42.84839" lon="0.49332">
        <ele>1889.3</ele>
        <time>2020-02-01T13:11:14.000Z</time>
      </trkpt>
      <trkpt lat="42.84839" lon="0.49332">
        <ele>1889</ele>
        <time>2020-02-01T13:11:15.000Z</time>
      </trkpt>
      <trkpt lat="42.8484" lon="0.49333">
        <ele>1889</ele>
        <time>2020-02-01T13:11:16.000Z</time>
      </trkpt>
      <trkpt lat="42.8484" lon="0.49335">
        <ele>1889</ele>
        <time>2020-02-01T13:11:17.000Z</time>
      </trkpt>
      <trkpt lat="42.84841" lon="0.49336">
        <ele>1889</ele>
        <time>2020-02-01T13:11:18.000Z</time>
      </trkpt>
      <trkpt lat="42.84841" lon="0.49337">
        <ele>1889</ele>
        <time>2020-02-01T13:11:19.000Z</time>
      </trkpt>
      <trkpt lat="42.84842" lon="0.49338">
        <ele>1888</ele>
        <time>2020-02-01T13:11:20.000Z</time>
      </trkpt>
      <trkpt lat="42.84842" lon="0.49338">
        <ele>1888</ele>
        <time>2020-02-01T13:11:21.000Z</time>
      </trkpt>
      <trkpt lat="42.84842" lon="0.49339">
        <ele>1888</ele>
        <time>2020-02-01T13:11:22.000Z</time>
      </trkpt>
      <trkpt lat="42.84843" lon="0.4934">
        <ele>1888</ele>
        <time>2020-02-01T13:11:23.000Z</time>
      </trkpt>
      <trkpt lat="42.84843" lon="0.49341">
        <ele>1887.5</ele>
        <time>2020-02-01T13:11:24.000Z</time>
      </trkpt>
      <trkpt lat="42.84844" lon="0.49342">
        <ele>1887</ele>
        <time>2020-02-01T13:11:25.000Z</time>
      </trkpt>
      <trkpt lat="42.84844" lon="0.49343">
        <ele>1887</ele>
        <time>2020-02-01T13:11:26.000Z</time>
      </trkpt>
      <trkpt lat="42.84845" lon="0.49344">
        <ele>1886.7</ele>
        <time>2020-02-01T13:11:27.000Z</time>
      </trkpt>
      <trkpt lat="42.84846" lon="0.49345">
        <ele>1886.3</ele>
        <time>2020-02-01T13:11:28.000Z</time>
      </trkpt>
      <trkpt lat="42.84846" lon="0.49346">
        <ele>1886</ele>
        <time>2020-02-01T13:11:29.000Z</time>
      </trkpt>
      <trkpt lat="42.84847" lon="0.49347">
        <ele>1886</ele>
        <time>2020-02-01T13:11:30.000Z</time>
      </trkpt>
      <trkpt lat="42.84847" lon="0.49348">
        <ele>1886</ele>
        <time>2020-02-01T13:11:31.000Z</time>
      </trkpt>
      <trkpt lat="42.84848" lon="0.49349">
        <ele>1885</ele>
        <time>2020-02-01T13:11:32.000Z</time>
      </trkpt>
      <trkpt lat="42.84849" lon="0.4935">
        <ele>1885</ele>
        <time>2020-02-01T13:11:33.000Z</time>
      </trkpt>
      <trkpt lat="42.8485" lon="0.49352">
        <ele>1885</ele>
        <time>2020-02-01T13:11:34.000Z</time>
      </trkpt>
      <trkpt lat="42.84851" lon="0.49353">
        <ele>1885</ele>
        <time>2020-02-01T13:11:35.000Z</time>
      </trkpt>
      <trkpt lat="42.84851" lon="0.49354">
        <ele>1885</ele>
        <time>2020-02-01T13:11:36.000Z</time>
      </trkpt>
      <trkpt lat="42.84852" lon="0.49356">
        <ele>1885</ele>
        <time>2020-02-01T13:11:37.000Z</time>
      </trkpt>
      <trkpt lat="42.84853" lon="0.49357">
        <ele>1884</ele>
        <time>2020-02-01T13:11:38.000Z</time>
      </trkpt>
      <trkpt lat="42.84854" lon="0.49358">
        <ele>1884</ele>
        <time>2020-02-01T13:11:39.000Z</time>
      </trkpt>
      <trkpt lat="42.84855" lon="0.49359">
        <ele>1884</ele>
        <time>2020-02-01T13:11:40.000Z</time>
      </trkpt>
      <trkpt lat="42.84855" lon="0.4936">
        <ele>1884</ele>
        <time>2020-02-01T13:11:41.000Z</time>
      </trkpt>
      <trkpt lat="42.84856" lon="0.49361">
        <ele>1883</ele>
        <time>2020-02-01T13:11:42.000Z</time>
      </trkpt>
      <trkpt lat="42.84856" lon="0.49362">
        <ele>1883</ele>
        <time>2020-02-01T13:11:43.000Z</time>
      </trkpt>
      <trkpt lat="42.84857" lon="0.49363">
        <ele>1883</ele>
        <time>2020-02-01T13:11:44.000Z</time>
      </trkpt>
      <trkpt lat="42.84857" lon="0.49364">
        <ele>1883</ele>
        <time>2020-02-01T13:11:45.000Z</time>
      </trkpt>
      <trkpt lat="42.84857" lon="0.49366">
        <ele>1883</ele>
        <time>2020-02-01T13:11:46.000Z</time>
      </trkpt>
      <trkpt lat="42.84858" lon="0.49367">
        <ele>1883</ele>
        <time>2020-02-01T13:11:47.000Z</time>
      </trkpt>
      <trkpt lat="42.84858" lon="0.49368">
        <ele>1882</ele>
        <time>2020-02-01T13:11:48.000Z</time>
      </trkpt>
      <trkpt lat="42.84858" lon="0.49369">
        <ele>1881.7</ele>
        <time>2020-02-01T13:11:49.000Z</time>
      </trkpt>
      <trkpt lat="42.84858" lon="0.4937">
        <ele>1881.3</ele>
        <time>2020-02-01T13:11:50.000Z</time>
      </trkpt>
      <trkpt lat="42.84858" lon="0.49371">
        <ele>1881</ele>
        <time>2020-02-01T13:11:51.000Z</time>
      </trkpt>
      <trkpt lat="42.84858" lon="0.49372">
        <ele>1881</ele>
        <time>2020-02-01T13:11:52.000Z</time>
      </trkpt>
      <trkpt lat="42.84859" lon="0.49374">
        <ele>1881</ele>
        <time>2020-02-01T13:11:53.000Z</time>
      </trkpt>
      <trkpt lat="42.84859" lon="0.49375">
        <ele>1880</ele>
        <time>2020-02-01T13:11:54.000Z</time>
      </trkpt>
      <trkpt lat="42.84859" lon="0.49376">
        <ele>1880</ele>
        <time>2020-02-01T13:11:55.000Z</time>
      </trkpt>
      <trkpt lat="42.8486" lon="0.49377">
        <ele>1880</ele>
        <time>2020-02-01T13:11:56.000Z</time>
      </trkpt>
      <trkpt lat="42.8486" lon="0.49378">
        <ele>1880</ele>
        <time>2020-02-01T13:11:57.000Z</time>
      </trkpt>
      <trkpt lat="42.8486" lon="0.49379">
        <ele>1880</ele>
        <time>2020-02-01T13:11:58.000Z</time>
      </trkpt>
      <trkpt lat="42.8486" lon="0.4938">
        <ele>1880</ele>
        <time>2020-02-01T13:11:59.000Z</time>
      </trkpt>
      <trkpt lat="42.84861" lon="0.49381">
        <ele>1879.5</ele>
        <time>2020-02-01T13:12:00.000Z</time>
      </trkpt>
      <trkpt lat="42.84861" lon="0.49382">
        <ele>1879</ele>
        <time>2020-02-01T13:12:01.000Z</time>
      </trkpt>
      <trkpt lat="42.84861" lon="0.49383">
        <ele>1879</ele>
        <time>2020-02-01T13:12:02.000Z</time>
      </trkpt>
      <trkpt lat="42.84862" lon="0.49384">
        <ele>1878.7</ele>
        <time>2020-02-01T13:12:03.000Z</time>
      </trkpt>
      <trkpt lat="42.84862" lon="0.49385">
        <ele>1878.3</ele>
        <time>2020-02-01T13:12:04.000Z</time>
      </trkpt>
      <trkpt lat="42.84863" lon="0.49386">
        <ele>1878</ele>
        <time>2020-02-01T13:12:05.000Z</time>
      </trkpt>
      <trkpt lat="42.84863" lon="0.49387">
        <ele>1878</ele>
        <time>2020-02-01T13:12:06.000Z</time>
      </trkpt>
      <trkpt lat="42.84864" lon="0.49388">
        <ele>1878</ele>
        <time>2020-02-01T13:12:07.000Z</time>
      </trkpt>
      <trkpt lat="42.84864" lon="0.49389">
        <ele>1878</ele>
        <time>2020-02-01T13:12:08.000Z</time>
      </trkpt>
      <trkpt lat="42.84865" lon="0.4939">
        <ele>1878</ele>
        <time>2020-02-01T13:12:09.000Z</time>
      </trkpt>
      <trkpt lat="42.84866" lon="0.49392">
        <ele>1878</ele>
        <time>2020-02-01T13:12:10.000Z</time>
      </trkpt>
      <trkpt lat="42.84867" lon="0.49393">
        <ele>1877.7</ele>
        <time>2020-02-01T13:12:11.000Z</time>
      </trkpt>
      <trkpt lat="42.84868" lon="0.49395">
        <ele>1877.3</ele>
        <time>2020-02-01T13:12:12.000Z</time>
      </trkpt>
      <trkpt lat="42.84869" lon="0.49396">
        <ele>1877</ele>
        <time>2020-02-01T13:12:13.000Z</time>
      </trkpt>
      <trkpt lat="42.84869" lon="0.49397">
        <ele>1877</ele>
        <time>2020-02-01T13:12:14.000Z</time>
      </trkpt>
      <trkpt lat="42.8487" lon="0.49398">
        <ele>1877</ele>
        <time>2020-02-01T13:12:15.000Z</time>
      </trkpt>
      <trkpt lat="42.84871" lon="0.49399">
        <ele>1877</ele>
        <time>2020-02-01T13:12:16.000Z</time>
      </trkpt>
      <trkpt lat="42.84871" lon="0.49401">
        <ele>1877</ele>
        <time>2020-02-01T13:12:17.000Z</time>
      </trkpt>
      <trkpt lat="42.84872" lon="0.49402">
        <ele>1877</ele>
        <time>2020-02-01T13:12:18.000Z</time>
      </trkpt>
      <trkpt lat="42.84872" lon="0.49403">
        <ele>1877</ele>
        <time>2020-02-01T13:12:19.000Z</time>
      </trkpt>
      <trkpt lat="42.84873" lon="0.49404">
        <ele>1876.5</ele>
        <time>2020-02-01T13:12:20.000Z</time>
      </trkpt>
      <trkpt lat="42.84873" lon="0.49405">
        <ele>1876</ele>
        <time>2020-02-01T13:12:21.000Z</time>
      </trkpt>
      <trkpt lat="42.84873" lon="0.49406">
        <ele>1876</ele>
        <time>2020-02-01T13:12:22.000Z</time>
      </trkpt>
      <trkpt lat="42.84874" lon="0.49407">
        <ele>1875.7</ele>
        <time>2020-02-01T13:12:23.000Z</time>
      </trkpt>
      <trkpt lat="42.84874" lon="0.49409">
        <ele>1875.3</ele>
        <time>2020-02-01T13:12:24.000Z</time>
      </trkpt>
      <trkpt lat="42.84875" lon="0.4941">
        <ele>1875</ele>
        <time>2020-02-01T13:12:25.000Z</time>
      </trkpt>
      <trkpt lat="42.84875" lon="0.49411">
        <ele>1875</ele>
        <time>2020-02-01T13:12:26.000Z</time>
      </trkpt>
      <trkpt lat="42.84875" lon="0.49412">
        <ele>1875</ele>
        <time>2020-02-01T13:12:27.000Z</time>
      </trkpt>
      <trkpt lat="42.84876" lon="0.49413">
        <ele>1874</ele>
        <time>2020-02-01T13:12:28.000Z</time>
      </trkpt>
      <trkpt lat="42.84876" lon="0.49414">
        <ele>1874</ele>
        <time>2020-02-01T13:12:29.000Z</time>
      </trkpt>
      <trkpt lat="42.84877" lon="0.49415">
        <ele>1874</ele>
        <time>2020-02-01T13:12:30.000Z</time>
      </trkpt>
      <trkpt lat="42.84877" lon="0.49416">
        <ele>1874</ele>
        <time>2020-02-01T13:12:31.000Z</time>
      </trkpt>
      <trkpt lat="42.84878" lon="0.49417">
        <ele>1873.5</ele>
        <time>2020-02-01T13:12:32.000Z</time>
      </trkpt>
      <trkpt lat="42.84878" lon="0.49418">
        <ele>1873</ele>
        <time>2020-02-01T13:12:33.000Z</time>
      </trkpt>
      <trkpt lat="42.84879" lon="0.49419">
        <ele>1873</ele>
        <time>2020-02-01T13:12:34.000Z</time>
      </trkpt>
      <trkpt lat="42.84879" lon="0.4942">
        <ele>1873</ele>
        <time>2020-02-01T13:12:35.000Z</time>
      </trkpt>
      <trkpt lat="42.8488" lon="0.49421">
        <ele>1873</ele>
        <time>2020-02-01T13:12:36.000Z</time>
      </trkpt>
      <trkpt lat="42.8488" lon="0.49422">
        <ele>1873</ele>
        <time>2020-02-01T13:12:37.000Z</time>
      </trkpt>
      <trkpt lat="42.8488" lon="0.49423">
        <ele>1873</ele>
        <time>2020-02-01T13:12:38.000Z</time>
      </trkpt>
      <trkpt lat="42.8488" lon="0.49424">
        <ele>1873</ele>
        <time>2020-02-01T13:12:39.000Z</time>
      </trkpt>
      <trkpt lat="42.84881" lon="0.49425">
        <ele>1872</ele>
        <time>2020-02-01T13:12:40.000Z</time>
      </trkpt>
      <trkpt lat="42.84881" lon="0.49426">
        <ele>1872</ele>
        <time>2020-02-01T13:12:41.000Z</time>
      </trkpt>
      <trkpt lat="42.84882" lon="0.49427">
        <ele>1872</ele>
        <time>2020-02-01T13:12:42.000Z</time>
      </trkpt>
      <trkpt lat="42.84882" lon="0.49428">
        <ele>1872</ele>
        <time>2020-02-01T13:12:43.000Z</time>
      </trkpt>
      <trkpt lat="42.84883" lon="0.4943">
        <ele>1871.5</ele>
        <time>2020-02-01T13:12:44.000Z</time>
      </trkpt>
      <trkpt lat="42.84883" lon="0.49431">
        <ele>1871</ele>
        <time>2020-02-01T13:12:45.000Z</time>
      </trkpt>
      <trkpt lat="42.84884" lon="0.49432">
        <ele>1871</ele>
        <time>2020-02-01T13:12:46.000Z</time>
      </trkpt>
      <trkpt lat="42.84884" lon="0.49433">
        <ele>1870.7</ele>
        <time>2020-02-01T13:12:47.000Z</time>
      </trkpt>
      <trkpt lat="42.84885" lon="0.49434">
        <ele>1870.3</ele>
        <time>2020-02-01T13:12:48.000Z</time>
      </trkpt>
      <trkpt lat="42.84885" lon="0.49435">
        <ele>1870</ele>
        <time>2020-02-01T13:12:49.000Z</time>
      </trkpt>
      <trkpt lat="42.84886" lon="0.49436">
        <ele>1869.5</ele>
        <time>2020-02-01T13:12:50.000Z</time>
      </trkpt>
      <trkpt lat="42.84886" lon="0.49437">
        <ele>1869</ele>
        <time>2020-02-01T13:12:51.000Z</time>
      </trkpt>
      <trkpt lat="42.84886" lon="0.49438">
        <ele>1868</ele>
        <time>2020-02-01T13:12:52.000Z</time>
      </trkpt>
      <trkpt lat="42.84887" lon="0.49439">
        <ele>1868</ele>
        <time>2020-02-01T13:12:53.000Z</time>
      </trkpt>
      <trkpt lat="42.84887" lon="0.4944">
        <ele>1868</ele>
        <time>2020-02-01T13:12:54.000Z</time>
      </trkpt>
      <trkpt lat="42.84887" lon="0.49441">
        <ele>1868</ele>
        <time>2020-02-01T13:12:55.000Z</time>
      </trkpt>
      <trkpt lat="42.84888" lon="0.49442">
        <ele>1868</ele>
        <time>2020-02-01T13:12:56.000Z</time>
      </trkpt>
      <trkpt lat="42.84888" lon="0.49444">
        <ele>1867.7</ele>
        <time>2020-02-01T13:12:57.000Z</time>
      </trkpt>
      <trkpt lat="42.84889" lon="0.49445">
        <ele>1867.3</ele>
        <time>2020-02-01T13:12:58.000Z</time>
      </trkpt>
      <trkpt lat="42.84889" lon="0.49446">
        <ele>1867</ele>
        <time>2020-02-01T13:12:59.000Z</time>
      </trkpt>
      <trkpt lat="42.8489" lon="0.49447">
        <ele>1867</ele>
        <time>2020-02-01T13:13:00.000Z</time>
      </trkpt>
      <trkpt lat="42.8489" lon="0.49448">
        <ele>1867</ele>
        <time>2020-02-01T13:13:01.000Z</time>
      </trkpt>
      <trkpt lat="42.84891" lon="0.49449">
        <ele>1867</ele>
        <time>2020-02-01T13:13:02.000Z</time>
      </trkpt>
      <trkpt lat="42.84891" lon="0.4945">
        <ele>1866.7</ele>
        <time>2020-02-01T13:13:03.000Z</time>
      </trkpt>
      <trkpt lat="42.84891" lon="0.49451">
        <ele>1866.3</ele>
        <time>2020-02-01T13:13:04.000Z</time>
      </trkpt>
      <trkpt lat="42.84892" lon="0.49451">
        <ele>1866</ele>
        <time>2020-02-01T13:13:05.000Z</time>
      </trkpt>
      <trkpt lat="42.84892" lon="0.49452">
        <ele>1866</ele>
        <time>2020-02-01T13:13:06.000Z</time>
      </trkpt>
      <trkpt lat="42.84892" lon="0.49453">
        <ele>1866</ele>
        <time>2020-02-01T13:13:07.000Z</time>
      </trkpt>
      <trkpt lat="42.84893" lon="0.49454">
        <ele>1865</ele>
        <time>2020-02-01T13:13:08.000Z</time>
      </trkpt>
      <trkpt lat="42.84893" lon="0.49455">
        <ele>1864.7</ele>
        <time>2020-02-01T13:13:09.000Z</time>
      </trkpt>
      <trkpt lat="42.84893" lon="0.49456">
        <ele>1864.3</ele>
        <time>2020-02-01T13:13:10.000Z</time>
      </trkpt>
      <trkpt lat="42.84893" lon="0.49457">
        <ele>1864</ele>
        <time>2020-02-01T13:13:11.000Z</time>
      </trkpt>
      <trkpt lat="42.84894" lon="0.49458">
        <ele>1864</ele>
        <time>2020-02-01T13:13:12.000Z</time>
      </trkpt>
      <trkpt lat="42.84894" lon="0.4946">
        <ele>1864</ele>
        <time>2020-02-01T13:13:13.000Z</time>
      </trkpt>
      <trkpt lat="42.84894" lon="0.49461">
        <ele>1863</ele>
        <time>2020-02-01T13:13:14.000Z</time>
      </trkpt>
      <trkpt lat="42.84894" lon="0.49462">
        <ele>1863</ele>
        <time>2020-02-01T13:13:15.000Z</time>
      </trkpt>
      <trkpt lat="42.84894" lon="0.49463">
        <ele>1863</ele>
        <time>2020-02-01T13:13:16.000Z</time>
      </trkpt>
      <trkpt lat="42.84894" lon="0.49465">
        <ele>1863</ele>
        <time>2020-02-01T13:13:17.000Z</time>
      </trkpt>
      <trkpt lat="42.84895" lon="0.49466">
        <ele>1862.5</ele>
        <time>2020-02-01T13:13:18.000Z</time>
      </trkpt>
      <trkpt lat="42.84895" lon="0.49467">
        <ele>1862</ele>
        <time>2020-02-01T13:13:19.000Z</time>
      </trkpt>
      <trkpt lat="42.84895" lon="0.49468">
        <ele>1862</ele>
        <time>2020-02-01T13:13:20.000Z</time>
      </trkpt>
      <trkpt lat="42.84895" lon="0.49469">
        <ele>1862</ele>
        <time>2020-02-01T13:13:21.000Z</time>
      </trkpt>
      <trkpt lat="42.84895" lon="0.4947">
        <ele>1861</ele>
        <time>2020-02-01T13:13:22.000Z</time>
      </trkpt>
      <trkpt lat="42.84896" lon="0.49471">
        <ele>1861</ele>
        <time>2020-02-01T13:13:23.000Z</time>
      </trkpt>
      <trkpt lat="42.84896" lon="0.49472">
        <ele>1861</ele>
        <time>2020-02-01T13:13:24.000Z</time>
      </trkpt>
      <trkpt lat="42.84896" lon="0.49473">
        <ele>1861</ele>
        <time>2020-02-01T13:13:25.000Z</time>
      </trkpt>
      <trkpt lat="42.84896" lon="0.49474">
        <ele>1860.5</ele>
        <time>2020-02-01T13:13:26.000Z</time>
      </trkpt>
      <trkpt lat="42.84897" lon="0.49475">
        <ele>1860</ele>
        <time>2020-02-01T13:13:27.000Z</time>
      </trkpt>
      <trkpt lat="42.84897" lon="0.49476">
        <ele>1860</ele>
        <time>2020-02-01T13:13:28.000Z</time>
      </trkpt>
      <trkpt lat="42.84897" lon="0.49477">
        <ele>1859.7</ele>
        <time>2020-02-01T13:13:29.000Z</time>
      </trkpt>
      <trkpt lat="42.84898" lon="0.49478">
        <ele>1859.3</ele>
        <time>2020-02-01T13:13:30.000Z</time>
      </trkpt>
      <trkpt lat="42.84898" lon="0.49479">
        <ele>1859</ele>
        <time>2020-02-01T13:13:31.000Z</time>
      </trkpt>
      <trkpt lat="42.84898" lon="0.49481">
        <ele>1859</ele>
        <time>2020-02-01T13:13:32.000Z</time>
      </trkpt>
      <trkpt lat="42.84899" lon="0.49482">
        <ele>1859</ele>
        <time>2020-02-01T13:13:33.000Z</time>
      </trkpt>
      <trkpt lat="42.84899" lon="0.49483">
        <ele>1858.5</ele>
        <time>2020-02-01T13:13:34.000Z</time>
      </trkpt>
      <trkpt lat="42.84899" lon="0.49484">
        <ele>1858</ele>
        <time>2020-02-01T13:13:35.000Z</time>
      </trkpt>
      <trkpt lat="42.84899" lon="0.49485">
        <ele>1857.5</ele>
        <time>2020-02-01T13:13:36.000Z</time>
      </trkpt>
      <trkpt lat="42.849" lon="0.49486">
        <ele>1857</ele>
        <time>2020-02-01T13:13:37.000Z</time>
      </trkpt>
      <trkpt lat="42.849" lon="0.49486">
        <ele>1856</ele>
        <time>2020-02-01T13:13:38.000Z</time>
      </trkpt>
      <trkpt lat="42.849" lon="0.49487">
        <ele>1856</ele>
        <time>2020-02-01T13:13:39.000Z</time>
      </trkpt>
      <trkpt lat="42.849" lon="0.49487">
        <ele>1856</ele>
        <time>2020-02-01T13:13:40.000Z</time>
      </trkpt>
      <trkpt lat="42.849" lon="0.49488">
        <ele>1856</ele>
        <time>2020-02-01T13:13:41.000Z</time>
      </trkpt>
      <trkpt lat="42.849" lon="0.49489">
        <ele>1855.5</ele>
        <time>2020-02-01T13:13:42.000Z</time>
      </trkpt>
      <trkpt lat="42.849" lon="0.4949">
        <ele>1855</ele>
        <time>2020-02-01T13:13:43.000Z</time>
      </trkpt>
      <trkpt lat="42.849" lon="0.49491">
        <ele>1855</ele>
        <time>2020-02-01T13:13:44.000Z</time>
      </trkpt>
      <trkpt lat="42.849" lon="0.49492">
        <ele>1854.7</ele>
        <time>2020-02-01T13:13:45.000Z</time>
      </trkpt>
      <trkpt lat="42.849" lon="0.49493">
        <ele>1854.3</ele>
        <time>2020-02-01T13:13:46.000Z</time>
      </trkpt>
      <trkpt lat="42.849" lon="0.49493">
        <ele>1854</ele>
        <time>2020-02-01T13:13:47.000Z</time>
      </trkpt>
      <trkpt lat="42.849" lon="0.49494">
        <ele>1853.5</ele>
        <time>2020-02-01T13:13:48.000Z</time>
      </trkpt>
      <trkpt lat="42.84899" lon="0.49495">
        <ele>1853</ele>
        <time>2020-02-01T13:13:49.000Z</time>
      </trkpt>
      <trkpt lat="42.84899" lon="0.49496">
        <ele>1853</ele>
        <time>2020-02-01T13:13:50.000Z</time>
      </trkpt>
      <trkpt lat="42.84899" lon="0.49496">
        <ele>1853</ele>
        <time>2020-02-01T13:13:51.000Z</time>
      </trkpt>
      <trkpt lat="42.84899" lon="0.49497">
        <ele>1852.5</ele>
        <time>2020-02-01T13:13:52.000Z</time>
      </trkpt>
      <trkpt lat="42.84899" lon="0.49498">
        <ele>1852</ele>
        <time>2020-02-01T13:13:53.000Z</time>
      </trkpt>
      <trkpt lat="42.84899" lon="0.49499">
        <ele>1852</ele>
        <time>2020-02-01T13:13:54.000Z</time>
      </trkpt>
      <trkpt lat="42.84899" lon="0.49499">
        <ele>1851.7</ele>
        <time>2020-02-01T13:13:55.000Z</time>
      </trkpt>
      <trkpt lat="42.84898" lon="0.495">
        <ele>1851.3</ele>
        <time>2020-02-01T13:13:56.000Z</time>
      </trkpt>
      <trkpt lat="42.84898" lon="0.49501">
        <ele>1851</ele>
        <time>2020-02-01T13:13:57.000Z</time>
      </trkpt>
      <trkpt lat="42.84898" lon="0.49501">
        <ele>1851</ele>
        <time>2020-02-01T13:13:58.000Z</time>
      </trkpt>
      <trkpt lat="42.84898" lon="0.49502">
        <ele>1851</ele>
        <time>2020-02-01T13:13:59.000Z</time>
      </trkpt>
      <trkpt lat="42.84898" lon="0.49502">
        <ele>1851</ele>
        <time>2020-02-01T13:14:00.000Z</time>
      </trkpt>
      <trkpt lat="42.84898" lon="0.49502">
        <ele>1851</ele>
        <time>2020-02-01T13:14:01.000Z</time>
      </trkpt>
      <trkpt lat="42.84898" lon="0.49503">
        <ele>1851</ele>
        <time>2020-02-01T13:14:02.000Z</time>
      </trkpt>
      <trkpt lat="42.84898" lon="0.49503">
        <ele>1851.3</ele>
        <time>2020-02-01T13:14:03.000Z</time>
      </trkpt>
      <trkpt lat="42.84898" lon="0.49503">
        <ele>1851.7</ele>
        <time>2020-02-01T13:14:04.000Z</time>
      </trkpt>
      <trkpt lat="42.84898" lon="0.49503">
        <ele>1852</ele>
        <time>2020-02-01T13:14:05.000Z</time>
      </trkpt>
      <trkpt lat="42.84898" lon="0.49504">
        <ele>1851</ele>
        <time>2020-02-01T13:14:06.000Z</time>
      </trkpt>
      <trkpt lat="42.84898" lon="0.49504">
        <ele>1851</ele>
        <time>2020-02-01T13:14:07.000Z</time>
      </trkpt>
      <trkpt lat="42.84898" lon="0.49504">
        <ele>1851</ele>
        <time>2020-02-01T13:14:08.000Z</time>
      </trkpt>
      <trkpt lat="42.84898" lon="0.49504">
        <ele>1851</ele>
        <time>2020-02-01T13:14:09.000Z</time>
      </trkpt>
      <trkpt lat="42.84898" lon="0.49504">
        <ele>1851</ele>
        <time>2020-02-01T13:14:10.000Z</time>
      </trkpt>
      <trkpt lat="42.84898" lon="0.49504">
        <ele>1851</ele>
        <time>2020-02-01T13:14:11.000Z</time>
      </trkpt>
      <trkpt lat="42.84898" lon="0.49504">
        <ele>1850.5</ele>
        <time>2020-02-01T13:14:12.000Z</time>
      </trkpt>
      <trkpt lat="42.84898" lon="0.49504">
        <ele>1850</ele>
        <time>2020-02-01T13:14:13.000Z</time>
      </trkpt>
      <trkpt lat="42.84898" lon="0.49504">
        <ele>1850</ele>
        <time>2020-02-01T13:14:14.000Z</time>
      </trkpt>
      <trkpt lat="42.84898" lon="0.49504">
        <ele>1850</ele>
        <time>2020-02-01T13:14:15.000Z</time>
      </trkpt>
      <trkpt lat="42.84898" lon="0.49504">
        <ele>1850</ele>
        <time>2020-02-01T13:14:16.000Z</time>
      </trkpt>
      <trkpt lat="42.84898" lon="0.49504">
        <ele>1850.3</ele>
        <time>2020-02-01T13:14:17.000Z</time>
      </trkpt>
      <trkpt lat="42.84898" lon="0.49504">
        <ele>1850.7</ele>
        <time>2020-02-01T13:14:18.000Z</time>
      </trkpt>
      <trkpt lat="42.84898" lon="0.49504">
        <ele>1851</ele>
        <time>2020-02-01T13:14:19.000Z</time>
      </trkpt>
      <trkpt lat="42.84898" lon="0.49504">
        <ele>1851</ele>
        <time>2020-02-01T13:14:20.000Z</time>
      </trkpt>
      <trkpt lat="42.84898" lon="0.49504">
        <ele>1851</ele>
        <time>2020-02-01T13:14:21.000Z</time>
      </trkpt>
      <trkpt lat="42.84898" lon="0.49504">
        <ele>1851</ele>
        <time>2020-02-01T13:14:22.000Z</time>
      </trkpt>
      <trkpt lat="42.84898" lon="0.49504">
        <ele>1851</ele>
        <time>2020-02-01T13:14:23.000Z</time>
      </trkpt>
      <trkpt lat="42.84898" lon="0.49504">
        <ele>1851</ele>
        <time>2020-02-01T13:14:24.000Z</time>
      </trkpt>
      <trkpt lat="42.84898" lon="0.49504">
        <ele>1851</ele>
        <time>2020-02-01T13:14:25.000Z</time>
      </trkpt>
      <trkpt lat="42.84898" lon="0.49504">
        <ele>1851</ele>
        <time>2020-02-01T13:14:26.000Z</time>
      </trkpt>
      <trkpt lat="42.84898" lon="0.49504">
        <ele>1851</ele>
        <time>2020-02-01T13:14:27.000Z</time>
      </trkpt>
      <trkpt lat="42.84898" lon="0.49504">
        <ele>1851</ele>
        <time>2020-02-01T13:14:28.000Z</time>
      </trkpt>
      <trkpt lat="42.84898" lon="0.49504">
        <ele>1851</ele>
        <time>2020-02-01T13:14:29.000Z</time>
      </trkpt>
      <trkpt lat="42.84898" lon="0.49505">
        <ele>1851</ele>
        <time>2020-02-01T13:14:30.000Z</time>
      </trkpt>
      <trkpt lat="42.84897" lon="0.49505">
        <ele>1851</ele>
        <time>2020-02-01T13:14:31.000Z</time>
      </trkpt>
      <trkpt lat="42.84897" lon="0.49504">
        <ele>1851</ele>
        <time>2020-02-01T13:14:32.000Z</time>
      </trkpt>
      <trkpt lat="42.84897" lon="0.49504">
        <ele>1851</ele>
        <time>2020-02-01T13:14:33.000Z</time>
      </trkpt>
      <trkpt lat="42.84897" lon="0.49503">
        <ele>1851</ele>
        <time>2020-02-01T13:14:34.000Z</time>
      </trkpt>
      <trkpt lat="42.84897" lon="0.49503">
        <ele>1851</ele>
        <time>2020-02-01T13:14:35.000Z</time>
      </trkpt>
      <trkpt lat="42.84897" lon="0.49503">
        <ele>1852</ele>
        <time>2020-02-01T13:14:36.000Z</time>
      </trkpt>
      <trkpt lat="42.84897" lon="0.49504">
        <ele>1852</ele>
        <time>2020-02-01T13:14:37.000Z</time>
      </trkpt>
      <trkpt lat="42.84897" lon="0.49504">
        <ele>1852</ele>
        <time>2020-02-01T13:14:38.000Z</time>
      </trkpt>
      <trkpt lat="42.84897" lon="0.49505">
        <ele>1852</ele>
        <time>2020-02-01T13:14:39.000Z</time>
      </trkpt>
      <trkpt lat="42.84897" lon="0.49505">
        <ele>1851</ele>
        <time>2020-02-01T13:14:40.000Z</time>
      </trkpt>
      <trkpt lat="42.84897" lon="0.49505">
        <ele>1851</ele>
        <time>2020-02-01T13:14:41.000Z</time>
      </trkpt>
      <trkpt lat="42.84897" lon="0.49505">
        <ele>1851</ele>
        <time>2020-02-01T13:14:42.000Z</time>
      </trkpt>
      <trkpt lat="42.84897" lon="0.49505">
        <ele>1851</ele>
        <time>2020-02-01T13:14:43.000Z</time>
      </trkpt>
      <trkpt lat="42.84897" lon="0.49505">
        <ele>1851</ele>
        <time>2020-02-01T13:14:44.000Z</time>
      </trkpt>
      <trkpt lat="42.84897" lon="0.49505">
        <ele>1851</ele>
        <time>2020-02-01T13:14:45.000Z</time>
      </trkpt>
      <trkpt lat="42.84897" lon="0.49505">
        <ele>1850.5</ele>
        <time>2020-02-01T13:14:46.000Z</time>
      </trkpt>
      <trkpt lat="42.84897" lon="0.49505">
        <ele>1850</ele>
        <time>2020-02-01T13:14:47.000Z</time>
      </trkpt>
      <trkpt lat="42.84897" lon="0.49505">
        <ele>1850</ele>
        <time>2020-02-01T13:14:48.000Z</time>
      </trkpt>
      <trkpt lat="42.84897" lon="0.49505">
        <ele>1850</ele>
        <time>2020-02-01T13:14:49.000Z</time>
      </trkpt>
      <trkpt lat="42.84897" lon="0.49506">
        <ele>1850</ele>
        <time>2020-02-01T13:14:50.000Z</time>
      </trkpt>
      <trkpt lat="42.84897" lon="0.49506">
        <ele>1850</ele>
        <time>2020-02-01T13:14:51.000Z</time>
      </trkpt>
      <trkpt lat="42.84897" lon="0.49506">
        <ele>1850.5</ele>
        <time>2020-02-01T13:14:52.000Z</time>
      </trkpt>
      <trkpt lat="42.84897" lon="0.49506">
        <ele>1851</ele>
        <time>2020-02-01T13:14:53.000Z</time>
      </trkpt>
      <trkpt lat="42.84897" lon="0.49506">
        <ele>1851</ele>
        <time>2020-02-01T13:14:54.000Z</time>
      </trkpt>
      <trkpt lat="42.84897" lon="0.49506">
        <ele>1851</ele>
        <time>2020-02-01T13:14:55.000Z</time>
      </trkpt>
      <trkpt lat="42.84897" lon="0.49507">
        <ele>1850.5</ele>
        <time>2020-02-01T13:14:56.000Z</time>
      </trkpt>
      <trkpt lat="42.84897" lon="0.49507">
        <ele>1850</ele>
        <time>2020-02-01T13:14:57.000Z</time>
      </trkpt>
      <trkpt lat="42.84897" lon="0.49507">
        <ele>1850</ele>
        <time>2020-02-01T13:14:58.000Z</time>
      </trkpt>
      <trkpt lat="42.84897" lon="0.49507">
        <ele>1850</ele>
        <time>2020-02-01T13:14:59.000Z</time>
      </trkpt>
      <trkpt lat="42.84897" lon="0.49507">
        <ele>1850</ele>
        <time>2020-02-01T13:15:00.000Z</time>
      </trkpt>
      <trkpt lat="42.84897" lon="0.49507">
        <ele>1850.3</ele>
        <time>2020-02-01T13:15:01.000Z</time>
      </trkpt>
      <trkpt lat="42.84897" lon="0.49507">
        <ele>1850.7</ele>
        <time>2020-02-01T13:15:02.000Z</time>
      </trkpt>
      <trkpt lat="42.84897" lon="0.49507">
        <ele>1851</ele>
        <time>2020-02-01T13:15:03.000Z</time>
      </trkpt>
      <trkpt lat="42.84897" lon="0.49507">
        <ele>1851</ele>
        <time>2020-02-01T13:15:04.000Z</time>
      </trkpt>
      <trkpt lat="42.84897" lon="0.49508">
        <ele>1851</ele>
        <time>2020-02-01T13:15:05.000Z</time>
      </trkpt>
      <trkpt lat="42.84897" lon="0.49508">
        <ele>1851</ele>
        <time>2020-02-01T13:15:06.000Z</time>
      </trkpt>
      <trkpt lat="42.84897" lon="0.49508">
        <ele>1851</ele>
        <time>2020-02-01T13:15:07.000Z</time>
      </trkpt>
      <trkpt lat="42.84897" lon="0.49509">
        <ele>1850.5</ele>
        <time>2020-02-01T13:15:08.000Z</time>
      </trkpt>
      <trkpt lat="42.84897" lon="0.49509">
        <ele>1850</ele>
        <time>2020-02-01T13:15:09.000Z</time>
      </trkpt>
      <trkpt lat="42.84897" lon="0.49509">
        <ele>1850</ele>
        <time>2020-02-01T13:15:10.000Z</time>
      </trkpt>
      <trkpt lat="42.84896" lon="0.4951">
        <ele>1850</ele>
        <time>2020-02-01T13:15:11.000Z</time>
      </trkpt>
      <trkpt lat="42.84896" lon="0.49511">
        <ele>1849</ele>
        <time>2020-02-01T13:15:12.000Z</time>
      </trkpt>
      <trkpt lat="42.84896" lon="0.49511">
        <ele>1849</ele>
        <time>2020-02-01T13:15:13.000Z</time>
      </trkpt>
      <trkpt lat="42.84895" lon="0.49512">
        <ele>1849</ele>
        <time>2020-02-01T13:15:14.000Z</time>
      </trkpt>
      <trkpt lat="42.84895" lon="0.49512">
        <ele>1849</ele>
        <time>2020-02-01T13:15:15.000Z</time>
      </trkpt>
      <trkpt lat="42.84895" lon="0.49513">
        <ele>1848.5</ele>
        <time>2020-02-01T13:15:16.000Z</time>
      </trkpt>
      <trkpt lat="42.84894" lon="0.49513">
        <ele>1848</ele>
        <time>2020-02-01T13:15:17.000Z</time>
      </trkpt>
      <trkpt lat="42.84894" lon="0.49514">
        <ele>1848</ele>
        <time>2020-02-01T13:15:18.000Z</time>
      </trkpt>
      <trkpt lat="42.84894" lon="0.49514">
        <ele>1848</ele>
        <time>2020-02-01T13:15:19.000Z</time>
      </trkpt>
      <trkpt lat="42.84893" lon="0.49514">
        <ele>1848</ele>
        <time>2020-02-01T13:15:20.000Z</time>
      </trkpt>
      <trkpt lat="42.84893" lon="0.49515">
        <ele>1848</ele>
        <time>2020-02-01T13:15:21.000Z</time>
      </trkpt>
      <trkpt lat="42.84893" lon="0.49515">
        <ele>1847.5</ele>
        <time>2020-02-01T13:15:22.000Z</time>
      </trkpt>
      <trkpt lat="42.84893" lon="0.49515">
        <ele>1847</ele>
        <time>2020-02-01T13:15:23.000Z</time>
      </trkpt>
      <trkpt lat="42.84892" lon="0.49515">
        <ele>1847</ele>
        <time>2020-02-01T13:15:24.000Z</time>
      </trkpt>
      <trkpt lat="42.84892" lon="0.49515">
        <ele>1847</ele>
        <time>2020-02-01T13:15:25.000Z</time>
      </trkpt>
      <trkpt lat="42.84892" lon="0.49515">
        <ele>1847</ele>
        <time>2020-02-01T13:15:26.000Z</time>
      </trkpt>
      <trkpt lat="42.84892" lon="0.49515">
        <ele>1847</ele>
        <time>2020-02-01T13:15:27.000Z</time>
      </trkpt>
      <trkpt lat="42.84892" lon="0.49515">
        <ele>1847</ele>
        <time>2020-02-01T13:15:28.000Z</time>
      </trkpt>
      <trkpt lat="42.84892" lon="0.49515">
        <ele>1847</ele>
        <time>2020-02-01T13:15:29.000Z</time>
      </trkpt>
      <trkpt lat="42.84892" lon="0.49515">
        <ele>1848</ele>
        <time>2020-02-01T13:15:30.000Z</time>
      </trkpt>
      <trkpt lat="42.84892" lon="0.49515">
        <ele>1848</ele>
        <time>2020-02-01T13:15:31.000Z</time>
      </trkpt>
      <trkpt lat="42.84892" lon="0.49515">
        <ele>1848</ele>
        <time>2020-02-01T13:15:32.000Z</time>
      </trkpt>
      <trkpt lat="42.84892" lon="0.49515">
        <ele>1848</ele>
        <time>2020-02-01T13:15:33.000Z</time>
      </trkpt>
      <trkpt lat="42.84892" lon="0.49515">
        <ele>1847</ele>
        <time>2020-02-01T13:15:34.000Z</time>
      </trkpt>
      <trkpt lat="42.84892" lon="0.49515">
        <ele>1847</ele>
        <time>2020-02-01T13:15:35.000Z</time>
      </trkpt>
      <trkpt lat="42.84892" lon="0.49515">
        <ele>1847</ele>
        <time>2020-02-01T13:15:36.000Z</time>
      </trkpt>
      <trkpt lat="42.84892" lon="0.49515">
        <ele>1846.7</ele>
        <time>2020-02-01T13:15:37.000Z</time>
      </trkpt>
      <trkpt lat="42.84892" lon="0.49515">
        <ele>1846.3</ele>
        <time>2020-02-01T13:15:38.000Z</time>
      </trkpt>
      <trkpt lat="42.84892" lon="0.49515">
        <ele>1846</ele>
        <time>2020-02-01T13:15:39.000Z</time>
      </trkpt>
      <trkpt lat="42.84892" lon="0.49515">
        <ele>1846</ele>
        <time>2020-02-01T13:15:40.000Z</time>
      </trkpt>
      <trkpt lat="42.84892" lon="0.49515">
        <ele>1846</ele>
        <time>2020-02-01T13:15:41.000Z</time>
      </trkpt>
      <trkpt lat="42.84892" lon="0.49515">
        <ele>1846</ele>
        <time>2020-02-01T13:15:42.000Z</time>
      </trkpt>
      <trkpt lat="42.84892" lon="0.49515">
        <ele>1846</ele>
        <time>2020-02-01T13:15:43.000Z</time>
      </trkpt>
      <trkpt lat="42.84892" lon="0.49515">
        <ele>1846</ele>
        <time>2020-02-01T13:15:44.000Z</time>
      </trkpt>
      <trkpt lat="42.84892" lon="0.49516">
        <ele>1846</ele>
        <time>2020-02-01T13:15:45.000Z</time>
      </trkpt>
      <trkpt lat="42.84892" lon="0.49516">
        <ele>1846</ele>
        <time>2020-02-01T13:15:46.000Z</time>
      </trkpt>
      <trkpt lat="42.84892" lon="0.49517">
        <ele>1846</ele>
        <time>2020-02-01T13:15:47.000Z</time>
      </trkpt>
      <trkpt lat="42.84892" lon="0.49518">
        <ele>1846</ele>
        <time>2020-02-01T13:15:48.000Z</time>
      </trkpt>
      <trkpt lat="42.84892" lon="0.49519">
        <ele>1846</ele>
        <time>2020-02-01T13:15:49.000Z</time>
      </trkpt>
      <trkpt lat="42.84892" lon="0.49519">
        <ele>1846</ele>
        <time>2020-02-01T13:15:50.000Z</time>
      </trkpt>
      <trkpt lat="42.84892" lon="0.4952">
        <ele>1846</ele>
        <time>2020-02-01T13:15:51.000Z</time>
      </trkpt>
      <trkpt lat="42.84892" lon="0.49521">
        <ele>1846</ele>
        <time>2020-02-01T13:15:52.000Z</time>
      </trkpt>
      <trkpt lat="42.84892" lon="0.49522">
        <ele>1845.7</ele>
        <time>2020-02-01T13:15:53.000Z</time>
      </trkpt>
      <trkpt lat="42.84892" lon="0.49522">
        <ele>1845.3</ele>
        <time>2020-02-01T13:15:54.000Z</time>
      </trkpt>
      <trkpt lat="42.84893" lon="0.49523">
        <ele>1845</ele>
        <time>2020-02-01T13:15:55.000Z</time>
      </trkpt>
      <trkpt lat="42.84893" lon="0.49524">
        <ele>1845</ele>
        <time>2020-02-01T13:15:56.000Z</time>
      </trkpt>
      <trkpt lat="42.84893" lon="0.49525">
        <ele>1845</ele>
        <time>2020-02-01T13:15:57.000Z</time>
      </trkpt>
      <trkpt lat="42.84893" lon="0.49525">
        <ele>1844.5</ele>
        <time>2020-02-01T13:15:58.000Z</time>
      </trkpt>
      <trkpt lat="42.84893" lon="0.49526">
        <ele>1844</ele>
        <time>2020-02-01T13:15:59.000Z</time>
      </trkpt>
      <trkpt lat="42.84893" lon="0.49526">
        <ele>1844</ele>
        <time>2020-02-01T13:16:00.000Z</time>
      </trkpt>
      <trkpt lat="42.84893" lon="0.49526">
        <ele>1843.7</ele>
        <time>2020-02-01T13:16:01.000Z</time>
      </trkpt>
      <trkpt lat="42.84893" lon="0.49526">
        <ele>1843.3</ele>
        <time>2020-02-01T13:16:02.000Z</time>
      </trkpt>
      <trkpt lat="42.84893" lon="0.49526">
        <ele>1843</ele>
        <time>2020-02-01T13:16:03.000Z</time>
      </trkpt>
      <trkpt lat="42.84893" lon="0.49526">
        <ele>1843</ele>
        <time>2020-02-01T13:16:04.000Z</time>
      </trkpt>
      <trkpt lat="42.84893" lon="0.49526">
        <ele>1843</ele>
        <time>2020-02-01T13:16:05.000Z</time>
      </trkpt>
      <trkpt lat="42.84893" lon="0.49526">
        <ele>1843</ele>
        <time>2020-02-01T13:16:06.000Z</time>
      </trkpt>
      <trkpt lat="42.84893" lon="0.49527">
        <ele>1843</ele>
        <time>2020-02-01T13:16:07.000Z</time>
      </trkpt>
      <trkpt lat="42.84894" lon="0.49528">
        <ele>1842</ele>
        <time>2020-02-01T13:16:08.000Z</time>
      </trkpt>
      <trkpt lat="42.84894" lon="0.49528">
        <ele>1842</ele>
        <time>2020-02-01T13:16:09.000Z</time>
      </trkpt>
      <trkpt lat="42.84894" lon="0.49529">
        <ele>1842</ele>
        <time>2020-02-01T13:16:10.000Z</time>
      </trkpt>
      <trkpt lat="42.84894" lon="0.49529">
        <ele>1842</ele>
        <time>2020-02-01T13:16:11.000Z</time>
      </trkpt>
      <trkpt lat="42.84894" lon="0.4953">
        <ele>1841.5</ele>
        <time>2020-02-01T13:16:12.000Z</time>
      </trkpt>
      <trkpt lat="42.84894" lon="0.49531">
        <ele>1841</ele>
        <time>2020-02-01T13:16:13.000Z</time>
      </trkpt>
      <trkpt lat="42.84894" lon="0.49532">
        <ele>1840.5</ele>
        <time>2020-02-01T13:16:14.000Z</time>
      </trkpt>
      <trkpt lat="42.84893" lon="0.49532">
        <ele>1840</ele>
        <time>2020-02-01T13:16:15.000Z</time>
      </trkpt>
      <trkpt lat="42.84893" lon="0.49533">
        <ele>1840</ele>
        <time>2020-02-01T13:16:16.000Z</time>
      </trkpt>
      <trkpt lat="42.84893" lon="0.49534">
        <ele>1839.7</ele>
        <time>2020-02-01T13:16:17.000Z</time>
      </trkpt>
      <trkpt lat="42.84892" lon="0.49535">
        <ele>1839.3</ele>
        <time>2020-02-01T13:16:18.000Z</time>
      </trkpt>
      <trkpt lat="42.84892" lon="0.49536">
        <ele>1839</ele>
        <time>2020-02-01T13:16:19.000Z</time>
      </trkpt>
      <trkpt lat="42.84891" lon="0.49537">
        <ele>1839</ele>
        <time>2020-02-01T13:16:20.000Z</time>
      </trkpt>
      <trkpt lat="42.84891" lon="0.49537">
        <ele>1839</ele>
        <time>2020-02-01T13:16:21.000Z</time>
      </trkpt>
      <trkpt lat="42.84891" lon="0.49538">
        <ele>1838.5</ele>
        <time>2020-02-01T13:16:22.000Z</time>
      </trkpt>
      <trkpt lat="42.84891" lon="0.49538">
        <ele>1838</ele>
        <time>2020-02-01T13:16:23.000Z</time>
      </trkpt>
      <trkpt lat="42.8489" lon="0.49539">
        <ele>1838</ele>
        <time>2020-02-01T13:16:24.000Z</time>
      </trkpt>
      <trkpt lat="42.8489" lon="0.49539">
        <ele>1837.7</ele>
        <time>2020-02-01T13:16:25.000Z</time>
      </trkpt>
      <trkpt lat="42.8489" lon="0.49539">
        <ele>1837.3</ele>
        <time>2020-02-01T13:16:26.000Z</time>
      </trkpt>
      <trkpt lat="42.8489" lon="0.49539">
        <ele>1837</ele>
        <time>2020-02-01T13:16:27.000Z</time>
      </trkpt>
      <trkpt lat="42.8489" lon="0.49539">
        <ele>1836.5</ele>
        <time>2020-02-01T13:16:28.000Z</time>
      </trkpt>
      <trkpt lat="42.84891" lon="0.4954">
        <ele>1836</ele>
        <time>2020-02-01T13:16:29.000Z</time>
      </trkpt>
      <trkpt lat="42.84891" lon="0.49541">
        <ele>1836</ele>
        <time>2020-02-01T13:16:30.000Z</time>
      </trkpt>
      <trkpt lat="42.84891" lon="0.49542">
        <ele>1836</ele>
        <time>2020-02-01T13:16:31.000Z</time>
      </trkpt>
      <trkpt lat="42.84892" lon="0.49543">
        <ele>1836</ele>
        <time>2020-02-01T13:16:32.000Z</time>
      </trkpt>
      <trkpt lat="42.84892" lon="0.49544">
        <ele>1835.7</ele>
        <time>2020-02-01T13:16:33.000Z</time>
      </trkpt>
      <trkpt lat="42.84892" lon="0.49545">
        <ele>1835.3</ele>
        <time>2020-02-01T13:16:34.000Z</time>
      </trkpt>
      <trkpt lat="42.84892" lon="0.49545">
        <ele>1835</ele>
        <time>2020-02-01T13:16:35.000Z</time>
      </trkpt>
      <trkpt lat="42.84892" lon="0.49546">
        <ele>1835</ele>
        <time>2020-02-01T13:16:36.000Z</time>
      </trkpt>
      <trkpt lat="42.84892" lon="0.49546">
        <ele>1835</ele>
        <time>2020-02-01T13:16:37.000Z</time>
      </trkpt>
      <trkpt lat="42.84892" lon="0.49546">
        <ele>1835</ele>
        <time>2020-02-01T13:16:38.000Z</time>
      </trkpt>
      <trkpt lat="42.84892" lon="0.49546">
        <ele>1835</ele>
        <time>2020-02-01T13:16:39.000Z</time>
      </trkpt>
      <trkpt lat="42.84892" lon="0.49547">
        <ele>1834.5</ele>
        <time>2020-02-01T13:16:40.000Z</time>
      </trkpt>
      <trkpt lat="42.84892" lon="0.49547">
        <ele>1834</ele>
        <time>2020-02-01T13:16:41.000Z</time>
      </trkpt>
      <trkpt lat="42.84892" lon="0.49547">
        <ele>1834</ele>
        <time>2020-02-01T13:16:42.000Z</time>
      </trkpt>
      <trkpt lat="42.84892" lon="0.49548">
        <ele>1834</ele>
        <time>2020-02-01T13:16:43.000Z</time>
      </trkpt>
      <trkpt lat="42.84892" lon="0.49548">
        <ele>1834</ele>
        <time>2020-02-01T13:16:44.000Z</time>
      </trkpt>
      <trkpt lat="42.84892" lon="0.49549">
        <ele>1834</ele>
        <time>2020-02-01T13:16:45.000Z</time>
      </trkpt>
      <trkpt lat="42.84892" lon="0.49549">
        <ele>1834</ele>
        <time>2020-02-01T13:16:46.000Z</time>
      </trkpt>
      <trkpt lat="42.84892" lon="0.4955">
        <ele>1834</ele>
        <time>2020-02-01T13:16:47.000Z</time>
      </trkpt>
      <trkpt lat="42.84892" lon="0.4955">
        <ele>1833</ele>
        <time>2020-02-01T13:16:48.000Z</time>
      </trkpt>
      <trkpt lat="42.84892" lon="0.49551">
        <ele>1833</ele>
        <time>2020-02-01T13:16:49.000Z</time>
      </trkpt>
      <trkpt lat="42.84891" lon="0.49552">
        <ele>1833</ele>
        <time>2020-02-01T13:16:50.000Z</time>
      </trkpt>
      <trkpt lat="42.84891" lon="0.49552">
        <ele>1833</ele>
        <time>2020-02-01T13:16:51.000Z</time>
      </trkpt>
      <trkpt lat="42.84891" lon="0.49552">
        <ele>1833</ele>
        <time>2020-02-01T13:16:52.000Z</time>
      </trkpt>
      <trkpt lat="42.8489" lon="0.49552">
        <ele>1832.7</ele>
        <time>2020-02-01T13:16:53.000Z</time>
      </trkpt>
      <trkpt lat="42.8489" lon="0.49552">
        <ele>1832.3</ele>
        <time>2020-02-01T13:16:54.000Z</time>
      </trkpt>
      <trkpt lat="42.8489" lon="0.49552">
        <ele>1832</ele>
        <time>2020-02-01T13:16:55.000Z</time>
      </trkpt>
      <trkpt lat="42.8489" lon="0.49552">
        <ele>1831.5</ele>
        <time>2020-02-01T13:16:56.000Z</time>
      </trkpt>
      <trkpt lat="42.8489" lon="0.49552">
        <ele>1831</ele>
        <time>2020-02-01T13:16:57.000Z</time>
      </trkpt>
      <trkpt lat="42.84889" lon="0.49552">
        <ele>1831</ele>
        <time>2020-02-01T13:16:58.000Z</time>
      </trkpt>
      <trkpt lat="42.84889" lon="0.49553">
        <ele>1831</ele>
        <time>2020-02-01T13:16:59.000Z</time>
      </trkpt>
      <trkpt lat="42.84889" lon="0.49553">
        <ele>1831</ele>
        <time>2020-02-01T13:17:00.000Z</time>
      </trkpt>
      <trkpt lat="42.8489" lon="0.49554">
        <ele>1831</ele>
        <time>2020-02-01T13:17:01.000Z</time>
      </trkpt>
      <trkpt lat="42.8489" lon="0.49555">
        <ele>1831</ele>
        <time>2020-02-01T13:17:02.000Z</time>
      </trkpt>
      <trkpt lat="42.8489" lon="0.49555">
        <ele>1831</ele>
        <time>2020-02-01T13:17:03.000Z</time>
      </trkpt>
      <trkpt lat="42.8489" lon="0.49556">
        <ele>1831</ele>
        <time>2020-02-01T13:17:04.000Z</time>
      </trkpt>
      <trkpt lat="42.8489" lon="0.49557">
        <ele>1831</ele>
        <time>2020-02-01T13:17:05.000Z</time>
      </trkpt>
      <trkpt lat="42.8489" lon="0.49558">
        <ele>1831</ele>
        <time>2020-02-01T13:17:06.000Z</time>
      </trkpt>
      <trkpt lat="42.8489" lon="0.49559">
        <ele>1831</ele>
        <time>2020-02-01T13:17:07.000Z</time>
      </trkpt>
      <trkpt lat="42.84891" lon="0.49559">
        <ele>1830</ele>
        <time>2020-02-01T13:17:08.000Z</time>
      </trkpt>
      <trkpt lat="42.84891" lon="0.4956">
        <ele>1829.7</ele>
        <time>2020-02-01T13:17:09.000Z</time>
      </trkpt>
      <trkpt lat="42.84891" lon="0.4956">
        <ele>1829.3</ele>
        <time>2020-02-01T13:17:10.000Z</time>
      </trkpt>
      <trkpt lat="42.84891" lon="0.49561">
        <ele>1829</ele>
        <time>2020-02-01T13:17:11.000Z</time>
      </trkpt>
      <trkpt lat="42.84891" lon="0.49561">
        <ele>1828.5</ele>
        <time>2020-02-01T13:17:12.000Z</time>
      </trkpt>
      <trkpt lat="42.8489" lon="0.49561">
        <ele>1828</ele>
        <time>2020-02-01T13:17:13.000Z</time>
      </trkpt>
      <trkpt lat="42.8489" lon="0.49561">
        <ele>1828</ele>
        <time>2020-02-01T13:17:14.000Z</time>
      </trkpt>
      <trkpt lat="42.8489" lon="0.49561">
        <ele>1828</ele>
        <time>2020-02-01T13:17:15.000Z</time>
      </trkpt>
      <trkpt lat="42.8489" lon="0.49561">
        <ele>1828</ele>
        <time>2020-02-01T13:17:16.000Z</time>
      </trkpt>
      <trkpt lat="42.84889" lon="0.49561">
        <ele>1828</ele>
        <time>2020-02-01T13:17:17.000Z</time>
      </trkpt>
      <trkpt lat="42.84889" lon="0.49562">
        <ele>1828</ele>
        <time>2020-02-01T13:17:18.000Z</time>
      </trkpt>
      <trkpt lat="42.84889" lon="0.49563">
        <ele>1828</ele>
        <time>2020-02-01T13:17:19.000Z</time>
      </trkpt>
      <trkpt lat="42.84889" lon="0.49564">
        <ele>1827</ele>
        <time>2020-02-01T13:17:20.000Z</time>
      </trkpt>
      <trkpt lat="42.84889" lon="0.49565">
        <ele>1827</ele>
        <time>2020-02-01T13:17:21.000Z</time>
      </trkpt>
      <trkpt lat="42.84889" lon="0.49566">
        <ele>1827</ele>
        <time>2020-02-01T13:17:22.000Z</time>
      </trkpt>
      <trkpt lat="42.84889" lon="0.49566">
        <ele>1827</ele>
        <time>2020-02-01T13:17:23.000Z</time>
      </trkpt>
      <trkpt lat="42.8489" lon="0.49567">
        <ele>1826</ele>
        <time>2020-02-01T13:17:24.000Z</time>
      </trkpt>
      <trkpt lat="42.8489" lon="0.49567">
        <ele>1826</ele>
        <time>2020-02-01T13:17:25.000Z</time>
      </trkpt>
      <trkpt lat="42.84891" lon="0.49568">
        <ele>1826</ele>
        <time>2020-02-01T13:17:26.000Z</time>
      </trkpt>
      <trkpt lat="42.84891" lon="0.49568">
        <ele>1826</ele>
        <time>2020-02-01T13:17:27.000Z</time>
      </trkpt>
      <trkpt lat="42.84891" lon="0.49568">
        <ele>1825</ele>
        <time>2020-02-01T13:17:28.000Z</time>
      </trkpt>
      <trkpt lat="42.84891" lon="0.49569">
        <ele>1825</ele>
        <time>2020-02-01T13:17:29.000Z</time>
      </trkpt>
      <trkpt lat="42.84891" lon="0.4957">
        <ele>1825</ele>
        <time>2020-02-01T13:17:30.000Z</time>
      </trkpt>
      <trkpt lat="42.84891" lon="0.4957">
        <ele>1825</ele>
        <time>2020-02-01T13:17:31.000Z</time>
      </trkpt>
      <trkpt lat="42.84891" lon="0.49571">
        <ele>1824</ele>
        <time>2020-02-01T13:17:32.000Z</time>
      </trkpt>
      <trkpt lat="42.84891" lon="0.49571">
        <ele>1824</ele>
        <time>2020-02-01T13:17:33.000Z</time>
      </trkpt>
      <trkpt lat="42.84891" lon="0.49572">
        <ele>1824</ele>
        <time>2020-02-01T13:17:34.000Z</time>
      </trkpt>
      <trkpt lat="42.84891" lon="0.49572">
        <ele>1824</ele>
        <time>2020-02-01T13:17:35.000Z</time>
      </trkpt>
      <trkpt lat="42.84891" lon="0.49573">
        <ele>1824</ele>
        <time>2020-02-01T13:17:36.000Z</time>
      </trkpt>
      <trkpt lat="42.8489" lon="0.49574">
        <ele>1823.7</ele>
        <time>2020-02-01T13:17:37.000Z</time>
      </trkpt>
      <trkpt lat="42.8489" lon="0.49575">
        <ele>1823.3</ele>
        <time>2020-02-01T13:17:38.000Z</time>
      </trkpt>
      <trkpt lat="42.84889" lon="0.49575">
        <ele>1823</ele>
        <time>2020-02-01T13:17:39.000Z</time>
      </trkpt>
      <trkpt lat="42.84889" lon="0.49576">
        <ele>1823</ele>
        <time>2020-02-01T13:17:40.000Z</time>
      </trkpt>
      <trkpt lat="42.84888" lon="0.49576">
        <ele>1823</ele>
        <time>2020-02-01T13:17:41.000Z</time>
      </trkpt>
      <trkpt lat="42.84887" lon="0.49577">
        <ele>1822</ele>
        <time>2020-02-01T13:17:42.000Z</time>
      </trkpt>
      <trkpt lat="42.84887" lon="0.49577">
        <ele>1822</ele>
        <time>2020-02-01T13:17:43.000Z</time>
      </trkpt>
      <trkpt lat="42.84887" lon="0.49577">
        <ele>1822</ele>
        <time>2020-02-01T13:17:44.000Z</time>
      </trkpt>
      <trkpt lat="42.84886" lon="0.49577">
        <ele>1822</ele>
        <time>2020-02-01T13:17:45.000Z</time>
      </trkpt>
      <trkpt lat="42.84886" lon="0.49577">
        <ele>1821</ele>
        <time>2020-02-01T13:17:46.000Z</time>
      </trkpt>
      <trkpt lat="42.84886" lon="0.49578">
        <ele>1821</ele>
        <time>2020-02-01T13:17:47.000Z</time>
      </trkpt>
      <trkpt lat="42.84887" lon="0.49578">
        <ele>1821</ele>
        <time>2020-02-01T13:17:48.000Z</time>
      </trkpt>
      <trkpt lat="42.84887" lon="0.49578">
        <ele>1821</ele>
        <time>2020-02-01T13:17:49.000Z</time>
      </trkpt>
      <trkpt lat="42.84887" lon="0.49578">
        <ele>1821</ele>
        <time>2020-02-01T13:17:50.000Z</time>
      </trkpt>
      <trkpt lat="42.84887" lon="0.49578">
        <ele>1821</ele>
        <time>2020-02-01T13:17:51.000Z</time>
      </trkpt>
      <trkpt lat="42.84887" lon="0.49578">
        <ele>1821</ele>
        <time>2020-02-01T13:17:52.000Z</time>
      </trkpt>
      <trkpt lat="42.84886" lon="0.49578">
        <ele>1821</ele>
        <time>2020-02-01T13:17:53.000Z</time>
      </trkpt>
      <trkpt lat="42.84886" lon="0.49578">
        <ele>1820</ele>
        <time>2020-02-01T13:17:54.000Z</time>
      </trkpt>
      <trkpt lat="42.84886" lon="0.49578">
        <ele>1820</ele>
        <time>2020-02-01T13:17:55.000Z</time>
      </trkpt>
      <trkpt lat="42.84886" lon="0.49578">
        <ele>1820</ele>
        <time>2020-02-01T13:17:56.000Z</time>
      </trkpt>
      <trkpt lat="42.84886" lon="0.49578">
        <ele>1820</ele>
        <time>2020-02-01T13:17:57.000Z</time>
      </trkpt>
      <trkpt lat="42.84886" lon="0.49578">
        <ele>1820</ele>
        <time>2020-02-01T13:17:58.000Z</time>
      </trkpt>
      <trkpt lat="42.84886" lon="0.49578">
        <ele>1820</ele>
        <time>2020-02-01T13:17:59.000Z</time>
      </trkpt>
      <trkpt lat="42.84886" lon="0.49578">
        <ele>1821</ele>
        <time>2020-02-01T13:18:00.000Z</time>
      </trkpt>
      <trkpt lat="42.84886" lon="0.49579">
        <ele>1821</ele>
        <time>2020-02-01T13:18:01.000Z</time>
      </trkpt>
      <trkpt lat="42.84886" lon="0.49579">
        <ele>1821</ele>
        <time>2020-02-01T13:18:02.000Z</time>
      </trkpt>
      <trkpt lat="42.84886" lon="0.49579">
        <ele>1821</ele>
        <time>2020-02-01T13:18:03.000Z</time>
      </trkpt>
      <trkpt lat="42.84887" lon="0.49579">
        <ele>1821</ele>
        <time>2020-02-01T13:18:04.000Z</time>
      </trkpt>
      <trkpt lat="42.84887" lon="0.49579">
        <ele>1821</ele>
        <time>2020-02-01T13:18:05.000Z</time>
      </trkpt>
      <trkpt lat="42.84887" lon="0.49579">
        <ele>1821</ele>
        <time>2020-02-01T13:18:06.000Z</time>
      </trkpt>
      <trkpt lat="42.84887" lon="0.49579">
        <ele>1821</ele>
        <time>2020-02-01T13:18:07.000Z</time>
      </trkpt>
      <trkpt lat="42.84887" lon="0.49579">
        <ele>1821</ele>
        <time>2020-02-01T13:18:08.000Z</time>
      </trkpt>
      <trkpt lat="42.84887" lon="0.4958">
        <ele>1821</ele>
        <time>2020-02-01T13:18:09.000Z</time>
      </trkpt>
      <trkpt lat="42.84887" lon="0.4958">
        <ele>1821</ele>
        <time>2020-02-01T13:18:10.000Z</time>
      </trkpt>
      <trkpt lat="42.84887" lon="0.4958">
        <ele>1821</ele>
        <time>2020-02-01T13:18:11.000Z</time>
      </trkpt>
      <trkpt lat="42.84888" lon="0.4958">
        <ele>1820.5</ele>
        <time>2020-02-01T13:18:12.000Z</time>
      </trkpt>
      <trkpt lat="42.84888" lon="0.4958">
        <ele>1820</ele>
        <time>2020-02-01T13:18:13.000Z</time>
      </trkpt>
      <trkpt lat="42.84888" lon="0.4958">
        <ele>1820</ele>
        <time>2020-02-01T13:18:14.000Z</time>
      </trkpt>
      <trkpt lat="42.84888" lon="0.4958">
        <ele>1820</ele>
        <time>2020-02-01T13:18:15.000Z</time>
      </trkpt>
      <trkpt lat="42.84888" lon="0.4958">
        <ele>1820</ele>
        <time>2020-02-01T13:18:16.000Z</time>
      </trkpt>
      <trkpt lat="42.84888" lon="0.4958">
        <ele>1820</ele>
        <time>2020-02-01T13:18:17.000Z</time>
      </trkpt>
      <trkpt lat="42.84888" lon="0.4958">
        <ele>1820</ele>
        <time>2020-02-01T13:18:18.000Z</time>
      </trkpt>
      <trkpt lat="42.84888" lon="0.4958">
        <ele>1820</ele>
        <time>2020-02-01T13:18:19.000Z</time>
      </trkpt>
      <trkpt lat="42.84888" lon="0.4958">
        <ele>1820</ele>
        <time>2020-02-01T13:18:20.000Z</time>
      </trkpt>
      <trkpt lat="42.84888" lon="0.4958">
        <ele>1820</ele>
        <time>2020-02-01T13:18:21.000Z</time>
      </trkpt>
      <trkpt lat="42.84888" lon="0.4958">
        <ele>1820</ele>
        <time>2020-02-01T13:18:22.000Z</time>
      </trkpt>
      <trkpt lat="42.84888" lon="0.4958">
        <ele>1820</ele>
        <time>2020-02-01T13:18:23.000Z</time>
      </trkpt>
      <trkpt lat="42.84888" lon="0.4958">
        <ele>1820</ele>
        <time>2020-02-01T13:18:24.000Z</time>
      </trkpt>
      <trkpt lat="42.84888" lon="0.4958">
        <ele>1820</ele>
        <time>2020-02-01T13:18:25.000Z</time>
      </trkpt>
      <trkpt lat="42.84888" lon="0.49579">
        <ele>1820</ele>
        <time>2020-02-01T13:18:26.000Z</time>
      </trkpt>
      <trkpt lat="42.84888" lon="0.49579">
        <ele>1820</ele>
        <time>2020-02-01T13:18:27.000Z</time>
      </trkpt>
      <trkpt lat="42.84888" lon="0.49579">
        <ele>1820</ele>
        <time>2020-02-01T13:18:28.000Z</time>
      </trkpt>
      <trkpt lat="42.84888" lon="0.49579">
        <ele>1820</ele>
        <time>2020-02-01T13:18:29.000Z</time>
      </trkpt>
      <trkpt lat="42.84888" lon="0.49579">
        <ele>1820</ele>
        <time>2020-02-01T13:18:30.000Z</time>
      </trkpt>
      <trkpt lat="42.84888" lon="0.49579">
        <ele>1820.3</ele>
        <time>2020-02-01T13:18:31.000Z</time>
      </trkpt>
      <trkpt lat="42.84888" lon="0.49579">
        <ele>1820.7</ele>
        <time>2020-02-01T13:18:32.000Z</time>
      </trkpt>
      <trkpt lat="42.84888" lon="0.49579">
        <ele>1821</ele>
        <time>2020-02-01T13:18:33.000Z</time>
      </trkpt>
      <trkpt lat="42.84888" lon="0.49579">
        <ele>1820.5</ele>
        <time>2020-02-01T13:18:34.000Z</time>
      </trkpt>
      <trkpt lat="42.84888" lon="0.49579">
        <ele>1820</ele>
        <time>2020-02-01T13:18:35.000Z</time>
      </trkpt>
      <trkpt lat="42.84888" lon="0.49579">
        <ele>1820</ele>
        <time>2020-02-01T13:18:36.000Z</time>
      </trkpt>
      <trkpt lat="42.84888" lon="0.49579">
        <ele>1820</ele>
        <time>2020-02-01T13:18:37.000Z</time>
      </trkpt>
      <trkpt lat="42.84888" lon="0.49579">
        <ele>1820</ele>
        <time>2020-02-01T13:18:38.000Z</time>
      </trkpt>
      <trkpt lat="42.84888" lon="0.49579">
        <ele>1820</ele>
        <time>2020-02-01T13:18:39.000Z</time>
      </trkpt>
      <trkpt lat="42.84888" lon="0.49579">
        <ele>1820</ele>
        <time>2020-02-01T13:18:40.000Z</time>
      </trkpt>
      <trkpt lat="42.84888" lon="0.49579">
        <ele>1820</ele>
        <time>2020-02-01T13:18:41.000Z</time>
      </trkpt>
      <trkpt lat="42.84888" lon="0.49579">
        <ele>1820.5</ele>
        <time>2020-02-01T13:18:42.000Z</time>
      </trkpt>
      <trkpt lat="42.84888" lon="0.49579">
        <ele>1821</ele>
        <time>2020-02-01T13:18:43.000Z</time>
      </trkpt>
      <trkpt lat="42.84888" lon="0.4958">
        <ele>1821</ele>
        <time>2020-02-01T13:18:44.000Z</time>
      </trkpt>
      <trkpt lat="42.84888" lon="0.4958">
        <ele>1821</ele>
        <time>2020-02-01T13:18:45.000Z</time>
      </trkpt>
      <trkpt lat="42.84888" lon="0.4958">
        <ele>1821</ele>
        <time>2020-02-01T13:18:46.000Z</time>
      </trkpt>
      <trkpt lat="42.84888" lon="0.4958">
        <ele>1821</ele>
        <time>2020-02-01T13:18:47.000Z</time>
      </trkpt>
      <trkpt lat="42.84888" lon="0.49581">
        <ele>1821</ele>
        <time>2020-02-01T13:18:48.000Z</time>
      </trkpt>
      <trkpt lat="42.84888" lon="0.49581">
        <ele>1821</ele>
        <time>2020-02-01T13:18:49.000Z</time>
      </trkpt>
      <trkpt lat="42.84888" lon="0.49582">
        <ele>1821</ele>
        <time>2020-02-01T13:18:50.000Z</time>
      </trkpt>
      <trkpt lat="42.84888" lon="0.49582">
        <ele>1820.7</ele>
        <time>2020-02-01T13:18:51.000Z</time>
      </trkpt>
      <trkpt lat="42.84888" lon="0.49582">
        <ele>1820.3</ele>
        <time>2020-02-01T13:18:52.000Z</time>
      </trkpt>
      <trkpt lat="42.84888" lon="0.49582">
        <ele>1820</ele>
        <time>2020-02-01T13:18:53.000Z</time>
      </trkpt>
      <trkpt lat="42.84888" lon="0.49582">
        <ele>1820</ele>
        <time>2020-02-01T13:18:54.000Z</time>
      </trkpt>
      <trkpt lat="42.84888" lon="0.49582">
        <ele>1820</ele>
        <time>2020-02-01T13:18:55.000Z</time>
      </trkpt>
      <trkpt lat="42.84888" lon="0.49582">
        <ele>1820</ele>
        <time>2020-02-01T13:18:56.000Z</time>
      </trkpt>
      <trkpt lat="42.84888" lon="0.49582">
        <ele>1820</ele>
        <time>2020-02-01T13:18:57.000Z</time>
      </trkpt>
      <trkpt lat="42.84888" lon="0.49582">
        <ele>1820</ele>
        <time>2020-02-01T13:18:58.000Z</time>
      </trkpt>
      <trkpt lat="42.84889" lon="0.49582">
        <ele>1820</ele>
        <time>2020-02-01T13:18:59.000Z</time>
      </trkpt>
      <trkpt lat="42.84889" lon="0.49582">
        <ele>1820</ele>
        <time>2020-02-01T13:19:00.000Z</time>
      </trkpt>
      <trkpt lat="42.84889" lon="0.49582">
        <ele>1820</ele>
        <time>2020-02-01T13:19:01.000Z</time>
      </trkpt>
      <trkpt lat="42.84888" lon="0.49582">
        <ele>1821</ele>
        <time>2020-02-01T13:19:02.000Z</time>
      </trkpt>
      <trkpt lat="42.84888" lon="0.49582">
        <ele>1821</ele>
        <time>2020-02-01T13:19:03.000Z</time>
      </trkpt>
      <trkpt lat="42.84888" lon="0.49582">
        <ele>1821</ele>
        <time>2020-02-01T13:19:04.000Z</time>
      </trkpt>
      <trkpt lat="42.84888" lon="0.49582">
        <ele>1821</ele>
        <time>2020-02-01T13:19:05.000Z</time>
      </trkpt>
      <trkpt lat="42.84888" lon="0.49581">
        <ele>1821</ele>
        <time>2020-02-01T13:19:06.000Z</time>
      </trkpt>
      <trkpt lat="42.84888" lon="0.49581">
        <ele>1821</ele>
        <time>2020-02-01T13:19:07.000Z</time>
      </trkpt>
      <trkpt lat="42.84888" lon="0.49581">
        <ele>1821</ele>
        <time>2020-02-01T13:19:08.000Z</time>
      </trkpt>
      <trkpt lat="42.84888" lon="0.49581">
        <ele>1821</ele>
        <time>2020-02-01T13:19:09.000Z</time>
      </trkpt>
      <trkpt lat="42.84888" lon="0.49581">
        <ele>1821</ele>
        <time>2020-02-01T13:19:10.000Z</time>
      </trkpt>
      <trkpt lat="42.84888" lon="0.49581">
        <ele>1821</ele>
        <time>2020-02-01T13:19:11.000Z</time>
      </trkpt>
      <trkpt lat="42.84888" lon="0.49581">
        <ele>1821</ele>
        <time>2020-02-01T13:19:12.000Z</time>
      </trkpt>
      <trkpt lat="42.84888" lon="0.49581">
        <ele>1821</ele>
        <time>2020-02-01T13:19:13.000Z</time>
      </trkpt>
      <trkpt lat="42.84888" lon="0.49581">
        <ele>1821</ele>
        <time>2020-02-01T13:19:14.000Z</time>
      </trkpt>
      <trkpt lat="42.84888" lon="0.49581">
        <ele>1821</ele>
        <time>2020-02-01T13:19:15.000Z</time>
      </trkpt>
      <trkpt lat="42.84888" lon="0.49581">
        <ele>1821</ele>
        <time>2020-02-01T13:19:16.000Z</time>
      </trkpt>
      <trkpt lat="42.84888" lon="0.49581">
        <ele>1821</ele>
        <time>2020-02-01T13:19:17.000Z</time>
      </trkpt>
      <trkpt lat="42.84888" lon="0.49581">
        <ele>1821</ele>
        <time>2020-02-01T13:19:18.000Z</time>
      </trkpt>
      <trkpt lat="42.84888" lon="0.49581">
        <ele>1821</ele>
        <time>2020-02-01T13:19:19.000Z</time>
      </trkpt>
      <trkpt lat="42.84888" lon="0.49581">
        <ele>1821</ele>
        <time>2020-02-01T13:19:20.000Z</time>
      </trkpt>
      <trkpt lat="42.84889" lon="0.49581">
        <ele>1821</ele>
        <time>2020-02-01T13:19:21.000Z</time>
      </trkpt>
      <trkpt lat="42.84889" lon="0.49581">
        <ele>1821</ele>
        <time>2020-02-01T13:19:22.000Z</time>
      </trkpt>
      <trkpt lat="42.84889" lon="0.49581">
        <ele>1821</ele>
        <time>2020-02-01T13:19:23.000Z</time>
      </trkpt>
      <trkpt lat="42.8489" lon="0.49582">
        <ele>1821</ele>
        <time>2020-02-01T13:19:24.000Z</time>
      </trkpt>
      <trkpt lat="42.8489" lon="0.49582">
        <ele>1821</ele>
        <time>2020-02-01T13:19:25.000Z</time>
      </trkpt>
      <trkpt lat="42.8489" lon="0.49582">
        <ele>1821</ele>
        <time>2020-02-01T13:19:26.000Z</time>
      </trkpt>
      <trkpt lat="42.84891" lon="0.49582">
        <ele>1821</ele>
        <time>2020-02-01T13:19:27.000Z</time>
      </trkpt>
      <trkpt lat="42.84891" lon="0.49583">
        <ele>1821</ele>
        <time>2020-02-01T13:19:28.000Z</time>
      </trkpt>
      <trkpt lat="42.84891" lon="0.49583">
        <ele>1821</ele>
        <time>2020-02-01T13:19:29.000Z</time>
      </trkpt>
      <trkpt lat="42.8489" lon="0.49583">
        <ele>1821</ele>
        <time>2020-02-01T13:19:30.000Z</time>
      </trkpt>
      <trkpt lat="42.8489" lon="0.49583">
        <ele>1821</ele>
        <time>2020-02-01T13:19:31.000Z</time>
      </trkpt>
      <trkpt lat="42.84889" lon="0.49583">
        <ele>1821</ele>
        <time>2020-02-01T13:19:32.000Z</time>
      </trkpt>
      <trkpt lat="42.84889" lon="0.49583">
        <ele>1821</ele>
        <time>2020-02-01T13:19:33.000Z</time>
      </trkpt>
      <trkpt lat="42.84888" lon="0.49583">
        <ele>1821</ele>
        <time>2020-02-01T13:19:34.000Z</time>
      </trkpt>
      <trkpt lat="42.84888" lon="0.49583">
        <ele>1821</ele>
        <time>2020-02-01T13:19:35.000Z</time>
      </trkpt>
      <trkpt lat="42.84888" lon="0.49583">
        <ele>1821</ele>
        <time>2020-02-01T13:19:36.000Z</time>
      </trkpt>
      <trkpt lat="42.84888" lon="0.49583">
        <ele>1821</ele>
        <time>2020-02-01T13:19:37.000Z</time>
      </trkpt>
      <trkpt lat="42.84888" lon="0.49582">
        <ele>1821</ele>
        <time>2020-02-01T13:19:38.000Z</time>
      </trkpt>
      <trkpt lat="42.84888" lon="0.49582">
        <ele>1821</ele>
        <time>2020-02-01T13:19:39.000Z</time>
      </trkpt>
      <trkpt lat="42.84888" lon="0.49581">
        <ele>1821</ele>
        <time>2020-02-01T13:19:40.000Z</time>
      </trkpt>
      <trkpt lat="42.84888" lon="0.4958">
        <ele>1821</ele>
        <time>2020-02-01T13:19:41.000Z</time>
      </trkpt>
      <trkpt lat="42.84888" lon="0.4958">
        <ele>1821</ele>
        <time>2020-02-01T13:19:42.000Z</time>
      </trkpt>
      <trkpt lat="42.84888" lon="0.49579">
        <ele>1820.7</ele>
        <time>2020-02-01T13:19:43.000Z</time>
      </trkpt>
      <trkpt lat="42.84888" lon="0.49579">
        <ele>1820.3</ele>
        <time>2020-02-01T13:19:44.000Z</time>
      </trkpt>
      <trkpt lat="42.84888" lon="0.49579">
        <ele>1820</ele>
        <time>2020-02-01T13:19:45.000Z</time>
      </trkpt>
      <trkpt lat="42.84888" lon="0.4958">
        <ele>1820</ele>
        <time>2020-02-01T13:19:46.000Z</time>
      </trkpt>
      <trkpt lat="42.84888" lon="0.4958">
        <ele>1820</ele>
        <time>2020-02-01T13:19:47.000Z</time>
      </trkpt>
      <trkpt lat="42.84888" lon="0.49581">
        <ele>1820</ele>
        <time>2020-02-01T13:19:48.000Z</time>
      </trkpt>
      <trkpt lat="42.84888" lon="0.49581">
        <ele>1820</ele>
        <time>2020-02-01T13:19:49.000Z</time>
      </trkpt>
      <trkpt lat="42.84888" lon="0.49581">
        <ele>1820</ele>
        <time>2020-02-01T13:19:50.000Z</time>
      </trkpt>
      <trkpt lat="42.84887" lon="0.49581">
        <ele>1819.7</ele>
        <time>2020-02-01T13:19:51.000Z</time>
      </trkpt>
      <trkpt lat="42.84887" lon="0.49581">
        <ele>1819.3</ele>
        <time>2020-02-01T13:19:52.000Z</time>
      </trkpt>
      <trkpt lat="42.84887" lon="0.49581">
        <ele>1819</ele>
        <time>2020-02-01T13:19:53.000Z</time>
      </trkpt>
      <trkpt lat="42.84887" lon="0.49581">
        <ele>1819</ele>
        <time>2020-02-01T13:19:54.000Z</time>
      </trkpt>
      <trkpt lat="42.84887" lon="0.49581">
        <ele>1819</ele>
        <time>2020-02-01T13:19:55.000Z</time>
      </trkpt>
      <trkpt lat="42.84887" lon="0.49581">
        <ele>1819</ele>
        <time>2020-02-01T13:19:56.000Z</time>
      </trkpt>
      <trkpt lat="42.84887" lon="0.49581">
        <ele>1819</ele>
        <time>2020-02-01T13:19:57.000Z</time>
      </trkpt>
      <trkpt lat="42.84887" lon="0.49581">
        <ele>1819</ele>
        <time>2020-02-01T13:19:58.000Z</time>
      </trkpt>
      <trkpt lat="42.84887" lon="0.49581">
        <ele>1819</ele>
        <time>2020-02-01T13:19:59.000Z</time>
      </trkpt>
      <trkpt lat="42.84887" lon="0.49581">
        <ele>1819</ele>
        <time>2020-02-01T13:20:00.000Z</time>
      </trkpt>
      <trkpt lat="42.84887" lon="0.49581">
        <ele>1819</ele>
        <time>2020-02-01T13:20:01.000Z</time>
      </trkpt>
      <trkpt lat="42.84887" lon="0.49581">
        <ele>1819</ele>
        <time>2020-02-01T13:20:02.000Z</time>
      </trkpt>
      <trkpt lat="42.84887" lon="0.49582">
        <ele>1819</ele>
        <time>2020-02-01T13:20:03.000Z</time>
      </trkpt>
      <trkpt lat="42.84887" lon="0.49582">
        <ele>1819</ele>
        <time>2020-02-01T13:20:04.000Z</time>
      </trkpt>
      <trkpt lat="42.84887" lon="0.49582">
        <ele>1819</ele>
        <time>2020-02-01T13:20:05.000Z</time>
      </trkpt>
      <trkpt lat="42.84887" lon="0.49582">
        <ele>1819</ele>
        <time>2020-02-01T13:20:06.000Z</time>
      </trkpt>
      <trkpt lat="42.84887" lon="0.49582">
        <ele>1819</ele>
        <time>2020-02-01T13:20:07.000Z</time>
      </trkpt>
      <trkpt lat="42.84888" lon="0.49582">
        <ele>1819</ele>
        <time>2020-02-01T13:20:08.000Z</time>
      </trkpt>
      <trkpt lat="42.84888" lon="0.49582">
        <ele>1819</ele>
        <time>2020-02-01T13:20:09.000Z</time>
      </trkpt>
      <trkpt lat="42.84888" lon="0.49582">
        <ele>1819</ele>
        <time>2020-02-01T13:20:10.000Z</time>
      </trkpt>
      <trkpt lat="42.84888" lon="0.49582">
        <ele>1819</ele>
        <time>2020-02-01T13:20:11.000Z</time>
      </trkpt>
      <trkpt lat="42.84888" lon="0.49582">
        <ele>1819</ele>
        <time>2020-02-01T13:20:12.000Z</time>
      </trkpt>
      <trkpt lat="42.84888" lon="0.49582">
        <ele>1819</ele>
        <time>2020-02-01T13:20:13.000Z</time>
      </trkpt>
      <trkpt lat="42.84888" lon="0.49582">
        <ele>1819</ele>
        <time>2020-02-01T13:20:14.000Z</time>
      </trkpt>
      <trkpt lat="42.84888" lon="0.49582">
        <ele>1819</ele>
        <time>2020-02-01T13:20:15.000Z</time>
      </trkpt>
      <trkpt lat="42.84888" lon="0.49582">
        <ele>1819</ele>
        <time>2020-02-01T13:20:16.000Z</time>
      </trkpt>
      <trkpt lat="42.84887" lon="0.49582">
        <ele>1819.5</ele>
        <time>2020-02-01T13:20:17.000Z</time>
      </trkpt>
      <trkpt lat="42.84887" lon="0.49582">
        <ele>1820</ele>
        <time>2020-02-01T13:20:18.000Z</time>
      </trkpt>
      <trkpt lat="42.84887" lon="0.49582">
        <ele>1820</ele>
        <time>2020-02-01T13:20:19.000Z</time>
      </trkpt>
      <trkpt lat="42.84887" lon="0.49582">
        <ele>1820</ele>
        <time>2020-02-01T13:20:20.000Z</time>
      </trkpt>
      <trkpt lat="42.84887" lon="0.49582">
        <ele>1820</ele>
        <time>2020-02-01T13:20:21.000Z</time>
      </trkpt>
      <trkpt lat="42.84887" lon="0.49582">
        <ele>1820</ele>
        <time>2020-02-01T13:20:22.000Z</time>
      </trkpt>
      <trkpt lat="42.84887" lon="0.49582">
        <ele>1820</ele>
        <time>2020-02-01T13:20:23.000Z</time>
      </trkpt>
      <trkpt lat="42.84887" lon="0.49582">
        <ele>1820</ele>
        <time>2020-02-01T13:20:24.000Z</time>
      </trkpt>
      <trkpt lat="42.84887" lon="0.49582">
        <ele>1820</ele>
        <time>2020-02-01T13:20:25.000Z</time>
      </trkpt>
      <trkpt lat="42.84887" lon="0.49582">
        <ele>1820</ele>
        <time>2020-02-01T13:20:26.000Z</time>
      </trkpt>
      <trkpt lat="42.84887" lon="0.49582">
        <ele>1820</ele>
        <time>2020-02-01T13:20:27.000Z</time>
      </trkpt>
      <trkpt lat="42.84887" lon="0.49582">
        <ele>1820</ele>
        <time>2020-02-01T13:20:28.000Z</time>
      </trkpt>
      <trkpt lat="42.84887" lon="0.49582">
        <ele>1820</ele>
        <time>2020-02-01T13:20:29.000Z</time>
      </trkpt>
      <trkpt lat="42.84887" lon="0.49582">
        <ele>1820</ele>
        <time>2020-02-01T13:20:30.000Z</time>
      </trkpt>
      <trkpt lat="42.84887" lon="0.49582">
        <ele>1820</ele>
        <time>2020-02-01T13:20:31.000Z</time>
      </trkpt>
      <trkpt lat="42.84886" lon="0.49582">
        <ele>1820</ele>
        <time>2020-02-01T13:20:32.000Z</time>
      </trkpt>
      <trkpt lat="42.84886" lon="0.49582">
        <ele>1820.3</ele>
        <time>2020-02-01T13:20:33.000Z</time>
      </trkpt>
      <trkpt lat="42.84886" lon="0.49582">
        <ele>1820.7</ele>
        <time>2020-02-01T13:20:34.000Z</time>
      </trkpt>
      <trkpt lat="42.84886" lon="0.49582">
        <ele>1821</ele>
        <time>2020-02-01T13:20:35.000Z</time>
      </trkpt>
      <trkpt lat="42.84887" lon="0.49582">
        <ele>1821</ele>
        <time>2020-02-01T13:20:36.000Z</time>
      </trkpt>
      <trkpt lat="42.84887" lon="0.49581">
        <ele>1821</ele>
        <time>2020-02-01T13:20:37.000Z</time>
      </trkpt>
      <trkpt lat="42.84887" lon="0.49581">
        <ele>1821</ele>
        <time>2020-02-01T13:20:38.000Z</time>
      </trkpt>
      <trkpt lat="42.84887" lon="0.49581">
        <ele>1821</ele>
        <time>2020-02-01T13:20:39.000Z</time>
      </trkpt>
      <trkpt lat="42.84887" lon="0.4958">
        <ele>1821</ele>
        <time>2020-02-01T13:20:40.000Z</time>
      </trkpt>
      <trkpt lat="42.84888" lon="0.4958">
        <ele>1821</ele>
        <time>2020-02-01T13:20:41.000Z</time>
      </trkpt>
      <trkpt lat="42.84888" lon="0.49579">
        <ele>1821</ele>
        <time>2020-02-01T13:20:42.000Z</time>
      </trkpt>
      <trkpt lat="42.84888" lon="0.49579">
        <ele>1821</ele>
        <time>2020-02-01T13:20:43.000Z</time>
      </trkpt>
      <trkpt lat="42.84888" lon="0.49578">
        <ele>1821.5</ele>
        <time>2020-02-01T13:20:44.000Z</time>
      </trkpt>
      <trkpt lat="42.84889" lon="0.49578">
        <ele>1822</ele>
        <time>2020-02-01T13:20:45.000Z</time>
      </trkpt>
      <trkpt lat="42.84889" lon="0.49578">
        <ele>1822</ele>
        <time>2020-02-01T13:20:46.000Z</time>
      </trkpt>
      <trkpt lat="42.84889" lon="0.49578">
        <ele>1822</ele>
        <time>2020-02-01T13:20:47.000Z</time>
      </trkpt>
      <trkpt lat="42.84889" lon="0.49577">
        <ele>1822</ele>
        <time>2020-02-01T13:20:48.000Z</time>
      </trkpt>
      <trkpt lat="42.84889" lon="0.49577">
        <ele>1822</ele>
        <time>2020-02-01T13:20:49.000Z</time>
      </trkpt>
      <trkpt lat="42.84889" lon="0.49577">
        <ele>1821</ele>
        <time>2020-02-01T13:20:50.000Z</time>
      </trkpt>
      <trkpt lat="42.84889" lon="0.49577">
        <ele>1821.3</ele>
        <time>2020-02-01T13:20:51.000Z</time>
      </trkpt>
      <trkpt lat="42.84889" lon="0.49577">
        <ele>1821.7</ele>
        <time>2020-02-01T13:20:52.000Z</time>
      </trkpt>
      <trkpt lat="42.84889" lon="0.49577">
        <ele>1822</ele>
        <time>2020-02-01T13:20:53.000Z</time>
      </trkpt>
      <trkpt lat="42.84889" lon="0.49577">
        <ele>1822</ele>
        <time>2020-02-01T13:20:54.000Z</time>
      </trkpt>
      <trkpt lat="42.84889" lon="0.49577">
        <ele>1822</ele>
        <time>2020-02-01T13:20:55.000Z</time>
      </trkpt>
      <trkpt lat="42.84889" lon="0.49577">
        <ele>1822</ele>
        <time>2020-02-01T13:20:56.000Z</time>
      </trkpt>
      <trkpt lat="42.84889" lon="0.49577">
        <ele>1822</ele>
        <time>2020-02-01T13:20:57.000Z</time>
      </trkpt>
      <trkpt lat="42.84889" lon="0.49577">
        <ele>1822</ele>
        <time>2020-02-01T13:20:58.000Z</time>
      </trkpt>
      <trkpt lat="42.84889" lon="0.49577">
        <ele>1822.5</ele>
        <time>2020-02-01T13:20:59.000Z</time>
      </trkpt>
      <trkpt lat="42.84889" lon="0.49577">
        <ele>1823</ele>
        <time>2020-02-01T13:21:00.000Z</time>
      </trkpt>
      <trkpt lat="42.84889" lon="0.49577">
        <ele>1822.7</ele>
        <time>2020-02-01T13:21:01.000Z</time>
      </trkpt>
      <trkpt lat="42.84889" lon="0.49577">
        <ele>1822.3</ele>
        <time>2020-02-01T13:21:02.000Z</time>
      </trkpt>
      <trkpt lat="42.84889" lon="0.49577">
        <ele>1822</ele>
        <time>2020-02-01T13:21:03.000Z</time>
      </trkpt>
      <trkpt lat="42.84889" lon="0.49577">
        <ele>1822.5</ele>
        <time>2020-02-01T13:21:04.000Z</time>
      </trkpt>
      <trkpt lat="42.84889" lon="0.49577">
        <ele>1823</ele>
        <time>2020-02-01T13:21:05.000Z</time>
      </trkpt>
      <trkpt lat="42.84889" lon="0.49577">
        <ele>1823</ele>
        <time>2020-02-01T13:21:06.000Z</time>
      </trkpt>
      <trkpt lat="42.84889" lon="0.49577">
        <ele>1823</ele>
        <time>2020-02-01T13:21:07.000Z</time>
      </trkpt>
      <trkpt lat="42.84889" lon="0.49577">
        <ele>1823</ele>
        <time>2020-02-01T13:21:08.000Z</time>
      </trkpt>
      <trkpt lat="42.84889" lon="0.49577">
        <ele>1823</ele>
        <time>2020-02-01T13:21:09.000Z</time>
      </trkpt>
      <trkpt lat="42.84889" lon="0.49578">
        <ele>1823</ele>
        <time>2020-02-01T13:21:10.000Z</time>
      </trkpt>
      <trkpt lat="42.84889" lon="0.49578">
        <ele>1823</ele>
        <time>2020-02-01T13:21:11.000Z</time>
      </trkpt>
      <trkpt lat="42.84889" lon="0.49578">
        <ele>1823</ele>
        <time>2020-02-01T13:21:12.000Z</time>
      </trkpt>
      <trkpt lat="42.84889" lon="0.49579">
        <ele>1823</ele>
        <time>2020-02-01T13:21:13.000Z</time>
      </trkpt>
      <trkpt lat="42.84889" lon="0.4958">
        <ele>1822.5</ele>
        <time>2020-02-01T13:21:14.000Z</time>
      </trkpt>
      <trkpt lat="42.84889" lon="0.4958">
        <ele>1822</ele>
        <time>2020-02-01T13:21:15.000Z</time>
      </trkpt>
      <trkpt lat="42.84889" lon="0.49581">
        <ele>1822</ele>
        <time>2020-02-01T13:21:16.000Z</time>
      </trkpt>
      <trkpt lat="42.84889" lon="0.49582">
        <ele>1821.7</ele>
        <time>2020-02-01T13:21:17.000Z</time>
      </trkpt>
      <trkpt lat="42.84889" lon="0.49583">
        <ele>1821.3</ele>
        <time>2020-02-01T13:21:18.000Z</time>
      </trkpt>
      <trkpt lat="42.84889" lon="0.49583">
        <ele>1821</ele>
        <time>2020-02-01T13:21:19.000Z</time>
      </trkpt>
      <trkpt lat="42.84889" lon="0.49584">
        <ele>1821</ele>
        <time>2020-02-01T13:21:20.000Z</time>
      </trkpt>
      <trkpt lat="42.84889" lon="0.49585">
        <ele>1821</ele>
        <time>2020-02-01T13:21:21.000Z</time>
      </trkpt>
      <trkpt lat="42.84889" lon="0.49585">
        <ele>1820</ele>
        <time>2020-02-01T13:21:22.000Z</time>
      </trkpt>
      <trkpt lat="42.84889" lon="0.49586">
        <ele>1819.7</ele>
        <time>2020-02-01T13:21:23.000Z</time>
      </trkpt>
      <trkpt lat="42.84889" lon="0.49587">
        <ele>1819.3</ele>
        <time>2020-02-01T13:21:24.000Z</time>
      </trkpt>
      <trkpt lat="42.84889" lon="0.49588">
        <ele>1819</ele>
        <time>2020-02-01T13:21:25.000Z</time>
      </trkpt>
      <trkpt lat="42.84889" lon="0.4959">
        <ele>1818.5</ele>
        <time>2020-02-01T13:21:26.000Z</time>
      </trkpt>
      <trkpt lat="42.84889" lon="0.49591">
        <ele>1818</ele>
        <time>2020-02-01T13:21:27.000Z</time>
      </trkpt>
      <trkpt lat="42.84889" lon="0.49592">
        <ele>1818</ele>
        <time>2020-02-01T13:21:28.000Z</time>
      </trkpt>
      <trkpt lat="42.84889" lon="0.49594">
        <ele>1817.7</ele>
        <time>2020-02-01T13:21:29.000Z</time>
      </trkpt>
      <trkpt lat="42.84889" lon="0.49596">
        <ele>1817.3</ele>
        <time>2020-02-01T13:21:30.000Z</time>
      </trkpt>
      <trkpt lat="42.8489" lon="0.49597">
        <ele>1817</ele>
        <time>2020-02-01T13:21:31.000Z</time>
      </trkpt>
      <trkpt lat="42.8489" lon="0.49599">
        <ele>1816</ele>
        <time>2020-02-01T13:21:32.000Z</time>
      </trkpt>
      <trkpt lat="42.8489" lon="0.496">
        <ele>1815.7</ele>
        <time>2020-02-01T13:21:33.000Z</time>
      </trkpt>
      <trkpt lat="42.8489" lon="0.49601">
        <ele>1815.3</ele>
        <time>2020-02-01T13:21:34.000Z</time>
      </trkpt>
      <trkpt lat="42.84891" lon="0.49603">
        <ele>1815</ele>
        <time>2020-02-01T13:21:35.000Z</time>
      </trkpt>
      <trkpt lat="42.84891" lon="0.49603">
        <ele>1815</ele>
        <time>2020-02-01T13:21:36.000Z</time>
      </trkpt>
      <trkpt lat="42.84891" lon="0.49604">
        <ele>1815</ele>
        <time>2020-02-01T13:21:37.000Z</time>
      </trkpt>
      <trkpt lat="42.84891" lon="0.49605">
        <ele>1814</ele>
        <time>2020-02-01T13:21:38.000Z</time>
      </trkpt>
      <trkpt lat="42.84891" lon="0.49606">
        <ele>1813.7</ele>
        <time>2020-02-01T13:21:39.000Z</time>
      </trkpt>
      <trkpt lat="42.84891" lon="0.49607">
        <ele>1813.3</ele>
        <time>2020-02-01T13:21:40.000Z</time>
      </trkpt>
      <trkpt lat="42.84891" lon="0.49608">
        <ele>1813</ele>
        <time>2020-02-01T13:21:41.000Z</time>
      </trkpt>
      <trkpt lat="42.84891" lon="0.49609">
        <ele>1812.5</ele>
        <time>2020-02-01T13:21:42.000Z</time>
      </trkpt>
      <trkpt lat="42.84891" lon="0.4961">
        <ele>1812</ele>
        <time>2020-02-01T13:21:43.000Z</time>
      </trkpt>
      <trkpt lat="42.84891" lon="0.49611">
        <ele>1811</ele>
        <time>2020-02-01T13:21:44.000Z</time>
      </trkpt>
      <trkpt lat="42.84891" lon="0.49613">
        <ele>1811</ele>
        <time>2020-02-01T13:21:45.000Z</time>
      </trkpt>
      <trkpt lat="42.84891" lon="0.49614">
        <ele>1811</ele>
        <time>2020-02-01T13:21:46.000Z</time>
      </trkpt>
      <trkpt lat="42.84891" lon="0.49615">
        <ele>1811</ele>
        <time>2020-02-01T13:21:47.000Z</time>
      </trkpt>
      <trkpt lat="42.84891" lon="0.49617">
        <ele>1810.5</ele>
        <time>2020-02-01T13:21:48.000Z</time>
      </trkpt>
      <trkpt lat="42.84892" lon="0.49618">
        <ele>1810</ele>
        <time>2020-02-01T13:21:49.000Z</time>
      </trkpt>
      <trkpt lat="42.84892" lon="0.4962">
        <ele>1809</ele>
        <time>2020-02-01T13:21:50.000Z</time>
      </trkpt>
      <trkpt lat="42.84892" lon="0.49621">
        <ele>1809</ele>
        <time>2020-02-01T13:21:51.000Z</time>
      </trkpt>
      <trkpt lat="42.84892" lon="0.49622">
        <ele>1809</ele>
        <time>2020-02-01T13:21:52.000Z</time>
      </trkpt>
      <trkpt lat="42.84893" lon="0.49623">
        <ele>1809</ele>
        <time>2020-02-01T13:21:53.000Z</time>
      </trkpt>
      <trkpt lat="42.84893" lon="0.49625">
        <ele>1808.5</ele>
        <time>2020-02-01T13:21:54.000Z</time>
      </trkpt>
      <trkpt lat="42.84892" lon="0.49626">
        <ele>1808</ele>
        <time>2020-02-01T13:21:55.000Z</time>
      </trkpt>
      <trkpt lat="42.84892" lon="0.49628">
        <ele>1807</ele>
        <time>2020-02-01T13:21:56.000Z</time>
      </trkpt>
      <trkpt lat="42.84892" lon="0.49629">
        <ele>1807</ele>
        <time>2020-02-01T13:21:57.000Z</time>
      </trkpt>
      <trkpt lat="42.84892" lon="0.4963">
        <ele>1807</ele>
        <time>2020-02-01T13:21:58.000Z</time>
      </trkpt>
      <trkpt lat="42.84891" lon="0.49631">
        <ele>1807</ele>
        <time>2020-02-01T13:21:59.000Z</time>
      </trkpt>
      <trkpt lat="42.84891" lon="0.49632">
        <ele>1806.5</ele>
        <time>2020-02-01T13:22:00.000Z</time>
      </trkpt>
      <trkpt lat="42.84891" lon="0.49633">
        <ele>1806</ele>
        <time>2020-02-01T13:22:01.000Z</time>
      </trkpt>
      <trkpt lat="42.8489" lon="0.49634">
        <ele>1805.5</ele>
        <time>2020-02-01T13:22:02.000Z</time>
      </trkpt>
      <trkpt lat="42.8489" lon="0.49636">
        <ele>1805</ele>
        <time>2020-02-01T13:22:03.000Z</time>
      </trkpt>
      <trkpt lat="42.8489" lon="0.49637">
        <ele>1804</ele>
        <time>2020-02-01T13:22:04.000Z</time>
      </trkpt>
      <trkpt lat="42.8489" lon="0.49638">
        <ele>1803.7</ele>
        <time>2020-02-01T13:22:05.000Z</time>
      </trkpt>
      <trkpt lat="42.8489" lon="0.49639">
        <ele>1803.3</ele>
        <time>2020-02-01T13:22:06.000Z</time>
      </trkpt>
      <trkpt lat="42.8489" lon="0.49641">
        <ele>1803</ele>
        <time>2020-02-01T13:22:07.000Z</time>
      </trkpt>
      <trkpt lat="42.8489" lon="0.49642">
        <ele>1803</ele>
        <time>2020-02-01T13:22:08.000Z</time>
      </trkpt>
      <trkpt lat="42.8489" lon="0.49643">
        <ele>1803</ele>
        <time>2020-02-01T13:22:09.000Z</time>
      </trkpt>
      <trkpt lat="42.8489" lon="0.49645">
        <ele>1802.5</ele>
        <time>2020-02-01T13:22:10.000Z</time>
      </trkpt>
      <trkpt lat="42.84889" lon="0.49646">
        <ele>1802</ele>
        <time>2020-02-01T13:22:11.000Z</time>
      </trkpt>
      <trkpt lat="42.84889" lon="0.49647">
        <ele>1801.5</ele>
        <time>2020-02-01T13:22:12.000Z</time>
      </trkpt>
      <trkpt lat="42.84889" lon="0.49648">
        <ele>1801</ele>
        <time>2020-02-01T13:22:13.000Z</time>
      </trkpt>
      <trkpt lat="42.84889" lon="0.49648">
        <ele>1800</ele>
        <time>2020-02-01T13:22:14.000Z</time>
      </trkpt>
      <trkpt lat="42.84888" lon="0.49649">
        <ele>1800</ele>
        <time>2020-02-01T13:22:15.000Z</time>
      </trkpt>
      <trkpt lat="42.84888" lon="0.49649">
        <ele>1800</ele>
        <time>2020-02-01T13:22:16.000Z</time>
      </trkpt>
      <trkpt lat="42.84887" lon="0.4965">
        <ele>1800</ele>
        <time>2020-02-01T13:22:17.000Z</time>
      </trkpt>
      <trkpt lat="42.84887" lon="0.4965">
        <ele>1799.5</ele>
        <time>2020-02-01T13:22:18.000Z</time>
      </trkpt>
      <trkpt lat="42.84886" lon="0.49651">
        <ele>1799</ele>
        <time>2020-02-01T13:22:19.000Z</time>
      </trkpt>
      <trkpt lat="42.84886" lon="0.49652">
        <ele>1798.5</ele>
        <time>2020-02-01T13:22:20.000Z</time>
      </trkpt>
      <trkpt lat="42.84885" lon="0.49653">
        <ele>1798</ele>
        <time>2020-02-01T13:22:21.000Z</time>
      </trkpt>
      <trkpt lat="42.84885" lon="0.49655">
        <ele>1797</ele>
        <time>2020-02-01T13:22:22.000Z</time>
      </trkpt>
      <trkpt lat="42.84885" lon="0.49656">
        <ele>1796.7</ele>
        <time>2020-02-01T13:22:23.000Z</time>
      </trkpt>
      <trkpt lat="42.84885" lon="0.49657">
        <ele>1796.3</ele>
        <time>2020-02-01T13:22:24.000Z</time>
      </trkpt>
      <trkpt lat="42.84885" lon="0.49658">
        <ele>1796</ele>
        <time>2020-02-01T13:22:25.000Z</time>
      </trkpt>
      <trkpt lat="42.84884" lon="0.49659">
        <ele>1796</ele>
        <time>2020-02-01T13:22:26.000Z</time>
      </trkpt>
      <trkpt lat="42.84884" lon="0.49661">
        <ele>1795.7</ele>
        <time>2020-02-01T13:22:27.000Z</time>
      </trkpt>
      <trkpt lat="42.84884" lon="0.49662">
        <ele>1795.3</ele>
        <time>2020-02-01T13:22:28.000Z</time>
      </trkpt>
      <trkpt lat="42.84884" lon="0.49664">
        <ele>1795</ele>
        <time>2020-02-01T13:22:29.000Z</time>
      </trkpt>
      <trkpt lat="42.84884" lon="0.49665">
        <ele>1795</ele>
        <time>2020-02-01T13:22:30.000Z</time>
      </trkpt>
      <trkpt lat="42.84884" lon="0.49666">
        <ele>1794.7</ele>
        <time>2020-02-01T13:22:31.000Z</time>
      </trkpt>
      <trkpt lat="42.84885" lon="0.49668">
        <ele>1794.3</ele>
        <time>2020-02-01T13:22:32.000Z</time>
      </trkpt>
      <trkpt lat="42.84885" lon="0.49669">
        <ele>1794</ele>
        <time>2020-02-01T13:22:33.000Z</time>
      </trkpt>
      <trkpt lat="42.84885" lon="0.4967">
        <ele>1793.5</ele>
        <time>2020-02-01T13:22:34.000Z</time>
      </trkpt>
      <trkpt lat="42.84886" lon="0.49671">
        <ele>1793</ele>
        <time>2020-02-01T13:22:35.000Z</time>
      </trkpt>
      <trkpt lat="42.84886" lon="0.49672">
        <ele>1792.5</ele>
        <time>2020-02-01T13:22:36.000Z</time>
      </trkpt>
      <trkpt lat="42.84886" lon="0.49673">
        <ele>1792</ele>
        <time>2020-02-01T13:22:37.000Z</time>
      </trkpt>
      <trkpt lat="42.84886" lon="0.49674">
        <ele>1792</ele>
        <time>2020-02-01T13:22:38.000Z</time>
      </trkpt>
      <trkpt lat="42.84886" lon="0.49675">
        <ele>1792</ele>
        <time>2020-02-01T13:22:39.000Z</time>
      </trkpt>
      <trkpt lat="42.84886" lon="0.49677">
        <ele>1791.5</ele>
        <time>2020-02-01T13:22:40.000Z</time>
      </trkpt>
      <trkpt lat="42.84886" lon="0.49678">
        <ele>1791</ele>
        <time>2020-02-01T13:22:41.000Z</time>
      </trkpt>
      <trkpt lat="42.84885" lon="0.49679">
        <ele>1790</ele>
        <time>2020-02-01T13:22:42.000Z</time>
      </trkpt>
      <trkpt lat="42.84885" lon="0.49681">
        <ele>1790</ele>
        <time>2020-02-01T13:22:43.000Z</time>
      </trkpt>
      <trkpt lat="42.84885" lon="0.49681">
        <ele>1790</ele>
        <time>2020-02-01T13:22:44.000Z</time>
      </trkpt>
      <trkpt lat="42.84884" lon="0.49682">
        <ele>1790</ele>
        <time>2020-02-01T13:22:45.000Z</time>
      </trkpt>
      <trkpt lat="42.84884" lon="0.49682">
        <ele>1791</ele>
        <time>2020-02-01T13:22:46.000Z</time>
      </trkpt>
      <trkpt lat="42.84884" lon="0.49682">
        <ele>1791</ele>
        <time>2020-02-01T13:22:47.000Z</time>
      </trkpt>
      <trkpt lat="42.84884" lon="0.49682">
        <ele>1791</ele>
        <time>2020-02-01T13:22:48.000Z</time>
      </trkpt>
      <trkpt lat="42.84884" lon="0.49683">
        <ele>1791</ele>
        <time>2020-02-01T13:22:49.000Z</time>
      </trkpt>
      <trkpt lat="42.84884" lon="0.49683">
        <ele>1791</ele>
        <time>2020-02-01T13:22:50.000Z</time>
      </trkpt>
      <trkpt lat="42.84884" lon="0.49683">
        <ele>1791</ele>
        <time>2020-02-01T13:22:51.000Z</time>
      </trkpt>
      <trkpt lat="42.84883" lon="0.49683">
        <ele>1790.5</ele>
        <time>2020-02-01T13:22:52.000Z</time>
      </trkpt>
      <trkpt lat="42.84883" lon="0.49684">
        <ele>1790</ele>
        <time>2020-02-01T13:22:53.000Z</time>
      </trkpt>
      <trkpt lat="42.84883" lon="0.49684">
        <ele>1790</ele>
        <time>2020-02-01T13:22:54.000Z</time>
      </trkpt>
      <trkpt lat="42.84884" lon="0.49685">
        <ele>1790</ele>
        <time>2020-02-01T13:22:55.000Z</time>
      </trkpt>
      <trkpt lat="42.84884" lon="0.49685">
        <ele>1790</ele>
        <time>2020-02-01T13:22:56.000Z</time>
      </trkpt>
      <trkpt lat="42.84884" lon="0.49685">
        <ele>1790</ele>
        <time>2020-02-01T13:22:57.000Z</time>
      </trkpt>
      <trkpt lat="42.84885" lon="0.49686">
        <ele>1790</ele>
        <time>2020-02-01T13:22:58.000Z</time>
      </trkpt>
      <trkpt lat="42.84885" lon="0.49686">
        <ele>1790</ele>
        <time>2020-02-01T13:22:59.000Z</time>
      </trkpt>
      <trkpt lat="42.84885" lon="0.49687">
        <ele>1790</ele>
        <time>2020-02-01T13:23:00.000Z</time>
      </trkpt>
      <trkpt lat="42.84885" lon="0.49687">
        <ele>1790</ele>
        <time>2020-02-01T13:23:01.000Z</time>
      </trkpt>
      <trkpt lat="42.84885" lon="0.49687">
        <ele>1790</ele>
        <time>2020-02-01T13:23:02.000Z</time>
      </trkpt>
      <trkpt lat="42.84885" lon="0.49688">
        <ele>1790</ele>
        <time>2020-02-01T13:23:03.000Z</time>
      </trkpt>
      <trkpt lat="42.84885" lon="0.49688">
        <ele>1790</ele>
        <time>2020-02-01T13:23:04.000Z</time>
      </trkpt>
      <trkpt lat="42.84884" lon="0.49689">
        <ele>1790</ele>
        <time>2020-02-01T13:23:05.000Z</time>
      </trkpt>
      <trkpt lat="42.84884" lon="0.49689">
        <ele>1789.5</ele>
        <time>2020-02-01T13:23:06.000Z</time>
      </trkpt>
      <trkpt lat="42.84885" lon="0.49688">
        <ele>1789</ele>
        <time>2020-02-01T13:23:07.000Z</time>
      </trkpt>
      <trkpt lat="42.84885" lon="0.49688">
        <ele>1790</ele>
        <time>2020-02-01T13:23:08.000Z</time>
      </trkpt>
      <trkpt lat="42.84886" lon="0.49687">
        <ele>1790</ele>
        <time>2020-02-01T13:23:09.000Z</time>
      </trkpt>
      <trkpt lat="42.84886" lon="0.49686">
        <ele>1790</ele>
        <time>2020-02-01T13:23:10.000Z</time>
      </trkpt>
      <trkpt lat="42.84886" lon="0.49686">
        <ele>1790</ele>
        <time>2020-02-01T13:23:11.000Z</time>
      </trkpt>
      <trkpt lat="42.84886" lon="0.49685">
        <ele>1791</ele>
        <time>2020-02-01T13:23:12.000Z</time>
      </trkpt>
      <trkpt lat="42.84886" lon="0.49685">
        <ele>1791</ele>
        <time>2020-02-01T13:23:13.000Z</time>
      </trkpt>
      <trkpt lat="42.84887" lon="0.49684">
        <ele>1791</ele>
        <time>2020-02-01T13:23:14.000Z</time>
      </trkpt>
      <trkpt lat="42.84887" lon="0.49684">
        <ele>1791</ele>
        <time>2020-02-01T13:23:15.000Z</time>
      </trkpt>
      <trkpt lat="42.84887" lon="0.49684">
        <ele>1791.5</ele>
        <time>2020-02-01T13:23:16.000Z</time>
      </trkpt>
      <trkpt lat="42.84887" lon="0.49684">
        <ele>1792</ele>
        <time>2020-02-01T13:23:17.000Z</time>
      </trkpt>
      <trkpt lat="42.84887" lon="0.49684">
        <ele>1792</ele>
        <time>2020-02-01T13:23:18.000Z</time>
      </trkpt>
      <trkpt lat="42.84886" lon="0.49684">
        <ele>1792</ele>
        <time>2020-02-01T13:23:19.000Z</time>
      </trkpt>
      <trkpt lat="42.84886" lon="0.49684">
        <ele>1793</ele>
        <time>2020-02-01T13:23:20.000Z</time>
      </trkpt>
      <trkpt lat="42.84886" lon="0.49684">
        <ele>1793</ele>
        <time>2020-02-01T13:23:21.000Z</time>
      </trkpt>
      <trkpt lat="42.84886" lon="0.49684">
        <ele>1793</ele>
        <time>2020-02-01T13:23:22.000Z</time>
      </trkpt>
      <trkpt lat="42.84887" lon="0.49684">
        <ele>1793</ele>
        <time>2020-02-01T13:23:23.000Z</time>
      </trkpt>
      <trkpt lat="42.84887" lon="0.49684">
        <ele>1793</ele>
        <time>2020-02-01T13:23:24.000Z</time>
      </trkpt>
      <trkpt lat="42.84887" lon="0.49684">
        <ele>1793</ele>
        <time>2020-02-01T13:23:25.000Z</time>
      </trkpt>
      <trkpt lat="42.84887" lon="0.49685">
        <ele>1792.5</ele>
        <time>2020-02-01T13:23:26.000Z</time>
      </trkpt>
      <trkpt lat="42.84887" lon="0.49685">
        <ele>1792</ele>
        <time>2020-02-01T13:23:27.000Z</time>
      </trkpt>
      <trkpt lat="42.84887" lon="0.49685">
        <ele>1792</ele>
        <time>2020-02-01T13:23:28.000Z</time>
      </trkpt>
      <trkpt lat="42.84887" lon="0.49685">
        <ele>1791.7</ele>
        <time>2020-02-01T13:23:29.000Z</time>
      </trkpt>
      <trkpt lat="42.84887" lon="0.49685">
        <ele>1791.3</ele>
        <time>2020-02-01T13:23:30.000Z</time>
      </trkpt>
      <trkpt lat="42.84887" lon="0.49685">
        <ele>1791</ele>
        <time>2020-02-01T13:23:31.000Z</time>
      </trkpt>
      <trkpt lat="42.84887" lon="0.49685">
        <ele>1791</ele>
        <time>2020-02-01T13:23:32.000Z</time>
      </trkpt>
      <trkpt lat="42.84887" lon="0.49685">
        <ele>1791</ele>
        <time>2020-02-01T13:23:33.000Z</time>
      </trkpt>
      <trkpt lat="42.84887" lon="0.49685">
        <ele>1791</ele>
        <time>2020-02-01T13:23:34.000Z</time>
      </trkpt>
      <trkpt lat="42.84887" lon="0.49685">
        <ele>1791</ele>
        <time>2020-02-01T13:23:35.000Z</time>
      </trkpt>
      <trkpt lat="42.84887" lon="0.49685">
        <ele>1791</ele>
        <time>2020-02-01T13:23:36.000Z</time>
      </trkpt>
      <trkpt lat="42.84887" lon="0.49685">
        <ele>1791.3</ele>
        <time>2020-02-01T13:23:37.000Z</time>
      </trkpt>
      <trkpt lat="42.84887" lon="0.49685">
        <ele>1791.7</ele>
        <time>2020-02-01T13:23:38.000Z</time>
      </trkpt>
      <trkpt lat="42.84887" lon="0.49685">
        <ele>1792</ele>
        <time>2020-02-01T13:23:39.000Z</time>
      </trkpt>
      <trkpt lat="42.84887" lon="0.49685">
        <ele>1792</ele>
        <time>2020-02-01T13:23:40.000Z</time>
      </trkpt>
      <trkpt lat="42.84887" lon="0.49685">
        <ele>1792</ele>
        <time>2020-02-01T13:23:41.000Z</time>
      </trkpt>
      <trkpt lat="42.84887" lon="0.49685">
        <ele>1792</ele>
        <time>2020-02-01T13:23:42.000Z</time>
      </trkpt>
      <trkpt lat="42.84887" lon="0.49685">
        <ele>1792</ele>
        <time>2020-02-01T13:23:43.000Z</time>
      </trkpt>
      <trkpt lat="42.84887" lon="0.49685">
        <ele>1792</ele>
        <time>2020-02-01T13:23:44.000Z</time>
      </trkpt>
      <trkpt lat="42.84887" lon="0.49685">
        <ele>1792</ele>
        <time>2020-02-01T13:23:45.000Z</time>
      </trkpt>
      <trkpt lat="42.84887" lon="0.49685">
        <ele>1792</ele>
        <time>2020-02-01T13:23:46.000Z</time>
      </trkpt>
      <trkpt lat="42.84887" lon="0.49685">
        <ele>1792</ele>
        <time>2020-02-01T13:23:47.000Z</time>
      </trkpt>
      <trkpt lat="42.84887" lon="0.49685">
        <ele>1792</ele>
        <time>2020-02-01T13:23:48.000Z</time>
      </trkpt>
      <trkpt lat="42.84887" lon="0.49685">
        <ele>1792</ele>
        <time>2020-02-01T13:23:49.000Z</time>
      </trkpt>
      <trkpt lat="42.84887" lon="0.49685">
        <ele>1792</ele>
        <time>2020-02-01T13:23:50.000Z</time>
      </trkpt>
      <trkpt lat="42.84887" lon="0.49685">
        <ele>1792</ele>
        <time>2020-02-01T13:23:51.000Z</time>
      </trkpt>
      <trkpt lat="42.84887" lon="0.49685">
        <ele>1791.5</ele>
        <time>2020-02-01T13:23:52.000Z</time>
      </trkpt>
      <trkpt lat="42.84887" lon="0.49684">
        <ele>1791</ele>
        <time>2020-02-01T13:23:53.000Z</time>
      </trkpt>
      <trkpt lat="42.84887" lon="0.49684">
        <ele>1791</ele>
        <time>2020-02-01T13:23:54.000Z</time>
      </trkpt>
      <trkpt lat="42.84887" lon="0.49684">
        <ele>1791.3</ele>
        <time>2020-02-01T13:23:55.000Z</time>
      </trkpt>
      <trkpt lat="42.84888" lon="0.49684">
        <ele>1791.7</ele>
        <time>2020-02-01T13:23:56.000Z</time>
      </trkpt>
      <trkpt lat="42.84888" lon="0.49684">
        <ele>1792</ele>
        <time>2020-02-01T13:23:57.000Z</time>
      </trkpt>
      <trkpt lat="42.84888" lon="0.49684">
        <ele>1792</ele>
        <time>2020-02-01T13:23:58.000Z</time>
      </trkpt>
      <trkpt lat="42.84888" lon="0.49684">
        <ele>1792</ele>
        <time>2020-02-01T13:23:59.000Z</time>
      </trkpt>
      <trkpt lat="42.84888" lon="0.49684">
        <ele>1792</ele>
        <time>2020-02-01T13:24:00.000Z</time>
      </trkpt>
      <trkpt lat="42.84888" lon="0.49684">
        <ele>1791.7</ele>
        <time>2020-02-01T13:24:01.000Z</time>
      </trkpt>
      <trkpt lat="42.84888" lon="0.49684">
        <ele>1791.3</ele>
        <time>2020-02-01T13:24:02.000Z</time>
      </trkpt>
      <trkpt lat="42.84888" lon="0.49684">
        <ele>1791</ele>
        <time>2020-02-01T13:24:03.000Z</time>
      </trkpt>
      <trkpt lat="42.84888" lon="0.49684">
        <ele>1791</ele>
        <time>2020-02-01T13:24:04.000Z</time>
      </trkpt>
      <trkpt lat="42.84888" lon="0.49684">
        <ele>1791.3</ele>
        <time>2020-02-01T13:24:05.000Z</time>
      </trkpt>
      <trkpt lat="42.84888" lon="0.49684">
        <ele>1791.7</ele>
        <time>2020-02-01T13:24:06.000Z</time>
      </trkpt>
      <trkpt lat="42.84887" lon="0.49684">
        <ele>1792</ele>
        <time>2020-02-01T13:24:07.000Z</time>
      </trkpt>
      <trkpt lat="42.84887" lon="0.49684">
        <ele>1792</ele>
        <time>2020-02-01T13:24:08.000Z</time>
      </trkpt>
      <trkpt lat="42.84887" lon="0.49684">
        <ele>1792</ele>
        <time>2020-02-01T13:24:09.000Z</time>
      </trkpt>
      <trkpt lat="42.84887" lon="0.49684">
        <ele>1792</ele>
        <time>2020-02-01T13:24:10.000Z</time>
      </trkpt>
      <trkpt lat="42.84887" lon="0.49683">
        <ele>1792</ele>
        <time>2020-02-01T13:24:11.000Z</time>
      </trkpt>
      <trkpt lat="42.84887" lon="0.49683">
        <ele>1792</ele>
        <time>2020-02-01T13:24:12.000Z</time>
      </trkpt>
      <trkpt lat="42.84887" lon="0.49683">
        <ele>1792</ele>
        <time>2020-02-01T13:24:13.000Z</time>
      </trkpt>
      <trkpt lat="42.84887" lon="0.49683">
        <ele>1792</ele>
        <time>2020-02-01T13:24:14.000Z</time>
      </trkpt>
      <trkpt lat="42.84887" lon="0.49683">
        <ele>1792</ele>
        <time>2020-02-01T13:24:15.000Z</time>
      </trkpt>
      <trkpt lat="42.84887" lon="0.49683">
        <ele>1792</ele>
        <time>2020-02-01T13:24:16.000Z</time>
      </trkpt>
      <trkpt lat="42.84887" lon="0.49683">
        <ele>1792</ele>
        <time>2020-02-01T13:24:17.000Z</time>
      </trkpt>
      <trkpt lat="42.84887" lon="0.49683">
        <ele>1792</ele>
        <time>2020-02-01T13:24:18.000Z</time>
      </trkpt>
      <trkpt lat="42.84887" lon="0.49683">
        <ele>1792</ele>
        <time>2020-02-01T13:24:19.000Z</time>
      </trkpt>
      <trkpt lat="42.84887" lon="0.49684">
        <ele>1792</ele>
        <time>2020-02-01T13:24:20.000Z</time>
      </trkpt>
      <trkpt lat="42.84887" lon="0.49684">
        <ele>1791.7</ele>
        <time>2020-02-01T13:24:21.000Z</time>
      </trkpt>
      <trkpt lat="42.84887" lon="0.49684">
        <ele>1791.3</ele>
        <time>2020-02-01T13:24:22.000Z</time>
      </trkpt>
      <trkpt lat="42.84887" lon="0.49684">
        <ele>1791</ele>
        <time>2020-02-01T13:24:23.000Z</time>
      </trkpt>
      <trkpt lat="42.84887" lon="0.49684">
        <ele>1791</ele>
        <time>2020-02-01T13:24:24.000Z</time>
      </trkpt>
      <trkpt lat="42.84887" lon="0.49684">
        <ele>1791</ele>
        <time>2020-02-01T13:24:25.000Z</time>
      </trkpt>
      <trkpt lat="42.84887" lon="0.49683">
        <ele>1791</ele>
        <time>2020-02-01T13:24:26.000Z</time>
      </trkpt>
      <trkpt lat="42.84887" lon="0.49683">
        <ele>1791</ele>
        <time>2020-02-01T13:24:27.000Z</time>
      </trkpt>
      <trkpt lat="42.84887" lon="0.49683">
        <ele>1791</ele>
        <time>2020-02-01T13:24:28.000Z</time>
      </trkpt>
      <trkpt lat="42.84887" lon="0.49684">
        <ele>1791</ele>
        <time>2020-02-01T13:24:29.000Z</time>
      </trkpt>
      <trkpt lat="42.84887" lon="0.49684">
        <ele>1790</ele>
        <time>2020-02-01T13:24:30.000Z</time>
      </trkpt>
      <trkpt lat="42.84887" lon="0.49684">
        <ele>1790</ele>
        <time>2020-02-01T13:24:31.000Z</time>
      </trkpt>
      <trkpt lat="42.84888" lon="0.49685">
        <ele>1790</ele>
        <time>2020-02-01T13:24:32.000Z</time>
      </trkpt>
      <trkpt lat="42.84888" lon="0.49685">
        <ele>1790</ele>
        <time>2020-02-01T13:24:33.000Z</time>
      </trkpt>
      <trkpt lat="42.84888" lon="0.49686">
        <ele>1790</ele>
        <time>2020-02-01T13:24:34.000Z</time>
      </trkpt>
      <trkpt lat="42.84888" lon="0.49686">
        <ele>1790</ele>
        <time>2020-02-01T13:24:35.000Z</time>
      </trkpt>
      <trkpt lat="42.84888" lon="0.49687">
        <ele>1790</ele>
        <time>2020-02-01T13:24:36.000Z</time>
      </trkpt>
      <trkpt lat="42.84888" lon="0.49687">
        <ele>1790</ele>
        <time>2020-02-01T13:24:37.000Z</time>
      </trkpt>
      <trkpt lat="42.84888" lon="0.49687">
        <ele>1790</ele>
        <time>2020-02-01T13:24:38.000Z</time>
      </trkpt>
      <trkpt lat="42.84888" lon="0.49688">
        <ele>1790</ele>
        <time>2020-02-01T13:24:39.000Z</time>
      </trkpt>
      <trkpt lat="42.84888" lon="0.49688">
        <ele>1790</ele>
        <time>2020-02-01T13:24:40.000Z</time>
      </trkpt>
      <trkpt lat="42.84888" lon="0.49688">
        <ele>1790</ele>
        <time>2020-02-01T13:24:41.000Z</time>
      </trkpt>
      <trkpt lat="42.84888" lon="0.49688">
        <ele>1790</ele>
        <time>2020-02-01T13:24:42.000Z</time>
      </trkpt>
      <trkpt lat="42.84888" lon="0.49688">
        <ele>1790</ele>
        <time>2020-02-01T13:24:43.000Z</time>
      </trkpt>
      <trkpt lat="42.84888" lon="0.49688">
        <ele>1790</ele>
        <time>2020-02-01T13:24:44.000Z</time>
      </trkpt>
      <trkpt lat="42.84887" lon="0.49688">
        <ele>1790</ele>
        <time>2020-02-01T13:24:45.000Z</time>
      </trkpt>
      <trkpt lat="42.84887" lon="0.49688">
        <ele>1790</ele>
        <time>2020-02-01T13:24:46.000Z</time>
      </trkpt>
      <trkpt lat="42.84887" lon="0.49688">
        <ele>1790</ele>
        <time>2020-02-01T13:24:47.000Z</time>
      </trkpt>
      <trkpt lat="42.84887" lon="0.49688">
        <ele>1790</ele>
        <time>2020-02-01T13:24:48.000Z</time>
      </trkpt>
      <trkpt lat="42.84887" lon="0.49688">
        <ele>1790</ele>
        <time>2020-02-01T13:24:49.000Z</time>
      </trkpt>
      <trkpt lat="42.84887" lon="0.49688">
        <ele>1790</ele>
        <time>2020-02-01T13:24:50.000Z</time>
      </trkpt>
      <trkpt lat="42.84887" lon="0.49688">
        <ele>1790</ele>
        <time>2020-02-01T13:24:51.000Z</time>
      </trkpt>
      <trkpt lat="42.84887" lon="0.49688">
        <ele>1790</ele>
        <time>2020-02-01T13:24:52.000Z</time>
      </trkpt>
      <trkpt lat="42.84887" lon="0.49688">
        <ele>1790</ele>
        <time>2020-02-01T13:24:53.000Z</time>
      </trkpt>
      <trkpt lat="42.84887" lon="0.49688">
        <ele>1790</ele>
        <time>2020-02-01T13:24:54.000Z</time>
      </trkpt>
      <trkpt lat="42.84887" lon="0.49688">
        <ele>1790</ele>
        <time>2020-02-01T13:24:55.000Z</time>
      </trkpt>
      <trkpt lat="42.84887" lon="0.49688">
        <ele>1790</ele>
        <time>2020-02-01T13:24:56.000Z</time>
      </trkpt>
      <trkpt lat="42.84887" lon="0.49688">
        <ele>1790</ele>
        <time>2020-02-01T13:24:57.000Z</time>
      </trkpt>
      <trkpt lat="42.84887" lon="0.49688">
        <ele>1790</ele>
        <time>2020-02-01T13:24:58.000Z</time>
      </trkpt>
      <trkpt lat="42.84887" lon="0.49688">
        <ele>1790</ele>
        <time>2020-02-01T13:24:59.000Z</time>
      </trkpt>
      <trkpt lat="42.84887" lon="0.49688">
        <ele>1790</ele>
        <time>2020-02-01T13:25:00.000Z</time>
      </trkpt>
      <trkpt lat="42.84886" lon="0.49688">
        <ele>1790</ele>
        <time>2020-02-01T13:25:01.000Z</time>
      </trkpt>
      <trkpt lat="42.84886" lon="0.49688">
        <ele>1790</ele>
        <time>2020-02-01T13:25:02.000Z</time>
      </trkpt>
      <trkpt lat="42.84886" lon="0.49688">
        <ele>1790</ele>
        <time>2020-02-01T13:25:03.000Z</time>
      </trkpt>
      <trkpt lat="42.84886" lon="0.49688">
        <ele>1790</ele>
        <time>2020-02-01T13:25:04.000Z</time>
      </trkpt>
      <trkpt lat="42.84886" lon="0.49688">
        <ele>1790</ele>
        <time>2020-02-01T13:25:05.000Z</time>
      </trkpt>
      <trkpt lat="42.84886" lon="0.49688">
        <ele>1790</ele>
        <time>2020-02-01T13:25:06.000Z</time>
      </trkpt>
      <trkpt lat="42.84886" lon="0.49688">
        <ele>1790</ele>
        <time>2020-02-01T13:25:07.000Z</time>
      </trkpt>
      <trkpt lat="42.84886" lon="0.49688">
        <ele>1790</ele>
        <time>2020-02-01T13:25:08.000Z</time>
      </trkpt>
      <trkpt lat="42.84886" lon="0.49688">
        <ele>1790</ele>
        <time>2020-02-01T13:25:09.000Z</time>
      </trkpt>
      <trkpt lat="42.84886" lon="0.49688">
        <ele>1790</ele>
        <time>2020-02-01T13:25:10.000Z</time>
      </trkpt>
      <trkpt lat="42.84885" lon="0.49688">
        <ele>1790</ele>
        <time>2020-02-01T13:25:11.000Z</time>
      </trkpt>
      <trkpt lat="42.84885" lon="0.49688">
        <ele>1790.5</ele>
        <time>2020-02-01T13:25:12.000Z</time>
      </trkpt>
      <trkpt lat="42.84885" lon="0.49688">
        <ele>1791</ele>
        <time>2020-02-01T13:25:13.000Z</time>
      </trkpt>
      <trkpt lat="42.84885" lon="0.49688">
        <ele>1791</ele>
        <time>2020-02-01T13:25:14.000Z</time>
      </trkpt>
      <trkpt lat="42.84885" lon="0.49688">
        <ele>1791</ele>
        <time>2020-02-01T13:25:15.000Z</time>
      </trkpt>
      <trkpt lat="42.84885" lon="0.49688">
        <ele>1791</ele>
        <time>2020-02-01T13:25:16.000Z</time>
      </trkpt>
      <trkpt lat="42.84885" lon="0.49688">
        <ele>1791</ele>
        <time>2020-02-01T13:25:17.000Z</time>
      </trkpt>
      <trkpt lat="42.84885" lon="0.49688">
        <ele>1791</ele>
        <time>2020-02-01T13:25:18.000Z</time>
      </trkpt>
      <trkpt lat="42.84885" lon="0.49688">
        <ele>1791</ele>
        <time>2020-02-01T13:25:19.000Z</time>
      </trkpt>
      <trkpt lat="42.84885" lon="0.49688">
        <ele>1791</ele>
        <time>2020-02-01T13:25:20.000Z</time>
      </trkpt>
      <trkpt lat="42.84885" lon="0.49688">
        <ele>1791</ele>
        <time>2020-02-01T13:25:21.000Z</time>
      </trkpt>
      <trkpt lat="42.84885" lon="0.49688">
        <ele>1791</ele>
        <time>2020-02-01T13:25:22.000Z</time>
      </trkpt>
      <trkpt lat="42.84885" lon="0.49688">
        <ele>1791</ele>
        <time>2020-02-01T13:25:23.000Z</time>
      </trkpt>
      <trkpt lat="42.84885" lon="0.49688">
        <ele>1791</ele>
        <time>2020-02-01T13:25:24.000Z</time>
      </trkpt>
      <trkpt lat="42.84885" lon="0.49688">
        <ele>1791</ele>
        <time>2020-02-01T13:25:25.000Z</time>
      </trkpt>
      <trkpt lat="42.84885" lon="0.49688">
        <ele>1791</ele>
        <time>2020-02-01T13:25:26.000Z</time>
      </trkpt>
      <trkpt lat="42.84885" lon="0.49688">
        <ele>1791</ele>
        <time>2020-02-01T13:25:27.000Z</time>
      </trkpt>
      <trkpt lat="42.84885" lon="0.49688">
        <ele>1791</ele>
        <time>2020-02-01T13:25:28.000Z</time>
      </trkpt>
      <trkpt lat="42.84885" lon="0.49688">
        <ele>1791</ele>
        <time>2020-02-01T13:25:29.000Z</time>
      </trkpt>
      <trkpt lat="42.84885" lon="0.49688">
        <ele>1791</ele>
        <time>2020-02-01T13:25:30.000Z</time>
      </trkpt>
      <trkpt lat="42.84885" lon="0.49688">
        <ele>1791</ele>
        <time>2020-02-01T13:25:31.000Z</time>
      </trkpt>
      <trkpt lat="42.84885" lon="0.49688">
        <ele>1791</ele>
        <time>2020-02-01T13:25:32.000Z</time>
      </trkpt>
      <trkpt lat="42.84885" lon="0.49688">
        <ele>1791</ele>
        <time>2020-02-01T13:25:33.000Z</time>
      </trkpt>
      <trkpt lat="42.84885" lon="0.49688">
        <ele>1791</ele>
        <time>2020-02-01T13:25:34.000Z</time>
      </trkpt>
      <trkpt lat="42.84885" lon="0.49688">
        <ele>1791</ele>
        <time>2020-02-01T13:25:35.000Z</time>
      </trkpt>
      <trkpt lat="42.84885" lon="0.49688">
        <ele>1791</ele>
        <time>2020-02-01T13:25:36.000Z</time>
      </trkpt>
      <trkpt lat="42.84885" lon="0.49688">
        <ele>1791</ele>
        <time>2020-02-01T13:25:37.000Z</time>
      </trkpt>
      <trkpt lat="42.84885" lon="0.49688">
        <ele>1791</ele>
        <time>2020-02-01T13:25:38.000Z</time>
      </trkpt>
      <trkpt lat="42.84885" lon="0.49688">
        <ele>1791</ele>
        <time>2020-02-01T13:25:39.000Z</time>
      </trkpt>
      <trkpt lat="42.84885" lon="0.49688">
        <ele>1791</ele>
        <time>2020-02-01T13:25:40.000Z</time>
      </trkpt>
      <trkpt lat="42.84885" lon="0.49688">
        <ele>1791</ele>
        <time>2020-02-01T13:25:41.000Z</time>
      </trkpt>
      <trkpt lat="42.84885" lon="0.49688">
        <ele>1791</ele>
        <time>2020-02-01T13:25:42.000Z</time>
      </trkpt>
      <trkpt lat="42.84885" lon="0.49688">
        <ele>1791</ele>
        <time>2020-02-01T13:25:43.000Z</time>
      </trkpt>
      <trkpt lat="42.84885" lon="0.49688">
        <ele>1790</ele>
        <time>2020-02-01T13:25:44.000Z</time>
      </trkpt>
      <trkpt lat="42.84885" lon="0.49688">
        <ele>1790</ele>
        <time>2020-02-01T13:25:45.000Z</time>
      </trkpt>
      <trkpt lat="42.84885" lon="0.49688">
        <ele>1790</ele>
        <time>2020-02-01T13:25:46.000Z</time>
      </trkpt>
      <trkpt lat="42.84885" lon="0.49688">
        <ele>1790</ele>
        <time>2020-02-01T13:25:47.000Z</time>
      </trkpt>
      <trkpt lat="42.84885" lon="0.49688">
        <ele>1790</ele>
        <time>2020-02-01T13:25:48.000Z</time>
      </trkpt>
      <trkpt lat="42.84885" lon="0.49688">
        <ele>1790</ele>
        <time>2020-02-01T13:25:49.000Z</time>
      </trkpt>
      <trkpt lat="42.84885" lon="0.49688">
        <ele>1790</ele>
        <time>2020-02-01T13:25:50.000Z</time>
      </trkpt>
      <trkpt lat="42.84885" lon="0.49688">
        <ele>1790</ele>
        <time>2020-02-01T13:25:51.000Z</time>
      </trkpt>
      <trkpt lat="42.84885" lon="0.49688">
        <ele>1790</ele>
        <time>2020-02-01T13:25:52.000Z</time>
      </trkpt>
      <trkpt lat="42.84885" lon="0.49688">
        <ele>1790.3</ele>
        <time>2020-02-01T13:25:53.000Z</time>
      </trkpt>
      <trkpt lat="42.84885" lon="0.49688">
        <ele>1790.7</ele>
        <time>2020-02-01T13:25:54.000Z</time>
      </trkpt>
      <trkpt lat="42.84885" lon="0.49688">
        <ele>1791</ele>
        <time>2020-02-01T13:25:55.000Z</time>
      </trkpt>
      <trkpt lat="42.84885" lon="0.49688">
        <ele>1791</ele>
        <time>2020-02-01T13:25:56.000Z</time>
      </trkpt>
      <trkpt lat="42.84885" lon="0.49688">
        <ele>1791</ele>
        <time>2020-02-01T13:25:57.000Z</time>
      </trkpt>
      <trkpt lat="42.84885" lon="0.49688">
        <ele>1791</ele>
        <time>2020-02-01T13:25:58.000Z</time>
      </trkpt>
      <trkpt lat="42.84885" lon="0.49688">
        <ele>1791</ele>
        <time>2020-02-01T13:25:59.000Z</time>
      </trkpt>
      <trkpt lat="42.84885" lon="0.49688">
        <ele>1791</ele>
        <time>2020-02-01T13:26:00.000Z</time>
      </trkpt>
      <trkpt lat="42.84886" lon="0.49688">
        <ele>1791</ele>
        <time>2020-02-01T13:26:01.000Z</time>
      </trkpt>
      <trkpt lat="42.84886" lon="0.49688">
        <ele>1791</ele>
        <time>2020-02-01T13:26:02.000Z</time>
      </trkpt>
      <trkpt lat="42.84886" lon="0.49688">
        <ele>1791</ele>
        <time>2020-02-01T13:26:03.000Z</time>
      </trkpt>
      <trkpt lat="42.84886" lon="0.49688">
        <ele>1791</ele>
        <time>2020-02-01T13:26:04.000Z</time>
      </trkpt>
      <trkpt lat="42.84886" lon="0.49688">
        <ele>1791</ele>
        <time>2020-02-01T13:26:05.000Z</time>
      </trkpt>
      <trkpt lat="42.84886" lon="0.49688">
        <ele>1791</ele>
        <time>2020-02-01T13:26:06.000Z</time>
      </trkpt>
      <trkpt lat="42.84886" lon="0.49688">
        <ele>1791</ele>
        <time>2020-02-01T13:26:07.000Z</time>
      </trkpt>
      <trkpt lat="42.84886" lon="0.49688">
        <ele>1791</ele>
        <time>2020-02-01T13:26:08.000Z</time>
      </trkpt>
      <trkpt lat="42.84886" lon="0.49688">
        <ele>1791</ele>
        <time>2020-02-01T13:26:09.000Z</time>
      </trkpt>
      <trkpt lat="42.84886" lon="0.49688">
        <ele>1791</ele>
        <time>2020-02-01T13:26:10.000Z</time>
      </trkpt>
      <trkpt lat="42.84886" lon="0.49688">
        <ele>1791</ele>
        <time>2020-02-01T13:26:11.000Z</time>
      </trkpt>
      <trkpt lat="42.84886" lon="0.49688">
        <ele>1791</ele>
        <time>2020-02-01T13:26:12.000Z</time>
      </trkpt>
      <trkpt lat="42.84886" lon="0.49688">
        <ele>1791</ele>
        <time>2020-02-01T13:26:13.000Z</time>
      </trkpt>
      <trkpt lat="42.84886" lon="0.49688">
        <ele>1791</ele>
        <time>2020-02-01T13:26:14.000Z</time>
      </trkpt>
      <trkpt lat="42.84886" lon="0.49688">
        <ele>1791</ele>
        <time>2020-02-01T13:26:15.000Z</time>
      </trkpt>
      <trkpt lat="42.84886" lon="0.49688">
        <ele>1791</ele>
        <time>2020-02-01T13:26:16.000Z</time>
      </trkpt>
      <trkpt lat="42.84886" lon="0.49688">
        <ele>1791</ele>
        <time>2020-02-01T13:26:17.000Z</time>
      </trkpt>
      <trkpt lat="42.84886" lon="0.49688">
        <ele>1791</ele>
        <time>2020-02-01T13:26:18.000Z</time>
      </trkpt>
      <trkpt lat="42.84886" lon="0.49688">
        <ele>1791</ele>
        <time>2020-02-01T13:26:19.000Z</time>
      </trkpt>
      <trkpt lat="42.84886" lon="0.49688">
        <ele>1791</ele>
        <time>2020-02-01T13:26:20.000Z</time>
      </trkpt>
      <trkpt lat="42.84886" lon="0.49688">
        <ele>1791</ele>
        <time>2020-02-01T13:26:21.000Z</time>
      </trkpt>
      <trkpt lat="42.84886" lon="0.49688">
        <ele>1791</ele>
        <time>2020-02-01T13:26:22.000Z</time>
      </trkpt>
      <trkpt lat="42.84886" lon="0.49688">
        <ele>1791</ele>
        <time>2020-02-01T13:26:23.000Z</time>
      </trkpt>
      <trkpt lat="42.84886" lon="0.49688">
        <ele>1791</ele>
        <time>2020-02-01T13:26:24.000Z</time>
      </trkpt>
      <trkpt lat="42.84886" lon="0.49688">
        <ele>1791</ele>
        <time>2020-02-01T13:26:25.000Z</time>
      </trkpt>
      <trkpt lat="42.84886" lon="0.49688">
        <ele>1791</ele>
        <time>2020-02-01T13:26:26.000Z</time>
      </trkpt>
      <trkpt lat="42.84886" lon="0.49688">
        <ele>1791</ele>
        <time>2020-02-01T13:26:27.000Z</time>
      </trkpt>
      <trkpt lat="42.84886" lon="0.49688">
        <ele>1791</ele>
        <time>2020-02-01T13:26:28.000Z</time>
      </trkpt>
      <trkpt lat="42.84886" lon="0.49688">
        <ele>1791</ele>
        <time>2020-02-01T13:26:29.000Z</time>
      </trkpt>
      <trkpt lat="42.84886" lon="0.49688">
        <ele>1791</ele>
        <time>2020-02-01T13:26:30.000Z</time>
      </trkpt>
      <trkpt lat="42.84886" lon="0.49688">
        <ele>1791</ele>
        <time>2020-02-01T13:26:31.000Z</time>
      </trkpt>
      <trkpt lat="42.84886" lon="0.49688">
        <ele>1791</ele>
        <time>2020-02-01T13:26:32.000Z</time>
      </trkpt>
      <trkpt lat="42.84886" lon="0.49688">
        <ele>1791</ele>
        <time>2020-02-01T13:26:33.000Z</time>
      </trkpt>
      <trkpt lat="42.84886" lon="0.49688">
        <ele>1790</ele>
        <time>2020-02-01T13:26:34.000Z</time>
      </trkpt>
      <trkpt lat="42.84886" lon="0.49688">
        <ele>1790</ele>
        <time>2020-02-01T13:26:35.000Z</time>
      </trkpt>
      <trkpt lat="42.84886" lon="0.49688">
        <ele>1790</ele>
        <time>2020-02-01T13:26:36.000Z</time>
      </trkpt>
      <trkpt lat="42.84886" lon="0.49688">
        <ele>1790</ele>
        <time>2020-02-01T13:26:37.000Z</time>
      </trkpt>
      <trkpt lat="42.84886" lon="0.49688">
        <ele>1790</ele>
        <time>2020-02-01T13:26:38.000Z</time>
      </trkpt>
      <trkpt lat="42.84886" lon="0.49688">
        <ele>1790</ele>
        <time>2020-02-01T13:26:39.000Z</time>
      </trkpt>
      <trkpt lat="42.84886" lon="0.49688">
        <ele>1790</ele>
        <time>2020-02-01T13:26:40.000Z</time>
      </trkpt>
      <trkpt lat="42.84886" lon="0.49688">
        <ele>1790</ele>
        <time>2020-02-01T13:26:41.000Z</time>
      </trkpt>
      <trkpt lat="42.84886" lon="0.49688">
        <ele>1790</ele>
        <time>2020-02-01T13:26:42.000Z</time>
      </trkpt>
      <trkpt lat="42.84886" lon="0.49688">
        <ele>1790</ele>
        <time>2020-02-01T13:26:43.000Z</time>
      </trkpt>
      <trkpt lat="42.84886" lon="0.49688">
        <ele>1790</ele>
        <time>2020-02-01T13:26:44.000Z</time>
      </trkpt>
      <trkpt lat="42.84886" lon="0.49688">
        <ele>1790</ele>
        <time>2020-02-01T13:26:45.000Z</time>
      </trkpt>
      <trkpt lat="42.84886" lon="0.49688">
        <ele>1789.5</ele>
        <time>2020-02-01T13:26:46.000Z</time>
      </trkpt>
      <trkpt lat="42.84886" lon="0.49688">
        <ele>1789</ele>
        <time>2020-02-01T13:26:47.000Z</time>
      </trkpt>
      <trkpt lat="42.84886" lon="0.49688">
        <ele>1789</ele>
        <time>2020-02-01T13:26:48.000Z</time>
      </trkpt>
      <trkpt lat="42.84886" lon="0.49688">
        <ele>1789</ele>
        <time>2020-02-01T13:26:49.000Z</time>
      </trkpt>
      <trkpt lat="42.84886" lon="0.49688">
        <ele>1789</ele>
        <time>2020-02-01T13:26:50.000Z</time>
      </trkpt>
      <trkpt lat="42.84886" lon="0.49688">
        <ele>1789</ele>
        <time>2020-02-01T13:26:51.000Z</time>
      </trkpt>
      <trkpt lat="42.84886" lon="0.49688">
        <ele>1789</ele>
        <time>2020-02-01T13:26:52.000Z</time>
      </trkpt>
      <trkpt lat="42.84886" lon="0.49688">
        <ele>1789</ele>
        <time>2020-02-01T13:26:53.000Z</time>
      </trkpt>
      <trkpt lat="42.84886" lon="0.49688">
        <ele>1789.5</ele>
        <time>2020-02-01T13:26:54.000Z</time>
      </trkpt>
      <trkpt lat="42.84886" lon="0.49688">
        <ele>1790</ele>
        <time>2020-02-01T13:26:55.000Z</time>
      </trkpt>
      <trkpt lat="42.84886" lon="0.49688">
        <ele>1790</ele>
        <time>2020-02-01T13:26:56.000Z</time>
      </trkpt>
      <trkpt lat="42.84886" lon="0.49688">
        <ele>1790</ele>
        <time>2020-02-01T13:26:57.000Z</time>
      </trkpt>
      <trkpt lat="42.84886" lon="0.49688">
        <ele>1790</ele>
        <time>2020-02-01T13:26:58.000Z</time>
      </trkpt>
      <trkpt lat="42.84886" lon="0.49688">
        <ele>1790</ele>
        <time>2020-02-01T13:26:59.000Z</time>
      </trkpt>
      <trkpt lat="42.84886" lon="0.49688">
        <ele>1790</ele>
        <time>2020-02-01T13:27:00.000Z</time>
      </trkpt>
      <trkpt lat="42.84886" lon="0.49688">
        <ele>1790</ele>
        <time>2020-02-01T13:27:01.000Z</time>
      </trkpt>
      <trkpt lat="42.84886" lon="0.49688">
        <ele>1790.5</ele>
        <time>2020-02-01T13:27:02.000Z</time>
      </trkpt>
      <trkpt lat="42.84886" lon="0.49688">
        <ele>1791</ele>
        <time>2020-02-01T13:27:03.000Z</time>
      </trkpt>
      <trkpt lat="42.84886" lon="0.49688">
        <ele>1791</ele>
        <time>2020-02-01T13:27:04.000Z</time>
      </trkpt>
      <trkpt lat="42.84886" lon="0.49688">
        <ele>1791</ele>
        <time>2020-02-01T13:27:05.000Z</time>
      </trkpt>
      <trkpt lat="42.84886" lon="0.49688">
        <ele>1791</ele>
        <time>2020-02-01T13:27:06.000Z</time>
      </trkpt>
      <trkpt lat="42.84886" lon="0.49688">
        <ele>1790.7</ele>
        <time>2020-02-01T13:27:07.000Z</time>
      </trkpt>
      <trkpt lat="42.84886" lon="0.49688">
        <ele>1790.3</ele>
        <time>2020-02-01T13:27:08.000Z</time>
      </trkpt>
      <trkpt lat="42.84886" lon="0.49688">
        <ele>1790</ele>
        <time>2020-02-01T13:27:09.000Z</time>
      </trkpt>
      <trkpt lat="42.84886" lon="0.49688">
        <ele>1790</ele>
        <time>2020-02-01T13:27:10.000Z</time>
      </trkpt>
      <trkpt lat="42.84886" lon="0.49688">
        <ele>1790</ele>
        <time>2020-02-01T13:27:11.000Z</time>
      </trkpt>
      <trkpt lat="42.84886" lon="0.49688">
        <ele>1790</ele>
        <time>2020-02-01T13:27:12.000Z</time>
      </trkpt>
      <trkpt lat="42.84886" lon="0.49688">
        <ele>1790</ele>
        <time>2020-02-01T13:27:13.000Z</time>
      </trkpt>
      <trkpt lat="42.84886" lon="0.49688">
        <ele>1790</ele>
        <time>2020-02-01T13:27:14.000Z</time>
      </trkpt>
      <trkpt lat="42.84886" lon="0.49688">
        <ele>1790</ele>
        <time>2020-02-01T13:27:15.000Z</time>
      </trkpt>
      <trkpt lat="42.84886" lon="0.49688">
        <ele>1790</ele>
        <time>2020-02-01T13:27:16.000Z</time>
      </trkpt>
      <trkpt lat="42.84886" lon="0.49688">
        <ele>1790</ele>
        <time>2020-02-01T13:27:17.000Z</time>
      </trkpt>
      <trkpt lat="42.84886" lon="0.49688">
        <ele>1790</ele>
        <time>2020-02-01T13:27:18.000Z</time>
      </trkpt>
      <trkpt lat="42.84886" lon="0.49688">
        <ele>1790</ele>
        <time>2020-02-01T13:27:19.000Z</time>
      </trkpt>
      <trkpt lat="42.84885" lon="0.49688">
        <ele>1790</ele>
        <time>2020-02-01T13:27:20.000Z</time>
      </trkpt>
      <trkpt lat="42.84885" lon="0.49688">
        <ele>1790</ele>
        <time>2020-02-01T13:27:21.000Z</time>
      </trkpt>
      <trkpt lat="42.84885" lon="0.49688">
        <ele>1789.5</ele>
        <time>2020-02-01T13:27:22.000Z</time>
      </trkpt>
      <trkpt lat="42.84885" lon="0.49688">
        <ele>1789</ele>
        <time>2020-02-01T13:27:23.000Z</time>
      </trkpt>
      <trkpt lat="42.84885" lon="0.49688">
        <ele>1789</ele>
        <time>2020-02-01T13:27:24.000Z</time>
      </trkpt>
      <trkpt lat="42.84885" lon="0.49688">
        <ele>1789</ele>
        <time>2020-02-01T13:27:25.000Z</time>
      </trkpt>
      <trkpt lat="42.84885" lon="0.49688">
        <ele>1789</ele>
        <time>2020-02-01T13:27:26.000Z</time>
      </trkpt>
      <trkpt lat="42.84885" lon="0.49688">
        <ele>1789</ele>
        <time>2020-02-01T13:27:27.000Z</time>
      </trkpt>
      <trkpt lat="42.84885" lon="0.49688">
        <ele>1789</ele>
        <time>2020-02-01T13:27:28.000Z</time>
      </trkpt>
      <trkpt lat="42.84885" lon="0.49688">
        <ele>1789</ele>
        <time>2020-02-01T13:27:29.000Z</time>
      </trkpt>
      <trkpt lat="42.84885" lon="0.49688">
        <ele>1789</ele>
        <time>2020-02-01T13:27:30.000Z</time>
      </trkpt>
      <trkpt lat="42.84885" lon="0.49688">
        <ele>1789</ele>
        <time>2020-02-01T13:27:31.000Z</time>
      </trkpt>
      <trkpt lat="42.84885" lon="0.49689">
        <ele>1789</ele>
        <time>2020-02-01T13:27:32.000Z</time>
      </trkpt>
      <trkpt lat="42.84885" lon="0.49689">
        <ele>1789</ele>
        <time>2020-02-01T13:27:33.000Z</time>
      </trkpt>
      <trkpt lat="42.84885" lon="0.4969">
        <ele>1789</ele>
        <time>2020-02-01T13:27:34.000Z</time>
      </trkpt>
      <trkpt lat="42.84885" lon="0.49691">
        <ele>1789</ele>
        <time>2020-02-01T13:27:35.000Z</time>
      </trkpt>
      <trkpt lat="42.84885" lon="0.49692">
        <ele>1789</ele>
        <time>2020-02-01T13:27:36.000Z</time>
      </trkpt>
      <trkpt lat="42.84885" lon="0.49693">
        <ele>1789</ele>
        <time>2020-02-01T13:27:37.000Z</time>
      </trkpt>
      <trkpt lat="42.84885" lon="0.49694">
        <ele>1789</ele>
        <time>2020-02-01T13:27:38.000Z</time>
      </trkpt>
      <trkpt lat="42.84885" lon="0.49695">
        <ele>1789</ele>
        <time>2020-02-01T13:27:39.000Z</time>
      </trkpt>
      <trkpt lat="42.84885" lon="0.49696">
        <ele>1789</ele>
        <time>2020-02-01T13:27:40.000Z</time>
      </trkpt>
      <trkpt lat="42.84885" lon="0.49697">
        <ele>1789</ele>
        <time>2020-02-01T13:27:41.000Z</time>
      </trkpt>
      <trkpt lat="42.84884" lon="0.49698">
        <ele>1790</ele>
        <time>2020-02-01T13:27:42.000Z</time>
      </trkpt>
      <trkpt lat="42.84884" lon="0.49698">
        <ele>1790</ele>
        <time>2020-02-01T13:27:43.000Z</time>
      </trkpt>
      <trkpt lat="42.84884" lon="0.49699">
        <ele>1790</ele>
        <time>2020-02-01T13:27:44.000Z</time>
      </trkpt>
      <trkpt lat="42.84884" lon="0.497">
        <ele>1790</ele>
        <time>2020-02-01T13:27:45.000Z</time>
      </trkpt>
      <trkpt lat="42.84884" lon="0.49701">
        <ele>1790</ele>
        <time>2020-02-01T13:27:46.000Z</time>
      </trkpt>
      <trkpt lat="42.84884" lon="0.49702">
        <ele>1790</ele>
        <time>2020-02-01T13:27:47.000Z</time>
      </trkpt>
      <trkpt lat="42.84884" lon="0.49703">
        <ele>1790</ele>
        <time>2020-02-01T13:27:48.000Z</time>
      </trkpt>
      <trkpt lat="42.84884" lon="0.49704">
        <ele>1790</ele>
        <time>2020-02-01T13:27:49.000Z</time>
      </trkpt>
      <trkpt lat="42.84884" lon="0.49705">
        <ele>1790</ele>
        <time>2020-02-01T13:27:50.000Z</time>
      </trkpt>
      <trkpt lat="42.84884" lon="0.49707">
        <ele>1790</ele>
        <time>2020-02-01T13:27:51.000Z</time>
      </trkpt>
      <trkpt lat="42.84884" lon="0.49708">
        <ele>1790</ele>
        <time>2020-02-01T13:27:52.000Z</time>
      </trkpt>
      <trkpt lat="42.84884" lon="0.49709">
        <ele>1790</ele>
        <time>2020-02-01T13:27:53.000Z</time>
      </trkpt>
      <trkpt lat="42.84884" lon="0.4971">
        <ele>1790</ele>
        <time>2020-02-01T13:27:54.000Z</time>
      </trkpt>
      <trkpt lat="42.84884" lon="0.49711">
        <ele>1790</ele>
        <time>2020-02-01T13:27:55.000Z</time>
      </trkpt>
      <trkpt lat="42.84883" lon="0.49712">
        <ele>1790</ele>
        <time>2020-02-01T13:27:56.000Z</time>
      </trkpt>
      <trkpt lat="42.84883" lon="0.49713">
        <ele>1790</ele>
        <time>2020-02-01T13:27:57.000Z</time>
      </trkpt>
      <trkpt lat="42.84883" lon="0.49714">
        <ele>1789.5</ele>
        <time>2020-02-01T13:27:58.000Z</time>
      </trkpt>
      <trkpt lat="42.84883" lon="0.49716">
        <ele>1789</ele>
        <time>2020-02-01T13:27:59.000Z</time>
      </trkpt>
      <trkpt lat="42.84882" lon="0.49717">
        <ele>1788.5</ele>
        <time>2020-02-01T13:28:00.000Z</time>
      </trkpt>
      <trkpt lat="42.84882" lon="0.49718">
        <ele>1788</ele>
        <time>2020-02-01T13:28:01.000Z</time>
      </trkpt>
      <trkpt lat="42.84882" lon="0.4972">
        <ele>1787</ele>
        <time>2020-02-01T13:28:02.000Z</time>
      </trkpt>
      <trkpt lat="42.84882" lon="0.49721">
        <ele>1786.7</ele>
        <time>2020-02-01T13:28:03.000Z</time>
      </trkpt>
      <trkpt lat="42.84881" lon="0.49723">
        <ele>1786.3</ele>
        <time>2020-02-01T13:28:04.000Z</time>
      </trkpt>
      <trkpt lat="42.84881" lon="0.49724">
        <ele>1786</ele>
        <time>2020-02-01T13:28:05.000Z</time>
      </trkpt>
      <trkpt lat="42.84881" lon="0.49726">
        <ele>1785.5</ele>
        <time>2020-02-01T13:28:06.000Z</time>
      </trkpt>
      <trkpt lat="42.84881" lon="0.49727">
        <ele>1785</ele>
        <time>2020-02-01T13:28:07.000Z</time>
      </trkpt>
      <trkpt lat="42.8488" lon="0.49728">
        <ele>1785</ele>
        <time>2020-02-01T13:28:08.000Z</time>
      </trkpt>
      <trkpt lat="42.8488" lon="0.4973">
        <ele>1785</ele>
        <time>2020-02-01T13:28:09.000Z</time>
      </trkpt>
      <trkpt lat="42.8488" lon="0.49731">
        <ele>1785</ele>
        <time>2020-02-01T13:28:10.000Z</time>
      </trkpt>
      <trkpt lat="42.8488" lon="0.49733">
        <ele>1785</ele>
        <time>2020-02-01T13:28:11.000Z</time>
      </trkpt>
      <trkpt lat="42.8488" lon="0.49734">
        <ele>1784</ele>
        <time>2020-02-01T13:28:12.000Z</time>
      </trkpt>
      <trkpt lat="42.84879" lon="0.49735">
        <ele>1784</ele>
        <time>2020-02-01T13:28:13.000Z</time>
      </trkpt>
      <trkpt lat="42.84879" lon="0.49737">
        <ele>1784</ele>
        <time>2020-02-01T13:28:14.000Z</time>
      </trkpt>
      <trkpt lat="42.84879" lon="0.49738">
        <ele>1784</ele>
        <time>2020-02-01T13:28:15.000Z</time>
      </trkpt>
      <trkpt lat="42.84879" lon="0.49739">
        <ele>1784</ele>
        <time>2020-02-01T13:28:16.000Z</time>
      </trkpt>
      <trkpt lat="42.84879" lon="0.4974">
        <ele>1784</ele>
        <time>2020-02-01T13:28:17.000Z</time>
      </trkpt>
      <trkpt lat="42.84879" lon="0.49742">
        <ele>1783.5</ele>
        <time>2020-02-01T13:28:18.000Z</time>
      </trkpt>
      <trkpt lat="42.84878" lon="0.49743">
        <ele>1783</ele>
        <time>2020-02-01T13:28:19.000Z</time>
      </trkpt>
      <trkpt lat="42.84878" lon="0.49744">
        <ele>1783</ele>
        <time>2020-02-01T13:28:20.000Z</time>
      </trkpt>
      <trkpt lat="42.84878" lon="0.49746">
        <ele>1783</ele>
        <time>2020-02-01T13:28:21.000Z</time>
      </trkpt>
      <trkpt lat="42.84878" lon="0.49747">
        <ele>1783</ele>
        <time>2020-02-01T13:28:22.000Z</time>
      </trkpt>
      <trkpt lat="42.84878" lon="0.49749">
        <ele>1783</ele>
        <time>2020-02-01T13:28:23.000Z</time>
      </trkpt>
      <trkpt lat="42.84878" lon="0.49751">
        <ele>1782</ele>
        <time>2020-02-01T13:28:24.000Z</time>
      </trkpt>
      <trkpt lat="42.84877" lon="0.49752">
        <ele>1782</ele>
        <time>2020-02-01T13:28:25.000Z</time>
      </trkpt>
      <trkpt lat="42.84877" lon="0.49754">
        <ele>1782</ele>
        <time>2020-02-01T13:28:26.000Z</time>
      </trkpt>
      <trkpt lat="42.84877" lon="0.49755">
        <ele>1782</ele>
        <time>2020-02-01T13:28:27.000Z</time>
      </trkpt>
      <trkpt lat="42.84877" lon="0.49757">
        <ele>1782</ele>
        <time>2020-02-01T13:28:28.000Z</time>
      </trkpt>
      <trkpt lat="42.84877" lon="0.49758">
        <ele>1782</ele>
        <time>2020-02-01T13:28:29.000Z</time>
      </trkpt>
      <trkpt lat="42.84877" lon="0.4976">
        <ele>1781.5</ele>
        <time>2020-02-01T13:28:30.000Z</time>
      </trkpt>
      <trkpt lat="42.84877" lon="0.49761">
        <ele>1781</ele>
        <time>2020-02-01T13:28:31.000Z</time>
      </trkpt>
      <trkpt lat="42.84877" lon="0.49763">
        <ele>1781</ele>
        <time>2020-02-01T13:28:32.000Z</time>
      </trkpt>
      <trkpt lat="42.84877" lon="0.49764">
        <ele>1781</ele>
        <time>2020-02-01T13:28:33.000Z</time>
      </trkpt>
      <trkpt lat="42.84877" lon="0.49766">
        <ele>1781</ele>
        <time>2020-02-01T13:28:34.000Z</time>
      </trkpt>
      <trkpt lat="42.84877" lon="0.49767">
        <ele>1781</ele>
        <time>2020-02-01T13:28:35.000Z</time>
      </trkpt>
      <trkpt lat="42.84877" lon="0.49769">
        <ele>1781</ele>
        <time>2020-02-01T13:28:36.000Z</time>
      </trkpt>
      <trkpt lat="42.84877" lon="0.4977">
        <ele>1781</ele>
        <time>2020-02-01T13:28:37.000Z</time>
      </trkpt>
      <trkpt lat="42.84877" lon="0.49772">
        <ele>1781</ele>
        <time>2020-02-01T13:28:38.000Z</time>
      </trkpt>
      <trkpt lat="42.84877" lon="0.49773">
        <ele>1781</ele>
        <time>2020-02-01T13:28:39.000Z</time>
      </trkpt>
      <trkpt lat="42.84877" lon="0.49775">
        <ele>1781</ele>
        <time>2020-02-01T13:28:40.000Z</time>
      </trkpt>
      <trkpt lat="42.84877" lon="0.49776">
        <ele>1780.7</ele>
        <time>2020-02-01T13:28:41.000Z</time>
      </trkpt>
      <trkpt lat="42.84877" lon="0.49778">
        <ele>1780.3</ele>
        <time>2020-02-01T13:28:42.000Z</time>
      </trkpt>
      <trkpt lat="42.84877" lon="0.49779">
        <ele>1780</ele>
        <time>2020-02-01T13:28:43.000Z</time>
      </trkpt>
      <trkpt lat="42.84877" lon="0.49781">
        <ele>1780</ele>
        <time>2020-02-01T13:28:44.000Z</time>
      </trkpt>
      <trkpt lat="42.84877" lon="0.49782">
        <ele>1780</ele>
        <time>2020-02-01T13:28:45.000Z</time>
      </trkpt>
      <trkpt lat="42.84877" lon="0.49784">
        <ele>1780</ele>
        <time>2020-02-01T13:28:46.000Z</time>
      </trkpt>
      <trkpt lat="42.84877" lon="0.49785">
        <ele>1780</ele>
        <time>2020-02-01T13:28:47.000Z</time>
      </trkpt>
      <trkpt lat="42.84877" lon="0.49786">
        <ele>1779.5</ele>
        <time>2020-02-01T13:28:48.000Z</time>
      </trkpt>
      <trkpt lat="42.84876" lon="0.49787">
        <ele>1779</ele>
        <time>2020-02-01T13:28:49.000Z</time>
      </trkpt>
      <trkpt lat="42.84876" lon="0.49789">
        <ele>1779</ele>
        <time>2020-02-01T13:28:50.000Z</time>
      </trkpt>
      <trkpt lat="42.84876" lon="0.4979">
        <ele>1779</ele>
        <time>2020-02-01T13:28:51.000Z</time>
      </trkpt>
      <trkpt lat="42.84875" lon="0.49791">
        <ele>1779</ele>
        <time>2020-02-01T13:28:52.000Z</time>
      </trkpt>
      <trkpt lat="42.84875" lon="0.49792">
        <ele>1778.7</ele>
        <time>2020-02-01T13:28:53.000Z</time>
      </trkpt>
      <trkpt lat="42.84875" lon="0.49794">
        <ele>1778.3</ele>
        <time>2020-02-01T13:28:54.000Z</time>
      </trkpt>
      <trkpt lat="42.84875" lon="0.49795">
        <ele>1778</ele>
        <time>2020-02-01T13:28:55.000Z</time>
      </trkpt>
      <trkpt lat="42.84875" lon="0.49797">
        <ele>1778</ele>
        <time>2020-02-01T13:28:56.000Z</time>
      </trkpt>
      <trkpt lat="42.84875" lon="0.49798">
        <ele>1778</ele>
        <time>2020-02-01T13:28:57.000Z</time>
      </trkpt>
      <trkpt lat="42.84875" lon="0.498">
        <ele>1778</ele>
        <time>2020-02-01T13:28:58.000Z</time>
      </trkpt>
      <trkpt lat="42.84874" lon="0.49801">
        <ele>1778</ele>
        <time>2020-02-01T13:28:59.000Z</time>
      </trkpt>
      <trkpt lat="42.84874" lon="0.49803">
        <ele>1778</ele>
        <time>2020-02-01T13:29:00.000Z</time>
      </trkpt>
      <trkpt lat="42.84874" lon="0.49804">
        <ele>1778</ele>
        <time>2020-02-01T13:29:01.000Z</time>
      </trkpt>
      <trkpt lat="42.84874" lon="0.49806">
        <ele>1777</ele>
        <time>2020-02-01T13:29:02.000Z</time>
      </trkpt>
      <trkpt lat="42.84875" lon="0.49807">
        <ele>1777</ele>
        <time>2020-02-01T13:29:03.000Z</time>
      </trkpt>
      <trkpt lat="42.84875" lon="0.49809">
        <ele>1777</ele>
        <time>2020-02-01T13:29:04.000Z</time>
      </trkpt>
      <trkpt lat="42.84875" lon="0.4981">
        <ele>1777</ele>
        <time>2020-02-01T13:29:05.000Z</time>
      </trkpt>
      <trkpt lat="42.84875" lon="0.49812">
        <ele>1776</ele>
        <time>2020-02-01T13:29:06.000Z</time>
      </trkpt>
      <trkpt lat="42.84875" lon="0.49813">
        <ele>1776</ele>
        <time>2020-02-01T13:29:07.000Z</time>
      </trkpt>
      <trkpt lat="42.84875" lon="0.49814">
        <ele>1776</ele>
        <time>2020-02-01T13:29:08.000Z</time>
      </trkpt>
      <trkpt lat="42.84875" lon="0.49816">
        <ele>1776</ele>
        <time>2020-02-01T13:29:09.000Z</time>
      </trkpt>
      <trkpt lat="42.84875" lon="0.49817">
        <ele>1775.5</ele>
        <time>2020-02-01T13:29:10.000Z</time>
      </trkpt>
      <trkpt lat="42.84875" lon="0.49818">
        <ele>1775</ele>
        <time>2020-02-01T13:29:11.000Z</time>
      </trkpt>
      <trkpt lat="42.84875" lon="0.49819">
        <ele>1775</ele>
        <time>2020-02-01T13:29:12.000Z</time>
      </trkpt>
      <trkpt lat="42.84875" lon="0.4982">
        <ele>1775</ele>
        <time>2020-02-01T13:29:13.000Z</time>
      </trkpt>
      <trkpt lat="42.84875" lon="0.49821">
        <ele>1775</ele>
        <time>2020-02-01T13:29:14.000Z</time>
      </trkpt>
      <trkpt lat="42.84875" lon="0.49822">
        <ele>1775</ele>
        <time>2020-02-01T13:29:15.000Z</time>
      </trkpt>
      <trkpt lat="42.84875" lon="0.49822">
        <ele>1774.5</ele>
        <time>2020-02-01T13:29:16.000Z</time>
      </trkpt>
      <trkpt lat="42.84875" lon="0.49824">
        <ele>1774</ele>
        <time>2020-02-01T13:29:17.000Z</time>
      </trkpt>
      <trkpt lat="42.84876" lon="0.49825">
        <ele>1774</ele>
        <time>2020-02-01T13:29:18.000Z</time>
      </trkpt>
      <trkpt lat="42.84876" lon="0.49827">
        <ele>1774</ele>
        <time>2020-02-01T13:29:19.000Z</time>
      </trkpt>
      <trkpt lat="42.84876" lon="0.49828">
        <ele>1774</ele>
        <time>2020-02-01T13:29:20.000Z</time>
      </trkpt>
      <trkpt lat="42.84876" lon="0.49829">
        <ele>1774</ele>
        <time>2020-02-01T13:29:21.000Z</time>
      </trkpt>
      <trkpt lat="42.84876" lon="0.4983">
        <ele>1774</ele>
        <time>2020-02-01T13:29:22.000Z</time>
      </trkpt>
      <trkpt lat="42.84876" lon="0.49831">
        <ele>1774</ele>
        <time>2020-02-01T13:29:23.000Z</time>
      </trkpt>
      <trkpt lat="42.84875" lon="0.49833">
        <ele>1773.5</ele>
        <time>2020-02-01T13:29:24.000Z</time>
      </trkpt>
      <trkpt lat="42.84875" lon="0.49834">
        <ele>1773</ele>
        <time>2020-02-01T13:29:25.000Z</time>
      </trkpt>
      <trkpt lat="42.84875" lon="0.49835">
        <ele>1773</ele>
        <time>2020-02-01T13:29:26.000Z</time>
      </trkpt>
      <trkpt lat="42.84875" lon="0.49836">
        <ele>1773</ele>
        <time>2020-02-01T13:29:27.000Z</time>
      </trkpt>
      <trkpt lat="42.84875" lon="0.49837">
        <ele>1773</ele>
        <time>2020-02-01T13:29:28.000Z</time>
      </trkpt>
      <trkpt lat="42.84875" lon="0.49838">
        <ele>1773</ele>
        <time>2020-02-01T13:29:29.000Z</time>
      </trkpt>
      <trkpt lat="42.84874" lon="0.49839">
        <ele>1772.5</ele>
        <time>2020-02-01T13:29:30.000Z</time>
      </trkpt>
      <trkpt lat="42.84874" lon="0.4984">
        <ele>1772</ele>
        <time>2020-02-01T13:29:31.000Z</time>
      </trkpt>
      <trkpt lat="42.84874" lon="0.4984">
        <ele>1772</ele>
        <time>2020-02-01T13:29:32.000Z</time>
      </trkpt>
      <trkpt lat="42.84874" lon="0.49841">
        <ele>1772</ele>
        <time>2020-02-01T13:29:33.000Z</time>
      </trkpt>
      <trkpt lat="42.84874" lon="0.49842">
        <ele>1771</ele>
        <time>2020-02-01T13:29:34.000Z</time>
      </trkpt>
      <trkpt lat="42.84874" lon="0.49843">
        <ele>1771</ele>
        <time>2020-02-01T13:29:35.000Z</time>
      </trkpt>
      <trkpt lat="42.84875" lon="0.49844">
        <ele>1771</ele>
        <time>2020-02-01T13:29:36.000Z</time>
      </trkpt>
      <trkpt lat="42.84875" lon="0.49845">
        <ele>1771</ele>
        <time>2020-02-01T13:29:37.000Z</time>
      </trkpt>
      <trkpt lat="42.84876" lon="0.49845">
        <ele>1770.5</ele>
        <time>2020-02-01T13:29:38.000Z</time>
      </trkpt>
      <trkpt lat="42.84876" lon="0.49846">
        <ele>1770</ele>
        <time>2020-02-01T13:29:39.000Z</time>
      </trkpt>
      <trkpt lat="42.84877" lon="0.49847">
        <ele>1770</ele>
        <time>2020-02-01T13:29:40.000Z</time>
      </trkpt>
      <trkpt lat="42.84877" lon="0.49848">
        <ele>1770</ele>
        <time>2020-02-01T13:29:41.000Z</time>
      </trkpt>
      <trkpt lat="42.84877" lon="0.49849">
        <ele>1770</ele>
        <time>2020-02-01T13:29:42.000Z</time>
      </trkpt>
      <trkpt lat="42.84878" lon="0.4985">
        <ele>1769.7</ele>
        <time>2020-02-01T13:29:43.000Z</time>
      </trkpt>
      <trkpt lat="42.84878" lon="0.49851">
        <ele>1769.3</ele>
        <time>2020-02-01T13:29:44.000Z</time>
      </trkpt>
      <trkpt lat="42.84878" lon="0.49852">
        <ele>1769</ele>
        <time>2020-02-01T13:29:45.000Z</time>
      </trkpt>
      <trkpt lat="42.84878" lon="0.49853">
        <ele>1769</ele>
        <time>2020-02-01T13:29:46.000Z</time>
      </trkpt>
      <trkpt lat="42.84878" lon="0.49854">
        <ele>1769</ele>
        <time>2020-02-01T13:29:47.000Z</time>
      </trkpt>
      <trkpt lat="42.84879" lon="0.49855">
        <ele>1768.5</ele>
        <time>2020-02-01T13:29:48.000Z</time>
      </trkpt>
      <trkpt lat="42.84879" lon="0.49857">
        <ele>1768</ele>
        <time>2020-02-01T13:29:49.000Z</time>
      </trkpt>
      <trkpt lat="42.84879" lon="0.49858">
        <ele>1767</ele>
        <time>2020-02-01T13:29:50.000Z</time>
      </trkpt>
      <trkpt lat="42.8488" lon="0.49859">
        <ele>1767</ele>
        <time>2020-02-01T13:29:51.000Z</time>
      </trkpt>
      <trkpt lat="42.8488" lon="0.49861">
        <ele>1767</ele>
        <time>2020-02-01T13:29:52.000Z</time>
      </trkpt>
      <trkpt lat="42.8488" lon="0.49862">
        <ele>1767</ele>
        <time>2020-02-01T13:29:53.000Z</time>
      </trkpt>
      <trkpt lat="42.84881" lon="0.49864">
        <ele>1767</ele>
        <time>2020-02-01T13:29:54.000Z</time>
      </trkpt>
      <trkpt lat="42.84881" lon="0.49865">
        <ele>1767</ele>
        <time>2020-02-01T13:29:55.000Z</time>
      </trkpt>
      <trkpt lat="42.84881" lon="0.49866">
        <ele>1766.5</ele>
        <time>2020-02-01T13:29:56.000Z</time>
      </trkpt>
      <trkpt lat="42.84882" lon="0.49867">
        <ele>1766</ele>
        <time>2020-02-01T13:29:57.000Z</time>
      </trkpt>
      <trkpt lat="42.84882" lon="0.49868">
        <ele>1765</ele>
        <time>2020-02-01T13:29:58.000Z</time>
      </trkpt>
      <trkpt lat="42.84882" lon="0.49869">
        <ele>1765</ele>
        <time>2020-02-01T13:29:59.000Z</time>
      </trkpt>
      <trkpt lat="42.84881" lon="0.49871">
        <ele>1765</ele>
        <time>2020-02-01T13:30:00.000Z</time>
      </trkpt>
      <trkpt lat="42.84881" lon="0.49873">
        <ele>1765</ele>
        <time>2020-02-01T13:30:01.000Z</time>
      </trkpt>
      <trkpt lat="42.8488" lon="0.49874">
        <ele>1765</ele>
        <time>2020-02-01T13:30:02.000Z</time>
      </trkpt>
      <trkpt lat="42.8488" lon="0.49875">
        <ele>1764.7</ele>
        <time>2020-02-01T13:30:03.000Z</time>
      </trkpt>
      <trkpt lat="42.8488" lon="0.49876">
        <ele>1764.3</ele>
        <time>2020-02-01T13:30:04.000Z</time>
      </trkpt>
      <trkpt lat="42.84879" lon="0.49877">
        <ele>1764</ele>
        <time>2020-02-01T13:30:05.000Z</time>
      </trkpt>
      <trkpt lat="42.84879" lon="0.49878">
        <ele>1764</ele>
        <time>2020-02-01T13:30:06.000Z</time>
      </trkpt>
      <trkpt lat="42.84879" lon="0.49878">
        <ele>1763.7</ele>
        <time>2020-02-01T13:30:07.000Z</time>
      </trkpt>
      <trkpt lat="42.84879" lon="0.49879">
        <ele>1763.3</ele>
        <time>2020-02-01T13:30:08.000Z</time>
      </trkpt>
      <trkpt lat="42.84878" lon="0.4988">
        <ele>1763</ele>
        <time>2020-02-01T13:30:09.000Z</time>
      </trkpt>
      <trkpt lat="42.84878" lon="0.49881">
        <ele>1763</ele>
        <time>2020-02-01T13:30:10.000Z</time>
      </trkpt>
      <trkpt lat="42.84878" lon="0.49882">
        <ele>1763</ele>
        <time>2020-02-01T13:30:11.000Z</time>
      </trkpt>
      <trkpt lat="42.84878" lon="0.49883">
        <ele>1763</ele>
        <time>2020-02-01T13:30:12.000Z</time>
      </trkpt>
      <trkpt lat="42.84878" lon="0.49884">
        <ele>1763</ele>
        <time>2020-02-01T13:30:13.000Z</time>
      </trkpt>
      <trkpt lat="42.84877" lon="0.49885">
        <ele>1762</ele>
        <time>2020-02-01T13:30:14.000Z</time>
      </trkpt>
      <trkpt lat="42.84877" lon="0.49886">
        <ele>1762</ele>
        <time>2020-02-01T13:30:15.000Z</time>
      </trkpt>
      <trkpt lat="42.84877" lon="0.49887">
        <ele>1762</ele>
        <time>2020-02-01T13:30:16.000Z</time>
      </trkpt>
      <trkpt lat="42.84877" lon="0.49888">
        <ele>1762</ele>
        <time>2020-02-01T13:30:17.000Z</time>
      </trkpt>
      <trkpt lat="42.84876" lon="0.49889">
        <ele>1761</ele>
        <time>2020-02-01T13:30:18.000Z</time>
      </trkpt>
      <trkpt lat="42.84876" lon="0.4989">
        <ele>1761</ele>
        <time>2020-02-01T13:30:19.000Z</time>
      </trkpt>
      <trkpt lat="42.84876" lon="0.49892">
        <ele>1761</ele>
        <time>2020-02-01T13:30:20.000Z</time>
      </trkpt>
      <trkpt lat="42.84875" lon="0.49893">
        <ele>1761</ele>
        <time>2020-02-01T13:30:21.000Z</time>
      </trkpt>
      <trkpt lat="42.84875" lon="0.49894">
        <ele>1760</ele>
        <time>2020-02-01T13:30:22.000Z</time>
      </trkpt>
      <trkpt lat="42.84875" lon="0.49895">
        <ele>1759.7</ele>
        <time>2020-02-01T13:30:23.000Z</time>
      </trkpt>
      <trkpt lat="42.84875" lon="0.49896">
        <ele>1759.3</ele>
        <time>2020-02-01T13:30:24.000Z</time>
      </trkpt>
      <trkpt lat="42.84875" lon="0.49897">
        <ele>1759</ele>
        <time>2020-02-01T13:30:25.000Z</time>
      </trkpt>
      <trkpt lat="42.84875" lon="0.49898">
        <ele>1759</ele>
        <time>2020-02-01T13:30:26.000Z</time>
      </trkpt>
      <trkpt lat="42.84876" lon="0.49899">
        <ele>1758.7</ele>
        <time>2020-02-01T13:30:27.000Z</time>
      </trkpt>
      <trkpt lat="42.84876" lon="0.499">
        <ele>1758.3</ele>
        <time>2020-02-01T13:30:28.000Z</time>
      </trkpt>
      <trkpt lat="42.84876" lon="0.49902">
        <ele>1758</ele>
        <time>2020-02-01T13:30:29.000Z</time>
      </trkpt>
      <trkpt lat="42.84877" lon="0.49903">
        <ele>1758</ele>
        <time>2020-02-01T13:30:30.000Z</time>
      </trkpt>
      <trkpt lat="42.84877" lon="0.49904">
        <ele>1757.5</ele>
        <time>2020-02-01T13:30:31.000Z</time>
      </trkpt>
      <trkpt lat="42.84877" lon="0.49905">
        <ele>1757</ele>
        <time>2020-02-01T13:30:32.000Z</time>
      </trkpt>
      <trkpt lat="42.84877" lon="0.49907">
        <ele>1756.7</ele>
        <time>2020-02-01T13:30:33.000Z</time>
      </trkpt>
      <trkpt lat="42.84877" lon="0.49908">
        <ele>1756.3</ele>
        <time>2020-02-01T13:30:34.000Z</time>
      </trkpt>
      <trkpt lat="42.84877" lon="0.49909">
        <ele>1756</ele>
        <time>2020-02-01T13:30:35.000Z</time>
      </trkpt>
      <trkpt lat="42.84877" lon="0.4991">
        <ele>1756</ele>
        <time>2020-02-01T13:30:36.000Z</time>
      </trkpt>
      <trkpt lat="42.84877" lon="0.49911">
        <ele>1755.7</ele>
        <time>2020-02-01T13:30:37.000Z</time>
      </trkpt>
      <trkpt lat="42.84876" lon="0.49912">
        <ele>1755.3</ele>
        <time>2020-02-01T13:30:38.000Z</time>
      </trkpt>
      <trkpt lat="42.84876" lon="0.49913">
        <ele>1755</ele>
        <time>2020-02-01T13:30:39.000Z</time>
      </trkpt>
      <trkpt lat="42.84876" lon="0.49915">
        <ele>1755</ele>
        <time>2020-02-01T13:30:40.000Z</time>
      </trkpt>
      <trkpt lat="42.84876" lon="0.49916">
        <ele>1754.5</ele>
        <time>2020-02-01T13:30:41.000Z</time>
      </trkpt>
      <trkpt lat="42.84876" lon="0.49917">
        <ele>1754</ele>
        <time>2020-02-01T13:30:42.000Z</time>
      </trkpt>
      <trkpt lat="42.84876" lon="0.49919">
        <ele>1754</ele>
        <time>2020-02-01T13:30:43.000Z</time>
      </trkpt>
      <trkpt lat="42.84877" lon="0.4992">
        <ele>1754</ele>
        <time>2020-02-01T13:30:44.000Z</time>
      </trkpt>
      <trkpt lat="42.84877" lon="0.49921">
        <ele>1754</ele>
        <time>2020-02-01T13:30:45.000Z</time>
      </trkpt>
      <trkpt lat="42.84877" lon="0.49922">
        <ele>1753</ele>
        <time>2020-02-01T13:30:46.000Z</time>
      </trkpt>
      <trkpt lat="42.84877" lon="0.49923">
        <ele>1752.7</ele>
        <time>2020-02-01T13:30:47.000Z</time>
      </trkpt>
      <trkpt lat="42.84878" lon="0.49924">
        <ele>1752.3</ele>
        <time>2020-02-01T13:30:48.000Z</time>
      </trkpt>
      <trkpt lat="42.84878" lon="0.49925">
        <ele>1752</ele>
        <time>2020-02-01T13:30:49.000Z</time>
      </trkpt>
      <trkpt lat="42.84878" lon="0.49926">
        <ele>1752</ele>
        <time>2020-02-01T13:30:50.000Z</time>
      </trkpt>
      <trkpt lat="42.84878" lon="0.49927">
        <ele>1752</ele>
        <time>2020-02-01T13:30:51.000Z</time>
      </trkpt>
      <trkpt lat="42.84878" lon="0.49928">
        <ele>1751</ele>
        <time>2020-02-01T13:30:52.000Z</time>
      </trkpt>
      <trkpt lat="42.84878" lon="0.49929">
        <ele>1750.7</ele>
        <time>2020-02-01T13:30:53.000Z</time>
      </trkpt>
      <trkpt lat="42.84878" lon="0.49931">
        <ele>1750.3</ele>
        <time>2020-02-01T13:30:54.000Z</time>
      </trkpt>
      <trkpt lat="42.84878" lon="0.49932">
        <ele>1750</ele>
        <time>2020-02-01T13:30:55.000Z</time>
      </trkpt>
      <trkpt lat="42.84878" lon="0.49933">
        <ele>1750</ele>
        <time>2020-02-01T13:30:56.000Z</time>
      </trkpt>
      <trkpt lat="42.84878" lon="0.49934">
        <ele>1749.5</ele>
        <time>2020-02-01T13:30:57.000Z</time>
      </trkpt>
      <trkpt lat="42.84878" lon="0.49935">
        <ele>1749</ele>
        <time>2020-02-01T13:30:58.000Z</time>
      </trkpt>
      <trkpt lat="42.84877" lon="0.49936">
        <ele>1748.7</ele>
        <time>2020-02-01T13:30:59.000Z</time>
      </trkpt>
      <trkpt lat="42.84877" lon="0.49937">
        <ele>1748.3</ele>
        <time>2020-02-01T13:31:00.000Z</time>
      </trkpt>
      <trkpt lat="42.84877" lon="0.49938">
        <ele>1748</ele>
        <time>2020-02-01T13:31:01.000Z</time>
      </trkpt>
      <trkpt lat="42.84877" lon="0.49939">
        <ele>1748</ele>
        <time>2020-02-01T13:31:02.000Z</time>
      </trkpt>
      <trkpt lat="42.84877" lon="0.49939">
        <ele>1748</ele>
        <time>2020-02-01T13:31:03.000Z</time>
      </trkpt>
      <trkpt lat="42.84877" lon="0.4994">
        <ele>1747</ele>
        <time>2020-02-01T13:31:04.000Z</time>
      </trkpt>
      <trkpt lat="42.84877" lon="0.49941">
        <ele>1746.7</ele>
        <time>2020-02-01T13:31:05.000Z</time>
      </trkpt>
      <trkpt lat="42.84878" lon="0.49942">
        <ele>1746.3</ele>
        <time>2020-02-01T13:31:06.000Z</time>
      </trkpt>
      <trkpt lat="42.84878" lon="0.49943">
        <ele>1746</ele>
        <time>2020-02-01T13:31:07.000Z</time>
      </trkpt>
      <trkpt lat="42.84878" lon="0.49944">
        <ele>1745.5</ele>
        <time>2020-02-01T13:31:08.000Z</time>
      </trkpt>
      <trkpt lat="42.84878" lon="0.49945">
        <ele>1745</ele>
        <time>2020-02-01T13:31:09.000Z</time>
      </trkpt>
      <trkpt lat="42.84878" lon="0.49946">
        <ele>1745</ele>
        <time>2020-02-01T13:31:10.000Z</time>
      </trkpt>
      <trkpt lat="42.84878" lon="0.49947">
        <ele>1745</ele>
        <time>2020-02-01T13:31:11.000Z</time>
      </trkpt>
      <trkpt lat="42.84879" lon="0.49949">
        <ele>1744</ele>
        <time>2020-02-01T13:31:12.000Z</time>
      </trkpt>
      <trkpt lat="42.84879" lon="0.4995">
        <ele>1743.7</ele>
        <time>2020-02-01T13:31:13.000Z</time>
      </trkpt>
      <trkpt lat="42.84879" lon="0.49952">
        <ele>1743.3</ele>
        <time>2020-02-01T13:31:14.000Z</time>
      </trkpt>
      <trkpt lat="42.8488" lon="0.49953">
        <ele>1743</ele>
        <time>2020-02-01T13:31:15.000Z</time>
      </trkpt>
      <trkpt lat="42.8488" lon="0.49954">
        <ele>1743</ele>
        <time>2020-02-01T13:31:16.000Z</time>
      </trkpt>
      <trkpt lat="42.84881" lon="0.49955">
        <ele>1743</ele>
        <time>2020-02-01T13:31:17.000Z</time>
      </trkpt>
      <trkpt lat="42.84881" lon="0.49956">
        <ele>1742</ele>
        <time>2020-02-01T13:31:18.000Z</time>
      </trkpt>
      <trkpt lat="42.84881" lon="0.49957">
        <ele>1742</ele>
        <time>2020-02-01T13:31:19.000Z</time>
      </trkpt>
      <trkpt lat="42.84882" lon="0.49958">
        <ele>1742</ele>
        <time>2020-02-01T13:31:20.000Z</time>
      </trkpt>
      <trkpt lat="42.84882" lon="0.49959">
        <ele>1742</ele>
        <time>2020-02-01T13:31:21.000Z</time>
      </trkpt>
      <trkpt lat="42.84882" lon="0.4996">
        <ele>1741.5</ele>
        <time>2020-02-01T13:31:22.000Z</time>
      </trkpt>
      <trkpt lat="42.84882" lon="0.49961">
        <ele>1741</ele>
        <time>2020-02-01T13:31:23.000Z</time>
      </trkpt>
      <trkpt lat="42.84883" lon="0.49962">
        <ele>1740.5</ele>
        <time>2020-02-01T13:31:24.000Z</time>
      </trkpt>
      <trkpt lat="42.84883" lon="0.49964">
        <ele>1740</ele>
        <time>2020-02-01T13:31:25.000Z</time>
      </trkpt>
      <trkpt lat="42.84883" lon="0.49965">
        <ele>1740</ele>
        <time>2020-02-01T13:31:26.000Z</time>
      </trkpt>
      <trkpt lat="42.84883" lon="0.49966">
        <ele>1739.7</ele>
        <time>2020-02-01T13:31:27.000Z</time>
      </trkpt>
      <trkpt lat="42.84883" lon="0.49968">
        <ele>1739.3</ele>
        <time>2020-02-01T13:31:28.000Z</time>
      </trkpt>
      <trkpt lat="42.84884" lon="0.49969">
        <ele>1739</ele>
        <time>2020-02-01T13:31:29.000Z</time>
      </trkpt>
      <trkpt lat="42.84884" lon="0.4997">
        <ele>1739</ele>
        <time>2020-02-01T13:31:30.000Z</time>
      </trkpt>
      <trkpt lat="42.84884" lon="0.49972">
        <ele>1738.7</ele>
        <time>2020-02-01T13:31:31.000Z</time>
      </trkpt>
      <trkpt lat="42.84885" lon="0.49973">
        <ele>1738.3</ele>
        <time>2020-02-01T13:31:32.000Z</time>
      </trkpt>
      <trkpt lat="42.84885" lon="0.49974">
        <ele>1738</ele>
        <time>2020-02-01T13:31:33.000Z</time>
      </trkpt>
      <trkpt lat="42.84885" lon="0.49975">
        <ele>1737.5</ele>
        <time>2020-02-01T13:31:34.000Z</time>
      </trkpt>
      <trkpt lat="42.84885" lon="0.49976">
        <ele>1737</ele>
        <time>2020-02-01T13:31:35.000Z</time>
      </trkpt>
      <trkpt lat="42.84885" lon="0.49977">
        <ele>1737</ele>
        <time>2020-02-01T13:31:36.000Z</time>
      </trkpt>
      <trkpt lat="42.84886" lon="0.49978">
        <ele>1737</ele>
        <time>2020-02-01T13:31:37.000Z</time>
      </trkpt>
      <trkpt lat="42.84886" lon="0.49979">
        <ele>1737</ele>
        <time>2020-02-01T13:31:38.000Z</time>
      </trkpt>
      <trkpt lat="42.84886" lon="0.4998">
        <ele>1737</ele>
        <time>2020-02-01T13:31:39.000Z</time>
      </trkpt>
      <trkpt lat="42.84886" lon="0.49981">
        <ele>1736</ele>
        <time>2020-02-01T13:31:40.000Z</time>
      </trkpt>
      <trkpt lat="42.84887" lon="0.49982">
        <ele>1735.7</ele>
        <time>2020-02-01T13:31:41.000Z</time>
      </trkpt>
      <trkpt lat="42.84887" lon="0.49983">
        <ele>1735.3</ele>
        <time>2020-02-01T13:31:42.000Z</time>
      </trkpt>
      <trkpt lat="42.84888" lon="0.49985">
        <ele>1735</ele>
        <time>2020-02-01T13:31:43.000Z</time>
      </trkpt>
      <trkpt lat="42.84888" lon="0.49986">
        <ele>1734.5</ele>
        <time>2020-02-01T13:31:44.000Z</time>
      </trkpt>
      <trkpt lat="42.84888" lon="0.49987">
        <ele>1734</ele>
        <time>2020-02-01T13:31:45.000Z</time>
      </trkpt>
      <trkpt lat="42.84888" lon="0.49989">
        <ele>1734</ele>
        <time>2020-02-01T13:31:46.000Z</time>
      </trkpt>
      <trkpt lat="42.84888" lon="0.4999">
        <ele>1734</ele>
        <time>2020-02-01T13:31:47.000Z</time>
      </trkpt>
      <trkpt lat="42.84889" lon="0.49991">
        <ele>1733</ele>
        <time>2020-02-01T13:31:48.000Z</time>
      </trkpt>
      <trkpt lat="42.84889" lon="0.49993">
        <ele>1732.7</ele>
        <time>2020-02-01T13:31:49.000Z</time>
      </trkpt>
      <trkpt lat="42.84889" lon="0.49994">
        <ele>1732.3</ele>
        <time>2020-02-01T13:31:50.000Z</time>
      </trkpt>
      <trkpt lat="42.84889" lon="0.49995">
        <ele>1732</ele>
        <time>2020-02-01T13:31:51.000Z</time>
      </trkpt>
      <trkpt lat="42.84889" lon="0.49997">
        <ele>1732</ele>
        <time>2020-02-01T13:31:52.000Z</time>
      </trkpt>
      <trkpt lat="42.84889" lon="0.49998">
        <ele>1732</ele>
        <time>2020-02-01T13:31:53.000Z</time>
      </trkpt>
      <trkpt lat="42.8489" lon="0.49999">
        <ele>1731</ele>
        <time>2020-02-01T13:31:54.000Z</time>
      </trkpt>
      <trkpt lat="42.8489" lon="0.50001">
        <ele>1731</ele>
        <time>2020-02-01T13:31:55.000Z</time>
      </trkpt>
      <trkpt lat="42.8489" lon="0.50002">
        <ele>1731</ele>
        <time>2020-02-01T13:31:56.000Z</time>
      </trkpt>
      <trkpt lat="42.8489" lon="0.50003">
        <ele>1731</ele>
        <time>2020-02-01T13:31:57.000Z</time>
      </trkpt>
      <trkpt lat="42.8489" lon="0.50005">
        <ele>1730.5</ele>
        <time>2020-02-01T13:31:58.000Z</time>
      </trkpt>
      <trkpt lat="42.8489" lon="0.50006">
        <ele>1730</ele>
        <time>2020-02-01T13:31:59.000Z</time>
      </trkpt>
      <trkpt lat="42.8489" lon="0.50007">
        <ele>1730</ele>
        <time>2020-02-01T13:32:00.000Z</time>
      </trkpt>
      <trkpt lat="42.84891" lon="0.50009">
        <ele>1729.7</ele>
        <time>2020-02-01T13:32:01.000Z</time>
      </trkpt>
      <trkpt lat="42.84891" lon="0.5001">
        <ele>1729.3</ele>
        <time>2020-02-01T13:32:02.000Z</time>
      </trkpt>
      <trkpt lat="42.84891" lon="0.50011">
        <ele>1729</ele>
        <time>2020-02-01T13:32:03.000Z</time>
      </trkpt>
      <trkpt lat="42.84892" lon="0.50012">
        <ele>1729</ele>
        <time>2020-02-01T13:32:04.000Z</time>
      </trkpt>
      <trkpt lat="42.84892" lon="0.50014">
        <ele>1729</ele>
        <time>2020-02-01T13:32:05.000Z</time>
      </trkpt>
      <trkpt lat="42.84892" lon="0.50015">
        <ele>1728</ele>
        <time>2020-02-01T13:32:06.000Z</time>
      </trkpt>
      <trkpt lat="42.84892" lon="0.50016">
        <ele>1728</ele>
        <time>2020-02-01T13:32:07.000Z</time>
      </trkpt>
      <trkpt lat="42.84892" lon="0.50017">
        <ele>1728</ele>
        <time>2020-02-01T13:32:08.000Z</time>
      </trkpt>
      <trkpt lat="42.84892" lon="0.50018">
        <ele>1728</ele>
        <time>2020-02-01T13:32:09.000Z</time>
      </trkpt>
      <trkpt lat="42.84892" lon="0.50019">
        <ele>1727.5</ele>
        <time>2020-02-01T13:32:10.000Z</time>
      </trkpt>
      <trkpt lat="42.84891" lon="0.50019">
        <ele>1727</ele>
        <time>2020-02-01T13:32:11.000Z</time>
      </trkpt>
      <trkpt lat="42.84891" lon="0.5002">
        <ele>1726.5</ele>
        <time>2020-02-01T13:32:12.000Z</time>
      </trkpt>
      <trkpt lat="42.84891" lon="0.50021">
        <ele>1726</ele>
        <time>2020-02-01T13:32:13.000Z</time>
      </trkpt>
      <trkpt lat="42.84891" lon="0.50022">
        <ele>1726</ele>
        <time>2020-02-01T13:32:14.000Z</time>
      </trkpt>
      <trkpt lat="42.84892" lon="0.50022">
        <ele>1725.7</ele>
        <time>2020-02-01T13:32:15.000Z</time>
      </trkpt>
      <trkpt lat="42.84892" lon="0.50023">
        <ele>1725.3</ele>
        <time>2020-02-01T13:32:16.000Z</time>
      </trkpt>
      <trkpt lat="42.84892" lon="0.50024">
        <ele>1725</ele>
        <time>2020-02-01T13:32:17.000Z</time>
      </trkpt>
      <trkpt lat="42.84892" lon="0.50025">
        <ele>1725</ele>
        <time>2020-02-01T13:32:18.000Z</time>
      </trkpt>
      <trkpt lat="42.84892" lon="0.50026">
        <ele>1725</ele>
        <time>2020-02-01T13:32:19.000Z</time>
      </trkpt>
      <trkpt lat="42.84892" lon="0.50027">
        <ele>1724</ele>
        <time>2020-02-01T13:32:20.000Z</time>
      </trkpt>
      <trkpt lat="42.84892" lon="0.50028">
        <ele>1724</ele>
        <time>2020-02-01T13:32:21.000Z</time>
      </trkpt>
      <trkpt lat="42.84893" lon="0.50029">
        <ele>1724</ele>
        <time>2020-02-01T13:32:22.000Z</time>
      </trkpt>
      <trkpt lat="42.84893" lon="0.5003">
        <ele>1724</ele>
        <time>2020-02-01T13:32:23.000Z</time>
      </trkpt>
      <trkpt lat="42.84893" lon="0.50031">
        <ele>1724</ele>
        <time>2020-02-01T13:32:24.000Z</time>
      </trkpt>
      <trkpt lat="42.84893" lon="0.50032">
        <ele>1724</ele>
        <time>2020-02-01T13:32:25.000Z</time>
      </trkpt>
      <trkpt lat="42.84893" lon="0.50033">
        <ele>1723.5</ele>
        <time>2020-02-01T13:32:26.000Z</time>
      </trkpt>
      <trkpt lat="42.84894" lon="0.50034">
        <ele>1723</ele>
        <time>2020-02-01T13:32:27.000Z</time>
      </trkpt>
      <trkpt lat="42.84894" lon="0.50035">
        <ele>1723</ele>
        <time>2020-02-01T13:32:28.000Z</time>
      </trkpt>
      <trkpt lat="42.84894" lon="0.50036">
        <ele>1722.5</ele>
        <time>2020-02-01T13:32:29.000Z</time>
      </trkpt>
      <trkpt lat="42.84894" lon="0.50037">
        <ele>1722</ele>
        <time>2020-02-01T13:32:30.000Z</time>
      </trkpt>
      <trkpt lat="42.84895" lon="0.50039">
        <ele>1722</ele>
        <time>2020-02-01T13:32:31.000Z</time>
      </trkpt>
      <trkpt lat="42.84895" lon="0.5004">
        <ele>1722</ele>
        <time>2020-02-01T13:32:32.000Z</time>
      </trkpt>
      <trkpt lat="42.84895" lon="0.50041">
        <ele>1722</ele>
        <time>2020-02-01T13:32:33.000Z</time>
      </trkpt>
      <trkpt lat="42.84895" lon="0.50042">
        <ele>1721.5</ele>
        <time>2020-02-01T13:32:34.000Z</time>
      </trkpt>
      <trkpt lat="42.84895" lon="0.50043">
        <ele>1721</ele>
        <time>2020-02-01T13:32:35.000Z</time>
      </trkpt>
      <trkpt lat="42.84895" lon="0.50045">
        <ele>1720.5</ele>
        <time>2020-02-01T13:32:36.000Z</time>
      </trkpt>
      <trkpt lat="42.84895" lon="0.50046">
        <ele>1720</ele>
        <time>2020-02-01T13:32:37.000Z</time>
      </trkpt>
      <trkpt lat="42.84895" lon="0.50047">
        <ele>1720</ele>
        <time>2020-02-01T13:32:38.000Z</time>
      </trkpt>
      <trkpt lat="42.84895" lon="0.50048">
        <ele>1719.7</ele>
        <time>2020-02-01T13:32:39.000Z</time>
      </trkpt>
      <trkpt lat="42.84894" lon="0.50049">
        <ele>1719.3</ele>
        <time>2020-02-01T13:32:40.000Z</time>
      </trkpt>
      <trkpt lat="42.84894" lon="0.5005">
        <ele>1719</ele>
        <time>2020-02-01T13:32:41.000Z</time>
      </trkpt>
      <trkpt lat="42.84894" lon="0.50052">
        <ele>1719</ele>
        <time>2020-02-01T13:32:42.000Z</time>
      </trkpt>
      <trkpt lat="42.84894" lon="0.50053">
        <ele>1719</ele>
        <time>2020-02-01T13:32:43.000Z</time>
      </trkpt>
      <trkpt lat="42.84894" lon="0.50054">
        <ele>1718.5</ele>
        <time>2020-02-01T13:32:44.000Z</time>
      </trkpt>
      <trkpt lat="42.84893" lon="0.50055">
        <ele>1718</ele>
        <time>2020-02-01T13:32:45.000Z</time>
      </trkpt>
      <trkpt lat="42.84893" lon="0.50056">
        <ele>1718</ele>
        <time>2020-02-01T13:32:46.000Z</time>
      </trkpt>
      <trkpt lat="42.84893" lon="0.50057">
        <ele>1717.7</ele>
        <time>2020-02-01T13:32:47.000Z</time>
      </trkpt>
      <trkpt lat="42.84893" lon="0.50059">
        <ele>1717.3</ele>
        <time>2020-02-01T13:32:48.000Z</time>
      </trkpt>
      <trkpt lat="42.84893" lon="0.5006">
        <ele>1717</ele>
        <time>2020-02-01T13:32:49.000Z</time>
      </trkpt>
      <trkpt lat="42.84892" lon="0.50061">
        <ele>1717</ele>
        <time>2020-02-01T13:32:50.000Z</time>
      </trkpt>
      <trkpt lat="42.84892" lon="0.50062">
        <ele>1717</ele>
        <time>2020-02-01T13:32:51.000Z</time>
      </trkpt>
      <trkpt lat="42.84892" lon="0.50063">
        <ele>1717</ele>
        <time>2020-02-01T13:32:52.000Z</time>
      </trkpt>
      <trkpt lat="42.84892" lon="0.50065">
        <ele>1717</ele>
        <time>2020-02-01T13:32:53.000Z</time>
      </trkpt>
      <trkpt lat="42.84891" lon="0.50066">
        <ele>1716.5</ele>
        <time>2020-02-01T13:32:54.000Z</time>
      </trkpt>
      <trkpt lat="42.84891" lon="0.50067">
        <ele>1716</ele>
        <time>2020-02-01T13:32:55.000Z</time>
      </trkpt>
      <trkpt lat="42.84891" lon="0.50068">
        <ele>1716</ele>
        <time>2020-02-01T13:32:56.000Z</time>
      </trkpt>
      <trkpt lat="42.84891" lon="0.50068">
        <ele>1716</ele>
        <time>2020-02-01T13:32:57.000Z</time>
      </trkpt>
      <trkpt lat="42.8489" lon="0.50069">
        <ele>1715</ele>
        <time>2020-02-01T13:32:58.000Z</time>
      </trkpt>
      <trkpt lat="42.8489" lon="0.5007">
        <ele>1715</ele>
        <time>2020-02-01T13:32:59.000Z</time>
      </trkpt>
      <trkpt lat="42.8489" lon="0.50071">
        <ele>1715</ele>
        <time>2020-02-01T13:33:00.000Z</time>
      </trkpt>
      <trkpt lat="42.84889" lon="0.50072">
        <ele>1715</ele>
        <time>2020-02-01T13:33:01.000Z</time>
      </trkpt>
      <trkpt lat="42.84889" lon="0.50073">
        <ele>1714</ele>
        <time>2020-02-01T13:33:02.000Z</time>
      </trkpt>
      <trkpt lat="42.84889" lon="0.50074">
        <ele>1714</ele>
        <time>2020-02-01T13:33:03.000Z</time>
      </trkpt>
      <trkpt lat="42.84888" lon="0.50075">
        <ele>1714</ele>
        <time>2020-02-01T13:33:04.000Z</time>
      </trkpt>
      <trkpt lat="42.84888" lon="0.50076">
        <ele>1714</ele>
        <time>2020-02-01T13:33:05.000Z</time>
      </trkpt>
      <trkpt lat="42.84888" lon="0.50077">
        <ele>1713</ele>
        <time>2020-02-01T13:33:06.000Z</time>
      </trkpt>
      <trkpt lat="42.84887" lon="0.50078">
        <ele>1713</ele>
        <time>2020-02-01T13:33:07.000Z</time>
      </trkpt>
      <trkpt lat="42.84887" lon="0.50079">
        <ele>1713</ele>
        <time>2020-02-01T13:33:08.000Z</time>
      </trkpt>
      <trkpt lat="42.84886" lon="0.50079">
        <ele>1713</ele>
        <time>2020-02-01T13:33:09.000Z</time>
      </trkpt>
      <trkpt lat="42.84886" lon="0.5008">
        <ele>1712.5</ele>
        <time>2020-02-01T13:33:10.000Z</time>
      </trkpt>
      <trkpt lat="42.84886" lon="0.50081">
        <ele>1712</ele>
        <time>2020-02-01T13:33:11.000Z</time>
      </trkpt>
      <trkpt lat="42.84885" lon="0.50082">
        <ele>1712</ele>
        <time>2020-02-01T13:33:12.000Z</time>
      </trkpt>
      <trkpt lat="42.84885" lon="0.50083">
        <ele>1712</ele>
        <time>2020-02-01T13:33:13.000Z</time>
      </trkpt>
      <trkpt lat="42.84885" lon="0.50084">
        <ele>1711.5</ele>
        <time>2020-02-01T13:33:14.000Z</time>
      </trkpt>
      <trkpt lat="42.84885" lon="0.50085">
        <ele>1711</ele>
        <time>2020-02-01T13:33:15.000Z</time>
      </trkpt>
      <trkpt lat="42.84884" lon="0.50086">
        <ele>1711</ele>
        <time>2020-02-01T13:33:16.000Z</time>
      </trkpt>
      <trkpt lat="42.84884" lon="0.50087">
        <ele>1711</ele>
        <time>2020-02-01T13:33:17.000Z</time>
      </trkpt>
      <trkpt lat="42.84885" lon="0.50088">
        <ele>1711</ele>
        <time>2020-02-01T13:33:18.000Z</time>
      </trkpt>
      <trkpt lat="42.84885" lon="0.5009">
        <ele>1711</ele>
        <time>2020-02-01T13:33:19.000Z</time>
      </trkpt>
      <trkpt lat="42.84885" lon="0.50091">
        <ele>1710.5</ele>
        <time>2020-02-01T13:33:20.000Z</time>
      </trkpt>
      <trkpt lat="42.84885" lon="0.50092">
        <ele>1710</ele>
        <time>2020-02-01T13:33:21.000Z</time>
      </trkpt>
      <trkpt lat="42.84885" lon="0.50094">
        <ele>1710</ele>
        <time>2020-02-01T13:33:22.000Z</time>
      </trkpt>
      <trkpt lat="42.84884" lon="0.50095">
        <ele>1709.7</ele>
        <time>2020-02-01T13:33:23.000Z</time>
      </trkpt>
      <trkpt lat="42.84884" lon="0.50096">
        <ele>1709.3</ele>
        <time>2020-02-01T13:33:24.000Z</time>
      </trkpt>
      <trkpt lat="42.84884" lon="0.50097">
        <ele>1709</ele>
        <time>2020-02-01T13:33:25.000Z</time>
      </trkpt>
      <trkpt lat="42.84883" lon="0.50098">
        <ele>1709</ele>
        <time>2020-02-01T13:33:26.000Z</time>
      </trkpt>
      <trkpt lat="42.84883" lon="0.50099">
        <ele>1708.7</ele>
        <time>2020-02-01T13:33:27.000Z</time>
      </trkpt>
      <trkpt lat="42.84883" lon="0.50099">
        <ele>1708.3</ele>
        <time>2020-02-01T13:33:28.000Z</time>
      </trkpt>
      <trkpt lat="42.84883" lon="0.501">
        <ele>1708</ele>
        <time>2020-02-01T13:33:29.000Z</time>
      </trkpt>
      <trkpt lat="42.84882" lon="0.501">
        <ele>1708</ele>
        <time>2020-02-01T13:33:30.000Z</time>
      </trkpt>
      <trkpt lat="42.84882" lon="0.50101">
        <ele>1708</ele>
        <time>2020-02-01T13:33:31.000Z</time>
      </trkpt>
      <trkpt lat="42.84882" lon="0.50102">
        <ele>1708</ele>
        <time>2020-02-01T13:33:32.000Z</time>
      </trkpt>
      <trkpt lat="42.84882" lon="0.50103">
        <ele>1708</ele>
        <time>2020-02-01T13:33:33.000Z</time>
      </trkpt>
      <trkpt lat="42.84881" lon="0.50104">
        <ele>1707</ele>
        <time>2020-02-01T13:33:34.000Z</time>
      </trkpt>
      <trkpt lat="42.84881" lon="0.50106">
        <ele>1707</ele>
        <time>2020-02-01T13:33:35.000Z</time>
      </trkpt>
      <trkpt lat="42.84881" lon="0.50108">
        <ele>1707</ele>
        <time>2020-02-01T13:33:36.000Z</time>
      </trkpt>
      <trkpt lat="42.84881" lon="0.50109">
        <ele>1707</ele>
        <time>2020-02-01T13:33:37.000Z</time>
      </trkpt>
      <trkpt lat="42.84881" lon="0.5011">
        <ele>1707</ele>
        <time>2020-02-01T13:33:38.000Z</time>
      </trkpt>
      <trkpt lat="42.84881" lon="0.50112">
        <ele>1707</ele>
        <time>2020-02-01T13:33:39.000Z</time>
      </trkpt>
      <trkpt lat="42.84882" lon="0.50113">
        <ele>1706</ele>
        <time>2020-02-01T13:33:40.000Z</time>
      </trkpt>
      <trkpt lat="42.84882" lon="0.50114">
        <ele>1706</ele>
        <time>2020-02-01T13:33:41.000Z</time>
      </trkpt>
      <trkpt lat="42.84882" lon="0.50114">
        <ele>1706</ele>
        <time>2020-02-01T13:33:42.000Z</time>
      </trkpt>
      <trkpt lat="42.84883" lon="0.50115">
        <ele>1706</ele>
        <time>2020-02-01T13:33:43.000Z</time>
      </trkpt>
      <trkpt lat="42.84883" lon="0.50116">
        <ele>1705.5</ele>
        <time>2020-02-01T13:33:44.000Z</time>
      </trkpt>
      <trkpt lat="42.84883" lon="0.50116">
        <ele>1705</ele>
        <time>2020-02-01T13:33:45.000Z</time>
      </trkpt>
      <trkpt lat="42.84884" lon="0.50117">
        <ele>1705</ele>
        <time>2020-02-01T13:33:46.000Z</time>
      </trkpt>
      <trkpt lat="42.84884" lon="0.50118">
        <ele>1705</ele>
        <time>2020-02-01T13:33:47.000Z</time>
      </trkpt>
      <trkpt lat="42.84884" lon="0.50119">
        <ele>1705</ele>
        <time>2020-02-01T13:33:48.000Z</time>
      </trkpt>
      <trkpt lat="42.84884" lon="0.5012">
        <ele>1705</ele>
        <time>2020-02-01T13:33:49.000Z</time>
      </trkpt>
      <trkpt lat="42.84884" lon="0.50121">
        <ele>1704.5</ele>
        <time>2020-02-01T13:33:50.000Z</time>
      </trkpt>
      <trkpt lat="42.84884" lon="0.50123">
        <ele>1704</ele>
        <time>2020-02-01T13:33:51.000Z</time>
      </trkpt>
      <trkpt lat="42.84884" lon="0.50124">
        <ele>1704</ele>
        <time>2020-02-01T13:33:52.000Z</time>
      </trkpt>
      <trkpt lat="42.84884" lon="0.50126">
        <ele>1703.5</ele>
        <time>2020-02-01T13:33:53.000Z</time>
      </trkpt>
      <trkpt lat="42.84883" lon="0.50126">
        <ele>1703</ele>
        <time>2020-02-01T13:33:54.000Z</time>
      </trkpt>
      <trkpt lat="42.84883" lon="0.50127">
        <ele>1703</ele>
        <time>2020-02-01T13:33:55.000Z</time>
      </trkpt>
      <trkpt lat="42.84883" lon="0.50128">
        <ele>1703</ele>
        <time>2020-02-01T13:33:56.000Z</time>
      </trkpt>
      <trkpt lat="42.84883" lon="0.50129">
        <ele>1703</ele>
        <time>2020-02-01T13:33:57.000Z</time>
      </trkpt>
      <trkpt lat="42.84882" lon="0.50129">
        <ele>1702</ele>
        <time>2020-02-01T13:33:58.000Z</time>
      </trkpt>
      <trkpt lat="42.84882" lon="0.5013">
        <ele>1702</ele>
        <time>2020-02-01T13:33:59.000Z</time>
      </trkpt>
      <trkpt lat="42.84882" lon="0.50131">
        <ele>1702</ele>
        <time>2020-02-01T13:34:00.000Z</time>
      </trkpt>
      <trkpt lat="42.84882" lon="0.50132">
        <ele>1702</ele>
        <time>2020-02-01T13:34:01.000Z</time>
      </trkpt>
      <trkpt lat="42.84881" lon="0.50133">
        <ele>1701.5</ele>
        <time>2020-02-01T13:34:02.000Z</time>
      </trkpt>
      <trkpt lat="42.84881" lon="0.50134">
        <ele>1701</ele>
        <time>2020-02-01T13:34:03.000Z</time>
      </trkpt>
      <trkpt lat="42.84881" lon="0.50135">
        <ele>1701</ele>
        <time>2020-02-01T13:34:04.000Z</time>
      </trkpt>
      <trkpt lat="42.84881" lon="0.50136">
        <ele>1700.7</ele>
        <time>2020-02-01T13:34:05.000Z</time>
      </trkpt>
      <trkpt lat="42.8488" lon="0.50137">
        <ele>1700.3</ele>
        <time>2020-02-01T13:34:06.000Z</time>
      </trkpt>
      <trkpt lat="42.8488" lon="0.50139">
        <ele>1700</ele>
        <time>2020-02-01T13:34:07.000Z</time>
      </trkpt>
      <trkpt lat="42.8488" lon="0.5014">
        <ele>1700</ele>
        <time>2020-02-01T13:34:08.000Z</time>
      </trkpt>
      <trkpt lat="42.84879" lon="0.50141">
        <ele>1700</ele>
        <time>2020-02-01T13:34:09.000Z</time>
      </trkpt>
      <trkpt lat="42.84879" lon="0.50143">
        <ele>1699</ele>
        <time>2020-02-01T13:34:10.000Z</time>
      </trkpt>
      <trkpt lat="42.84879" lon="0.50144">
        <ele>1699</ele>
        <time>2020-02-01T13:34:11.000Z</time>
      </trkpt>
      <trkpt lat="42.84879" lon="0.50145">
        <ele>1699</ele>
        <time>2020-02-01T13:34:12.000Z</time>
      </trkpt>
      <trkpt lat="42.84878" lon="0.50146">
        <ele>1698.5</ele>
        <time>2020-02-01T13:34:13.000Z</time>
      </trkpt>
      <trkpt lat="42.84878" lon="0.50147">
        <ele>1698</ele>
        <time>2020-02-01T13:34:14.000Z</time>
      </trkpt>
      <trkpt lat="42.84878" lon="0.50148">
        <ele>1698</ele>
        <time>2020-02-01T13:34:15.000Z</time>
      </trkpt>
      <trkpt lat="42.84878" lon="0.50149">
        <ele>1698</ele>
        <time>2020-02-01T13:34:16.000Z</time>
      </trkpt>
      <trkpt lat="42.84877" lon="0.5015">
        <ele>1698</ele>
        <time>2020-02-01T13:34:17.000Z</time>
      </trkpt>
      <trkpt lat="42.84877" lon="0.50151">
        <ele>1697</ele>
        <time>2020-02-01T13:34:18.000Z</time>
      </trkpt>
      <trkpt lat="42.84877" lon="0.50152">
        <ele>1697</ele>
        <time>2020-02-01T13:34:19.000Z</time>
      </trkpt>
      <trkpt lat="42.84877" lon="0.50153">
        <ele>1697</ele>
        <time>2020-02-01T13:34:20.000Z</time>
      </trkpt>
      <trkpt lat="42.84876" lon="0.50154">
        <ele>1697</ele>
        <time>2020-02-01T13:34:21.000Z</time>
      </trkpt>
      <trkpt lat="42.84876" lon="0.50155">
        <ele>1697</ele>
        <time>2020-02-01T13:34:22.000Z</time>
      </trkpt>
      <trkpt lat="42.84877" lon="0.50156">
        <ele>1697</ele>
        <time>2020-02-01T13:34:23.000Z</time>
      </trkpt>
      <trkpt lat="42.84877" lon="0.50157">
        <ele>1696</ele>
        <time>2020-02-01T13:34:24.000Z</time>
      </trkpt>
      <trkpt lat="42.84877" lon="0.50158">
        <ele>1696</ele>
        <time>2020-02-01T13:34:25.000Z</time>
      </trkpt>
      <trkpt lat="42.84878" lon="0.50159">
        <ele>1696</ele>
        <time>2020-02-01T13:34:26.000Z</time>
      </trkpt>
      <trkpt lat="42.84878" lon="0.5016">
        <ele>1696</ele>
        <time>2020-02-01T13:34:27.000Z</time>
      </trkpt>
      <trkpt lat="42.84879" lon="0.50161">
        <ele>1695.5</ele>
        <time>2020-02-01T13:34:28.000Z</time>
      </trkpt>
      <trkpt lat="42.84879" lon="0.50162">
        <ele>1695</ele>
        <time>2020-02-01T13:34:29.000Z</time>
      </trkpt>
      <trkpt lat="42.8488" lon="0.50163">
        <ele>1695</ele>
        <time>2020-02-01T13:34:30.000Z</time>
      </trkpt>
      <trkpt lat="42.8488" lon="0.50164">
        <ele>1695</ele>
        <time>2020-02-01T13:34:31.000Z</time>
      </trkpt>
      <trkpt lat="42.8488" lon="0.50164">
        <ele>1695</ele>
        <time>2020-02-01T13:34:32.000Z</time>
      </trkpt>
      <trkpt lat="42.84881" lon="0.50165">
        <ele>1694.7</ele>
        <time>2020-02-01T13:34:33.000Z</time>
      </trkpt>
      <trkpt lat="42.84881" lon="0.50165">
        <ele>1694.3</ele>
        <time>2020-02-01T13:34:34.000Z</time>
      </trkpt>
      <trkpt lat="42.84881" lon="0.50166">
        <ele>1694</ele>
        <time>2020-02-01T13:34:35.000Z</time>
      </trkpt>
      <trkpt lat="42.84881" lon="0.50166">
        <ele>1694</ele>
        <time>2020-02-01T13:34:36.000Z</time>
      </trkpt>
      <trkpt lat="42.84881" lon="0.50166">
        <ele>1694</ele>
        <time>2020-02-01T13:34:37.000Z</time>
      </trkpt>
      <trkpt lat="42.84881" lon="0.50166">
        <ele>1694</ele>
        <time>2020-02-01T13:34:38.000Z</time>
      </trkpt>
      <trkpt lat="42.84881" lon="0.50166">
        <ele>1694</ele>
        <time>2020-02-01T13:34:39.000Z</time>
      </trkpt>
      <trkpt lat="42.84881" lon="0.50166">
        <ele>1694</ele>
        <time>2020-02-01T13:34:40.000Z</time>
      </trkpt>
      <trkpt lat="42.84881" lon="0.50166">
        <ele>1694</ele>
        <time>2020-02-01T13:34:41.000Z</time>
      </trkpt>
      <trkpt lat="42.84881" lon="0.50166">
        <ele>1694</ele>
        <time>2020-02-01T13:34:42.000Z</time>
      </trkpt>
      <trkpt lat="42.84881" lon="0.50167">
        <ele>1694</ele>
        <time>2020-02-01T13:34:43.000Z</time>
      </trkpt>
      <trkpt lat="42.84881" lon="0.50168">
        <ele>1694</ele>
        <time>2020-02-01T13:34:44.000Z</time>
      </trkpt>
      <trkpt lat="42.84881" lon="0.50169">
        <ele>1693.5</ele>
        <time>2020-02-01T13:34:45.000Z</time>
      </trkpt>
      <trkpt lat="42.84881" lon="0.5017">
        <ele>1693</ele>
        <time>2020-02-01T13:34:46.000Z</time>
      </trkpt>
      <trkpt lat="42.8488" lon="0.5017">
        <ele>1693</ele>
        <time>2020-02-01T13:34:47.000Z</time>
      </trkpt>
      <trkpt lat="42.8488" lon="0.50171">
        <ele>1693</ele>
        <time>2020-02-01T13:34:48.000Z</time>
      </trkpt>
      <trkpt lat="42.8488" lon="0.50172">
        <ele>1693</ele>
        <time>2020-02-01T13:34:49.000Z</time>
      </trkpt>
      <trkpt lat="42.8488" lon="0.50173">
        <ele>1693</ele>
        <time>2020-02-01T13:34:50.000Z</time>
      </trkpt>
      <trkpt lat="42.8488" lon="0.50174">
        <ele>1693</ele>
        <time>2020-02-01T13:34:51.000Z</time>
      </trkpt>
      <trkpt lat="42.8488" lon="0.50174">
        <ele>1693</ele>
        <time>2020-02-01T13:34:52.000Z</time>
      </trkpt>
      <trkpt lat="42.8488" lon="0.50174">
        <ele>1692.7</ele>
        <time>2020-02-01T13:34:53.000Z</time>
      </trkpt>
      <trkpt lat="42.8488" lon="0.50175">
        <ele>1692.3</ele>
        <time>2020-02-01T13:34:54.000Z</time>
      </trkpt>
      <trkpt lat="42.8488" lon="0.50175">
        <ele>1692</ele>
        <time>2020-02-01T13:34:55.000Z</time>
      </trkpt>
      <trkpt lat="42.8488" lon="0.50175">
        <ele>1693</ele>
        <time>2020-02-01T13:34:56.000Z</time>
      </trkpt>
      <trkpt lat="42.8488" lon="0.50175">
        <ele>1693</ele>
        <time>2020-02-01T13:34:57.000Z</time>
      </trkpt>
      <trkpt lat="42.8488" lon="0.50175">
        <ele>1693</ele>
        <time>2020-02-01T13:34:58.000Z</time>
      </trkpt>
      <trkpt lat="42.8488" lon="0.50175">
        <ele>1693</ele>
        <time>2020-02-01T13:34:59.000Z</time>
      </trkpt>
      <trkpt lat="42.8488" lon="0.50175">
        <ele>1692</ele>
        <time>2020-02-01T13:35:00.000Z</time>
      </trkpt>
      <trkpt lat="42.8488" lon="0.50175">
        <ele>1692</ele>
        <time>2020-02-01T13:35:01.000Z</time>
      </trkpt>
      <trkpt lat="42.8488" lon="0.50175">
        <ele>1692</ele>
        <time>2020-02-01T13:35:02.000Z</time>
      </trkpt>
      <trkpt lat="42.8488" lon="0.50176">
        <ele>1692</ele>
        <time>2020-02-01T13:35:03.000Z</time>
      </trkpt>
      <trkpt lat="42.84879" lon="0.50176">
        <ele>1692</ele>
        <time>2020-02-01T13:35:04.000Z</time>
      </trkpt>
      <trkpt lat="42.84879" lon="0.50177">
        <ele>1692</ele>
        <time>2020-02-01T13:35:05.000Z</time>
      </trkpt>
      <trkpt lat="42.84878" lon="0.50178">
        <ele>1691</ele>
        <time>2020-02-01T13:35:06.000Z</time>
      </trkpt>
      <trkpt lat="42.84877" lon="0.50179">
        <ele>1691</ele>
        <time>2020-02-01T13:35:07.000Z</time>
      </trkpt>
      <trkpt lat="42.84876" lon="0.50179">
        <ele>1691</ele>
        <time>2020-02-01T13:35:08.000Z</time>
      </trkpt>
      <trkpt lat="42.84876" lon="0.5018">
        <ele>1691</ele>
        <time>2020-02-01T13:35:09.000Z</time>
      </trkpt>
      <trkpt lat="42.84876" lon="0.5018">
        <ele>1691</ele>
        <time>2020-02-01T13:35:10.000Z</time>
      </trkpt>
      <trkpt lat="42.84875" lon="0.5018">
        <ele>1691</ele>
        <time>2020-02-01T13:35:11.000Z</time>
      </trkpt>
      <trkpt lat="42.84875" lon="0.5018">
        <ele>1691</ele>
        <time>2020-02-01T13:35:12.000Z</time>
      </trkpt>
      <trkpt lat="42.84875" lon="0.5018">
        <ele>1691</ele>
        <time>2020-02-01T13:35:13.000Z</time>
      </trkpt>
      <trkpt lat="42.84875" lon="0.5018">
        <ele>1691</ele>
        <time>2020-02-01T13:35:14.000Z</time>
      </trkpt>
      <trkpt lat="42.84875" lon="0.5018">
        <ele>1691</ele>
        <time>2020-02-01T13:35:15.000Z</time>
      </trkpt>
      <trkpt lat="42.84875" lon="0.5018">
        <ele>1690.5</ele>
        <time>2020-02-01T13:35:16.000Z</time>
      </trkpt>
      <trkpt lat="42.84875" lon="0.50181">
        <ele>1690</ele>
        <time>2020-02-01T13:35:17.000Z</time>
      </trkpt>
      <trkpt lat="42.84875" lon="0.50181">
        <ele>1690</ele>
        <time>2020-02-01T13:35:18.000Z</time>
      </trkpt>
      <trkpt lat="42.84875" lon="0.50181">
        <ele>1690</ele>
        <time>2020-02-01T13:35:19.000Z</time>
      </trkpt>
      <trkpt lat="42.84874" lon="0.50181">
        <ele>1690</ele>
        <time>2020-02-01T13:35:20.000Z</time>
      </trkpt>
      <trkpt lat="42.84874" lon="0.50181">
        <ele>1690</ele>
        <time>2020-02-01T13:35:21.000Z</time>
      </trkpt>
      <trkpt lat="42.84874" lon="0.50181">
        <ele>1690</ele>
        <time>2020-02-01T13:35:22.000Z</time>
      </trkpt>
      <trkpt lat="42.84874" lon="0.50181">
        <ele>1690</ele>
        <time>2020-02-01T13:35:23.000Z</time>
      </trkpt>
      <trkpt lat="42.84874" lon="0.50182">
        <ele>1690</ele>
        <time>2020-02-01T13:35:24.000Z</time>
      </trkpt>
      <trkpt lat="42.84873" lon="0.50182">
        <ele>1690</ele>
        <time>2020-02-01T13:35:25.000Z</time>
      </trkpt>
      <trkpt lat="42.84872" lon="0.50182">
        <ele>1690</ele>
        <time>2020-02-01T13:35:26.000Z</time>
      </trkpt>
      <trkpt lat="42.84872" lon="0.50182">
        <ele>1690</ele>
        <time>2020-02-01T13:35:27.000Z</time>
      </trkpt>
      <trkpt lat="42.84871" lon="0.50182">
        <ele>1689</ele>
        <time>2020-02-01T13:35:28.000Z</time>
      </trkpt>
      <trkpt lat="42.8487" lon="0.50182">
        <ele>1689</ele>
        <time>2020-02-01T13:35:29.000Z</time>
      </trkpt>
      <trkpt lat="42.84869" lon="0.50182">
        <ele>1689</ele>
        <time>2020-02-01T13:35:30.000Z</time>
      </trkpt>
      <trkpt lat="42.84869" lon="0.50183">
        <ele>1689</ele>
        <time>2020-02-01T13:35:31.000Z</time>
      </trkpt>
      <trkpt lat="42.84868" lon="0.50183">
        <ele>1689</ele>
        <time>2020-02-01T13:35:32.000Z</time>
      </trkpt>
      <trkpt lat="42.84868" lon="0.50184">
        <ele>1688.7</ele>
        <time>2020-02-01T13:35:33.000Z</time>
      </trkpt>
      <trkpt lat="42.84867" lon="0.50184">
        <ele>1688.3</ele>
        <time>2020-02-01T13:35:34.000Z</time>
      </trkpt>
      <trkpt lat="42.84867" lon="0.50184">
        <ele>1688</ele>
        <time>2020-02-01T13:35:35.000Z</time>
      </trkpt>
      <trkpt lat="42.84867" lon="0.50184">
        <ele>1688</ele>
        <time>2020-02-01T13:35:36.000Z</time>
      </trkpt>
      <trkpt lat="42.84866" lon="0.50183">
        <ele>1687.7</ele>
        <time>2020-02-01T13:35:37.000Z</time>
      </trkpt>
      <trkpt lat="42.84866" lon="0.50183">
        <ele>1687.3</ele>
        <time>2020-02-01T13:35:38.000Z</time>
      </trkpt>
      <trkpt lat="42.84865" lon="0.50183">
        <ele>1687</ele>
        <time>2020-02-01T13:35:39.000Z</time>
      </trkpt>
      <trkpt lat="42.84865" lon="0.50182">
        <ele>1686</ele>
        <time>2020-02-01T13:35:40.000Z</time>
      </trkpt>
      <trkpt lat="42.84865" lon="0.50182">
        <ele>1686</ele>
        <time>2020-02-01T13:35:41.000Z</time>
      </trkpt>
      <trkpt lat="42.84864" lon="0.50182">
        <ele>1686</ele>
        <time>2020-02-01T13:35:42.000Z</time>
      </trkpt>
      <trkpt lat="42.84864" lon="0.50181">
        <ele>1686</ele>
        <time>2020-02-01T13:35:43.000Z</time>
      </trkpt>
      <trkpt lat="42.84864" lon="0.50181">
        <ele>1686</ele>
        <time>2020-02-01T13:35:44.000Z</time>
      </trkpt>
      <trkpt lat="42.84863" lon="0.50181">
        <ele>1685.5</ele>
        <time>2020-02-01T13:35:45.000Z</time>
      </trkpt>
      <trkpt lat="42.84862" lon="0.5018">
        <ele>1685</ele>
        <time>2020-02-01T13:35:46.000Z</time>
      </trkpt>
      <trkpt lat="42.84861" lon="0.5018">
        <ele>1685</ele>
        <time>2020-02-01T13:35:47.000Z</time>
      </trkpt>
      <trkpt lat="42.84861" lon="0.5018">
        <ele>1685</ele>
        <time>2020-02-01T13:35:48.000Z</time>
      </trkpt>
      <trkpt lat="42.8486" lon="0.5018">
        <ele>1685</ele>
        <time>2020-02-01T13:35:49.000Z</time>
      </trkpt>
      <trkpt lat="42.8486" lon="0.5018">
        <ele>1685</ele>
        <time>2020-02-01T13:35:50.000Z</time>
      </trkpt>
      <trkpt lat="42.84859" lon="0.50181">
        <ele>1685</ele>
        <time>2020-02-01T13:35:51.000Z</time>
      </trkpt>
      <trkpt lat="42.84859" lon="0.50181">
        <ele>1685</ele>
        <time>2020-02-01T13:35:52.000Z</time>
      </trkpt>
      <trkpt lat="42.84859" lon="0.50181">
        <ele>1685</ele>
        <time>2020-02-01T13:35:53.000Z</time>
      </trkpt>
      <trkpt lat="42.84859" lon="0.50181">
        <ele>1685</ele>
        <time>2020-02-01T13:35:54.000Z</time>
      </trkpt>
      <trkpt lat="42.84858" lon="0.50181">
        <ele>1685</ele>
        <time>2020-02-01T13:35:55.000Z</time>
      </trkpt>
      <trkpt lat="42.84858" lon="0.5018">
        <ele>1684.5</ele>
        <time>2020-02-01T13:35:56.000Z</time>
      </trkpt>
      <trkpt lat="42.84857" lon="0.5018">
        <ele>1684</ele>
        <time>2020-02-01T13:35:57.000Z</time>
      </trkpt>
      <trkpt lat="42.84856" lon="0.5018">
        <ele>1684</ele>
        <time>2020-02-01T13:35:58.000Z</time>
      </trkpt>
      <trkpt lat="42.84856" lon="0.5018">
        <ele>1684</ele>
        <time>2020-02-01T13:35:59.000Z</time>
      </trkpt>
      <trkpt lat="42.84855" lon="0.5018">
        <ele>1684</ele>
        <time>2020-02-01T13:36:00.000Z</time>
      </trkpt>
      <trkpt lat="42.84855" lon="0.50181">
        <ele>1684</ele>
        <time>2020-02-01T13:36:01.000Z</time>
      </trkpt>
      <trkpt lat="42.84855" lon="0.50181">
        <ele>1684</ele>
        <time>2020-02-01T13:36:02.000Z</time>
      </trkpt>
      <trkpt lat="42.84855" lon="0.50182">
        <ele>1684</ele>
        <time>2020-02-01T13:36:03.000Z</time>
      </trkpt>
      <trkpt lat="42.84854" lon="0.50182">
        <ele>1683</ele>
        <time>2020-02-01T13:36:04.000Z</time>
      </trkpt>
      <trkpt lat="42.84854" lon="0.50182">
        <ele>1683</ele>
        <time>2020-02-01T13:36:05.000Z</time>
      </trkpt>
      <trkpt lat="42.84854" lon="0.50182">
        <ele>1683</ele>
        <time>2020-02-01T13:36:06.000Z</time>
      </trkpt>
      <trkpt lat="42.84854" lon="0.50182">
        <ele>1683</ele>
        <time>2020-02-01T13:36:07.000Z</time>
      </trkpt>
      <trkpt lat="42.84854" lon="0.50182">
        <ele>1683</ele>
        <time>2020-02-01T13:36:08.000Z</time>
      </trkpt>
      <trkpt lat="42.84854" lon="0.50182">
        <ele>1683</ele>
        <time>2020-02-01T13:36:09.000Z</time>
      </trkpt>
      <trkpt lat="42.84854" lon="0.50182">
        <ele>1682</ele>
        <time>2020-02-01T13:36:10.000Z</time>
      </trkpt>
      <trkpt lat="42.84854" lon="0.50182">
        <ele>1682</ele>
        <time>2020-02-01T13:36:11.000Z</time>
      </trkpt>
      <trkpt lat="42.84854" lon="0.50182">
        <ele>1682</ele>
        <time>2020-02-01T13:36:12.000Z</time>
      </trkpt>
      <trkpt lat="42.84853" lon="0.50182">
        <ele>1682</ele>
        <time>2020-02-01T13:36:13.000Z</time>
      </trkpt>
      <trkpt lat="42.84853" lon="0.50183">
        <ele>1682</ele>
        <time>2020-02-01T13:36:14.000Z</time>
      </trkpt>
      <trkpt lat="42.84853" lon="0.50183">
        <ele>1682</ele>
        <time>2020-02-01T13:36:15.000Z</time>
      </trkpt>
      <trkpt lat="42.84852" lon="0.50185">
        <ele>1681</ele>
        <time>2020-02-01T13:36:16.000Z</time>
      </trkpt>
      <trkpt lat="42.84852" lon="0.50185">
        <ele>1681</ele>
        <time>2020-02-01T13:36:17.000Z</time>
      </trkpt>
      <trkpt lat="42.84853" lon="0.50186">
        <ele>1681</ele>
        <time>2020-02-01T13:36:18.000Z</time>
      </trkpt>
      <trkpt lat="42.84853" lon="0.50186">
        <ele>1680.7</ele>
        <time>2020-02-01T13:36:19.000Z</time>
      </trkpt>
      <trkpt lat="42.84853" lon="0.50186">
        <ele>1680.3</ele>
        <time>2020-02-01T13:36:20.000Z</time>
      </trkpt>
      <trkpt lat="42.84852" lon="0.50187">
        <ele>1680</ele>
        <time>2020-02-01T13:36:21.000Z</time>
      </trkpt>
      <trkpt lat="42.84852" lon="0.50187">
        <ele>1680</ele>
        <time>2020-02-01T13:36:22.000Z</time>
      </trkpt>
      <trkpt lat="42.84852" lon="0.50188">
        <ele>1679.7</ele>
        <time>2020-02-01T13:36:23.000Z</time>
      </trkpt>
      <trkpt lat="42.84852" lon="0.50188">
        <ele>1679.3</ele>
        <time>2020-02-01T13:36:24.000Z</time>
      </trkpt>
      <trkpt lat="42.84852" lon="0.50189">
        <ele>1679</ele>
        <time>2020-02-01T13:36:25.000Z</time>
      </trkpt>
      <trkpt lat="42.84852" lon="0.50189">
        <ele>1679</ele>
        <time>2020-02-01T13:36:26.000Z</time>
      </trkpt>
      <trkpt lat="42.84852" lon="0.5019">
        <ele>1679</ele>
        <time>2020-02-01T13:36:27.000Z</time>
      </trkpt>
      <trkpt lat="42.84852" lon="0.50191">
        <ele>1678.5</ele>
        <time>2020-02-01T13:36:28.000Z</time>
      </trkpt>
      <trkpt lat="42.84853" lon="0.50191">
        <ele>1678</ele>
        <time>2020-02-01T13:36:29.000Z</time>
      </trkpt>
      <trkpt lat="42.84853" lon="0.50191">
        <ele>1678</ele>
        <time>2020-02-01T13:36:30.000Z</time>
      </trkpt>
      <trkpt lat="42.84853" lon="0.50192">
        <ele>1678</ele>
        <time>2020-02-01T13:36:31.000Z</time>
      </trkpt>
      <trkpt lat="42.84853" lon="0.50192">
        <ele>1678</ele>
        <time>2020-02-01T13:36:32.000Z</time>
      </trkpt>
      <trkpt lat="42.84853" lon="0.50192">
        <ele>1678</ele>
        <time>2020-02-01T13:36:33.000Z</time>
      </trkpt>
      <trkpt lat="42.84853" lon="0.50192">
        <ele>1678</ele>
        <time>2020-02-01T13:36:34.000Z</time>
      </trkpt>
      <trkpt lat="42.84853" lon="0.50193">
        <ele>1678</ele>
        <time>2020-02-01T13:36:35.000Z</time>
      </trkpt>
      <trkpt lat="42.84853" lon="0.50193">
        <ele>1678</ele>
        <time>2020-02-01T13:36:36.000Z</time>
      </trkpt>
      <trkpt lat="42.84853" lon="0.50193">
        <ele>1678</ele>
        <time>2020-02-01T13:36:37.000Z</time>
      </trkpt>
      <trkpt lat="42.84853" lon="0.50192">
        <ele>1678</ele>
        <time>2020-02-01T13:36:38.000Z</time>
      </trkpt>
      <trkpt lat="42.84853" lon="0.50192">
        <ele>1678</ele>
        <time>2020-02-01T13:36:39.000Z</time>
      </trkpt>
      <trkpt lat="42.84853" lon="0.50193">
        <ele>1678</ele>
        <time>2020-02-01T13:36:40.000Z</time>
      </trkpt>
      <trkpt lat="42.84853" lon="0.50193">
        <ele>1678</ele>
        <time>2020-02-01T13:36:41.000Z</time>
      </trkpt>
      <trkpt lat="42.84853" lon="0.50193">
        <ele>1677</ele>
        <time>2020-02-01T13:36:42.000Z</time>
      </trkpt>
      <trkpt lat="42.84854" lon="0.50194">
        <ele>1677</ele>
        <time>2020-02-01T13:36:43.000Z</time>
      </trkpt>
      <trkpt lat="42.84854" lon="0.50194">
        <ele>1677</ele>
        <time>2020-02-01T13:36:44.000Z</time>
      </trkpt>
      <trkpt lat="42.84854" lon="0.50195">
        <ele>1677</ele>
        <time>2020-02-01T13:36:45.000Z</time>
      </trkpt>
      <trkpt lat="42.84854" lon="0.50195">
        <ele>1677</ele>
        <time>2020-02-01T13:36:46.000Z</time>
      </trkpt>
      <trkpt lat="42.84855" lon="0.50195">
        <ele>1677</ele>
        <time>2020-02-01T13:36:47.000Z</time>
      </trkpt>
      <trkpt lat="42.84855" lon="0.50195">
        <ele>1677</ele>
        <time>2020-02-01T13:36:48.000Z</time>
      </trkpt>
      <trkpt lat="42.84855" lon="0.50196">
        <ele>1677</ele>
        <time>2020-02-01T13:36:49.000Z</time>
      </trkpt>
      <trkpt lat="42.84855" lon="0.50196">
        <ele>1677</ele>
        <time>2020-02-01T13:36:50.000Z</time>
      </trkpt>
      <trkpt lat="42.84855" lon="0.50196">
        <ele>1677</ele>
        <time>2020-02-01T13:36:51.000Z</time>
      </trkpt>
      <trkpt lat="42.84855" lon="0.50196">
        <ele>1677</ele>
        <time>2020-02-01T13:36:52.000Z</time>
      </trkpt>
      <trkpt lat="42.84856" lon="0.50196">
        <ele>1677</ele>
        <time>2020-02-01T13:36:53.000Z</time>
      </trkpt>
      <trkpt lat="42.84856" lon="0.50196">
        <ele>1677</ele>
        <time>2020-02-01T13:36:54.000Z</time>
      </trkpt>
      <trkpt lat="42.84856" lon="0.50195">
        <ele>1677</ele>
        <time>2020-02-01T13:36:55.000Z</time>
      </trkpt>
      <trkpt lat="42.84856" lon="0.50195">
        <ele>1676.5</ele>
        <time>2020-02-01T13:36:56.000Z</time>
      </trkpt>
      <trkpt lat="42.84856" lon="0.50195">
        <ele>1676</ele>
        <time>2020-02-01T13:36:57.000Z</time>
      </trkpt>
      <trkpt lat="42.84857" lon="0.50195">
        <ele>1676</ele>
        <time>2020-02-01T13:36:58.000Z</time>
      </trkpt>
      <trkpt lat="42.84857" lon="0.50195">
        <ele>1676.3</ele>
        <time>2020-02-01T13:36:59.000Z</time>
      </trkpt>
      <trkpt lat="42.84857" lon="0.50196">
        <ele>1676.7</ele>
        <time>2020-02-01T13:37:00.000Z</time>
      </trkpt>
      <trkpt lat="42.84857" lon="0.50196">
        <ele>1677</ele>
        <time>2020-02-01T13:37:01.000Z</time>
      </trkpt>
      <trkpt lat="42.84857" lon="0.50196">
        <ele>1677</ele>
        <time>2020-02-01T13:37:02.000Z</time>
      </trkpt>
      <trkpt lat="42.84856" lon="0.50196">
        <ele>1677</ele>
        <time>2020-02-01T13:37:03.000Z</time>
      </trkpt>
      <trkpt lat="42.84856" lon="0.50196">
        <ele>1677</ele>
        <time>2020-02-01T13:37:04.000Z</time>
      </trkpt>
      <trkpt lat="42.84855" lon="0.50196">
        <ele>1677</ele>
        <time>2020-02-01T13:37:05.000Z</time>
      </trkpt>
      <trkpt lat="42.84854" lon="0.50196">
        <ele>1677</ele>
        <time>2020-02-01T13:37:06.000Z</time>
      </trkpt>
      <trkpt lat="42.84853" lon="0.50196">
        <ele>1677</ele>
        <time>2020-02-01T13:37:07.000Z</time>
      </trkpt>
      <trkpt lat="42.84852" lon="0.50196">
        <ele>1677</ele>
        <time>2020-02-01T13:37:08.000Z</time>
      </trkpt>
      <trkpt lat="42.84852" lon="0.50196">
        <ele>1677</ele>
        <time>2020-02-01T13:37:09.000Z</time>
      </trkpt>
      <trkpt lat="42.84851" lon="0.50196">
        <ele>1677</ele>
        <time>2020-02-01T13:37:10.000Z</time>
      </trkpt>
      <trkpt lat="42.84851" lon="0.50196">
        <ele>1677</ele>
        <time>2020-02-01T13:37:11.000Z</time>
      </trkpt>
      <trkpt lat="42.84851" lon="0.50196">
        <ele>1677</ele>
        <time>2020-02-01T13:37:12.000Z</time>
      </trkpt>
      <trkpt lat="42.84851" lon="0.50196">
        <ele>1677</ele>
        <time>2020-02-01T13:37:13.000Z</time>
      </trkpt>
      <trkpt lat="42.8485" lon="0.50196">
        <ele>1677</ele>
        <time>2020-02-01T13:37:14.000Z</time>
      </trkpt>
      <trkpt lat="42.8485" lon="0.50196">
        <ele>1677</ele>
        <time>2020-02-01T13:37:15.000Z</time>
      </trkpt>
      <trkpt lat="42.8485" lon="0.50196">
        <ele>1677</ele>
        <time>2020-02-01T13:37:16.000Z</time>
      </trkpt>
      <trkpt lat="42.8485" lon="0.50196">
        <ele>1677</ele>
        <time>2020-02-01T13:37:17.000Z</time>
      </trkpt>
      <trkpt lat="42.8485" lon="0.50196">
        <ele>1677</ele>
        <time>2020-02-01T13:37:18.000Z</time>
      </trkpt>
      <trkpt lat="42.8485" lon="0.50196">
        <ele>1677</ele>
        <time>2020-02-01T13:37:19.000Z</time>
      </trkpt>
      <trkpt lat="42.8485" lon="0.50196">
        <ele>1677</ele>
        <time>2020-02-01T13:37:20.000Z</time>
      </trkpt>
      <trkpt lat="42.8485" lon="0.50196">
        <ele>1677</ele>
        <time>2020-02-01T13:37:21.000Z</time>
      </trkpt>
      <trkpt lat="42.8485" lon="0.50196">
        <ele>1677</ele>
        <time>2020-02-01T13:37:22.000Z</time>
      </trkpt>
      <trkpt lat="42.8485" lon="0.50196">
        <ele>1677</ele>
        <time>2020-02-01T13:37:23.000Z</time>
      </trkpt>
      <trkpt lat="42.8485" lon="0.50196">
        <ele>1677</ele>
        <time>2020-02-01T13:37:24.000Z</time>
      </trkpt>
      <trkpt lat="42.8485" lon="0.50196">
        <ele>1677</ele>
        <time>2020-02-01T13:37:25.000Z</time>
      </trkpt>
      <trkpt lat="42.8485" lon="0.50196">
        <ele>1677</ele>
        <time>2020-02-01T13:37:26.000Z</time>
      </trkpt>
      <trkpt lat="42.8485" lon="0.50196">
        <ele>1677</ele>
        <time>2020-02-01T13:37:27.000Z</time>
      </trkpt>
      <trkpt lat="42.8485" lon="0.50196">
        <ele>1677</ele>
        <time>2020-02-01T13:37:28.000Z</time>
      </trkpt>
      <trkpt lat="42.8485" lon="0.50196">
        <ele>1677</ele>
        <time>2020-02-01T13:37:29.000Z</time>
      </trkpt>
      <trkpt lat="42.84849" lon="0.50196">
        <ele>1677</ele>
        <time>2020-02-01T13:37:30.000Z</time>
      </trkpt>
      <trkpt lat="42.84849" lon="0.50195">
        <ele>1677</ele>
        <time>2020-02-01T13:37:31.000Z</time>
      </trkpt>
      <trkpt lat="42.84849" lon="0.50195">
        <ele>1677</ele>
        <time>2020-02-01T13:37:32.000Z</time>
      </trkpt>
      <trkpt lat="42.84848" lon="0.50195">
        <ele>1677</ele>
        <time>2020-02-01T13:37:33.000Z</time>
      </trkpt>
      <trkpt lat="42.84848" lon="0.50195">
        <ele>1676</ele>
        <time>2020-02-01T13:37:34.000Z</time>
      </trkpt>
      <trkpt lat="42.84848" lon="0.50195">
        <ele>1676</ele>
        <time>2020-02-01T13:37:35.000Z</time>
      </trkpt>
      <trkpt lat="42.84848" lon="0.50195">
        <ele>1676</ele>
        <time>2020-02-01T13:37:36.000Z</time>
      </trkpt>
      <trkpt lat="42.84848" lon="0.50195">
        <ele>1676</ele>
        <time>2020-02-01T13:37:37.000Z</time>
      </trkpt>
      <trkpt lat="42.84848" lon="0.50195">
        <ele>1676</ele>
        <time>2020-02-01T13:37:38.000Z</time>
      </trkpt>
      <trkpt lat="42.84848" lon="0.50195">
        <ele>1676</ele>
        <time>2020-02-01T13:37:39.000Z</time>
      </trkpt>
      <trkpt lat="42.84848" lon="0.50195">
        <ele>1676</ele>
        <time>2020-02-01T13:37:40.000Z</time>
      </trkpt>
      <trkpt lat="42.84847" lon="0.50195">
        <ele>1676</ele>
        <time>2020-02-01T13:37:41.000Z</time>
      </trkpt>
      <trkpt lat="42.84847" lon="0.50195">
        <ele>1676</ele>
        <time>2020-02-01T13:37:42.000Z</time>
      </trkpt>
      <trkpt lat="42.84847" lon="0.50195">
        <ele>1676</ele>
        <time>2020-02-01T13:37:43.000Z</time>
      </trkpt>
      <trkpt lat="42.84847" lon="0.50195">
        <ele>1676</ele>
        <time>2020-02-01T13:37:44.000Z</time>
      </trkpt>
      <trkpt lat="42.84847" lon="0.50195">
        <ele>1676</ele>
        <time>2020-02-01T13:37:45.000Z</time>
      </trkpt>
      <trkpt lat="42.84847" lon="0.50195">
        <ele>1675</ele>
        <time>2020-02-01T13:37:46.000Z</time>
      </trkpt>
      <trkpt lat="42.84847" lon="0.50195">
        <ele>1675</ele>
        <time>2020-02-01T13:37:47.000Z</time>
      </trkpt>
      <trkpt lat="42.84847" lon="0.50195">
        <ele>1675</ele>
        <time>2020-02-01T13:37:48.000Z</time>
      </trkpt>
      <trkpt lat="42.84847" lon="0.50195">
        <ele>1675</ele>
        <time>2020-02-01T13:37:49.000Z</time>
      </trkpt>
      <trkpt lat="42.84847" lon="0.50195">
        <ele>1675</ele>
        <time>2020-02-01T13:37:50.000Z</time>
      </trkpt>
      <trkpt lat="42.84847" lon="0.50195">
        <ele>1675</ele>
        <time>2020-02-01T13:37:51.000Z</time>
      </trkpt>
      <trkpt lat="42.84847" lon="0.50195">
        <ele>1675</ele>
        <time>2020-02-01T13:37:52.000Z</time>
      </trkpt>
      <trkpt lat="42.84847" lon="0.50196">
        <ele>1675.3</ele>
        <time>2020-02-01T13:37:53.000Z</time>
      </trkpt>
      <trkpt lat="42.84847" lon="0.50196">
        <ele>1675.7</ele>
        <time>2020-02-01T13:37:54.000Z</time>
      </trkpt>
      <trkpt lat="42.84848" lon="0.50196">
        <ele>1676</ele>
        <time>2020-02-01T13:37:55.000Z</time>
      </trkpt>
      <trkpt lat="42.84848" lon="0.50196">
        <ele>1676</ele>
        <time>2020-02-01T13:37:56.000Z</time>
      </trkpt>
      <trkpt lat="42.84849" lon="0.50197">
        <ele>1676</ele>
        <time>2020-02-01T13:37:57.000Z</time>
      </trkpt>
      <trkpt lat="42.84849" lon="0.50197">
        <ele>1676</ele>
        <time>2020-02-01T13:37:58.000Z</time>
      </trkpt>
      <trkpt lat="42.8485" lon="0.50197">
        <ele>1676</ele>
        <time>2020-02-01T13:37:59.000Z</time>
      </trkpt>
      <trkpt lat="42.84851" lon="0.50198">
        <ele>1676</ele>
        <time>2020-02-01T13:38:00.000Z</time>
      </trkpt>
      <trkpt lat="42.8485" lon="0.50198">
        <ele>1676</ele>
        <time>2020-02-01T13:38:01.000Z</time>
      </trkpt>
      <trkpt lat="42.84849" lon="0.50198">
        <ele>1676</ele>
        <time>2020-02-01T13:38:02.000Z</time>
      </trkpt>
      <trkpt lat="42.84848" lon="0.50197">
        <ele>1676</ele>
        <time>2020-02-01T13:38:03.000Z</time>
      </trkpt>
      <trkpt lat="42.84849" lon="0.50197">
        <ele>1676</ele>
        <time>2020-02-01T13:38:04.000Z</time>
      </trkpt>
      <trkpt lat="42.84849" lon="0.50197">
        <ele>1676</ele>
        <time>2020-02-01T13:38:05.000Z</time>
      </trkpt>
      <trkpt lat="42.84849" lon="0.50197">
        <ele>1676</ele>
        <time>2020-02-01T13:38:06.000Z</time>
      </trkpt>
      <trkpt lat="42.84849" lon="0.50197">
        <ele>1676</ele>
        <time>2020-02-01T13:38:07.000Z</time>
      </trkpt>
      <trkpt lat="42.84849" lon="0.50196">
        <ele>1676</ele>
        <time>2020-02-01T13:38:08.000Z</time>
      </trkpt>
      <trkpt lat="42.84848" lon="0.50196">
        <ele>1675.7</ele>
        <time>2020-02-01T13:38:09.000Z</time>
      </trkpt>
      <trkpt lat="42.84848" lon="0.50196">
        <ele>1675.3</ele>
        <time>2020-02-01T13:38:10.000Z</time>
      </trkpt>
      <trkpt lat="42.84848" lon="0.50196">
        <ele>1675</ele>
        <time>2020-02-01T13:38:11.000Z</time>
      </trkpt>
      <trkpt lat="42.84848" lon="0.50196">
        <ele>1675</ele>
        <time>2020-02-01T13:38:12.000Z</time>
      </trkpt>
      <trkpt lat="42.84848" lon="0.50196">
        <ele>1675</ele>
        <time>2020-02-01T13:38:13.000Z</time>
      </trkpt>
      <trkpt lat="42.84848" lon="0.50196">
        <ele>1675</ele>
        <time>2020-02-01T13:38:14.000Z</time>
      </trkpt>
      <trkpt lat="42.84848" lon="0.50196">
        <ele>1675</ele>
        <time>2020-02-01T13:38:15.000Z</time>
      </trkpt>
      <trkpt lat="42.84848" lon="0.50196">
        <ele>1675</ele>
        <time>2020-02-01T13:38:16.000Z</time>
      </trkpt>
      <trkpt lat="42.84848" lon="0.50196">
        <ele>1675</ele>
        <time>2020-02-01T13:38:17.000Z</time>
      </trkpt>
      <trkpt lat="42.84848" lon="0.50195">
        <ele>1675</ele>
        <time>2020-02-01T13:38:18.000Z</time>
      </trkpt>
      <trkpt lat="42.84847" lon="0.50195">
        <ele>1675</ele>
        <time>2020-02-01T13:38:19.000Z</time>
      </trkpt>
      <trkpt lat="42.84847" lon="0.50194">
        <ele>1675</ele>
        <time>2020-02-01T13:38:20.000Z</time>
      </trkpt>
      <trkpt lat="42.84846" lon="0.50193">
        <ele>1675</ele>
        <time>2020-02-01T13:38:21.000Z</time>
      </trkpt>
      <trkpt lat="42.84845" lon="0.50193">
        <ele>1675</ele>
        <time>2020-02-01T13:38:22.000Z</time>
      </trkpt>
      <trkpt lat="42.84845" lon="0.50192">
        <ele>1675</ele>
        <time>2020-02-01T13:38:23.000Z</time>
      </trkpt>
      <trkpt lat="42.84845" lon="0.50192">
        <ele>1675</ele>
        <time>2020-02-01T13:38:24.000Z</time>
      </trkpt>
      <trkpt lat="42.84845" lon="0.50192">
        <ele>1675</ele>
        <time>2020-02-01T13:38:25.000Z</time>
      </trkpt>
      <trkpt lat="42.84845" lon="0.50191">
        <ele>1675</ele>
        <time>2020-02-01T13:38:26.000Z</time>
      </trkpt>
      <trkpt lat="42.84844" lon="0.50191">
        <ele>1676</ele>
        <time>2020-02-01T13:38:27.000Z</time>
      </trkpt>
      <trkpt lat="42.84844" lon="0.50191">
        <ele>1676</ele>
        <time>2020-02-01T13:38:28.000Z</time>
      </trkpt>
      <trkpt lat="42.84844" lon="0.50191">
        <ele>1676</ele>
        <time>2020-02-01T13:38:29.000Z</time>
      </trkpt>
      <trkpt lat="42.84844" lon="0.50191">
        <ele>1676</ele>
        <time>2020-02-01T13:38:30.000Z</time>
      </trkpt>
      <trkpt lat="42.84844" lon="0.50191">
        <ele>1676</ele>
        <time>2020-02-01T13:38:31.000Z</time>
      </trkpt>
      <trkpt lat="42.84844" lon="0.50191">
        <ele>1676</ele>
        <time>2020-02-01T13:38:32.000Z</time>
      </trkpt>
      <trkpt lat="42.84844" lon="0.50191">
        <ele>1676</ele>
        <time>2020-02-01T13:38:33.000Z</time>
      </trkpt>
      <trkpt lat="42.84844" lon="0.50191">
        <ele>1676</ele>
        <time>2020-02-01T13:38:34.000Z</time>
      </trkpt>
      <trkpt lat="42.84844" lon="0.50191">
        <ele>1676</ele>
        <time>2020-02-01T13:38:35.000Z</time>
      </trkpt>
      <trkpt lat="42.84844" lon="0.50191">
        <ele>1676</ele>
        <time>2020-02-01T13:38:36.000Z</time>
      </trkpt>
      <trkpt lat="42.84844" lon="0.50191">
        <ele>1676</ele>
        <time>2020-02-01T13:38:37.000Z</time>
      </trkpt>
      <trkpt lat="42.84844" lon="0.50191">
        <ele>1676</ele>
        <time>2020-02-01T13:38:38.000Z</time>
      </trkpt>
      <trkpt lat="42.84844" lon="0.50191">
        <ele>1676</ele>
        <time>2020-02-01T13:38:39.000Z</time>
      </trkpt>
      <trkpt lat="42.84844" lon="0.50191">
        <ele>1676</ele>
        <time>2020-02-01T13:38:40.000Z</time>
      </trkpt>
      <trkpt lat="42.84845" lon="0.50191">
        <ele>1676</ele>
        <time>2020-02-01T13:38:41.000Z</time>
      </trkpt>
      <trkpt lat="42.84845" lon="0.50191">
        <ele>1676</ele>
        <time>2020-02-01T13:38:42.000Z</time>
      </trkpt>
      <trkpt lat="42.84845" lon="0.50191">
        <ele>1676</ele>
        <time>2020-02-01T13:38:43.000Z</time>
      </trkpt>
      <trkpt lat="42.84845" lon="0.50191">
        <ele>1676</ele>
        <time>2020-02-01T13:38:44.000Z</time>
      </trkpt>
      <trkpt lat="42.84845" lon="0.50191">
        <ele>1676</ele>
        <time>2020-02-01T13:38:45.000Z</time>
      </trkpt>
      <trkpt lat="42.84845" lon="0.50191">
        <ele>1676</ele>
        <time>2020-02-01T13:38:46.000Z</time>
      </trkpt>
      <trkpt lat="42.84845" lon="0.50191">
        <ele>1676</ele>
        <time>2020-02-01T13:38:47.000Z</time>
      </trkpt>
      <trkpt lat="42.84845" lon="0.50191">
        <ele>1676</ele>
        <time>2020-02-01T13:38:48.000Z</time>
      </trkpt>
      <trkpt lat="42.84845" lon="0.50191">
        <ele>1676</ele>
        <time>2020-02-01T13:38:49.000Z</time>
      </trkpt>
      <trkpt lat="42.84845" lon="0.50191">
        <ele>1676</ele>
        <time>2020-02-01T13:38:50.000Z</time>
      </trkpt>
      <trkpt lat="42.84845" lon="0.50191">
        <ele>1676</ele>
        <time>2020-02-01T13:38:51.000Z</time>
      </trkpt>
      <trkpt lat="42.84845" lon="0.50191">
        <ele>1676</ele>
        <time>2020-02-01T13:38:52.000Z</time>
      </trkpt>
      <trkpt lat="42.84845" lon="0.50191">
        <ele>1676</ele>
        <time>2020-02-01T13:38:53.000Z</time>
      </trkpt>
      <trkpt lat="42.84845" lon="0.50191">
        <ele>1676</ele>
        <time>2020-02-01T13:38:54.000Z</time>
      </trkpt>
      <trkpt lat="42.84845" lon="0.50191">
        <ele>1676</ele>
        <time>2020-02-01T13:38:55.000Z</time>
      </trkpt>
      <trkpt lat="42.84845" lon="0.50191">
        <ele>1676</ele>
        <time>2020-02-01T13:38:56.000Z</time>
      </trkpt>
      <trkpt lat="42.84845" lon="0.50191">
        <ele>1676</ele>
        <time>2020-02-01T13:38:57.000Z</time>
      </trkpt>
      <trkpt lat="42.84846" lon="0.50191">
        <ele>1676</ele>
        <time>2020-02-01T13:38:58.000Z</time>
      </trkpt>
      <trkpt lat="42.84846" lon="0.50191">
        <ele>1676</ele>
        <time>2020-02-01T13:38:59.000Z</time>
      </trkpt>
      <trkpt lat="42.84847" lon="0.50191">
        <ele>1676.5</ele>
        <time>2020-02-01T13:39:00.000Z</time>
      </trkpt>
      <trkpt lat="42.84847" lon="0.5019">
        <ele>1677</ele>
        <time>2020-02-01T13:39:01.000Z</time>
      </trkpt>
      <trkpt lat="42.84848" lon="0.5019">
        <ele>1677</ele>
        <time>2020-02-01T13:39:02.000Z</time>
      </trkpt>
      <trkpt lat="42.84848" lon="0.5019">
        <ele>1677</ele>
        <time>2020-02-01T13:39:03.000Z</time>
      </trkpt>
      <trkpt lat="42.84849" lon="0.5019">
        <ele>1678</ele>
        <time>2020-02-01T13:39:04.000Z</time>
      </trkpt>
      <trkpt lat="42.84849" lon="0.5019">
        <ele>1678</ele>
        <time>2020-02-01T13:39:05.000Z</time>
      </trkpt>
      <trkpt lat="42.84849" lon="0.50189">
        <ele>1678</ele>
        <time>2020-02-01T13:39:06.000Z</time>
      </trkpt>
      <trkpt lat="42.8485" lon="0.50189">
        <ele>1678</ele>
        <time>2020-02-01T13:39:07.000Z</time>
      </trkpt>
      <trkpt lat="42.8485" lon="0.50189">
        <ele>1678</ele>
        <time>2020-02-01T13:39:08.000Z</time>
      </trkpt>
      <trkpt lat="42.8485" lon="0.50189">
        <ele>1678</ele>
        <time>2020-02-01T13:39:09.000Z</time>
      </trkpt>
      <trkpt lat="42.8485" lon="0.50188">
        <ele>1678.5</ele>
        <time>2020-02-01T13:39:10.000Z</time>
      </trkpt>
      <trkpt lat="42.8485" lon="0.50188">
        <ele>1679</ele>
        <time>2020-02-01T13:39:11.000Z</time>
      </trkpt>
      <trkpt lat="42.84851" lon="0.50188">
        <ele>1679</ele>
        <time>2020-02-01T13:39:12.000Z</time>
      </trkpt>
      <trkpt lat="42.84851" lon="0.50187">
        <ele>1679</ele>
        <time>2020-02-01T13:39:13.000Z</time>
      </trkpt>
      <trkpt lat="42.84851" lon="0.50187">
        <ele>1679</ele>
        <time>2020-02-01T13:39:14.000Z</time>
      </trkpt>
      <trkpt lat="42.84851" lon="0.50187">
        <ele>1679.3</ele>
        <time>2020-02-01T13:39:15.000Z</time>
      </trkpt>
      <trkpt lat="42.84851" lon="0.50187">
        <ele>1679.7</ele>
        <time>2020-02-01T13:39:16.000Z</time>
      </trkpt>
      <trkpt lat="42.84852" lon="0.50187">
        <ele>1680</ele>
        <time>2020-02-01T13:39:17.000Z</time>
      </trkpt>
      <trkpt lat="42.84852" lon="0.50187">
        <ele>1680</ele>
        <time>2020-02-01T13:39:18.000Z</time>
      </trkpt>
      <trkpt lat="42.84852" lon="0.50187">
        <ele>1680</ele>
        <time>2020-02-01T13:39:19.000Z</time>
      </trkpt>
      <trkpt lat="42.84853" lon="0.50187">
        <ele>1680</ele>
        <time>2020-02-01T13:39:20.000Z</time>
      </trkpt>
      <trkpt lat="42.84853" lon="0.50186">
        <ele>1680</ele>
        <time>2020-02-01T13:39:21.000Z</time>
      </trkpt>
      <trkpt lat="42.84853" lon="0.50186">
        <ele>1680</ele>
        <time>2020-02-01T13:39:22.000Z</time>
      </trkpt>
      <trkpt lat="42.84853" lon="0.50186">
        <ele>1680</ele>
        <time>2020-02-01T13:39:23.000Z</time>
      </trkpt>
      <trkpt lat="42.84854" lon="0.50186">
        <ele>1680.5</ele>
        <time>2020-02-01T13:39:24.000Z</time>
      </trkpt>
      <trkpt lat="42.84854" lon="0.50185">
        <ele>1681</ele>
        <time>2020-02-01T13:39:25.000Z</time>
      </trkpt>
      <trkpt lat="42.84854" lon="0.50185">
        <ele>1681</ele>
        <time>2020-02-01T13:39:26.000Z</time>
      </trkpt>
      <trkpt lat="42.84855" lon="0.50184">
        <ele>1681</ele>
        <time>2020-02-01T13:39:27.000Z</time>
      </trkpt>
      <trkpt lat="42.84855" lon="0.50184">
        <ele>1681</ele>
        <time>2020-02-01T13:39:28.000Z</time>
      </trkpt>
      <trkpt lat="42.84855" lon="0.50183">
        <ele>1681</ele>
        <time>2020-02-01T13:39:29.000Z</time>
      </trkpt>
      <trkpt lat="42.84855" lon="0.50183">
        <ele>1681.5</ele>
        <time>2020-02-01T13:39:30.000Z</time>
      </trkpt>
      <trkpt lat="42.84856" lon="0.50183">
        <ele>1682</ele>
        <time>2020-02-01T13:39:31.000Z</time>
      </trkpt>
      <trkpt lat="42.84856" lon="0.50182">
        <ele>1682</ele>
        <time>2020-02-01T13:39:32.000Z</time>
      </trkpt>
      <trkpt lat="42.84856" lon="0.50182">
        <ele>1682</ele>
        <time>2020-02-01T13:39:33.000Z</time>
      </trkpt>
      <trkpt lat="42.84857" lon="0.50182">
        <ele>1682</ele>
        <time>2020-02-01T13:39:34.000Z</time>
      </trkpt>
      <trkpt lat="42.84857" lon="0.50182">
        <ele>1682</ele>
        <time>2020-02-01T13:39:35.000Z</time>
      </trkpt>
      <trkpt lat="42.84857" lon="0.50182">
        <ele>1682.5</ele>
        <time>2020-02-01T13:39:36.000Z</time>
      </trkpt>
      <trkpt lat="42.84857" lon="0.50182">
        <ele>1683</ele>
        <time>2020-02-01T13:39:37.000Z</time>
      </trkpt>
      <trkpt lat="42.84857" lon="0.50181">
        <ele>1683</ele>
        <time>2020-02-01T13:39:38.000Z</time>
      </trkpt>
      <trkpt lat="42.84857" lon="0.50181">
        <ele>1683</ele>
        <time>2020-02-01T13:39:39.000Z</time>
      </trkpt>
      <trkpt lat="42.84857" lon="0.50181">
        <ele>1683</ele>
        <time>2020-02-01T13:39:40.000Z</time>
      </trkpt>
      <trkpt lat="42.84857" lon="0.50182">
        <ele>1683</ele>
        <time>2020-02-01T13:39:41.000Z</time>
      </trkpt>
      <trkpt lat="42.84857" lon="0.50182">
        <ele>1683</ele>
        <time>2020-02-01T13:39:42.000Z</time>
      </trkpt>
      <trkpt lat="42.84857" lon="0.50182">
        <ele>1683</ele>
        <time>2020-02-01T13:39:43.000Z</time>
      </trkpt>
      <trkpt lat="42.84857" lon="0.50181">
        <ele>1683</ele>
        <time>2020-02-01T13:39:44.000Z</time>
      </trkpt>
      <trkpt lat="42.84857" lon="0.50181">
        <ele>1683</ele>
        <time>2020-02-01T13:39:45.000Z</time>
      </trkpt>
      <trkpt lat="42.84857" lon="0.50181">
        <ele>1683</ele>
        <time>2020-02-01T13:39:46.000Z</time>
      </trkpt>
      <trkpt lat="42.84857" lon="0.50181">
        <ele>1683</ele>
        <time>2020-02-01T13:39:47.000Z</time>
      </trkpt>
      <trkpt lat="42.84857" lon="0.50181">
        <ele>1683</ele>
        <time>2020-02-01T13:39:48.000Z</time>
      </trkpt>
      <trkpt lat="42.84858" lon="0.5018">
        <ele>1683</ele>
        <time>2020-02-01T13:39:49.000Z</time>
      </trkpt>
      <trkpt lat="42.84858" lon="0.5018">
        <ele>1684</ele>
        <time>2020-02-01T13:39:50.000Z</time>
      </trkpt>
      <trkpt lat="42.84858" lon="0.5018">
        <ele>1684</ele>
        <time>2020-02-01T13:39:51.000Z</time>
      </trkpt>
      <trkpt lat="42.84858" lon="0.5018">
        <ele>1684</ele>
        <time>2020-02-01T13:39:52.000Z</time>
      </trkpt>
      <trkpt lat="42.84858" lon="0.5018">
        <ele>1684</ele>
        <time>2020-02-01T13:39:53.000Z</time>
      </trkpt>
      <trkpt lat="42.84858" lon="0.5018">
        <ele>1684</ele>
        <time>2020-02-01T13:39:54.000Z</time>
      </trkpt>
      <trkpt lat="42.84858" lon="0.5018">
        <ele>1684</ele>
        <time>2020-02-01T13:39:55.000Z</time>
      </trkpt>
      <trkpt lat="42.84858" lon="0.5018">
        <ele>1684</ele>
        <time>2020-02-01T13:39:56.000Z</time>
      </trkpt>
      <trkpt lat="42.84857" lon="0.50179">
        <ele>1684</ele>
        <time>2020-02-01T13:39:57.000Z</time>
      </trkpt>
      <trkpt lat="42.84857" lon="0.50178">
        <ele>1684</ele>
        <time>2020-02-01T13:39:58.000Z</time>
      </trkpt>
      <trkpt lat="42.84857" lon="0.50178">
        <ele>1684</ele>
        <time>2020-02-01T13:39:59.000Z</time>
      </trkpt>
      <trkpt lat="42.84856" lon="0.50178">
        <ele>1684.5</ele>
        <time>2020-02-01T13:40:00.000Z</time>
      </trkpt>
      <trkpt lat="42.84856" lon="0.50178">
        <ele>1685</ele>
        <time>2020-02-01T13:40:01.000Z</time>
      </trkpt>
      <trkpt lat="42.84856" lon="0.50178">
        <ele>1685</ele>
        <time>2020-02-01T13:40:02.000Z</time>
      </trkpt>
      <trkpt lat="42.84856" lon="0.50178">
        <ele>1685</ele>
        <time>2020-02-01T13:40:03.000Z</time>
      </trkpt>
      <trkpt lat="42.84856" lon="0.50178">
        <ele>1685.5</ele>
        <time>2020-02-01T13:40:04.000Z</time>
      </trkpt>
      <trkpt lat="42.84857" lon="0.50178">
        <ele>1686</ele>
        <time>2020-02-01T13:40:05.000Z</time>
      </trkpt>
      <trkpt lat="42.84857" lon="0.50178">
        <ele>1686</ele>
        <time>2020-02-01T13:40:06.000Z</time>
      </trkpt>
      <trkpt lat="42.84857" lon="0.50178">
        <ele>1686</ele>
        <time>2020-02-01T13:40:07.000Z</time>
      </trkpt>
      <trkpt lat="42.84857" lon="0.50178">
        <ele>1687</ele>
        <time>2020-02-01T13:40:08.000Z</time>
      </trkpt>
      <trkpt lat="42.84858" lon="0.50177">
        <ele>1687</ele>
        <time>2020-02-01T13:40:09.000Z</time>
      </trkpt>
      <trkpt lat="42.84858" lon="0.50177">
        <ele>1687</ele>
        <time>2020-02-01T13:40:10.000Z</time>
      </trkpt>
      <trkpt lat="42.84858" lon="0.50176">
        <ele>1687</ele>
        <time>2020-02-01T13:40:11.000Z</time>
      </trkpt>
      <trkpt lat="42.84858" lon="0.50176">
        <ele>1687</ele>
        <time>2020-02-01T13:40:12.000Z</time>
      </trkpt>
      <trkpt lat="42.84858" lon="0.50176">
        <ele>1687</ele>
        <time>2020-02-01T13:40:13.000Z</time>
      </trkpt>
      <trkpt lat="42.84858" lon="0.50176">
        <ele>1687</ele>
        <time>2020-02-01T13:40:14.000Z</time>
      </trkpt>
      <trkpt lat="42.84859" lon="0.50176">
        <ele>1687</ele>
        <time>2020-02-01T13:40:15.000Z</time>
      </trkpt>
      <trkpt lat="42.84859" lon="0.50176">
        <ele>1687</ele>
        <time>2020-02-01T13:40:16.000Z</time>
      </trkpt>
      <trkpt lat="42.8486" lon="0.50176">
        <ele>1687</ele>
        <time>2020-02-01T13:40:17.000Z</time>
      </trkpt>
      <trkpt lat="42.84861" lon="0.50176">
        <ele>1687</ele>
        <time>2020-02-01T13:40:18.000Z</time>
      </trkpt>
      <trkpt lat="42.84862" lon="0.50176">
        <ele>1687</ele>
        <time>2020-02-01T13:40:19.000Z</time>
      </trkpt>
      <trkpt lat="42.84863" lon="0.50176">
        <ele>1687.5</ele>
        <time>2020-02-01T13:40:20.000Z</time>
      </trkpt>
      <trkpt lat="42.84864" lon="0.50176">
        <ele>1688</ele>
        <time>2020-02-01T13:40:21.000Z</time>
      </trkpt>
      <trkpt lat="42.84865" lon="0.50177">
        <ele>1688</ele>
        <time>2020-02-01T13:40:22.000Z</time>
      </trkpt>
      <trkpt lat="42.84866" lon="0.50177">
        <ele>1688</ele>
        <time>2020-02-01T13:40:23.000Z</time>
      </trkpt>
      <trkpt lat="42.84867" lon="0.50177">
        <ele>1688</ele>
        <time>2020-02-01T13:40:24.000Z</time>
      </trkpt>
      <trkpt lat="42.84868" lon="0.50177">
        <ele>1688</ele>
        <time>2020-02-01T13:40:25.000Z</time>
      </trkpt>
      <trkpt lat="42.84868" lon="0.50178">
        <ele>1688</ele>
        <time>2020-02-01T13:40:26.000Z</time>
      </trkpt>
      <trkpt lat="42.84869" lon="0.50178">
        <ele>1688</ele>
        <time>2020-02-01T13:40:27.000Z</time>
      </trkpt>
      <trkpt lat="42.8487" lon="0.50179">
        <ele>1688.5</ele>
        <time>2020-02-01T13:40:28.000Z</time>
      </trkpt>
      <trkpt lat="42.84871" lon="0.50179">
        <ele>1689</ele>
        <time>2020-02-01T13:40:29.000Z</time>
      </trkpt>
      <trkpt lat="42.84871" lon="0.50179">
        <ele>1689</ele>
        <time>2020-02-01T13:40:30.000Z</time>
      </trkpt>
      <trkpt lat="42.84872" lon="0.50179">
        <ele>1689</ele>
        <time>2020-02-01T13:40:31.000Z</time>
      </trkpt>
      <trkpt lat="42.84872" lon="0.50179">
        <ele>1689.5</ele>
        <time>2020-02-01T13:40:32.000Z</time>
      </trkpt>
      <trkpt lat="42.84873" lon="0.50179">
        <ele>1690</ele>
        <time>2020-02-01T13:40:33.000Z</time>
      </trkpt>
      <trkpt lat="42.84873" lon="0.50179">
        <ele>1690</ele>
        <time>2020-02-01T13:40:34.000Z</time>
      </trkpt>
      <trkpt lat="42.84874" lon="0.50179">
        <ele>1690</ele>
        <time>2020-02-01T13:40:35.000Z</time>
      </trkpt>
      <trkpt lat="42.84874" lon="0.50178">
        <ele>1690</ele>
        <time>2020-02-01T13:40:36.000Z</time>
      </trkpt>
      <trkpt lat="42.84874" lon="0.50178">
        <ele>1690.3</ele>
        <time>2020-02-01T13:40:37.000Z</time>
      </trkpt>
      <trkpt lat="42.84875" lon="0.50178">
        <ele>1690.7</ele>
        <time>2020-02-01T13:40:38.000Z</time>
      </trkpt>
      <trkpt lat="42.84876" lon="0.50177">
        <ele>1691</ele>
        <time>2020-02-01T13:40:39.000Z</time>
      </trkpt>
      <trkpt lat="42.84876" lon="0.50177">
        <ele>1691</ele>
        <time>2020-02-01T13:40:40.000Z</time>
      </trkpt>
      <trkpt lat="42.84877" lon="0.50176">
        <ele>1691</ele>
        <time>2020-02-01T13:40:41.000Z</time>
      </trkpt>
      <trkpt lat="42.84877" lon="0.50176">
        <ele>1691</ele>
        <time>2020-02-01T13:40:42.000Z</time>
      </trkpt>
      <trkpt lat="42.84878" lon="0.50176">
        <ele>1691</ele>
        <time>2020-02-01T13:40:43.000Z</time>
      </trkpt>
      <trkpt lat="42.84878" lon="0.50175">
        <ele>1691</ele>
        <time>2020-02-01T13:40:44.000Z</time>
      </trkpt>
      <trkpt lat="42.84879" lon="0.50175">
        <ele>1691</ele>
        <time>2020-02-01T13:40:45.000Z</time>
      </trkpt>
      <trkpt lat="42.84879" lon="0.50175">
        <ele>1691.5</ele>
        <time>2020-02-01T13:40:46.000Z</time>
      </trkpt>
      <trkpt lat="42.84879" lon="0.50175">
        <ele>1692</ele>
        <time>2020-02-01T13:40:47.000Z</time>
      </trkpt>
      <trkpt lat="42.84879" lon="0.50175">
        <ele>1691</ele>
        <time>2020-02-01T13:40:48.000Z</time>
      </trkpt>
      <trkpt lat="42.84879" lon="0.50175">
        <ele>1691</ele>
        <time>2020-02-01T13:40:49.000Z</time>
      </trkpt>
      <trkpt lat="42.84879" lon="0.50175">
        <ele>1691</ele>
        <time>2020-02-01T13:40:50.000Z</time>
      </trkpt>
      <trkpt lat="42.84879" lon="0.50175">
        <ele>1691</ele>
        <time>2020-02-01T13:40:51.000Z</time>
      </trkpt>
      <trkpt lat="42.84879" lon="0.50174">
        <ele>1691</ele>
        <time>2020-02-01T13:40:52.000Z</time>
      </trkpt>
      <trkpt lat="42.84879" lon="0.50174">
        <ele>1691</ele>
        <time>2020-02-01T13:40:53.000Z</time>
      </trkpt>
      <trkpt lat="42.84879" lon="0.50174">
        <ele>1691</ele>
        <time>2020-02-01T13:40:54.000Z</time>
      </trkpt>
      <trkpt lat="42.84879" lon="0.50174">
        <ele>1691</ele>
        <time>2020-02-01T13:40:55.000Z</time>
      </trkpt>
      <trkpt lat="42.84879" lon="0.50174">
        <ele>1691</ele>
        <time>2020-02-01T13:40:56.000Z</time>
      </trkpt>
      <trkpt lat="42.84879" lon="0.50174">
        <ele>1691</ele>
        <time>2020-02-01T13:40:57.000Z</time>
      </trkpt>
      <trkpt lat="42.84879" lon="0.50174">
        <ele>1691</ele>
        <time>2020-02-01T13:40:58.000Z</time>
      </trkpt>
      <trkpt lat="42.84879" lon="0.50174">
        <ele>1691</ele>
        <time>2020-02-01T13:40:59.000Z</time>
      </trkpt>
      <trkpt lat="42.84879" lon="0.50174">
        <ele>1691</ele>
        <time>2020-02-01T13:41:00.000Z</time>
      </trkpt>
      <trkpt lat="42.84879" lon="0.50174">
        <ele>1691</ele>
        <time>2020-02-01T13:41:01.000Z</time>
      </trkpt>
      <trkpt lat="42.84879" lon="0.50175">
        <ele>1690.5</ele>
        <time>2020-02-01T13:41:02.000Z</time>
      </trkpt>
      <trkpt lat="42.8488" lon="0.50175">
        <ele>1690</ele>
        <time>2020-02-01T13:41:03.000Z</time>
      </trkpt>
      <trkpt lat="42.8488" lon="0.50176">
        <ele>1690</ele>
        <time>2020-02-01T13:41:04.000Z</time>
      </trkpt>
      <trkpt lat="42.84881" lon="0.50176">
        <ele>1690</ele>
        <time>2020-02-01T13:41:05.000Z</time>
      </trkpt>
      <trkpt lat="42.84881" lon="0.50177">
        <ele>1689.5</ele>
        <time>2020-02-01T13:41:06.000Z</time>
      </trkpt>
      <trkpt lat="42.84882" lon="0.50177">
        <ele>1689</ele>
        <time>2020-02-01T13:41:07.000Z</time>
      </trkpt>
      <trkpt lat="42.84882" lon="0.50178">
        <ele>1689</ele>
        <time>2020-02-01T13:41:08.000Z</time>
      </trkpt>
      <trkpt lat="42.84882" lon="0.50178">
        <ele>1689</ele>
        <time>2020-02-01T13:41:09.000Z</time>
      </trkpt>
      <trkpt lat="42.84882" lon="0.50179">
        <ele>1689</ele>
        <time>2020-02-01T13:41:10.000Z</time>
      </trkpt>
      <trkpt lat="42.84882" lon="0.50179">
        <ele>1689</ele>
        <time>2020-02-01T13:41:11.000Z</time>
      </trkpt>
      <trkpt lat="42.84883" lon="0.50179">
        <ele>1688</ele>
        <time>2020-02-01T13:41:12.000Z</time>
      </trkpt>
      <trkpt lat="42.84883" lon="0.5018">
        <ele>1688</ele>
        <time>2020-02-01T13:41:13.000Z</time>
      </trkpt>
      <trkpt lat="42.84883" lon="0.5018">
        <ele>1688</ele>
        <time>2020-02-01T13:41:14.000Z</time>
      </trkpt>
      <trkpt lat="42.84883" lon="0.5018">
        <ele>1688</ele>
        <time>2020-02-01T13:41:15.000Z</time>
      </trkpt>
      <trkpt lat="42.84883" lon="0.50181">
        <ele>1688</ele>
        <time>2020-02-01T13:41:16.000Z</time>
      </trkpt>
      <trkpt lat="42.84884" lon="0.50181">
        <ele>1688</ele>
        <time>2020-02-01T13:41:17.000Z</time>
      </trkpt>
      <trkpt lat="42.84884" lon="0.50182">
        <ele>1688</ele>
        <time>2020-02-01T13:41:18.000Z</time>
      </trkpt>
      <trkpt lat="42.84884" lon="0.50182">
        <ele>1688</ele>
        <time>2020-02-01T13:41:19.000Z</time>
      </trkpt>
      <trkpt lat="42.84884" lon="0.50182">
        <ele>1687.5</ele>
        <time>2020-02-01T13:41:20.000Z</time>
      </trkpt>
      <trkpt lat="42.84884" lon="0.50183">
        <ele>1687</ele>
        <time>2020-02-01T13:41:21.000Z</time>
      </trkpt>
      <trkpt lat="42.84885" lon="0.50183">
        <ele>1687</ele>
        <time>2020-02-01T13:41:22.000Z</time>
      </trkpt>
      <trkpt lat="42.84885" lon="0.50184">
        <ele>1687</ele>
        <time>2020-02-01T13:41:23.000Z</time>
      </trkpt>
      <trkpt lat="42.84885" lon="0.50184">
        <ele>1687</ele>
        <time>2020-02-01T13:41:24.000Z</time>
      </trkpt>
      <trkpt lat="42.84885" lon="0.50185">
        <ele>1687</ele>
        <time>2020-02-01T13:41:25.000Z</time>
      </trkpt>
      <trkpt lat="42.84885" lon="0.50185">
        <ele>1687</ele>
        <time>2020-02-01T13:41:26.000Z</time>
      </trkpt>
      <trkpt lat="42.84885" lon="0.50186">
        <ele>1687</ele>
        <time>2020-02-01T13:41:27.000Z</time>
      </trkpt>
      <trkpt lat="42.84885" lon="0.50186">
        <ele>1687</ele>
        <time>2020-02-01T13:41:28.000Z</time>
      </trkpt>
      <trkpt lat="42.84885" lon="0.50186">
        <ele>1687</ele>
        <time>2020-02-01T13:41:29.000Z</time>
      </trkpt>
      <trkpt lat="42.84885" lon="0.50187">
        <ele>1687</ele>
        <time>2020-02-01T13:41:30.000Z</time>
      </trkpt>
      <trkpt lat="42.84885" lon="0.50187">
        <ele>1687</ele>
        <time>2020-02-01T13:41:31.000Z</time>
      </trkpt>
      <trkpt lat="42.84885" lon="0.50187">
        <ele>1686.5</ele>
        <time>2020-02-01T13:41:32.000Z</time>
      </trkpt>
      <trkpt lat="42.84885" lon="0.50187">
        <ele>1686</ele>
        <time>2020-02-01T13:41:33.000Z</time>
      </trkpt>
      <trkpt lat="42.84885" lon="0.50187">
        <ele>1686</ele>
        <time>2020-02-01T13:41:34.000Z</time>
      </trkpt>
      <trkpt lat="42.84885" lon="0.50187">
        <ele>1686</ele>
        <time>2020-02-01T13:41:35.000Z</time>
      </trkpt>
      <trkpt lat="42.84885" lon="0.50187">
        <ele>1686</ele>
        <time>2020-02-01T13:41:36.000Z</time>
      </trkpt>
      <trkpt lat="42.84885" lon="0.50187">
        <ele>1686</ele>
        <time>2020-02-01T13:41:37.000Z</time>
      </trkpt>
      <trkpt lat="42.84885" lon="0.50187">
        <ele>1686</ele>
        <time>2020-02-01T13:41:38.000Z</time>
      </trkpt>
      <trkpt lat="42.84885" lon="0.50187">
        <ele>1686</ele>
        <time>2020-02-01T13:41:39.000Z</time>
      </trkpt>
      <trkpt lat="42.84885" lon="0.50187">
        <ele>1686</ele>
        <time>2020-02-01T13:41:40.000Z</time>
      </trkpt>
      <trkpt lat="42.84885" lon="0.50187">
        <ele>1686</ele>
        <time>2020-02-01T13:41:41.000Z</time>
      </trkpt>
      <trkpt lat="42.84885" lon="0.50187">
        <ele>1686</ele>
        <time>2020-02-01T13:41:42.000Z</time>
      </trkpt>
      <trkpt lat="42.84885" lon="0.50187">
        <ele>1685.7</ele>
        <time>2020-02-01T13:41:43.000Z</time>
      </trkpt>
      <trkpt lat="42.84885" lon="0.50187">
        <ele>1685.3</ele>
        <time>2020-02-01T13:41:44.000Z</time>
      </trkpt>
      <trkpt lat="42.84885" lon="0.50187">
        <ele>1685</ele>
        <time>2020-02-01T13:41:45.000Z</time>
      </trkpt>
      <trkpt lat="42.84885" lon="0.50187">
        <ele>1685</ele>
        <time>2020-02-01T13:41:46.000Z</time>
      </trkpt>
      <trkpt lat="42.84885" lon="0.50187">
        <ele>1685</ele>
        <time>2020-02-01T13:41:47.000Z</time>
      </trkpt>
      <trkpt lat="42.84885" lon="0.50187">
        <ele>1685</ele>
        <time>2020-02-01T13:41:48.000Z</time>
      </trkpt>
      <trkpt lat="42.84885" lon="0.50188">
        <ele>1685</ele>
        <time>2020-02-01T13:41:49.000Z</time>
      </trkpt>
      <trkpt lat="42.84885" lon="0.50188">
        <ele>1685</ele>
        <time>2020-02-01T13:41:50.000Z</time>
      </trkpt>
      <trkpt lat="42.84885" lon="0.50188">
        <ele>1684.5</ele>
        <time>2020-02-01T13:41:51.000Z</time>
      </trkpt>
      <trkpt lat="42.84885" lon="0.50188">
        <ele>1684</ele>
        <time>2020-02-01T13:41:52.000Z</time>
      </trkpt>
      <trkpt lat="42.84885" lon="0.50188">
        <ele>1684</ele>
        <time>2020-02-01T13:41:53.000Z</time>
      </trkpt>
      <trkpt lat="42.84885" lon="0.50188">
        <ele>1684</ele>
        <time>2020-02-01T13:41:54.000Z</time>
      </trkpt>
      <trkpt lat="42.84885" lon="0.50188">
        <ele>1684</ele>
        <time>2020-02-01T13:41:55.000Z</time>
      </trkpt>
      <trkpt lat="42.84885" lon="0.50189">
        <ele>1684.5</ele>
        <time>2020-02-01T13:41:56.000Z</time>
      </trkpt>
      <trkpt lat="42.84885" lon="0.50189">
        <ele>1685</ele>
        <time>2020-02-01T13:41:57.000Z</time>
      </trkpt>
      <trkpt lat="42.84886" lon="0.50189">
        <ele>1684.5</ele>
        <time>2020-02-01T13:41:58.000Z</time>
      </trkpt>
      <trkpt lat="42.84886" lon="0.50189">
        <ele>1684</ele>
        <time>2020-02-01T13:41:59.000Z</time>
      </trkpt>
      <trkpt lat="42.84886" lon="0.5019">
        <ele>1684</ele>
        <time>2020-02-01T13:42:00.000Z</time>
      </trkpt>
      <trkpt lat="42.84886" lon="0.5019">
        <ele>1684</ele>
        <time>2020-02-01T13:42:01.000Z</time>
      </trkpt>
      <trkpt lat="42.84887" lon="0.5019">
        <ele>1684</ele>
        <time>2020-02-01T13:42:02.000Z</time>
      </trkpt>
      <trkpt lat="42.84887" lon="0.50191">
        <ele>1684</ele>
        <time>2020-02-01T13:42:03.000Z</time>
      </trkpt>
      <trkpt lat="42.84887" lon="0.50191">
        <ele>1684</ele>
        <time>2020-02-01T13:42:04.000Z</time>
      </trkpt>
      <trkpt lat="42.84888" lon="0.50191">
        <ele>1684</ele>
        <time>2020-02-01T13:42:05.000Z</time>
      </trkpt>
      <trkpt lat="42.84888" lon="0.50191">
        <ele>1684</ele>
        <time>2020-02-01T13:42:06.000Z</time>
      </trkpt>
      <trkpt lat="42.84889" lon="0.50191">
        <ele>1684</ele>
        <time>2020-02-01T13:42:07.000Z</time>
      </trkpt>
      <trkpt lat="42.84889" lon="0.50191">
        <ele>1683</ele>
        <time>2020-02-01T13:42:08.000Z</time>
      </trkpt>
      <trkpt lat="42.8489" lon="0.50191">
        <ele>1683</ele>
        <time>2020-02-01T13:42:09.000Z</time>
      </trkpt>
      <trkpt lat="42.8489" lon="0.50191">
        <ele>1683</ele>
        <time>2020-02-01T13:42:10.000Z</time>
      </trkpt>
      <trkpt lat="42.8489" lon="0.50191">
        <ele>1683</ele>
        <time>2020-02-01T13:42:11.000Z</time>
      </trkpt>
      <trkpt lat="42.8489" lon="0.50191">
        <ele>1683</ele>
        <time>2020-02-01T13:42:12.000Z</time>
      </trkpt>
      <trkpt lat="42.8489" lon="0.50191">
        <ele>1683</ele>
        <time>2020-02-01T13:42:13.000Z</time>
      </trkpt>
      <trkpt lat="42.8489" lon="0.50191">
        <ele>1682.5</ele>
        <time>2020-02-01T13:42:14.000Z</time>
      </trkpt>
      <trkpt lat="42.8489" lon="0.50191">
        <ele>1682</ele>
        <time>2020-02-01T13:42:15.000Z</time>
      </trkpt>
      <trkpt lat="42.84889" lon="0.50191">
        <ele>1682</ele>
        <time>2020-02-01T13:42:16.000Z</time>
      </trkpt>
      <trkpt lat="42.84889" lon="0.50191">
        <ele>1682</ele>
        <time>2020-02-01T13:42:17.000Z</time>
      </trkpt>
      <trkpt lat="42.84889" lon="0.50191">
        <ele>1682</ele>
        <time>2020-02-01T13:42:18.000Z</time>
      </trkpt>
      <trkpt lat="42.84888" lon="0.50191">
        <ele>1682</ele>
        <time>2020-02-01T13:42:19.000Z</time>
      </trkpt>
      <trkpt lat="42.84888" lon="0.50191">
        <ele>1682</ele>
        <time>2020-02-01T13:42:20.000Z</time>
      </trkpt>
      <trkpt lat="42.84888" lon="0.50191">
        <ele>1682</ele>
        <time>2020-02-01T13:42:21.000Z</time>
      </trkpt>
      <trkpt lat="42.84888" lon="0.50191">
        <ele>1682</ele>
        <time>2020-02-01T13:42:22.000Z</time>
      </trkpt>
      <trkpt lat="42.84888" lon="0.50191">
        <ele>1682</ele>
        <time>2020-02-01T13:42:23.000Z</time>
      </trkpt>
      <trkpt lat="42.84888" lon="0.50191">
        <ele>1682</ele>
        <time>2020-02-01T13:42:24.000Z</time>
      </trkpt>
      <trkpt lat="42.84888" lon="0.50191">
        <ele>1682</ele>
        <time>2020-02-01T13:42:25.000Z</time>
      </trkpt>
      <trkpt lat="42.84888" lon="0.50191">
        <ele>1682</ele>
        <time>2020-02-01T13:42:26.000Z</time>
      </trkpt>
      <trkpt lat="42.84888" lon="0.50191">
        <ele>1682</ele>
        <time>2020-02-01T13:42:27.000Z</time>
      </trkpt>
      <trkpt lat="42.84888" lon="0.50191">
        <ele>1682</ele>
        <time>2020-02-01T13:42:28.000Z</time>
      </trkpt>
      <trkpt lat="42.84888" lon="0.50191">
        <ele>1682</ele>
        <time>2020-02-01T13:42:29.000Z</time>
      </trkpt>
      <trkpt lat="42.84888" lon="0.50191">
        <ele>1682</ele>
        <time>2020-02-01T13:42:30.000Z</time>
      </trkpt>
      <trkpt lat="42.84888" lon="0.50191">
        <ele>1682</ele>
        <time>2020-02-01T13:42:31.000Z</time>
      </trkpt>
      <trkpt lat="42.84888" lon="0.50191">
        <ele>1682</ele>
        <time>2020-02-01T13:42:32.000Z</time>
      </trkpt>
      <trkpt lat="42.84889" lon="0.50191">
        <ele>1682</ele>
        <time>2020-02-01T13:42:33.000Z</time>
      </trkpt>
      <trkpt lat="42.84889" lon="0.50191">
        <ele>1682</ele>
        <time>2020-02-01T13:42:34.000Z</time>
      </trkpt>
      <trkpt lat="42.84889" lon="0.50192">
        <ele>1682</ele>
        <time>2020-02-01T13:42:35.000Z</time>
      </trkpt>
      <trkpt lat="42.8489" lon="0.50192">
        <ele>1682</ele>
        <time>2020-02-01T13:42:36.000Z</time>
      </trkpt>
      <trkpt lat="42.8489" lon="0.50192">
        <ele>1682</ele>
        <time>2020-02-01T13:42:37.000Z</time>
      </trkpt>
      <trkpt lat="42.8489" lon="0.50192">
        <ele>1682</ele>
        <time>2020-02-01T13:42:38.000Z</time>
      </trkpt>
      <trkpt lat="42.8489" lon="0.50191">
        <ele>1682</ele>
        <time>2020-02-01T13:42:39.000Z</time>
      </trkpt>
      <trkpt lat="42.84891" lon="0.50191">
        <ele>1681.5</ele>
        <time>2020-02-01T13:42:40.000Z</time>
      </trkpt>
      <trkpt lat="42.84891" lon="0.50191">
        <ele>1681</ele>
        <time>2020-02-01T13:42:41.000Z</time>
      </trkpt>
      <trkpt lat="42.84891" lon="0.50191">
        <ele>1681</ele>
        <time>2020-02-01T13:42:42.000Z</time>
      </trkpt>
      <trkpt lat="42.84891" lon="0.50191">
        <ele>1681</ele>
        <time>2020-02-01T13:42:43.000Z</time>
      </trkpt>
      <trkpt lat="42.84891" lon="0.5019">
        <ele>1681</ele>
        <time>2020-02-01T13:42:44.000Z</time>
      </trkpt>
      <trkpt lat="42.84891" lon="0.5019">
        <ele>1681</ele>
        <time>2020-02-01T13:42:45.000Z</time>
      </trkpt>
      <trkpt lat="42.84891" lon="0.5019">
        <ele>1681</ele>
        <time>2020-02-01T13:42:46.000Z</time>
      </trkpt>
      <trkpt lat="42.84891" lon="0.5019">
        <ele>1681</ele>
        <time>2020-02-01T13:42:47.000Z</time>
      </trkpt>
      <trkpt lat="42.84891" lon="0.5019">
        <ele>1681</ele>
        <time>2020-02-01T13:42:48.000Z</time>
      </trkpt>
      <trkpt lat="42.84891" lon="0.5019">
        <ele>1681</ele>
        <time>2020-02-01T13:42:49.000Z</time>
      </trkpt>
      <trkpt lat="42.84891" lon="0.5019">
        <ele>1681</ele>
        <time>2020-02-01T13:42:50.000Z</time>
      </trkpt>
      <trkpt lat="42.84891" lon="0.5019">
        <ele>1681</ele>
        <time>2020-02-01T13:42:51.000Z</time>
      </trkpt>
      <trkpt lat="42.84891" lon="0.5019">
        <ele>1681</ele>
        <time>2020-02-01T13:42:52.000Z</time>
      </trkpt>
      <trkpt lat="42.84891" lon="0.5019">
        <ele>1681</ele>
        <time>2020-02-01T13:42:53.000Z</time>
      </trkpt>
      <trkpt lat="42.84891" lon="0.5019">
        <ele>1681</ele>
        <time>2020-02-01T13:42:54.000Z</time>
      </trkpt>
      <trkpt lat="42.84891" lon="0.5019">
        <ele>1681</ele>
        <time>2020-02-01T13:42:55.000Z</time>
      </trkpt>
      <trkpt lat="42.84891" lon="0.5019">
        <ele>1681</ele>
        <time>2020-02-01T13:42:56.000Z</time>
      </trkpt>
      <trkpt lat="42.84892" lon="0.50189">
        <ele>1681</ele>
        <time>2020-02-01T13:42:57.000Z</time>
      </trkpt>
      <trkpt lat="42.84892" lon="0.50189">
        <ele>1680</ele>
        <time>2020-02-01T13:42:58.000Z</time>
      </trkpt>
      <trkpt lat="42.84892" lon="0.50189">
        <ele>1680</ele>
        <time>2020-02-01T13:42:59.000Z</time>
      </trkpt>
      <trkpt lat="42.84892" lon="0.50189">
        <ele>1680</ele>
        <time>2020-02-01T13:43:00.000Z</time>
      </trkpt>
      <trkpt lat="42.84893" lon="0.50189">
        <ele>1680</ele>
        <time>2020-02-01T13:43:01.000Z</time>
      </trkpt>
      <trkpt lat="42.84893" lon="0.50189">
        <ele>1680</ele>
        <time>2020-02-01T13:43:02.000Z</time>
      </trkpt>
      <trkpt lat="42.84893" lon="0.50189">
        <ele>1679.5</ele>
        <time>2020-02-01T13:43:03.000Z</time>
      </trkpt>
      <trkpt lat="42.84893" lon="0.50189">
        <ele>1679</ele>
        <time>2020-02-01T13:43:04.000Z</time>
      </trkpt>
      <trkpt lat="42.84893" lon="0.50189">
        <ele>1679</ele>
        <time>2020-02-01T13:43:05.000Z</time>
      </trkpt>
      <trkpt lat="42.84893" lon="0.50189">
        <ele>1679</ele>
        <time>2020-02-01T13:43:06.000Z</time>
      </trkpt>
      <trkpt lat="42.84894" lon="0.50189">
        <ele>1679</ele>
        <time>2020-02-01T13:43:07.000Z</time>
      </trkpt>
      <trkpt lat="42.84894" lon="0.50189">
        <ele>1679</ele>
        <time>2020-02-01T13:43:08.000Z</time>
      </trkpt>
      <trkpt lat="42.84894" lon="0.50189">
        <ele>1679</ele>
        <time>2020-02-01T13:43:09.000Z</time>
      </trkpt>
      <trkpt lat="42.84894" lon="0.50189">
        <ele>1679</ele>
        <time>2020-02-01T13:43:10.000Z</time>
      </trkpt>
      <trkpt lat="42.84894" lon="0.5019">
        <ele>1679</ele>
        <time>2020-02-01T13:43:11.000Z</time>
      </trkpt>
      <trkpt lat="42.84895" lon="0.5019">
        <ele>1679</ele>
        <time>2020-02-01T13:43:12.000Z</time>
      </trkpt>
      <trkpt lat="42.84895" lon="0.5019">
        <ele>1679</ele>
        <time>2020-02-01T13:43:13.000Z</time>
      </trkpt>
      <trkpt lat="42.84895" lon="0.5019">
        <ele>1679</ele>
        <time>2020-02-01T13:43:14.000Z</time>
      </trkpt>
      <trkpt lat="42.84895" lon="0.50191">
        <ele>1679</ele>
        <time>2020-02-01T13:43:15.000Z</time>
      </trkpt>
      <trkpt lat="42.84895" lon="0.50191">
        <ele>1678.5</ele>
        <time>2020-02-01T13:43:16.000Z</time>
      </trkpt>
      <trkpt lat="42.84895" lon="0.50191">
        <ele>1678</ele>
        <time>2020-02-01T13:43:17.000Z</time>
      </trkpt>
      <trkpt lat="42.84895" lon="0.50191">
        <ele>1678</ele>
        <time>2020-02-01T13:43:18.000Z</time>
      </trkpt>
      <trkpt lat="42.84895" lon="0.50191">
        <ele>1678</ele>
        <time>2020-02-01T13:43:19.000Z</time>
      </trkpt>
      <trkpt lat="42.84895" lon="0.50191">
        <ele>1678</ele>
        <time>2020-02-01T13:43:20.000Z</time>
      </trkpt>
      <trkpt lat="42.84895" lon="0.50191">
        <ele>1678</ele>
        <time>2020-02-01T13:43:21.000Z</time>
      </trkpt>
      <trkpt lat="42.84895" lon="0.50192">
        <ele>1678</ele>
        <time>2020-02-01T13:43:22.000Z</time>
      </trkpt>
      <trkpt lat="42.84895" lon="0.50192">
        <ele>1678</ele>
        <time>2020-02-01T13:43:23.000Z</time>
      </trkpt>
      <trkpt lat="42.84895" lon="0.50192">
        <ele>1678</ele>
        <time>2020-02-01T13:43:24.000Z</time>
      </trkpt>
      <trkpt lat="42.84895" lon="0.50192">
        <ele>1677.5</ele>
        <time>2020-02-01T13:43:25.000Z</time>
      </trkpt>
      <trkpt lat="42.84895" lon="0.50192">
        <ele>1677</ele>
        <time>2020-02-01T13:43:26.000Z</time>
      </trkpt>
      <trkpt lat="42.84895" lon="0.50193">
        <ele>1677</ele>
        <time>2020-02-01T13:43:27.000Z</time>
      </trkpt>
      <trkpt lat="42.84895" lon="0.50193">
        <ele>1677</ele>
        <time>2020-02-01T13:43:28.000Z</time>
      </trkpt>
      <trkpt lat="42.84895" lon="0.50194">
        <ele>1677</ele>
        <time>2020-02-01T13:43:29.000Z</time>
      </trkpt>
      <trkpt lat="42.84895" lon="0.50195">
        <ele>1677</ele>
        <time>2020-02-01T13:43:30.000Z</time>
      </trkpt>
      <trkpt lat="42.84894" lon="0.50195">
        <ele>1676.5</ele>
        <time>2020-02-01T13:43:31.000Z</time>
      </trkpt>
      <trkpt lat="42.84894" lon="0.50196">
        <ele>1676</ele>
        <time>2020-02-01T13:43:32.000Z</time>
      </trkpt>
      <trkpt lat="42.84894" lon="0.50196">
        <ele>1676</ele>
        <time>2020-02-01T13:43:33.000Z</time>
      </trkpt>
      <trkpt lat="42.84894" lon="0.50196">
        <ele>1676</ele>
        <time>2020-02-01T13:43:34.000Z</time>
      </trkpt>
      <trkpt lat="42.84894" lon="0.50196">
        <ele>1676</ele>
        <time>2020-02-01T13:43:35.000Z</time>
      </trkpt>
      <trkpt lat="42.84894" lon="0.50196">
        <ele>1676</ele>
        <time>2020-02-01T13:43:36.000Z</time>
      </trkpt>
      <trkpt lat="42.84894" lon="0.50196">
        <ele>1676</ele>
        <time>2020-02-01T13:43:37.000Z</time>
      </trkpt>
      <trkpt lat="42.84894" lon="0.50196">
        <ele>1676</ele>
        <time>2020-02-01T13:43:38.000Z</time>
      </trkpt>
      <trkpt lat="42.84895" lon="0.50197">
        <ele>1675.7</ele>
        <time>2020-02-01T13:43:39.000Z</time>
      </trkpt>
      <trkpt lat="42.84895" lon="0.50197">
        <ele>1675.3</ele>
        <time>2020-02-01T13:43:40.000Z</time>
      </trkpt>
      <trkpt lat="42.84895" lon="0.50197">
        <ele>1675</ele>
        <time>2020-02-01T13:43:41.000Z</time>
      </trkpt>
      <trkpt lat="42.84895" lon="0.50197">
        <ele>1674</ele>
        <time>2020-02-01T13:43:42.000Z</time>
      </trkpt>
      <trkpt lat="42.84895" lon="0.50197">
        <ele>1674</ele>
        <time>2020-02-01T13:43:43.000Z</time>
      </trkpt>
      <trkpt lat="42.84895" lon="0.50197">
        <ele>1674</ele>
        <time>2020-02-01T13:43:44.000Z</time>
      </trkpt>
      <trkpt lat="42.84895" lon="0.50197">
        <ele>1674</ele>
        <time>2020-02-01T13:43:45.000Z</time>
      </trkpt>
      <trkpt lat="42.84895" lon="0.50198">
        <ele>1674</ele>
        <time>2020-02-01T13:43:46.000Z</time>
      </trkpt>
      <trkpt lat="42.84895" lon="0.50199">
        <ele>1673.7</ele>
        <time>2020-02-01T13:43:47.000Z</time>
      </trkpt>
      <trkpt lat="42.84895" lon="0.50199">
        <ele>1673.3</ele>
        <time>2020-02-01T13:43:48.000Z</time>
      </trkpt>
      <trkpt lat="42.84896" lon="0.502">
        <ele>1673</ele>
        <time>2020-02-01T13:43:49.000Z</time>
      </trkpt>
      <trkpt lat="42.84896" lon="0.50201">
        <ele>1673</ele>
        <time>2020-02-01T13:43:50.000Z</time>
      </trkpt>
      <trkpt lat="42.84896" lon="0.50202">
        <ele>1672.7</ele>
        <time>2020-02-01T13:43:51.000Z</time>
      </trkpt>
      <trkpt lat="42.84897" lon="0.50203">
        <ele>1672.3</ele>
        <time>2020-02-01T13:43:52.000Z</time>
      </trkpt>
      <trkpt lat="42.84897" lon="0.50203">
        <ele>1672</ele>
        <time>2020-02-01T13:43:53.000Z</time>
      </trkpt>
      <trkpt lat="42.84897" lon="0.50204">
        <ele>1672</ele>
        <time>2020-02-01T13:43:54.000Z</time>
      </trkpt>
      <trkpt lat="42.84898" lon="0.50204">
        <ele>1672</ele>
        <time>2020-02-01T13:43:55.000Z</time>
      </trkpt>
      <trkpt lat="42.84898" lon="0.50205">
        <ele>1671</ele>
        <time>2020-02-01T13:43:56.000Z</time>
      </trkpt>
      <trkpt lat="42.84899" lon="0.50205">
        <ele>1671</ele>
        <time>2020-02-01T13:43:57.000Z</time>
      </trkpt>
      <trkpt lat="42.84899" lon="0.50205">
        <ele>1671</ele>
        <time>2020-02-01T13:43:58.000Z</time>
      </trkpt>
      <trkpt lat="42.849" lon="0.50205">
        <ele>1671</ele>
        <time>2020-02-01T13:43:59.000Z</time>
      </trkpt>
      <trkpt lat="42.849" lon="0.50205">
        <ele>1671</ele>
        <time>2020-02-01T13:44:00.000Z</time>
      </trkpt>
      <trkpt lat="42.84901" lon="0.50205">
        <ele>1671</ele>
        <time>2020-02-01T13:44:01.000Z</time>
      </trkpt>
      <trkpt lat="42.84901" lon="0.50205">
        <ele>1671</ele>
        <time>2020-02-01T13:44:02.000Z</time>
      </trkpt>
      <trkpt lat="42.84901" lon="0.50205">
        <ele>1671</ele>
        <time>2020-02-01T13:44:03.000Z</time>
      </trkpt>
      <trkpt lat="42.84901" lon="0.50205">
        <ele>1671</ele>
        <time>2020-02-01T13:44:04.000Z</time>
      </trkpt>
      <trkpt lat="42.84901" lon="0.50205">
        <ele>1671</ele>
        <time>2020-02-01T13:44:05.000Z</time>
      </trkpt>
      <trkpt lat="42.84901" lon="0.50205">
        <ele>1671</ele>
        <time>2020-02-01T13:44:06.000Z</time>
      </trkpt>
      <trkpt lat="42.84901" lon="0.50205">
        <ele>1671</ele>
        <time>2020-02-01T13:44:07.000Z</time>
      </trkpt>
      <trkpt lat="42.84902" lon="0.50205">
        <ele>1670.5</ele>
        <time>2020-02-01T13:44:08.000Z</time>
      </trkpt>
      <trkpt lat="42.84902" lon="0.50205">
        <ele>1670</ele>
        <time>2020-02-01T13:44:09.000Z</time>
      </trkpt>
      <trkpt lat="42.84903" lon="0.50205">
        <ele>1670</ele>
        <time>2020-02-01T13:44:10.000Z</time>
      </trkpt>
      <trkpt lat="42.84903" lon="0.50205">
        <ele>1670</ele>
        <time>2020-02-01T13:44:11.000Z</time>
      </trkpt>
      <trkpt lat="42.84904" lon="0.50205">
        <ele>1670</ele>
        <time>2020-02-01T13:44:12.000Z</time>
      </trkpt>
      <trkpt lat="42.84905" lon="0.50205">
        <ele>1669.7</ele>
        <time>2020-02-01T13:44:13.000Z</time>
      </trkpt>
      <trkpt lat="42.84905" lon="0.50206">
        <ele>1669.3</ele>
        <time>2020-02-01T13:44:14.000Z</time>
      </trkpt>
      <trkpt lat="42.84906" lon="0.50207">
        <ele>1669</ele>
        <time>2020-02-01T13:44:15.000Z</time>
      </trkpt>
      <trkpt lat="42.84906" lon="0.50208">
        <ele>1669</ele>
        <time>2020-02-01T13:44:16.000Z</time>
      </trkpt>
      <trkpt lat="42.84906" lon="0.50209">
        <ele>1668.7</ele>
        <time>2020-02-01T13:44:17.000Z</time>
      </trkpt>
      <trkpt lat="42.84906" lon="0.5021">
        <ele>1668.3</ele>
        <time>2020-02-01T13:44:18.000Z</time>
      </trkpt>
      <trkpt lat="42.84906" lon="0.50211">
        <ele>1668</ele>
        <time>2020-02-01T13:44:19.000Z</time>
      </trkpt>
      <trkpt lat="42.84906" lon="0.50212">
        <ele>1667</ele>
        <time>2020-02-01T13:44:20.000Z</time>
      </trkpt>
      <trkpt lat="42.84906" lon="0.50212">
        <ele>1667</ele>
        <time>2020-02-01T13:44:21.000Z</time>
      </trkpt>
      <trkpt lat="42.84906" lon="0.50213">
        <ele>1667</ele>
        <time>2020-02-01T13:44:22.000Z</time>
      </trkpt>
      <trkpt lat="42.84906" lon="0.50213">
        <ele>1666.7</ele>
        <time>2020-02-01T13:44:23.000Z</time>
      </trkpt>
      <trkpt lat="42.84906" lon="0.50214">
        <ele>1666.3</ele>
        <time>2020-02-01T13:44:24.000Z</time>
      </trkpt>
      <trkpt lat="42.84905" lon="0.50214">
        <ele>1666</ele>
        <time>2020-02-01T13:44:25.000Z</time>
      </trkpt>
      <trkpt lat="42.84905" lon="0.50215">
        <ele>1666</ele>
        <time>2020-02-01T13:44:26.000Z</time>
      </trkpt>
      <trkpt lat="42.84905" lon="0.50215">
        <ele>1666</ele>
        <time>2020-02-01T13:44:27.000Z</time>
      </trkpt>
      <trkpt lat="42.84905" lon="0.50216">
        <ele>1665</ele>
        <time>2020-02-01T13:44:28.000Z</time>
      </trkpt>
      <trkpt lat="42.84904" lon="0.50216">
        <ele>1665</ele>
        <time>2020-02-01T13:44:29.000Z</time>
      </trkpt>
      <trkpt lat="42.84904" lon="0.50217">
        <ele>1665</ele>
        <time>2020-02-01T13:44:30.000Z</time>
      </trkpt>
      <trkpt lat="42.84904" lon="0.50217">
        <ele>1665</ele>
        <time>2020-02-01T13:44:31.000Z</time>
      </trkpt>
      <trkpt lat="42.84903" lon="0.50218">
        <ele>1664.5</ele>
        <time>2020-02-01T13:44:32.000Z</time>
      </trkpt>
      <trkpt lat="42.84903" lon="0.50218">
        <ele>1664</ele>
        <time>2020-02-01T13:44:33.000Z</time>
      </trkpt>
      <trkpt lat="42.84903" lon="0.50219">
        <ele>1664</ele>
        <time>2020-02-01T13:44:34.000Z</time>
      </trkpt>
      <trkpt lat="42.84903" lon="0.50219">
        <ele>1664</ele>
        <time>2020-02-01T13:44:35.000Z</time>
      </trkpt>
      <trkpt lat="42.84902" lon="0.5022">
        <ele>1664</ele>
        <time>2020-02-01T13:44:36.000Z</time>
      </trkpt>
      <trkpt lat="42.84902" lon="0.5022">
        <ele>1664</ele>
        <time>2020-02-01T13:44:37.000Z</time>
      </trkpt>
      <trkpt lat="42.84902" lon="0.50221">
        <ele>1663.5</ele>
        <time>2020-02-01T13:44:38.000Z</time>
      </trkpt>
      <trkpt lat="42.84902" lon="0.50221">
        <ele>1663</ele>
        <time>2020-02-01T13:44:39.000Z</time>
      </trkpt>
      <trkpt lat="42.84901" lon="0.50222">
        <ele>1662.5</ele>
        <time>2020-02-01T13:44:40.000Z</time>
      </trkpt>
      <trkpt lat="42.84901" lon="0.50222">
        <ele>1662</ele>
        <time>2020-02-01T13:44:41.000Z</time>
      </trkpt>
      <trkpt lat="42.84901" lon="0.50223">
        <ele>1662</ele>
        <time>2020-02-01T13:44:42.000Z</time>
      </trkpt>
      <trkpt lat="42.849" lon="0.50223">
        <ele>1662</ele>
        <time>2020-02-01T13:44:43.000Z</time>
      </trkpt>
      <trkpt lat="42.849" lon="0.50223">
        <ele>1662</ele>
        <time>2020-02-01T13:44:44.000Z</time>
      </trkpt>
      <trkpt lat="42.849" lon="0.50224">
        <ele>1662</ele>
        <time>2020-02-01T13:44:45.000Z</time>
      </trkpt>
      <trkpt lat="42.84899" lon="0.50224">
        <ele>1662</ele>
        <time>2020-02-01T13:44:46.000Z</time>
      </trkpt>
      <trkpt lat="42.84899" lon="0.50224">
        <ele>1662</ele>
        <time>2020-02-01T13:44:47.000Z</time>
      </trkpt>
      <trkpt lat="42.84899" lon="0.50225">
        <ele>1662</ele>
        <time>2020-02-01T13:44:48.000Z</time>
      </trkpt>
      <trkpt lat="42.84899" lon="0.50225">
        <ele>1662</ele>
        <time>2020-02-01T13:44:49.000Z</time>
      </trkpt>
      <trkpt lat="42.84899" lon="0.50225">
        <ele>1661.5</ele>
        <time>2020-02-01T13:44:50.000Z</time>
      </trkpt>
      <trkpt lat="42.84899" lon="0.50225">
        <ele>1661</ele>
        <time>2020-02-01T13:44:51.000Z</time>
      </trkpt>
      <trkpt lat="42.84899" lon="0.50225">
        <ele>1661</ele>
        <time>2020-02-01T13:44:52.000Z</time>
      </trkpt>
      <trkpt lat="42.84899" lon="0.50226">
        <ele>1661</ele>
        <time>2020-02-01T13:44:53.000Z</time>
      </trkpt>
      <trkpt lat="42.84899" lon="0.50226">
        <ele>1661</ele>
        <time>2020-02-01T13:44:54.000Z</time>
      </trkpt>
      <trkpt lat="42.84899" lon="0.50227">
        <ele>1660.7</ele>
        <time>2020-02-01T13:44:55.000Z</time>
      </trkpt>
      <trkpt lat="42.84899" lon="0.50228">
        <ele>1660.3</ele>
        <time>2020-02-01T13:44:56.000Z</time>
      </trkpt>
      <trkpt lat="42.84899" lon="0.50229">
        <ele>1660</ele>
        <time>2020-02-01T13:44:57.000Z</time>
      </trkpt>
      <trkpt lat="42.84898" lon="0.5023">
        <ele>1660</ele>
        <time>2020-02-01T13:44:58.000Z</time>
      </trkpt>
      <trkpt lat="42.84898" lon="0.50231">
        <ele>1660</ele>
        <time>2020-02-01T13:44:59.000Z</time>
      </trkpt>
      <trkpt lat="42.84898" lon="0.50232">
        <ele>1660</ele>
        <time>2020-02-01T13:45:00.000Z</time>
      </trkpt>
      <trkpt lat="42.84898" lon="0.50233">
        <ele>1660</ele>
        <time>2020-02-01T13:45:01.000Z</time>
      </trkpt>
      <trkpt lat="42.84898" lon="0.50234">
        <ele>1659</ele>
        <time>2020-02-01T13:45:02.000Z</time>
      </trkpt>
      <trkpt lat="42.84899" lon="0.50235">
        <ele>1659</ele>
        <time>2020-02-01T13:45:03.000Z</time>
      </trkpt>
      <trkpt lat="42.84899" lon="0.50235">
        <ele>1659</ele>
        <time>2020-02-01T13:45:04.000Z</time>
      </trkpt>
      <trkpt lat="42.84899" lon="0.50236">
        <ele>1659</ele>
        <time>2020-02-01T13:45:05.000Z</time>
      </trkpt>
      <trkpt lat="42.849" lon="0.50236">
        <ele>1659</ele>
        <time>2020-02-01T13:45:06.000Z</time>
      </trkpt>
      <trkpt lat="42.849" lon="0.50237">
        <ele>1659</ele>
        <time>2020-02-01T13:45:07.000Z</time>
      </trkpt>
      <trkpt lat="42.84901" lon="0.50238">
        <ele>1658</ele>
        <time>2020-02-01T13:45:08.000Z</time>
      </trkpt>
      <trkpt lat="42.84901" lon="0.50239">
        <ele>1658</ele>
        <time>2020-02-01T13:45:09.000Z</time>
      </trkpt>
      <trkpt lat="42.84902" lon="0.50239">
        <ele>1658</ele>
        <time>2020-02-01T13:45:10.000Z</time>
      </trkpt>
      <trkpt lat="42.84902" lon="0.5024">
        <ele>1657.7</ele>
        <time>2020-02-01T13:45:11.000Z</time>
      </trkpt>
      <trkpt lat="42.84903" lon="0.5024">
        <ele>1657.3</ele>
        <time>2020-02-01T13:45:12.000Z</time>
      </trkpt>
      <trkpt lat="42.84903" lon="0.5024">
        <ele>1657</ele>
        <time>2020-02-01T13:45:13.000Z</time>
      </trkpt>
      <trkpt lat="42.84904" lon="0.50241">
        <ele>1657</ele>
        <time>2020-02-01T13:45:14.000Z</time>
      </trkpt>
      <trkpt lat="42.84904" lon="0.50241">
        <ele>1657</ele>
        <time>2020-02-01T13:45:15.000Z</time>
      </trkpt>
      <trkpt lat="42.84905" lon="0.50241">
        <ele>1657</ele>
        <time>2020-02-01T13:45:16.000Z</time>
      </trkpt>
      <trkpt lat="42.84905" lon="0.50241">
        <ele>1657</ele>
        <time>2020-02-01T13:45:17.000Z</time>
      </trkpt>
      <trkpt lat="42.84905" lon="0.50241">
        <ele>1656</ele>
        <time>2020-02-01T13:45:18.000Z</time>
      </trkpt>
      <trkpt lat="42.84906" lon="0.50242">
        <ele>1655.7</ele>
        <time>2020-02-01T13:45:19.000Z</time>
      </trkpt>
      <trkpt lat="42.84906" lon="0.50242">
        <ele>1655.3</ele>
        <time>2020-02-01T13:45:20.000Z</time>
      </trkpt>
      <trkpt lat="42.84906" lon="0.50243">
        <ele>1655</ele>
        <time>2020-02-01T13:45:21.000Z</time>
      </trkpt>
      <trkpt lat="42.84906" lon="0.50244">
        <ele>1655</ele>
        <time>2020-02-01T13:45:22.000Z</time>
      </trkpt>
      <trkpt lat="42.84906" lon="0.50245">
        <ele>1654.7</ele>
        <time>2020-02-01T13:45:23.000Z</time>
      </trkpt>
      <trkpt lat="42.84906" lon="0.50246">
        <ele>1654.3</ele>
        <time>2020-02-01T13:45:24.000Z</time>
      </trkpt>
      <trkpt lat="42.84906" lon="0.50247">
        <ele>1654</ele>
        <time>2020-02-01T13:45:25.000Z</time>
      </trkpt>
      <trkpt lat="42.84906" lon="0.50248">
        <ele>1653.5</ele>
        <time>2020-02-01T13:45:26.000Z</time>
      </trkpt>
      <trkpt lat="42.84905" lon="0.50249">
        <ele>1653</ele>
        <time>2020-02-01T13:45:27.000Z</time>
      </trkpt>
      <trkpt lat="42.84905" lon="0.5025">
        <ele>1653</ele>
        <time>2020-02-01T13:45:28.000Z</time>
      </trkpt>
      <trkpt lat="42.84905" lon="0.50251">
        <ele>1653</ele>
        <time>2020-02-01T13:45:29.000Z</time>
      </trkpt>
      <trkpt lat="42.84905" lon="0.50252">
        <ele>1653</ele>
        <time>2020-02-01T13:45:30.000Z</time>
      </trkpt>
      <trkpt lat="42.84905" lon="0.50253">
        <ele>1652.7</ele>
        <time>2020-02-01T13:45:31.000Z</time>
      </trkpt>
      <trkpt lat="42.84905" lon="0.50254">
        <ele>1652.3</ele>
        <time>2020-02-01T13:45:32.000Z</time>
      </trkpt>
      <trkpt lat="42.84904" lon="0.50255">
        <ele>1652</ele>
        <time>2020-02-01T13:45:33.000Z</time>
      </trkpt>
      <trkpt lat="42.84904" lon="0.50256">
        <ele>1651.5</ele>
        <time>2020-02-01T13:45:34.000Z</time>
      </trkpt>
      <trkpt lat="42.84904" lon="0.50257">
        <ele>1651</ele>
        <time>2020-02-01T13:45:35.000Z</time>
      </trkpt>
      <trkpt lat="42.84904" lon="0.50258">
        <ele>1651</ele>
        <time>2020-02-01T13:45:36.000Z</time>
      </trkpt>
      <trkpt lat="42.84904" lon="0.50259">
        <ele>1651</ele>
        <time>2020-02-01T13:45:37.000Z</time>
      </trkpt>
      <trkpt lat="42.84904" lon="0.5026">
        <ele>1650</ele>
        <time>2020-02-01T13:45:38.000Z</time>
      </trkpt>
      <trkpt lat="42.84904" lon="0.50261">
        <ele>1650</ele>
        <time>2020-02-01T13:45:39.000Z</time>
      </trkpt>
      <trkpt lat="42.84904" lon="0.50262">
        <ele>1650</ele>
        <time>2020-02-01T13:45:40.000Z</time>
      </trkpt>
      <trkpt lat="42.84904" lon="0.50263">
        <ele>1649.7</ele>
        <time>2020-02-01T13:45:41.000Z</time>
      </trkpt>
      <trkpt lat="42.84904" lon="0.50264">
        <ele>1649.3</ele>
        <time>2020-02-01T13:45:42.000Z</time>
      </trkpt>
      <trkpt lat="42.84905" lon="0.50265">
        <ele>1649</ele>
        <time>2020-02-01T13:45:43.000Z</time>
      </trkpt>
      <trkpt lat="42.84905" lon="0.50265">
        <ele>1648.5</ele>
        <time>2020-02-01T13:45:44.000Z</time>
      </trkpt>
      <trkpt lat="42.84905" lon="0.50266">
        <ele>1648</ele>
        <time>2020-02-01T13:45:45.000Z</time>
      </trkpt>
      <trkpt lat="42.84905" lon="0.50267">
        <ele>1648</ele>
        <time>2020-02-01T13:45:46.000Z</time>
      </trkpt>
      <trkpt lat="42.84906" lon="0.50268">
        <ele>1648</ele>
        <time>2020-02-01T13:45:47.000Z</time>
      </trkpt>
      <trkpt lat="42.84906" lon="0.50268">
        <ele>1648</ele>
        <time>2020-02-01T13:45:48.000Z</time>
      </trkpt>
      <trkpt lat="42.84906" lon="0.50269">
        <ele>1648</ele>
        <time>2020-02-01T13:45:49.000Z</time>
      </trkpt>
      <trkpt lat="42.84906" lon="0.50269">
        <ele>1648</ele>
        <time>2020-02-01T13:45:50.000Z</time>
      </trkpt>
      <trkpt lat="42.84906" lon="0.5027">
        <ele>1648</ele>
        <time>2020-02-01T13:45:51.000Z</time>
      </trkpt>
      <trkpt lat="42.84907" lon="0.5027">
        <ele>1648</ele>
        <time>2020-02-01T13:45:52.000Z</time>
      </trkpt>
      <trkpt lat="42.84907" lon="0.50271">
        <ele>1648</ele>
        <time>2020-02-01T13:45:53.000Z</time>
      </trkpt>
      <trkpt lat="42.84908" lon="0.50272">
        <ele>1647.5</ele>
        <time>2020-02-01T13:45:54.000Z</time>
      </trkpt>
      <trkpt lat="42.84909" lon="0.50273">
        <ele>1647</ele>
        <time>2020-02-01T13:45:55.000Z</time>
      </trkpt>
      <trkpt lat="42.84909" lon="0.50273">
        <ele>1647</ele>
        <time>2020-02-01T13:45:56.000Z</time>
      </trkpt>
      <trkpt lat="42.8491" lon="0.50274">
        <ele>1646.7</ele>
        <time>2020-02-01T13:45:57.000Z</time>
      </trkpt>
      <trkpt lat="42.84911" lon="0.50275">
        <ele>1646.3</ele>
        <time>2020-02-01T13:45:58.000Z</time>
      </trkpt>
      <trkpt lat="42.84911" lon="0.50276">
        <ele>1646</ele>
        <time>2020-02-01T13:45:59.000Z</time>
      </trkpt>
      <trkpt lat="42.84912" lon="0.50277">
        <ele>1646</ele>
        <time>2020-02-01T13:46:00.000Z</time>
      </trkpt>
      <trkpt lat="42.84912" lon="0.50277">
        <ele>1645.7</ele>
        <time>2020-02-01T13:46:01.000Z</time>
      </trkpt>
      <trkpt lat="42.84912" lon="0.50278">
        <ele>1645.3</ele>
        <time>2020-02-01T13:46:02.000Z</time>
      </trkpt>
      <trkpt lat="42.84913" lon="0.50279">
        <ele>1645</ele>
        <time>2020-02-01T13:46:03.000Z</time>
      </trkpt>
      <trkpt lat="42.84913" lon="0.5028">
        <ele>1645</ele>
        <time>2020-02-01T13:46:04.000Z</time>
      </trkpt>
      <trkpt lat="42.84913" lon="0.50281">
        <ele>1645</ele>
        <time>2020-02-01T13:46:05.000Z</time>
      </trkpt>
      <trkpt lat="42.84914" lon="0.50281">
        <ele>1645</ele>
        <time>2020-02-01T13:46:06.000Z</time>
      </trkpt>
      <trkpt lat="42.84914" lon="0.50282">
        <ele>1645</ele>
        <time>2020-02-01T13:46:07.000Z</time>
      </trkpt>
      <trkpt lat="42.84914" lon="0.50283">
        <ele>1645</ele>
        <time>2020-02-01T13:46:08.000Z</time>
      </trkpt>
      <trkpt lat="42.84915" lon="0.50284">
        <ele>1644.7</ele>
        <time>2020-02-01T13:46:09.000Z</time>
      </trkpt>
      <trkpt lat="42.84915" lon="0.50284">
        <ele>1644.3</ele>
        <time>2020-02-01T13:46:10.000Z</time>
      </trkpt>
      <trkpt lat="42.84916" lon="0.50284">
        <ele>1644</ele>
        <time>2020-02-01T13:46:11.000Z</time>
      </trkpt>
      <trkpt lat="42.84916" lon="0.50285">
        <ele>1644</ele>
        <time>2020-02-01T13:46:12.000Z</time>
      </trkpt>
      <trkpt lat="42.84917" lon="0.50285">
        <ele>1644</ele>
        <time>2020-02-01T13:46:13.000Z</time>
      </trkpt>
      <trkpt lat="42.84917" lon="0.50285">
        <ele>1644</ele>
        <time>2020-02-01T13:46:14.000Z</time>
      </trkpt>
      <trkpt lat="42.84918" lon="0.50286">
        <ele>1644</ele>
        <time>2020-02-01T13:46:15.000Z</time>
      </trkpt>
      <trkpt lat="42.84918" lon="0.50286">
        <ele>1643.5</ele>
        <time>2020-02-01T13:46:16.000Z</time>
      </trkpt>
      <trkpt lat="42.84918" lon="0.50286">
        <ele>1643</ele>
        <time>2020-02-01T13:46:17.000Z</time>
      </trkpt>
      <trkpt lat="42.84918" lon="0.50286">
        <ele>1642.5</ele>
        <time>2020-02-01T13:46:18.000Z</time>
      </trkpt>
      <trkpt lat="42.84918" lon="0.50286">
        <ele>1642</ele>
        <time>2020-02-01T13:46:19.000Z</time>
      </trkpt>
      <trkpt lat="42.84918" lon="0.50286">
        <ele>1642</ele>
        <time>2020-02-01T13:46:20.000Z</time>
      </trkpt>
      <trkpt lat="42.84918" lon="0.50286">
        <ele>1642</ele>
        <time>2020-02-01T13:46:21.000Z</time>
      </trkpt>
      <trkpt lat="42.84918" lon="0.50286">
        <ele>1642</ele>
        <time>2020-02-01T13:46:22.000Z</time>
      </trkpt>
      <trkpt lat="42.84918" lon="0.50286">
        <ele>1641.7</ele>
        <time>2020-02-01T13:46:23.000Z</time>
      </trkpt>
      <trkpt lat="42.84918" lon="0.50286">
        <ele>1641.3</ele>
        <time>2020-02-01T13:46:24.000Z</time>
      </trkpt>
      <trkpt lat="42.84918" lon="0.50286">
        <ele>1641</ele>
        <time>2020-02-01T13:46:25.000Z</time>
      </trkpt>
      <trkpt lat="42.84918" lon="0.50287">
        <ele>1641</ele>
        <time>2020-02-01T13:46:26.000Z</time>
      </trkpt>
      <trkpt lat="42.84918" lon="0.50287">
        <ele>1641</ele>
        <time>2020-02-01T13:46:27.000Z</time>
      </trkpt>
      <trkpt lat="42.84918" lon="0.50287">
        <ele>1641</ele>
        <time>2020-02-01T13:46:28.000Z</time>
      </trkpt>
      <trkpt lat="42.84918" lon="0.50288">
        <ele>1641</ele>
        <time>2020-02-01T13:46:29.000Z</time>
      </trkpt>
      <trkpt lat="42.84918" lon="0.50288">
        <ele>1640</ele>
        <time>2020-02-01T13:46:30.000Z</time>
      </trkpt>
      <trkpt lat="42.84918" lon="0.50289">
        <ele>1640</ele>
        <time>2020-02-01T13:46:31.000Z</time>
      </trkpt>
      <trkpt lat="42.84918" lon="0.50289">
        <ele>1640</ele>
        <time>2020-02-01T13:46:32.000Z</time>
      </trkpt>
      <trkpt lat="42.84917" lon="0.5029">
        <ele>1640</ele>
        <time>2020-02-01T13:46:33.000Z</time>
      </trkpt>
      <trkpt lat="42.84917" lon="0.5029">
        <ele>1639</ele>
        <time>2020-02-01T13:46:34.000Z</time>
      </trkpt>
      <trkpt lat="42.84916" lon="0.50291">
        <ele>1639</ele>
        <time>2020-02-01T13:46:35.000Z</time>
      </trkpt>
      <trkpt lat="42.84916" lon="0.50292">
        <ele>1639</ele>
        <time>2020-02-01T13:46:36.000Z</time>
      </trkpt>
      <trkpt lat="42.84916" lon="0.50292">
        <ele>1638.7</ele>
        <time>2020-02-01T13:46:37.000Z</time>
      </trkpt>
      <trkpt lat="42.84916" lon="0.50293">
        <ele>1638.3</ele>
        <time>2020-02-01T13:46:38.000Z</time>
      </trkpt>
      <trkpt lat="42.84916" lon="0.50294">
        <ele>1638</ele>
        <time>2020-02-01T13:46:39.000Z</time>
      </trkpt>
      <trkpt lat="42.84915" lon="0.50294">
        <ele>1638</ele>
        <time>2020-02-01T13:46:40.000Z</time>
      </trkpt>
      <trkpt lat="42.84915" lon="0.50295">
        <ele>1638</ele>
        <time>2020-02-01T13:46:41.000Z</time>
      </trkpt>
      <trkpt lat="42.84915" lon="0.50296">
        <ele>1638</ele>
        <time>2020-02-01T13:46:42.000Z</time>
      </trkpt>
      <trkpt lat="42.84915" lon="0.50297">
        <ele>1638</ele>
        <time>2020-02-01T13:46:43.000Z</time>
      </trkpt>
      <trkpt lat="42.84915" lon="0.50297">
        <ele>1637.5</ele>
        <time>2020-02-01T13:46:44.000Z</time>
      </trkpt>
      <trkpt lat="42.84915" lon="0.50298">
        <ele>1637</ele>
        <time>2020-02-01T13:46:45.000Z</time>
      </trkpt>
      <trkpt lat="42.84915" lon="0.50299">
        <ele>1637</ele>
        <time>2020-02-01T13:46:46.000Z</time>
      </trkpt>
      <trkpt lat="42.84916" lon="0.503">
        <ele>1637</ele>
        <time>2020-02-01T13:46:47.000Z</time>
      </trkpt>
      <trkpt lat="42.84916" lon="0.503">
        <ele>1636</ele>
        <time>2020-02-01T13:46:48.000Z</time>
      </trkpt>
      <trkpt lat="42.84916" lon="0.50301">
        <ele>1636</ele>
        <time>2020-02-01T13:46:49.000Z</time>
      </trkpt>
      <trkpt lat="42.84917" lon="0.50302">
        <ele>1636</ele>
        <time>2020-02-01T13:46:50.000Z</time>
      </trkpt>
      <trkpt lat="42.84918" lon="0.50304">
        <ele>1636</ele>
        <time>2020-02-01T13:46:51.000Z</time>
      </trkpt>
      <trkpt lat="42.84919" lon="0.50305">
        <ele>1635.5</ele>
        <time>2020-02-01T13:46:52.000Z</time>
      </trkpt>
      <trkpt lat="42.84919" lon="0.50306">
        <ele>1635</ele>
        <time>2020-02-01T13:46:53.000Z</time>
      </trkpt>
      <trkpt lat="42.8492" lon="0.50308">
        <ele>1634</ele>
        <time>2020-02-01T13:46:54.000Z</time>
      </trkpt>
      <trkpt lat="42.84921" lon="0.50309">
        <ele>1633.7</ele>
        <time>2020-02-01T13:46:55.000Z</time>
      </trkpt>
      <trkpt lat="42.84921" lon="0.5031">
        <ele>1633.3</ele>
        <time>2020-02-01T13:46:56.000Z</time>
      </trkpt>
      <trkpt lat="42.84922" lon="0.50311">
        <ele>1633</ele>
        <time>2020-02-01T13:46:57.000Z</time>
      </trkpt>
      <trkpt lat="42.84922" lon="0.50311">
        <ele>1633</ele>
        <time>2020-02-01T13:46:58.000Z</time>
      </trkpt>
      <trkpt lat="42.84923" lon="0.50312">
        <ele>1633</ele>
        <time>2020-02-01T13:46:59.000Z</time>
      </trkpt>
      <trkpt lat="42.84923" lon="0.50313">
        <ele>1632</ele>
        <time>2020-02-01T13:47:00.000Z</time>
      </trkpt>
      <trkpt lat="42.84924" lon="0.50313">
        <ele>1631.7</ele>
        <time>2020-02-01T13:47:01.000Z</time>
      </trkpt>
      <trkpt lat="42.84924" lon="0.50314">
        <ele>1631.3</ele>
        <time>2020-02-01T13:47:02.000Z</time>
      </trkpt>
      <trkpt lat="42.84925" lon="0.50315">
        <ele>1631</ele>
        <time>2020-02-01T13:47:03.000Z</time>
      </trkpt>
      <trkpt lat="42.84925" lon="0.50316">
        <ele>1631</ele>
        <time>2020-02-01T13:47:04.000Z</time>
      </trkpt>
      <trkpt lat="42.84926" lon="0.50317">
        <ele>1631</ele>
        <time>2020-02-01T13:47:05.000Z</time>
      </trkpt>
      <trkpt lat="42.84926" lon="0.50318">
        <ele>1630</ele>
        <time>2020-02-01T13:47:06.000Z</time>
      </trkpt>
      <trkpt lat="42.84927" lon="0.5032">
        <ele>1630</ele>
        <time>2020-02-01T13:47:07.000Z</time>
      </trkpt>
      <trkpt lat="42.84927" lon="0.50321">
        <ele>1630</ele>
        <time>2020-02-01T13:47:08.000Z</time>
      </trkpt>
      <trkpt lat="42.84928" lon="0.50322">
        <ele>1630</ele>
        <time>2020-02-01T13:47:09.000Z</time>
      </trkpt>
      <trkpt lat="42.84928" lon="0.50323">
        <ele>1629</ele>
        <time>2020-02-01T13:47:10.000Z</time>
      </trkpt>
      <trkpt lat="42.84928" lon="0.50324">
        <ele>1629</ele>
        <time>2020-02-01T13:47:11.000Z</time>
      </trkpt>
      <trkpt lat="42.84929" lon="0.50325">
        <ele>1629</ele>
        <time>2020-02-01T13:47:12.000Z</time>
      </trkpt>
      <trkpt lat="42.84929" lon="0.50326">
        <ele>1629</ele>
        <time>2020-02-01T13:47:13.000Z</time>
      </trkpt>
      <trkpt lat="42.84929" lon="0.50327">
        <ele>1628.5</ele>
        <time>2020-02-01T13:47:14.000Z</time>
      </trkpt>
      <trkpt lat="42.8493" lon="0.50329">
        <ele>1628</ele>
        <time>2020-02-01T13:47:15.000Z</time>
      </trkpt>
      <trkpt lat="42.8493" lon="0.5033">
        <ele>1628</ele>
        <time>2020-02-01T13:47:16.000Z</time>
      </trkpt>
      <trkpt lat="42.84931" lon="0.50331">
        <ele>1628</ele>
        <time>2020-02-01T13:47:17.000Z</time>
      </trkpt>
      <trkpt lat="42.84931" lon="0.50333">
        <ele>1628</ele>
        <time>2020-02-01T13:47:18.000Z</time>
      </trkpt>
      <trkpt lat="42.84932" lon="0.50334">
        <ele>1627.7</ele>
        <time>2020-02-01T13:47:19.000Z</time>
      </trkpt>
      <trkpt lat="42.84932" lon="0.50335">
        <ele>1627.3</ele>
        <time>2020-02-01T13:47:20.000Z</time>
      </trkpt>
      <trkpt lat="42.84933" lon="0.50336">
        <ele>1627</ele>
        <time>2020-02-01T13:47:21.000Z</time>
      </trkpt>
      <trkpt lat="42.84934" lon="0.50337">
        <ele>1627</ele>
        <time>2020-02-01T13:47:22.000Z</time>
      </trkpt>
      <trkpt lat="42.84935" lon="0.50338">
        <ele>1626.5</ele>
        <time>2020-02-01T13:47:23.000Z</time>
      </trkpt>
      <trkpt lat="42.84935" lon="0.50339">
        <ele>1626</ele>
        <time>2020-02-01T13:47:24.000Z</time>
      </trkpt>
      <trkpt lat="42.84936" lon="0.5034">
        <ele>1626</ele>
        <time>2020-02-01T13:47:25.000Z</time>
      </trkpt>
      <trkpt lat="42.84936" lon="0.50342">
        <ele>1626</ele>
        <time>2020-02-01T13:47:26.000Z</time>
      </trkpt>
      <trkpt lat="42.84936" lon="0.50343">
        <ele>1626</ele>
        <time>2020-02-01T13:47:27.000Z</time>
      </trkpt>
      <trkpt lat="42.84937" lon="0.50345">
        <ele>1625</ele>
        <time>2020-02-01T13:47:28.000Z</time>
      </trkpt>
      <trkpt lat="42.84937" lon="0.50346">
        <ele>1625</ele>
        <time>2020-02-01T13:47:29.000Z</time>
      </trkpt>
      <trkpt lat="42.84937" lon="0.50348">
        <ele>1625</ele>
        <time>2020-02-01T13:47:30.000Z</time>
      </trkpt>
      <trkpt lat="42.84937" lon="0.5035">
        <ele>1625</ele>
        <time>2020-02-01T13:47:31.000Z</time>
      </trkpt>
      <trkpt lat="42.84937" lon="0.50351">
        <ele>1625</ele>
        <time>2020-02-01T13:47:32.000Z</time>
      </trkpt>
      <trkpt lat="42.84938" lon="0.50353">
        <ele>1624.7</ele>
        <time>2020-02-01T13:47:33.000Z</time>
      </trkpt>
      <trkpt lat="42.84938" lon="0.50354">
        <ele>1624.3</ele>
        <time>2020-02-01T13:47:34.000Z</time>
      </trkpt>
      <trkpt lat="42.84938" lon="0.50355">
        <ele>1624</ele>
        <time>2020-02-01T13:47:35.000Z</time>
      </trkpt>
      <trkpt lat="42.84938" lon="0.50357">
        <ele>1624</ele>
        <time>2020-02-01T13:47:36.000Z</time>
      </trkpt>
      <trkpt lat="42.84939" lon="0.50358">
        <ele>1624</ele>
        <time>2020-02-01T13:47:37.000Z</time>
      </trkpt>
      <trkpt lat="42.84939" lon="0.50359">
        <ele>1624</ele>
        <time>2020-02-01T13:47:38.000Z</time>
      </trkpt>
      <trkpt lat="42.84939" lon="0.5036">
        <ele>1624</ele>
        <time>2020-02-01T13:47:39.000Z</time>
      </trkpt>
      <trkpt lat="42.8494" lon="0.50361">
        <ele>1624</ele>
        <time>2020-02-01T13:47:40.000Z</time>
      </trkpt>
      <trkpt lat="42.8494" lon="0.50362">
        <ele>1624</ele>
        <time>2020-02-01T13:47:41.000Z</time>
      </trkpt>
      <trkpt lat="42.8494" lon="0.50363">
        <ele>1624</ele>
        <time>2020-02-01T13:47:42.000Z</time>
      </trkpt>
      <trkpt lat="42.84941" lon="0.50364">
        <ele>1624</ele>
        <time>2020-02-01T13:47:43.000Z</time>
      </trkpt>
      <trkpt lat="42.84941" lon="0.50365">
        <ele>1623</ele>
        <time>2020-02-01T13:47:44.000Z</time>
      </trkpt>
      <trkpt lat="42.84941" lon="0.50366">
        <ele>1623</ele>
        <time>2020-02-01T13:47:45.000Z</time>
      </trkpt>
      <trkpt lat="42.84942" lon="0.50367">
        <ele>1623</ele>
        <time>2020-02-01T13:47:46.000Z</time>
      </trkpt>
      <trkpt lat="42.84942" lon="0.50368">
        <ele>1623</ele>
        <time>2020-02-01T13:47:47.000Z</time>
      </trkpt>
      <trkpt lat="42.84942" lon="0.50369">
        <ele>1623</ele>
        <time>2020-02-01T13:47:48.000Z</time>
      </trkpt>
      <trkpt lat="42.84943" lon="0.5037">
        <ele>1623</ele>
        <time>2020-02-01T13:47:49.000Z</time>
      </trkpt>
      <trkpt lat="42.84943" lon="0.50372">
        <ele>1623</ele>
        <time>2020-02-01T13:47:50.000Z</time>
      </trkpt>
      <trkpt lat="42.84943" lon="0.50373">
        <ele>1623</ele>
        <time>2020-02-01T13:47:51.000Z</time>
      </trkpt>
      <trkpt lat="42.84943" lon="0.50374">
        <ele>1623</ele>
        <time>2020-02-01T13:47:52.000Z</time>
      </trkpt>
      <trkpt lat="42.84943" lon="0.50376">
        <ele>1623</ele>
        <time>2020-02-01T13:47:53.000Z</time>
      </trkpt>
      <trkpt lat="42.84944" lon="0.50377">
        <ele>1623</ele>
        <time>2020-02-01T13:47:54.000Z</time>
      </trkpt>
      <trkpt lat="42.84944" lon="0.50379">
        <ele>1623</ele>
        <time>2020-02-01T13:47:55.000Z</time>
      </trkpt>
      <trkpt lat="42.84944" lon="0.5038">
        <ele>1623</ele>
        <time>2020-02-01T13:47:56.000Z</time>
      </trkpt>
      <trkpt lat="42.84944" lon="0.50382">
        <ele>1623</ele>
        <time>2020-02-01T13:47:57.000Z</time>
      </trkpt>
      <trkpt lat="42.84944" lon="0.50383">
        <ele>1623</ele>
        <time>2020-02-01T13:47:58.000Z</time>
      </trkpt>
      <trkpt lat="42.84944" lon="0.50384">
        <ele>1623</ele>
        <time>2020-02-01T13:47:59.000Z</time>
      </trkpt>
      <trkpt lat="42.84944" lon="0.50386">
        <ele>1623</ele>
        <time>2020-02-01T13:48:00.000Z</time>
      </trkpt>
      <trkpt lat="42.84945" lon="0.50387">
        <ele>1623</ele>
        <time>2020-02-01T13:48:01.000Z</time>
      </trkpt>
      <trkpt lat="42.84945" lon="0.50388">
        <ele>1623</ele>
        <time>2020-02-01T13:48:02.000Z</time>
      </trkpt>
      <trkpt lat="42.84945" lon="0.50389">
        <ele>1623</ele>
        <time>2020-02-01T13:48:03.000Z</time>
      </trkpt>
      <trkpt lat="42.84945" lon="0.5039">
        <ele>1623</ele>
        <time>2020-02-01T13:48:04.000Z</time>
      </trkpt>
      <trkpt lat="42.84945" lon="0.50391">
        <ele>1623</ele>
        <time>2020-02-01T13:48:05.000Z</time>
      </trkpt>
      <trkpt lat="42.84945" lon="0.50392">
        <ele>1623</ele>
        <time>2020-02-01T13:48:06.000Z</time>
      </trkpt>
      <trkpt lat="42.84945" lon="0.50393">
        <ele>1623</ele>
        <time>2020-02-01T13:48:07.000Z</time>
      </trkpt>
      <trkpt lat="42.84945" lon="0.50394">
        <ele>1623</ele>
        <time>2020-02-01T13:48:08.000Z</time>
      </trkpt>
      <trkpt lat="42.84946" lon="0.50396">
        <ele>1623</ele>
        <time>2020-02-01T13:48:09.000Z</time>
      </trkpt>
      <trkpt lat="42.84946" lon="0.50397">
        <ele>1623</ele>
        <time>2020-02-01T13:48:10.000Z</time>
      </trkpt>
      <trkpt lat="42.84946" lon="0.50398">
        <ele>1623</ele>
        <time>2020-02-01T13:48:11.000Z</time>
      </trkpt>
      <trkpt lat="42.84946" lon="0.50399">
        <ele>1623</ele>
        <time>2020-02-01T13:48:12.000Z</time>
      </trkpt>
      <trkpt lat="42.84946" lon="0.50401">
        <ele>1623</ele>
        <time>2020-02-01T13:48:13.000Z</time>
      </trkpt>
      <trkpt lat="42.84947" lon="0.50402">
        <ele>1622</ele>
        <time>2020-02-01T13:48:14.000Z</time>
      </trkpt>
      <trkpt lat="42.84947" lon="0.50404">
        <ele>1622</ele>
        <time>2020-02-01T13:48:15.000Z</time>
      </trkpt>
      <trkpt lat="42.84948" lon="0.50405">
        <ele>1622</ele>
        <time>2020-02-01T13:48:16.000Z</time>
      </trkpt>
      <trkpt lat="42.84948" lon="0.50407">
        <ele>1622</ele>
        <time>2020-02-01T13:48:17.000Z</time>
      </trkpt>
      <trkpt lat="42.84949" lon="0.50408">
        <ele>1622</ele>
        <time>2020-02-01T13:48:18.000Z</time>
      </trkpt>
      <trkpt lat="42.84949" lon="0.5041">
        <ele>1622</ele>
        <time>2020-02-01T13:48:19.000Z</time>
      </trkpt>
      <trkpt lat="42.8495" lon="0.50411">
        <ele>1622</ele>
        <time>2020-02-01T13:48:20.000Z</time>
      </trkpt>
      <trkpt lat="42.8495" lon="0.50412">
        <ele>1621.5</ele>
        <time>2020-02-01T13:48:21.000Z</time>
      </trkpt>
      <trkpt lat="42.8495" lon="0.50414">
        <ele>1621</ele>
        <time>2020-02-01T13:48:22.000Z</time>
      </trkpt>
      <trkpt lat="42.8495" lon="0.50415">
        <ele>1621</ele>
        <time>2020-02-01T13:48:23.000Z</time>
      </trkpt>
      <trkpt lat="42.8495" lon="0.50416">
        <ele>1621</ele>
        <time>2020-02-01T13:48:24.000Z</time>
      </trkpt>
      <trkpt lat="42.8495" lon="0.50418">
        <ele>1621</ele>
        <time>2020-02-01T13:48:25.000Z</time>
      </trkpt>
      <trkpt lat="42.8495" lon="0.50419">
        <ele>1621</ele>
        <time>2020-02-01T13:48:26.000Z</time>
      </trkpt>
      <trkpt lat="42.84951" lon="0.5042">
        <ele>1621</ele>
        <time>2020-02-01T13:48:27.000Z</time>
      </trkpt>
      <trkpt lat="42.84951" lon="0.50421">
        <ele>1620.5</ele>
        <time>2020-02-01T13:48:28.000Z</time>
      </trkpt>
      <trkpt lat="42.84951" lon="0.50423">
        <ele>1620</ele>
        <time>2020-02-01T13:48:29.000Z</time>
      </trkpt>
      <trkpt lat="42.84952" lon="0.50424">
        <ele>1620</ele>
        <time>2020-02-01T13:48:30.000Z</time>
      </trkpt>
      <trkpt lat="42.84953" lon="0.50426">
        <ele>1620</ele>
        <time>2020-02-01T13:48:31.000Z</time>
      </trkpt>
      <trkpt lat="42.84954" lon="0.50427">
        <ele>1620</ele>
        <time>2020-02-01T13:48:32.000Z</time>
      </trkpt>
      <trkpt lat="42.84954" lon="0.50429">
        <ele>1620</ele>
        <time>2020-02-01T13:48:33.000Z</time>
      </trkpt>
      <trkpt lat="42.84955" lon="0.50431">
        <ele>1619</ele>
        <time>2020-02-01T13:48:34.000Z</time>
      </trkpt>
      <trkpt lat="42.84956" lon="0.50432">
        <ele>1619</ele>
        <time>2020-02-01T13:48:35.000Z</time>
      </trkpt>
      <trkpt lat="42.84956" lon="0.50434">
        <ele>1619</ele>
        <time>2020-02-01T13:48:36.000Z</time>
      </trkpt>
      <trkpt lat="42.84957" lon="0.50435">
        <ele>1619</ele>
        <time>2020-02-01T13:48:37.000Z</time>
      </trkpt>
      <trkpt lat="42.84957" lon="0.50436">
        <ele>1619</ele>
        <time>2020-02-01T13:48:38.000Z</time>
      </trkpt>
      <trkpt lat="42.84958" lon="0.50437">
        <ele>1619</ele>
        <time>2020-02-01T13:48:39.000Z</time>
      </trkpt>
      <trkpt lat="42.84958" lon="0.50438">
        <ele>1618.5</ele>
        <time>2020-02-01T13:48:40.000Z</time>
      </trkpt>
      <trkpt lat="42.84959" lon="0.5044">
        <ele>1618</ele>
        <time>2020-02-01T13:48:41.000Z</time>
      </trkpt>
      <trkpt lat="42.84959" lon="0.50441">
        <ele>1618</ele>
        <time>2020-02-01T13:48:42.000Z</time>
      </trkpt>
      <trkpt lat="42.8496" lon="0.50442">
        <ele>1617.5</ele>
        <time>2020-02-01T13:48:43.000Z</time>
      </trkpt>
      <trkpt lat="42.8496" lon="0.50443">
        <ele>1617</ele>
        <time>2020-02-01T13:48:44.000Z</time>
      </trkpt>
      <trkpt lat="42.84961" lon="0.50444">
        <ele>1617</ele>
        <time>2020-02-01T13:48:45.000Z</time>
      </trkpt>
      <trkpt lat="42.84961" lon="0.50445">
        <ele>1617</ele>
        <time>2020-02-01T13:48:46.000Z</time>
      </trkpt>
      <trkpt lat="42.84962" lon="0.50447">
        <ele>1617</ele>
        <time>2020-02-01T13:48:47.000Z</time>
      </trkpt>
      <trkpt lat="42.84963" lon="0.50448">
        <ele>1617</ele>
        <time>2020-02-01T13:48:48.000Z</time>
      </trkpt>
      <trkpt lat="42.84963" lon="0.50449">
        <ele>1617</ele>
        <time>2020-02-01T13:48:49.000Z</time>
      </trkpt>
      <trkpt lat="42.84964" lon="0.5045">
        <ele>1616</ele>
        <time>2020-02-01T13:48:50.000Z</time>
      </trkpt>
      <trkpt lat="42.84965" lon="0.50452">
        <ele>1616</ele>
        <time>2020-02-01T13:48:51.000Z</time>
      </trkpt>
      <trkpt lat="42.84965" lon="0.50453">
        <ele>1616</ele>
        <time>2020-02-01T13:48:52.000Z</time>
      </trkpt>
      <trkpt lat="42.84966" lon="0.50454">
        <ele>1615.7</ele>
        <time>2020-02-01T13:48:53.000Z</time>
      </trkpt>
      <trkpt lat="42.84967" lon="0.50455">
        <ele>1615.3</ele>
        <time>2020-02-01T13:48:54.000Z</time>
      </trkpt>
      <trkpt lat="42.84967" lon="0.50456">
        <ele>1615</ele>
        <time>2020-02-01T13:48:55.000Z</time>
      </trkpt>
      <trkpt lat="42.84968" lon="0.50457">
        <ele>1615</ele>
        <time>2020-02-01T13:48:56.000Z</time>
      </trkpt>
      <trkpt lat="42.84969" lon="0.50458">
        <ele>1615</ele>
        <time>2020-02-01T13:48:57.000Z</time>
      </trkpt>
      <trkpt lat="42.84969" lon="0.50459">
        <ele>1615</ele>
        <time>2020-02-01T13:48:58.000Z</time>
      </trkpt>
      <trkpt lat="42.8497" lon="0.5046">
        <ele>1615</ele>
        <time>2020-02-01T13:48:59.000Z</time>
      </trkpt>
      <trkpt lat="42.8497" lon="0.50461">
        <ele>1614.5</ele>
        <time>2020-02-01T13:49:00.000Z</time>
      </trkpt>
      <trkpt lat="42.84971" lon="0.50462">
        <ele>1614</ele>
        <time>2020-02-01T13:49:01.000Z</time>
      </trkpt>
      <trkpt lat="42.84971" lon="0.50462">
        <ele>1614</ele>
        <time>2020-02-01T13:49:02.000Z</time>
      </trkpt>
      <trkpt lat="42.84971" lon="0.50463">
        <ele>1614</ele>
        <time>2020-02-01T13:49:03.000Z</time>
      </trkpt>
      <trkpt lat="42.84972" lon="0.50464">
        <ele>1614</ele>
        <time>2020-02-01T13:49:04.000Z</time>
      </trkpt>
      <trkpt lat="42.84972" lon="0.50464">
        <ele>1613.7</ele>
        <time>2020-02-01T13:49:05.000Z</time>
      </trkpt>
      <trkpt lat="42.84973" lon="0.50465">
        <ele>1613.3</ele>
        <time>2020-02-01T13:49:06.000Z</time>
      </trkpt>
      <trkpt lat="42.84973" lon="0.50466">
        <ele>1613</ele>
        <time>2020-02-01T13:49:07.000Z</time>
      </trkpt>
      <trkpt lat="42.84973" lon="0.50466">
        <ele>1613</ele>
        <time>2020-02-01T13:49:08.000Z</time>
      </trkpt>
      <trkpt lat="42.84974" lon="0.50467">
        <ele>1613</ele>
        <time>2020-02-01T13:49:09.000Z</time>
      </trkpt>
      <trkpt lat="42.84974" lon="0.50468">
        <ele>1612.5</ele>
        <time>2020-02-01T13:49:10.000Z</time>
      </trkpt>
      <trkpt lat="42.84975" lon="0.50469">
        <ele>1612</ele>
        <time>2020-02-01T13:49:11.000Z</time>
      </trkpt>
      <trkpt lat="42.84976" lon="0.5047">
        <ele>1612</ele>
        <time>2020-02-01T13:49:12.000Z</time>
      </trkpt>
      <trkpt lat="42.84976" lon="0.50471">
        <ele>1611.7</ele>
        <time>2020-02-01T13:49:13.000Z</time>
      </trkpt>
      <trkpt lat="42.84977" lon="0.50471">
        <ele>1611.3</ele>
        <time>2020-02-01T13:49:14.000Z</time>
      </trkpt>
      <trkpt lat="42.84977" lon="0.50472">
        <ele>1611</ele>
        <time>2020-02-01T13:49:15.000Z</time>
      </trkpt>
      <trkpt lat="42.84977" lon="0.50472">
        <ele>1611</ele>
        <time>2020-02-01T13:49:16.000Z</time>
      </trkpt>
      <trkpt lat="42.84978" lon="0.50473">
        <ele>1611</ele>
        <time>2020-02-01T13:49:17.000Z</time>
      </trkpt>
      <trkpt lat="42.84978" lon="0.50473">
        <ele>1611</ele>
        <time>2020-02-01T13:49:18.000Z</time>
      </trkpt>
      <trkpt lat="42.84978" lon="0.50473">
        <ele>1611</ele>
        <time>2020-02-01T13:49:19.000Z</time>
      </trkpt>
      <trkpt lat="42.84978" lon="0.50473">
        <ele>1610</ele>
        <time>2020-02-01T13:49:20.000Z</time>
      </trkpt>
      <trkpt lat="42.84979" lon="0.50473">
        <ele>1610</ele>
        <time>2020-02-01T13:49:21.000Z</time>
      </trkpt>
      <trkpt lat="42.84979" lon="0.50473">
        <ele>1610</ele>
        <time>2020-02-01T13:49:22.000Z</time>
      </trkpt>
      <trkpt lat="42.84979" lon="0.50473">
        <ele>1610.3</ele>
        <time>2020-02-01T13:49:23.000Z</time>
      </trkpt>
      <trkpt lat="42.84979" lon="0.50473">
        <ele>1610.7</ele>
        <time>2020-02-01T13:49:24.000Z</time>
      </trkpt>
      <trkpt lat="42.84979" lon="0.50474">
        <ele>1611</ele>
        <time>2020-02-01T13:49:25.000Z</time>
      </trkpt>
      <trkpt lat="42.84979" lon="0.50474">
        <ele>1611</ele>
        <time>2020-02-01T13:49:26.000Z</time>
      </trkpt>
      <trkpt lat="42.84979" lon="0.50475">
        <ele>1611</ele>
        <time>2020-02-01T13:49:27.000Z</time>
      </trkpt>
      <trkpt lat="42.84979" lon="0.50475">
        <ele>1611</ele>
        <time>2020-02-01T13:49:28.000Z</time>
      </trkpt>
      <trkpt lat="42.84979" lon="0.50476">
        <ele>1611</ele>
        <time>2020-02-01T13:49:29.000Z</time>
      </trkpt>
      <trkpt lat="42.84979" lon="0.50476">
        <ele>1611</ele>
        <time>2020-02-01T13:49:30.000Z</time>
      </trkpt>
      <trkpt lat="42.8498" lon="0.50476">
        <ele>1610.7</ele>
        <time>2020-02-01T13:49:31.000Z</time>
      </trkpt>
      <trkpt lat="42.8498" lon="0.50476">
        <ele>1610.3</ele>
        <time>2020-02-01T13:49:32.000Z</time>
      </trkpt>
      <trkpt lat="42.8498" lon="0.50477">
        <ele>1610</ele>
        <time>2020-02-01T13:49:33.000Z</time>
      </trkpt>
      <trkpt lat="42.8498" lon="0.50477">
        <ele>1610</ele>
        <time>2020-02-01T13:49:34.000Z</time>
      </trkpt>
      <trkpt lat="42.8498" lon="0.50478">
        <ele>1610</ele>
        <time>2020-02-01T13:49:35.000Z</time>
      </trkpt>
      <trkpt lat="42.8498" lon="0.50479">
        <ele>1610</ele>
        <time>2020-02-01T13:49:36.000Z</time>
      </trkpt>
      <trkpt lat="42.8498" lon="0.50481">
        <ele>1609.7</ele>
        <time>2020-02-01T13:49:37.000Z</time>
      </trkpt>
      <trkpt lat="42.84979" lon="0.50482">
        <ele>1609.3</ele>
        <time>2020-02-01T13:49:38.000Z</time>
      </trkpt>
      <trkpt lat="42.84979" lon="0.50484">
        <ele>1609</ele>
        <time>2020-02-01T13:49:39.000Z</time>
      </trkpt>
      <trkpt lat="42.84978" lon="0.50486">
        <ele>1609</ele>
        <time>2020-02-01T13:49:40.000Z</time>
      </trkpt>
      <trkpt lat="42.84978" lon="0.50487">
        <ele>1609</ele>
        <time>2020-02-01T13:49:41.000Z</time>
      </trkpt>
      <trkpt lat="42.84978" lon="0.50487">
        <ele>1609</ele>
        <time>2020-02-01T13:49:42.000Z</time>
      </trkpt>
      <trkpt lat="42.84978" lon="0.50488">
        <ele>1609</ele>
        <time>2020-02-01T13:49:43.000Z</time>
      </trkpt>
      <trkpt lat="42.84977" lon="0.50488">
        <ele>1609</ele>
        <time>2020-02-01T13:49:44.000Z</time>
      </trkpt>
      <trkpt lat="42.84977" lon="0.50488">
        <ele>1609</ele>
        <time>2020-02-01T13:49:45.000Z</time>
      </trkpt>
      <trkpt lat="42.84977" lon="0.50488">
        <ele>1609</ele>
        <time>2020-02-01T13:49:46.000Z</time>
      </trkpt>
      <trkpt lat="42.84977" lon="0.50488">
        <ele>1608.7</ele>
        <time>2020-02-01T13:49:47.000Z</time>
      </trkpt>
      <trkpt lat="42.84977" lon="0.50489">
        <ele>1608.3</ele>
        <time>2020-02-01T13:49:48.000Z</time>
      </trkpt>
      <trkpt lat="42.84977" lon="0.5049">
        <ele>1608</ele>
        <time>2020-02-01T13:49:49.000Z</time>
      </trkpt>
      <trkpt lat="42.84977" lon="0.50491">
        <ele>1608</ele>
        <time>2020-02-01T13:49:50.000Z</time>
      </trkpt>
      <trkpt lat="42.84977" lon="0.50492">
        <ele>1607.7</ele>
        <time>2020-02-01T13:49:51.000Z</time>
      </trkpt>
      <trkpt lat="42.84977" lon="0.50493">
        <ele>1607.3</ele>
        <time>2020-02-01T13:49:52.000Z</time>
      </trkpt>
      <trkpt lat="42.84977" lon="0.50494">
        <ele>1607</ele>
        <time>2020-02-01T13:49:53.000Z</time>
      </trkpt>
      <trkpt lat="42.84977" lon="0.50496">
        <ele>1607</ele>
        <time>2020-02-01T13:49:54.000Z</time>
      </trkpt>
      <trkpt lat="42.84977" lon="0.50497">
        <ele>1607</ele>
        <time>2020-02-01T13:49:55.000Z</time>
      </trkpt>
      <trkpt lat="42.84977" lon="0.50498">
        <ele>1606</ele>
        <time>2020-02-01T13:49:56.000Z</time>
      </trkpt>
      <trkpt lat="42.84977" lon="0.50499">
        <ele>1605.7</ele>
        <time>2020-02-01T13:49:57.000Z</time>
      </trkpt>
      <trkpt lat="42.84977" lon="0.50499">
        <ele>1605.3</ele>
        <time>2020-02-01T13:49:58.000Z</time>
      </trkpt>
      <trkpt lat="42.84977" lon="0.505">
        <ele>1605</ele>
        <time>2020-02-01T13:49:59.000Z</time>
      </trkpt>
      <trkpt lat="42.84977" lon="0.50501">
        <ele>1605</ele>
        <time>2020-02-01T13:50:00.000Z</time>
      </trkpt>
      <trkpt lat="42.84977" lon="0.50502">
        <ele>1605</ele>
        <time>2020-02-01T13:50:01.000Z</time>
      </trkpt>
      <trkpt lat="42.84977" lon="0.50503">
        <ele>1604</ele>
        <time>2020-02-01T13:50:02.000Z</time>
      </trkpt>
      <trkpt lat="42.84977" lon="0.50504">
        <ele>1604</ele>
        <time>2020-02-01T13:50:03.000Z</time>
      </trkpt>
      <trkpt lat="42.84977" lon="0.50505">
        <ele>1604</ele>
        <time>2020-02-01T13:50:04.000Z</time>
      </trkpt>
      <trkpt lat="42.84977" lon="0.50506">
        <ele>1603.7</ele>
        <time>2020-02-01T13:50:05.000Z</time>
      </trkpt>
      <trkpt lat="42.84977" lon="0.50508">
        <ele>1603.3</ele>
        <time>2020-02-01T13:50:06.000Z</time>
      </trkpt>
      <trkpt lat="42.84978" lon="0.50509">
        <ele>1603</ele>
        <time>2020-02-01T13:50:07.000Z</time>
      </trkpt>
      <trkpt lat="42.84978" lon="0.5051">
        <ele>1603</ele>
        <time>2020-02-01T13:50:08.000Z</time>
      </trkpt>
      <trkpt lat="42.84978" lon="0.50511">
        <ele>1602.7</ele>
        <time>2020-02-01T13:50:09.000Z</time>
      </trkpt>
      <trkpt lat="42.84978" lon="0.50512">
        <ele>1602.3</ele>
        <time>2020-02-01T13:50:10.000Z</time>
      </trkpt>
      <trkpt lat="42.84979" lon="0.50513">
        <ele>1602</ele>
        <time>2020-02-01T13:50:11.000Z</time>
      </trkpt>
      <trkpt lat="42.84979" lon="0.50514">
        <ele>1602</ele>
        <time>2020-02-01T13:50:12.000Z</time>
      </trkpt>
      <trkpt lat="42.84979" lon="0.50515">
        <ele>1602</ele>
        <time>2020-02-01T13:50:13.000Z</time>
      </trkpt>
      <trkpt lat="42.84979" lon="0.50516">
        <ele>1601</ele>
        <time>2020-02-01T13:50:14.000Z</time>
      </trkpt>
      <trkpt lat="42.84979" lon="0.50517">
        <ele>1601</ele>
        <time>2020-02-01T13:50:15.000Z</time>
      </trkpt>
      <trkpt lat="42.84979" lon="0.50518">
        <ele>1601</ele>
        <time>2020-02-01T13:50:16.000Z</time>
      </trkpt>
      <trkpt lat="42.84979" lon="0.50518">
        <ele>1601</ele>
        <time>2020-02-01T13:50:17.000Z</time>
      </trkpt>
      <trkpt lat="42.84978" lon="0.50519">
        <ele>1600</ele>
        <time>2020-02-01T13:50:18.000Z</time>
      </trkpt>
      <trkpt lat="42.84978" lon="0.5052">
        <ele>1600</ele>
        <time>2020-02-01T13:50:19.000Z</time>
      </trkpt>
      <trkpt lat="42.84978" lon="0.50521">
        <ele>1600</ele>
        <time>2020-02-01T13:50:20.000Z</time>
      </trkpt>
      <trkpt lat="42.84978" lon="0.50522">
        <ele>1599.7</ele>
        <time>2020-02-01T13:50:21.000Z</time>
      </trkpt>
      <trkpt lat="42.84978" lon="0.50523">
        <ele>1599.3</ele>
        <time>2020-02-01T13:50:22.000Z</time>
      </trkpt>
      <trkpt lat="42.84979" lon="0.50523">
        <ele>1599</ele>
        <time>2020-02-01T13:50:23.000Z</time>
      </trkpt>
      <trkpt lat="42.84979" lon="0.50524">
        <ele>1599</ele>
        <time>2020-02-01T13:50:24.000Z</time>
      </trkpt>
      <trkpt lat="42.84979" lon="0.50525">
        <ele>1598.7</ele>
        <time>2020-02-01T13:50:25.000Z</time>
      </trkpt>
      <trkpt lat="42.84978" lon="0.50526">
        <ele>1598.3</ele>
        <time>2020-02-01T13:50:26.000Z</time>
      </trkpt>
      <trkpt lat="42.84978" lon="0.50527">
        <ele>1598</ele>
        <time>2020-02-01T13:50:27.000Z</time>
      </trkpt>
      <trkpt lat="42.84978" lon="0.50528">
        <ele>1598</ele>
        <time>2020-02-01T13:50:28.000Z</time>
      </trkpt>
      <trkpt lat="42.84978" lon="0.50529">
        <ele>1598</ele>
        <time>2020-02-01T13:50:29.000Z</time>
      </trkpt>
      <trkpt lat="42.84978" lon="0.5053">
        <ele>1598</ele>
        <time>2020-02-01T13:50:30.000Z</time>
      </trkpt>
      <trkpt lat="42.84978" lon="0.50531">
        <ele>1598</ele>
        <time>2020-02-01T13:50:31.000Z</time>
      </trkpt>
      <trkpt lat="42.84978" lon="0.50532">
        <ele>1597</ele>
        <time>2020-02-01T13:50:32.000Z</time>
      </trkpt>
      <trkpt lat="42.84977" lon="0.50533">
        <ele>1597</ele>
        <time>2020-02-01T13:50:33.000Z</time>
      </trkpt>
      <trkpt lat="42.84978" lon="0.50535">
        <ele>1597</ele>
        <time>2020-02-01T13:50:34.000Z</time>
      </trkpt>
      <trkpt lat="42.84978" lon="0.50536">
        <ele>1597</ele>
        <time>2020-02-01T13:50:35.000Z</time>
      </trkpt>
      <trkpt lat="42.84978" lon="0.50538">
        <ele>1596</ele>
        <time>2020-02-01T13:50:36.000Z</time>
      </trkpt>
      <trkpt lat="42.84978" lon="0.50539">
        <ele>1596</ele>
        <time>2020-02-01T13:50:37.000Z</time>
      </trkpt>
      <trkpt lat="42.84979" lon="0.5054">
        <ele>1596</ele>
        <time>2020-02-01T13:50:38.000Z</time>
      </trkpt>
      <trkpt lat="42.84979" lon="0.50541">
        <ele>1596</ele>
        <time>2020-02-01T13:50:39.000Z</time>
      </trkpt>
      <trkpt lat="42.84979" lon="0.50543">
        <ele>1596</ele>
        <time>2020-02-01T13:50:40.000Z</time>
      </trkpt>
      <trkpt lat="42.8498" lon="0.50544">
        <ele>1596</ele>
        <time>2020-02-01T13:50:41.000Z</time>
      </trkpt>
      <trkpt lat="42.8498" lon="0.50545">
        <ele>1595.5</ele>
        <time>2020-02-01T13:50:42.000Z</time>
      </trkpt>
      <trkpt lat="42.8498" lon="0.50545">
        <ele>1595</ele>
        <time>2020-02-01T13:50:43.000Z</time>
      </trkpt>
      <trkpt lat="42.8498" lon="0.50546">
        <ele>1595</ele>
        <time>2020-02-01T13:50:44.000Z</time>
      </trkpt>
      <trkpt lat="42.8498" lon="0.50546">
        <ele>1595</ele>
        <time>2020-02-01T13:50:45.000Z</time>
      </trkpt>
      <trkpt lat="42.8498" lon="0.50547">
        <ele>1594</ele>
        <time>2020-02-01T13:50:46.000Z</time>
      </trkpt>
      <trkpt lat="42.8498" lon="0.50547">
        <ele>1594</ele>
        <time>2020-02-01T13:50:47.000Z</time>
      </trkpt>
      <trkpt lat="42.8498" lon="0.50547">
        <ele>1594</ele>
        <time>2020-02-01T13:50:48.000Z</time>
      </trkpt>
      <trkpt lat="42.8498" lon="0.50547">
        <ele>1594</ele>
        <time>2020-02-01T13:50:49.000Z</time>
      </trkpt>
      <trkpt lat="42.8498" lon="0.50548">
        <ele>1594</ele>
        <time>2020-02-01T13:50:50.000Z</time>
      </trkpt>
      <trkpt lat="42.8498" lon="0.50548">
        <ele>1594</ele>
        <time>2020-02-01T13:50:51.000Z</time>
      </trkpt>
      <trkpt lat="42.8498" lon="0.50548">
        <ele>1594</ele>
        <time>2020-02-01T13:50:52.000Z</time>
      </trkpt>
      <trkpt lat="42.8498" lon="0.50548">
        <ele>1594</ele>
        <time>2020-02-01T13:50:53.000Z</time>
      </trkpt>
      <trkpt lat="42.8498" lon="0.50548">
        <ele>1594</ele>
        <time>2020-02-01T13:50:54.000Z</time>
      </trkpt>
      <trkpt lat="42.8498" lon="0.50548">
        <ele>1594</ele>
        <time>2020-02-01T13:50:55.000Z</time>
      </trkpt>
      <trkpt lat="42.8498" lon="0.50548">
        <ele>1594</ele>
        <time>2020-02-01T13:50:56.000Z</time>
      </trkpt>
      <trkpt lat="42.8498" lon="0.50549">
        <ele>1594</ele>
        <time>2020-02-01T13:50:57.000Z</time>
      </trkpt>
      <trkpt lat="42.84981" lon="0.50551">
        <ele>1593</ele>
        <time>2020-02-01T13:50:58.000Z</time>
      </trkpt>
      <trkpt lat="42.84981" lon="0.50552">
        <ele>1593</ele>
        <time>2020-02-01T13:50:59.000Z</time>
      </trkpt>
      <trkpt lat="42.84981" lon="0.50554">
        <ele>1593</ele>
        <time>2020-02-01T13:51:00.000Z</time>
      </trkpt>
      <trkpt lat="42.84981" lon="0.50555">
        <ele>1592.7</ele>
        <time>2020-02-01T13:51:01.000Z</time>
      </trkpt>
      <trkpt lat="42.84981" lon="0.50557">
        <ele>1592.3</ele>
        <time>2020-02-01T13:51:02.000Z</time>
      </trkpt>
      <trkpt lat="42.84981" lon="0.50558">
        <ele>1592</ele>
        <time>2020-02-01T13:51:03.000Z</time>
      </trkpt>
      <trkpt lat="42.84981" lon="0.50559">
        <ele>1592</ele>
        <time>2020-02-01T13:51:04.000Z</time>
      </trkpt>
      <trkpt lat="42.84981" lon="0.50559">
        <ele>1592</ele>
        <time>2020-02-01T13:51:05.000Z</time>
      </trkpt>
      <trkpt lat="42.84981" lon="0.5056">
        <ele>1591</ele>
        <time>2020-02-01T13:51:06.000Z</time>
      </trkpt>
      <trkpt lat="42.84981" lon="0.5056">
        <ele>1591</ele>
        <time>2020-02-01T13:51:07.000Z</time>
      </trkpt>
      <trkpt lat="42.84981" lon="0.5056">
        <ele>1591</ele>
        <time>2020-02-01T13:51:08.000Z</time>
      </trkpt>
      <trkpt lat="42.84981" lon="0.5056">
        <ele>1591</ele>
        <time>2020-02-01T13:51:09.000Z</time>
      </trkpt>
      <trkpt lat="42.84981" lon="0.50561">
        <ele>1590.5</ele>
        <time>2020-02-01T13:51:10.000Z</time>
      </trkpt>
      <trkpt lat="42.84981" lon="0.50561">
        <ele>1590</ele>
        <time>2020-02-01T13:51:11.000Z</time>
      </trkpt>
      <trkpt lat="42.84981" lon="0.50561">
        <ele>1590</ele>
        <time>2020-02-01T13:51:12.000Z</time>
      </trkpt>
      <trkpt lat="42.84982" lon="0.50562">
        <ele>1590</ele>
        <time>2020-02-01T13:51:13.000Z</time>
      </trkpt>
      <trkpt lat="42.84982" lon="0.50563">
        <ele>1589</ele>
        <time>2020-02-01T13:51:14.000Z</time>
      </trkpt>
      <trkpt lat="42.84983" lon="0.50565">
        <ele>1589</ele>
        <time>2020-02-01T13:51:15.000Z</time>
      </trkpt>
      <trkpt lat="42.84983" lon="0.50566">
        <ele>1589</ele>
        <time>2020-02-01T13:51:16.000Z</time>
      </trkpt>
      <trkpt lat="42.84983" lon="0.50567">
        <ele>1588.7</ele>
        <time>2020-02-01T13:51:17.000Z</time>
      </trkpt>
      <trkpt lat="42.84983" lon="0.50567">
        <ele>1588.3</ele>
        <time>2020-02-01T13:51:18.000Z</time>
      </trkpt>
      <trkpt lat="42.84983" lon="0.50568">
        <ele>1588</ele>
        <time>2020-02-01T13:51:19.000Z</time>
      </trkpt>
      <trkpt lat="42.84983" lon="0.50568">
        <ele>1588</ele>
        <time>2020-02-01T13:51:20.000Z</time>
      </trkpt>
      <trkpt lat="42.84983" lon="0.50569">
        <ele>1588</ele>
        <time>2020-02-01T13:51:21.000Z</time>
      </trkpt>
      <trkpt lat="42.84983" lon="0.5057">
        <ele>1588</ele>
        <time>2020-02-01T13:51:22.000Z</time>
      </trkpt>
      <trkpt lat="42.84983" lon="0.5057">
        <ele>1587.7</ele>
        <time>2020-02-01T13:51:23.000Z</time>
      </trkpt>
      <trkpt lat="42.84983" lon="0.50571">
        <ele>1587.3</ele>
        <time>2020-02-01T13:51:24.000Z</time>
      </trkpt>
      <trkpt lat="42.84983" lon="0.50572">
        <ele>1587</ele>
        <time>2020-02-01T13:51:25.000Z</time>
      </trkpt>
      <trkpt lat="42.84982" lon="0.50573">
        <ele>1587</ele>
        <time>2020-02-01T13:51:26.000Z</time>
      </trkpt>
      <trkpt lat="42.84982" lon="0.50574">
        <ele>1587</ele>
        <time>2020-02-01T13:51:27.000Z</time>
      </trkpt>
      <trkpt lat="42.84982" lon="0.50575">
        <ele>1586.5</ele>
        <time>2020-02-01T13:51:28.000Z</time>
      </trkpt>
      <trkpt lat="42.84982" lon="0.50576">
        <ele>1586</ele>
        <time>2020-02-01T13:51:29.000Z</time>
      </trkpt>
      <trkpt lat="42.84982" lon="0.50577">
        <ele>1586</ele>
        <time>2020-02-01T13:51:30.000Z</time>
      </trkpt>
      <trkpt lat="42.84983" lon="0.50578">
        <ele>1586</ele>
        <time>2020-02-01T13:51:31.000Z</time>
      </trkpt>
      <trkpt lat="42.84983" lon="0.50579">
        <ele>1585</ele>
        <time>2020-02-01T13:51:32.000Z</time>
      </trkpt>
      <trkpt lat="42.84983" lon="0.50579">
        <ele>1584.5</ele>
        <time>2020-02-01T13:51:33.000Z</time>
      </trkpt>
      <trkpt lat="42.84984" lon="0.5058">
        <ele>1584</ele>
        <time>2020-02-01T13:51:34.000Z</time>
      </trkpt>
      <trkpt lat="42.84984" lon="0.5058">
        <ele>1583.7</ele>
        <time>2020-02-01T13:51:35.000Z</time>
      </trkpt>
      <trkpt lat="42.84984" lon="0.50581">
        <ele>1583.3</ele>
        <time>2020-02-01T13:51:36.000Z</time>
      </trkpt>
      <trkpt lat="42.84984" lon="0.50582">
        <ele>1583</ele>
        <time>2020-02-01T13:51:37.000Z</time>
      </trkpt>
      <trkpt lat="42.84985" lon="0.50583">
        <ele>1583</ele>
        <time>2020-02-01T13:51:38.000Z</time>
      </trkpt>
      <trkpt lat="42.84985" lon="0.50584">
        <ele>1582.7</ele>
        <time>2020-02-01T13:51:39.000Z</time>
      </trkpt>
      <trkpt lat="42.84985" lon="0.50585">
        <ele>1582.3</ele>
        <time>2020-02-01T13:51:40.000Z</time>
      </trkpt>
      <trkpt lat="42.84985" lon="0.50586">
        <ele>1582</ele>
        <time>2020-02-01T13:51:41.000Z</time>
      </trkpt>
      <trkpt lat="42.84985" lon="0.50586">
        <ele>1582</ele>
        <time>2020-02-01T13:51:42.000Z</time>
      </trkpt>
      <trkpt lat="42.84985" lon="0.50587">
        <ele>1581.7</ele>
        <time>2020-02-01T13:51:43.000Z</time>
      </trkpt>
      <trkpt lat="42.84985" lon="0.50587">
        <ele>1581.3</ele>
        <time>2020-02-01T13:51:44.000Z</time>
      </trkpt>
      <trkpt lat="42.84985" lon="0.50588">
        <ele>1581</ele>
        <time>2020-02-01T13:51:45.000Z</time>
      </trkpt>
      <trkpt lat="42.84985" lon="0.50588">
        <ele>1580.5</ele>
        <time>2020-02-01T13:51:46.000Z</time>
      </trkpt>
      <trkpt lat="42.84985" lon="0.50589">
        <ele>1580</ele>
        <time>2020-02-01T13:51:47.000Z</time>
      </trkpt>
      <trkpt lat="42.84985" lon="0.50589">
        <ele>1580</ele>
        <time>2020-02-01T13:51:48.000Z</time>
      </trkpt>
      <trkpt lat="42.84985" lon="0.5059">
        <ele>1580</ele>
        <time>2020-02-01T13:51:49.000Z</time>
      </trkpt>
      <trkpt lat="42.84986" lon="0.5059">
        <ele>1580</ele>
        <time>2020-02-01T13:51:50.000Z</time>
      </trkpt>
      <trkpt lat="42.84986" lon="0.50591">
        <ele>1580</ele>
        <time>2020-02-01T13:51:51.000Z</time>
      </trkpt>
      <trkpt lat="42.84986" lon="0.50591">
        <ele>1580</ele>
        <time>2020-02-01T13:51:52.000Z</time>
      </trkpt>
      <trkpt lat="42.84986" lon="0.50592">
        <ele>1580</ele>
        <time>2020-02-01T13:51:53.000Z</time>
      </trkpt>
      <trkpt lat="42.84986" lon="0.50593">
        <ele>1579.5</ele>
        <time>2020-02-01T13:51:54.000Z</time>
      </trkpt>
      <trkpt lat="42.84987" lon="0.50594">
        <ele>1579</ele>
        <time>2020-02-01T13:51:55.000Z</time>
      </trkpt>
      <trkpt lat="42.84987" lon="0.50595">
        <ele>1579</ele>
        <time>2020-02-01T13:51:56.000Z</time>
      </trkpt>
      <trkpt lat="42.84987" lon="0.50597">
        <ele>1578.7</ele>
        <time>2020-02-01T13:51:57.000Z</time>
      </trkpt>
      <trkpt lat="42.84987" lon="0.50598">
        <ele>1578.3</ele>
        <time>2020-02-01T13:51:58.000Z</time>
      </trkpt>
      <trkpt lat="42.84986" lon="0.50599">
        <ele>1578</ele>
        <time>2020-02-01T13:51:59.000Z</time>
      </trkpt>
      <trkpt lat="42.84986" lon="0.506">
        <ele>1578</ele>
        <time>2020-02-01T13:52:00.000Z</time>
      </trkpt>
      <trkpt lat="42.84986" lon="0.50601">
        <ele>1577.7</ele>
        <time>2020-02-01T13:52:01.000Z</time>
      </trkpt>
      <trkpt lat="42.84986" lon="0.50602">
        <ele>1577.3</ele>
        <time>2020-02-01T13:52:02.000Z</time>
      </trkpt>
      <trkpt lat="42.84986" lon="0.50603">
        <ele>1577</ele>
        <time>2020-02-01T13:52:03.000Z</time>
      </trkpt>
      <trkpt lat="42.84986" lon="0.50604">
        <ele>1576.5</ele>
        <time>2020-02-01T13:52:04.000Z</time>
      </trkpt>
      <trkpt lat="42.84986" lon="0.50605">
        <ele>1576</ele>
        <time>2020-02-01T13:52:05.000Z</time>
      </trkpt>
      <trkpt lat="42.84986" lon="0.50606">
        <ele>1576</ele>
        <time>2020-02-01T13:52:06.000Z</time>
      </trkpt>
      <trkpt lat="42.84986" lon="0.50607">
        <ele>1575.7</ele>
        <time>2020-02-01T13:52:07.000Z</time>
      </trkpt>
      <trkpt lat="42.84986" lon="0.50608">
        <ele>1575.3</ele>
        <time>2020-02-01T13:52:08.000Z</time>
      </trkpt>
      <trkpt lat="42.84986" lon="0.5061">
        <ele>1575</ele>
        <time>2020-02-01T13:52:09.000Z</time>
      </trkpt>
      <trkpt lat="42.84987" lon="0.50611">
        <ele>1575</ele>
        <time>2020-02-01T13:52:10.000Z</time>
      </trkpt>
      <trkpt lat="42.84987" lon="0.50612">
        <ele>1574.7</ele>
        <time>2020-02-01T13:52:11.000Z</time>
      </trkpt>
      <trkpt lat="42.84987" lon="0.50613">
        <ele>1574.3</ele>
        <time>2020-02-01T13:52:12.000Z</time>
      </trkpt>
      <trkpt lat="42.84988" lon="0.50614">
        <ele>1574</ele>
        <time>2020-02-01T13:52:13.000Z</time>
      </trkpt>
      <trkpt lat="42.84988" lon="0.50614">
        <ele>1574</ele>
        <time>2020-02-01T13:52:14.000Z</time>
      </trkpt>
      <trkpt lat="42.84988" lon="0.50615">
        <ele>1573.7</ele>
        <time>2020-02-01T13:52:15.000Z</time>
      </trkpt>
      <trkpt lat="42.84989" lon="0.50615">
        <ele>1573.3</ele>
        <time>2020-02-01T13:52:16.000Z</time>
      </trkpt>
      <trkpt lat="42.84989" lon="0.50616">
        <ele>1573</ele>
        <time>2020-02-01T13:52:17.000Z</time>
      </trkpt>
      <trkpt lat="42.84989" lon="0.50617">
        <ele>1573</ele>
        <time>2020-02-01T13:52:18.000Z</time>
      </trkpt>
      <trkpt lat="42.84989" lon="0.50618">
        <ele>1573</ele>
        <time>2020-02-01T13:52:19.000Z</time>
      </trkpt>
      <trkpt lat="42.84989" lon="0.50619">
        <ele>1572</ele>
        <time>2020-02-01T13:52:20.000Z</time>
      </trkpt>
      <trkpt lat="42.84989" lon="0.5062">
        <ele>1571.7</ele>
        <time>2020-02-01T13:52:21.000Z</time>
      </trkpt>
      <trkpt lat="42.84989" lon="0.50622">
        <ele>1571.3</ele>
        <time>2020-02-01T13:52:22.000Z</time>
      </trkpt>
      <trkpt lat="42.84989" lon="0.50623">
        <ele>1571</ele>
        <time>2020-02-01T13:52:23.000Z</time>
      </trkpt>
      <trkpt lat="42.84989" lon="0.50625">
        <ele>1571</ele>
        <time>2020-02-01T13:52:24.000Z</time>
      </trkpt>
      <trkpt lat="42.84988" lon="0.50626">
        <ele>1570.5</ele>
        <time>2020-02-01T13:52:25.000Z</time>
      </trkpt>
      <trkpt lat="42.84988" lon="0.50628">
        <ele>1570</ele>
        <time>2020-02-01T13:52:26.000Z</time>
      </trkpt>
      <trkpt lat="42.84988" lon="0.50629">
        <ele>1570</ele>
        <time>2020-02-01T13:52:27.000Z</time>
      </trkpt>
      <trkpt lat="42.84988" lon="0.5063">
        <ele>1570</ele>
        <time>2020-02-01T13:52:28.000Z</time>
      </trkpt>
      <trkpt lat="42.84988" lon="0.50632">
        <ele>1570</ele>
        <time>2020-02-01T13:52:29.000Z</time>
      </trkpt>
      <trkpt lat="42.84987" lon="0.50633">
        <ele>1569.5</ele>
        <time>2020-02-01T13:52:30.000Z</time>
      </trkpt>
      <trkpt lat="42.84987" lon="0.50634">
        <ele>1569</ele>
        <time>2020-02-01T13:52:31.000Z</time>
      </trkpt>
      <trkpt lat="42.84987" lon="0.50635">
        <ele>1568</ele>
        <time>2020-02-01T13:52:32.000Z</time>
      </trkpt>
      <trkpt lat="42.84987" lon="0.50636">
        <ele>1568</ele>
        <time>2020-02-01T13:52:33.000Z</time>
      </trkpt>
      <trkpt lat="42.84986" lon="0.50637">
        <ele>1568</ele>
        <time>2020-02-01T13:52:34.000Z</time>
      </trkpt>
      <trkpt lat="42.84986" lon="0.50638">
        <ele>1568</ele>
        <time>2020-02-01T13:52:35.000Z</time>
      </trkpt>
      <trkpt lat="42.84985" lon="0.50639">
        <ele>1567.5</ele>
        <time>2020-02-01T13:52:36.000Z</time>
      </trkpt>
      <trkpt lat="42.84985" lon="0.5064">
        <ele>1567</ele>
        <time>2020-02-01T13:52:37.000Z</time>
      </trkpt>
      <trkpt lat="42.84984" lon="0.50641">
        <ele>1566</ele>
        <time>2020-02-01T13:52:38.000Z</time>
      </trkpt>
      <trkpt lat="42.84984" lon="0.50642">
        <ele>1566</ele>
        <time>2020-02-01T13:52:39.000Z</time>
      </trkpt>
      <trkpt lat="42.84984" lon="0.50642">
        <ele>1566</ele>
        <time>2020-02-01T13:52:40.000Z</time>
      </trkpt>
      <trkpt lat="42.84983" lon="0.50643">
        <ele>1566</ele>
        <time>2020-02-01T13:52:41.000Z</time>
      </trkpt>
      <trkpt lat="42.84983" lon="0.50643">
        <ele>1565.5</ele>
        <time>2020-02-01T13:52:42.000Z</time>
      </trkpt>
      <trkpt lat="42.84983" lon="0.50644">
        <ele>1565</ele>
        <time>2020-02-01T13:52:43.000Z</time>
      </trkpt>
      <trkpt lat="42.84983" lon="0.50645">
        <ele>1565</ele>
        <time>2020-02-01T13:52:44.000Z</time>
      </trkpt>
      <trkpt lat="42.84982" lon="0.50646">
        <ele>1565</ele>
        <time>2020-02-01T13:52:45.000Z</time>
      </trkpt>
      <trkpt lat="42.84982" lon="0.50646">
        <ele>1564.5</ele>
        <time>2020-02-01T13:52:46.000Z</time>
      </trkpt>
      <trkpt lat="42.84982" lon="0.50647">
        <ele>1564</ele>
        <time>2020-02-01T13:52:47.000Z</time>
      </trkpt>
      <trkpt lat="42.84982" lon="0.50648">
        <ele>1564</ele>
        <time>2020-02-01T13:52:48.000Z</time>
      </trkpt>
      <trkpt lat="42.84981" lon="0.50649">
        <ele>1563.7</ele>
        <time>2020-02-01T13:52:49.000Z</time>
      </trkpt>
      <trkpt lat="42.84981" lon="0.5065">
        <ele>1563.3</ele>
        <time>2020-02-01T13:52:50.000Z</time>
      </trkpt>
      <trkpt lat="42.84981" lon="0.50651">
        <ele>1563</ele>
        <time>2020-02-01T13:52:51.000Z</time>
      </trkpt>
      <trkpt lat="42.84981" lon="0.50652">
        <ele>1563</ele>
        <time>2020-02-01T13:52:52.000Z</time>
      </trkpt>
      <trkpt lat="42.84981" lon="0.50653">
        <ele>1562.7</ele>
        <time>2020-02-01T13:52:53.000Z</time>
      </trkpt>
      <trkpt lat="42.84981" lon="0.50654">
        <ele>1562.3</ele>
        <time>2020-02-01T13:52:54.000Z</time>
      </trkpt>
      <trkpt lat="42.84981" lon="0.50655">
        <ele>1562</ele>
        <time>2020-02-01T13:52:55.000Z</time>
      </trkpt>
      <trkpt lat="42.84982" lon="0.50656">
        <ele>1562</ele>
        <time>2020-02-01T13:52:56.000Z</time>
      </trkpt>
      <trkpt lat="42.84982" lon="0.50657">
        <ele>1561.7</ele>
        <time>2020-02-01T13:52:57.000Z</time>
      </trkpt>
      <trkpt lat="42.84982" lon="0.50658">
        <ele>1561.3</ele>
        <time>2020-02-01T13:52:58.000Z</time>
      </trkpt>
      <trkpt lat="42.84982" lon="0.50659">
        <ele>1561</ele>
        <time>2020-02-01T13:52:59.000Z</time>
      </trkpt>
      <trkpt lat="42.84982" lon="0.5066">
        <ele>1561</ele>
        <time>2020-02-01T13:53:00.000Z</time>
      </trkpt>
      <trkpt lat="42.84982" lon="0.50661">
        <ele>1561</ele>
        <time>2020-02-01T13:53:01.000Z</time>
      </trkpt>
      <trkpt lat="42.84982" lon="0.50662">
        <ele>1560</ele>
        <time>2020-02-01T13:53:02.000Z</time>
      </trkpt>
      <trkpt lat="42.84982" lon="0.50664">
        <ele>1560</ele>
        <time>2020-02-01T13:53:03.000Z</time>
      </trkpt>
      <trkpt lat="42.84982" lon="0.50665">
        <ele>1560</ele>
        <time>2020-02-01T13:53:04.000Z</time>
      </trkpt>
      <trkpt lat="42.84982" lon="0.50666">
        <ele>1560</ele>
        <time>2020-02-01T13:53:05.000Z</time>
      </trkpt>
      <trkpt lat="42.84982" lon="0.50668">
        <ele>1559</ele>
        <time>2020-02-01T13:53:06.000Z</time>
      </trkpt>
      <trkpt lat="42.84982" lon="0.50669">
        <ele>1559</ele>
        <time>2020-02-01T13:53:07.000Z</time>
      </trkpt>
      <trkpt lat="42.84982" lon="0.50671">
        <ele>1559</ele>
        <time>2020-02-01T13:53:08.000Z</time>
      </trkpt>
      <trkpt lat="42.84982" lon="0.50672">
        <ele>1559</ele>
        <time>2020-02-01T13:53:09.000Z</time>
      </trkpt>
      <trkpt lat="42.84982" lon="0.50673">
        <ele>1558</ele>
        <time>2020-02-01T13:53:10.000Z</time>
      </trkpt>
      <trkpt lat="42.84982" lon="0.50674">
        <ele>1558</ele>
        <time>2020-02-01T13:53:11.000Z</time>
      </trkpt>
      <trkpt lat="42.84982" lon="0.50675">
        <ele>1558</ele>
        <time>2020-02-01T13:53:12.000Z</time>
      </trkpt>
      <trkpt lat="42.84982" lon="0.50676">
        <ele>1558</ele>
        <time>2020-02-01T13:53:13.000Z</time>
      </trkpt>
      <trkpt lat="42.84982" lon="0.50677">
        <ele>1557</ele>
        <time>2020-02-01T13:53:14.000Z</time>
      </trkpt>
      <trkpt lat="42.84982" lon="0.50678">
        <ele>1557</ele>
        <time>2020-02-01T13:53:15.000Z</time>
      </trkpt>
      <trkpt lat="42.84982" lon="0.50679">
        <ele>1557</ele>
        <time>2020-02-01T13:53:16.000Z</time>
      </trkpt>
      <trkpt lat="42.84982" lon="0.5068">
        <ele>1556.7</ele>
        <time>2020-02-01T13:53:17.000Z</time>
      </trkpt>
      <trkpt lat="42.84982" lon="0.50681">
        <ele>1556.3</ele>
        <time>2020-02-01T13:53:18.000Z</time>
      </trkpt>
      <trkpt lat="42.84982" lon="0.50682">
        <ele>1556</ele>
        <time>2020-02-01T13:53:19.000Z</time>
      </trkpt>
      <trkpt lat="42.84982" lon="0.50683">
        <ele>1556</ele>
        <time>2020-02-01T13:53:20.000Z</time>
      </trkpt>
      <trkpt lat="42.84981" lon="0.50685">
        <ele>1555.7</ele>
        <time>2020-02-01T13:53:21.000Z</time>
      </trkpt>
      <trkpt lat="42.84981" lon="0.50686">
        <ele>1555.3</ele>
        <time>2020-02-01T13:53:22.000Z</time>
      </trkpt>
      <trkpt lat="42.84981" lon="0.50687">
        <ele>1555</ele>
        <time>2020-02-01T13:53:23.000Z</time>
      </trkpt>
      <trkpt lat="42.84981" lon="0.50688">
        <ele>1555</ele>
        <time>2020-02-01T13:53:24.000Z</time>
      </trkpt>
      <trkpt lat="42.84981" lon="0.5069">
        <ele>1554.7</ele>
        <time>2020-02-01T13:53:25.000Z</time>
      </trkpt>
      <trkpt lat="42.84981" lon="0.50691">
        <ele>1554.3</ele>
        <time>2020-02-01T13:53:26.000Z</time>
      </trkpt>
      <trkpt lat="42.84981" lon="0.50692">
        <ele>1554</ele>
        <time>2020-02-01T13:53:27.000Z</time>
      </trkpt>
      <trkpt lat="42.84981" lon="0.50693">
        <ele>1553.5</ele>
        <time>2020-02-01T13:53:28.000Z</time>
      </trkpt>
      <trkpt lat="42.84981" lon="0.50694">
        <ele>1553</ele>
        <time>2020-02-01T13:53:29.000Z</time>
      </trkpt>
      <trkpt lat="42.84982" lon="0.50695">
        <ele>1553</ele>
        <time>2020-02-01T13:53:30.000Z</time>
      </trkpt>
      <trkpt lat="42.84982" lon="0.50696">
        <ele>1553</ele>
        <time>2020-02-01T13:53:31.000Z</time>
      </trkpt>
      <trkpt lat="42.84982" lon="0.50697">
        <ele>1553</ele>
        <time>2020-02-01T13:53:32.000Z</time>
      </trkpt>
      <trkpt lat="42.84982" lon="0.50698">
        <ele>1552.5</ele>
        <time>2020-02-01T13:53:33.000Z</time>
      </trkpt>
      <trkpt lat="42.84983" lon="0.50699">
        <ele>1552</ele>
        <time>2020-02-01T13:53:34.000Z</time>
      </trkpt>
      <trkpt lat="42.84983" lon="0.50701">
        <ele>1552</ele>
        <time>2020-02-01T13:53:35.000Z</time>
      </trkpt>
      <trkpt lat="42.84983" lon="0.50702">
        <ele>1552</ele>
        <time>2020-02-01T13:53:36.000Z</time>
      </trkpt>
      <trkpt lat="42.84984" lon="0.50703">
        <ele>1552</ele>
        <time>2020-02-01T13:53:37.000Z</time>
      </trkpt>
      <trkpt lat="42.84984" lon="0.50704">
        <ele>1551.5</ele>
        <time>2020-02-01T13:53:38.000Z</time>
      </trkpt>
      <trkpt lat="42.84984" lon="0.50704">
        <ele>1551</ele>
        <time>2020-02-01T13:53:39.000Z</time>
      </trkpt>
      <trkpt lat="42.84984" lon="0.50705">
        <ele>1551</ele>
        <time>2020-02-01T13:53:40.000Z</time>
      </trkpt>
      <trkpt lat="42.84984" lon="0.50705">
        <ele>1551</ele>
        <time>2020-02-01T13:53:41.000Z</time>
      </trkpt>
      <trkpt lat="42.84984" lon="0.50705">
        <ele>1550</ele>
        <time>2020-02-01T13:53:42.000Z</time>
      </trkpt>
      <trkpt lat="42.84984" lon="0.50705">
        <ele>1549.7</ele>
        <time>2020-02-01T13:53:43.000Z</time>
      </trkpt>
      <trkpt lat="42.84985" lon="0.50706">
        <ele>1549.3</ele>
        <time>2020-02-01T13:53:44.000Z</time>
      </trkpt>
      <trkpt lat="42.84985" lon="0.50707">
        <ele>1549</ele>
        <time>2020-02-01T13:53:45.000Z</time>
      </trkpt>
      <trkpt lat="42.84985" lon="0.50709">
        <ele>1549</ele>
        <time>2020-02-01T13:53:46.000Z</time>
      </trkpt>
      <trkpt lat="42.84985" lon="0.50711">
        <ele>1549</ele>
        <time>2020-02-01T13:53:47.000Z</time>
      </trkpt>
      <trkpt lat="42.84985" lon="0.50712">
        <ele>1548.5</ele>
        <time>2020-02-01T13:53:48.000Z</time>
      </trkpt>
      <trkpt lat="42.84985" lon="0.50714">
        <ele>1548</ele>
        <time>2020-02-01T13:53:49.000Z</time>
      </trkpt>
      <trkpt lat="42.84984" lon="0.50716">
        <ele>1548</ele>
        <time>2020-02-01T13:53:50.000Z</time>
      </trkpt>
      <trkpt lat="42.84984" lon="0.50717">
        <ele>1548</ele>
        <time>2020-02-01T13:53:51.000Z</time>
      </trkpt>
      <trkpt lat="42.84984" lon="0.50718">
        <ele>1547.5</ele>
        <time>2020-02-01T13:53:52.000Z</time>
      </trkpt>
      <trkpt lat="42.84985" lon="0.5072">
        <ele>1547</ele>
        <time>2020-02-01T13:53:53.000Z</time>
      </trkpt>
      <trkpt lat="42.84984" lon="0.50721">
        <ele>1546</ele>
        <time>2020-02-01T13:53:54.000Z</time>
      </trkpt>
      <trkpt lat="42.84984" lon="0.50722">
        <ele>1546</ele>
        <time>2020-02-01T13:53:55.000Z</time>
      </trkpt>
      <trkpt lat="42.84984" lon="0.50724">
        <ele>1546</ele>
        <time>2020-02-01T13:53:56.000Z</time>
      </trkpt>
      <trkpt lat="42.84984" lon="0.50725">
        <ele>1546</ele>
        <time>2020-02-01T13:53:57.000Z</time>
      </trkpt>
      <trkpt lat="42.84983" lon="0.50726">
        <ele>1546</ele>
        <time>2020-02-01T13:53:58.000Z</time>
      </trkpt>
      <trkpt lat="42.84983" lon="0.50727">
        <ele>1546</ele>
        <time>2020-02-01T13:53:59.000Z</time>
      </trkpt>
      <trkpt lat="42.84982" lon="0.50729">
        <ele>1545.5</ele>
        <time>2020-02-01T13:54:00.000Z</time>
      </trkpt>
      <trkpt lat="42.84982" lon="0.5073">
        <ele>1545</ele>
        <time>2020-02-01T13:54:01.000Z</time>
      </trkpt>
      <trkpt lat="42.84982" lon="0.50732">
        <ele>1544.5</ele>
        <time>2020-02-01T13:54:02.000Z</time>
      </trkpt>
      <trkpt lat="42.84981" lon="0.50733">
        <ele>1544</ele>
        <time>2020-02-01T13:54:03.000Z</time>
      </trkpt>
      <trkpt lat="42.84981" lon="0.50734">
        <ele>1544</ele>
        <time>2020-02-01T13:54:04.000Z</time>
      </trkpt>
      <trkpt lat="42.84981" lon="0.50736">
        <ele>1543.7</ele>
        <time>2020-02-01T13:54:05.000Z</time>
      </trkpt>
      <trkpt lat="42.84981" lon="0.50737">
        <ele>1543.3</ele>
        <time>2020-02-01T13:54:06.000Z</time>
      </trkpt>
      <trkpt lat="42.8498" lon="0.50738">
        <ele>1543</ele>
        <time>2020-02-01T13:54:07.000Z</time>
      </trkpt>
      <trkpt lat="42.8498" lon="0.50739">
        <ele>1542</ele>
        <time>2020-02-01T13:54:08.000Z</time>
      </trkpt>
      <trkpt lat="42.8498" lon="0.5074">
        <ele>1542</ele>
        <time>2020-02-01T13:54:09.000Z</time>
      </trkpt>
      <trkpt lat="42.8498" lon="0.50741">
        <ele>1542</ele>
        <time>2020-02-01T13:54:10.000Z</time>
      </trkpt>
      <trkpt lat="42.8498" lon="0.50742">
        <ele>1542</ele>
        <time>2020-02-01T13:54:11.000Z</time>
      </trkpt>
      <trkpt lat="42.8498" lon="0.50743">
        <ele>1541</ele>
        <time>2020-02-01T13:54:12.000Z</time>
      </trkpt>
      <trkpt lat="42.8498" lon="0.50744">
        <ele>1541</ele>
        <time>2020-02-01T13:54:13.000Z</time>
      </trkpt>
      <trkpt lat="42.8498" lon="0.50744">
        <ele>1541</ele>
        <time>2020-02-01T13:54:14.000Z</time>
      </trkpt>
      <trkpt lat="42.8498" lon="0.50745">
        <ele>1541</ele>
        <time>2020-02-01T13:54:15.000Z</time>
      </trkpt>
      <trkpt lat="42.8498" lon="0.50746">
        <ele>1540</ele>
        <time>2020-02-01T13:54:16.000Z</time>
      </trkpt>
      <trkpt lat="42.8498" lon="0.50747">
        <ele>1540</ele>
        <time>2020-02-01T13:54:17.000Z</time>
      </trkpt>
      <trkpt lat="42.84981" lon="0.50748">
        <ele>1540</ele>
        <time>2020-02-01T13:54:18.000Z</time>
      </trkpt>
      <trkpt lat="42.84981" lon="0.50749">
        <ele>1540</ele>
        <time>2020-02-01T13:54:19.000Z</time>
      </trkpt>
      <trkpt lat="42.84981" lon="0.5075">
        <ele>1539</ele>
        <time>2020-02-01T13:54:20.000Z</time>
      </trkpt>
      <trkpt lat="42.84982" lon="0.50751">
        <ele>1539</ele>
        <time>2020-02-01T13:54:21.000Z</time>
      </trkpt>
      <trkpt lat="42.84982" lon="0.50753">
        <ele>1539</ele>
        <time>2020-02-01T13:54:22.000Z</time>
      </trkpt>
      <trkpt lat="42.84983" lon="0.50754">
        <ele>1539</ele>
        <time>2020-02-01T13:54:23.000Z</time>
      </trkpt>
      <trkpt lat="42.84983" lon="0.50755">
        <ele>1538.5</ele>
        <time>2020-02-01T13:54:24.000Z</time>
      </trkpt>
      <trkpt lat="42.84983" lon="0.50757">
        <ele>1538</ele>
        <time>2020-02-01T13:54:25.000Z</time>
      </trkpt>
      <trkpt lat="42.84982" lon="0.50758">
        <ele>1538</ele>
        <time>2020-02-01T13:54:26.000Z</time>
      </trkpt>
      <trkpt lat="42.84981" lon="0.5076">
        <ele>1537.7</ele>
        <time>2020-02-01T13:54:27.000Z</time>
      </trkpt>
      <trkpt lat="42.8498" lon="0.50761">
        <ele>1537.3</ele>
        <time>2020-02-01T13:54:28.000Z</time>
      </trkpt>
      <trkpt lat="42.8498" lon="0.50762">
        <ele>1537</ele>
        <time>2020-02-01T13:54:29.000Z</time>
      </trkpt>
      <trkpt lat="42.84979" lon="0.50763">
        <ele>1537</ele>
        <time>2020-02-01T13:54:30.000Z</time>
      </trkpt>
      <trkpt lat="42.84979" lon="0.50765">
        <ele>1536.7</ele>
        <time>2020-02-01T13:54:31.000Z</time>
      </trkpt>
      <trkpt lat="42.84979" lon="0.50766">
        <ele>1536.3</ele>
        <time>2020-02-01T13:54:32.000Z</time>
      </trkpt>
      <trkpt lat="42.84979" lon="0.50767">
        <ele>1536</ele>
        <time>2020-02-01T13:54:33.000Z</time>
      </trkpt>
      <trkpt lat="42.84979" lon="0.50768">
        <ele>1536</ele>
        <time>2020-02-01T13:54:34.000Z</time>
      </trkpt>
      <trkpt lat="42.84979" lon="0.50769">
        <ele>1535.7</ele>
        <time>2020-02-01T13:54:35.000Z</time>
      </trkpt>
      <trkpt lat="42.84978" lon="0.5077">
        <ele>1535.3</ele>
        <time>2020-02-01T13:54:36.000Z</time>
      </trkpt>
      <trkpt lat="42.84978" lon="0.50772">
        <ele>1535</ele>
        <time>2020-02-01T13:54:37.000Z</time>
      </trkpt>
      <trkpt lat="42.84978" lon="0.50773">
        <ele>1535</ele>
        <time>2020-02-01T13:54:38.000Z</time>
      </trkpt>
      <trkpt lat="42.84978" lon="0.50774">
        <ele>1534.7</ele>
        <time>2020-02-01T13:54:39.000Z</time>
      </trkpt>
      <trkpt lat="42.84978" lon="0.50775">
        <ele>1534.3</ele>
        <time>2020-02-01T13:54:40.000Z</time>
      </trkpt>
      <trkpt lat="42.84978" lon="0.50776">
        <ele>1534</ele>
        <time>2020-02-01T13:54:41.000Z</time>
      </trkpt>
      <trkpt lat="42.84978" lon="0.50777">
        <ele>1534</ele>
        <time>2020-02-01T13:54:42.000Z</time>
      </trkpt>
      <trkpt lat="42.84978" lon="0.50778">
        <ele>1533.7</ele>
        <time>2020-02-01T13:54:43.000Z</time>
      </trkpt>
      <trkpt lat="42.84978" lon="0.50779">
        <ele>1533.3</ele>
        <time>2020-02-01T13:54:44.000Z</time>
      </trkpt>
      <trkpt lat="42.84978" lon="0.5078">
        <ele>1533</ele>
        <time>2020-02-01T13:54:45.000Z</time>
      </trkpt>
      <trkpt lat="42.84979" lon="0.50781">
        <ele>1532</ele>
        <time>2020-02-01T13:54:46.000Z</time>
      </trkpt>
      <trkpt lat="42.84979" lon="0.50782">
        <ele>1532</ele>
        <time>2020-02-01T13:54:47.000Z</time>
      </trkpt>
      <trkpt lat="42.84979" lon="0.50783">
        <ele>1532</ele>
        <time>2020-02-01T13:54:48.000Z</time>
      </trkpt>
      <trkpt lat="42.84979" lon="0.50784">
        <ele>1532</ele>
        <time>2020-02-01T13:54:49.000Z</time>
      </trkpt>
      <trkpt lat="42.84979" lon="0.50785">
        <ele>1532</ele>
        <time>2020-02-01T13:54:50.000Z</time>
      </trkpt>
      <trkpt lat="42.84979" lon="0.50786">
        <ele>1531.7</ele>
        <time>2020-02-01T13:54:51.000Z</time>
      </trkpt>
      <trkpt lat="42.84979" lon="0.50787">
        <ele>1531.3</ele>
        <time>2020-02-01T13:54:52.000Z</time>
      </trkpt>
      <trkpt lat="42.84979" lon="0.50788">
        <ele>1531</ele>
        <time>2020-02-01T13:54:53.000Z</time>
      </trkpt>
      <trkpt lat="42.84979" lon="0.50789">
        <ele>1531</ele>
        <time>2020-02-01T13:54:54.000Z</time>
      </trkpt>
      <trkpt lat="42.84979" lon="0.5079">
        <ele>1531</ele>
        <time>2020-02-01T13:54:55.000Z</time>
      </trkpt>
      <trkpt lat="42.84979" lon="0.50791">
        <ele>1531</ele>
        <time>2020-02-01T13:54:56.000Z</time>
      </trkpt>
      <trkpt lat="42.84978" lon="0.50792">
        <ele>1531</ele>
        <time>2020-02-01T13:54:57.000Z</time>
      </trkpt>
      <trkpt lat="42.84978" lon="0.50793">
        <ele>1530.5</ele>
        <time>2020-02-01T13:54:58.000Z</time>
      </trkpt>
      <trkpt lat="42.84977" lon="0.50794">
        <ele>1530</ele>
        <time>2020-02-01T13:54:59.000Z</time>
      </trkpt>
      <trkpt lat="42.84977" lon="0.50795">
        <ele>1529</ele>
        <time>2020-02-01T13:55:00.000Z</time>
      </trkpt>
      <trkpt lat="42.84977" lon="0.50796">
        <ele>1529</ele>
        <time>2020-02-01T13:55:01.000Z</time>
      </trkpt>
      <trkpt lat="42.84976" lon="0.50796">
        <ele>1529</ele>
        <time>2020-02-01T13:55:02.000Z</time>
      </trkpt>
      <trkpt lat="42.84976" lon="0.50797">
        <ele>1529</ele>
        <time>2020-02-01T13:55:03.000Z</time>
      </trkpt>
      <trkpt lat="42.84975" lon="0.50798">
        <ele>1528.5</ele>
        <time>2020-02-01T13:55:04.000Z</time>
      </trkpt>
      <trkpt lat="42.84974" lon="0.50798">
        <ele>1528</ele>
        <time>2020-02-01T13:55:05.000Z</time>
      </trkpt>
      <trkpt lat="42.84974" lon="0.50799">
        <ele>1528</ele>
        <time>2020-02-01T13:55:06.000Z</time>
      </trkpt>
      <trkpt lat="42.84973" lon="0.50799">
        <ele>1528</ele>
        <time>2020-02-01T13:55:07.000Z</time>
      </trkpt>
      <trkpt lat="42.84972" lon="0.508">
        <ele>1528</ele>
        <time>2020-02-01T13:55:08.000Z</time>
      </trkpt>
      <trkpt lat="42.84972" lon="0.508">
        <ele>1528</ele>
        <time>2020-02-01T13:55:09.000Z</time>
      </trkpt>
      <trkpt lat="42.84971" lon="0.508">
        <ele>1528</ele>
        <time>2020-02-01T13:55:10.000Z</time>
      </trkpt>
      <trkpt lat="42.8497" lon="0.508">
        <ele>1528</ele>
        <time>2020-02-01T13:55:11.000Z</time>
      </trkpt>
      <trkpt lat="42.84969" lon="0.508">
        <ele>1527.5</ele>
        <time>2020-02-01T13:55:12.000Z</time>
      </trkpt>
      <trkpt lat="42.84968" lon="0.508">
        <ele>1527</ele>
        <time>2020-02-01T13:55:13.000Z</time>
      </trkpt>
      <trkpt lat="42.84967" lon="0.508">
        <ele>1526.5</ele>
        <time>2020-02-01T13:55:14.000Z</time>
      </trkpt>
      <trkpt lat="42.84966" lon="0.508">
        <ele>1526</ele>
        <time>2020-02-01T13:55:15.000Z</time>
      </trkpt>
      <trkpt lat="42.84966" lon="0.508">
        <ele>1526</ele>
        <time>2020-02-01T13:55:16.000Z</time>
      </trkpt>
      <trkpt lat="42.84965" lon="0.508">
        <ele>1526</ele>
        <time>2020-02-01T13:55:17.000Z</time>
      </trkpt>
      <trkpt lat="42.84964" lon="0.50799">
        <ele>1526</ele>
        <time>2020-02-01T13:55:18.000Z</time>
      </trkpt>
      <trkpt lat="42.84963" lon="0.50799">
        <ele>1526</ele>
        <time>2020-02-01T13:55:19.000Z</time>
      </trkpt>
      <trkpt lat="42.84963" lon="0.50799">
        <ele>1525.5</ele>
        <time>2020-02-01T13:55:20.000Z</time>
      </trkpt>
      <trkpt lat="42.84962" lon="0.50798">
        <ele>1525</ele>
        <time>2020-02-01T13:55:21.000Z</time>
      </trkpt>
      <trkpt lat="42.84962" lon="0.50798">
        <ele>1525</ele>
        <time>2020-02-01T13:55:22.000Z</time>
      </trkpt>
      <trkpt lat="42.84961" lon="0.50798">
        <ele>1525</ele>
        <time>2020-02-01T13:55:23.000Z</time>
      </trkpt>
      <trkpt lat="42.84961" lon="0.50797">
        <ele>1524</ele>
        <time>2020-02-01T13:55:24.000Z</time>
      </trkpt>
      <trkpt lat="42.84961" lon="0.50797">
        <ele>1524</ele>
        <time>2020-02-01T13:55:25.000Z</time>
      </trkpt>
      <trkpt lat="42.84961" lon="0.50797">
        <ele>1524</ele>
        <time>2020-02-01T13:55:26.000Z</time>
      </trkpt>
      <trkpt lat="42.84961" lon="0.50797">
        <ele>1524</ele>
        <time>2020-02-01T13:55:27.000Z</time>
      </trkpt>
      <trkpt lat="42.84961" lon="0.50797">
        <ele>1524</ele>
        <time>2020-02-01T13:55:28.000Z</time>
      </trkpt>
      <trkpt lat="42.84961" lon="0.50797">
        <ele>1524</ele>
        <time>2020-02-01T13:55:29.000Z</time>
      </trkpt>
      <trkpt lat="42.84961" lon="0.50797">
        <ele>1523</ele>
        <time>2020-02-01T13:55:30.000Z</time>
      </trkpt>
      <trkpt lat="42.8496" lon="0.50796">
        <ele>1523</ele>
        <time>2020-02-01T13:55:31.000Z</time>
      </trkpt>
      <trkpt lat="42.8496" lon="0.50796">
        <ele>1523</ele>
        <time>2020-02-01T13:55:32.000Z</time>
      </trkpt>
      <trkpt lat="42.8496" lon="0.50796">
        <ele>1522.7</ele>
        <time>2020-02-01T13:55:33.000Z</time>
      </trkpt>
      <trkpt lat="42.8496" lon="0.50795">
        <ele>1522.3</ele>
        <time>2020-02-01T13:55:34.000Z</time>
      </trkpt>
      <trkpt lat="42.8496" lon="0.50795">
        <ele>1522</ele>
        <time>2020-02-01T13:55:35.000Z</time>
      </trkpt>
      <trkpt lat="42.84959" lon="0.50794">
        <ele>1522</ele>
        <time>2020-02-01T13:55:36.000Z</time>
      </trkpt>
      <trkpt lat="42.84959" lon="0.50794">
        <ele>1522</ele>
        <time>2020-02-01T13:55:37.000Z</time>
      </trkpt>
      <trkpt lat="42.84959" lon="0.50794">
        <ele>1522</ele>
        <time>2020-02-01T13:55:38.000Z</time>
      </trkpt>
      <trkpt lat="42.84959" lon="0.50793">
        <ele>1522</ele>
        <time>2020-02-01T13:55:39.000Z</time>
      </trkpt>
      <trkpt lat="42.84958" lon="0.50793">
        <ele>1521</ele>
        <time>2020-02-01T13:55:40.000Z</time>
      </trkpt>
      <trkpt lat="42.84958" lon="0.50793">
        <ele>1521</ele>
        <time>2020-02-01T13:55:41.000Z</time>
      </trkpt>
      <trkpt lat="42.84957" lon="0.50792">
        <ele>1521</ele>
        <time>2020-02-01T13:55:42.000Z</time>
      </trkpt>
      <trkpt lat="42.84957" lon="0.50792">
        <ele>1521</ele>
        <time>2020-02-01T13:55:43.000Z</time>
      </trkpt>
      <trkpt lat="42.84956" lon="0.50792">
        <ele>1520</ele>
        <time>2020-02-01T13:55:44.000Z</time>
      </trkpt>
      <trkpt lat="42.84955" lon="0.50791">
        <ele>1520</ele>
        <time>2020-02-01T13:55:45.000Z</time>
      </trkpt>
      <trkpt lat="42.84954" lon="0.50791">
        <ele>1520</ele>
        <time>2020-02-01T13:55:46.000Z</time>
      </trkpt>
      <trkpt lat="42.84953" lon="0.5079">
        <ele>1520</ele>
        <time>2020-02-01T13:55:47.000Z</time>
      </trkpt>
      <trkpt lat="42.84952" lon="0.5079">
        <ele>1519</ele>
        <time>2020-02-01T13:55:48.000Z</time>
      </trkpt>
      <trkpt lat="42.84951" lon="0.50789">
        <ele>1519</ele>
        <time>2020-02-01T13:55:49.000Z</time>
      </trkpt>
      <trkpt lat="42.84951" lon="0.50788">
        <ele>1519</ele>
        <time>2020-02-01T13:55:50.000Z</time>
      </trkpt>
      <trkpt lat="42.8495" lon="0.50788">
        <ele>1519</ele>
        <time>2020-02-01T13:55:51.000Z</time>
      </trkpt>
      <trkpt lat="42.84949" lon="0.50787">
        <ele>1518</ele>
        <time>2020-02-01T13:55:52.000Z</time>
      </trkpt>
      <trkpt lat="42.84949" lon="0.50787">
        <ele>1518</ele>
        <time>2020-02-01T13:55:53.000Z</time>
      </trkpt>
      <trkpt lat="42.84948" lon="0.50786">
        <ele>1518</ele>
        <time>2020-02-01T13:55:54.000Z</time>
      </trkpt>
      <trkpt lat="42.84948" lon="0.50785">
        <ele>1518</ele>
        <time>2020-02-01T13:55:55.000Z</time>
      </trkpt>
      <trkpt lat="42.84948" lon="0.50785">
        <ele>1517</ele>
        <time>2020-02-01T13:55:56.000Z</time>
      </trkpt>
      <trkpt lat="42.84947" lon="0.50785">
        <ele>1517</ele>
        <time>2020-02-01T13:55:57.000Z</time>
      </trkpt>
      <trkpt lat="42.84947" lon="0.50784">
        <ele>1517</ele>
        <time>2020-02-01T13:55:58.000Z</time>
      </trkpt>
      <trkpt lat="42.84947" lon="0.50784">
        <ele>1517</ele>
        <time>2020-02-01T13:55:59.000Z</time>
      </trkpt>
      <trkpt lat="42.84947" lon="0.50784">
        <ele>1517</ele>
        <time>2020-02-01T13:56:00.000Z</time>
      </trkpt>
      <trkpt lat="42.84947" lon="0.50784">
        <ele>1517</ele>
        <time>2020-02-01T13:56:01.000Z</time>
      </trkpt>
      <trkpt lat="42.84947" lon="0.50784">
        <ele>1516</ele>
        <time>2020-02-01T13:56:02.000Z</time>
      </trkpt>
      <trkpt lat="42.84947" lon="0.50784">
        <ele>1516</ele>
        <time>2020-02-01T13:56:03.000Z</time>
      </trkpt>
      <trkpt lat="42.84947" lon="0.50784">
        <ele>1516</ele>
        <time>2020-02-01T13:56:04.000Z</time>
      </trkpt>
      <trkpt lat="42.84946" lon="0.50784">
        <ele>1516</ele>
        <time>2020-02-01T13:56:05.000Z</time>
      </trkpt>
      <trkpt lat="42.84946" lon="0.50784">
        <ele>1516</ele>
        <time>2020-02-01T13:56:06.000Z</time>
      </trkpt>
      <trkpt lat="42.84946" lon="0.50784">
        <ele>1516</ele>
        <time>2020-02-01T13:56:07.000Z</time>
      </trkpt>
      <trkpt lat="42.84946" lon="0.50784">
        <ele>1516</ele>
        <time>2020-02-01T13:56:08.000Z</time>
      </trkpt>
      <trkpt lat="42.84946" lon="0.50784">
        <ele>1516</ele>
        <time>2020-02-01T13:56:09.000Z</time>
      </trkpt>
      <trkpt lat="42.84946" lon="0.50784">
        <ele>1515</ele>
        <time>2020-02-01T13:56:10.000Z</time>
      </trkpt>
      <trkpt lat="42.84946" lon="0.50784">
        <ele>1515</ele>
        <time>2020-02-01T13:56:11.000Z</time>
      </trkpt>
      <trkpt lat="42.84946" lon="0.50784">
        <ele>1515</ele>
        <time>2020-02-01T13:56:12.000Z</time>
      </trkpt>
      <trkpt lat="42.84946" lon="0.50784">
        <ele>1515</ele>
        <time>2020-02-01T13:56:13.000Z</time>
      </trkpt>
      <trkpt lat="42.84946" lon="0.50784">
        <ele>1515</ele>
        <time>2020-02-01T13:56:14.000Z</time>
      </trkpt>
      <trkpt lat="42.84946" lon="0.50784">
        <ele>1515</ele>
        <time>2020-02-01T13:56:15.000Z</time>
      </trkpt>
      <trkpt lat="42.84946" lon="0.50784">
        <ele>1515</ele>
        <time>2020-02-01T13:56:16.000Z</time>
      </trkpt>
      <trkpt lat="42.84946" lon="0.50784">
        <ele>1515</ele>
        <time>2020-02-01T13:56:17.000Z</time>
      </trkpt>
      <trkpt lat="42.84946" lon="0.50784">
        <ele>1515</ele>
        <time>2020-02-01T13:56:18.000Z</time>
      </trkpt>
      <trkpt lat="42.84946" lon="0.50784">
        <ele>1515</ele>
        <time>2020-02-01T13:56:19.000Z</time>
      </trkpt>
      <trkpt lat="42.84945" lon="0.50784">
        <ele>1515</ele>
        <time>2020-02-01T13:56:20.000Z</time>
      </trkpt>
      <trkpt lat="42.84945" lon="0.50784">
        <ele>1515</ele>
        <time>2020-02-01T13:56:21.000Z</time>
      </trkpt>
      <trkpt lat="42.84945" lon="0.50784">
        <ele>1515</ele>
        <time>2020-02-01T13:56:22.000Z</time>
      </trkpt>
      <trkpt lat="42.84945" lon="0.50784">
        <ele>1515</ele>
        <time>2020-02-01T13:56:23.000Z</time>
      </trkpt>
      <trkpt lat="42.84944" lon="0.50784">
        <ele>1515</ele>
        <time>2020-02-01T13:56:24.000Z</time>
      </trkpt>
      <trkpt lat="42.84944" lon="0.50784">
        <ele>1515</ele>
        <time>2020-02-01T13:56:25.000Z</time>
      </trkpt>
      <trkpt lat="42.84944" lon="0.50785">
        <ele>1515</ele>
        <time>2020-02-01T13:56:26.000Z</time>
      </trkpt>
      <trkpt lat="42.84944" lon="0.50785">
        <ele>1515</ele>
        <time>2020-02-01T13:56:27.000Z</time>
      </trkpt>
      <trkpt lat="42.84944" lon="0.50785">
        <ele>1515</ele>
        <time>2020-02-01T13:56:28.000Z</time>
      </trkpt>
      <trkpt lat="42.84944" lon="0.50785">
        <ele>1515</ele>
        <time>2020-02-01T13:56:29.000Z</time>
      </trkpt>
      <trkpt lat="42.84944" lon="0.50785">
        <ele>1515</ele>
        <time>2020-02-01T13:56:30.000Z</time>
      </trkpt>
      <trkpt lat="42.84944" lon="0.50785">
        <ele>1515</ele>
        <time>2020-02-01T13:56:31.000Z</time>
      </trkpt>
      <trkpt lat="42.84944" lon="0.50785">
        <ele>1515</ele>
        <time>2020-02-01T13:56:32.000Z</time>
      </trkpt>
      <trkpt lat="42.84944" lon="0.50785">
        <ele>1515</ele>
        <time>2020-02-01T13:56:33.000Z</time>
      </trkpt>
      <trkpt lat="42.84944" lon="0.50785">
        <ele>1515</ele>
        <time>2020-02-01T13:56:34.000Z</time>
      </trkpt>
      <trkpt lat="42.84944" lon="0.50785">
        <ele>1515</ele>
        <time>2020-02-01T13:56:35.000Z</time>
      </trkpt>
      <trkpt lat="42.84944" lon="0.50785">
        <ele>1515.5</ele>
        <time>2020-02-01T13:56:36.000Z</time>
      </trkpt>
      <trkpt lat="42.84944" lon="0.50785">
        <ele>1516</ele>
        <time>2020-02-01T13:56:37.000Z</time>
      </trkpt>
      <trkpt lat="42.84944" lon="0.50785">
        <ele>1516</ele>
        <time>2020-02-01T13:56:38.000Z</time>
      </trkpt>
      <trkpt lat="42.84943" lon="0.50784">
        <ele>1516</ele>
        <time>2020-02-01T13:56:39.000Z</time>
      </trkpt>
      <trkpt lat="42.84943" lon="0.50784">
        <ele>1516</ele>
        <time>2020-02-01T13:56:40.000Z</time>
      </trkpt>
      <trkpt lat="42.84943" lon="0.50784">
        <ele>1516</ele>
        <time>2020-02-01T13:56:41.000Z</time>
      </trkpt>
      <trkpt lat="42.84943" lon="0.50784">
        <ele>1515.5</ele>
        <time>2020-02-01T13:56:42.000Z</time>
      </trkpt>
      <trkpt lat="42.84943" lon="0.50784">
        <ele>1515</ele>
        <time>2020-02-01T13:56:43.000Z</time>
      </trkpt>
      <trkpt lat="42.84942" lon="0.50784">
        <ele>1515</ele>
        <time>2020-02-01T13:56:44.000Z</time>
      </trkpt>
      <trkpt lat="42.84942" lon="0.50783">
        <ele>1515</ele>
        <time>2020-02-01T13:56:45.000Z</time>
      </trkpt>
      <trkpt lat="42.84941" lon="0.50783">
        <ele>1515</ele>
        <time>2020-02-01T13:56:46.000Z</time>
      </trkpt>
      <trkpt lat="42.84941" lon="0.50783">
        <ele>1515</ele>
        <time>2020-02-01T13:56:47.000Z</time>
      </trkpt>
      <trkpt lat="42.8494" lon="0.50782">
        <ele>1514.5</ele>
        <time>2020-02-01T13:56:48.000Z</time>
      </trkpt>
      <trkpt lat="42.84939" lon="0.50782">
        <ele>1514</ele>
        <time>2020-02-01T13:56:49.000Z</time>
      </trkpt>
      <trkpt lat="42.84939" lon="0.50781">
        <ele>1514</ele>
        <time>2020-02-01T13:56:50.000Z</time>
      </trkpt>
      <trkpt lat="42.84938" lon="0.50781">
        <ele>1514</ele>
        <time>2020-02-01T13:56:51.000Z</time>
      </trkpt>
      <trkpt lat="42.84937" lon="0.50782">
        <ele>1513</ele>
        <time>2020-02-01T13:56:52.000Z</time>
      </trkpt>
      <trkpt lat="42.84937" lon="0.50782">
        <ele>1513</ele>
        <time>2020-02-01T13:56:53.000Z</time>
      </trkpt>
      <trkpt lat="42.84936" lon="0.50782">
        <ele>1513</ele>
        <time>2020-02-01T13:56:54.000Z</time>
      </trkpt>
      <trkpt lat="42.84936" lon="0.50782">
        <ele>1513</ele>
        <time>2020-02-01T13:56:55.000Z</time>
      </trkpt>
      <trkpt lat="42.84935" lon="0.50782">
        <ele>1512.5</ele>
        <time>2020-02-01T13:56:56.000Z</time>
      </trkpt>
      <trkpt lat="42.84935" lon="0.50782">
        <ele>1512</ele>
        <time>2020-02-01T13:56:57.000Z</time>
      </trkpt>
      <trkpt lat="42.84934" lon="0.50782">
        <ele>1512</ele>
        <time>2020-02-01T13:56:58.000Z</time>
      </trkpt>
      <trkpt lat="42.84934" lon="0.50782">
        <ele>1511.7</ele>
        <time>2020-02-01T13:56:59.000Z</time>
      </trkpt>
      <trkpt lat="42.84934" lon="0.50782">
        <ele>1511.3</ele>
        <time>2020-02-01T13:57:00.000Z</time>
      </trkpt>
      <trkpt lat="42.84934" lon="0.50781">
        <ele>1511</ele>
        <time>2020-02-01T13:57:01.000Z</time>
      </trkpt>
      <trkpt lat="42.84933" lon="0.50781">
        <ele>1511</ele>
        <time>2020-02-01T13:57:02.000Z</time>
      </trkpt>
      <trkpt lat="42.84932" lon="0.5078">
        <ele>1510.7</ele>
        <time>2020-02-01T13:57:03.000Z</time>
      </trkpt>
      <trkpt lat="42.84931" lon="0.5078">
        <ele>1510.3</ele>
        <time>2020-02-01T13:57:04.000Z</time>
      </trkpt>
      <trkpt lat="42.8493" lon="0.5078">
        <ele>1510</ele>
        <time>2020-02-01T13:57:05.000Z</time>
      </trkpt>
      <trkpt lat="42.84929" lon="0.50779">
        <ele>1510</ele>
        <time>2020-02-01T13:57:06.000Z</time>
      </trkpt>
      <trkpt lat="42.84928" lon="0.50779">
        <ele>1510</ele>
        <time>2020-02-01T13:57:07.000Z</time>
      </trkpt>
      <trkpt lat="42.84928" lon="0.50778">
        <ele>1509.5</ele>
        <time>2020-02-01T13:57:08.000Z</time>
      </trkpt>
      <trkpt lat="42.84927" lon="0.50778">
        <ele>1509</ele>
        <time>2020-02-01T13:57:09.000Z</time>
      </trkpt>
      <trkpt lat="42.84926" lon="0.50777">
        <ele>1509</ele>
        <time>2020-02-01T13:57:10.000Z</time>
      </trkpt>
      <trkpt lat="42.84925" lon="0.50777">
        <ele>1509</ele>
        <time>2020-02-01T13:57:11.000Z</time>
      </trkpt>
      <trkpt lat="42.84924" lon="0.50777">
        <ele>1508.5</ele>
        <time>2020-02-01T13:57:12.000Z</time>
      </trkpt>
      <trkpt lat="42.84923" lon="0.50777">
        <ele>1508</ele>
        <time>2020-02-01T13:57:13.000Z</time>
      </trkpt>
      <trkpt lat="42.84922" lon="0.50777">
        <ele>1507.5</ele>
        <time>2020-02-01T13:57:14.000Z</time>
      </trkpt>
      <trkpt lat="42.84921" lon="0.50777">
        <ele>1507</ele>
        <time>2020-02-01T13:57:15.000Z</time>
      </trkpt>
      <trkpt lat="42.84921" lon="0.50777">
        <ele>1507</ele>
        <time>2020-02-01T13:57:16.000Z</time>
      </trkpt>
      <trkpt lat="42.8492" lon="0.50777">
        <ele>1507</ele>
        <time>2020-02-01T13:57:17.000Z</time>
      </trkpt>
      <trkpt lat="42.84919" lon="0.50778">
        <ele>1506</ele>
        <time>2020-02-01T13:57:18.000Z</time>
      </trkpt>
      <trkpt lat="42.84919" lon="0.50778">
        <ele>1506</ele>
        <time>2020-02-01T13:57:19.000Z</time>
      </trkpt>
      <trkpt lat="42.84918" lon="0.50779">
        <ele>1506</ele>
        <time>2020-02-01T13:57:20.000Z</time>
      </trkpt>
      <trkpt lat="42.84917" lon="0.50779">
        <ele>1506</ele>
        <time>2020-02-01T13:57:21.000Z</time>
      </trkpt>
      <trkpt lat="42.84916" lon="0.50779">
        <ele>1505</ele>
        <time>2020-02-01T13:57:22.000Z</time>
      </trkpt>
      <trkpt lat="42.84916" lon="0.5078">
        <ele>1504.7</ele>
        <time>2020-02-01T13:57:23.000Z</time>
      </trkpt>
      <trkpt lat="42.84915" lon="0.5078">
        <ele>1504.3</ele>
        <time>2020-02-01T13:57:24.000Z</time>
      </trkpt>
      <trkpt lat="42.84914" lon="0.5078">
        <ele>1504</ele>
        <time>2020-02-01T13:57:25.000Z</time>
      </trkpt>
      <trkpt lat="42.84913" lon="0.5078">
        <ele>1504</ele>
        <time>2020-02-01T13:57:26.000Z</time>
      </trkpt>
      <trkpt lat="42.84912" lon="0.5078">
        <ele>1504</ele>
        <time>2020-02-01T13:57:27.000Z</time>
      </trkpt>
      <trkpt lat="42.84911" lon="0.5078">
        <ele>1503.5</ele>
        <time>2020-02-01T13:57:28.000Z</time>
      </trkpt>
      <trkpt lat="42.8491" lon="0.5078">
        <ele>1503</ele>
        <time>2020-02-01T13:57:29.000Z</time>
      </trkpt>
      <trkpt lat="42.8491" lon="0.50781">
        <ele>1503</ele>
        <time>2020-02-01T13:57:30.000Z</time>
      </trkpt>
      <trkpt lat="42.84909" lon="0.50781">
        <ele>1503</ele>
        <time>2020-02-01T13:57:31.000Z</time>
      </trkpt>
      <trkpt lat="42.84908" lon="0.50781">
        <ele>1502.5</ele>
        <time>2020-02-01T13:57:32.000Z</time>
      </trkpt>
      <trkpt lat="42.84907" lon="0.50782">
        <ele>1502</ele>
        <time>2020-02-01T13:57:33.000Z</time>
      </trkpt>
      <trkpt lat="42.84907" lon="0.50782">
        <ele>1501.5</ele>
        <time>2020-02-01T13:57:34.000Z</time>
      </trkpt>
      <trkpt lat="42.84906" lon="0.50783">
        <ele>1501</ele>
        <time>2020-02-01T13:57:35.000Z</time>
      </trkpt>
      <trkpt lat="42.84905" lon="0.50783">
        <ele>1501</ele>
        <time>2020-02-01T13:57:36.000Z</time>
      </trkpt>
      <trkpt lat="42.84904" lon="0.50784">
        <ele>1501</ele>
        <time>2020-02-01T13:57:37.000Z</time>
      </trkpt>
      <trkpt lat="42.84903" lon="0.50784">
        <ele>1500.5</ele>
        <time>2020-02-01T13:57:38.000Z</time>
      </trkpt>
      <trkpt lat="42.84902" lon="0.50784">
        <ele>1500</ele>
        <time>2020-02-01T13:57:39.000Z</time>
      </trkpt>
      <trkpt lat="42.84902" lon="0.50785">
        <ele>1500</ele>
        <time>2020-02-01T13:57:40.000Z</time>
      </trkpt>
      <trkpt lat="42.84901" lon="0.50785">
        <ele>1499.7</ele>
        <time>2020-02-01T13:57:41.000Z</time>
      </trkpt>
      <trkpt lat="42.849" lon="0.50785">
        <ele>1499.3</ele>
        <time>2020-02-01T13:57:42.000Z</time>
      </trkpt>
      <trkpt lat="42.84899" lon="0.50785">
        <ele>1499</ele>
        <time>2020-02-01T13:57:43.000Z</time>
      </trkpt>
      <trkpt lat="42.84899" lon="0.50785">
        <ele>1499</ele>
        <time>2020-02-01T13:57:44.000Z</time>
      </trkpt>
      <trkpt lat="42.84898" lon="0.50785">
        <ele>1498.7</ele>
        <time>2020-02-01T13:57:45.000Z</time>
      </trkpt>
      <trkpt lat="42.84897" lon="0.50786">
        <ele>1498.3</ele>
        <time>2020-02-01T13:57:46.000Z</time>
      </trkpt>
      <trkpt lat="42.84897" lon="0.50786">
        <ele>1498</ele>
        <time>2020-02-01T13:57:47.000Z</time>
      </trkpt>
      <trkpt lat="42.84896" lon="0.50786">
        <ele>1498</ele>
        <time>2020-02-01T13:57:48.000Z</time>
      </trkpt>
      <trkpt lat="42.84896" lon="0.50786">
        <ele>1498</ele>
        <time>2020-02-01T13:57:49.000Z</time>
      </trkpt>
      <trkpt lat="42.84895" lon="0.50786">
        <ele>1498</ele>
        <time>2020-02-01T13:57:50.000Z</time>
      </trkpt>
      <trkpt lat="42.84895" lon="0.50787">
        <ele>1498</ele>
        <time>2020-02-01T13:57:51.000Z</time>
      </trkpt>
      <trkpt lat="42.84894" lon="0.50787">
        <ele>1497</ele>
        <time>2020-02-01T13:57:52.000Z</time>
      </trkpt>
      <trkpt lat="42.84894" lon="0.50787">
        <ele>1497</ele>
        <time>2020-02-01T13:57:53.000Z</time>
      </trkpt>
      <trkpt lat="42.84893" lon="0.50787">
        <ele>1497</ele>
        <time>2020-02-01T13:57:54.000Z</time>
      </trkpt>
      <trkpt lat="42.84892" lon="0.50788">
        <ele>1497</ele>
        <time>2020-02-01T13:57:55.000Z</time>
      </trkpt>
      <trkpt lat="42.84892" lon="0.50788">
        <ele>1496</ele>
        <time>2020-02-01T13:57:56.000Z</time>
      </trkpt>
      <trkpt lat="42.84891" lon="0.50788">
        <ele>1496</ele>
        <time>2020-02-01T13:57:57.000Z</time>
      </trkpt>
      <trkpt lat="42.8489" lon="0.50789">
        <ele>1496</ele>
        <time>2020-02-01T13:57:58.000Z</time>
      </trkpt>
      <trkpt lat="42.8489" lon="0.50789">
        <ele>1496</ele>
        <time>2020-02-01T13:57:59.000Z</time>
      </trkpt>
      <trkpt lat="42.84889" lon="0.50789">
        <ele>1495.5</ele>
        <time>2020-02-01T13:58:00.000Z</time>
      </trkpt>
      <trkpt lat="42.84888" lon="0.5079">
        <ele>1495</ele>
        <time>2020-02-01T13:58:01.000Z</time>
      </trkpt>
      <trkpt lat="42.84887" lon="0.5079">
        <ele>1495</ele>
        <time>2020-02-01T13:58:02.000Z</time>
      </trkpt>
      <trkpt lat="42.84886" lon="0.5079">
        <ele>1495</ele>
        <time>2020-02-01T13:58:03.000Z</time>
      </trkpt>
      <trkpt lat="42.84885" lon="0.50789">
        <ele>1494</ele>
        <time>2020-02-01T13:58:04.000Z</time>
      </trkpt>
      <trkpt lat="42.84885" lon="0.50789">
        <ele>1494</ele>
        <time>2020-02-01T13:58:05.000Z</time>
      </trkpt>
      <trkpt lat="42.84884" lon="0.50788">
        <ele>1494</ele>
        <time>2020-02-01T13:58:06.000Z</time>
      </trkpt>
      <trkpt lat="42.84884" lon="0.50787">
        <ele>1494</ele>
        <time>2020-02-01T13:58:07.000Z</time>
      </trkpt>
      <trkpt lat="42.84884" lon="0.50786">
        <ele>1494</ele>
        <time>2020-02-01T13:58:08.000Z</time>
      </trkpt>
      <trkpt lat="42.84884" lon="0.50785">
        <ele>1494</ele>
        <time>2020-02-01T13:58:09.000Z</time>
      </trkpt>
      <trkpt lat="42.84883" lon="0.50783">
        <ele>1493</ele>
        <time>2020-02-01T13:58:10.000Z</time>
      </trkpt>
      <trkpt lat="42.84883" lon="0.50782">
        <ele>1493</ele>
        <time>2020-02-01T13:58:11.000Z</time>
      </trkpt>
      <trkpt lat="42.84883" lon="0.50781">
        <ele>1493</ele>
        <time>2020-02-01T13:58:12.000Z</time>
      </trkpt>
      <trkpt lat="42.84883" lon="0.5078">
        <ele>1493</ele>
        <time>2020-02-01T13:58:13.000Z</time>
      </trkpt>
      <trkpt lat="42.84883" lon="0.50778">
        <ele>1493</ele>
        <time>2020-02-01T13:58:14.000Z</time>
      </trkpt>
      <trkpt lat="42.84883" lon="0.50777">
        <ele>1492.5</ele>
        <time>2020-02-01T13:58:15.000Z</time>
      </trkpt>
      <trkpt lat="42.84883" lon="0.50776">
        <ele>1492</ele>
        <time>2020-02-01T13:58:16.000Z</time>
      </trkpt>
      <trkpt lat="42.84882" lon="0.50775">
        <ele>1492</ele>
        <time>2020-02-01T13:58:17.000Z</time>
      </trkpt>
      <trkpt lat="42.84882" lon="0.50774">
        <ele>1492</ele>
        <time>2020-02-01T13:58:18.000Z</time>
      </trkpt>
      <trkpt lat="42.84881" lon="0.50772">
        <ele>1492</ele>
        <time>2020-02-01T13:58:19.000Z</time>
      </trkpt>
      <trkpt lat="42.84881" lon="0.50771">
        <ele>1492</ele>
        <time>2020-02-01T13:58:20.000Z</time>
      </trkpt>
      <trkpt lat="42.8488" lon="0.5077">
        <ele>1492</ele>
        <time>2020-02-01T13:58:21.000Z</time>
      </trkpt>
      <trkpt lat="42.8488" lon="0.50769">
        <ele>1491</ele>
        <time>2020-02-01T13:58:22.000Z</time>
      </trkpt>
      <trkpt lat="42.84879" lon="0.50767">
        <ele>1491</ele>
        <time>2020-02-01T13:58:23.000Z</time>
      </trkpt>
      <trkpt lat="42.84878" lon="0.50766">
        <ele>1491</ele>
        <time>2020-02-01T13:58:24.000Z</time>
      </trkpt>
      <trkpt lat="42.84877" lon="0.50764">
        <ele>1491</ele>
        <time>2020-02-01T13:58:25.000Z</time>
      </trkpt>
      <trkpt lat="42.84877" lon="0.50763">
        <ele>1491</ele>
        <time>2020-02-01T13:58:26.000Z</time>
      </trkpt>
      <trkpt lat="42.84876" lon="0.50761">
        <ele>1491</ele>
        <time>2020-02-01T13:58:27.000Z</time>
      </trkpt>
      <trkpt lat="42.84875" lon="0.5076">
        <ele>1490</ele>
        <time>2020-02-01T13:58:28.000Z</time>
      </trkpt>
      <trkpt lat="42.84874" lon="0.50759">
        <ele>1490</ele>
        <time>2020-02-01T13:58:29.000Z</time>
      </trkpt>
      <trkpt lat="42.84874" lon="0.50758">
        <ele>1490</ele>
        <time>2020-02-01T13:58:30.000Z</time>
      </trkpt>
      <trkpt lat="42.84873" lon="0.50757">
        <ele>1489.7</ele>
        <time>2020-02-01T13:58:31.000Z</time>
      </trkpt>
      <trkpt lat="42.84872" lon="0.50756">
        <ele>1489.3</ele>
        <time>2020-02-01T13:58:32.000Z</time>
      </trkpt>
      <trkpt lat="42.84871" lon="0.50756">
        <ele>1489</ele>
        <time>2020-02-01T13:58:33.000Z</time>
      </trkpt>
      <trkpt lat="42.8487" lon="0.50755">
        <ele>1489</ele>
        <time>2020-02-01T13:58:34.000Z</time>
      </trkpt>
      <trkpt lat="42.84868" lon="0.50754">
        <ele>1489</ele>
        <time>2020-02-01T13:58:35.000Z</time>
      </trkpt>
      <trkpt lat="42.84867" lon="0.50754">
        <ele>1489</ele>
        <time>2020-02-01T13:58:36.000Z</time>
      </trkpt>
      <trkpt lat="42.84866" lon="0.50753">
        <ele>1489</ele>
        <time>2020-02-01T13:58:37.000Z</time>
      </trkpt>
      <trkpt lat="42.84864" lon="0.50752">
        <ele>1488</ele>
        <time>2020-02-01T13:58:38.000Z</time>
      </trkpt>
      <trkpt lat="42.84863" lon="0.50752">
        <ele>1488</ele>
        <time>2020-02-01T13:58:39.000Z</time>
      </trkpt>
      <trkpt lat="42.84863" lon="0.50752">
        <ele>1488</ele>
        <time>2020-02-01T13:58:40.000Z</time>
      </trkpt>
      <trkpt lat="42.84862" lon="0.50752">
        <ele>1488</ele>
        <time>2020-02-01T13:58:41.000Z</time>
      </trkpt>
      <trkpt lat="42.84861" lon="0.50752">
        <ele>1488</ele>
        <time>2020-02-01T13:58:42.000Z</time>
      </trkpt>
      <trkpt lat="42.84861" lon="0.50751">
        <ele>1488</ele>
        <time>2020-02-01T13:58:43.000Z</time>
      </trkpt>
      <trkpt lat="42.8486" lon="0.5075">
        <ele>1487.5</ele>
        <time>2020-02-01T13:58:44.000Z</time>
      </trkpt>
      <trkpt lat="42.84859" lon="0.50749">
        <ele>1487</ele>
        <time>2020-02-01T13:58:45.000Z</time>
      </trkpt>
      <trkpt lat="42.84858" lon="0.50748">
        <ele>1487</ele>
        <time>2020-02-01T13:58:46.000Z</time>
      </trkpt>
      <trkpt lat="42.84858" lon="0.50748">
        <ele>1486.7</ele>
        <time>2020-02-01T13:58:47.000Z</time>
      </trkpt>
      <trkpt lat="42.84857" lon="0.50747">
        <ele>1486.3</ele>
        <time>2020-02-01T13:58:48.000Z</time>
      </trkpt>
      <trkpt lat="42.84856" lon="0.50747">
        <ele>1486</ele>
        <time>2020-02-01T13:58:49.000Z</time>
      </trkpt>
      <trkpt lat="42.84856" lon="0.50746">
        <ele>1486</ele>
        <time>2020-02-01T13:58:50.000Z</time>
      </trkpt>
      <trkpt lat="42.84856" lon="0.50746">
        <ele>1486</ele>
        <time>2020-02-01T13:58:51.000Z</time>
      </trkpt>
      <trkpt lat="42.84855" lon="0.50746">
        <ele>1486</ele>
        <time>2020-02-01T13:58:52.000Z</time>
      </trkpt>
      <trkpt lat="42.84854" lon="0.50745">
        <ele>1486</ele>
        <time>2020-02-01T13:58:53.000Z</time>
      </trkpt>
      <trkpt lat="42.84853" lon="0.50744">
        <ele>1485.5</ele>
        <time>2020-02-01T13:58:54.000Z</time>
      </trkpt>
      <trkpt lat="42.84851" lon="0.50743">
        <ele>1485</ele>
        <time>2020-02-01T13:58:55.000Z</time>
      </trkpt>
      <trkpt lat="42.8485" lon="0.50741">
        <ele>1484</ele>
        <time>2020-02-01T13:58:58.000Z</time>
      </trkpt>
      <trkpt lat="42.84849" lon="0.5074">
        <ele>1484</ele>
        <time>2020-02-01T13:58:59.000Z</time>
      </trkpt>
      <trkpt lat="42.84847" lon="0.50738">
        <ele>1484</ele>
        <time>2020-02-01T13:59:00.000Z</time>
      </trkpt>
      <trkpt lat="42.84846" lon="0.50737">
        <ele>1483.5</ele>
        <time>2020-02-01T13:59:01.000Z</time>
      </trkpt>
      <trkpt lat="42.84845" lon="0.50737">
        <ele>1483</ele>
        <time>2020-02-01T13:59:02.000Z</time>
      </trkpt>
      <trkpt lat="42.84844" lon="0.50736">
        <ele>1483</ele>
        <time>2020-02-01T13:59:03.000Z</time>
      </trkpt>
      <trkpt lat="42.84843" lon="0.50735">
        <ele>1482.7</ele>
        <time>2020-02-01T13:59:04.000Z</time>
      </trkpt>
      <trkpt lat="42.84842" lon="0.50734">
        <ele>1482.3</ele>
        <time>2020-02-01T13:59:05.000Z</time>
      </trkpt>
      <trkpt lat="42.84841" lon="0.50733">
        <ele>1482</ele>
        <time>2020-02-01T13:59:06.000Z</time>
      </trkpt>
      <trkpt lat="42.8484" lon="0.50732">
        <ele>1482</ele>
        <time>2020-02-01T13:59:07.000Z</time>
      </trkpt>
      <trkpt lat="42.84839" lon="0.50731">
        <ele>1481.5</ele>
        <time>2020-02-01T13:59:08.000Z</time>
      </trkpt>
      <trkpt lat="42.84838" lon="0.5073">
        <ele>1481</ele>
        <time>2020-02-01T13:59:09.000Z</time>
      </trkpt>
      <trkpt lat="42.84836" lon="0.50729">
        <ele>1481</ele>
        <time>2020-02-01T13:59:10.000Z</time>
      </trkpt>
      <trkpt lat="42.84835" lon="0.50728">
        <ele>1481</ele>
        <time>2020-02-01T13:59:11.000Z</time>
      </trkpt>
      <trkpt lat="42.84834" lon="0.50728">
        <ele>1481</ele>
        <time>2020-02-01T13:59:12.000Z</time>
      </trkpt>
      <trkpt lat="42.84834" lon="0.50727">
        <ele>1481</ele>
        <time>2020-02-01T13:59:13.000Z</time>
      </trkpt>
      <trkpt lat="42.84833" lon="0.50726">
        <ele>1480.7</ele>
        <time>2020-02-01T13:59:14.000Z</time>
      </trkpt>
      <trkpt lat="42.84832" lon="0.50726">
        <ele>1480.3</ele>
        <time>2020-02-01T13:59:15.000Z</time>
      </trkpt>
      <trkpt lat="42.84831" lon="0.50725">
        <ele>1480</ele>
        <time>2020-02-01T13:59:16.000Z</time>
      </trkpt>
      <trkpt lat="42.8483" lon="0.50724">
        <ele>1480</ele>
        <time>2020-02-01T13:59:17.000Z</time>
      </trkpt>
      <trkpt lat="42.84829" lon="0.50724">
        <ele>1480</ele>
        <time>2020-02-01T13:59:18.000Z</time>
      </trkpt>
      <trkpt lat="42.84829" lon="0.50723">
        <ele>1480</ele>
        <time>2020-02-01T13:59:19.000Z</time>
      </trkpt>
      <trkpt lat="42.84828" lon="0.50722">
        <ele>1480</ele>
        <time>2020-02-01T13:59:20.000Z</time>
      </trkpt>
      <trkpt lat="42.84826" lon="0.50721">
        <ele>1479.5</ele>
        <time>2020-02-01T13:59:21.000Z</time>
      </trkpt>
      <trkpt lat="42.84825" lon="0.5072">
        <ele>1479</ele>
        <time>2020-02-01T13:59:22.000Z</time>
      </trkpt>
      <trkpt lat="42.84824" lon="0.5072">
        <ele>1479</ele>
        <time>2020-02-01T13:59:23.000Z</time>
      </trkpt>
      <trkpt lat="42.84822" lon="0.50719">
        <ele>1479</ele>
        <time>2020-02-01T13:59:24.000Z</time>
      </trkpt>
      <trkpt lat="42.84821" lon="0.50719">
        <ele>1478.5</ele>
        <time>2020-02-01T13:59:25.000Z</time>
      </trkpt>
      <trkpt lat="42.84819" lon="0.50718">
        <ele>1478</ele>
        <time>2020-02-01T13:59:26.000Z</time>
      </trkpt>
      <trkpt lat="42.84818" lon="0.50717">
        <ele>1478</ele>
        <time>2020-02-01T13:59:27.000Z</time>
      </trkpt>
      <trkpt lat="42.84817" lon="0.50716">
        <ele>1478</ele>
        <time>2020-02-01T13:59:28.000Z</time>
      </trkpt>
      <trkpt lat="42.84816" lon="0.50716">
        <ele>1478</ele>
        <time>2020-02-01T13:59:29.000Z</time>
      </trkpt>
      <trkpt lat="42.84815" lon="0.50715">
        <ele>1478</ele>
        <time>2020-02-01T13:59:30.000Z</time>
      </trkpt>
      <trkpt lat="42.84814" lon="0.50714">
        <ele>1478</ele>
        <time>2020-02-01T13:59:31.000Z</time>
      </trkpt>
      <trkpt lat="42.84813" lon="0.50713">
        <ele>1477.5</ele>
        <time>2020-02-01T13:59:32.000Z</time>
      </trkpt>
      <trkpt lat="42.84812" lon="0.50712">
        <ele>1477</ele>
        <time>2020-02-01T13:59:33.000Z</time>
      </trkpt>
      <trkpt lat="42.84811" lon="0.50711">
        <ele>1477</ele>
        <time>2020-02-01T13:59:34.000Z</time>
      </trkpt>
      <trkpt lat="42.8481" lon="0.50709">
        <ele>1477</ele>
        <time>2020-02-01T13:59:35.000Z</time>
      </trkpt>
      <trkpt lat="42.84809" lon="0.50708">
        <ele>1477</ele>
        <time>2020-02-01T13:59:36.000Z</time>
      </trkpt>
      <trkpt lat="42.84809" lon="0.50707">
        <ele>1477</ele>
        <time>2020-02-01T13:59:37.000Z</time>
      </trkpt>
      <trkpt lat="42.84808" lon="0.50706">
        <ele>1477</ele>
        <time>2020-02-01T13:59:38.000Z</time>
      </trkpt>
      <trkpt lat="42.84807" lon="0.50704">
        <ele>1476</ele>
        <time>2020-02-01T13:59:39.000Z</time>
      </trkpt>
      <trkpt lat="42.84806" lon="0.50703">
        <ele>1476</ele>
        <time>2020-02-01T13:59:40.000Z</time>
      </trkpt>
      <trkpt lat="42.84806" lon="0.50702">
        <ele>1476</ele>
        <time>2020-02-01T13:59:41.000Z</time>
      </trkpt>
      <trkpt lat="42.84805" lon="0.507">
        <ele>1476</ele>
        <time>2020-02-01T13:59:42.000Z</time>
      </trkpt>
      <trkpt lat="42.84805" lon="0.50699">
        <ele>1476</ele>
        <time>2020-02-01T13:59:43.000Z</time>
      </trkpt>
      <trkpt lat="42.84805" lon="0.50698">
        <ele>1476</ele>
        <time>2020-02-01T13:59:44.000Z</time>
      </trkpt>
      <trkpt lat="42.84804" lon="0.50697">
        <ele>1475.5</ele>
        <time>2020-02-01T13:59:45.000Z</time>
      </trkpt>
      <trkpt lat="42.84805" lon="0.50696">
        <ele>1475</ele>
        <time>2020-02-01T13:59:46.000Z</time>
      </trkpt>
      <trkpt lat="42.84805" lon="0.50695">
        <ele>1475</ele>
        <time>2020-02-01T13:59:47.000Z</time>
      </trkpt>
      <trkpt lat="42.84805" lon="0.50694">
        <ele>1475</ele>
        <time>2020-02-01T13:59:48.000Z</time>
      </trkpt>
      <trkpt lat="42.84805" lon="0.50693">
        <ele>1474</ele>
        <time>2020-02-01T13:59:49.000Z</time>
      </trkpt>
      <trkpt lat="42.84805" lon="0.50692">
        <ele>1474</ele>
        <time>2020-02-01T13:59:50.000Z</time>
      </trkpt>
      <trkpt lat="42.84805" lon="0.50691">
        <ele>1474</ele>
        <time>2020-02-01T13:59:51.000Z</time>
      </trkpt>
      <trkpt lat="42.84805" lon="0.50691">
        <ele>1474</ele>
        <time>2020-02-01T13:59:52.000Z</time>
      </trkpt>
      <trkpt lat="42.84805" lon="0.5069">
        <ele>1474</ele>
        <time>2020-02-01T13:59:53.000Z</time>
      </trkpt>
      <trkpt lat="42.84805" lon="0.5069">
        <ele>1474</ele>
        <time>2020-02-01T13:59:54.000Z</time>
      </trkpt>
      <trkpt lat="42.84804" lon="0.50689">
        <ele>1474</ele>
        <time>2020-02-01T13:59:55.000Z</time>
      </trkpt>
      <trkpt lat="42.84804" lon="0.50689">
        <ele>1473.7</ele>
        <time>2020-02-01T13:59:56.000Z</time>
      </trkpt>
      <trkpt lat="42.84803" lon="0.50688">
        <ele>1473.3</ele>
        <time>2020-02-01T13:59:57.000Z</time>
      </trkpt>
      <trkpt lat="42.84802" lon="0.50688">
        <ele>1473</ele>
        <time>2020-02-01T13:59:58.000Z</time>
      </trkpt>
      <trkpt lat="42.84802" lon="0.50688">
        <ele>1473</ele>
        <time>2020-02-01T13:59:59.000Z</time>
      </trkpt>
      <trkpt lat="42.84801" lon="0.50688">
        <ele>1473</ele>
        <time>2020-02-01T14:00:00.000Z</time>
      </trkpt>
      <trkpt lat="42.848" lon="0.50688">
        <ele>1473</ele>
        <time>2020-02-01T14:00:01.000Z</time>
      </trkpt>
      <trkpt lat="42.84799" lon="0.50689">
        <ele>1473</ele>
        <time>2020-02-01T14:00:02.000Z</time>
      </trkpt>
      <trkpt lat="42.84798" lon="0.5069">
        <ele>1474</ele>
        <time>2020-02-01T14:00:03.000Z</time>
      </trkpt>
      <trkpt lat="42.84797" lon="0.50691">
        <ele>1474</ele>
        <time>2020-02-01T14:00:04.000Z</time>
      </trkpt>
      <trkpt lat="42.84796" lon="0.50692">
        <ele>1474</ele>
        <time>2020-02-01T14:00:05.000Z</time>
      </trkpt>
      <trkpt lat="42.84795" lon="0.50693">
        <ele>1474</ele>
        <time>2020-02-01T14:00:06.000Z</time>
      </trkpt>
      <trkpt lat="42.84794" lon="0.50694">
        <ele>1474</ele>
        <time>2020-02-01T14:00:07.000Z</time>
      </trkpt>
      <trkpt lat="42.84793" lon="0.50696">
        <ele>1474</ele>
        <time>2020-02-01T14:00:08.000Z</time>
      </trkpt>
      <trkpt lat="42.84792" lon="0.50697">
        <ele>1474</ele>
        <time>2020-02-01T14:00:09.000Z</time>
      </trkpt>
      <trkpt lat="42.84791" lon="0.50698">
        <ele>1474</ele>
        <time>2020-02-01T14:00:10.000Z</time>
      </trkpt>
      <trkpt lat="42.8479" lon="0.50699">
        <ele>1474</ele>
        <time>2020-02-01T14:00:11.000Z</time>
      </trkpt>
      <trkpt lat="42.84789" lon="0.507">
        <ele>1474</ele>
        <time>2020-02-01T14:00:12.000Z</time>
      </trkpt>
      <trkpt lat="42.84788" lon="0.507">
        <ele>1474</ele>
        <time>2020-02-01T14:00:13.000Z</time>
      </trkpt>
      <trkpt lat="42.84787" lon="0.50701">
        <ele>1474</ele>
        <time>2020-02-01T14:00:14.000Z</time>
      </trkpt>
      <trkpt lat="42.84786" lon="0.50701">
        <ele>1474</ele>
        <time>2020-02-01T14:00:15.000Z</time>
      </trkpt>
      <trkpt lat="42.84786" lon="0.50702">
        <ele>1474</ele>
        <time>2020-02-01T14:00:16.000Z</time>
      </trkpt>
      <trkpt lat="42.84785" lon="0.50703">
        <ele>1474</ele>
        <time>2020-02-01T14:00:17.000Z</time>
      </trkpt>
      <trkpt lat="42.84784" lon="0.50704">
        <ele>1474</ele>
        <time>2020-02-01T14:00:18.000Z</time>
      </trkpt>
      <trkpt lat="42.84783" lon="0.50706">
        <ele>1474</ele>
        <time>2020-02-01T14:00:19.000Z</time>
      </trkpt>
      <trkpt lat="42.84783" lon="0.50707">
        <ele>1474</ele>
        <time>2020-02-01T14:00:20.000Z</time>
      </trkpt>
      <trkpt lat="42.84782" lon="0.50708">
        <ele>1474</ele>
        <time>2020-02-01T14:00:21.000Z</time>
      </trkpt>
      <trkpt lat="42.84781" lon="0.5071">
        <ele>1474</ele>
        <time>2020-02-01T14:00:22.000Z</time>
      </trkpt>
      <trkpt lat="42.84781" lon="0.50711">
        <ele>1475</ele>
        <time>2020-02-01T14:00:23.000Z</time>
      </trkpt>
      <trkpt lat="42.8478" lon="0.50713">
        <ele>1475</ele>
        <time>2020-02-01T14:00:24.000Z</time>
      </trkpt>
      <trkpt lat="42.8478" lon="0.50714">
        <ele>1475</ele>
        <time>2020-02-01T14:00:25.000Z</time>
      </trkpt>
      <trkpt lat="42.84779" lon="0.50715">
        <ele>1475</ele>
        <time>2020-02-01T14:00:26.000Z</time>
      </trkpt>
      <trkpt lat="42.84778" lon="0.50716">
        <ele>1474</ele>
        <time>2020-02-01T14:00:27.000Z</time>
      </trkpt>
      <trkpt lat="42.84778" lon="0.50717">
        <ele>1474.5</ele>
        <time>2020-02-01T14:00:28.000Z</time>
      </trkpt>
      <trkpt lat="42.84777" lon="0.50718">
        <ele>1475</ele>
        <time>2020-02-01T14:00:29.000Z</time>
      </trkpt>
      <trkpt lat="42.84776" lon="0.50719">
        <ele>1475</ele>
        <time>2020-02-01T14:00:30.000Z</time>
      </trkpt>
      <trkpt lat="42.84775" lon="0.5072">
        <ele>1475</ele>
        <time>2020-02-01T14:00:31.000Z</time>
      </trkpt>
      <trkpt lat="42.84774" lon="0.50721">
        <ele>1475</ele>
        <time>2020-02-01T14:00:32.000Z</time>
      </trkpt>
      <trkpt lat="42.84773" lon="0.50722">
        <ele>1475</ele>
        <time>2020-02-01T14:00:33.000Z</time>
      </trkpt>
      <trkpt lat="42.84772" lon="0.50723">
        <ele>1475</ele>
        <time>2020-02-01T14:00:34.000Z</time>
      </trkpt>
      <trkpt lat="42.84771" lon="0.50724">
        <ele>1475</ele>
        <time>2020-02-01T14:00:35.000Z</time>
      </trkpt>
      <trkpt lat="42.84771" lon="0.50726">
        <ele>1475</ele>
        <time>2020-02-01T14:00:36.000Z</time>
      </trkpt>
      <trkpt lat="42.8477" lon="0.50728">
        <ele>1475</ele>
        <time>2020-02-01T14:00:37.000Z</time>
      </trkpt>
      <trkpt lat="42.84769" lon="0.50729">
        <ele>1475</ele>
        <time>2020-02-01T14:00:38.000Z</time>
      </trkpt>
      <trkpt lat="42.84769" lon="0.50731">
        <ele>1475.5</ele>
        <time>2020-02-01T14:00:39.000Z</time>
      </trkpt>
      <trkpt lat="42.84768" lon="0.50732">
        <ele>1476</ele>
        <time>2020-02-01T14:00:40.000Z</time>
      </trkpt>
      <trkpt lat="42.84768" lon="0.50733">
        <ele>1476</ele>
        <time>2020-02-01T14:00:41.000Z</time>
      </trkpt>
      <trkpt lat="42.84767" lon="0.50735">
        <ele>1476</ele>
        <time>2020-02-01T14:00:42.000Z</time>
      </trkpt>
      <trkpt lat="42.84767" lon="0.50736">
        <ele>1476</ele>
        <time>2020-02-01T14:00:43.000Z</time>
      </trkpt>
      <trkpt lat="42.84767" lon="0.50737">
        <ele>1476</ele>
        <time>2020-02-01T14:00:44.000Z</time>
      </trkpt>
      <trkpt lat="42.84766" lon="0.50737">
        <ele>1476</ele>
        <time>2020-02-01T14:00:45.000Z</time>
      </trkpt>
      <trkpt lat="42.84766" lon="0.50738">
        <ele>1476.5</ele>
        <time>2020-02-01T14:00:46.000Z</time>
      </trkpt>
      <trkpt lat="42.84766" lon="0.50739">
        <ele>1477</ele>
        <time>2020-02-01T14:00:47.000Z</time>
      </trkpt>
      <trkpt lat="42.84765" lon="0.5074">
        <ele>1477</ele>
        <time>2020-02-01T14:00:48.000Z</time>
      </trkpt>
      <trkpt lat="42.84765" lon="0.50741">
        <ele>1477</ele>
        <time>2020-02-01T14:00:49.000Z</time>
      </trkpt>
      <trkpt lat="42.84764" lon="0.50742">
        <ele>1477</ele>
        <time>2020-02-01T14:00:50.000Z</time>
      </trkpt>
      <trkpt lat="42.84764" lon="0.50743">
        <ele>1477</ele>
        <time>2020-02-01T14:00:51.000Z</time>
      </trkpt>
      <trkpt lat="42.84763" lon="0.50744">
        <ele>1477</ele>
        <time>2020-02-01T14:00:52.000Z</time>
      </trkpt>
      <trkpt lat="42.84763" lon="0.50745">
        <ele>1477</ele>
        <time>2020-02-01T14:00:53.000Z</time>
      </trkpt>
      <trkpt lat="42.84762" lon="0.50746">
        <ele>1477</ele>
        <time>2020-02-01T14:00:54.000Z</time>
      </trkpt>
      <trkpt lat="42.84762" lon="0.50747">
        <ele>1477</ele>
        <time>2020-02-01T14:00:55.000Z</time>
      </trkpt>
      <trkpt lat="42.84761" lon="0.50748">
        <ele>1477.3</ele>
        <time>2020-02-01T14:00:56.000Z</time>
      </trkpt>
      <trkpt lat="42.8476" lon="0.50748">
        <ele>1477.7</ele>
        <time>2020-02-01T14:00:57.000Z</time>
      </trkpt>
      <trkpt lat="42.8476" lon="0.50749">
        <ele>1478</ele>
        <time>2020-02-01T14:00:58.000Z</time>
      </trkpt>
      <trkpt lat="42.84759" lon="0.5075">
        <ele>1478</ele>
        <time>2020-02-01T14:00:59.000Z</time>
      </trkpt>
      <trkpt lat="42.84759" lon="0.5075">
        <ele>1478</ele>
        <time>2020-02-01T14:01:00.000Z</time>
      </trkpt>
      <trkpt lat="42.84758" lon="0.50751">
        <ele>1478</ele>
        <time>2020-02-01T14:01:01.000Z</time>
      </trkpt>
      <trkpt lat="42.84758" lon="0.50751">
        <ele>1478</ele>
        <time>2020-02-01T14:01:02.000Z</time>
      </trkpt>
      <trkpt lat="42.84757" lon="0.50752">
        <ele>1478</ele>
        <time>2020-02-01T14:01:03.000Z</time>
      </trkpt>
      <trkpt lat="42.84757" lon="0.50752">
        <ele>1478</ele>
        <time>2020-02-01T14:01:04.000Z</time>
      </trkpt>
      <trkpt lat="42.84757" lon="0.50752">
        <ele>1477.5</ele>
        <time>2020-02-01T14:01:05.000Z</time>
      </trkpt>
      <trkpt lat="42.84756" lon="0.50753">
        <ele>1477</ele>
        <time>2020-02-01T14:01:06.000Z</time>
      </trkpt>
      <trkpt lat="42.84756" lon="0.50753">
        <ele>1477</ele>
        <time>2020-02-01T14:01:07.000Z</time>
      </trkpt>
      <trkpt lat="42.84756" lon="0.50754">
        <ele>1477</ele>
        <time>2020-02-01T14:01:08.000Z</time>
      </trkpt>
      <trkpt lat="42.84756" lon="0.50755">
        <ele>1477</ele>
        <time>2020-02-01T14:01:09.000Z</time>
      </trkpt>
      <trkpt lat="42.84755" lon="0.50756">
        <ele>1477</ele>
        <time>2020-02-01T14:01:10.000Z</time>
      </trkpt>
      <trkpt lat="42.84755" lon="0.50757">
        <ele>1477</ele>
        <time>2020-02-01T14:01:11.000Z</time>
      </trkpt>
      <trkpt lat="42.84755" lon="0.50758">
        <ele>1477</ele>
        <time>2020-02-01T14:01:12.000Z</time>
      </trkpt>
      <trkpt lat="42.84754" lon="0.5076">
        <ele>1477</ele>
        <time>2020-02-01T14:01:13.000Z</time>
      </trkpt>
      <trkpt lat="42.84754" lon="0.50761">
        <ele>1477</ele>
        <time>2020-02-01T14:01:14.000Z</time>
      </trkpt>
      <trkpt lat="42.84753" lon="0.50763">
        <ele>1477</ele>
        <time>2020-02-01T14:01:15.000Z</time>
      </trkpt>
      <trkpt lat="42.84753" lon="0.50765">
        <ele>1477</ele>
        <time>2020-02-01T14:01:16.000Z</time>
      </trkpt>
      <trkpt lat="42.84753" lon="0.50767">
        <ele>1476</ele>
        <time>2020-02-01T14:01:17.000Z</time>
      </trkpt>
      <trkpt lat="42.84752" lon="0.5077">
        <ele>1476</ele>
        <time>2020-02-01T14:01:18.000Z</time>
      </trkpt>
      <trkpt lat="42.84752" lon="0.50772">
        <ele>1476</ele>
        <time>2020-02-01T14:01:19.000Z</time>
      </trkpt>
      <trkpt lat="42.84752" lon="0.50774">
        <ele>1476</ele>
        <time>2020-02-01T14:01:20.000Z</time>
      </trkpt>
      <trkpt lat="42.84752" lon="0.50776">
        <ele>1476</ele>
        <time>2020-02-01T14:01:21.000Z</time>
      </trkpt>
      <trkpt lat="42.84752" lon="0.50777">
        <ele>1476</ele>
        <time>2020-02-01T14:01:22.000Z</time>
      </trkpt>
      <trkpt lat="42.84751" lon="0.50778">
        <ele>1476</ele>
        <time>2020-02-01T14:01:23.000Z</time>
      </trkpt>
      <trkpt lat="42.84751" lon="0.50779">
        <ele>1476</ele>
        <time>2020-02-01T14:01:24.000Z</time>
      </trkpt>
      <trkpt lat="42.84751" lon="0.5078">
        <ele>1475.5</ele>
        <time>2020-02-01T14:01:25.000Z</time>
      </trkpt>
      <trkpt lat="42.84752" lon="0.50781">
        <ele>1475</ele>
        <time>2020-02-01T14:01:26.000Z</time>
      </trkpt>
      <trkpt lat="42.84752" lon="0.50783">
        <ele>1475</ele>
        <time>2020-02-01T14:01:27.000Z</time>
      </trkpt>
      <trkpt lat="42.84752" lon="0.50784">
        <ele>1475</ele>
        <time>2020-02-01T14:01:28.000Z</time>
      </trkpt>
      <trkpt lat="42.84752" lon="0.50786">
        <ele>1475</ele>
        <time>2020-02-01T14:01:29.000Z</time>
      </trkpt>
      <trkpt lat="42.84752" lon="0.50787">
        <ele>1475</ele>
        <time>2020-02-01T14:01:30.000Z</time>
      </trkpt>
      <trkpt lat="42.84752" lon="0.50788">
        <ele>1475</ele>
        <time>2020-02-01T14:01:31.000Z</time>
      </trkpt>
      <trkpt lat="42.84752" lon="0.50789">
        <ele>1475</ele>
        <time>2020-02-01T14:01:32.000Z</time>
      </trkpt>
      <trkpt lat="42.84752" lon="0.5079">
        <ele>1474.5</ele>
        <time>2020-02-01T14:01:33.000Z</time>
      </trkpt>
      <trkpt lat="42.84752" lon="0.50791">
        <ele>1474</ele>
        <time>2020-02-01T14:01:34.000Z</time>
      </trkpt>
      <trkpt lat="42.84752" lon="0.50792">
        <ele>1474</ele>
        <time>2020-02-01T14:01:35.000Z</time>
      </trkpt>
      <trkpt lat="42.84752" lon="0.50794">
        <ele>1474</ele>
        <time>2020-02-01T14:01:36.000Z</time>
      </trkpt>
      <trkpt lat="42.84752" lon="0.50795">
        <ele>1474</ele>
        <time>2020-02-01T14:01:37.000Z</time>
      </trkpt>
      <trkpt lat="42.84751" lon="0.50797">
        <ele>1474</ele>
        <time>2020-02-01T14:01:38.000Z</time>
      </trkpt>
      <trkpt lat="42.84751" lon="0.50798">
        <ele>1474</ele>
        <time>2020-02-01T14:01:39.000Z</time>
      </trkpt>
      <trkpt lat="42.84751" lon="0.508">
        <ele>1474</ele>
        <time>2020-02-01T14:01:40.000Z</time>
      </trkpt>
      <trkpt lat="42.8475" lon="0.50801">
        <ele>1474</ele>
        <time>2020-02-01T14:01:41.000Z</time>
      </trkpt>
      <trkpt lat="42.8475" lon="0.50803">
        <ele>1473.7</ele>
        <time>2020-02-01T14:01:42.000Z</time>
      </trkpt>
      <trkpt lat="42.84749" lon="0.50805">
        <ele>1473.3</ele>
        <time>2020-02-01T14:01:43.000Z</time>
      </trkpt>
      <trkpt lat="42.84749" lon="0.50807">
        <ele>1473</ele>
        <time>2020-02-01T14:01:44.000Z</time>
      </trkpt>
      <trkpt lat="42.84748" lon="0.50809">
        <ele>1473</ele>
        <time>2020-02-01T14:01:45.000Z</time>
      </trkpt>
      <trkpt lat="42.84748" lon="0.50811">
        <ele>1473</ele>
        <time>2020-02-01T14:01:46.000Z</time>
      </trkpt>
      <trkpt lat="42.84747" lon="0.50813">
        <ele>1473</ele>
        <time>2020-02-01T14:01:47.000Z</time>
      </trkpt>
      <trkpt lat="42.84747" lon="0.50815">
        <ele>1473</ele>
        <time>2020-02-01T14:01:48.000Z</time>
      </trkpt>
      <trkpt lat="42.84746" lon="0.50817">
        <ele>1473</ele>
        <time>2020-02-01T14:01:49.000Z</time>
      </trkpt>
      <trkpt lat="42.84746" lon="0.50819">
        <ele>1473</ele>
        <time>2020-02-01T14:01:50.000Z</time>
      </trkpt>
      <trkpt lat="42.84745" lon="0.50821">
        <ele>1472.5</ele>
        <time>2020-02-01T14:01:51.000Z</time>
      </trkpt>
      <trkpt lat="42.84745" lon="0.50823">
        <ele>1472</ele>
        <time>2020-02-01T14:01:52.000Z</time>
      </trkpt>
      <trkpt lat="42.84744" lon="0.50825">
        <ele>1472</ele>
        <time>2020-02-01T14:01:53.000Z</time>
      </trkpt>
      <trkpt lat="42.84744" lon="0.50827">
        <ele>1472</ele>
        <time>2020-02-01T14:01:54.000Z</time>
      </trkpt>
      <trkpt lat="42.84744" lon="0.50829">
        <ele>1472</ele>
        <time>2020-02-01T14:01:55.000Z</time>
      </trkpt>
      <trkpt lat="42.84744" lon="0.50831">
        <ele>1472</ele>
        <time>2020-02-01T14:01:56.000Z</time>
      </trkpt>
      <trkpt lat="42.84743" lon="0.50832">
        <ele>1471.5</ele>
        <time>2020-02-01T14:01:57.000Z</time>
      </trkpt>
      <trkpt lat="42.84743" lon="0.50834">
        <ele>1471</ele>
        <time>2020-02-01T14:01:58.000Z</time>
      </trkpt>
      <trkpt lat="42.84743" lon="0.50836">
        <ele>1471</ele>
        <time>2020-02-01T14:01:59.000Z</time>
      </trkpt>
      <trkpt lat="42.84743" lon="0.50838">
        <ele>1471</ele>
        <time>2020-02-01T14:02:00.000Z</time>
      </trkpt>
      <trkpt lat="42.84743" lon="0.5084">
        <ele>1471</ele>
        <time>2020-02-01T14:02:01.000Z</time>
      </trkpt>
      <trkpt lat="42.84743" lon="0.50841">
        <ele>1471</ele>
        <time>2020-02-01T14:02:02.000Z</time>
      </trkpt>
      <trkpt lat="42.84743" lon="0.50843">
        <ele>1470.5</ele>
        <time>2020-02-01T14:02:03.000Z</time>
      </trkpt>
      <trkpt lat="42.84743" lon="0.50845">
        <ele>1470</ele>
        <time>2020-02-01T14:02:04.000Z</time>
      </trkpt>
      <trkpt lat="42.84742" lon="0.50846">
        <ele>1470</ele>
        <time>2020-02-01T14:02:05.000Z</time>
      </trkpt>
      <trkpt lat="42.84742" lon="0.50848">
        <ele>1470</ele>
        <time>2020-02-01T14:02:06.000Z</time>
      </trkpt>
      <trkpt lat="42.84742" lon="0.5085">
        <ele>1470</ele>
        <time>2020-02-01T14:02:07.000Z</time>
      </trkpt>
      <trkpt lat="42.84741" lon="0.50851">
        <ele>1469.7</ele>
        <time>2020-02-01T14:02:08.000Z</time>
      </trkpt>
      <trkpt lat="42.84741" lon="0.50853">
        <ele>1469.3</ele>
        <time>2020-02-01T14:02:09.000Z</time>
      </trkpt>
      <trkpt lat="42.84741" lon="0.50855">
        <ele>1469</ele>
        <time>2020-02-01T14:02:10.000Z</time>
      </trkpt>
      <trkpt lat="42.84741" lon="0.50856">
        <ele>1469</ele>
        <time>2020-02-01T14:02:11.000Z</time>
      </trkpt>
      <trkpt lat="42.84741" lon="0.50858">
        <ele>1469</ele>
        <time>2020-02-01T14:02:12.000Z</time>
      </trkpt>
      <trkpt lat="42.8474" lon="0.5086">
        <ele>1468.5</ele>
        <time>2020-02-01T14:02:13.000Z</time>
      </trkpt>
      <trkpt lat="42.8474" lon="0.50862">
        <ele>1468</ele>
        <time>2020-02-01T14:02:14.000Z</time>
      </trkpt>
      <trkpt lat="42.84739" lon="0.50864">
        <ele>1468</ele>
        <time>2020-02-01T14:02:15.000Z</time>
      </trkpt>
      <trkpt lat="42.84739" lon="0.50866">
        <ele>1468</ele>
        <time>2020-02-01T14:02:16.000Z</time>
      </trkpt>
      <trkpt lat="42.84738" lon="0.50868">
        <ele>1468</ele>
        <time>2020-02-01T14:02:17.000Z</time>
      </trkpt>
      <trkpt lat="42.84737" lon="0.50871">
        <ele>1467.7</ele>
        <time>2020-02-01T14:02:18.000Z</time>
      </trkpt>
      <trkpt lat="42.84737" lon="0.50873">
        <ele>1467.3</ele>
        <time>2020-02-01T14:02:19.000Z</time>
      </trkpt>
      <trkpt lat="42.84736" lon="0.50876">
        <ele>1467</ele>
        <time>2020-02-01T14:02:20.000Z</time>
      </trkpt>
      <trkpt lat="42.84736" lon="0.50878">
        <ele>1467</ele>
        <time>2020-02-01T14:02:21.000Z</time>
      </trkpt>
      <trkpt lat="42.84736" lon="0.5088">
        <ele>1467</ele>
        <time>2020-02-01T14:02:22.000Z</time>
      </trkpt>
      <trkpt lat="42.84736" lon="0.50883">
        <ele>1466</ele>
        <time>2020-02-01T14:02:23.000Z</time>
      </trkpt>
      <trkpt lat="42.84736" lon="0.50885">
        <ele>1466</ele>
        <time>2020-02-01T14:02:24.000Z</time>
      </trkpt>
      <trkpt lat="42.84736" lon="0.50887">
        <ele>1466</ele>
        <time>2020-02-01T14:02:25.000Z</time>
      </trkpt>
      <trkpt lat="42.84736" lon="0.50889">
        <ele>1466</ele>
        <time>2020-02-01T14:02:26.000Z</time>
      </trkpt>
      <trkpt lat="42.84737" lon="0.50891">
        <ele>1466</ele>
        <time>2020-02-01T14:02:27.000Z</time>
      </trkpt>
      <trkpt lat="42.84737" lon="0.50893">
        <ele>1465.7</ele>
        <time>2020-02-01T14:02:28.000Z</time>
      </trkpt>
      <trkpt lat="42.84737" lon="0.50895">
        <ele>1465.3</ele>
        <time>2020-02-01T14:02:29.000Z</time>
      </trkpt>
      <trkpt lat="42.84738" lon="0.50897">
        <ele>1465</ele>
        <time>2020-02-01T14:02:30.000Z</time>
      </trkpt>
      <trkpt lat="42.84737" lon="0.50898">
        <ele>1465</ele>
        <time>2020-02-01T14:02:31.000Z</time>
      </trkpt>
      <trkpt lat="42.84737" lon="0.50899">
        <ele>1465</ele>
        <time>2020-02-01T14:02:32.000Z</time>
      </trkpt>
      <trkpt lat="42.84737" lon="0.509">
        <ele>1465</ele>
        <time>2020-02-01T14:02:33.000Z</time>
      </trkpt>
      <trkpt lat="42.84737" lon="0.50901">
        <ele>1465</ele>
        <time>2020-02-01T14:02:34.000Z</time>
      </trkpt>
      <trkpt lat="42.84736" lon="0.50903">
        <ele>1465</ele>
        <time>2020-02-01T14:02:35.000Z</time>
      </trkpt>
      <trkpt lat="42.84736" lon="0.50904">
        <ele>1464.7</ele>
        <time>2020-02-01T14:02:36.000Z</time>
      </trkpt>
      <trkpt lat="42.84735" lon="0.50906">
        <ele>1464.3</ele>
        <time>2020-02-01T14:02:37.000Z</time>
      </trkpt>
      <trkpt lat="42.84735" lon="0.50908">
        <ele>1464</ele>
        <time>2020-02-01T14:02:38.000Z</time>
      </trkpt>
      <trkpt lat="42.84734" lon="0.5091">
        <ele>1464</ele>
        <time>2020-02-01T14:02:39.000Z</time>
      </trkpt>
      <trkpt lat="42.84731" lon="0.50913">
        <ele>1464</ele>
        <time>2020-02-01T14:02:40.000Z</time>
      </trkpt>
      <trkpt lat="42.84729" lon="0.50914">
        <ele>1464</ele>
        <time>2020-02-01T14:02:41.000Z</time>
      </trkpt>
      <trkpt lat="42.84727" lon="0.50916">
        <ele>1464</ele>
        <time>2020-02-01T14:02:42.000Z</time>
      </trkpt>
      <trkpt lat="42.84725" lon="0.50918">
        <ele>1464</ele>
        <time>2020-02-01T14:02:43.000Z</time>
      </trkpt>
      <trkpt lat="42.84723" lon="0.5092">
        <ele>1464</ele>
        <time>2020-02-01T14:02:44.000Z</time>
      </trkpt>
      <trkpt lat="42.84723" lon="0.50922">
        <ele>1463.5</ele>
        <time>2020-02-01T14:02:45.000Z</time>
      </trkpt>
      <trkpt lat="42.84723" lon="0.50924">
        <ele>1463</ele>
        <time>2020-02-01T14:02:46.000Z</time>
      </trkpt>
      <trkpt lat="42.84723" lon="0.50925">
        <ele>1463</ele>
        <time>2020-02-01T14:02:47.000Z</time>
      </trkpt>
      <trkpt lat="42.84723" lon="0.50927">
        <ele>1463</ele>
        <time>2020-02-01T14:02:48.000Z</time>
      </trkpt>
      <trkpt lat="42.84724" lon="0.50929">
        <ele>1462</ele>
        <time>2020-02-01T14:02:49.000Z</time>
      </trkpt>
      <trkpt lat="42.84724" lon="0.5093">
        <ele>1462</ele>
        <time>2020-02-01T14:02:50.000Z</time>
      </trkpt>
      <trkpt lat="42.84724" lon="0.50932">
        <ele>1462</ele>
        <time>2020-02-01T14:02:51.000Z</time>
      </trkpt>
      <trkpt lat="42.84725" lon="0.50933">
        <ele>1462</ele>
        <time>2020-02-01T14:02:52.000Z</time>
      </trkpt>
      <trkpt lat="42.84725" lon="0.50935">
        <ele>1462</ele>
        <time>2020-02-01T14:02:53.000Z</time>
      </trkpt>
      <trkpt lat="42.84725" lon="0.50936">
        <ele>1462</ele>
        <time>2020-02-01T14:02:54.000Z</time>
      </trkpt>
      <trkpt lat="42.84725" lon="0.50938">
        <ele>1461</ele>
        <time>2020-02-01T14:02:55.000Z</time>
      </trkpt>
      <trkpt lat="42.84726" lon="0.50939">
        <ele>1461</ele>
        <time>2020-02-01T14:02:56.000Z</time>
      </trkpt>
      <trkpt lat="42.84726" lon="0.5094">
        <ele>1461</ele>
        <time>2020-02-01T14:02:57.000Z</time>
      </trkpt>
      <trkpt lat="42.84726" lon="0.50942">
        <ele>1461</ele>
        <time>2020-02-01T14:02:58.000Z</time>
      </trkpt>
      <trkpt lat="42.84726" lon="0.50943">
        <ele>1461</ele>
        <time>2020-02-01T14:02:59.000Z</time>
      </trkpt>
      <trkpt lat="42.84726" lon="0.50944">
        <ele>1461</ele>
        <time>2020-02-01T14:03:00.000Z</time>
      </trkpt>
      <trkpt lat="42.84726" lon="0.50946">
        <ele>1460.5</ele>
        <time>2020-02-01T14:03:01.000Z</time>
      </trkpt>
      <trkpt lat="42.84726" lon="0.50947">
        <ele>1460</ele>
        <time>2020-02-01T14:03:02.000Z</time>
      </trkpt>
      <trkpt lat="42.84726" lon="0.50949">
        <ele>1460</ele>
        <time>2020-02-01T14:03:03.000Z</time>
      </trkpt>
      <trkpt lat="42.84726" lon="0.50951">
        <ele>1460</ele>
        <time>2020-02-01T14:03:04.000Z</time>
      </trkpt>
      <trkpt lat="42.84726" lon="0.50952">
        <ele>1459.5</ele>
        <time>2020-02-01T14:03:05.000Z</time>
      </trkpt>
      <trkpt lat="42.84725" lon="0.50954">
        <ele>1459</ele>
        <time>2020-02-01T14:03:06.000Z</time>
      </trkpt>
      <trkpt lat="42.84725" lon="0.50956">
        <ele>1459</ele>
        <time>2020-02-01T14:03:07.000Z</time>
      </trkpt>
      <trkpt lat="42.84725" lon="0.50958">
        <ele>1459</ele>
        <time>2020-02-01T14:03:08.000Z</time>
      </trkpt>
      <trkpt lat="42.84724" lon="0.5096">
        <ele>1459</ele>
        <time>2020-02-01T14:03:09.000Z</time>
      </trkpt>
      <trkpt lat="42.84724" lon="0.50963">
        <ele>1459</ele>
        <time>2020-02-01T14:03:10.000Z</time>
      </trkpt>
      <trkpt lat="42.84724" lon="0.50965">
        <ele>1458</ele>
        <time>2020-02-01T14:03:11.000Z</time>
      </trkpt>
      <trkpt lat="42.84724" lon="0.50967">
        <ele>1457.7</ele>
        <time>2020-02-01T14:03:12.000Z</time>
      </trkpt>
      <trkpt lat="42.84724" lon="0.50969">
        <ele>1457.3</ele>
        <time>2020-02-01T14:03:13.000Z</time>
      </trkpt>
      <trkpt lat="42.84724" lon="0.50971">
        <ele>1457</ele>
        <time>2020-02-01T14:03:14.000Z</time>
      </trkpt>
      <trkpt lat="42.84724" lon="0.50973">
        <ele>1457</ele>
        <time>2020-02-01T14:03:15.000Z</time>
      </trkpt>
      <trkpt lat="42.84724" lon="0.50974">
        <ele>1456.5</ele>
        <time>2020-02-01T14:03:16.000Z</time>
      </trkpt>
      <trkpt lat="42.84724" lon="0.50975">
        <ele>1456</ele>
        <time>2020-02-01T14:03:17.000Z</time>
      </trkpt>
      <trkpt lat="42.84724" lon="0.50976">
        <ele>1456</ele>
        <time>2020-02-01T14:03:18.000Z</time>
      </trkpt>
      <trkpt lat="42.84725" lon="0.50978">
        <ele>1456</ele>
        <time>2020-02-01T14:03:19.000Z</time>
      </trkpt>
      <trkpt lat="42.84725" lon="0.50979">
        <ele>1456</ele>
        <time>2020-02-01T14:03:20.000Z</time>
      </trkpt>
      <trkpt lat="42.84725" lon="0.5098">
        <ele>1455.5</ele>
        <time>2020-02-01T14:03:21.000Z</time>
      </trkpt>
      <trkpt lat="42.84726" lon="0.50982">
        <ele>1455</ele>
        <time>2020-02-01T14:03:22.000Z</time>
      </trkpt>
      <trkpt lat="42.84726" lon="0.50983">
        <ele>1454</ele>
        <time>2020-02-01T14:03:23.000Z</time>
      </trkpt>
      <trkpt lat="42.84726" lon="0.50985">
        <ele>1454</ele>
        <time>2020-02-01T14:03:24.000Z</time>
      </trkpt>
      <trkpt lat="42.84727" lon="0.50986">
        <ele>1454</ele>
        <time>2020-02-01T14:03:25.000Z</time>
      </trkpt>
      <trkpt lat="42.84727" lon="0.50987">
        <ele>1454</ele>
        <time>2020-02-01T14:03:26.000Z</time>
      </trkpt>
      <trkpt lat="42.84727" lon="0.50989">
        <ele>1453.5</ele>
        <time>2020-02-01T14:03:27.000Z</time>
      </trkpt>
      <trkpt lat="42.84727" lon="0.50991">
        <ele>1453</ele>
        <time>2020-02-01T14:03:28.000Z</time>
      </trkpt>
      <trkpt lat="42.84727" lon="0.50992">
        <ele>1452.5</ele>
        <time>2020-02-01T14:03:29.000Z</time>
      </trkpt>
      <trkpt lat="42.84727" lon="0.50994">
        <ele>1452</ele>
        <time>2020-02-01T14:03:30.000Z</time>
      </trkpt>
      <trkpt lat="42.84727" lon="0.50995">
        <ele>1452</ele>
        <time>2020-02-01T14:03:31.000Z</time>
      </trkpt>
      <trkpt lat="42.84727" lon="0.50997">
        <ele>1452</ele>
        <time>2020-02-01T14:03:32.000Z</time>
      </trkpt>
      <trkpt lat="42.84727" lon="0.50999">
        <ele>1451.5</ele>
        <time>2020-02-01T14:03:33.000Z</time>
      </trkpt>
      <trkpt lat="42.84726" lon="0.51">
        <ele>1451</ele>
        <time>2020-02-01T14:03:34.000Z</time>
      </trkpt>
      <trkpt lat="42.84726" lon="0.51002">
        <ele>1451</ele>
        <time>2020-02-01T14:03:35.000Z</time>
      </trkpt>
      <trkpt lat="42.84726" lon="0.51003">
        <ele>1450.7</ele>
        <time>2020-02-01T14:03:36.000Z</time>
      </trkpt>
      <trkpt lat="42.84725" lon="0.51005">
        <ele>1450.3</ele>
        <time>2020-02-01T14:03:37.000Z</time>
      </trkpt>
      <trkpt lat="42.84724" lon="0.51006">
        <ele>1450</ele>
        <time>2020-02-01T14:03:38.000Z</time>
      </trkpt>
      <trkpt lat="42.84724" lon="0.51008">
        <ele>1450</ele>
        <time>2020-02-01T14:03:39.000Z</time>
      </trkpt>
      <trkpt lat="42.84724" lon="0.51009">
        <ele>1450</ele>
        <time>2020-02-01T14:03:40.000Z</time>
      </trkpt>
      <trkpt lat="42.84723" lon="0.51011">
        <ele>1449</ele>
        <time>2020-02-01T14:03:41.000Z</time>
      </trkpt>
      <trkpt lat="42.84724" lon="0.51013">
        <ele>1448.7</ele>
        <time>2020-02-01T14:03:42.000Z</time>
      </trkpt>
      <trkpt lat="42.84724" lon="0.51014">
        <ele>1448.3</ele>
        <time>2020-02-01T14:03:43.000Z</time>
      </trkpt>
      <trkpt lat="42.84725" lon="0.51016">
        <ele>1448</ele>
        <time>2020-02-01T14:03:44.000Z</time>
      </trkpt>
      <trkpt lat="42.84725" lon="0.51018">
        <ele>1448</ele>
        <time>2020-02-01T14:03:45.000Z</time>
      </trkpt>
      <trkpt lat="42.84725" lon="0.51019">
        <ele>1448</ele>
        <time>2020-02-01T14:03:46.000Z</time>
      </trkpt>
      <trkpt lat="42.84725" lon="0.51021">
        <ele>1447</ele>
        <time>2020-02-01T14:03:47.000Z</time>
      </trkpt>
      <trkpt lat="42.84725" lon="0.51023">
        <ele>1447</ele>
        <time>2020-02-01T14:03:48.000Z</time>
      </trkpt>
      <trkpt lat="42.84725" lon="0.51024">
        <ele>1447</ele>
        <time>2020-02-01T14:03:49.000Z</time>
      </trkpt>
      <trkpt lat="42.84724" lon="0.51026">
        <ele>1447</ele>
        <time>2020-02-01T14:03:50.000Z</time>
      </trkpt>
      <trkpt lat="42.84724" lon="0.51027">
        <ele>1446.5</ele>
        <time>2020-02-01T14:03:51.000Z</time>
      </trkpt>
      <trkpt lat="42.84724" lon="0.51029">
        <ele>1446</ele>
        <time>2020-02-01T14:03:52.000Z</time>
      </trkpt>
      <trkpt lat="42.84724" lon="0.51031">
        <ele>1446</ele>
        <time>2020-02-01T14:03:53.000Z</time>
      </trkpt>
      <trkpt lat="42.84724" lon="0.51032">
        <ele>1446</ele>
        <time>2020-02-01T14:03:54.000Z</time>
      </trkpt>
      <trkpt lat="42.84724" lon="0.51034">
        <ele>1445</ele>
        <time>2020-02-01T14:03:55.000Z</time>
      </trkpt>
      <trkpt lat="42.84724" lon="0.51035">
        <ele>1444.7</ele>
        <time>2020-02-01T14:03:56.000Z</time>
      </trkpt>
      <trkpt lat="42.84725" lon="0.51037">
        <ele>1444.3</ele>
        <time>2020-02-01T14:03:57.000Z</time>
      </trkpt>
      <trkpt lat="42.84725" lon="0.51038">
        <ele>1444</ele>
        <time>2020-02-01T14:03:58.000Z</time>
      </trkpt>
      <trkpt lat="42.84726" lon="0.51039">
        <ele>1444</ele>
        <time>2020-02-01T14:03:59.000Z</time>
      </trkpt>
      <trkpt lat="42.84726" lon="0.5104">
        <ele>1444</ele>
        <time>2020-02-01T14:04:00.000Z</time>
      </trkpt>
      <trkpt lat="42.84726" lon="0.51042">
        <ele>1443</ele>
        <time>2020-02-01T14:04:01.000Z</time>
      </trkpt>
      <trkpt lat="42.84726" lon="0.51043">
        <ele>1443</ele>
        <time>2020-02-01T14:04:02.000Z</time>
      </trkpt>
      <trkpt lat="42.84726" lon="0.51045">
        <ele>1443</ele>
        <time>2020-02-01T14:04:03.000Z</time>
      </trkpt>
      <trkpt lat="42.84726" lon="0.51046">
        <ele>1443</ele>
        <time>2020-02-01T14:04:04.000Z</time>
      </trkpt>
      <trkpt lat="42.84726" lon="0.51048">
        <ele>1442</ele>
        <time>2020-02-01T14:04:05.000Z</time>
      </trkpt>
      <trkpt lat="42.84727" lon="0.51049">
        <ele>1442</ele>
        <time>2020-02-01T14:04:06.000Z</time>
      </trkpt>
      <trkpt lat="42.84727" lon="0.5105">
        <ele>1442</ele>
        <time>2020-02-01T14:04:07.000Z</time>
      </trkpt>
      <trkpt lat="42.84727" lon="0.51052">
        <ele>1442</ele>
        <time>2020-02-01T14:04:08.000Z</time>
      </trkpt>
      <trkpt lat="42.84727" lon="0.51053">
        <ele>1441</ele>
        <time>2020-02-01T14:04:09.000Z</time>
      </trkpt>
      <trkpt lat="42.84728" lon="0.51055">
        <ele>1441</ele>
        <time>2020-02-01T14:04:10.000Z</time>
      </trkpt>
      <trkpt lat="42.84728" lon="0.51056">
        <ele>1441</ele>
        <time>2020-02-01T14:04:11.000Z</time>
      </trkpt>
      <trkpt lat="42.84728" lon="0.51057">
        <ele>1441</ele>
        <time>2020-02-01T14:04:12.000Z</time>
      </trkpt>
      <trkpt lat="42.84729" lon="0.51058">
        <ele>1440</ele>
        <time>2020-02-01T14:04:13.000Z</time>
      </trkpt>
      <trkpt lat="42.84729" lon="0.51059">
        <ele>1440</ele>
        <time>2020-02-01T14:04:14.000Z</time>
      </trkpt>
      <trkpt lat="42.8473" lon="0.51061">
        <ele>1440</ele>
        <time>2020-02-01T14:04:15.000Z</time>
      </trkpt>
      <trkpt lat="42.8473" lon="0.51062">
        <ele>1439.7</ele>
        <time>2020-02-01T14:04:16.000Z</time>
      </trkpt>
      <trkpt lat="42.84731" lon="0.51063">
        <ele>1439.3</ele>
        <time>2020-02-01T14:04:17.000Z</time>
      </trkpt>
      <trkpt lat="42.84732" lon="0.51064">
        <ele>1439</ele>
        <time>2020-02-01T14:04:18.000Z</time>
      </trkpt>
      <trkpt lat="42.84733" lon="0.51065">
        <ele>1439</ele>
        <time>2020-02-01T14:04:19.000Z</time>
      </trkpt>
      <trkpt lat="42.84734" lon="0.51065">
        <ele>1439</ele>
        <time>2020-02-01T14:04:20.000Z</time>
      </trkpt>
      <trkpt lat="42.84735" lon="0.51066">
        <ele>1438.5</ele>
        <time>2020-02-01T14:04:21.000Z</time>
      </trkpt>
      <trkpt lat="42.84736" lon="0.51067">
        <ele>1438</ele>
        <time>2020-02-01T14:04:22.000Z</time>
      </trkpt>
      <trkpt lat="42.84737" lon="0.51067">
        <ele>1437</ele>
        <time>2020-02-01T14:04:23.000Z</time>
      </trkpt>
      <trkpt lat="42.84738" lon="0.51068">
        <ele>1437</ele>
        <time>2020-02-01T14:04:24.000Z</time>
      </trkpt>
      <trkpt lat="42.84739" lon="0.51068">
        <ele>1437</ele>
        <time>2020-02-01T14:04:25.000Z</time>
      </trkpt>
      <trkpt lat="42.8474" lon="0.51069">
        <ele>1437</ele>
        <time>2020-02-01T14:04:26.000Z</time>
      </trkpt>
      <trkpt lat="42.84741" lon="0.51069">
        <ele>1436</ele>
        <time>2020-02-01T14:04:27.000Z</time>
      </trkpt>
      <trkpt lat="42.84742" lon="0.5107">
        <ele>1436</ele>
        <time>2020-02-01T14:04:28.000Z</time>
      </trkpt>
      <trkpt lat="42.84743" lon="0.5107">
        <ele>1436</ele>
        <time>2020-02-01T14:04:29.000Z</time>
      </trkpt>
      <trkpt lat="42.84744" lon="0.5107">
        <ele>1436</ele>
        <time>2020-02-01T14:04:30.000Z</time>
      </trkpt>
      <trkpt lat="42.84745" lon="0.5107">
        <ele>1435</ele>
        <time>2020-02-01T14:04:31.000Z</time>
      </trkpt>
      <trkpt lat="42.84746" lon="0.51071">
        <ele>1435</ele>
        <time>2020-02-01T14:04:32.000Z</time>
      </trkpt>
      <trkpt lat="42.84747" lon="0.51071">
        <ele>1435</ele>
        <time>2020-02-01T14:04:33.000Z</time>
      </trkpt>
      <trkpt lat="42.84748" lon="0.51071">
        <ele>1434.7</ele>
        <time>2020-02-01T14:04:34.000Z</time>
      </trkpt>
      <trkpt lat="42.84749" lon="0.51072">
        <ele>1434.3</ele>
        <time>2020-02-01T14:04:35.000Z</time>
      </trkpt>
      <trkpt lat="42.8475" lon="0.51072">
        <ele>1434</ele>
        <time>2020-02-01T14:04:36.000Z</time>
      </trkpt>
      <trkpt lat="42.84751" lon="0.51073">
        <ele>1433</ele>
        <time>2020-02-01T14:04:37.000Z</time>
      </trkpt>
      <trkpt lat="42.84751" lon="0.51074">
        <ele>1433</ele>
        <time>2020-02-01T14:04:38.000Z</time>
      </trkpt>
      <trkpt lat="42.84752" lon="0.51075">
        <ele>1433</ele>
        <time>2020-02-01T14:04:39.000Z</time>
      </trkpt>
      <trkpt lat="42.84752" lon="0.51076">
        <ele>1433</ele>
        <time>2020-02-01T14:04:40.000Z</time>
      </trkpt>
      <trkpt lat="42.84753" lon="0.51077">
        <ele>1432.5</ele>
        <time>2020-02-01T14:04:41.000Z</time>
      </trkpt>
      <trkpt lat="42.84753" lon="0.51078">
        <ele>1432</ele>
        <time>2020-02-01T14:04:42.000Z</time>
      </trkpt>
      <trkpt lat="42.84754" lon="0.5108">
        <ele>1432</ele>
        <time>2020-02-01T14:04:43.000Z</time>
      </trkpt>
      <trkpt lat="42.84754" lon="0.51082">
        <ele>1432</ele>
        <time>2020-02-01T14:04:44.000Z</time>
      </trkpt>
      <trkpt lat="42.84755" lon="0.51083">
        <ele>1432</ele>
        <time>2020-02-01T14:04:45.000Z</time>
      </trkpt>
      <trkpt lat="42.84755" lon="0.51085">
        <ele>1432</ele>
        <time>2020-02-01T14:04:46.000Z</time>
      </trkpt>
      <trkpt lat="42.84756" lon="0.51086">
        <ele>1432</ele>
        <time>2020-02-01T14:04:47.000Z</time>
      </trkpt>
      <trkpt lat="42.84757" lon="0.51088">
        <ele>1432</ele>
        <time>2020-02-01T14:04:48.000Z</time>
      </trkpt>
      <trkpt lat="42.84757" lon="0.51089">
        <ele>1431</ele>
        <time>2020-02-01T14:04:49.000Z</time>
      </trkpt>
      <trkpt lat="42.84758" lon="0.5109">
        <ele>1431</ele>
        <time>2020-02-01T14:04:50.000Z</time>
      </trkpt>
      <trkpt lat="42.84759" lon="0.51092">
        <ele>1431</ele>
        <time>2020-02-01T14:04:51.000Z</time>
      </trkpt>
      <trkpt lat="42.8476" lon="0.51093">
        <ele>1431</ele>
        <time>2020-02-01T14:04:52.000Z</time>
      </trkpt>
      <trkpt lat="42.8476" lon="0.51094">
        <ele>1430.5</ele>
        <time>2020-02-01T14:04:53.000Z</time>
      </trkpt>
      <trkpt lat="42.84761" lon="0.51095">
        <ele>1430</ele>
        <time>2020-02-01T14:04:54.000Z</time>
      </trkpt>
      <trkpt lat="42.84762" lon="0.51096">
        <ele>1430</ele>
        <time>2020-02-01T14:04:55.000Z</time>
      </trkpt>
      <trkpt lat="42.84762" lon="0.51097">
        <ele>1429.7</ele>
        <time>2020-02-01T14:04:56.000Z</time>
      </trkpt>
      <trkpt lat="42.84763" lon="0.51098">
        <ele>1429.3</ele>
        <time>2020-02-01T14:04:57.000Z</time>
      </trkpt>
      <trkpt lat="42.84763" lon="0.511">
        <ele>1429</ele>
        <time>2020-02-01T14:04:58.000Z</time>
      </trkpt>
      <trkpt lat="42.84764" lon="0.51101">
        <ele>1429</ele>
        <time>2020-02-01T14:04:59.000Z</time>
      </trkpt>
      <trkpt lat="42.84764" lon="0.51102">
        <ele>1429</ele>
        <time>2020-02-01T14:05:00.000Z</time>
      </trkpt>
      <trkpt lat="42.84765" lon="0.51103">
        <ele>1429</ele>
        <time>2020-02-01T14:05:01.000Z</time>
      </trkpt>
      <trkpt lat="42.84765" lon="0.51105">
        <ele>1429</ele>
        <time>2020-02-01T14:05:02.000Z</time>
      </trkpt>
      <trkpt lat="42.84766" lon="0.51106">
        <ele>1428</ele>
        <time>2020-02-01T14:05:03.000Z</time>
      </trkpt>
      <trkpt lat="42.84767" lon="0.51108">
        <ele>1427.7</ele>
        <time>2020-02-01T14:05:04.000Z</time>
      </trkpt>
      <trkpt lat="42.84768" lon="0.51109">
        <ele>1427.3</ele>
        <time>2020-02-01T14:05:05.000Z</time>
      </trkpt>
      <trkpt lat="42.84768" lon="0.51111">
        <ele>1427</ele>
        <time>2020-02-01T14:05:06.000Z</time>
      </trkpt>
      <trkpt lat="42.84769" lon="0.51112">
        <ele>1427</ele>
        <time>2020-02-01T14:05:07.000Z</time>
      </trkpt>
      <trkpt lat="42.8477" lon="0.51113">
        <ele>1427</ele>
        <time>2020-02-01T14:05:08.000Z</time>
      </trkpt>
      <trkpt lat="42.84771" lon="0.51114">
        <ele>1426</ele>
        <time>2020-02-01T14:05:09.000Z</time>
      </trkpt>
      <trkpt lat="42.84772" lon="0.51115">
        <ele>1426</ele>
        <time>2020-02-01T14:05:10.000Z</time>
      </trkpt>
      <trkpt lat="42.84773" lon="0.51116">
        <ele>1426</ele>
        <time>2020-02-01T14:05:11.000Z</time>
      </trkpt>
      <trkpt lat="42.84774" lon="0.51117">
        <ele>1425.7</ele>
        <time>2020-02-01T14:05:12.000Z</time>
      </trkpt>
      <trkpt lat="42.84775" lon="0.51118">
        <ele>1425.3</ele>
        <time>2020-02-01T14:05:13.000Z</time>
      </trkpt>
      <trkpt lat="42.84776" lon="0.51119">
        <ele>1425</ele>
        <time>2020-02-01T14:05:14.000Z</time>
      </trkpt>
      <trkpt lat="42.84777" lon="0.5112">
        <ele>1425</ele>
        <time>2020-02-01T14:05:15.000Z</time>
      </trkpt>
      <trkpt lat="42.84778" lon="0.51121">
        <ele>1425</ele>
        <time>2020-02-01T14:05:16.000Z</time>
      </trkpt>
      <trkpt lat="42.84779" lon="0.51122">
        <ele>1425</ele>
        <time>2020-02-01T14:05:17.000Z</time>
      </trkpt>
      <trkpt lat="42.84779" lon="0.51123">
        <ele>1424.7</ele>
        <time>2020-02-01T14:05:18.000Z</time>
      </trkpt>
      <trkpt lat="42.8478" lon="0.51124">
        <ele>1424.3</ele>
        <time>2020-02-01T14:05:19.000Z</time>
      </trkpt>
      <trkpt lat="42.8478" lon="0.51125">
        <ele>1424</ele>
        <time>2020-02-01T14:05:20.000Z</time>
      </trkpt>
      <trkpt lat="42.84779" lon="0.51127">
        <ele>1424</ele>
        <time>2020-02-01T14:05:21.000Z</time>
      </trkpt>
      <trkpt lat="42.84779" lon="0.51129">
        <ele>1424</ele>
        <time>2020-02-01T14:05:22.000Z</time>
      </trkpt>
      <trkpt lat="42.84779" lon="0.5113">
        <ele>1423.5</ele>
        <time>2020-02-01T14:05:23.000Z</time>
      </trkpt>
      <trkpt lat="42.8478" lon="0.51132">
        <ele>1423</ele>
        <time>2020-02-01T14:05:24.000Z</time>
      </trkpt>
      <trkpt lat="42.84781" lon="0.51133">
        <ele>1423</ele>
        <time>2020-02-01T14:05:25.000Z</time>
      </trkpt>
      <trkpt lat="42.84782" lon="0.51134">
        <ele>1422.7</ele>
        <time>2020-02-01T14:05:26.000Z</time>
      </trkpt>
      <trkpt lat="42.84784" lon="0.51135">
        <ele>1422.3</ele>
        <time>2020-02-01T14:05:27.000Z</time>
      </trkpt>
      <trkpt lat="42.84785" lon="0.51135">
        <ele>1422</ele>
        <time>2020-02-01T14:05:28.000Z</time>
      </trkpt>
      <trkpt lat="42.84787" lon="0.51136">
        <ele>1422</ele>
        <time>2020-02-01T14:05:29.000Z</time>
      </trkpt>
      <trkpt lat="42.84788" lon="0.51136">
        <ele>1422</ele>
        <time>2020-02-01T14:05:30.000Z</time>
      </trkpt>
      <trkpt lat="42.84789" lon="0.51137">
        <ele>1422</ele>
        <time>2020-02-01T14:05:31.000Z</time>
      </trkpt>
      <trkpt lat="42.84789" lon="0.51139">
        <ele>1422</ele>
        <time>2020-02-01T14:05:32.000Z</time>
      </trkpt>
      <trkpt lat="42.8479" lon="0.5114">
        <ele>1421</ele>
        <time>2020-02-01T14:05:33.000Z</time>
      </trkpt>
      <trkpt lat="42.8479" lon="0.51142">
        <ele>1421</ele>
        <time>2020-02-01T14:05:34.000Z</time>
      </trkpt>
      <trkpt lat="42.84791" lon="0.51144">
        <ele>1421</ele>
        <time>2020-02-01T14:05:35.000Z</time>
      </trkpt>
      <trkpt lat="42.84792" lon="0.51145">
        <ele>1421</ele>
        <time>2020-02-01T14:05:36.000Z</time>
      </trkpt>
      <trkpt lat="42.84793" lon="0.51147">
        <ele>1421</ele>
        <time>2020-02-01T14:05:37.000Z</time>
      </trkpt>
      <trkpt lat="42.84793" lon="0.51148">
        <ele>1421</ele>
        <time>2020-02-01T14:05:38.000Z</time>
      </trkpt>
      <trkpt lat="42.84794" lon="0.51149">
        <ele>1421</ele>
        <time>2020-02-01T14:05:39.000Z</time>
      </trkpt>
      <trkpt lat="42.84795" lon="0.5115">
        <ele>1421</ele>
        <time>2020-02-01T14:05:40.000Z</time>
      </trkpt>
      <trkpt lat="42.84796" lon="0.51151">
        <ele>1420.5</ele>
        <time>2020-02-01T14:05:41.000Z</time>
      </trkpt>
      <trkpt lat="42.84797" lon="0.51152">
        <ele>1420</ele>
        <time>2020-02-01T14:05:42.000Z</time>
      </trkpt>
      <trkpt lat="42.84797" lon="0.51153">
        <ele>1420</ele>
        <time>2020-02-01T14:05:43.000Z</time>
      </trkpt>
      <trkpt lat="42.84798" lon="0.51153">
        <ele>1420</ele>
        <time>2020-02-01T14:05:44.000Z</time>
      </trkpt>
      <trkpt lat="42.84798" lon="0.51154">
        <ele>1419.5</ele>
        <time>2020-02-01T14:05:45.000Z</time>
      </trkpt>
      <trkpt lat="42.84799" lon="0.51155">
        <ele>1419</ele>
        <time>2020-02-01T14:05:46.000Z</time>
      </trkpt>
      <trkpt lat="42.84799" lon="0.51155">
        <ele>1419</ele>
        <time>2020-02-01T14:05:47.000Z</time>
      </trkpt>
      <trkpt lat="42.848" lon="0.51156">
        <ele>1419</ele>
        <time>2020-02-01T14:05:48.000Z</time>
      </trkpt>
      <trkpt lat="42.84801" lon="0.51157">
        <ele>1418.5</ele>
        <time>2020-02-01T14:05:49.000Z</time>
      </trkpt>
      <trkpt lat="42.84801" lon="0.51158">
        <ele>1418</ele>
        <time>2020-02-01T14:05:50.000Z</time>
      </trkpt>
      <trkpt lat="42.84802" lon="0.51158">
        <ele>1418</ele>
        <time>2020-02-01T14:05:51.000Z</time>
      </trkpt>
      <trkpt lat="42.84802" lon="0.51159">
        <ele>1418</ele>
        <time>2020-02-01T14:05:52.000Z</time>
      </trkpt>
      <trkpt lat="42.84803" lon="0.5116">
        <ele>1417.5</ele>
        <time>2020-02-01T14:05:53.000Z</time>
      </trkpt>
      <trkpt lat="42.84803" lon="0.51161">
        <ele>1417</ele>
        <time>2020-02-01T14:05:54.000Z</time>
      </trkpt>
      <trkpt lat="42.84804" lon="0.51161">
        <ele>1417</ele>
        <time>2020-02-01T14:05:55.000Z</time>
      </trkpt>
      <trkpt lat="42.84805" lon="0.51162">
        <ele>1417</ele>
        <time>2020-02-01T14:05:56.000Z</time>
      </trkpt>
      <trkpt lat="42.84806" lon="0.51162">
        <ele>1416.5</ele>
        <time>2020-02-01T14:05:57.000Z</time>
      </trkpt>
      <trkpt lat="42.84807" lon="0.51163">
        <ele>1416</ele>
        <time>2020-02-01T14:05:58.000Z</time>
      </trkpt>
      <trkpt lat="42.84808" lon="0.51163">
        <ele>1416</ele>
        <time>2020-02-01T14:05:59.000Z</time>
      </trkpt>
      <trkpt lat="42.84809" lon="0.51163">
        <ele>1416</ele>
        <time>2020-02-01T14:06:00.000Z</time>
      </trkpt>
      <trkpt lat="42.8481" lon="0.51163">
        <ele>1415.5</ele>
        <time>2020-02-01T14:06:01.000Z</time>
      </trkpt>
      <trkpt lat="42.84811" lon="0.51163">
        <ele>1415</ele>
        <time>2020-02-01T14:06:02.000Z</time>
      </trkpt>
      <trkpt lat="42.84812" lon="0.51164">
        <ele>1415</ele>
        <time>2020-02-01T14:06:03.000Z</time>
      </trkpt>
      <trkpt lat="42.84812" lon="0.51164">
        <ele>1414.7</ele>
        <time>2020-02-01T14:06:04.000Z</time>
      </trkpt>
      <trkpt lat="42.84813" lon="0.51165">
        <ele>1414.3</ele>
        <time>2020-02-01T14:06:05.000Z</time>
      </trkpt>
      <trkpt lat="42.84814" lon="0.51166">
        <ele>1414</ele>
        <time>2020-02-01T14:06:06.000Z</time>
      </trkpt>
      <trkpt lat="42.84815" lon="0.51167">
        <ele>1414</ele>
        <time>2020-02-01T14:06:07.000Z</time>
      </trkpt>
      <trkpt lat="42.84816" lon="0.51167">
        <ele>1414</ele>
        <time>2020-02-01T14:06:08.000Z</time>
      </trkpt>
      <trkpt lat="42.84816" lon="0.51168">
        <ele>1414</ele>
        <time>2020-02-01T14:06:09.000Z</time>
      </trkpt>
      <trkpt lat="42.84817" lon="0.51169">
        <ele>1414</ele>
        <time>2020-02-01T14:06:10.000Z</time>
      </trkpt>
      <trkpt lat="42.84818" lon="0.5117">
        <ele>1413.5</ele>
        <time>2020-02-01T14:06:11.000Z</time>
      </trkpt>
      <trkpt lat="42.84819" lon="0.51171">
        <ele>1413</ele>
        <time>2020-02-01T14:06:12.000Z</time>
      </trkpt>
      <trkpt lat="42.8482" lon="0.51171">
        <ele>1413</ele>
        <time>2020-02-01T14:06:13.000Z</time>
      </trkpt>
      <trkpt lat="42.8482" lon="0.51172">
        <ele>1412.7</ele>
        <time>2020-02-01T14:06:14.000Z</time>
      </trkpt>
      <trkpt lat="42.84821" lon="0.51173">
        <ele>1412.3</ele>
        <time>2020-02-01T14:06:15.000Z</time>
      </trkpt>
      <trkpt lat="42.84822" lon="0.51174">
        <ele>1412</ele>
        <time>2020-02-01T14:06:16.000Z</time>
      </trkpt>
      <trkpt lat="42.84823" lon="0.51175">
        <ele>1412</ele>
        <time>2020-02-01T14:06:17.000Z</time>
      </trkpt>
      <trkpt lat="42.84824" lon="0.51176">
        <ele>1411.5</ele>
        <time>2020-02-01T14:06:18.000Z</time>
      </trkpt>
      <trkpt lat="42.84824" lon="0.51177">
        <ele>1411</ele>
        <time>2020-02-01T14:06:19.000Z</time>
      </trkpt>
      <trkpt lat="42.84825" lon="0.51178">
        <ele>1411</ele>
        <time>2020-02-01T14:06:20.000Z</time>
      </trkpt>
      <trkpt lat="42.84826" lon="0.51179">
        <ele>1411</ele>
        <time>2020-02-01T14:06:21.000Z</time>
      </trkpt>
      <trkpt lat="42.84827" lon="0.5118">
        <ele>1411</ele>
        <time>2020-02-01T14:06:22.000Z</time>
      </trkpt>
      <trkpt lat="42.84828" lon="0.51181">
        <ele>1410.5</ele>
        <time>2020-02-01T14:06:23.000Z</time>
      </trkpt>
      <trkpt lat="42.84829" lon="0.51182">
        <ele>1410</ele>
        <time>2020-02-01T14:06:24.000Z</time>
      </trkpt>
      <trkpt lat="42.8483" lon="0.51183">
        <ele>1410</ele>
        <time>2020-02-01T14:06:25.000Z</time>
      </trkpt>
      <trkpt lat="42.84831" lon="0.51184">
        <ele>1410</ele>
        <time>2020-02-01T14:06:26.000Z</time>
      </trkpt>
      <trkpt lat="42.84832" lon="0.51185">
        <ele>1409.5</ele>
        <time>2020-02-01T14:06:27.000Z</time>
      </trkpt>
      <trkpt lat="42.84834" lon="0.51185">
        <ele>1409</ele>
        <time>2020-02-01T14:06:28.000Z</time>
      </trkpt>
      <trkpt lat="42.84835" lon="0.51186">
        <ele>1409</ele>
        <time>2020-02-01T14:06:29.000Z</time>
      </trkpt>
      <trkpt lat="42.84837" lon="0.51186">
        <ele>1409</ele>
        <time>2020-02-01T14:06:30.000Z</time>
      </trkpt>
      <trkpt lat="42.84838" lon="0.51187">
        <ele>1408.5</ele>
        <time>2020-02-01T14:06:31.000Z</time>
      </trkpt>
      <trkpt lat="42.84839" lon="0.51188">
        <ele>1408</ele>
        <time>2020-02-01T14:06:32.000Z</time>
      </trkpt>
      <trkpt lat="42.84839" lon="0.51189">
        <ele>1408</ele>
        <time>2020-02-01T14:06:33.000Z</time>
      </trkpt>
      <trkpt lat="42.8484" lon="0.51191">
        <ele>1408</ele>
        <time>2020-02-01T14:06:34.000Z</time>
      </trkpt>
      <trkpt lat="42.8484" lon="0.51192">
        <ele>1408</ele>
        <time>2020-02-01T14:06:35.000Z</time>
      </trkpt>
      <trkpt lat="42.84839" lon="0.51194">
        <ele>1407.7</ele>
        <time>2020-02-01T14:06:36.000Z</time>
      </trkpt>
      <trkpt lat="42.84839" lon="0.51196">
        <ele>1407.3</ele>
        <time>2020-02-01T14:06:37.000Z</time>
      </trkpt>
      <trkpt lat="42.84839" lon="0.51198">
        <ele>1407</ele>
        <time>2020-02-01T14:06:38.000Z</time>
      </trkpt>
      <trkpt lat="42.84839" lon="0.51199">
        <ele>1406.5</ele>
        <time>2020-02-01T14:06:39.000Z</time>
      </trkpt>
      <trkpt lat="42.8484" lon="0.51201">
        <ele>1406</ele>
        <time>2020-02-01T14:06:40.000Z</time>
      </trkpt>
      <trkpt lat="42.8484" lon="0.51202">
        <ele>1406</ele>
        <time>2020-02-01T14:06:41.000Z</time>
      </trkpt>
      <trkpt lat="42.8484" lon="0.51204">
        <ele>1405.7</ele>
        <time>2020-02-01T14:06:42.000Z</time>
      </trkpt>
      <trkpt lat="42.84841" lon="0.51205">
        <ele>1405.3</ele>
        <time>2020-02-01T14:06:43.000Z</time>
      </trkpt>
      <trkpt lat="42.84841" lon="0.51206">
        <ele>1405</ele>
        <time>2020-02-01T14:06:44.000Z</time>
      </trkpt>
      <trkpt lat="42.84842" lon="0.51207">
        <ele>1405</ele>
        <time>2020-02-01T14:06:45.000Z</time>
      </trkpt>
      <trkpt lat="42.84843" lon="0.51208">
        <ele>1405</ele>
        <time>2020-02-01T14:06:46.000Z</time>
      </trkpt>
      <trkpt lat="42.84843" lon="0.51209">
        <ele>1405</ele>
        <time>2020-02-01T14:06:47.000Z</time>
      </trkpt>
      <trkpt lat="42.84844" lon="0.51209">
        <ele>1404.7</ele>
        <time>2020-02-01T14:06:48.000Z</time>
      </trkpt>
      <trkpt lat="42.84845" lon="0.5121">
        <ele>1404.3</ele>
        <time>2020-02-01T14:06:49.000Z</time>
      </trkpt>
      <trkpt lat="42.84846" lon="0.51212">
        <ele>1404</ele>
        <time>2020-02-01T14:06:50.000Z</time>
      </trkpt>
      <trkpt lat="42.84846" lon="0.51213">
        <ele>1403</ele>
        <time>2020-02-01T14:06:51.000Z</time>
      </trkpt>
      <trkpt lat="42.84847" lon="0.51214">
        <ele>1403</ele>
        <time>2020-02-01T14:06:52.000Z</time>
      </trkpt>
      <trkpt lat="42.84848" lon="0.51216">
        <ele>1403</ele>
        <time>2020-02-01T14:06:53.000Z</time>
      </trkpt>
      <trkpt lat="42.84849" lon="0.51217">
        <ele>1403</ele>
        <time>2020-02-01T14:06:54.000Z</time>
      </trkpt>
      <trkpt lat="42.8485" lon="0.51218">
        <ele>1403</ele>
        <time>2020-02-01T14:06:55.000Z</time>
      </trkpt>
      <trkpt lat="42.84851" lon="0.51219">
        <ele>1402.7</ele>
        <time>2020-02-01T14:06:56.000Z</time>
      </trkpt>
      <trkpt lat="42.84851" lon="0.5122">
        <ele>1402.3</ele>
        <time>2020-02-01T14:06:57.000Z</time>
      </trkpt>
      <trkpt lat="42.84852" lon="0.51221">
        <ele>1402</ele>
        <time>2020-02-01T14:06:58.000Z</time>
      </trkpt>
      <trkpt lat="42.84852" lon="0.51223">
        <ele>1402</ele>
        <time>2020-02-01T14:06:59.000Z</time>
      </trkpt>
      <trkpt lat="42.84853" lon="0.51224">
        <ele>1401.7</ele>
        <time>2020-02-01T14:07:00.000Z</time>
      </trkpt>
      <trkpt lat="42.84854" lon="0.51225">
        <ele>1401.3</ele>
        <time>2020-02-01T14:07:01.000Z</time>
      </trkpt>
      <trkpt lat="42.84854" lon="0.51226">
        <ele>1401</ele>
        <time>2020-02-01T14:07:02.000Z</time>
      </trkpt>
      <trkpt lat="42.84855" lon="0.51227">
        <ele>1400</ele>
        <time>2020-02-01T14:07:03.000Z</time>
      </trkpt>
      <trkpt lat="42.84856" lon="0.51228">
        <ele>1400</ele>
        <time>2020-02-01T14:07:04.000Z</time>
      </trkpt>
      <trkpt lat="42.84857" lon="0.51229">
        <ele>1400</ele>
        <time>2020-02-01T14:07:05.000Z</time>
      </trkpt>
      <trkpt lat="42.84857" lon="0.51231">
        <ele>1400</ele>
        <time>2020-02-01T14:07:06.000Z</time>
      </trkpt>
      <trkpt lat="42.84857" lon="0.51232">
        <ele>1399</ele>
        <time>2020-02-01T14:07:07.000Z</time>
      </trkpt>
      <trkpt lat="42.84857" lon="0.51234">
        <ele>1399</ele>
        <time>2020-02-01T14:07:08.000Z</time>
      </trkpt>
      <trkpt lat="42.84857" lon="0.51236">
        <ele>1399</ele>
        <time>2020-02-01T14:07:09.000Z</time>
      </trkpt>
      <trkpt lat="42.84857" lon="0.51238">
        <ele>1398.7</ele>
        <time>2020-02-01T14:07:10.000Z</time>
      </trkpt>
      <trkpt lat="42.84857" lon="0.51239">
        <ele>1398.3</ele>
        <time>2020-02-01T14:07:11.000Z</time>
      </trkpt>
      <trkpt lat="42.84857" lon="0.5124">
        <ele>1398</ele>
        <time>2020-02-01T14:07:12.000Z</time>
      </trkpt>
      <trkpt lat="42.84858" lon="0.51241">
        <ele>1398</ele>
        <time>2020-02-01T14:07:13.000Z</time>
      </trkpt>
      <trkpt lat="42.84858" lon="0.51241">
        <ele>1398</ele>
        <time>2020-02-01T14:07:14.000Z</time>
      </trkpt>
      <trkpt lat="42.84858" lon="0.51242">
        <ele>1398</ele>
        <time>2020-02-01T14:07:15.000Z</time>
      </trkpt>
      <trkpt lat="42.84859" lon="0.51242">
        <ele>1398</ele>
        <time>2020-02-01T14:07:16.000Z</time>
      </trkpt>
      <trkpt lat="42.84859" lon="0.51242">
        <ele>1397</ele>
        <time>2020-02-01T14:07:17.000Z</time>
      </trkpt>
      <trkpt lat="42.84859" lon="0.51243">
        <ele>1397</ele>
        <time>2020-02-01T14:07:18.000Z</time>
      </trkpt>
      <trkpt lat="42.8486" lon="0.51243">
        <ele>1397</ele>
        <time>2020-02-01T14:07:19.000Z</time>
      </trkpt>
      <trkpt lat="42.8486" lon="0.51243">
        <ele>1397</ele>
        <time>2020-02-01T14:07:20.000Z</time>
      </trkpt>
      <trkpt lat="42.84861" lon="0.51243">
        <ele>1397</ele>
        <time>2020-02-01T14:07:21.000Z</time>
      </trkpt>
      <trkpt lat="42.84863" lon="0.51244">
        <ele>1397</ele>
        <time>2020-02-01T14:07:22.000Z</time>
      </trkpt>
      <trkpt lat="42.84864" lon="0.51244">
        <ele>1397</ele>
        <time>2020-02-01T14:07:23.000Z</time>
      </trkpt>
      <trkpt lat="42.84865" lon="0.51244">
        <ele>1397</ele>
        <time>2020-02-01T14:07:24.000Z</time>
      </trkpt>
      <trkpt lat="42.84867" lon="0.51244">
        <ele>1397</ele>
        <time>2020-02-01T14:07:25.000Z</time>
      </trkpt>
      <trkpt lat="42.84868" lon="0.51245">
        <ele>1397</ele>
        <time>2020-02-01T14:07:26.000Z</time>
      </trkpt>
      <trkpt lat="42.84869" lon="0.51246">
        <ele>1396</ele>
        <time>2020-02-01T14:07:27.000Z</time>
      </trkpt>
      <trkpt lat="42.8487" lon="0.51247">
        <ele>1396</ele>
        <time>2020-02-01T14:07:28.000Z</time>
      </trkpt>
      <trkpt lat="42.84871" lon="0.51247">
        <ele>1396</ele>
        <time>2020-02-01T14:07:29.000Z</time>
      </trkpt>
      <trkpt lat="42.84873" lon="0.51248">
        <ele>1396</ele>
        <time>2020-02-01T14:07:30.000Z</time>
      </trkpt>
      <trkpt lat="42.84873" lon="0.51249">
        <ele>1396</ele>
        <time>2020-02-01T14:07:31.000Z</time>
      </trkpt>
      <trkpt lat="42.84874" lon="0.51251">
        <ele>1396</ele>
        <time>2020-02-01T14:07:32.000Z</time>
      </trkpt>
      <trkpt lat="42.84875" lon="0.51252">
        <ele>1395</ele>
        <time>2020-02-01T14:07:33.000Z</time>
      </trkpt>
      <trkpt lat="42.84876" lon="0.51253">
        <ele>1395</ele>
        <time>2020-02-01T14:07:34.000Z</time>
      </trkpt>
      <trkpt lat="42.84877" lon="0.51255">
        <ele>1395</ele>
        <time>2020-02-01T14:07:35.000Z</time>
      </trkpt>
      <trkpt lat="42.84878" lon="0.51256">
        <ele>1395</ele>
        <time>2020-02-01T14:07:36.000Z</time>
      </trkpt>
      <trkpt lat="42.84879" lon="0.51258">
        <ele>1394</ele>
        <time>2020-02-01T14:07:37.000Z</time>
      </trkpt>
      <trkpt lat="42.8488" lon="0.51259">
        <ele>1394</ele>
        <time>2020-02-01T14:07:38.000Z</time>
      </trkpt>
      <trkpt lat="42.84881" lon="0.51261">
        <ele>1394</ele>
        <time>2020-02-01T14:07:39.000Z</time>
      </trkpt>
      <trkpt lat="42.84882" lon="0.51262">
        <ele>1394</ele>
        <time>2020-02-01T14:07:40.000Z</time>
      </trkpt>
      <trkpt lat="42.84883" lon="0.51263">
        <ele>1393</ele>
        <time>2020-02-01T14:07:41.000Z</time>
      </trkpt>
      <trkpt lat="42.84884" lon="0.51265">
        <ele>1393</ele>
        <time>2020-02-01T14:07:42.000Z</time>
      </trkpt>
      <trkpt lat="42.84885" lon="0.51266">
        <ele>1393</ele>
        <time>2020-02-01T14:07:43.000Z</time>
      </trkpt>
      <trkpt lat="42.84885" lon="0.51267">
        <ele>1393</ele>
        <time>2020-02-01T14:07:44.000Z</time>
      </trkpt>
      <trkpt lat="42.84886" lon="0.51268">
        <ele>1392</ele>
        <time>2020-02-01T14:07:45.000Z</time>
      </trkpt>
      <trkpt lat="42.84887" lon="0.51269">
        <ele>1392</ele>
        <time>2020-02-01T14:07:46.000Z</time>
      </trkpt>
      <trkpt lat="42.84887" lon="0.5127">
        <ele>1391.7</ele>
        <time>2020-02-01T14:07:47.000Z</time>
      </trkpt>
      <trkpt lat="42.84887" lon="0.5127">
        <ele>1391.3</ele>
        <time>2020-02-01T14:07:48.000Z</time>
      </trkpt>
      <trkpt lat="42.84887" lon="0.51271">
        <ele>1391</ele>
        <time>2020-02-01T14:07:49.000Z</time>
      </trkpt>
      <trkpt lat="42.84888" lon="0.51273">
        <ele>1391</ele>
        <time>2020-02-01T14:07:50.000Z</time>
      </trkpt>
      <trkpt lat="42.84889" lon="0.51274">
        <ele>1391</ele>
        <time>2020-02-01T14:07:51.000Z</time>
      </trkpt>
      <trkpt lat="42.84891" lon="0.51275">
        <ele>1390</ele>
        <time>2020-02-01T14:07:52.000Z</time>
      </trkpt>
      <trkpt lat="42.84892" lon="0.51276">
        <ele>1390</ele>
        <time>2020-02-01T14:07:53.000Z</time>
      </trkpt>
      <trkpt lat="42.84893" lon="0.51277">
        <ele>1390</ele>
        <time>2020-02-01T14:07:54.000Z</time>
      </trkpt>
      <trkpt lat="42.84894" lon="0.51277">
        <ele>1390</ele>
        <time>2020-02-01T14:07:55.000Z</time>
      </trkpt>
      <trkpt lat="42.84896" lon="0.51278">
        <ele>1389</ele>
        <time>2020-02-01T14:07:56.000Z</time>
      </trkpt>
      <trkpt lat="42.84897" lon="0.51279">
        <ele>1389</ele>
        <time>2020-02-01T14:07:57.000Z</time>
      </trkpt>
      <trkpt lat="42.84899" lon="0.5128">
        <ele>1389</ele>
        <time>2020-02-01T14:07:58.000Z</time>
      </trkpt>
      <trkpt lat="42.849" lon="0.51281">
        <ele>1389</ele>
        <time>2020-02-01T14:07:59.000Z</time>
      </trkpt>
      <trkpt lat="42.84901" lon="0.51282">
        <ele>1389</ele>
        <time>2020-02-01T14:08:00.000Z</time>
      </trkpt>
      <trkpt lat="42.84902" lon="0.51283">
        <ele>1389</ele>
        <time>2020-02-01T14:08:01.000Z</time>
      </trkpt>
      <trkpt lat="42.84902" lon="0.51284">
        <ele>1388</ele>
        <time>2020-02-01T14:08:02.000Z</time>
      </trkpt>
      <trkpt lat="42.84903" lon="0.51285">
        <ele>1388</ele>
        <time>2020-02-01T14:08:03.000Z</time>
      </trkpt>
      <trkpt lat="42.84904" lon="0.51286">
        <ele>1388</ele>
        <time>2020-02-01T14:08:04.000Z</time>
      </trkpt>
      <trkpt lat="42.84904" lon="0.51287">
        <ele>1388</ele>
        <time>2020-02-01T14:08:05.000Z</time>
      </trkpt>
      <trkpt lat="42.84905" lon="0.51288">
        <ele>1388</ele>
        <time>2020-02-01T14:08:06.000Z</time>
      </trkpt>
      <trkpt lat="42.84905" lon="0.51289">
        <ele>1388</ele>
        <time>2020-02-01T14:08:07.000Z</time>
      </trkpt>
      <trkpt lat="42.84906" lon="0.5129">
        <ele>1387</ele>
        <time>2020-02-01T14:08:08.000Z</time>
      </trkpt>
      <trkpt lat="42.84906" lon="0.51291">
        <ele>1387</ele>
        <time>2020-02-01T14:08:09.000Z</time>
      </trkpt>
      <trkpt lat="42.84907" lon="0.51291">
        <ele>1387</ele>
        <time>2020-02-01T14:08:10.000Z</time>
      </trkpt>
      <trkpt lat="42.84908" lon="0.51292">
        <ele>1386.7</ele>
        <time>2020-02-01T14:08:11.000Z</time>
      </trkpt>
      <trkpt lat="42.84908" lon="0.51293">
        <ele>1386.3</ele>
        <time>2020-02-01T14:08:12.000Z</time>
      </trkpt>
      <trkpt lat="42.84909" lon="0.51294">
        <ele>1386</ele>
        <time>2020-02-01T14:08:13.000Z</time>
      </trkpt>
      <trkpt lat="42.8491" lon="0.51295">
        <ele>1386</ele>
        <time>2020-02-01T14:08:14.000Z</time>
      </trkpt>
      <trkpt lat="42.84911" lon="0.51295">
        <ele>1386</ele>
        <time>2020-02-01T14:08:15.000Z</time>
      </trkpt>
      <trkpt lat="42.84912" lon="0.51296">
        <ele>1386</ele>
        <time>2020-02-01T14:08:16.000Z</time>
      </trkpt>
      <trkpt lat="42.84913" lon="0.51297">
        <ele>1386</ele>
        <time>2020-02-01T14:08:17.000Z</time>
      </trkpt>
      <trkpt lat="42.84913" lon="0.51298">
        <ele>1385.5</ele>
        <time>2020-02-01T14:08:18.000Z</time>
      </trkpt>
      <trkpt lat="42.84914" lon="0.513">
        <ele>1385</ele>
        <time>2020-02-01T14:08:19.000Z</time>
      </trkpt>
      <trkpt lat="42.84915" lon="0.51301">
        <ele>1385</ele>
        <time>2020-02-01T14:08:20.000Z</time>
      </trkpt>
      <trkpt lat="42.84915" lon="0.51302">
        <ele>1384.5</ele>
        <time>2020-02-01T14:08:21.000Z</time>
      </trkpt>
      <trkpt lat="42.84916" lon="0.51304">
        <ele>1384</ele>
        <time>2020-02-01T14:08:22.000Z</time>
      </trkpt>
      <trkpt lat="42.84916" lon="0.51305">
        <ele>1384</ele>
        <time>2020-02-01T14:08:23.000Z</time>
      </trkpt>
      <trkpt lat="42.84916" lon="0.51307">
        <ele>1384</ele>
        <time>2020-02-01T14:08:24.000Z</time>
      </trkpt>
      <trkpt lat="42.84916" lon="0.51309">
        <ele>1384</ele>
        <time>2020-02-01T14:08:25.000Z</time>
      </trkpt>
      <trkpt lat="42.84916" lon="0.51311">
        <ele>1383.5</ele>
        <time>2020-02-01T14:08:26.000Z</time>
      </trkpt>
      <trkpt lat="42.84916" lon="0.51312">
        <ele>1383</ele>
        <time>2020-02-01T14:08:27.000Z</time>
      </trkpt>
      <trkpt lat="42.84916" lon="0.51314">
        <ele>1383</ele>
        <time>2020-02-01T14:08:28.000Z</time>
      </trkpt>
      <trkpt lat="42.84916" lon="0.51316">
        <ele>1382.7</ele>
        <time>2020-02-01T14:08:29.000Z</time>
      </trkpt>
      <trkpt lat="42.84916" lon="0.51318">
        <ele>1382.3</ele>
        <time>2020-02-01T14:08:30.000Z</time>
      </trkpt>
      <trkpt lat="42.84916" lon="0.5132">
        <ele>1382</ele>
        <time>2020-02-01T14:08:31.000Z</time>
      </trkpt>
      <trkpt lat="42.84916" lon="0.51321">
        <ele>1382</ele>
        <time>2020-02-01T14:08:32.000Z</time>
      </trkpt>
      <trkpt lat="42.84916" lon="0.51323">
        <ele>1381.5</ele>
        <time>2020-02-01T14:08:33.000Z</time>
      </trkpt>
      <trkpt lat="42.84916" lon="0.51325">
        <ele>1381</ele>
        <time>2020-02-01T14:08:34.000Z</time>
      </trkpt>
      <trkpt lat="42.84916" lon="0.51326">
        <ele>1381</ele>
        <time>2020-02-01T14:08:35.000Z</time>
      </trkpt>
      <trkpt lat="42.84916" lon="0.51327">
        <ele>1381</ele>
        <time>2020-02-01T14:08:36.000Z</time>
      </trkpt>
      <trkpt lat="42.84915" lon="0.51329">
        <ele>1381</ele>
        <time>2020-02-01T14:08:37.000Z</time>
      </trkpt>
      <trkpt lat="42.84915" lon="0.5133">
        <ele>1380</ele>
        <time>2020-02-01T14:08:38.000Z</time>
      </trkpt>
      <trkpt lat="42.84916" lon="0.51331">
        <ele>1379.7</ele>
        <time>2020-02-01T14:08:39.000Z</time>
      </trkpt>
      <trkpt lat="42.84917" lon="0.51332">
        <ele>1379.3</ele>
        <time>2020-02-01T14:08:40.000Z</time>
      </trkpt>
      <trkpt lat="42.84918" lon="0.51333">
        <ele>1379</ele>
        <time>2020-02-01T14:08:41.000Z</time>
      </trkpt>
      <trkpt lat="42.8492" lon="0.51334">
        <ele>1379</ele>
        <time>2020-02-01T14:08:42.000Z</time>
      </trkpt>
      <trkpt lat="42.84921" lon="0.51334">
        <ele>1378.7</ele>
        <time>2020-02-01T14:08:43.000Z</time>
      </trkpt>
      <trkpt lat="42.84922" lon="0.51334">
        <ele>1378.3</ele>
        <time>2020-02-01T14:08:44.000Z</time>
      </trkpt>
      <trkpt lat="42.84923" lon="0.51334">
        <ele>1378</ele>
        <time>2020-02-01T14:08:45.000Z</time>
      </trkpt>
      <trkpt lat="42.84924" lon="0.51335">
        <ele>1378</ele>
        <time>2020-02-01T14:08:46.000Z</time>
      </trkpt>
      <trkpt lat="42.84924" lon="0.51335">
        <ele>1377.5</ele>
        <time>2020-02-01T14:08:47.000Z</time>
      </trkpt>
      <trkpt lat="42.84925" lon="0.51336">
        <ele>1377</ele>
        <time>2020-02-01T14:08:48.000Z</time>
      </trkpt>
      <trkpt lat="42.84926" lon="0.51337">
        <ele>1377</ele>
        <time>2020-02-01T14:08:49.000Z</time>
      </trkpt>
      <trkpt lat="42.84926" lon="0.51338">
        <ele>1377</ele>
        <time>2020-02-01T14:08:50.000Z</time>
      </trkpt>
      <trkpt lat="42.84927" lon="0.51339">
        <ele>1377</ele>
        <time>2020-02-01T14:08:51.000Z</time>
      </trkpt>
      <trkpt lat="42.84928" lon="0.51339">
        <ele>1376.5</ele>
        <time>2020-02-01T14:08:52.000Z</time>
      </trkpt>
      <trkpt lat="42.84929" lon="0.5134">
        <ele>1376</ele>
        <time>2020-02-01T14:08:53.000Z</time>
      </trkpt>
      <trkpt lat="42.84929" lon="0.51341">
        <ele>1376</ele>
        <time>2020-02-01T14:08:54.000Z</time>
      </trkpt>
      <trkpt lat="42.8493" lon="0.51342">
        <ele>1375.7</ele>
        <time>2020-02-01T14:08:55.000Z</time>
      </trkpt>
      <trkpt lat="42.84931" lon="0.51343">
        <ele>1375.3</ele>
        <time>2020-02-01T14:08:56.000Z</time>
      </trkpt>
      <trkpt lat="42.84932" lon="0.51344">
        <ele>1375</ele>
        <time>2020-02-01T14:08:57.000Z</time>
      </trkpt>
      <trkpt lat="42.84933" lon="0.51345">
        <ele>1375</ele>
        <time>2020-02-01T14:08:58.000Z</time>
      </trkpt>
      <trkpt lat="42.84933" lon="0.51346">
        <ele>1374.7</ele>
        <time>2020-02-01T14:08:59.000Z</time>
      </trkpt>
      <trkpt lat="42.84934" lon="0.51347">
        <ele>1374.3</ele>
        <time>2020-02-01T14:09:00.000Z</time>
      </trkpt>
      <trkpt lat="42.84935" lon="0.51349">
        <ele>1374</ele>
        <time>2020-02-01T14:09:01.000Z</time>
      </trkpt>
      <trkpt lat="42.84936" lon="0.5135">
        <ele>1374</ele>
        <time>2020-02-01T14:09:02.000Z</time>
      </trkpt>
      <trkpt lat="42.84937" lon="0.51351">
        <ele>1374</ele>
        <time>2020-02-01T14:09:03.000Z</time>
      </trkpt>
      <trkpt lat="42.84938" lon="0.51352">
        <ele>1373.5</ele>
        <time>2020-02-01T14:09:04.000Z</time>
      </trkpt>
      <trkpt lat="42.84938" lon="0.51353">
        <ele>1373</ele>
        <time>2020-02-01T14:09:05.000Z</time>
      </trkpt>
      <trkpt lat="42.84939" lon="0.51354">
        <ele>1373</ele>
        <time>2020-02-01T14:09:06.000Z</time>
      </trkpt>
      <trkpt lat="42.8494" lon="0.51356">
        <ele>1373</ele>
        <time>2020-02-01T14:09:07.000Z</time>
      </trkpt>
      <trkpt lat="42.8494" lon="0.51357">
        <ele>1373</ele>
        <time>2020-02-01T14:09:08.000Z</time>
      </trkpt>
      <trkpt lat="42.84941" lon="0.51358">
        <ele>1373</ele>
        <time>2020-02-01T14:09:09.000Z</time>
      </trkpt>
      <trkpt lat="42.84942" lon="0.51359">
        <ele>1373</ele>
        <time>2020-02-01T14:09:10.000Z</time>
      </trkpt>
      <trkpt lat="42.84942" lon="0.5136">
        <ele>1373</ele>
        <time>2020-02-01T14:09:11.000Z</time>
      </trkpt>
      <trkpt lat="42.84943" lon="0.51362">
        <ele>1372</ele>
        <time>2020-02-01T14:09:12.000Z</time>
      </trkpt>
      <trkpt lat="42.84943" lon="0.51363">
        <ele>1372</ele>
        <time>2020-02-01T14:09:13.000Z</time>
      </trkpt>
      <trkpt lat="42.84944" lon="0.51364">
        <ele>1372</ele>
        <time>2020-02-01T14:09:14.000Z</time>
      </trkpt>
      <trkpt lat="42.84944" lon="0.51365">
        <ele>1372</ele>
        <time>2020-02-01T14:09:15.000Z</time>
      </trkpt>
      <trkpt lat="42.84945" lon="0.51366">
        <ele>1371</ele>
        <time>2020-02-01T14:09:16.000Z</time>
      </trkpt>
      <trkpt lat="42.84945" lon="0.51367">
        <ele>1370.5</ele>
        <time>2020-02-01T14:09:17.000Z</time>
      </trkpt>
      <trkpt lat="42.84946" lon="0.51368">
        <ele>1370</ele>
        <time>2020-02-01T14:09:18.000Z</time>
      </trkpt>
      <trkpt lat="42.84946" lon="0.51369">
        <ele>1370</ele>
        <time>2020-02-01T14:09:19.000Z</time>
      </trkpt>
      <trkpt lat="42.84946" lon="0.5137">
        <ele>1370</ele>
        <time>2020-02-01T14:09:20.000Z</time>
      </trkpt>
      <trkpt lat="42.84947" lon="0.51371">
        <ele>1370</ele>
        <time>2020-02-01T14:09:21.000Z</time>
      </trkpt>
      <trkpt lat="42.84947" lon="0.51372">
        <ele>1370</ele>
        <time>2020-02-01T14:09:22.000Z</time>
      </trkpt>
      <trkpt lat="42.84948" lon="0.51373">
        <ele>1370</ele>
        <time>2020-02-01T14:09:23.000Z</time>
      </trkpt>
      <trkpt lat="42.84948" lon="0.51374">
        <ele>1370</ele>
        <time>2020-02-01T14:09:24.000Z</time>
      </trkpt>
      <trkpt lat="42.84948" lon="0.51375">
        <ele>1369.7</ele>
        <time>2020-02-01T14:09:25.000Z</time>
      </trkpt>
      <trkpt lat="42.84949" lon="0.51376">
        <ele>1369.3</ele>
        <time>2020-02-01T14:09:26.000Z</time>
      </trkpt>
      <trkpt lat="42.84949" lon="0.51378">
        <ele>1369</ele>
        <time>2020-02-01T14:09:27.000Z</time>
      </trkpt>
      <trkpt lat="42.84949" lon="0.51379">
        <ele>1369</ele>
        <time>2020-02-01T14:09:28.000Z</time>
      </trkpt>
      <trkpt lat="42.8495" lon="0.5138">
        <ele>1369</ele>
        <time>2020-02-01T14:09:29.000Z</time>
      </trkpt>
      <trkpt lat="42.8495" lon="0.51381">
        <ele>1368</ele>
        <time>2020-02-01T14:09:30.000Z</time>
      </trkpt>
      <trkpt lat="42.84951" lon="0.51383">
        <ele>1367.7</ele>
        <time>2020-02-01T14:09:31.000Z</time>
      </trkpt>
      <trkpt lat="42.84951" lon="0.51384">
        <ele>1367.3</ele>
        <time>2020-02-01T14:09:32.000Z</time>
      </trkpt>
      <trkpt lat="42.84952" lon="0.51385">
        <ele>1367</ele>
        <time>2020-02-01T14:09:33.000Z</time>
      </trkpt>
      <trkpt lat="42.84953" lon="0.51386">
        <ele>1367</ele>
        <time>2020-02-01T14:09:34.000Z</time>
      </trkpt>
      <trkpt lat="42.84954" lon="0.51387">
        <ele>1366.5</ele>
        <time>2020-02-01T14:09:35.000Z</time>
      </trkpt>
      <trkpt lat="42.84955" lon="0.51387">
        <ele>1366</ele>
        <time>2020-02-01T14:09:36.000Z</time>
      </trkpt>
      <trkpt lat="42.84956" lon="0.51388">
        <ele>1366</ele>
        <time>2020-02-01T14:09:37.000Z</time>
      </trkpt>
      <trkpt lat="42.84957" lon="0.51389">
        <ele>1366</ele>
        <time>2020-02-01T14:09:38.000Z</time>
      </trkpt>
      <trkpt lat="42.84958" lon="0.5139">
        <ele>1366</ele>
        <time>2020-02-01T14:09:39.000Z</time>
      </trkpt>
      <trkpt lat="42.84958" lon="0.51392">
        <ele>1365</ele>
        <time>2020-02-01T14:09:40.000Z</time>
      </trkpt>
      <trkpt lat="42.84959" lon="0.51393">
        <ele>1365</ele>
        <time>2020-02-01T14:09:41.000Z</time>
      </trkpt>
      <trkpt lat="42.84959" lon="0.51394">
        <ele>1365</ele>
        <time>2020-02-01T14:09:42.000Z</time>
      </trkpt>
      <trkpt lat="42.8496" lon="0.51395">
        <ele>1364.7</ele>
        <time>2020-02-01T14:09:43.000Z</time>
      </trkpt>
      <trkpt lat="42.8496" lon="0.51397">
        <ele>1364.3</ele>
        <time>2020-02-01T14:09:44.000Z</time>
      </trkpt>
      <trkpt lat="42.84961" lon="0.51398">
        <ele>1364</ele>
        <time>2020-02-01T14:09:45.000Z</time>
      </trkpt>
      <trkpt lat="42.84961" lon="0.514">
        <ele>1364</ele>
        <time>2020-02-01T14:09:46.000Z</time>
      </trkpt>
      <trkpt lat="42.84961" lon="0.51401">
        <ele>1364</ele>
        <time>2020-02-01T14:09:47.000Z</time>
      </trkpt>
      <trkpt lat="42.84962" lon="0.51402">
        <ele>1364</ele>
        <time>2020-02-01T14:09:48.000Z</time>
      </trkpt>
      <trkpt lat="42.84962" lon="0.51404">
        <ele>1363.7</ele>
        <time>2020-02-01T14:09:49.000Z</time>
      </trkpt>
      <trkpt lat="42.84963" lon="0.51405">
        <ele>1363.3</ele>
        <time>2020-02-01T14:09:50.000Z</time>
      </trkpt>
      <trkpt lat="42.84963" lon="0.51406">
        <ele>1363</ele>
        <time>2020-02-01T14:09:51.000Z</time>
      </trkpt>
      <trkpt lat="42.84964" lon="0.51408">
        <ele>1363</ele>
        <time>2020-02-01T14:09:52.000Z</time>
      </trkpt>
      <trkpt lat="42.84964" lon="0.51409">
        <ele>1362.5</ele>
        <time>2020-02-01T14:09:53.000Z</time>
      </trkpt>
      <trkpt lat="42.84964" lon="0.51411">
        <ele>1362</ele>
        <time>2020-02-01T14:09:54.000Z</time>
      </trkpt>
      <trkpt lat="42.84965" lon="0.51412">
        <ele>1362</ele>
        <time>2020-02-01T14:09:55.000Z</time>
      </trkpt>
      <trkpt lat="42.84965" lon="0.51414">
        <ele>1362</ele>
        <time>2020-02-01T14:09:56.000Z</time>
      </trkpt>
      <trkpt lat="42.84966" lon="0.51416">
        <ele>1362</ele>
        <time>2020-02-01T14:09:57.000Z</time>
      </trkpt>
      <trkpt lat="42.84966" lon="0.51418">
        <ele>1361</ele>
        <time>2020-02-01T14:09:58.000Z</time>
      </trkpt>
      <trkpt lat="42.84967" lon="0.5142">
        <ele>1361</ele>
        <time>2020-02-01T14:09:59.000Z</time>
      </trkpt>
      <trkpt lat="42.84967" lon="0.51422">
        <ele>1361</ele>
        <time>2020-02-01T14:10:00.000Z</time>
      </trkpt>
      <trkpt lat="42.84967" lon="0.51424">
        <ele>1361</ele>
        <time>2020-02-01T14:10:01.000Z</time>
      </trkpt>
      <trkpt lat="42.84967" lon="0.51426">
        <ele>1361</ele>
        <time>2020-02-01T14:10:02.000Z</time>
      </trkpt>
      <trkpt lat="42.84968" lon="0.51428">
        <ele>1361</ele>
        <time>2020-02-01T14:10:03.000Z</time>
      </trkpt>
      <trkpt lat="42.84968" lon="0.5143">
        <ele>1360.5</ele>
        <time>2020-02-01T14:10:04.000Z</time>
      </trkpt>
      <trkpt lat="42.84968" lon="0.51431">
        <ele>1360</ele>
        <time>2020-02-01T14:10:05.000Z</time>
      </trkpt>
      <trkpt lat="42.84968" lon="0.51433">
        <ele>1360</ele>
        <time>2020-02-01T14:10:06.000Z</time>
      </trkpt>
      <trkpt lat="42.84968" lon="0.51435">
        <ele>1359.7</ele>
        <time>2020-02-01T14:10:07.000Z</time>
      </trkpt>
      <trkpt lat="42.84968" lon="0.51436">
        <ele>1359.3</ele>
        <time>2020-02-01T14:10:08.000Z</time>
      </trkpt>
      <trkpt lat="42.84969" lon="0.51437">
        <ele>1359</ele>
        <time>2020-02-01T14:10:09.000Z</time>
      </trkpt>
      <trkpt lat="42.84969" lon="0.51439">
        <ele>1358</ele>
        <time>2020-02-01T14:10:10.000Z</time>
      </trkpt>
      <trkpt lat="42.8497" lon="0.5144">
        <ele>1358</ele>
        <time>2020-02-01T14:10:11.000Z</time>
      </trkpt>
      <trkpt lat="42.8497" lon="0.51441">
        <ele>1358</ele>
        <time>2020-02-01T14:10:12.000Z</time>
      </trkpt>
      <trkpt lat="42.84971" lon="0.51443">
        <ele>1358</ele>
        <time>2020-02-01T14:10:13.000Z</time>
      </trkpt>
      <trkpt lat="42.8497" lon="0.51444">
        <ele>1357</ele>
        <time>2020-02-01T14:10:14.000Z</time>
      </trkpt>
      <trkpt lat="42.84969" lon="0.51445">
        <ele>1357</ele>
        <time>2020-02-01T14:10:15.000Z</time>
      </trkpt>
      <trkpt lat="42.84968" lon="0.51447">
        <ele>1357</ele>
        <time>2020-02-01T14:10:16.000Z</time>
      </trkpt>
      <trkpt lat="42.84967" lon="0.51448">
        <ele>1357</ele>
        <time>2020-02-01T14:10:17.000Z</time>
      </trkpt>
      <trkpt lat="42.84967" lon="0.51449">
        <ele>1357</ele>
        <time>2020-02-01T14:10:18.000Z</time>
      </trkpt>
      <trkpt lat="42.84967" lon="0.51451">
        <ele>1356.7</ele>
        <time>2020-02-01T14:10:19.000Z</time>
      </trkpt>
      <trkpt lat="42.84967" lon="0.51452">
        <ele>1356.3</ele>
        <time>2020-02-01T14:10:20.000Z</time>
      </trkpt>
      <trkpt lat="42.84967" lon="0.51454">
        <ele>1356</ele>
        <time>2020-02-01T14:10:21.000Z</time>
      </trkpt>
      <trkpt lat="42.84967" lon="0.51455">
        <ele>1356</ele>
        <time>2020-02-01T14:10:22.000Z</time>
      </trkpt>
      <trkpt lat="42.84967" lon="0.51457">
        <ele>1355.7</ele>
        <time>2020-02-01T14:10:23.000Z</time>
      </trkpt>
      <trkpt lat="42.84967" lon="0.51458">
        <ele>1355.3</ele>
        <time>2020-02-01T14:10:24.000Z</time>
      </trkpt>
      <trkpt lat="42.84967" lon="0.5146">
        <ele>1355</ele>
        <time>2020-02-01T14:10:25.000Z</time>
      </trkpt>
      <trkpt lat="42.84967" lon="0.51461">
        <ele>1355</ele>
        <time>2020-02-01T14:10:26.000Z</time>
      </trkpt>
      <trkpt lat="42.84968" lon="0.51463">
        <ele>1355</ele>
        <time>2020-02-01T14:10:27.000Z</time>
      </trkpt>
      <trkpt lat="42.84968" lon="0.51464">
        <ele>1355</ele>
        <time>2020-02-01T14:10:28.000Z</time>
      </trkpt>
      <trkpt lat="42.84968" lon="0.51466">
        <ele>1355</ele>
        <time>2020-02-01T14:10:29.000Z</time>
      </trkpt>
      <trkpt lat="42.84968" lon="0.51467">
        <ele>1354</ele>
        <time>2020-02-01T14:10:30.000Z</time>
      </trkpt>
      <trkpt lat="42.84968" lon="0.51469">
        <ele>1354</ele>
        <time>2020-02-01T14:10:31.000Z</time>
      </trkpt>
      <trkpt lat="42.84968" lon="0.5147">
        <ele>1354</ele>
        <time>2020-02-01T14:10:32.000Z</time>
      </trkpt>
      <trkpt lat="42.84968" lon="0.51472">
        <ele>1354</ele>
        <time>2020-02-01T14:10:33.000Z</time>
      </trkpt>
      <trkpt lat="42.84968" lon="0.51473">
        <ele>1353.5</ele>
        <time>2020-02-01T14:10:34.000Z</time>
      </trkpt>
      <trkpt lat="42.84967" lon="0.51475">
        <ele>1353</ele>
        <time>2020-02-01T14:10:35.000Z</time>
      </trkpt>
      <trkpt lat="42.84967" lon="0.51476">
        <ele>1353</ele>
        <time>2020-02-01T14:10:36.000Z</time>
      </trkpt>
      <trkpt lat="42.84967" lon="0.51478">
        <ele>1352.7</ele>
        <time>2020-02-01T14:10:37.000Z</time>
      </trkpt>
      <trkpt lat="42.84967" lon="0.51479">
        <ele>1352.3</ele>
        <time>2020-02-01T14:10:38.000Z</time>
      </trkpt>
      <trkpt lat="42.84967" lon="0.5148">
        <ele>1352</ele>
        <time>2020-02-01T14:10:39.000Z</time>
      </trkpt>
      <trkpt lat="42.84967" lon="0.51482">
        <ele>1352</ele>
        <time>2020-02-01T14:10:40.000Z</time>
      </trkpt>
      <trkpt lat="42.84967" lon="0.51483">
        <ele>1352</ele>
        <time>2020-02-01T14:10:41.000Z</time>
      </trkpt>
      <trkpt lat="42.84967" lon="0.51485">
        <ele>1351</ele>
        <time>2020-02-01T14:10:42.000Z</time>
      </trkpt>
      <trkpt lat="42.84967" lon="0.51486">
        <ele>1351</ele>
        <time>2020-02-01T14:10:43.000Z</time>
      </trkpt>
      <trkpt lat="42.84967" lon="0.51488">
        <ele>1351</ele>
        <time>2020-02-01T14:10:44.000Z</time>
      </trkpt>
      <trkpt lat="42.84967" lon="0.51489">
        <ele>1351</ele>
        <time>2020-02-01T14:10:45.000Z</time>
      </trkpt>
      <trkpt lat="42.84968" lon="0.5149">
        <ele>1350</ele>
        <time>2020-02-01T14:10:46.000Z</time>
      </trkpt>
      <trkpt lat="42.84968" lon="0.51492">
        <ele>1349.5</ele>
        <time>2020-02-01T14:10:47.000Z</time>
      </trkpt>
      <trkpt lat="42.84968" lon="0.51493">
        <ele>1349</ele>
        <time>2020-02-01T14:10:48.000Z</time>
      </trkpt>
      <trkpt lat="42.84968" lon="0.51494">
        <ele>1349</ele>
        <time>2020-02-01T14:10:49.000Z</time>
      </trkpt>
      <trkpt lat="42.84968" lon="0.51495">
        <ele>1349</ele>
        <time>2020-02-01T14:10:50.000Z</time>
      </trkpt>
      <trkpt lat="42.84968" lon="0.51497">
        <ele>1349</ele>
        <time>2020-02-01T14:10:51.000Z</time>
      </trkpt>
      <trkpt lat="42.84969" lon="0.51498">
        <ele>1349</ele>
        <time>2020-02-01T14:10:52.000Z</time>
      </trkpt>
      <trkpt lat="42.8497" lon="0.515">
        <ele>1348.7</ele>
        <time>2020-02-01T14:10:53.000Z</time>
      </trkpt>
      <trkpt lat="42.84971" lon="0.51502">
        <ele>1348.3</ele>
        <time>2020-02-01T14:10:54.000Z</time>
      </trkpt>
      <trkpt lat="42.84971" lon="0.51503">
        <ele>1348</ele>
        <time>2020-02-01T14:10:55.000Z</time>
      </trkpt>
      <trkpt lat="42.84972" lon="0.51505">
        <ele>1348</ele>
        <time>2020-02-01T14:10:56.000Z</time>
      </trkpt>
      <trkpt lat="42.84972" lon="0.51506">
        <ele>1347.7</ele>
        <time>2020-02-01T14:10:57.000Z</time>
      </trkpt>
      <trkpt lat="42.84972" lon="0.51508">
        <ele>1347.3</ele>
        <time>2020-02-01T14:10:58.000Z</time>
      </trkpt>
      <trkpt lat="42.84972" lon="0.51509">
        <ele>1347</ele>
        <time>2020-02-01T14:10:59.000Z</time>
      </trkpt>
      <trkpt lat="42.84972" lon="0.51511">
        <ele>1347</ele>
        <time>2020-02-01T14:11:00.000Z</time>
      </trkpt>
      <trkpt lat="42.84972" lon="0.51512">
        <ele>1346.7</ele>
        <time>2020-02-01T14:11:01.000Z</time>
      </trkpt>
      <trkpt lat="42.84972" lon="0.51513">
        <ele>1346.3</ele>
        <time>2020-02-01T14:11:02.000Z</time>
      </trkpt>
      <trkpt lat="42.84972" lon="0.51515">
        <ele>1346</ele>
        <time>2020-02-01T14:11:03.000Z</time>
      </trkpt>
      <trkpt lat="42.84971" lon="0.51516">
        <ele>1346</ele>
        <time>2020-02-01T14:11:04.000Z</time>
      </trkpt>
      <trkpt lat="42.84971" lon="0.51518">
        <ele>1346</ele>
        <time>2020-02-01T14:11:05.000Z</time>
      </trkpt>
      <trkpt lat="42.84971" lon="0.5152">
        <ele>1346</ele>
        <time>2020-02-01T14:11:06.000Z</time>
      </trkpt>
      <trkpt lat="42.8497" lon="0.51521">
        <ele>1346</ele>
        <time>2020-02-01T14:11:07.000Z</time>
      </trkpt>
      <trkpt lat="42.8497" lon="0.51523">
        <ele>1345</ele>
        <time>2020-02-01T14:11:08.000Z</time>
      </trkpt>
      <trkpt lat="42.84969" lon="0.51525">
        <ele>1345</ele>
        <time>2020-02-01T14:11:09.000Z</time>
      </trkpt>
      <trkpt lat="42.84968" lon="0.51527">
        <ele>1345</ele>
        <time>2020-02-01T14:11:10.000Z</time>
      </trkpt>
      <trkpt lat="42.84968" lon="0.51529">
        <ele>1345</ele>
        <time>2020-02-01T14:11:11.000Z</time>
      </trkpt>
      <trkpt lat="42.84967" lon="0.5153">
        <ele>1345</ele>
        <time>2020-02-01T14:11:12.000Z</time>
      </trkpt>
      <trkpt lat="42.84967" lon="0.51531">
        <ele>1344.5</ele>
        <time>2020-02-01T14:11:13.000Z</time>
      </trkpt>
      <trkpt lat="42.84966" lon="0.51533">
        <ele>1344</ele>
        <time>2020-02-01T14:11:14.000Z</time>
      </trkpt>
      <trkpt lat="42.84966" lon="0.51534">
        <ele>1344</ele>
        <time>2020-02-01T14:11:15.000Z</time>
      </trkpt>
      <trkpt lat="42.84966" lon="0.51535">
        <ele>1344</ele>
        <time>2020-02-01T14:11:16.000Z</time>
      </trkpt>
      <trkpt lat="42.84966" lon="0.51537">
        <ele>1344</ele>
        <time>2020-02-01T14:11:17.000Z</time>
      </trkpt>
      <trkpt lat="42.84966" lon="0.51539">
        <ele>1344</ele>
        <time>2020-02-01T14:11:18.000Z</time>
      </trkpt>
      <trkpt lat="42.84966" lon="0.51541">
        <ele>1343.5</ele>
        <time>2020-02-01T14:11:19.000Z</time>
      </trkpt>
      <trkpt lat="42.84966" lon="0.51543">
        <ele>1343</ele>
        <time>2020-02-01T14:11:20.000Z</time>
      </trkpt>
      <trkpt lat="42.84966" lon="0.51545">
        <ele>1343</ele>
        <time>2020-02-01T14:11:21.000Z</time>
      </trkpt>
      <trkpt lat="42.84965" lon="0.51547">
        <ele>1343</ele>
        <time>2020-02-01T14:11:22.000Z</time>
      </trkpt>
      <trkpt lat="42.84965" lon="0.51549">
        <ele>1343</ele>
        <time>2020-02-01T14:11:23.000Z</time>
      </trkpt>
      <trkpt lat="42.84965" lon="0.5155">
        <ele>1343</ele>
        <time>2020-02-01T14:11:24.000Z</time>
      </trkpt>
      <trkpt lat="42.84965" lon="0.51551">
        <ele>1342.7</ele>
        <time>2020-02-01T14:11:25.000Z</time>
      </trkpt>
      <trkpt lat="42.84965" lon="0.51553">
        <ele>1342.3</ele>
        <time>2020-02-01T14:11:26.000Z</time>
      </trkpt>
      <trkpt lat="42.84964" lon="0.51554">
        <ele>1342</ele>
        <time>2020-02-01T14:11:27.000Z</time>
      </trkpt>
      <trkpt lat="42.84964" lon="0.51555">
        <ele>1342</ele>
        <time>2020-02-01T14:11:28.000Z</time>
      </trkpt>
      <trkpt lat="42.84964" lon="0.51556">
        <ele>1342</ele>
        <time>2020-02-01T14:11:29.000Z</time>
      </trkpt>
      <trkpt lat="42.84963" lon="0.51557">
        <ele>1342</ele>
        <time>2020-02-01T14:11:30.000Z</time>
      </trkpt>
      <trkpt lat="42.84963" lon="0.51558">
        <ele>1342</ele>
        <time>2020-02-01T14:11:31.000Z</time>
      </trkpt>
      <trkpt lat="42.84963" lon="0.51559">
        <ele>1341</ele>
        <time>2020-02-01T14:11:32.000Z</time>
      </trkpt>
      <trkpt lat="42.84962" lon="0.51561">
        <ele>1341</ele>
        <time>2020-02-01T14:11:33.000Z</time>
      </trkpt>
      <trkpt lat="42.84962" lon="0.51562">
        <ele>1341</ele>
        <time>2020-02-01T14:11:34.000Z</time>
      </trkpt>
      <trkpt lat="42.84962" lon="0.51564">
        <ele>1341</ele>
        <time>2020-02-01T14:11:35.000Z</time>
      </trkpt>
      <trkpt lat="42.84961" lon="0.51565">
        <ele>1341</ele>
        <time>2020-02-01T14:11:36.000Z</time>
      </trkpt>
      <trkpt lat="42.84961" lon="0.51567">
        <ele>1341</ele>
        <time>2020-02-01T14:11:37.000Z</time>
      </trkpt>
      <trkpt lat="42.8496" lon="0.51568">
        <ele>1340</ele>
        <time>2020-02-01T14:11:38.000Z</time>
      </trkpt>
      <trkpt lat="42.8496" lon="0.5157">
        <ele>1340</ele>
        <time>2020-02-01T14:11:39.000Z</time>
      </trkpt>
      <trkpt lat="42.8496" lon="0.51572">
        <ele>1340</ele>
        <time>2020-02-01T14:11:40.000Z</time>
      </trkpt>
      <trkpt lat="42.84959" lon="0.51574">
        <ele>1340</ele>
        <time>2020-02-01T14:11:41.000Z</time>
      </trkpt>
      <trkpt lat="42.84959" lon="0.51576">
        <ele>1339.5</ele>
        <time>2020-02-01T14:11:42.000Z</time>
      </trkpt>
      <trkpt lat="42.84958" lon="0.51578">
        <ele>1339</ele>
        <time>2020-02-01T14:11:43.000Z</time>
      </trkpt>
      <trkpt lat="42.84958" lon="0.5158">
        <ele>1339</ele>
        <time>2020-02-01T14:11:44.000Z</time>
      </trkpt>
      <trkpt lat="42.84958" lon="0.51581">
        <ele>1338.7</ele>
        <time>2020-02-01T14:11:45.000Z</time>
      </trkpt>
      <trkpt lat="42.84959" lon="0.51583">
        <ele>1338.3</ele>
        <time>2020-02-01T14:11:46.000Z</time>
      </trkpt>
      <trkpt lat="42.8496" lon="0.51584">
        <ele>1338</ele>
        <time>2020-02-01T14:11:47.000Z</time>
      </trkpt>
      <trkpt lat="42.8496" lon="0.51585">
        <ele>1338</ele>
        <time>2020-02-01T14:11:48.000Z</time>
      </trkpt>
      <trkpt lat="42.84961" lon="0.51587">
        <ele>1337</ele>
        <time>2020-02-01T14:11:49.000Z</time>
      </trkpt>
      <trkpt lat="42.84962" lon="0.51588">
        <ele>1337</ele>
        <time>2020-02-01T14:11:50.000Z</time>
      </trkpt>
      <trkpt lat="42.84963" lon="0.51591">
        <ele>1337</ele>
        <time>2020-02-01T14:11:51.000Z</time>
      </trkpt>
      <trkpt lat="42.84964" lon="0.51593">
        <ele>1337</ele>
        <time>2020-02-01T14:11:52.000Z</time>
      </trkpt>
      <trkpt lat="42.84965" lon="0.51594">
        <ele>1337</ele>
        <time>2020-02-01T14:11:53.000Z</time>
      </trkpt>
      <trkpt lat="42.84965" lon="0.51595">
        <ele>1337</ele>
        <time>2020-02-01T14:11:54.000Z</time>
      </trkpt>
      <trkpt lat="42.84965" lon="0.51596">
        <ele>1337</ele>
        <time>2020-02-01T14:11:55.000Z</time>
      </trkpt>
      <trkpt lat="42.84965" lon="0.51596">
        <ele>1337</ele>
        <time>2020-02-01T14:11:56.000Z</time>
      </trkpt>
      <trkpt lat="42.84965" lon="0.51597">
        <ele>1337</ele>
        <time>2020-02-01T14:11:57.000Z</time>
      </trkpt>
      <trkpt lat="42.84965" lon="0.51598">
        <ele>1337</ele>
        <time>2020-02-01T14:11:58.000Z</time>
      </trkpt>
      <trkpt lat="42.84965" lon="0.51599">
        <ele>1336.7</ele>
        <time>2020-02-01T14:11:59.000Z</time>
      </trkpt>
      <trkpt lat="42.84965" lon="0.51601">
        <ele>1336.3</ele>
        <time>2020-02-01T14:12:00.000Z</time>
      </trkpt>
      <trkpt lat="42.84965" lon="0.51602">
        <ele>1336</ele>
        <time>2020-02-01T14:12:01.000Z</time>
      </trkpt>
      <trkpt lat="42.84965" lon="0.51603">
        <ele>1335.5</ele>
        <time>2020-02-01T14:12:02.000Z</time>
      </trkpt>
      <trkpt lat="42.84966" lon="0.51605">
        <ele>1335</ele>
        <time>2020-02-01T14:12:03.000Z</time>
      </trkpt>
      <trkpt lat="42.84966" lon="0.51606">
        <ele>1335</ele>
        <time>2020-02-01T14:12:04.000Z</time>
      </trkpt>
      <trkpt lat="42.84966" lon="0.51608">
        <ele>1335</ele>
        <time>2020-02-01T14:12:05.000Z</time>
      </trkpt>
      <trkpt lat="42.84966" lon="0.51609">
        <ele>1334</ele>
        <time>2020-02-01T14:12:06.000Z</time>
      </trkpt>
      <trkpt lat="42.84966" lon="0.5161">
        <ele>1334</ele>
        <time>2020-02-01T14:12:07.000Z</time>
      </trkpt>
      <trkpt lat="42.84967" lon="0.51612">
        <ele>1334</ele>
        <time>2020-02-01T14:12:08.000Z</time>
      </trkpt>
      <trkpt lat="42.84967" lon="0.51613">
        <ele>1333.7</ele>
        <time>2020-02-01T14:12:09.000Z</time>
      </trkpt>
      <trkpt lat="42.84966" lon="0.51615">
        <ele>1333.3</ele>
        <time>2020-02-01T14:12:10.000Z</time>
      </trkpt>
      <trkpt lat="42.84966" lon="0.51616">
        <ele>1333</ele>
        <time>2020-02-01T14:12:11.000Z</time>
      </trkpt>
      <trkpt lat="42.84966" lon="0.51617">
        <ele>1333</ele>
        <time>2020-02-01T14:12:12.000Z</time>
      </trkpt>
      <trkpt lat="42.84966" lon="0.51618">
        <ele>1333</ele>
        <time>2020-02-01T14:12:13.000Z</time>
      </trkpt>
      <trkpt lat="42.84966" lon="0.51619">
        <ele>1332.5</ele>
        <time>2020-02-01T14:12:14.000Z</time>
      </trkpt>
      <trkpt lat="42.84966" lon="0.5162">
        <ele>1332</ele>
        <time>2020-02-01T14:12:15.000Z</time>
      </trkpt>
      <trkpt lat="42.84965" lon="0.51621">
        <ele>1332</ele>
        <time>2020-02-01T14:12:16.000Z</time>
      </trkpt>
      <trkpt lat="42.84965" lon="0.51623">
        <ele>1331.5</ele>
        <time>2020-02-01T14:12:17.000Z</time>
      </trkpt>
      <trkpt lat="42.84964" lon="0.51625">
        <ele>1331</ele>
        <time>2020-02-01T14:12:18.000Z</time>
      </trkpt>
      <trkpt lat="42.84963" lon="0.51626">
        <ele>1331</ele>
        <time>2020-02-01T14:12:19.000Z</time>
      </trkpt>
      <trkpt lat="42.84963" lon="0.51627">
        <ele>1331</ele>
        <time>2020-02-01T14:12:20.000Z</time>
      </trkpt>
      <trkpt lat="42.84963" lon="0.51628">
        <ele>1331</ele>
        <time>2020-02-01T14:12:21.000Z</time>
      </trkpt>
      <trkpt lat="42.84962" lon="0.51629">
        <ele>1330</ele>
        <time>2020-02-01T14:12:22.000Z</time>
      </trkpt>
      <trkpt lat="42.84962" lon="0.51629">
        <ele>1330</ele>
        <time>2020-02-01T14:12:23.000Z</time>
      </trkpt>
      <trkpt lat="42.84962" lon="0.5163">
        <ele>1330</ele>
        <time>2020-02-01T14:12:24.000Z</time>
      </trkpt>
      <trkpt lat="42.84962" lon="0.51631">
        <ele>1330</ele>
        <time>2020-02-01T14:12:25.000Z</time>
      </trkpt>
      <trkpt lat="42.84962" lon="0.51632">
        <ele>1329.5</ele>
        <time>2020-02-01T14:12:26.000Z</time>
      </trkpt>
      <trkpt lat="42.84961" lon="0.51633">
        <ele>1329</ele>
        <time>2020-02-01T14:12:27.000Z</time>
      </trkpt>
      <trkpt lat="42.84961" lon="0.51635">
        <ele>1329</ele>
        <time>2020-02-01T14:12:28.000Z</time>
      </trkpt>
      <trkpt lat="42.84961" lon="0.51636">
        <ele>1328.5</ele>
        <time>2020-02-01T14:12:29.000Z</time>
      </trkpt>
      <trkpt lat="42.84961" lon="0.51637">
        <ele>1328</ele>
        <time>2020-02-01T14:12:30.000Z</time>
      </trkpt>
      <trkpt lat="42.8496" lon="0.51638">
        <ele>1328</ele>
        <time>2020-02-01T14:12:31.000Z</time>
      </trkpt>
      <trkpt lat="42.8496" lon="0.51639">
        <ele>1328</ele>
        <time>2020-02-01T14:12:32.000Z</time>
      </trkpt>
      <trkpt lat="42.8496" lon="0.51641">
        <ele>1328</ele>
        <time>2020-02-01T14:12:33.000Z</time>
      </trkpt>
      <trkpt lat="42.8496" lon="0.51642">
        <ele>1327</ele>
        <time>2020-02-01T14:12:34.000Z</time>
      </trkpt>
      <trkpt lat="42.84959" lon="0.51643">
        <ele>1327</ele>
        <time>2020-02-01T14:12:35.000Z</time>
      </trkpt>
      <trkpt lat="42.84959" lon="0.51645">
        <ele>1327</ele>
        <time>2020-02-01T14:12:36.000Z</time>
      </trkpt>
      <trkpt lat="42.84959" lon="0.51646">
        <ele>1327</ele>
        <time>2020-02-01T14:12:37.000Z</time>
      </trkpt>
      <trkpt lat="42.84959" lon="0.51647">
        <ele>1326.5</ele>
        <time>2020-02-01T14:12:38.000Z</time>
      </trkpt>
      <trkpt lat="42.84959" lon="0.51649">
        <ele>1326</ele>
        <time>2020-02-01T14:12:39.000Z</time>
      </trkpt>
      <trkpt lat="42.84958" lon="0.5165">
        <ele>1326</ele>
        <time>2020-02-01T14:12:40.000Z</time>
      </trkpt>
      <trkpt lat="42.84958" lon="0.51652">
        <ele>1325.7</ele>
        <time>2020-02-01T14:12:41.000Z</time>
      </trkpt>
      <trkpt lat="42.84958" lon="0.51653">
        <ele>1325.3</ele>
        <time>2020-02-01T14:12:42.000Z</time>
      </trkpt>
      <trkpt lat="42.84958" lon="0.51655">
        <ele>1325</ele>
        <time>2020-02-01T14:12:43.000Z</time>
      </trkpt>
      <trkpt lat="42.84958" lon="0.51657">
        <ele>1325</ele>
        <time>2020-02-01T14:12:44.000Z</time>
      </trkpt>
      <trkpt lat="42.84958" lon="0.51658">
        <ele>1325</ele>
        <time>2020-02-01T14:12:45.000Z</time>
      </trkpt>
      <trkpt lat="42.84958" lon="0.5166">
        <ele>1325</ele>
        <time>2020-02-01T14:12:46.000Z</time>
      </trkpt>
      <trkpt lat="42.84958" lon="0.51661">
        <ele>1324.5</ele>
        <time>2020-02-01T14:12:47.000Z</time>
      </trkpt>
      <trkpt lat="42.84958" lon="0.51663">
        <ele>1324</ele>
        <time>2020-02-01T14:12:48.000Z</time>
      </trkpt>
      <trkpt lat="42.84958" lon="0.51664">
        <ele>1324</ele>
        <time>2020-02-01T14:12:49.000Z</time>
      </trkpt>
      <trkpt lat="42.84958" lon="0.51666">
        <ele>1324</ele>
        <time>2020-02-01T14:12:50.000Z</time>
      </trkpt>
      <trkpt lat="42.84958" lon="0.51667">
        <ele>1324</ele>
        <time>2020-02-01T14:12:51.000Z</time>
      </trkpt>
      <trkpt lat="42.84958" lon="0.51669">
        <ele>1323</ele>
        <time>2020-02-01T14:12:52.000Z</time>
      </trkpt>
      <trkpt lat="42.84958" lon="0.5167">
        <ele>1323</ele>
        <time>2020-02-01T14:12:53.000Z</time>
      </trkpt>
      <trkpt lat="42.84958" lon="0.51672">
        <ele>1323</ele>
        <time>2020-02-01T14:12:54.000Z</time>
      </trkpt>
      <trkpt lat="42.84958" lon="0.51673">
        <ele>1323</ele>
        <time>2020-02-01T14:12:55.000Z</time>
      </trkpt>
      <trkpt lat="42.84958" lon="0.51675">
        <ele>1322</ele>
        <time>2020-02-01T14:12:56.000Z</time>
      </trkpt>
      <trkpt lat="42.84958" lon="0.51676">
        <ele>1322</ele>
        <time>2020-02-01T14:12:57.000Z</time>
      </trkpt>
      <trkpt lat="42.84957" lon="0.51678">
        <ele>1322</ele>
        <time>2020-02-01T14:12:58.000Z</time>
      </trkpt>
      <trkpt lat="42.84957" lon="0.51679">
        <ele>1322</ele>
        <time>2020-02-01T14:12:59.000Z</time>
      </trkpt>
      <trkpt lat="42.84957" lon="0.5168">
        <ele>1321.5</ele>
        <time>2020-02-01T14:13:00.000Z</time>
      </trkpt>
      <trkpt lat="42.84957" lon="0.51682">
        <ele>1321</ele>
        <time>2020-02-01T14:13:01.000Z</time>
      </trkpt>
      <trkpt lat="42.84956" lon="0.51683">
        <ele>1321</ele>
        <time>2020-02-01T14:13:02.000Z</time>
      </trkpt>
      <trkpt lat="42.84956" lon="0.51685">
        <ele>1320.7</ele>
        <time>2020-02-01T14:13:03.000Z</time>
      </trkpt>
      <trkpt lat="42.84955" lon="0.51686">
        <ele>1320.3</ele>
        <time>2020-02-01T14:13:04.000Z</time>
      </trkpt>
      <trkpt lat="42.84955" lon="0.51687">
        <ele>1320</ele>
        <time>2020-02-01T14:13:05.000Z</time>
      </trkpt>
      <trkpt lat="42.84955" lon="0.51688">
        <ele>1320</ele>
        <time>2020-02-01T14:13:06.000Z</time>
      </trkpt>
      <trkpt lat="42.84954" lon="0.51689">
        <ele>1319.7</ele>
        <time>2020-02-01T14:13:07.000Z</time>
      </trkpt>
      <trkpt lat="42.84954" lon="0.5169">
        <ele>1319.3</ele>
        <time>2020-02-01T14:13:08.000Z</time>
      </trkpt>
      <trkpt lat="42.84954" lon="0.51691">
        <ele>1319</ele>
        <time>2020-02-01T14:13:09.000Z</time>
      </trkpt>
      <trkpt lat="42.84954" lon="0.51692">
        <ele>1319</ele>
        <time>2020-02-01T14:13:10.000Z</time>
      </trkpt>
      <trkpt lat="42.84953" lon="0.51693">
        <ele>1319</ele>
        <time>2020-02-01T14:13:11.000Z</time>
      </trkpt>
      <trkpt lat="42.84953" lon="0.51695">
        <ele>1318.5</ele>
        <time>2020-02-01T14:13:12.000Z</time>
      </trkpt>
      <trkpt lat="42.84953" lon="0.51696">
        <ele>1318</ele>
        <time>2020-02-01T14:13:13.000Z</time>
      </trkpt>
      <trkpt lat="42.84953" lon="0.51697">
        <ele>1318</ele>
        <time>2020-02-01T14:13:14.000Z</time>
      </trkpt>
      <trkpt lat="42.84954" lon="0.51698">
        <ele>1317.5</ele>
        <time>2020-02-01T14:13:15.000Z</time>
      </trkpt>
      <trkpt lat="42.84954" lon="0.517">
        <ele>1317</ele>
        <time>2020-02-01T14:13:16.000Z</time>
      </trkpt>
      <trkpt lat="42.84955" lon="0.51701">
        <ele>1317</ele>
        <time>2020-02-01T14:13:17.000Z</time>
      </trkpt>
      <trkpt lat="42.84955" lon="0.51703">
        <ele>1317</ele>
        <time>2020-02-01T14:13:18.000Z</time>
      </trkpt>
      <trkpt lat="42.84955" lon="0.51705">
        <ele>1317</ele>
        <time>2020-02-01T14:13:19.000Z</time>
      </trkpt>
      <trkpt lat="42.84954" lon="0.51707">
        <ele>1316</ele>
        <time>2020-02-01T14:13:20.000Z</time>
      </trkpt>
      <trkpt lat="42.84954" lon="0.51709">
        <ele>1316</ele>
        <time>2020-02-01T14:13:21.000Z</time>
      </trkpt>
      <trkpt lat="42.84953" lon="0.51711">
        <ele>1316</ele>
        <time>2020-02-01T14:13:22.000Z</time>
      </trkpt>
      <trkpt lat="42.84952" lon="0.51713">
        <ele>1316</ele>
        <time>2020-02-01T14:13:23.000Z</time>
      </trkpt>
      <trkpt lat="42.84952" lon="0.51715">
        <ele>1315.5</ele>
        <time>2020-02-01T14:13:24.000Z</time>
      </trkpt>
      <trkpt lat="42.84951" lon="0.51717">
        <ele>1315</ele>
        <time>2020-02-01T14:13:25.000Z</time>
      </trkpt>
      <trkpt lat="42.84951" lon="0.51719">
        <ele>1315</ele>
        <time>2020-02-01T14:13:26.000Z</time>
      </trkpt>
      <trkpt lat="42.8495" lon="0.51721">
        <ele>1314.7</ele>
        <time>2020-02-01T14:13:27.000Z</time>
      </trkpt>
      <trkpt lat="42.8495" lon="0.51722">
        <ele>1314.3</ele>
        <time>2020-02-01T14:13:28.000Z</time>
      </trkpt>
      <trkpt lat="42.8495" lon="0.51723">
        <ele>1314</ele>
        <time>2020-02-01T14:13:29.000Z</time>
      </trkpt>
      <trkpt lat="42.84949" lon="0.51725">
        <ele>1314</ele>
        <time>2020-02-01T14:13:30.000Z</time>
      </trkpt>
      <trkpt lat="42.84947" lon="0.51727">
        <ele>1313.5</ele>
        <time>2020-02-01T14:13:31.000Z</time>
      </trkpt>
      <trkpt lat="42.84947" lon="0.51729">
        <ele>1313</ele>
        <time>2020-02-01T14:13:32.000Z</time>
      </trkpt>
      <trkpt lat="42.84947" lon="0.51731">
        <ele>1313</ele>
        <time>2020-02-01T14:13:33.000Z</time>
      </trkpt>
      <trkpt lat="42.84947" lon="0.51732">
        <ele>1313</ele>
        <time>2020-02-01T14:13:34.000Z</time>
      </trkpt>
      <trkpt lat="42.84947" lon="0.51734">
        <ele>1313</ele>
        <time>2020-02-01T14:13:35.000Z</time>
      </trkpt>
      <trkpt lat="42.84947" lon="0.51736">
        <ele>1312.5</ele>
        <time>2020-02-01T14:13:36.000Z</time>
      </trkpt>
      <trkpt lat="42.84946" lon="0.51737">
        <ele>1312</ele>
        <time>2020-02-01T14:13:37.000Z</time>
      </trkpt>
      <trkpt lat="42.84946" lon="0.51739">
        <ele>1312</ele>
        <time>2020-02-01T14:13:38.000Z</time>
      </trkpt>
      <trkpt lat="42.84946" lon="0.51741">
        <ele>1311.5</ele>
        <time>2020-02-01T14:13:39.000Z</time>
      </trkpt>
      <trkpt lat="42.84945" lon="0.51742">
        <ele>1311</ele>
        <time>2020-02-01T14:13:40.000Z</time>
      </trkpt>
      <trkpt lat="42.84945" lon="0.51744">
        <ele>1311</ele>
        <time>2020-02-01T14:13:41.000Z</time>
      </trkpt>
      <trkpt lat="42.84945" lon="0.51745">
        <ele>1311</ele>
        <time>2020-02-01T14:13:42.000Z</time>
      </trkpt>
      <trkpt lat="42.84945" lon="0.51746">
        <ele>1311</ele>
        <time>2020-02-01T14:13:43.000Z</time>
      </trkpt>
      <trkpt lat="42.84944" lon="0.51748">
        <ele>1310</ele>
        <time>2020-02-01T14:13:44.000Z</time>
      </trkpt>
      <trkpt lat="42.84944" lon="0.51749">
        <ele>1310</ele>
        <time>2020-02-01T14:13:45.000Z</time>
      </trkpt>
      <trkpt lat="42.84944" lon="0.5175">
        <ele>1310</ele>
        <time>2020-02-01T14:13:46.000Z</time>
      </trkpt>
      <trkpt lat="42.84943" lon="0.51752">
        <ele>1310</ele>
        <time>2020-02-01T14:13:47.000Z</time>
      </trkpt>
      <trkpt lat="42.84943" lon="0.51753">
        <ele>1310</ele>
        <time>2020-02-01T14:13:48.000Z</time>
      </trkpt>
      <trkpt lat="42.84943" lon="0.51755">
        <ele>1309.5</ele>
        <time>2020-02-01T14:13:49.000Z</time>
      </trkpt>
      <trkpt lat="42.84942" lon="0.51756">
        <ele>1309</ele>
        <time>2020-02-01T14:13:50.000Z</time>
      </trkpt>
      <trkpt lat="42.84942" lon="0.51758">
        <ele>1309</ele>
        <time>2020-02-01T14:13:51.000Z</time>
      </trkpt>
      <trkpt lat="42.84941" lon="0.51759">
        <ele>1309</ele>
        <time>2020-02-01T14:13:52.000Z</time>
      </trkpt>
      <trkpt lat="42.84941" lon="0.51761">
        <ele>1309</ele>
        <time>2020-02-01T14:13:53.000Z</time>
      </trkpt>
      <trkpt lat="42.8494" lon="0.51762">
        <ele>1308</ele>
        <time>2020-02-01T14:13:54.000Z</time>
      </trkpt>
      <trkpt lat="42.8494" lon="0.51764">
        <ele>1308</ele>
        <time>2020-02-01T14:13:55.000Z</time>
      </trkpt>
      <trkpt lat="42.84939" lon="0.51765">
        <ele>1308</ele>
        <time>2020-02-01T14:13:56.000Z</time>
      </trkpt>
      <trkpt lat="42.84939" lon="0.51766">
        <ele>1307.7</ele>
        <time>2020-02-01T14:13:57.000Z</time>
      </trkpt>
      <trkpt lat="42.84938" lon="0.51767">
        <ele>1307.3</ele>
        <time>2020-02-01T14:13:58.000Z</time>
      </trkpt>
      <trkpt lat="42.84938" lon="0.51769">
        <ele>1307</ele>
        <time>2020-02-01T14:13:59.000Z</time>
      </trkpt>
      <trkpt lat="42.84938" lon="0.5177">
        <ele>1307</ele>
        <time>2020-02-01T14:14:00.000Z</time>
      </trkpt>
      <trkpt lat="42.84938" lon="0.51772">
        <ele>1306.7</ele>
        <time>2020-02-01T14:14:01.000Z</time>
      </trkpt>
      <trkpt lat="42.84938" lon="0.51773">
        <ele>1306.3</ele>
        <time>2020-02-01T14:14:02.000Z</time>
      </trkpt>
      <trkpt lat="42.84938" lon="0.51774">
        <ele>1306</ele>
        <time>2020-02-01T14:14:03.000Z</time>
      </trkpt>
      <trkpt lat="42.84937" lon="0.51776">
        <ele>1306</ele>
        <time>2020-02-01T14:14:04.000Z</time>
      </trkpt>
      <trkpt lat="42.84937" lon="0.51778">
        <ele>1305.7</ele>
        <time>2020-02-01T14:14:05.000Z</time>
      </trkpt>
      <trkpt lat="42.84937" lon="0.51779">
        <ele>1305.3</ele>
        <time>2020-02-01T14:14:06.000Z</time>
      </trkpt>
      <trkpt lat="42.84937" lon="0.51781">
        <ele>1305</ele>
        <time>2020-02-01T14:14:07.000Z</time>
      </trkpt>
      <trkpt lat="42.84936" lon="0.51782">
        <ele>1305</ele>
        <time>2020-02-01T14:14:08.000Z</time>
      </trkpt>
      <trkpt lat="42.84936" lon="0.51784">
        <ele>1305</ele>
        <time>2020-02-01T14:14:09.000Z</time>
      </trkpt>
      <trkpt lat="42.84935" lon="0.51785">
        <ele>1305</ele>
        <time>2020-02-01T14:14:10.000Z</time>
      </trkpt>
      <trkpt lat="42.84935" lon="0.51786">
        <ele>1304.7</ele>
        <time>2020-02-01T14:14:11.000Z</time>
      </trkpt>
      <trkpt lat="42.84934" lon="0.51788">
        <ele>1304.3</ele>
        <time>2020-02-01T14:14:12.000Z</time>
      </trkpt>
      <trkpt lat="42.84934" lon="0.51789">
        <ele>1304</ele>
        <time>2020-02-01T14:14:13.000Z</time>
      </trkpt>
      <trkpt lat="42.84934" lon="0.5179">
        <ele>1304</ele>
        <time>2020-02-01T14:14:14.000Z</time>
      </trkpt>
      <trkpt lat="42.84933" lon="0.51791">
        <ele>1303.5</ele>
        <time>2020-02-01T14:14:15.000Z</time>
      </trkpt>
      <trkpt lat="42.84933" lon="0.51792">
        <ele>1303</ele>
        <time>2020-02-01T14:14:16.000Z</time>
      </trkpt>
      <trkpt lat="42.84932" lon="0.51793">
        <ele>1303</ele>
        <time>2020-02-01T14:14:17.000Z</time>
      </trkpt>
      <trkpt lat="42.84932" lon="0.51794">
        <ele>1303</ele>
        <time>2020-02-01T14:14:18.000Z</time>
      </trkpt>
      <trkpt lat="42.84932" lon="0.51795">
        <ele>1303</ele>
        <time>2020-02-01T14:14:19.000Z</time>
      </trkpt>
      <trkpt lat="42.84931" lon="0.51796">
        <ele>1302.5</ele>
        <time>2020-02-01T14:14:20.000Z</time>
      </trkpt>
      <trkpt lat="42.84931" lon="0.51797">
        <ele>1302</ele>
        <time>2020-02-01T14:14:21.000Z</time>
      </trkpt>
      <trkpt lat="42.8493" lon="0.51798">
        <ele>1302</ele>
        <time>2020-02-01T14:14:22.000Z</time>
      </trkpt>
      <trkpt lat="42.8493" lon="0.51799">
        <ele>1301.5</ele>
        <time>2020-02-01T14:14:23.000Z</time>
      </trkpt>
      <trkpt lat="42.84929" lon="0.51801">
        <ele>1301</ele>
        <time>2020-02-01T14:14:24.000Z</time>
      </trkpt>
      <trkpt lat="42.84929" lon="0.51802">
        <ele>1301</ele>
        <time>2020-02-01T14:14:25.000Z</time>
      </trkpt>
      <trkpt lat="42.84928" lon="0.51803">
        <ele>1301</ele>
        <time>2020-02-01T14:14:26.000Z</time>
      </trkpt>
      <trkpt lat="42.84928" lon="0.51804">
        <ele>1301</ele>
        <time>2020-02-01T14:14:27.000Z</time>
      </trkpt>
      <trkpt lat="42.84927" lon="0.51806">
        <ele>1300</ele>
        <time>2020-02-01T14:14:28.000Z</time>
      </trkpt>
      <trkpt lat="42.84927" lon="0.51807">
        <ele>1300</ele>
        <time>2020-02-01T14:14:29.000Z</time>
      </trkpt>
      <trkpt lat="42.84926" lon="0.51809">
        <ele>1300</ele>
        <time>2020-02-01T14:14:30.000Z</time>
      </trkpt>
      <trkpt lat="42.84926" lon="0.5181">
        <ele>1300</ele>
        <time>2020-02-01T14:14:31.000Z</time>
      </trkpt>
      <trkpt lat="42.84925" lon="0.51812">
        <ele>1300</ele>
        <time>2020-02-01T14:14:32.000Z</time>
      </trkpt>
      <trkpt lat="42.84925" lon="0.51813">
        <ele>1299.7</ele>
        <time>2020-02-01T14:14:33.000Z</time>
      </trkpt>
      <trkpt lat="42.84925" lon="0.51814">
        <ele>1299.3</ele>
        <time>2020-02-01T14:14:34.000Z</time>
      </trkpt>
      <trkpt lat="42.84925" lon="0.51816">
        <ele>1299</ele>
        <time>2020-02-01T14:14:35.000Z</time>
      </trkpt>
      <trkpt lat="42.84925" lon="0.51817">
        <ele>1299</ele>
        <time>2020-02-01T14:14:36.000Z</time>
      </trkpt>
      <trkpt lat="42.84925" lon="0.51818">
        <ele>1299</ele>
        <time>2020-02-01T14:14:37.000Z</time>
      </trkpt>
      <trkpt lat="42.84925" lon="0.51819">
        <ele>1299</ele>
        <time>2020-02-01T14:14:38.000Z</time>
      </trkpt>
      <trkpt lat="42.84925" lon="0.5182">
        <ele>1299</ele>
        <time>2020-02-01T14:14:39.000Z</time>
      </trkpt>
      <trkpt lat="42.84924" lon="0.51821">
        <ele>1298</ele>
        <time>2020-02-01T14:14:40.000Z</time>
      </trkpt>
      <trkpt lat="42.84924" lon="0.51822">
        <ele>1298</ele>
        <time>2020-02-01T14:14:41.000Z</time>
      </trkpt>
      <trkpt lat="42.84924" lon="0.51824">
        <ele>1298</ele>
        <time>2020-02-01T14:14:42.000Z</time>
      </trkpt>
      <trkpt lat="42.84924" lon="0.51826">
        <ele>1298</ele>
        <time>2020-02-01T14:14:43.000Z</time>
      </trkpt>
      <trkpt lat="42.84924" lon="0.51828">
        <ele>1297</ele>
        <time>2020-02-01T14:14:44.000Z</time>
      </trkpt>
      <trkpt lat="42.84923" lon="0.5183">
        <ele>1297</ele>
        <time>2020-02-01T14:14:45.000Z</time>
      </trkpt>
      <trkpt lat="42.84923" lon="0.51831">
        <ele>1297</ele>
        <time>2020-02-01T14:14:46.000Z</time>
      </trkpt>
      <trkpt lat="42.84923" lon="0.51833">
        <ele>1297</ele>
        <time>2020-02-01T14:14:47.000Z</time>
      </trkpt>
      <trkpt lat="42.84922" lon="0.51835">
        <ele>1297</ele>
        <time>2020-02-01T14:14:48.000Z</time>
      </trkpt>
      <trkpt lat="42.84921" lon="0.51836">
        <ele>1297</ele>
        <time>2020-02-01T14:14:49.000Z</time>
      </trkpt>
      <trkpt lat="42.84921" lon="0.51838">
        <ele>1296.5</ele>
        <time>2020-02-01T14:14:50.000Z</time>
      </trkpt>
      <trkpt lat="42.8492" lon="0.5184">
        <ele>1296</ele>
        <time>2020-02-01T14:14:51.000Z</time>
      </trkpt>
      <trkpt lat="42.84919" lon="0.51841">
        <ele>1296</ele>
        <time>2020-02-01T14:14:52.000Z</time>
      </trkpt>
      <trkpt lat="42.84918" lon="0.51843">
        <ele>1296</ele>
        <time>2020-02-01T14:14:53.000Z</time>
      </trkpt>
      <trkpt lat="42.84918" lon="0.51845">
        <ele>1295</ele>
        <time>2020-02-01T14:14:54.000Z</time>
      </trkpt>
      <trkpt lat="42.84917" lon="0.51846">
        <ele>1295</ele>
        <time>2020-02-01T14:14:55.000Z</time>
      </trkpt>
      <trkpt lat="42.84916" lon="0.51848">
        <ele>1295</ele>
        <time>2020-02-01T14:14:56.000Z</time>
      </trkpt>
      <trkpt lat="42.84915" lon="0.51849">
        <ele>1295</ele>
        <time>2020-02-01T14:14:57.000Z</time>
      </trkpt>
      <trkpt lat="42.84914" lon="0.5185">
        <ele>1295</ele>
        <time>2020-02-01T14:14:58.000Z</time>
      </trkpt>
      <trkpt lat="42.84914" lon="0.51852">
        <ele>1294.5</ele>
        <time>2020-02-01T14:14:59.000Z</time>
      </trkpt>
      <trkpt lat="42.84913" lon="0.51853">
        <ele>1294</ele>
        <time>2020-02-01T14:15:00.000Z</time>
      </trkpt>
      <trkpt lat="42.84912" lon="0.51854">
        <ele>1294</ele>
        <time>2020-02-01T14:15:01.000Z</time>
      </trkpt>
      <trkpt lat="42.84912" lon="0.51854">
        <ele>1294</ele>
        <time>2020-02-01T14:15:02.000Z</time>
      </trkpt>
      <trkpt lat="42.84911" lon="0.51855">
        <ele>1294</ele>
        <time>2020-02-01T14:15:03.000Z</time>
      </trkpt>
      <trkpt lat="42.8491" lon="0.51856">
        <ele>1294</ele>
        <time>2020-02-01T14:15:04.000Z</time>
      </trkpt>
      <trkpt lat="42.8491" lon="0.51857">
        <ele>1293.7</ele>
        <time>2020-02-01T14:15:05.000Z</time>
      </trkpt>
      <trkpt lat="42.84909" lon="0.51857">
        <ele>1293.3</ele>
        <time>2020-02-01T14:15:06.000Z</time>
      </trkpt>
      <trkpt lat="42.84908" lon="0.51858">
        <ele>1293</ele>
        <time>2020-02-01T14:15:07.000Z</time>
      </trkpt>
      <trkpt lat="42.84907" lon="0.51859">
        <ele>1293</ele>
        <time>2020-02-01T14:15:08.000Z</time>
      </trkpt>
      <trkpt lat="42.84906" lon="0.5186">
        <ele>1293</ele>
        <time>2020-02-01T14:15:09.000Z</time>
      </trkpt>
      <trkpt lat="42.84905" lon="0.51861">
        <ele>1293</ele>
        <time>2020-02-01T14:15:10.000Z</time>
      </trkpt>
      <trkpt lat="42.84904" lon="0.51862">
        <ele>1293</ele>
        <time>2020-02-01T14:15:11.000Z</time>
      </trkpt>
      <trkpt lat="42.84903" lon="0.51863">
        <ele>1292</ele>
        <time>2020-02-01T14:15:12.000Z</time>
      </trkpt>
      <trkpt lat="42.84903" lon="0.51864">
        <ele>1292</ele>
        <time>2020-02-01T14:15:13.000Z</time>
      </trkpt>
      <trkpt lat="42.84902" lon="0.51865">
        <ele>1292</ele>
        <time>2020-02-01T14:15:14.000Z</time>
      </trkpt>
      <trkpt lat="42.84902" lon="0.51866">
        <ele>1291.5</ele>
        <time>2020-02-01T14:15:15.000Z</time>
      </trkpt>
      <trkpt lat="42.84902" lon="0.51867">
        <ele>1291</ele>
        <time>2020-02-01T14:15:16.000Z</time>
      </trkpt>
      <trkpt lat="42.84902" lon="0.51868">
        <ele>1291</ele>
        <time>2020-02-01T14:15:17.000Z</time>
      </trkpt>
      <trkpt lat="42.84902" lon="0.51868">
        <ele>1291</ele>
        <time>2020-02-01T14:15:18.000Z</time>
      </trkpt>
      <trkpt lat="42.84902" lon="0.51869">
        <ele>1291</ele>
        <time>2020-02-01T14:15:19.000Z</time>
      </trkpt>
      <trkpt lat="42.84902" lon="0.5187">
        <ele>1290</ele>
        <time>2020-02-01T14:15:20.000Z</time>
      </trkpt>
      <trkpt lat="42.84902" lon="0.51871">
        <ele>1290</ele>
        <time>2020-02-01T14:15:21.000Z</time>
      </trkpt>
      <trkpt lat="42.84903" lon="0.51871">
        <ele>1290</ele>
        <time>2020-02-01T14:15:22.000Z</time>
      </trkpt>
      <trkpt lat="42.84903" lon="0.51872">
        <ele>1289.7</ele>
        <time>2020-02-01T14:15:23.000Z</time>
      </trkpt>
      <trkpt lat="42.84904" lon="0.51872">
        <ele>1289.3</ele>
        <time>2020-02-01T14:15:24.000Z</time>
      </trkpt>
      <trkpt lat="42.84905" lon="0.51872">
        <ele>1289</ele>
        <time>2020-02-01T14:15:25.000Z</time>
      </trkpt>
      <trkpt lat="42.84906" lon="0.51872">
        <ele>1289</ele>
        <time>2020-02-01T14:15:26.000Z</time>
      </trkpt>
      <trkpt lat="42.84907" lon="0.51872">
        <ele>1288.5</ele>
        <time>2020-02-01T14:15:27.000Z</time>
      </trkpt>
      <trkpt lat="42.84908" lon="0.51871">
        <ele>1288</ele>
        <time>2020-02-01T14:15:28.000Z</time>
      </trkpt>
      <trkpt lat="42.84908" lon="0.51871">
        <ele>1288</ele>
        <time>2020-02-01T14:15:29.000Z</time>
      </trkpt>
      <trkpt lat="42.84909" lon="0.5187">
        <ele>1288</ele>
        <time>2020-02-01T14:15:30.000Z</time>
      </trkpt>
      <trkpt lat="42.8491" lon="0.5187">
        <ele>1288</ele>
        <time>2020-02-01T14:15:31.000Z</time>
      </trkpt>
      <trkpt lat="42.84911" lon="0.51869">
        <ele>1288</ele>
        <time>2020-02-01T14:15:32.000Z</time>
      </trkpt>
      <trkpt lat="42.84912" lon="0.51869">
        <ele>1287.7</ele>
        <time>2020-02-01T14:15:33.000Z</time>
      </trkpt>
      <trkpt lat="42.84912" lon="0.51868">
        <ele>1287.3</ele>
        <time>2020-02-01T14:15:34.000Z</time>
      </trkpt>
      <trkpt lat="42.84913" lon="0.51868">
        <ele>1287</ele>
        <time>2020-02-01T14:15:35.000Z</time>
      </trkpt>
      <trkpt lat="42.84914" lon="0.51867">
        <ele>1287</ele>
        <time>2020-02-01T14:15:36.000Z</time>
      </trkpt>
      <trkpt lat="42.84915" lon="0.51867">
        <ele>1286.7</ele>
        <time>2020-02-01T14:15:37.000Z</time>
      </trkpt>
      <trkpt lat="42.84916" lon="0.51867">
        <ele>1286.3</ele>
        <time>2020-02-01T14:15:38.000Z</time>
      </trkpt>
      <trkpt lat="42.84916" lon="0.51866">
        <ele>1286</ele>
        <time>2020-02-01T14:15:39.000Z</time>
      </trkpt>
      <trkpt lat="42.84917" lon="0.51866">
        <ele>1285.5</ele>
        <time>2020-02-01T14:15:40.000Z</time>
      </trkpt>
      <trkpt lat="42.84918" lon="0.51865">
        <ele>1285</ele>
        <time>2020-02-01T14:15:41.000Z</time>
      </trkpt>
      <trkpt lat="42.84919" lon="0.51865">
        <ele>1285</ele>
        <time>2020-02-01T14:15:42.000Z</time>
      </trkpt>
      <trkpt lat="42.8492" lon="0.51864">
        <ele>1284.5</ele>
        <time>2020-02-01T14:15:43.000Z</time>
      </trkpt>
      <trkpt lat="42.84921" lon="0.51863">
        <ele>1284</ele>
        <time>2020-02-01T14:15:44.000Z</time>
      </trkpt>
      <trkpt lat="42.84922" lon="0.51863">
        <ele>1284</ele>
        <time>2020-02-01T14:15:45.000Z</time>
      </trkpt>
      <trkpt lat="42.84923" lon="0.51862">
        <ele>1284</ele>
        <time>2020-02-01T14:15:46.000Z</time>
      </trkpt>
      <trkpt lat="42.84924" lon="0.51861">
        <ele>1284</ele>
        <time>2020-02-01T14:15:47.000Z</time>
      </trkpt>
      <trkpt lat="42.84925" lon="0.51861">
        <ele>1283</ele>
        <time>2020-02-01T14:15:48.000Z</time>
      </trkpt>
      <trkpt lat="42.84926" lon="0.5186">
        <ele>1283</ele>
        <time>2020-02-01T14:15:49.000Z</time>
      </trkpt>
      <trkpt lat="42.84927" lon="0.51859">
        <ele>1283</ele>
        <time>2020-02-01T14:15:50.000Z</time>
      </trkpt>
      <trkpt lat="42.84928" lon="0.51858">
        <ele>1283</ele>
        <time>2020-02-01T14:15:51.000Z</time>
      </trkpt>
      <trkpt lat="42.84929" lon="0.51857">
        <ele>1282.5</ele>
        <time>2020-02-01T14:15:52.000Z</time>
      </trkpt>
      <trkpt lat="42.8493" lon="0.51857">
        <ele>1282</ele>
        <time>2020-02-01T14:15:53.000Z</time>
      </trkpt>
      <trkpt lat="42.84931" lon="0.51856">
        <ele>1282</ele>
        <time>2020-02-01T14:15:54.000Z</time>
      </trkpt>
      <trkpt lat="42.84932" lon="0.51855">
        <ele>1282</ele>
        <time>2020-02-01T14:15:55.000Z</time>
      </trkpt>
      <trkpt lat="42.84933" lon="0.51854">
        <ele>1282</ele>
        <time>2020-02-01T14:15:56.000Z</time>
      </trkpt>
      <trkpt lat="42.84934" lon="0.51853">
        <ele>1282</ele>
        <time>2020-02-01T14:15:57.000Z</time>
      </trkpt>
      <trkpt lat="42.84935" lon="0.51852">
        <ele>1281.5</ele>
        <time>2020-02-01T14:15:58.000Z</time>
      </trkpt>
      <trkpt lat="42.84935" lon="0.51852">
        <ele>1281</ele>
        <time>2020-02-01T14:15:59.000Z</time>
      </trkpt>
      <trkpt lat="42.84936" lon="0.51851">
        <ele>1280</ele>
        <time>2020-02-01T14:16:00.000Z</time>
      </trkpt>
      <trkpt lat="42.84937" lon="0.5185">
        <ele>1280</ele>
        <time>2020-02-01T14:16:01.000Z</time>
      </trkpt>
      <trkpt lat="42.84938" lon="0.5185">
        <ele>1280</ele>
        <time>2020-02-01T14:16:02.000Z</time>
      </trkpt>
      <trkpt lat="42.84939" lon="0.51849">
        <ele>1280</ele>
        <time>2020-02-01T14:16:03.000Z</time>
      </trkpt>
      <trkpt lat="42.8494" lon="0.51848">
        <ele>1280</ele>
        <time>2020-02-01T14:16:04.000Z</time>
      </trkpt>
      <trkpt lat="42.8494" lon="0.51847">
        <ele>1280</ele>
        <time>2020-02-01T14:16:05.000Z</time>
      </trkpt>
      <trkpt lat="42.84941" lon="0.51847">
        <ele>1279.5</ele>
        <time>2020-02-01T14:16:06.000Z</time>
      </trkpt>
      <trkpt lat="42.84942" lon="0.51846">
        <ele>1279</ele>
        <time>2020-02-01T14:16:07.000Z</time>
      </trkpt>
      <trkpt lat="42.84943" lon="0.51845">
        <ele>1279</ele>
        <time>2020-02-01T14:16:08.000Z</time>
      </trkpt>
      <trkpt lat="42.84944" lon="0.51844">
        <ele>1278.7</ele>
        <time>2020-02-01T14:16:09.000Z</time>
      </trkpt>
      <trkpt lat="42.84945" lon="0.51844">
        <ele>1278.3</ele>
        <time>2020-02-01T14:16:10.000Z</time>
      </trkpt>
      <trkpt lat="42.84947" lon="0.51843">
        <ele>1278</ele>
        <time>2020-02-01T14:16:11.000Z</time>
      </trkpt>
      <trkpt lat="42.84948" lon="0.51843">
        <ele>1278</ele>
        <time>2020-02-01T14:16:12.000Z</time>
      </trkpt>
      <trkpt lat="42.84949" lon="0.51842">
        <ele>1277.7</ele>
        <time>2020-02-01T14:16:13.000Z</time>
      </trkpt>
      <trkpt lat="42.8495" lon="0.51842">
        <ele>1277.3</ele>
        <time>2020-02-01T14:16:14.000Z</time>
      </trkpt>
      <trkpt lat="42.84951" lon="0.51842">
        <ele>1277</ele>
        <time>2020-02-01T14:16:15.000Z</time>
      </trkpt>
      <trkpt lat="42.84952" lon="0.51841">
        <ele>1277</ele>
        <time>2020-02-01T14:16:16.000Z</time>
      </trkpt>
      <trkpt lat="42.84953" lon="0.51841">
        <ele>1276.7</ele>
        <time>2020-02-01T14:16:17.000Z</time>
      </trkpt>
      <trkpt lat="42.84954" lon="0.51841">
        <ele>1276.3</ele>
        <time>2020-02-01T14:16:18.000Z</time>
      </trkpt>
      <trkpt lat="42.84956" lon="0.51841">
        <ele>1276</ele>
        <time>2020-02-01T14:16:19.000Z</time>
      </trkpt>
      <trkpt lat="42.84957" lon="0.5184">
        <ele>1276</ele>
        <time>2020-02-01T14:16:20.000Z</time>
      </trkpt>
      <trkpt lat="42.84958" lon="0.5184">
        <ele>1275.7</ele>
        <time>2020-02-01T14:16:21.000Z</time>
      </trkpt>
      <trkpt lat="42.8496" lon="0.5184">
        <ele>1275.3</ele>
        <time>2020-02-01T14:16:22.000Z</time>
      </trkpt>
      <trkpt lat="42.84961" lon="0.51839">
        <ele>1275</ele>
        <time>2020-02-01T14:16:23.000Z</time>
      </trkpt>
      <trkpt lat="42.84962" lon="0.51839">
        <ele>1274.5</ele>
        <time>2020-02-01T14:16:24.000Z</time>
      </trkpt>
      <trkpt lat="42.84964" lon="0.51838">
        <ele>1274</ele>
        <time>2020-02-01T14:16:25.000Z</time>
      </trkpt>
      <trkpt lat="42.84965" lon="0.51838">
        <ele>1274</ele>
        <time>2020-02-01T14:16:26.000Z</time>
      </trkpt>
      <trkpt lat="42.84965" lon="0.51837">
        <ele>1273.7</ele>
        <time>2020-02-01T14:16:27.000Z</time>
      </trkpt>
      <trkpt lat="42.84966" lon="0.51837">
        <ele>1273.3</ele>
        <time>2020-02-01T14:16:28.000Z</time>
      </trkpt>
      <trkpt lat="42.84967" lon="0.51836">
        <ele>1273</ele>
        <time>2020-02-01T14:16:29.000Z</time>
      </trkpt>
      <trkpt lat="42.84968" lon="0.51836">
        <ele>1273</ele>
        <time>2020-02-01T14:16:30.000Z</time>
      </trkpt>
      <trkpt lat="42.84969" lon="0.51836">
        <ele>1273</ele>
        <time>2020-02-01T14:16:31.000Z</time>
      </trkpt>
      <trkpt lat="42.8497" lon="0.51836">
        <ele>1272</ele>
        <time>2020-02-01T14:16:32.000Z</time>
      </trkpt>
      <trkpt lat="42.8497" lon="0.51836">
        <ele>1272</ele>
        <time>2020-02-01T14:16:33.000Z</time>
      </trkpt>
      <trkpt lat="42.84971" lon="0.51836">
        <ele>1272</ele>
        <time>2020-02-01T14:16:34.000Z</time>
      </trkpt>
      <trkpt lat="42.84972" lon="0.51836">
        <ele>1272</ele>
        <time>2020-02-01T14:16:35.000Z</time>
      </trkpt>
      <trkpt lat="42.84973" lon="0.51836">
        <ele>1271</ele>
        <time>2020-02-01T14:16:36.000Z</time>
      </trkpt>
      <trkpt lat="42.84974" lon="0.51836">
        <ele>1271</ele>
        <time>2020-02-01T14:16:37.000Z</time>
      </trkpt>
      <trkpt lat="42.84975" lon="0.51836">
        <ele>1271</ele>
        <time>2020-02-01T14:16:38.000Z</time>
      </trkpt>
      <trkpt lat="42.84976" lon="0.51836">
        <ele>1271</ele>
        <time>2020-02-01T14:16:39.000Z</time>
      </trkpt>
      <trkpt lat="42.84977" lon="0.51837">
        <ele>1271</ele>
        <time>2020-02-01T14:16:40.000Z</time>
      </trkpt>
      <trkpt lat="42.84978" lon="0.51837">
        <ele>1271</ele>
        <time>2020-02-01T14:16:41.000Z</time>
      </trkpt>
      <trkpt lat="42.84979" lon="0.51838">
        <ele>1270.5</ele>
        <time>2020-02-01T14:16:42.000Z</time>
      </trkpt>
      <trkpt lat="42.8498" lon="0.51838">
        <ele>1270</ele>
        <time>2020-02-01T14:16:43.000Z</time>
      </trkpt>
      <trkpt lat="42.84981" lon="0.51838">
        <ele>1270</ele>
        <time>2020-02-01T14:16:44.000Z</time>
      </trkpt>
      <trkpt lat="42.84981" lon="0.51838">
        <ele>1270</ele>
        <time>2020-02-01T14:16:45.000Z</time>
      </trkpt>
      <trkpt lat="42.84982" lon="0.51838">
        <ele>1270</ele>
        <time>2020-02-01T14:16:46.000Z</time>
      </trkpt>
      <trkpt lat="42.84983" lon="0.51837">
        <ele>1270</ele>
        <time>2020-02-01T14:16:47.000Z</time>
      </trkpt>
      <trkpt lat="42.84984" lon="0.51837">
        <ele>1269.5</ele>
        <time>2020-02-01T14:16:48.000Z</time>
      </trkpt>
      <trkpt lat="42.84985" lon="0.51836">
        <ele>1269</ele>
        <time>2020-02-01T14:16:49.000Z</time>
      </trkpt>
      <trkpt lat="42.84986" lon="0.51836">
        <ele>1269</ele>
        <time>2020-02-01T14:16:50.000Z</time>
      </trkpt>
      <trkpt lat="42.84986" lon="0.51836">
        <ele>1269</ele>
        <time>2020-02-01T14:16:51.000Z</time>
      </trkpt>
      <trkpt lat="42.84987" lon="0.51836">
        <ele>1269</ele>
        <time>2020-02-01T14:16:52.000Z</time>
      </trkpt>
      <trkpt lat="42.84987" lon="0.51835">
        <ele>1269</ele>
        <time>2020-02-01T14:16:53.000Z</time>
      </trkpt>
      <trkpt lat="42.84988" lon="0.51835">
        <ele>1268.5</ele>
        <time>2020-02-01T14:16:54.000Z</time>
      </trkpt>
      <trkpt lat="42.84989" lon="0.51834">
        <ele>1268</ele>
        <time>2020-02-01T14:16:55.000Z</time>
      </trkpt>
      <trkpt lat="42.8499" lon="0.51834">
        <ele>1268</ele>
        <time>2020-02-01T14:16:56.000Z</time>
      </trkpt>
      <trkpt lat="42.84991" lon="0.51833">
        <ele>1267.5</ele>
        <time>2020-02-01T14:16:57.000Z</time>
      </trkpt>
      <trkpt lat="42.84992" lon="0.51832">
        <ele>1267</ele>
        <time>2020-02-01T14:16:58.000Z</time>
      </trkpt>
      <trkpt lat="42.84993" lon="0.51831">
        <ele>1267</ele>
        <time>2020-02-01T14:16:59.000Z</time>
      </trkpt>
      <trkpt lat="42.84994" lon="0.51831">
        <ele>1267</ele>
        <time>2020-02-01T14:17:00.000Z</time>
      </trkpt>
      <trkpt lat="42.84995" lon="0.5183">
        <ele>1267</ele>
        <time>2020-02-01T14:17:01.000Z</time>
      </trkpt>
      <trkpt lat="42.84995" lon="0.5183">
        <ele>1266.5</ele>
        <time>2020-02-01T14:17:02.000Z</time>
      </trkpt>
      <trkpt lat="42.84996" lon="0.51829">
        <ele>1266</ele>
        <time>2020-02-01T14:17:03.000Z</time>
      </trkpt>
      <trkpt lat="42.84997" lon="0.51828">
        <ele>1266</ele>
        <time>2020-02-01T14:17:04.000Z</time>
      </trkpt>
      <trkpt lat="42.84998" lon="0.51828">
        <ele>1266</ele>
        <time>2020-02-01T14:17:05.000Z</time>
      </trkpt>
      <trkpt lat="42.84999" lon="0.51827">
        <ele>1266</ele>
        <time>2020-02-01T14:17:06.000Z</time>
      </trkpt>
      <trkpt lat="42.85" lon="0.51826">
        <ele>1266</ele>
        <time>2020-02-01T14:17:07.000Z</time>
      </trkpt>
      <trkpt lat="42.85" lon="0.51825">
        <ele>1266</ele>
        <time>2020-02-01T14:17:08.000Z</time>
      </trkpt>
      <trkpt lat="42.85001" lon="0.51825">
        <ele>1266</ele>
        <time>2020-02-01T14:17:09.000Z</time>
      </trkpt>
      <trkpt lat="42.85002" lon="0.51824">
        <ele>1265.5</ele>
        <time>2020-02-01T14:17:10.000Z</time>
      </trkpt>
      <trkpt lat="42.85003" lon="0.51823">
        <ele>1265</ele>
        <time>2020-02-01T14:17:11.000Z</time>
      </trkpt>
      <trkpt lat="42.85004" lon="0.51822">
        <ele>1265</ele>
        <time>2020-02-01T14:17:12.000Z</time>
      </trkpt>
      <trkpt lat="42.85005" lon="0.51821">
        <ele>1265</ele>
        <time>2020-02-01T14:17:13.000Z</time>
      </trkpt>
      <trkpt lat="42.85006" lon="0.51821">
        <ele>1264</ele>
        <time>2020-02-01T14:17:14.000Z</time>
      </trkpt>
      <trkpt lat="42.85007" lon="0.5182">
        <ele>1264</ele>
        <time>2020-02-01T14:17:15.000Z</time>
      </trkpt>
      <trkpt lat="42.85008" lon="0.51819">
        <ele>1264</ele>
        <time>2020-02-01T14:17:16.000Z</time>
      </trkpt>
      <trkpt lat="42.85009" lon="0.51818">
        <ele>1264</ele>
        <time>2020-02-01T14:17:17.000Z</time>
      </trkpt>
      <trkpt lat="42.8501" lon="0.51817">
        <ele>1264</ele>
        <time>2020-02-01T14:17:18.000Z</time>
      </trkpt>
      <trkpt lat="42.85011" lon="0.51817">
        <ele>1264</ele>
        <time>2020-02-01T14:17:19.000Z</time>
      </trkpt>
      <trkpt lat="42.85012" lon="0.51816">
        <ele>1263.5</ele>
        <time>2020-02-01T14:17:20.000Z</time>
      </trkpt>
      <trkpt lat="42.85013" lon="0.51814">
        <ele>1263</ele>
        <time>2020-02-01T14:17:21.000Z</time>
      </trkpt>
      <trkpt lat="42.85013" lon="0.51813">
        <ele>1263</ele>
        <time>2020-02-01T14:17:22.000Z</time>
      </trkpt>
      <trkpt lat="42.85014" lon="0.51812">
        <ele>1263</ele>
        <time>2020-02-01T14:17:23.000Z</time>
      </trkpt>
      <trkpt lat="42.85015" lon="0.5181">
        <ele>1263</ele>
        <time>2020-02-01T14:17:24.000Z</time>
      </trkpt>
      <trkpt lat="42.85016" lon="0.51809">
        <ele>1263</ele>
        <time>2020-02-01T14:17:25.000Z</time>
      </trkpt>
      <trkpt lat="42.85016" lon="0.51807">
        <ele>1262</ele>
        <time>2020-02-01T14:17:26.000Z</time>
      </trkpt>
      <trkpt lat="42.85017" lon="0.51806">
        <ele>1262</ele>
        <time>2020-02-01T14:17:27.000Z</time>
      </trkpt>
      <trkpt lat="42.85018" lon="0.51804">
        <ele>1262</ele>
        <time>2020-02-01T14:17:28.000Z</time>
      </trkpt>
      <trkpt lat="42.85018" lon="0.51803">
        <ele>1262</ele>
        <time>2020-02-01T14:17:29.000Z</time>
      </trkpt>
      <trkpt lat="42.85019" lon="0.51801">
        <ele>1262</ele>
        <time>2020-02-01T14:17:30.000Z</time>
      </trkpt>
      <trkpt lat="42.85019" lon="0.518">
        <ele>1262</ele>
        <time>2020-02-01T14:17:31.000Z</time>
      </trkpt>
      <trkpt lat="42.8502" lon="0.51798">
        <ele>1261</ele>
        <time>2020-02-01T14:17:32.000Z</time>
      </trkpt>
      <trkpt lat="42.85021" lon="0.51797">
        <ele>1261</ele>
        <time>2020-02-01T14:17:33.000Z</time>
      </trkpt>
      <trkpt lat="42.85022" lon="0.51796">
        <ele>1261</ele>
        <time>2020-02-01T14:17:34.000Z</time>
      </trkpt>
      <trkpt lat="42.85022" lon="0.51795">
        <ele>1261</ele>
        <time>2020-02-01T14:17:35.000Z</time>
      </trkpt>
      <trkpt lat="42.85023" lon="0.51794">
        <ele>1261</ele>
        <time>2020-02-01T14:17:36.000Z</time>
      </trkpt>
      <trkpt lat="42.85024" lon="0.51793">
        <ele>1261</ele>
        <time>2020-02-01T14:17:37.000Z</time>
      </trkpt>
      <trkpt lat="42.85024" lon="0.51792">
        <ele>1260.5</ele>
        <time>2020-02-01T14:17:38.000Z</time>
      </trkpt>
      <trkpt lat="42.85025" lon="0.5179">
        <ele>1260</ele>
        <time>2020-02-01T14:17:39.000Z</time>
      </trkpt>
      <trkpt lat="42.85025" lon="0.51789">
        <ele>1260</ele>
        <time>2020-02-01T14:17:40.000Z</time>
      </trkpt>
      <trkpt lat="42.85026" lon="0.51788">
        <ele>1260</ele>
        <time>2020-02-01T14:17:41.000Z</time>
      </trkpt>
      <trkpt lat="42.85027" lon="0.51787">
        <ele>1260</ele>
        <time>2020-02-01T14:17:42.000Z</time>
      </trkpt>
      <trkpt lat="42.85027" lon="0.51785">
        <ele>1259.7</ele>
        <time>2020-02-01T14:17:43.000Z</time>
      </trkpt>
      <trkpt lat="42.85028" lon="0.51784">
        <ele>1259.3</ele>
        <time>2020-02-01T14:17:44.000Z</time>
      </trkpt>
      <trkpt lat="42.85028" lon="0.51783">
        <ele>1259</ele>
        <time>2020-02-01T14:17:45.000Z</time>
      </trkpt>
      <trkpt lat="42.85029" lon="0.51782">
        <ele>1259</ele>
        <time>2020-02-01T14:17:46.000Z</time>
      </trkpt>
      <trkpt lat="42.85029" lon="0.51781">
        <ele>1259</ele>
        <time>2020-02-01T14:17:47.000Z</time>
      </trkpt>
      <trkpt lat="42.8503" lon="0.5178">
        <ele>1258</ele>
        <time>2020-02-01T14:17:48.000Z</time>
      </trkpt>
      <trkpt lat="42.85031" lon="0.51779">
        <ele>1258</ele>
        <time>2020-02-01T14:17:49.000Z</time>
      </trkpt>
      <trkpt lat="42.85031" lon="0.51778">
        <ele>1258</ele>
        <time>2020-02-01T14:17:50.000Z</time>
      </trkpt>
      <trkpt lat="42.85032" lon="0.51778">
        <ele>1258</ele>
        <time>2020-02-01T14:17:51.000Z</time>
      </trkpt>
      <trkpt lat="42.85033" lon="0.51777">
        <ele>1258</ele>
        <time>2020-02-01T14:17:52.000Z</time>
      </trkpt>
      <trkpt lat="42.85034" lon="0.51776">
        <ele>1258</ele>
        <time>2020-02-01T14:17:53.000Z</time>
      </trkpt>
      <trkpt lat="42.85034" lon="0.51775">
        <ele>1257</ele>
        <time>2020-02-01T14:17:54.000Z</time>
      </trkpt>
      <trkpt lat="42.85035" lon="0.51774">
        <ele>1257</ele>
        <time>2020-02-01T14:17:55.000Z</time>
      </trkpt>
      <trkpt lat="42.85037" lon="0.51773">
        <ele>1257</ele>
        <time>2020-02-01T14:17:56.000Z</time>
      </trkpt>
      <trkpt lat="42.85038" lon="0.51773">
        <ele>1257</ele>
        <time>2020-02-01T14:17:57.000Z</time>
      </trkpt>
      <trkpt lat="42.85039" lon="0.51772">
        <ele>1257</ele>
        <time>2020-02-01T14:17:58.000Z</time>
      </trkpt>
      <trkpt lat="42.8504" lon="0.51772">
        <ele>1257</ele>
        <time>2020-02-01T14:17:59.000Z</time>
      </trkpt>
      <trkpt lat="42.85041" lon="0.51772">
        <ele>1256</ele>
        <time>2020-02-01T14:18:00.000Z</time>
      </trkpt>
      <trkpt lat="42.85042" lon="0.51771">
        <ele>1256</ele>
        <time>2020-02-01T14:18:01.000Z</time>
      </trkpt>
      <trkpt lat="42.85043" lon="0.51771">
        <ele>1256</ele>
        <time>2020-02-01T14:18:02.000Z</time>
      </trkpt>
      <trkpt lat="42.85044" lon="0.51771">
        <ele>1256</ele>
        <time>2020-02-01T14:18:03.000Z</time>
      </trkpt>
      <trkpt lat="42.85045" lon="0.51771">
        <ele>1256</ele>
        <time>2020-02-01T14:18:04.000Z</time>
      </trkpt>
      <trkpt lat="42.85046" lon="0.5177">
        <ele>1256</ele>
        <time>2020-02-01T14:18:05.000Z</time>
      </trkpt>
      <trkpt lat="42.85047" lon="0.5177">
        <ele>1255</ele>
        <time>2020-02-01T14:18:06.000Z</time>
      </trkpt>
      <trkpt lat="42.85047" lon="0.5177">
        <ele>1255</ele>
        <time>2020-02-01T14:18:07.000Z</time>
      </trkpt>
      <trkpt lat="42.85048" lon="0.5177">
        <ele>1255</ele>
        <time>2020-02-01T14:18:08.000Z</time>
      </trkpt>
      <trkpt lat="42.85049" lon="0.5177">
        <ele>1255</ele>
        <time>2020-02-01T14:18:09.000Z</time>
      </trkpt>
      <trkpt lat="42.8505" lon="0.5177">
        <ele>1255</ele>
        <time>2020-02-01T14:18:10.000Z</time>
      </trkpt>
      <trkpt lat="42.85051" lon="0.51769">
        <ele>1255</ele>
        <time>2020-02-01T14:18:11.000Z</time>
      </trkpt>
      <trkpt lat="42.85051" lon="0.51769">
        <ele>1254.5</ele>
        <time>2020-02-01T14:18:12.000Z</time>
      </trkpt>
      <trkpt lat="42.85052" lon="0.51769">
        <ele>1254</ele>
        <time>2020-02-01T14:18:13.000Z</time>
      </trkpt>
      <trkpt lat="42.85053" lon="0.51768">
        <ele>1254</ele>
        <time>2020-02-01T14:18:14.000Z</time>
      </trkpt>
      <trkpt lat="42.85054" lon="0.51768">
        <ele>1254</ele>
        <time>2020-02-01T14:18:15.000Z</time>
      </trkpt>
      <trkpt lat="42.85054" lon="0.51768">
        <ele>1254</ele>
        <time>2020-02-01T14:18:16.000Z</time>
      </trkpt>
      <trkpt lat="42.85055" lon="0.51767">
        <ele>1253.7</ele>
        <time>2020-02-01T14:18:17.000Z</time>
      </trkpt>
      <trkpt lat="42.85056" lon="0.51767">
        <ele>1253.3</ele>
        <time>2020-02-01T14:18:18.000Z</time>
      </trkpt>
      <trkpt lat="42.85056" lon="0.51767">
        <ele>1253</ele>
        <time>2020-02-01T14:18:19.000Z</time>
      </trkpt>
      <trkpt lat="42.85057" lon="0.51767">
        <ele>1253</ele>
        <time>2020-02-01T14:18:20.000Z</time>
      </trkpt>
      <trkpt lat="42.85058" lon="0.51767">
        <ele>1253</ele>
        <time>2020-02-01T14:18:21.000Z</time>
      </trkpt>
      <trkpt lat="42.85059" lon="0.51768">
        <ele>1253</ele>
        <time>2020-02-01T14:18:22.000Z</time>
      </trkpt>
      <trkpt lat="42.85059" lon="0.51768">
        <ele>1252.5</ele>
        <time>2020-02-01T14:18:23.000Z</time>
      </trkpt>
      <trkpt lat="42.8506" lon="0.51769">
        <ele>1252</ele>
        <time>2020-02-01T14:18:24.000Z</time>
      </trkpt>
      <trkpt lat="42.85061" lon="0.51769">
        <ele>1252</ele>
        <time>2020-02-01T14:18:25.000Z</time>
      </trkpt>
      <trkpt lat="42.85062" lon="0.51769">
        <ele>1252</ele>
        <time>2020-02-01T14:18:26.000Z</time>
      </trkpt>
      <trkpt lat="42.85063" lon="0.5177">
        <ele>1252</ele>
        <time>2020-02-01T14:18:27.000Z</time>
      </trkpt>
      <trkpt lat="42.85064" lon="0.5177">
        <ele>1252</ele>
        <time>2020-02-01T14:18:28.000Z</time>
      </trkpt>
      <trkpt lat="42.85065" lon="0.51771">
        <ele>1252</ele>
        <time>2020-02-01T14:18:29.000Z</time>
      </trkpt>
      <trkpt lat="42.85067" lon="0.51771">
        <ele>1251</ele>
        <time>2020-02-01T14:18:30.000Z</time>
      </trkpt>
      <trkpt lat="42.85068" lon="0.51771">
        <ele>1251</ele>
        <time>2020-02-01T14:18:31.000Z</time>
      </trkpt>
      <trkpt lat="42.85069" lon="0.51771">
        <ele>1251</ele>
        <time>2020-02-01T14:18:32.000Z</time>
      </trkpt>
      <trkpt lat="42.8507" lon="0.51772">
        <ele>1251</ele>
        <time>2020-02-01T14:18:33.000Z</time>
      </trkpt>
      <trkpt lat="42.85071" lon="0.51772">
        <ele>1251</ele>
        <time>2020-02-01T14:18:34.000Z</time>
      </trkpt>
      <trkpt lat="42.85072" lon="0.51772">
        <ele>1250.7</ele>
        <time>2020-02-01T14:18:35.000Z</time>
      </trkpt>
      <trkpt lat="42.85073" lon="0.51772">
        <ele>1250.3</ele>
        <time>2020-02-01T14:18:36.000Z</time>
      </trkpt>
      <trkpt lat="42.85074" lon="0.51772">
        <ele>1250</ele>
        <time>2020-02-01T14:18:37.000Z</time>
      </trkpt>
      <trkpt lat="42.85075" lon="0.51771">
        <ele>1250</ele>
        <time>2020-02-01T14:18:38.000Z</time>
      </trkpt>
      <trkpt lat="42.85077" lon="0.5177">
        <ele>1250</ele>
        <time>2020-02-01T14:18:39.000Z</time>
      </trkpt>
      <trkpt lat="42.85079" lon="0.51768">
        <ele>1250</ele>
        <time>2020-02-01T14:18:40.000Z</time>
      </trkpt>
      <trkpt lat="42.8508" lon="0.51767">
        <ele>1250</ele>
        <time>2020-02-01T14:18:41.000Z</time>
      </trkpt>
      <trkpt lat="42.85081" lon="0.51766">
        <ele>1250</ele>
        <time>2020-02-01T14:18:42.000Z</time>
      </trkpt>
      <trkpt lat="42.85082" lon="0.51765">
        <ele>1249.7</ele>
        <time>2020-02-01T14:18:43.000Z</time>
      </trkpt>
      <trkpt lat="42.85084" lon="0.51764">
        <ele>1249.3</ele>
        <time>2020-02-01T14:18:44.000Z</time>
      </trkpt>
      <trkpt lat="42.85085" lon="0.51763">
        <ele>1249</ele>
        <time>2020-02-01T14:18:45.000Z</time>
      </trkpt>
      <trkpt lat="42.85086" lon="0.51762">
        <ele>1249</ele>
        <time>2020-02-01T14:18:46.000Z</time>
      </trkpt>
      <trkpt lat="42.85087" lon="0.5176">
        <ele>1249</ele>
        <time>2020-02-01T14:18:47.000Z</time>
      </trkpt>
      <trkpt lat="42.85089" lon="0.51759">
        <ele>1249</ele>
        <time>2020-02-01T14:18:48.000Z</time>
      </trkpt>
      <trkpt lat="42.8509" lon="0.51757">
        <ele>1249</ele>
        <time>2020-02-01T14:18:49.000Z</time>
      </trkpt>
      <trkpt lat="42.85091" lon="0.51755">
        <ele>1249</ele>
        <time>2020-02-01T14:18:50.000Z</time>
      </trkpt>
      <trkpt lat="42.85093" lon="0.51754">
        <ele>1248.7</ele>
        <time>2020-02-01T14:18:51.000Z</time>
      </trkpt>
      <trkpt lat="42.85094" lon="0.51753">
        <ele>1248.3</ele>
        <time>2020-02-01T14:18:52.000Z</time>
      </trkpt>
      <trkpt lat="42.85095" lon="0.51752">
        <ele>1248</ele>
        <time>2020-02-01T14:18:53.000Z</time>
      </trkpt>
      <trkpt lat="42.85096" lon="0.51751">
        <ele>1248</ele>
        <time>2020-02-01T14:18:54.000Z</time>
      </trkpt>
      <trkpt lat="42.85098" lon="0.5175">
        <ele>1248</ele>
        <time>2020-02-01T14:18:55.000Z</time>
      </trkpt>
      <trkpt lat="42.85099" lon="0.51749">
        <ele>1248</ele>
        <time>2020-02-01T14:18:56.000Z</time>
      </trkpt>
      <trkpt lat="42.851" lon="0.51748">
        <ele>1247.7</ele>
        <time>2020-02-01T14:18:57.000Z</time>
      </trkpt>
      <trkpt lat="42.85101" lon="0.51748">
        <ele>1247.3</ele>
        <time>2020-02-01T14:18:58.000Z</time>
      </trkpt>
      <trkpt lat="42.85102" lon="0.51747">
        <ele>1247</ele>
        <time>2020-02-01T14:18:59.000Z</time>
      </trkpt>
      <trkpt lat="42.85103" lon="0.51746">
        <ele>1247</ele>
        <time>2020-02-01T14:19:00.000Z</time>
      </trkpt>
      <trkpt lat="42.85104" lon="0.51745">
        <ele>1247</ele>
        <time>2020-02-01T14:19:01.000Z</time>
      </trkpt>
      <trkpt lat="42.85105" lon="0.51745">
        <ele>1247</ele>
        <time>2020-02-01T14:19:02.000Z</time>
      </trkpt>
      <trkpt lat="42.85105" lon="0.51744">
        <ele>1247</ele>
        <time>2020-02-01T14:19:03.000Z</time>
      </trkpt>
      <trkpt lat="42.85106" lon="0.51743">
        <ele>1247</ele>
        <time>2020-02-01T14:19:04.000Z</time>
      </trkpt>
      <trkpt lat="42.85107" lon="0.51741">
        <ele>1246.7</ele>
        <time>2020-02-01T14:19:05.000Z</time>
      </trkpt>
      <trkpt lat="42.85108" lon="0.5174">
        <ele>1246.3</ele>
        <time>2020-02-01T14:19:06.000Z</time>
      </trkpt>
      <trkpt lat="42.85108" lon="0.51739">
        <ele>1246</ele>
        <time>2020-02-01T14:19:07.000Z</time>
      </trkpt>
      <trkpt lat="42.85109" lon="0.51737">
        <ele>1246</ele>
        <time>2020-02-01T14:19:08.000Z</time>
      </trkpt>
      <trkpt lat="42.85109" lon="0.51736">
        <ele>1246</ele>
        <time>2020-02-01T14:19:09.000Z</time>
      </trkpt>
      <trkpt lat="42.8511" lon="0.51734">
        <ele>1245</ele>
        <time>2020-02-01T14:19:10.000Z</time>
      </trkpt>
      <trkpt lat="42.85111" lon="0.51732">
        <ele>1245</ele>
        <time>2020-02-01T14:19:11.000Z</time>
      </trkpt>
      <trkpt lat="42.85112" lon="0.51731">
        <ele>1245</ele>
        <time>2020-02-01T14:19:12.000Z</time>
      </trkpt>
      <trkpt lat="42.85112" lon="0.51729">
        <ele>1245</ele>
        <time>2020-02-01T14:19:13.000Z</time>
      </trkpt>
      <trkpt lat="42.85114" lon="0.51728">
        <ele>1245</ele>
        <time>2020-02-01T14:19:14.000Z</time>
      </trkpt>
      <trkpt lat="42.85115" lon="0.51726">
        <ele>1245</ele>
        <time>2020-02-01T14:19:15.000Z</time>
      </trkpt>
      <trkpt lat="42.85116" lon="0.51725">
        <ele>1245</ele>
        <time>2020-02-01T14:19:16.000Z</time>
      </trkpt>
      <trkpt lat="42.85117" lon="0.51724">
        <ele>1244.5</ele>
        <time>2020-02-01T14:19:17.000Z</time>
      </trkpt>
      <trkpt lat="42.85118" lon="0.51724">
        <ele>1244</ele>
        <time>2020-02-01T14:19:18.000Z</time>
      </trkpt>
      <trkpt lat="42.85119" lon="0.51723">
        <ele>1244</ele>
        <time>2020-02-01T14:19:19.000Z</time>
      </trkpt>
      <trkpt lat="42.8512" lon="0.51723">
        <ele>1244</ele>
        <time>2020-02-01T14:19:20.000Z</time>
      </trkpt>
      <trkpt lat="42.85121" lon="0.51723">
        <ele>1244</ele>
        <time>2020-02-01T14:19:21.000Z</time>
      </trkpt>
      <trkpt lat="42.85122" lon="0.51722">
        <ele>1244</ele>
        <time>2020-02-01T14:19:22.000Z</time>
      </trkpt>
      <trkpt lat="42.85123" lon="0.51721">
        <ele>1244</ele>
        <time>2020-02-01T14:19:23.000Z</time>
      </trkpt>
      <trkpt lat="42.85124" lon="0.5172">
        <ele>1244</ele>
        <time>2020-02-01T14:19:24.000Z</time>
      </trkpt>
      <trkpt lat="42.85125" lon="0.51719">
        <ele>1244</ele>
        <time>2020-02-01T14:19:25.000Z</time>
      </trkpt>
      <trkpt lat="42.85125" lon="0.51718">
        <ele>1243.5</ele>
        <time>2020-02-01T14:19:26.000Z</time>
      </trkpt>
      <trkpt lat="42.85126" lon="0.51717">
        <ele>1243</ele>
        <time>2020-02-01T14:19:27.000Z</time>
      </trkpt>
      <trkpt lat="42.85127" lon="0.51716">
        <ele>1243</ele>
        <time>2020-02-01T14:19:28.000Z</time>
      </trkpt>
      <trkpt lat="42.85127" lon="0.51715">
        <ele>1243</ele>
        <time>2020-02-01T14:19:29.000Z</time>
      </trkpt>
      <trkpt lat="42.85128" lon="0.51714">
        <ele>1243</ele>
        <time>2020-02-01T14:19:30.000Z</time>
      </trkpt>
      <trkpt lat="42.8513" lon="0.51713">
        <ele>1243</ele>
        <time>2020-02-01T14:19:31.000Z</time>
      </trkpt>
      <trkpt lat="42.85131" lon="0.51712">
        <ele>1243</ele>
        <time>2020-02-01T14:19:32.000Z</time>
      </trkpt>
      <trkpt lat="42.85133" lon="0.51712">
        <ele>1242.7</ele>
        <time>2020-02-01T14:19:33.000Z</time>
      </trkpt>
      <trkpt lat="42.85134" lon="0.51711">
        <ele>1242.3</ele>
        <time>2020-02-01T14:19:34.000Z</time>
      </trkpt>
      <trkpt lat="42.85135" lon="0.51711">
        <ele>1242</ele>
        <time>2020-02-01T14:19:35.000Z</time>
      </trkpt>
      <trkpt lat="42.85137" lon="0.51711">
        <ele>1242</ele>
        <time>2020-02-01T14:19:36.000Z</time>
      </trkpt>
      <trkpt lat="42.85138" lon="0.51711">
        <ele>1242</ele>
        <time>2020-02-01T14:19:37.000Z</time>
      </trkpt>
      <trkpt lat="42.85139" lon="0.51711">
        <ele>1242</ele>
        <time>2020-02-01T14:19:38.000Z</time>
      </trkpt>
      <trkpt lat="42.8514" lon="0.51712">
        <ele>1242</ele>
        <time>2020-02-01T14:19:39.000Z</time>
      </trkpt>
      <trkpt lat="42.85141" lon="0.51712">
        <ele>1242</ele>
        <time>2020-02-01T14:19:40.000Z</time>
      </trkpt>
      <trkpt lat="42.85141" lon="0.51713">
        <ele>1242</ele>
        <time>2020-02-01T14:19:41.000Z</time>
      </trkpt>
      <trkpt lat="42.85142" lon="0.51714">
        <ele>1242</ele>
        <time>2020-02-01T14:19:42.000Z</time>
      </trkpt>
      <trkpt lat="42.85143" lon="0.51715">
        <ele>1242</ele>
        <time>2020-02-01T14:19:43.000Z</time>
      </trkpt>
      <trkpt lat="42.85144" lon="0.51716">
        <ele>1242</ele>
        <time>2020-02-01T14:19:44.000Z</time>
      </trkpt>
      <trkpt lat="42.85144" lon="0.51717">
        <ele>1242</ele>
        <time>2020-02-01T14:19:45.000Z</time>
      </trkpt>
      <trkpt lat="42.85145" lon="0.51718">
        <ele>1242</ele>
        <time>2020-02-01T14:19:46.000Z</time>
      </trkpt>
      <trkpt lat="42.85145" lon="0.51719">
        <ele>1242</ele>
        <time>2020-02-01T14:19:47.000Z</time>
      </trkpt>
      <trkpt lat="42.85146" lon="0.5172">
        <ele>1242</ele>
        <time>2020-02-01T14:19:48.000Z</time>
      </trkpt>
      <trkpt lat="42.85147" lon="0.51721">
        <ele>1242</ele>
        <time>2020-02-01T14:19:49.000Z</time>
      </trkpt>
      <trkpt lat="42.85148" lon="0.51722">
        <ele>1242</ele>
        <time>2020-02-01T14:19:50.000Z</time>
      </trkpt>
      <trkpt lat="42.85148" lon="0.51723">
        <ele>1242</ele>
        <time>2020-02-01T14:19:51.000Z</time>
      </trkpt>
      <trkpt lat="42.85149" lon="0.51724">
        <ele>1242</ele>
        <time>2020-02-01T14:19:52.000Z</time>
      </trkpt>
      <trkpt lat="42.8515" lon="0.51725">
        <ele>1242</ele>
        <time>2020-02-01T14:19:53.000Z</time>
      </trkpt>
      <trkpt lat="42.85151" lon="0.51725">
        <ele>1242</ele>
        <time>2020-02-01T14:19:54.000Z</time>
      </trkpt>
      <trkpt lat="42.85152" lon="0.51726">
        <ele>1242</ele>
        <time>2020-02-01T14:19:55.000Z</time>
      </trkpt>
      <trkpt lat="42.85153" lon="0.51727">
        <ele>1242</ele>
        <time>2020-02-01T14:19:56.000Z</time>
      </trkpt>
      <trkpt lat="42.85154" lon="0.51728">
        <ele>1242</ele>
        <time>2020-02-01T14:19:57.000Z</time>
      </trkpt>
      <trkpt lat="42.85155" lon="0.51729">
        <ele>1242</ele>
        <time>2020-02-01T14:19:58.000Z</time>
      </trkpt>
      <trkpt lat="42.85155" lon="0.5173">
        <ele>1242.3</ele>
        <time>2020-02-01T14:19:59.000Z</time>
      </trkpt>
      <trkpt lat="42.85156" lon="0.51731">
        <ele>1242.7</ele>
        <time>2020-02-01T14:20:00.000Z</time>
      </trkpt>
      <trkpt lat="42.85157" lon="0.51732">
        <ele>1243</ele>
        <time>2020-02-01T14:20:01.000Z</time>
      </trkpt>
      <trkpt lat="42.85158" lon="0.51733">
        <ele>1243</ele>
        <time>2020-02-01T14:20:02.000Z</time>
      </trkpt>
      <trkpt lat="42.85159" lon="0.51734">
        <ele>1243</ele>
        <time>2020-02-01T14:20:03.000Z</time>
      </trkpt>
      <trkpt lat="42.8516" lon="0.51735">
        <ele>1243</ele>
        <time>2020-02-01T14:20:04.000Z</time>
      </trkpt>
      <trkpt lat="42.85161" lon="0.51736">
        <ele>1243</ele>
        <time>2020-02-01T14:20:05.000Z</time>
      </trkpt>
      <trkpt lat="42.85162" lon="0.51738">
        <ele>1243</ele>
        <time>2020-02-01T14:20:06.000Z</time>
      </trkpt>
      <trkpt lat="42.85163" lon="0.51739">
        <ele>1243</ele>
        <time>2020-02-01T14:20:07.000Z</time>
      </trkpt>
      <trkpt lat="42.85163" lon="0.5174">
        <ele>1243</ele>
        <time>2020-02-01T14:20:08.000Z</time>
      </trkpt>
      <trkpt lat="42.85164" lon="0.51741">
        <ele>1243</ele>
        <time>2020-02-01T14:20:09.000Z</time>
      </trkpt>
      <trkpt lat="42.85165" lon="0.51743">
        <ele>1243</ele>
        <time>2020-02-01T14:20:10.000Z</time>
      </trkpt>
      <trkpt lat="42.85165" lon="0.51744">
        <ele>1243.5</ele>
        <time>2020-02-01T14:20:11.000Z</time>
      </trkpt>
      <trkpt lat="42.85166" lon="0.51745">
        <ele>1244</ele>
        <time>2020-02-01T14:20:12.000Z</time>
      </trkpt>
      <trkpt lat="42.85166" lon="0.51746">
        <ele>1244</ele>
        <time>2020-02-01T14:20:13.000Z</time>
      </trkpt>
      <trkpt lat="42.85166" lon="0.51747">
        <ele>1244</ele>
        <time>2020-02-01T14:20:14.000Z</time>
      </trkpt>
      <trkpt lat="42.85167" lon="0.51749">
        <ele>1244</ele>
        <time>2020-02-01T14:20:15.000Z</time>
      </trkpt>
      <trkpt lat="42.85167" lon="0.5175">
        <ele>1244</ele>
        <time>2020-02-01T14:20:16.000Z</time>
      </trkpt>
      <trkpt lat="42.85168" lon="0.51751">
        <ele>1244</ele>
        <time>2020-02-01T14:20:17.000Z</time>
      </trkpt>
      <trkpt lat="42.85169" lon="0.51752">
        <ele>1244</ele>
        <time>2020-02-01T14:20:18.000Z</time>
      </trkpt>
      <trkpt lat="42.85169" lon="0.51753">
        <ele>1244.3</ele>
        <time>2020-02-01T14:20:19.000Z</time>
      </trkpt>
      <trkpt lat="42.8517" lon="0.51754">
        <ele>1244.7</ele>
        <time>2020-02-01T14:20:20.000Z</time>
      </trkpt>
      <trkpt lat="42.8517" lon="0.51755">
        <ele>1245</ele>
        <time>2020-02-01T14:20:21.000Z</time>
      </trkpt>
      <trkpt lat="42.85171" lon="0.51756">
        <ele>1245</ele>
        <time>2020-02-01T14:20:22.000Z</time>
      </trkpt>
      <trkpt lat="42.85172" lon="0.51757">
        <ele>1245</ele>
        <time>2020-02-01T14:20:23.000Z</time>
      </trkpt>
      <trkpt lat="42.85172" lon="0.51759">
        <ele>1245</ele>
        <time>2020-02-01T14:20:24.000Z</time>
      </trkpt>
      <trkpt lat="42.85173" lon="0.5176">
        <ele>1245.5</ele>
        <time>2020-02-01T14:20:25.000Z</time>
      </trkpt>
      <trkpt lat="42.85174" lon="0.51761">
        <ele>1246</ele>
        <time>2020-02-01T14:20:26.000Z</time>
      </trkpt>
      <trkpt lat="42.85174" lon="0.51763">
        <ele>1246</ele>
        <time>2020-02-01T14:20:27.000Z</time>
      </trkpt>
      <trkpt lat="42.85175" lon="0.51764">
        <ele>1246</ele>
        <time>2020-02-01T14:20:28.000Z</time>
      </trkpt>
      <trkpt lat="42.85175" lon="0.51765">
        <ele>1246</ele>
        <time>2020-02-01T14:20:29.000Z</time>
      </trkpt>
      <trkpt lat="42.85175" lon="0.51767">
        <ele>1246</ele>
        <time>2020-02-01T14:20:30.000Z</time>
      </trkpt>
      <trkpt lat="42.85176" lon="0.51768">
        <ele>1246</ele>
        <time>2020-02-01T14:20:31.000Z</time>
      </trkpt>
      <trkpt lat="42.85176" lon="0.51769">
        <ele>1246</ele>
        <time>2020-02-01T14:20:32.000Z</time>
      </trkpt>
      <trkpt lat="42.85176" lon="0.5177">
        <ele>1246.5</ele>
        <time>2020-02-01T14:20:33.000Z</time>
      </trkpt>
      <trkpt lat="42.85176" lon="0.51771">
        <ele>1247</ele>
        <time>2020-02-01T14:20:34.000Z</time>
      </trkpt>
      <trkpt lat="42.85176" lon="0.51772">
        <ele>1247</ele>
        <time>2020-02-01T14:20:35.000Z</time>
      </trkpt>
      <trkpt lat="42.85177" lon="0.51774">
        <ele>1247</ele>
        <time>2020-02-01T14:20:36.000Z</time>
      </trkpt>
      <trkpt lat="42.85177" lon="0.51775">
        <ele>1247</ele>
        <time>2020-02-01T14:20:37.000Z</time>
      </trkpt>
      <trkpt lat="42.85177" lon="0.51776">
        <ele>1247</ele>
        <time>2020-02-01T14:20:38.000Z</time>
      </trkpt>
      <trkpt lat="42.85177" lon="0.51777">
        <ele>1247.5</ele>
        <time>2020-02-01T14:20:39.000Z</time>
      </trkpt>
      <trkpt lat="42.85177" lon="0.51779">
        <ele>1248</ele>
        <time>2020-02-01T14:20:40.000Z</time>
      </trkpt>
      <trkpt lat="42.85177" lon="0.5178">
        <ele>1248</ele>
        <time>2020-02-01T14:20:41.000Z</time>
      </trkpt>
      <trkpt lat="42.85178" lon="0.51781">
        <ele>1248</ele>
        <time>2020-02-01T14:20:42.000Z</time>
      </trkpt>
      <trkpt lat="42.85178" lon="0.51782">
        <ele>1248</ele>
        <time>2020-02-01T14:20:43.000Z</time>
      </trkpt>
      <trkpt lat="42.85179" lon="0.51784">
        <ele>1248</ele>
        <time>2020-02-01T14:20:44.000Z</time>
      </trkpt>
      <trkpt lat="42.85179" lon="0.51785">
        <ele>1248</ele>
        <time>2020-02-01T14:20:45.000Z</time>
      </trkpt>
      <trkpt lat="42.8518" lon="0.51786">
        <ele>1248</ele>
        <time>2020-02-01T14:20:46.000Z</time>
      </trkpt>
      <trkpt lat="42.8518" lon="0.51787">
        <ele>1248</ele>
        <time>2020-02-01T14:20:47.000Z</time>
      </trkpt>
      <trkpt lat="42.85181" lon="0.51788">
        <ele>1249</ele>
        <time>2020-02-01T14:20:48.000Z</time>
      </trkpt>
      <trkpt lat="42.85182" lon="0.51789">
        <ele>1249</ele>
        <time>2020-02-01T14:20:49.000Z</time>
      </trkpt>
      <trkpt lat="42.85182" lon="0.5179">
        <ele>1249</ele>
        <time>2020-02-01T14:20:50.000Z</time>
      </trkpt>
      <trkpt lat="42.85183" lon="0.5179">
        <ele>1249</ele>
        <time>2020-02-01T14:20:51.000Z</time>
      </trkpt>
      <trkpt lat="42.85184" lon="0.51791">
        <ele>1249</ele>
        <time>2020-02-01T14:20:52.000Z</time>
      </trkpt>
      <trkpt lat="42.85184" lon="0.51792">
        <ele>1249.5</ele>
        <time>2020-02-01T14:20:53.000Z</time>
      </trkpt>
      <trkpt lat="42.85185" lon="0.51793">
        <ele>1250</ele>
        <time>2020-02-01T14:20:54.000Z</time>
      </trkpt>
      <trkpt lat="42.85186" lon="0.51793">
        <ele>1250</ele>
        <time>2020-02-01T14:20:55.000Z</time>
      </trkpt>
      <trkpt lat="42.85187" lon="0.51794">
        <ele>1250</ele>
        <time>2020-02-01T14:20:56.000Z</time>
      </trkpt>
      <trkpt lat="42.85188" lon="0.51794">
        <ele>1250</ele>
        <time>2020-02-01T14:20:57.000Z</time>
      </trkpt>
      <trkpt lat="42.85189" lon="0.51795">
        <ele>1250</ele>
        <time>2020-02-01T14:20:58.000Z</time>
      </trkpt>
      <trkpt lat="42.8519" lon="0.51795">
        <ele>1250</ele>
        <time>2020-02-01T14:20:59.000Z</time>
      </trkpt>
      <trkpt lat="42.85191" lon="0.51796">
        <ele>1250</ele>
        <time>2020-02-01T14:21:00.000Z</time>
      </trkpt>
      <trkpt lat="42.85192" lon="0.51797">
        <ele>1250</ele>
        <time>2020-02-01T14:21:01.000Z</time>
      </trkpt>
      <trkpt lat="42.85192" lon="0.51797">
        <ele>1250</ele>
        <time>2020-02-01T14:21:02.000Z</time>
      </trkpt>
      <trkpt lat="42.85193" lon="0.51798">
        <ele>1250.5</ele>
        <time>2020-02-01T14:21:03.000Z</time>
      </trkpt>
      <trkpt lat="42.85194" lon="0.51799">
        <ele>1251</ele>
        <time>2020-02-01T14:21:04.000Z</time>
      </trkpt>
      <trkpt lat="42.85195" lon="0.518">
        <ele>1251</ele>
        <time>2020-02-01T14:21:05.000Z</time>
      </trkpt>
      <trkpt lat="42.85196" lon="0.51801">
        <ele>1251</ele>
        <time>2020-02-01T14:21:06.000Z</time>
      </trkpt>
      <trkpt lat="42.85196" lon="0.51801">
        <ele>1251</ele>
        <time>2020-02-01T14:21:07.000Z</time>
      </trkpt>
      <trkpt lat="42.85197" lon="0.51802">
        <ele>1251</ele>
        <time>2020-02-01T14:21:08.000Z</time>
      </trkpt>
      <trkpt lat="42.85198" lon="0.51803">
        <ele>1251</ele>
        <time>2020-02-01T14:21:09.000Z</time>
      </trkpt>
      <trkpt lat="42.85199" lon="0.51804">
        <ele>1251</ele>
        <time>2020-02-01T14:21:10.000Z</time>
      </trkpt>
      <trkpt lat="42.85199" lon="0.51804">
        <ele>1251.5</ele>
        <time>2020-02-01T14:21:11.000Z</time>
      </trkpt>
      <trkpt lat="42.852" lon="0.51805">
        <ele>1252</ele>
        <time>2020-02-01T14:21:12.000Z</time>
      </trkpt>
      <trkpt lat="42.85201" lon="0.51805">
        <ele>1252</ele>
        <time>2020-02-01T14:21:13.000Z</time>
      </trkpt>
      <trkpt lat="42.85202" lon="0.51806">
        <ele>1252</ele>
        <time>2020-02-01T14:21:14.000Z</time>
      </trkpt>
      <trkpt lat="42.85202" lon="0.51806">
        <ele>1252</ele>
        <time>2020-02-01T14:21:15.000Z</time>
      </trkpt>
      <trkpt lat="42.85203" lon="0.51806">
        <ele>1252.5</ele>
        <time>2020-02-01T14:21:16.000Z</time>
      </trkpt>
      <trkpt lat="42.85204" lon="0.51807">
        <ele>1253</ele>
        <time>2020-02-01T14:21:17.000Z</time>
      </trkpt>
      <trkpt lat="42.85205" lon="0.51807">
        <ele>1253</ele>
        <time>2020-02-01T14:21:18.000Z</time>
      </trkpt>
      <trkpt lat="42.85205" lon="0.51807">
        <ele>1253</ele>
        <time>2020-02-01T14:21:19.000Z</time>
      </trkpt>
      <trkpt lat="42.85206" lon="0.51808">
        <ele>1253</ele>
        <time>2020-02-01T14:21:20.000Z</time>
      </trkpt>
      <trkpt lat="42.85207" lon="0.51808">
        <ele>1253</ele>
        <time>2020-02-01T14:21:21.000Z</time>
      </trkpt>
      <trkpt lat="42.85207" lon="0.51809">
        <ele>1253</ele>
        <time>2020-02-01T14:21:22.000Z</time>
      </trkpt>
      <trkpt lat="42.85208" lon="0.51809">
        <ele>1253</ele>
        <time>2020-02-01T14:21:23.000Z</time>
      </trkpt>
      <trkpt lat="42.85209" lon="0.5181">
        <ele>1253</ele>
        <time>2020-02-01T14:21:24.000Z</time>
      </trkpt>
      <trkpt lat="42.85209" lon="0.51811">
        <ele>1253</ele>
        <time>2020-02-01T14:21:25.000Z</time>
      </trkpt>
      <trkpt lat="42.8521" lon="0.51811">
        <ele>1253</ele>
        <time>2020-02-01T14:21:26.000Z</time>
      </trkpt>
      <trkpt lat="42.85211" lon="0.51812">
        <ele>1253</ele>
        <time>2020-02-01T14:21:27.000Z</time>
      </trkpt>
      <trkpt lat="42.85212" lon="0.51813">
        <ele>1253</ele>
        <time>2020-02-01T14:21:28.000Z</time>
      </trkpt>
      <trkpt lat="42.85212" lon="0.51814">
        <ele>1253.5</ele>
        <time>2020-02-01T14:21:29.000Z</time>
      </trkpt>
      <trkpt lat="42.85213" lon="0.51815">
        <ele>1254</ele>
        <time>2020-02-01T14:21:30.000Z</time>
      </trkpt>
      <trkpt lat="42.85214" lon="0.51817">
        <ele>1254</ele>
        <time>2020-02-01T14:21:31.000Z</time>
      </trkpt>
      <trkpt lat="42.85215" lon="0.51818">
        <ele>1254</ele>
        <time>2020-02-01T14:21:32.000Z</time>
      </trkpt>
      <trkpt lat="42.85215" lon="0.51819">
        <ele>1254</ele>
        <time>2020-02-01T14:21:33.000Z</time>
      </trkpt>
      <trkpt lat="42.85216" lon="0.5182">
        <ele>1254</ele>
        <time>2020-02-01T14:21:34.000Z</time>
      </trkpt>
      <trkpt lat="42.85216" lon="0.51821">
        <ele>1254</ele>
        <time>2020-02-01T14:21:35.000Z</time>
      </trkpt>
      <trkpt lat="42.85217" lon="0.51823">
        <ele>1254</ele>
        <time>2020-02-01T14:21:36.000Z</time>
      </trkpt>
      <trkpt lat="42.85217" lon="0.51824">
        <ele>1254</ele>
        <time>2020-02-01T14:21:37.000Z</time>
      </trkpt>
      <trkpt lat="42.85217" lon="0.51825">
        <ele>1254</ele>
        <time>2020-02-01T14:21:38.000Z</time>
      </trkpt>
      <trkpt lat="42.85218" lon="0.51826">
        <ele>1254</ele>
        <time>2020-02-01T14:21:39.000Z</time>
      </trkpt>
      <trkpt lat="42.85218" lon="0.51827">
        <ele>1254</ele>
        <time>2020-02-01T14:21:40.000Z</time>
      </trkpt>
      <trkpt lat="42.85219" lon="0.51828">
        <ele>1254</ele>
        <time>2020-02-01T14:21:41.000Z</time>
      </trkpt>
      <trkpt lat="42.85219" lon="0.51829">
        <ele>1254</ele>
        <time>2020-02-01T14:21:42.000Z</time>
      </trkpt>
      <trkpt lat="42.8522" lon="0.5183">
        <ele>1254</ele>
        <time>2020-02-01T14:21:43.000Z</time>
      </trkpt>
      <trkpt lat="42.85221" lon="0.51831">
        <ele>1254</ele>
        <time>2020-02-01T14:21:44.000Z</time>
      </trkpt>
      <trkpt lat="42.85222" lon="0.51832">
        <ele>1254</ele>
        <time>2020-02-01T14:21:45.000Z</time>
      </trkpt>
      <trkpt lat="42.85223" lon="0.51833">
        <ele>1254</ele>
        <time>2020-02-01T14:21:46.000Z</time>
      </trkpt>
      <trkpt lat="42.85225" lon="0.51834">
        <ele>1254</ele>
        <time>2020-02-01T14:21:47.000Z</time>
      </trkpt>
      <trkpt lat="42.85226" lon="0.51834">
        <ele>1254</ele>
        <time>2020-02-01T14:21:48.000Z</time>
      </trkpt>
      <trkpt lat="42.85227" lon="0.51835">
        <ele>1254</ele>
        <time>2020-02-01T14:21:49.000Z</time>
      </trkpt>
      <trkpt lat="42.85228" lon="0.51836">
        <ele>1254</ele>
        <time>2020-02-01T14:21:50.000Z</time>
      </trkpt>
      <trkpt lat="42.85229" lon="0.51837">
        <ele>1254</ele>
        <time>2020-02-01T14:21:51.000Z</time>
      </trkpt>
      <trkpt lat="42.85229" lon="0.51837">
        <ele>1254</ele>
        <time>2020-02-01T14:21:52.000Z</time>
      </trkpt>
      <trkpt lat="42.8523" lon="0.51838">
        <ele>1254</ele>
        <time>2020-02-01T14:21:53.000Z</time>
      </trkpt>
      <trkpt lat="42.85231" lon="0.51839">
        <ele>1254</ele>
        <time>2020-02-01T14:21:54.000Z</time>
      </trkpt>
      <trkpt lat="42.85231" lon="0.51839">
        <ele>1254</ele>
        <time>2020-02-01T14:21:55.000Z</time>
      </trkpt>
      <trkpt lat="42.85232" lon="0.5184">
        <ele>1254</ele>
        <time>2020-02-01T14:21:56.000Z</time>
      </trkpt>
      <trkpt lat="42.85233" lon="0.51841">
        <ele>1254</ele>
        <time>2020-02-01T14:21:57.000Z</time>
      </trkpt>
      <trkpt lat="42.85233" lon="0.51842">
        <ele>1254</ele>
        <time>2020-02-01T14:21:58.000Z</time>
      </trkpt>
      <trkpt lat="42.85234" lon="0.51842">
        <ele>1254</ele>
        <time>2020-02-01T14:21:59.000Z</time>
      </trkpt>
      <trkpt lat="42.85235" lon="0.51843">
        <ele>1254</ele>
        <time>2020-02-01T14:22:00.000Z</time>
      </trkpt>
      <trkpt lat="42.85235" lon="0.51844">
        <ele>1254</ele>
        <time>2020-02-01T14:22:01.000Z</time>
      </trkpt>
      <trkpt lat="42.85236" lon="0.51845">
        <ele>1254</ele>
        <time>2020-02-01T14:22:02.000Z</time>
      </trkpt>
      <trkpt lat="42.85237" lon="0.51845">
        <ele>1254</ele>
        <time>2020-02-01T14:22:03.000Z</time>
      </trkpt>
      <trkpt lat="42.85238" lon="0.51846">
        <ele>1254.5</ele>
        <time>2020-02-01T14:22:04.000Z</time>
      </trkpt>
      <trkpt lat="42.85239" lon="0.51847">
        <ele>1255</ele>
        <time>2020-02-01T14:22:05.000Z</time>
      </trkpt>
      <trkpt lat="42.85239" lon="0.51848">
        <ele>1255</ele>
        <time>2020-02-01T14:22:06.000Z</time>
      </trkpt>
      <trkpt lat="42.8524" lon="0.51848">
        <ele>1255</ele>
        <time>2020-02-01T14:22:07.000Z</time>
      </trkpt>
      <trkpt lat="42.85241" lon="0.51849">
        <ele>1255</ele>
        <time>2020-02-01T14:22:08.000Z</time>
      </trkpt>
      <trkpt lat="42.85241" lon="0.5185">
        <ele>1255</ele>
        <time>2020-02-01T14:22:09.000Z</time>
      </trkpt>
      <trkpt lat="42.85242" lon="0.51851">
        <ele>1255</ele>
        <time>2020-02-01T14:22:10.000Z</time>
      </trkpt>
      <trkpt lat="42.85243" lon="0.51852">
        <ele>1255</ele>
        <time>2020-02-01T14:22:11.000Z</time>
      </trkpt>
      <trkpt lat="42.85244" lon="0.51853">
        <ele>1255</ele>
        <time>2020-02-01T14:22:12.000Z</time>
      </trkpt>
      <trkpt lat="42.85245" lon="0.51854">
        <ele>1255</ele>
        <time>2020-02-01T14:22:13.000Z</time>
      </trkpt>
      <trkpt lat="42.85246" lon="0.51855">
        <ele>1255</ele>
        <time>2020-02-01T14:22:14.000Z</time>
      </trkpt>
      <trkpt lat="42.85247" lon="0.51856">
        <ele>1255</ele>
        <time>2020-02-01T14:22:15.000Z</time>
      </trkpt>
      <trkpt lat="42.85248" lon="0.51857">
        <ele>1255</ele>
        <time>2020-02-01T14:22:16.000Z</time>
      </trkpt>
      <trkpt lat="42.85248" lon="0.51857">
        <ele>1255</ele>
        <time>2020-02-01T14:22:17.000Z</time>
      </trkpt>
      <trkpt lat="42.85249" lon="0.51857">
        <ele>1255</ele>
        <time>2020-02-01T14:22:18.000Z</time>
      </trkpt>
      <trkpt lat="42.85249" lon="0.51858">
        <ele>1255.5</ele>
        <time>2020-02-01T14:22:19.000Z</time>
      </trkpt>
      <trkpt lat="42.85249" lon="0.51858">
        <ele>1256</ele>
        <time>2020-02-01T14:22:20.000Z</time>
      </trkpt>
      <trkpt lat="42.85249" lon="0.51858">
        <ele>1256</ele>
        <time>2020-02-01T14:22:21.000Z</time>
      </trkpt>
      <trkpt lat="42.8525" lon="0.51858">
        <ele>1256</ele>
        <time>2020-02-01T14:22:22.000Z</time>
      </trkpt>
      <trkpt lat="42.8525" lon="0.51859">
        <ele>1256</ele>
        <time>2020-02-01T14:22:23.000Z</time>
      </trkpt>
      <trkpt lat="42.8525" lon="0.5186">
        <ele>1256</ele>
        <time>2020-02-01T14:22:24.000Z</time>
      </trkpt>
      <trkpt lat="42.85251" lon="0.5186">
        <ele>1256</ele>
        <time>2020-02-01T14:22:25.000Z</time>
      </trkpt>
      <trkpt lat="42.85251" lon="0.51861">
        <ele>1256</ele>
        <time>2020-02-01T14:22:26.000Z</time>
      </trkpt>
      <trkpt lat="42.85251" lon="0.51862">
        <ele>1256</ele>
        <time>2020-02-01T14:22:27.000Z</time>
      </trkpt>
      <trkpt lat="42.85251" lon="0.51864">
        <ele>1256</ele>
        <time>2020-02-01T14:22:28.000Z</time>
      </trkpt>
      <trkpt lat="42.85251" lon="0.51865">
        <ele>1256</ele>
        <time>2020-02-01T14:22:29.000Z</time>
      </trkpt>
      <trkpt lat="42.85251" lon="0.51866">
        <ele>1256</ele>
        <time>2020-02-01T14:22:30.000Z</time>
      </trkpt>
      <trkpt lat="42.85251" lon="0.51867">
        <ele>1256</ele>
        <time>2020-02-01T14:22:31.000Z</time>
      </trkpt>
      <trkpt lat="42.85251" lon="0.51868">
        <ele>1256</ele>
        <time>2020-02-01T14:22:32.000Z</time>
      </trkpt>
      <trkpt lat="42.8525" lon="0.51869">
        <ele>1256</ele>
        <time>2020-02-01T14:22:33.000Z</time>
      </trkpt>
      <trkpt lat="42.8525" lon="0.5187">
        <ele>1256</ele>
        <time>2020-02-01T14:22:34.000Z</time>
      </trkpt>
      <trkpt lat="42.8525" lon="0.51872">
        <ele>1256</ele>
        <time>2020-02-01T14:22:35.000Z</time>
      </trkpt>
      <trkpt lat="42.8525" lon="0.51873">
        <ele>1256</ele>
        <time>2020-02-01T14:22:36.000Z</time>
      </trkpt>
      <trkpt lat="42.85249" lon="0.51874">
        <ele>1256</ele>
        <time>2020-02-01T14:22:37.000Z</time>
      </trkpt>
      <trkpt lat="42.85249" lon="0.51875">
        <ele>1256</ele>
        <time>2020-02-01T14:22:38.000Z</time>
      </trkpt>
      <trkpt lat="42.85249" lon="0.51876">
        <ele>1256</ele>
        <time>2020-02-01T14:22:39.000Z</time>
      </trkpt>
      <trkpt lat="42.85249" lon="0.51877">
        <ele>1256</ele>
        <time>2020-02-01T14:22:40.000Z</time>
      </trkpt>
      <trkpt lat="42.85248" lon="0.51877">
        <ele>1256</ele>
        <time>2020-02-01T14:22:41.000Z</time>
      </trkpt>
      <trkpt lat="42.85248" lon="0.51878">
        <ele>1256</ele>
        <time>2020-02-01T14:22:42.000Z</time>
      </trkpt>
      <trkpt lat="42.85248" lon="0.51879">
        <ele>1256</ele>
        <time>2020-02-01T14:22:43.000Z</time>
      </trkpt>
      <trkpt lat="42.85247" lon="0.5188">
        <ele>1256</ele>
        <time>2020-02-01T14:22:44.000Z</time>
      </trkpt>
      <trkpt lat="42.85247" lon="0.5188">
        <ele>1256</ele>
        <time>2020-02-01T14:22:45.000Z</time>
      </trkpt>
      <trkpt lat="42.85246" lon="0.51881">
        <ele>1256</ele>
        <time>2020-02-01T14:22:46.000Z</time>
      </trkpt>
      <trkpt lat="42.85245" lon="0.51882">
        <ele>1256</ele>
        <time>2020-02-01T14:22:47.000Z</time>
      </trkpt>
      <trkpt lat="42.85245" lon="0.51882">
        <ele>1256</ele>
        <time>2020-02-01T14:22:48.000Z</time>
      </trkpt>
      <trkpt lat="42.85244" lon="0.51883">
        <ele>1256</ele>
        <time>2020-02-01T14:22:49.000Z</time>
      </trkpt>
      <trkpt lat="42.85243" lon="0.51884">
        <ele>1256</ele>
        <time>2020-02-01T14:22:50.000Z</time>
      </trkpt>
      <trkpt lat="42.85243" lon="0.51884">
        <ele>1256</ele>
        <time>2020-02-01T14:22:51.000Z</time>
      </trkpt>
      <trkpt lat="42.85242" lon="0.51884">
        <ele>1256</ele>
        <time>2020-02-01T14:22:52.000Z</time>
      </trkpt>
      <trkpt lat="42.85241" lon="0.51885">
        <ele>1256</ele>
        <time>2020-02-01T14:22:53.000Z</time>
      </trkpt>
      <trkpt lat="42.8524" lon="0.51885">
        <ele>1256</ele>
        <time>2020-02-01T14:22:54.000Z</time>
      </trkpt>
      <trkpt lat="42.85239" lon="0.51885">
        <ele>1256.5</ele>
        <time>2020-02-01T14:22:55.000Z</time>
      </trkpt>
      <trkpt lat="42.85238" lon="0.51886">
        <ele>1257</ele>
        <time>2020-02-01T14:22:56.000Z</time>
      </trkpt>
      <trkpt lat="42.85238" lon="0.51886">
        <ele>1257</ele>
        <time>2020-02-01T14:22:57.000Z</time>
      </trkpt>
      <trkpt lat="42.85237" lon="0.51886">
        <ele>1257</ele>
        <time>2020-02-01T14:22:58.000Z</time>
      </trkpt>
      <trkpt lat="42.85236" lon="0.51886">
        <ele>1257</ele>
        <time>2020-02-01T14:22:59.000Z</time>
      </trkpt>
      <trkpt lat="42.85235" lon="0.51886">
        <ele>1257</ele>
        <time>2020-02-01T14:23:00.000Z</time>
      </trkpt>
      <trkpt lat="42.85234" lon="0.51886">
        <ele>1257</ele>
        <time>2020-02-01T14:23:01.000Z</time>
      </trkpt>
      <trkpt lat="42.85234" lon="0.51886">
        <ele>1257</ele>
        <time>2020-02-01T14:23:02.000Z</time>
      </trkpt>
      <trkpt lat="42.85233" lon="0.51886">
        <ele>1257</ele>
        <time>2020-02-01T14:23:03.000Z</time>
      </trkpt>
      <trkpt lat="42.85232" lon="0.51885">
        <ele>1257</ele>
        <time>2020-02-01T14:23:04.000Z</time>
      </trkpt>
    </trkseg>
  </trk>
</gpx>